<?xml version="1.0" encoding="UTF-8" standalone="no" ?>
<gpx xmlns="http://www.topografix.com/GPX/1/1" xmlns:xsi="http://www.w3.org/2001/XMLSchema-instance" xsi:schemaLocation="http://www.topografix.com/GPX/1/1 http://www.topografix.com/GPX/1/1/gpx.xsd" version="1.1" creator="VisuGPX - https://www.visugpx.com">
  <metadata>
    <name>Pic et tour du Canigou </name>
    <desc><![CDATA[Trek effectué du dimanche 30/08/2020 vers 13h au jeudi 3 vers 10h.]]></desc>
  </metadata>
  <trk>
    <name><![CDATA[Pic et tour du Canigou _1]]></name>
    <extensions>
      <line xmlns="http://www.topografix.com/GPX/gpx_style/0/2">
        <color>0000FF</color>
        <opacity>1</opacity>
        <width>4</width>
      </line>
    </extensions>
    <trkseg>
      <trkpt lat="42.51422" lon="2.38088">
        <ele>1137.1</ele>
        <time>2020-08-30T11:00:00.000Z</time>
      </trkpt>
      <trkpt lat="42.51421" lon="2.38088">
        <ele>1137.1</ele>
        <time>2020-08-30T11:00:00.878Z</time>
      </trkpt>
      <trkpt lat="42.51423" lon="2.38089">
        <ele>1137.3</ele>
        <time>2020-08-30T11:00:05.472Z</time>
      </trkpt>
      <trkpt lat="42.51435" lon="2.38097">
        <ele>1138.4</ele>
        <time>2020-08-30T11:00:31.517Z</time>
      </trkpt>
      <trkpt lat="42.51444" lon="2.38104">
        <ele>1138.6</ele>
        <time>2020-08-30T11:00:42.586Z</time>
      </trkpt>
      <trkpt lat="42.51449" lon="2.38105">
        <ele>1138.4</ele>
        <time>2020-08-30T11:00:43.746Z</time>
      </trkpt>
      <trkpt lat="42.51455" lon="2.38106">
        <ele>1137.7</ele>
        <time>2020-08-30T11:00:44.951Z</time>
      </trkpt>
      <trkpt lat="42.5147" lon="2.38104">
        <ele>1135.1</ele>
        <time>2020-08-30T11:00:47.953Z</time>
      </trkpt>
      <trkpt lat="42.51482" lon="2.38103">
        <ele>1132.9</ele>
        <time>2020-08-30T11:00:50.349Z</time>
      </trkpt>
      <trkpt lat="42.51483" lon="2.38103">
        <ele>1132.6</ele>
        <time>2020-08-30T11:00:50.548Z</time>
      </trkpt>
      <trkpt lat="42.51491" lon="2.38103">
        <ele>1131.4</ele>
        <time>2020-08-30T11:00:52.142Z</time>
      </trkpt>
      <trkpt lat="42.51494" lon="2.38102">
        <ele>1130.7</ele>
        <time>2020-08-30T11:00:52.757Z</time>
      </trkpt>
      <trkpt lat="42.51498" lon="2.38101">
        <ele>1130</ele>
        <time>2020-08-30T11:00:53.567Z</time>
      </trkpt>
      <trkpt lat="42.51497" lon="2.38111">
        <ele>1132.5</ele>
        <time>2020-08-30T11:01:18.773Z</time>
        <extensions>
          <visugpx:TrkExtension xmlns:visugpx="https://www.visugpx.com/editgpx/">
            <visugpx:node>1</visugpx:node>
            </visugpx:TrkExtension>
        </extensions>
      </trkpt>
      <trkpt lat="42.51483" lon="2.38116">
        <ele>1134.7</ele>
        <time>2020-08-30T11:02:07.828Z</time>
      </trkpt>
      <trkpt lat="42.51475" lon="2.3812">
        <ele>1136.2</ele>
        <time>2020-08-30T11:02:36.718Z</time>
      </trkpt>
      <trkpt lat="42.51472" lon="2.38124">
        <ele>1137.2</ele>
        <time>2020-08-30T11:02:50.971Z</time>
      </trkpt>
      <trkpt lat="42.51469" lon="2.3813">
        <ele>1138.2</ele>
        <time>2020-08-30T11:03:09.080Z</time>
      </trkpt>
      <trkpt lat="42.51467" lon="2.38137">
        <ele>1139.1</ele>
        <time>2020-08-30T11:03:27.831Z</time>
      </trkpt>
      <trkpt lat="42.51468" lon="2.38147">
        <ele>1139.6</ele>
        <time>2020-08-30T11:03:40.710Z</time>
      </trkpt>
      <trkpt lat="42.51468" lon="2.38155">
        <ele>1139.8</ele>
        <time>2020-08-30T11:03:48.225Z</time>
      </trkpt>
      <trkpt lat="42.51469" lon="2.38164">
        <ele>1140</ele>
        <time>2020-08-30T11:03:56.333Z</time>
      </trkpt>
      <trkpt lat="42.51468" lon="2.38171">
        <ele>1150.7</ele>
        <time>2020-08-30T11:04:14.142Z</time>
      </trkpt>
      <trkpt lat="42.51468" lon="2.38184">
        <ele>1152</ele>
        <time>2020-08-30T11:04:46.612Z</time>
      </trkpt>
      <trkpt lat="42.51465" lon="2.38204">
        <ele>1155.1</ele>
        <time>2020-08-30T11:05:37.589Z</time>
      </trkpt>
      <trkpt lat="42.51461" lon="2.38231">
        <ele>1158.2</ele>
        <time>2020-08-30T11:06:46.375Z</time>
      </trkpt>
      <trkpt lat="42.51454" lon="2.38287">
        <ele>1170.5</ele>
        <time>2020-08-30T11:09:08.242Z</time>
      </trkpt>
      <trkpt lat="42.5145" lon="2.38336">
        <ele>1183.6</ele>
        <time>2020-08-30T11:11:11.376Z</time>
      </trkpt>
      <trkpt lat="42.51451" lon="2.38366">
        <ele>1184.7</ele>
        <time>2020-08-30T11:11:45.311Z</time>
      </trkpt>
      <trkpt lat="42.51468" lon="2.38405">
        <ele>1183.1</ele>
        <time>2020-08-30T11:11:52.416Z</time>
      </trkpt>
      <trkpt lat="42.51484" lon="2.38443">
        <ele>1195.5</ele>
        <time>2020-08-30T11:13:41.721Z</time>
      </trkpt>
      <trkpt lat="42.51492" lon="2.38474">
        <ele>1200.1</ele>
        <time>2020-08-30T11:15:03.757Z</time>
      </trkpt>
      <trkpt lat="42.51496" lon="2.38499">
        <ele>1196.9</ele>
        <time>2020-08-30T11:15:07.514Z</time>
      </trkpt>
      <trkpt lat="42.51508" lon="2.38549">
        <ele>1196.2</ele>
        <time>2020-08-30T11:15:18.714Z</time>
      </trkpt>
      <trkpt lat="42.51511" lon="2.38577">
        <ele>1205.4</ele>
        <time>2020-08-30T11:16:29.383Z</time>
      </trkpt>
      <trkpt lat="42.51512" lon="2.38586">
        <ele>1210.7</ele>
        <time>2020-08-30T11:16:52.116Z</time>
      </trkpt>
      <trkpt lat="42.51513" lon="2.38601">
        <ele>1208.4</ele>
        <time>2020-08-30T11:16:54.328Z</time>
      </trkpt>
      <trkpt lat="42.51516" lon="2.38614">
        <ele>1206.9</ele>
        <time>2020-08-30T11:16:56.328Z</time>
      </trkpt>
      <trkpt lat="42.51527" lon="2.38631">
        <ele>1205.7</ele>
        <time>2020-08-30T11:16:59.650Z</time>
      </trkpt>
      <trkpt lat="42.51537" lon="2.38644">
        <ele>1204.6</ele>
        <time>2020-08-30T11:17:02.409Z</time>
      </trkpt>
      <trkpt lat="42.51539" lon="2.38648">
        <ele>1204.3</ele>
        <time>2020-08-30T11:17:03.119Z</time>
      </trkpt>
      <trkpt lat="42.5154" lon="2.38659">
        <ele>1204.4</ele>
        <time>2020-08-30T11:17:11.202Z</time>
      </trkpt>
      <trkpt lat="42.51541" lon="2.38665">
        <ele>1204.5</ele>
        <time>2020-08-30T11:17:16.194Z</time>
      </trkpt>
      <trkpt lat="42.51539" lon="2.38672">
        <ele>1200</ele>
        <time>2020-08-30T11:17:17.296Z</time>
      </trkpt>
      <trkpt lat="42.51537" lon="2.38678">
        <ele>1200.1</ele>
        <time>2020-08-30T11:17:22.552Z</time>
      </trkpt>
      <trkpt lat="42.51533" lon="2.38683">
        <ele>1200.6</ele>
        <time>2020-08-30T11:17:34.072Z</time>
      </trkpt>
      <trkpt lat="42.51527" lon="2.38689">
        <ele>1201.2</ele>
        <time>2020-08-30T11:17:48.381Z</time>
      </trkpt>
      <trkpt lat="42.51524" lon="2.38689">
        <ele>1201.8</ele>
        <time>2020-08-30T11:17:58.546Z</time>
      </trkpt>
      <trkpt lat="42.51521" lon="2.38689">
        <ele>1202.7</ele>
        <time>2020-08-30T11:18:08.711Z</time>
      </trkpt>
      <trkpt lat="42.51515" lon="2.38687">
        <ele>1204.5</ele>
        <time>2020-08-30T11:18:29.647Z</time>
      </trkpt>
      <trkpt lat="42.51503" lon="2.38681">
        <ele>1209.7</ele>
        <time>2020-08-30T11:19:12.983Z</time>
      </trkpt>
      <trkpt lat="42.51497" lon="2.38678">
        <ele>1221.6</ele>
        <time>2020-08-30T11:19:34.650Z</time>
      </trkpt>
      <trkpt lat="42.51491" lon="2.38678">
        <ele>1222.1</ele>
        <time>2020-08-30T11:19:46.442Z</time>
      </trkpt>
      <trkpt lat="42.51479" lon="2.38682">
        <ele>1223.9</ele>
        <time>2020-08-30T11:20:28.314Z</time>
      </trkpt>
      <trkpt lat="42.51467" lon="2.38689">
        <ele>1225.7</ele>
        <time>2020-08-30T11:21:12.575Z</time>
      </trkpt>
      <trkpt lat="42.5146" lon="2.38692">
        <ele>1226.7</ele>
        <time>2020-08-30T11:21:37.450Z</time>
      </trkpt>
      <trkpt lat="42.51453" lon="2.38693">
        <ele>1228</ele>
        <time>2020-08-30T11:22:01.301Z</time>
      </trkpt>
      <trkpt lat="42.5144" lon="2.38693">
        <ele>1230.9</ele>
        <time>2020-08-30T11:22:45.351Z</time>
      </trkpt>
      <trkpt lat="42.51428" lon="2.38697">
        <ele>1232.4</ele>
        <time>2020-08-30T11:23:21.014Z</time>
      </trkpt>
      <trkpt lat="42.51408" lon="2.38713">
        <ele>1251.6</ele>
        <time>2020-08-30T11:24:39.689Z</time>
      </trkpt>
      <trkpt lat="42.51398" lon="2.38723">
        <ele>1250.8</ele>
        <time>2020-08-30T11:24:41.996Z</time>
        <extensions>
          <visugpx:TrkExtension xmlns:visugpx="https://www.visugpx.com/editgpx/">
            <visugpx:node>2</visugpx:node>
            </visugpx:TrkExtension>
        </extensions>
      </trkpt>
      <trkpt lat="42.51387" lon="2.38732">
        <ele>1251.7</ele>
        <time>2020-08-30T11:25:04.715Z</time>
      </trkpt>
      <trkpt lat="42.51369" lon="2.38753">
        <ele>1237.5</ele>
        <time>2020-08-30T11:25:09.445Z</time>
      </trkpt>
      <trkpt lat="42.51352" lon="2.38774">
        <ele>1240.2</ele>
        <time>2020-08-30T11:26:12.719Z</time>
      </trkpt>
      <trkpt lat="42.51337" lon="2.3879">
        <ele>1238.3</ele>
        <time>2020-08-30T11:26:16.521Z</time>
      </trkpt>
      <trkpt lat="42.51322" lon="2.38804">
        <ele>1263.3</ele>
        <time>2020-08-30T11:27:18.215Z</time>
      </trkpt>
      <trkpt lat="42.51312" lon="2.38812">
        <ele>1263.2</ele>
        <time>2020-08-30T11:27:21.999Z</time>
      </trkpt>
      <trkpt lat="42.513" lon="2.38817">
        <ele>1266.6</ele>
        <time>2020-08-30T11:28:04.535Z</time>
      </trkpt>
      <trkpt lat="42.51284" lon="2.38825">
        <ele>1271.6</ele>
        <time>2020-08-30T11:29:02.316Z</time>
      </trkpt>
      <trkpt lat="42.51275" lon="2.38833">
        <ele>1274.1</ele>
        <time>2020-08-30T11:29:38.776Z</time>
      </trkpt>
      <trkpt lat="42.51269" lon="2.38843">
        <ele>1264.9</ele>
        <time>2020-08-30T11:29:40.669Z</time>
      </trkpt>
      <trkpt lat="42.5126" lon="2.38866">
        <ele>1261.5</ele>
        <time>2020-08-30T11:29:44.493Z</time>
      </trkpt>
      <trkpt lat="42.51255" lon="2.38882">
        <ele>1260.2</ele>
        <time>2020-08-30T11:29:47.045Z</time>
      </trkpt>
      <trkpt lat="42.51247" lon="2.38894">
        <ele>1286.9</ele>
        <time>2020-08-30T11:30:27.459Z</time>
      </trkpt>
      <trkpt lat="42.51241" lon="2.38901">
        <ele>1285</ele>
        <time>2020-08-30T11:30:29.035Z</time>
      </trkpt>
      <trkpt lat="42.5123" lon="2.38913">
        <ele>1287.4</ele>
        <time>2020-08-30T11:31:16.865Z</time>
      </trkpt>
      <trkpt lat="42.51215" lon="2.3893">
        <ele>1287.5</ele>
        <time>2020-08-30T11:31:34.880Z</time>
      </trkpt>
      <trkpt lat="42.51175" lon="2.38968">
        <ele>1294.9</ele>
        <time>2020-08-30T11:34:20.349Z</time>
      </trkpt>
      <trkpt lat="42.51172" lon="2.38971">
        <ele>1295.1</ele>
        <time>2020-08-30T11:34:26.215Z</time>
      </trkpt>
      <trkpt lat="42.51157" lon="2.39007">
        <ele>1312.2</ele>
        <time>2020-08-30T11:36:09.506Z</time>
      </trkpt>
      <trkpt lat="42.5115" lon="2.39045">
        <ele>1321.9</ele>
        <time>2020-08-30T11:37:47.341Z</time>
      </trkpt>
      <trkpt lat="42.51139" lon="2.39079">
        <ele>1323</ele>
        <time>2020-08-30T11:38:25.395Z</time>
      </trkpt>
      <trkpt lat="42.51151" lon="2.39082">
        <ele>1318.2</ele>
        <time>2020-08-30T11:38:27.826Z</time>
      </trkpt>
      <trkpt lat="42.51163" lon="2.39085">
        <ele>1314.2</ele>
        <time>2020-08-30T11:38:30.257Z</time>
      </trkpt>
      <trkpt lat="42.51163" lon="2.39093">
        <ele>1320.1</ele>
        <time>2020-08-30T11:38:50.239Z</time>
      </trkpt>
      <trkpt lat="42.5114" lon="2.39111">
        <ele>1335.1</ele>
        <time>2020-08-30T11:40:20.213Z</time>
      </trkpt>
      <trkpt lat="42.51115" lon="2.39128">
        <ele>1342.3</ele>
        <time>2020-08-30T11:41:54.972Z</time>
      </trkpt>
      <trkpt lat="42.51099" lon="2.39129">
        <ele>1344.5</ele>
        <time>2020-08-30T11:42:49.245Z</time>
      </trkpt>
      <trkpt lat="42.5109" lon="2.39134">
        <ele>1346.4</ele>
        <time>2020-08-30T11:43:22.200Z</time>
      </trkpt>
      <trkpt lat="42.5109" lon="2.39144">
        <ele>1348.9</ele>
        <time>2020-08-30T11:43:47.178Z</time>
      </trkpt>
      <trkpt lat="42.511" lon="2.39163">
        <ele>1351.3</ele>
        <time>2020-08-30T11:44:45.492Z</time>
      </trkpt>
      <trkpt lat="42.51117" lon="2.39178">
        <ele>1369</ele>
        <time>2020-08-30T11:45:54.209Z</time>
      </trkpt>
      <trkpt lat="42.51127" lon="2.39189">
        <ele>1370.3</ele>
        <time>2020-08-30T11:46:23.904Z</time>
      </trkpt>
      <trkpt lat="42.51123" lon="2.39198">
        <ele>1372.5</ele>
        <time>2020-08-30T11:46:50.154Z</time>
      </trkpt>
      <trkpt lat="42.51103" lon="2.39211">
        <ele>1377.2</ele>
        <time>2020-08-30T11:48:05.301Z</time>
      </trkpt>
      <trkpt lat="42.51091" lon="2.39215">
        <ele>1379.2</ele>
        <time>2020-08-30T11:48:47.173Z</time>
      </trkpt>
      <trkpt lat="42.51091" lon="2.39224">
        <ele>1382.6</ele>
        <time>2020-08-30T11:49:09.653Z</time>
      </trkpt>
      <trkpt lat="42.51097" lon="2.39232">
        <ele>1385.1</ele>
        <time>2020-08-30T11:49:38.160Z</time>
      </trkpt>
      <trkpt lat="42.51114" lon="2.39233">
        <ele>1381.9</ele>
        <time>2020-08-30T11:49:41.550Z</time>
      </trkpt>
      <trkpt lat="42.5113" lon="2.39237">
        <ele>1381</ele>
        <time>2020-08-30T11:49:44.799Z</time>
      </trkpt>
      <trkpt lat="42.51152" lon="2.39249">
        <ele>1384.5</ele>
        <time>2020-08-30T11:51:05.146Z</time>
      </trkpt>
      <trkpt lat="42.51164" lon="2.39263">
        <ele>1398.2</ele>
        <time>2020-08-30T11:51:58.776Z</time>
      </trkpt>
      <trkpt lat="42.51167" lon="2.39269">
        <ele>1399.6</ele>
        <time>2020-08-30T11:52:16.885Z</time>
      </trkpt>
      <trkpt lat="42.5117" lon="2.39279">
        <ele>1402.4</ele>
        <time>2020-08-30T11:52:43.853Z</time>
      </trkpt>
      <trkpt lat="42.51174" lon="2.39293">
        <ele>1405.5</ele>
        <time>2020-08-30T11:53:21.357Z</time>
      </trkpt>
      <trkpt lat="42.51177" lon="2.39303">
        <ele>1407.5</ele>
        <time>2020-08-30T11:53:48.324Z</time>
      </trkpt>
      <trkpt lat="42.51175" lon="2.39314">
        <ele>1409.4</ele>
        <time>2020-08-30T11:54:16.623Z</time>
      </trkpt>
      <trkpt lat="42.51169" lon="2.39321">
        <ele>1410.9</ele>
        <time>2020-08-30T11:54:43.438Z</time>
      </trkpt>
      <trkpt lat="42.51161" lon="2.39321">
        <ele>1411.9</ele>
        <time>2020-08-30T11:55:07.601Z</time>
      </trkpt>
      <trkpt lat="42.5115" lon="2.39318">
        <ele>1411.4</ele>
        <time>2020-08-30T11:55:10.061Z</time>
      </trkpt>
      <trkpt lat="42.51132" lon="2.39311">
        <ele>1411.6</ele>
        <time>2020-08-30T11:55:28.294Z</time>
      </trkpt>
      <trkpt lat="42.51118" lon="2.39312">
        <ele>1413.3</ele>
        <time>2020-08-30T11:56:08.691Z</time>
      </trkpt>
      <trkpt lat="42.51111" lon="2.39312">
        <ele>1414.5</ele>
        <time>2020-08-30T11:56:32.411Z</time>
      </trkpt>
      <trkpt lat="42.51103" lon="2.39316">
        <ele>1416.9</ele>
        <time>2020-08-30T11:57:01.301Z</time>
      </trkpt>
      <trkpt lat="42.51096" lon="2.39327">
        <ele>1422</ele>
        <time>2020-08-30T11:57:37.599Z</time>
      </trkpt>
      <trkpt lat="42.51097" lon="2.39332">
        <ele>1422.6</ele>
        <time>2020-08-30T11:57:50.540Z</time>
      </trkpt>
      <trkpt lat="42.51103" lon="2.39334">
        <ele>1425</ele>
        <time>2020-08-30T11:58:11.476Z</time>
      </trkpt>
      <trkpt lat="42.51108" lon="2.39336">
        <ele>1423.8</ele>
        <time>2020-08-30T11:58:12.514Z</time>
      </trkpt>
      <trkpt lat="42.5111" lon="2.39338">
        <ele>1423.2</ele>
        <time>2020-08-30T11:58:13.009Z</time>
      </trkpt>
      <trkpt lat="42.51106" lon="2.3934">
        <ele>1423.8</ele>
        <time>2020-08-30T11:58:27.455Z</time>
      </trkpt>
      <trkpt lat="42.51098" lon="2.39343">
        <ele>1425.5</ele>
        <time>2020-08-30T11:58:55.579Z</time>
      </trkpt>
      <trkpt lat="42.5109" lon="2.39346">
        <ele>1426.7</ele>
        <time>2020-08-30T11:59:23.704Z</time>
      </trkpt>
      <trkpt lat="42.51083" lon="2.39345">
        <ele>1433.8</ele>
        <time>2020-08-30T11:59:47.554Z</time>
      </trkpt>
      <trkpt lat="42.51076" lon="2.39343">
        <ele>1434.1</ele>
        <time>2020-08-30T11:59:57.758Z</time>
      </trkpt>
      <trkpt lat="42.51071" lon="2.39347">
        <ele>1434.9</ele>
        <time>2020-08-30T12:00:17.428Z</time>
      </trkpt>
      <trkpt lat="42.51065" lon="2.39351">
        <ele>1435.6</ele>
        <time>2020-08-30T12:00:33.435Z</time>
      </trkpt>
      <trkpt lat="42.51057" lon="2.39355">
        <ele>1436.5</ele>
        <time>2020-08-30T12:00:54.028Z</time>
      </trkpt>
      <trkpt lat="42.5105" lon="2.39355">
        <ele>1437.3</ele>
        <time>2020-08-30T12:01:12.606Z</time>
      </trkpt>
      <trkpt lat="42.51045" lon="2.39355">
        <ele>1437.8</ele>
        <time>2020-08-30T12:01:24.029Z</time>
      </trkpt>
      <trkpt lat="42.51043" lon="2.39359">
        <ele>1438</ele>
        <time>2020-08-30T12:01:29.731Z</time>
      </trkpt>
      <trkpt lat="42.51037" lon="2.39359">
        <ele>1438.6</ele>
        <time>2020-08-30T12:01:43.438Z</time>
      </trkpt>
      <trkpt lat="42.51026" lon="2.39365">
        <ele>1439.6</ele>
        <time>2020-08-30T12:02:06.938Z</time>
      </trkpt>
      <trkpt lat="42.51022" lon="2.39367">
        <ele>1440</ele>
        <time>2020-08-30T12:02:16.125Z</time>
        <extensions>
          <visugpx:TrkExtension xmlns:visugpx="https://www.visugpx.com/editgpx/">
            <visugpx:node>4</visugpx:node>
            </visugpx:TrkExtension>
        </extensions>
      </trkpt>
      <trkpt lat="42.51015" lon="2.39369">
        <ele>1440.6</ele>
        <time>2020-08-30T12:02:30.248Z</time>
      </trkpt>
      <trkpt lat="42.51003" lon="2.39368">
        <ele>1441.3</ele>
        <time>2020-08-30T12:02:49.768Z</time>
      </trkpt>
      <trkpt lat="42.50993" lon="2.39371">
        <ele>1458.2</ele>
        <time>2020-08-30T12:03:24.472Z</time>
      </trkpt>
      <trkpt lat="42.50982" lon="2.39376">
        <ele>1459.7</ele>
        <time>2020-08-30T12:04:01.565Z</time>
      </trkpt>
      <trkpt lat="42.50961" lon="2.39379">
        <ele>1463.7</ele>
        <time>2020-08-30T12:05:13.117Z</time>
      </trkpt>
      <trkpt lat="42.50962" lon="2.39393">
        <ele>1463.4</ele>
        <time>2020-08-30T12:05:15.767Z</time>
      </trkpt>
      <trkpt lat="42.50956" lon="2.39406">
        <ele>1464.7</ele>
        <time>2020-08-30T12:05:46.011Z</time>
      </trkpt>
      <trkpt lat="42.50944" lon="2.39429">
        <ele>1459.2</ele>
        <time>2020-08-30T12:05:50.149Z</time>
      </trkpt>
      <trkpt lat="42.50925" lon="2.3947">
        <ele>1454.7</ele>
        <time>2020-08-30T12:05:57.262Z</time>
      </trkpt>
      <trkpt lat="42.50897" lon="2.39524">
        <ele>1459.7</ele>
        <time>2020-08-30T12:07:51.492Z</time>
      </trkpt>
      <trkpt lat="42.50885" lon="2.39544">
        <ele>1459.2</ele>
        <time>2020-08-30T12:07:56.490Z</time>
      </trkpt>
      <trkpt lat="42.50863" lon="2.39547">
        <ele>1461.9</ele>
        <time>2020-08-30T12:09:00.877Z</time>
      </trkpt>
      <trkpt lat="42.50837" lon="2.39556">
        <ele>1461.5</ele>
        <time>2020-08-30T12:09:08.936Z</time>
      </trkpt>
      <trkpt lat="42.50818" lon="2.3956">
        <ele>1472</ele>
        <time>2020-08-30T12:10:14.088Z</time>
      </trkpt>
      <trkpt lat="42.50787" lon="2.3956">
        <ele>1476.3</ele>
        <time>2020-08-30T12:11:59.131Z</time>
      </trkpt>
      <trkpt lat="42.50753" lon="2.39563">
        <ele>1475.7</ele>
        <time>2020-08-30T12:12:09.030Z</time>
      </trkpt>
      <trkpt lat="42.50714" lon="2.3957">
        <ele>1484.4</ele>
        <time>2020-08-30T12:14:22.333Z</time>
      </trkpt>
      <trkpt lat="42.50687" lon="2.39571">
        <ele>1485.2</ele>
        <time>2020-08-30T12:14:54.895Z</time>
      </trkpt>
      <trkpt lat="42.50665" lon="2.39564">
        <ele>1489.6</ele>
        <time>2020-08-30T12:16:11.466Z</time>
      </trkpt>
      <trkpt lat="42.50628" lon="2.39559">
        <ele>1494.6</ele>
        <time>2020-08-30T12:18:17.460Z</time>
      </trkpt>
      <trkpt lat="42.50594" lon="2.39554">
        <ele>1496.3</ele>
        <time>2020-08-30T12:19:09.894Z</time>
      </trkpt>
      <trkpt lat="42.50589" lon="2.39553">
        <ele>1496.5</ele>
        <time>2020-08-30T12:19:16.858Z</time>
      </trkpt>
      <trkpt lat="42.50585" lon="2.39559">
        <ele>1495.8</ele>
        <time>2020-08-30T12:19:18.046Z</time>
      </trkpt>
      <trkpt lat="42.50585" lon="2.39568">
        <ele>1494.8</ele>
        <time>2020-08-30T12:19:19.368Z</time>
      </trkpt>
      <trkpt lat="42.50595" lon="2.39616">
        <ele>1485.9</ele>
        <time>2020-08-30T12:19:26.694Z</time>
      </trkpt>
      <trkpt lat="42.50603" lon="2.39648">
        <ele>1485.7</ele>
        <time>2020-08-30T12:19:34.877Z</time>
        <extensions>
          <visugpx:TrkExtension xmlns:visugpx="https://www.visugpx.com/editgpx/">
            <visugpx:node>5</visugpx:node>
            </visugpx:TrkExtension>
        </extensions>
      </trkpt>
      <trkpt lat="42.50608" lon="2.39669">
        <ele>1478.3</ele>
        <time>2020-08-30T12:19:38.118Z</time>
      </trkpt>
      <trkpt lat="42.50605" lon="2.39679">
        <ele>1478</ele>
        <time>2020-08-30T12:19:39.980Z</time>
      </trkpt>
      <trkpt lat="42.506" lon="2.39679">
        <ele>1480.2</ele>
        <time>2020-08-30T12:19:56.922Z</time>
      </trkpt>
      <trkpt lat="42.50593" lon="2.39671">
        <ele>1486.3</ele>
        <time>2020-08-30T12:20:27.938Z</time>
      </trkpt>
      <trkpt lat="42.50574" lon="2.39649">
        <ele>1502.1</ele>
        <time>2020-08-30T12:21:52.585Z</time>
      </trkpt>
      <trkpt lat="42.50563" lon="2.39638">
        <ele>1504.7</ele>
        <time>2020-08-30T12:22:38.893Z</time>
      </trkpt>
      <trkpt lat="42.50549" lon="2.39631">
        <ele>1507.1</ele>
        <time>2020-08-30T12:23:29.452Z</time>
      </trkpt>
      <trkpt lat="42.50539" lon="2.39634">
        <ele>1508.6</ele>
        <time>2020-08-30T12:24:04.155Z</time>
      </trkpt>
      <trkpt lat="42.5054" lon="2.39638">
        <ele>1508.3</ele>
        <time>2020-08-30T12:24:04.776Z</time>
      </trkpt>
      <trkpt lat="42.50538" lon="2.39646">
        <ele>1508.3</ele>
        <time>2020-08-30T12:24:10.247Z</time>
      </trkpt>
      <trkpt lat="42.5053" lon="2.39654">
        <ele>1509.3</ele>
        <time>2020-08-30T12:24:33.089Z</time>
      </trkpt>
      <trkpt lat="42.50526" lon="2.39651">
        <ele>1509.9</ele>
        <time>2020-08-30T12:24:48.108Z</time>
      </trkpt>
      <trkpt lat="42.50523" lon="2.39637">
        <ele>1510.7</ele>
        <time>2020-08-30T12:25:07.764Z</time>
      </trkpt>
      <trkpt lat="42.50514" lon="2.39616">
        <ele>1514.1</ele>
        <time>2020-08-30T12:26:08.444Z</time>
      </trkpt>
      <trkpt lat="42.50502" lon="2.39623">
        <ele>1514</ele>
        <time>2020-08-30T12:26:12.757Z</time>
      </trkpt>
      <trkpt lat="42.5048" lon="2.39633">
        <ele>1534.5</ele>
        <time>2020-08-30T12:27:31.378Z</time>
      </trkpt>
      <trkpt lat="42.50451" lon="2.39644">
        <ele>1539.1</ele>
        <time>2020-08-30T12:29:13.414Z</time>
      </trkpt>
      <trkpt lat="42.50432" lon="2.39658">
        <ele>1540.5</ele>
        <time>2020-08-30T12:29:50.181Z</time>
      </trkpt>
      <trkpt lat="42.50401" lon="2.39691">
        <ele>1543.5</ele>
        <time>2020-08-30T12:31:03.218Z</time>
      </trkpt>
      <trkpt lat="42.50372" lon="2.39704">
        <ele>1547.2</ele>
        <time>2020-08-30T12:32:31.098Z</time>
      </trkpt>
      <trkpt lat="42.50316" lon="2.39742">
        <ele>1564.6</ele>
        <time>2020-08-30T12:36:03.274Z</time>
      </trkpt>
      <trkpt lat="42.50286" lon="2.39771">
        <ele>1572.3</ele>
        <time>2020-08-30T12:38:08.103Z</time>
      </trkpt>
      <trkpt lat="42.5029" lon="2.39786">
        <ele>1572.5</ele>
        <time>2020-08-30T12:38:20.340Z</time>
      </trkpt>
      <trkpt lat="42.50311" lon="2.39804">
        <ele>1570.2</ele>
        <time>2020-08-30T12:38:25.289Z</time>
      </trkpt>
      <trkpt lat="42.50335" lon="2.39811">
        <ele>1550.1</ele>
        <time>2020-08-30T12:38:30.180Z</time>
      </trkpt>
      <trkpt lat="42.50353" lon="2.39828">
        <ele>1549.6</ele>
        <time>2020-08-30T12:38:36.177Z</time>
      </trkpt>
      <trkpt lat="42.50366" lon="2.39864">
        <ele>1555.2</ele>
        <time>2020-08-30T12:40:16.318Z</time>
      </trkpt>
      <trkpt lat="42.50374" lon="2.39902">
        <ele>1557.7</ele>
        <time>2020-08-30T12:41:14.791Z</time>
      </trkpt>
      <trkpt lat="42.50379" lon="2.39941">
        <ele>1566.5</ele>
        <time>2020-08-30T12:42:53.679Z</time>
      </trkpt>
      <trkpt lat="42.50379" lon="2.39962">
        <ele>1567.4</ele>
        <time>2020-08-30T12:43:18.799Z</time>
      </trkpt>
      <trkpt lat="42.50373" lon="2.39993">
        <ele>1570.3</ele>
        <time>2020-08-30T12:44:28.140Z</time>
      </trkpt>
      <trkpt lat="42.50362" lon="2.40022">
        <ele>1570.7</ele>
        <time>2020-08-30T12:44:53.059Z</time>
      </trkpt>
      <trkpt lat="42.5033" lon="2.40049">
        <ele>1600.7</ele>
        <time>2020-08-30T12:47:00.758Z</time>
      </trkpt>
      <trkpt lat="42.50305" lon="2.40084">
        <ele>1592.7</ele>
        <time>2020-08-30T12:47:07.915Z</time>
      </trkpt>
      <trkpt lat="42.50289" lon="2.40101">
        <ele>1597.1</ele>
        <time>2020-08-30T12:48:16.784Z</time>
      </trkpt>
      <trkpt lat="42.50279" lon="2.40135">
        <ele>1595.5</ele>
        <time>2020-08-30T12:48:22.001Z</time>
      </trkpt>
      <trkpt lat="42.50258" lon="2.40155">
        <ele>1598.3</ele>
        <time>2020-08-30T12:49:26.340Z</time>
      </trkpt>
      <trkpt lat="42.50231" lon="2.40168">
        <ele>1604.5</ele>
        <time>2020-08-30T12:51:03.422Z</time>
      </trkpt>
      <trkpt lat="42.50202" lon="2.40186">
        <ele>1610.4</ele>
        <time>2020-08-30T12:52:51.488Z</time>
      </trkpt>
      <trkpt lat="42.50195" lon="2.40207">
        <ele>1608.6</ele>
        <time>2020-08-30T12:52:54.873Z</time>
      </trkpt>
      <trkpt lat="42.50181" lon="2.40232">
        <ele>1608.1</ele>
        <time>2020-08-30T12:53:01.289Z</time>
      </trkpt>
      <trkpt lat="42.5015" lon="2.4026">
        <ele>1614.8</ele>
        <time>2020-08-30T12:55:07.491Z</time>
      </trkpt>
      <trkpt lat="42.501" lon="2.40299">
        <ele>1620</ele>
        <time>2020-08-30T12:57:07.725Z</time>
      </trkpt>
      <trkpt lat="42.5005" lon="2.4032">
        <ele>1643.3</ele>
        <time>2020-08-30T13:00:05.086Z</time>
      </trkpt>
      <trkpt lat="42.50023" lon="2.40334">
        <ele>1642.5</ele>
        <time>2020-08-30T13:00:12.575Z</time>
      </trkpt>
      <trkpt lat="42.5001" lon="2.4035">
        <ele>1644.4</ele>
        <time>2020-08-30T13:00:56.177Z</time>
      </trkpt>
      <trkpt lat="42.49987" lon="2.40382">
        <ele>1664</ele>
        <time>2020-08-30T13:02:47.824Z</time>
      </trkpt>
      <trkpt lat="42.50019" lon="2.40411">
        <ele>1646</ele>
        <time>2020-08-30T13:02:55.491Z</time>
      </trkpt>
      <trkpt lat="42.50055" lon="2.40441">
        <ele>1650.9</ele>
        <time>2020-08-30T13:04:49.808Z</time>
      </trkpt>
      <trkpt lat="42.50075" lon="2.40466">
        <ele>1654.8</ele>
        <time>2020-08-30T13:06:21.968Z</time>
      </trkpt>
      <trkpt lat="42.50085" lon="2.4049">
        <ele>1649.4</ele>
        <time>2020-08-30T13:06:26.017Z</time>
      </trkpt>
      <trkpt lat="42.50071" lon="2.40589">
        <ele>1688</ele>
        <time>2020-08-30T13:10:37.850Z</time>
        <extensions>
          <visugpx:TrkExtension xmlns:visugpx="https://www.visugpx.com/editgpx/">
            <visugpx:node>6</visugpx:node>
            </visugpx:TrkExtension>
        </extensions>
      </trkpt>
      <trkpt lat="42.50061" lon="2.40654">
        <ele>1695.5</ele>
        <time>2020-08-30T13:13:23.733Z</time>
      </trkpt>
      <trkpt lat="42.50048" lon="2.40725">
        <ele>1705.3</ele>
        <time>2020-08-30T13:16:26.496Z</time>
      </trkpt>
      <trkpt lat="42.50041" lon="2.40711">
        <ele>1706.2</ele>
        <time>2020-08-30T13:16:48.908Z</time>
      </trkpt>
      <trkpt lat="42.50035" lon="2.40699">
        <ele>1706.9</ele>
        <time>2020-08-30T13:17:07.183Z</time>
      </trkpt>
      <trkpt lat="42.50028" lon="2.40682">
        <ele>1708.6</ele>
        <time>2020-08-30T13:17:47.153Z</time>
        <extensions>
          <visugpx:TrkExtension xmlns:visugpx="https://www.visugpx.com/editgpx/">
            <visugpx:node>7</visugpx:node>
            </visugpx:TrkExtension>
        </extensions>
      </trkpt>
      <trkpt lat="42.50027" lon="2.40679">
        <ele>1709</ele>
        <time>2020-08-30T13:17:55.378Z</time>
      </trkpt>
      <trkpt lat="42.50024" lon="2.40673">
        <ele>1710.1</ele>
        <time>2020-08-30T13:18:13.490Z</time>
      </trkpt>
      <trkpt lat="42.50025" lon="2.40691">
        <ele>1709.1</ele>
        <time>2020-08-30T13:18:16.141Z</time>
      </trkpt>
      <trkpt lat="42.50025" lon="2.40704">
        <ele>1708.9</ele>
        <time>2020-08-30T13:18:18.820Z</time>
      </trkpt>
      <trkpt lat="42.50025" lon="2.40716">
        <ele>1709.3</ele>
        <time>2020-08-30T13:18:31.997Z</time>
      </trkpt>
      <trkpt lat="42.50025" lon="2.40728">
        <ele>1710.2</ele>
        <time>2020-08-30T13:18:52.555Z</time>
      </trkpt>
      <trkpt lat="42.50025" lon="2.40739">
        <ele>1711.2</ele>
        <time>2020-08-30T13:19:16.526Z</time>
      </trkpt>
      <trkpt lat="42.50025" lon="2.4075">
        <ele>1715.4</ele>
        <time>2020-08-30T13:19:44.007Z</time>
      </trkpt>
      <trkpt lat="42.50024" lon="2.40761">
        <ele>1715.3</ele>
        <time>2020-08-30T13:19:46.546Z</time>
      </trkpt>
      <trkpt lat="42.50024" lon="2.40776">
        <ele>1714.8</ele>
        <time>2020-08-30T13:19:48.956Z</time>
      </trkpt>
      <trkpt lat="42.50024" lon="2.40789">
        <ele>1714.8</ele>
        <time>2020-08-30T13:19:57.376Z</time>
      </trkpt>
      <trkpt lat="42.50024" lon="2.40803">
        <ele>1715.3</ele>
        <time>2020-08-30T13:20:13.071Z</time>
      </trkpt>
      <trkpt lat="42.50024" lon="2.40816">
        <ele>1716</ele>
        <time>2020-08-30T13:20:30.411Z</time>
      </trkpt>
      <trkpt lat="42.50025" lon="2.4083">
        <ele>1716.6</ele>
        <time>2020-08-30T13:20:47.205Z</time>
      </trkpt>
      <trkpt lat="42.50025" lon="2.40841">
        <ele>1717.7</ele>
        <time>2020-08-30T13:21:14.686Z</time>
      </trkpt>
      <trkpt lat="42.50026" lon="2.40849">
        <ele>1717.3</ele>
        <time>2020-08-30T13:21:15.878Z</time>
      </trkpt>
      <trkpt lat="42.50025" lon="2.40857">
        <ele>1717</ele>
        <time>2020-08-30T13:21:17.126Z</time>
      </trkpt>
      <trkpt lat="42.50023" lon="2.40862">
        <ele>1716.9</ele>
        <time>2020-08-30T13:21:18.259Z</time>
      </trkpt>
      <trkpt lat="42.50021" lon="2.40865">
        <ele>1716.8</ele>
        <time>2020-08-30T13:21:18.986Z</time>
      </trkpt>
      <trkpt lat="42.5002" lon="2.40867">
        <ele>1716.8</ele>
        <time>2020-08-30T13:21:20.551Z</time>
      </trkpt>
      <trkpt lat="42.50018" lon="2.40868">
        <ele>1716.9</ele>
        <time>2020-08-30T13:21:23.760Z</time>
      </trkpt>
      <trkpt lat="42.50015" lon="2.40867">
        <ele>1717</ele>
        <time>2020-08-30T13:21:27.618Z</time>
      </trkpt>
      <trkpt lat="42.50013" lon="2.40866">
        <ele>1717.2</ele>
        <time>2020-08-30T13:21:32.212Z</time>
      </trkpt>
      <trkpt lat="42.50011" lon="2.40865">
        <ele>1717.4</ele>
        <time>2020-08-30T13:21:36.805Z</time>
      </trkpt>
      <trkpt lat="42.50009" lon="2.40865">
        <ele>1717.5</ele>
        <time>2020-08-30T13:21:39.877Z</time>
      </trkpt>
      <trkpt lat="42.50005" lon="2.40872">
        <ele>1717.1</ele>
        <time>2020-08-30T13:21:41.120Z</time>
      </trkpt>
      <trkpt lat="42.50004" lon="2.40876">
        <ele>1716.9</ele>
        <time>2020-08-30T13:21:41.699Z</time>
      </trkpt>
      <trkpt lat="42.50002" lon="2.40881">
        <ele>1716.7</ele>
        <time>2020-08-30T13:21:42.593Z</time>
      </trkpt>
      <trkpt lat="42.5" lon="2.40884">
        <ele>1716.6</ele>
        <time>2020-08-30T13:21:43.320Z</time>
      </trkpt>
      <trkpt lat="42.49996" lon="2.40887">
        <ele>1723</ele>
        <time>2020-08-30T13:21:58.808Z</time>
      </trkpt>
      <trkpt lat="42.49989" lon="2.40889">
        <ele>1723</ele>
        <time>2020-08-30T13:22:05.092Z</time>
      </trkpt>
      <trkpt lat="42.49976" lon="2.40894">
        <ele>1723.5</ele>
        <time>2020-08-30T13:22:23.049Z</time>
      </trkpt>
      <trkpt lat="42.49965" lon="2.40898">
        <ele>1724.1</ele>
        <time>2020-08-30T13:22:40.856Z</time>
      </trkpt>
      <trkpt lat="42.49952" lon="2.40902">
        <ele>1724.5</ele>
        <time>2020-08-30T13:22:57.006Z</time>
      </trkpt>
      <trkpt lat="42.49941" lon="2.40907">
        <ele>1724.2</ele>
        <time>2020-08-30T13:23:00.071Z</time>
      </trkpt>
      <trkpt lat="42.49929" lon="2.40912">
        <ele>1722.9</ele>
        <time>2020-08-30T13:23:02.572Z</time>
      </trkpt>
      <trkpt lat="42.49916" lon="2.40916">
        <ele>1720.8</ele>
        <time>2020-08-30T13:23:05.228Z</time>
      </trkpt>
      <trkpt lat="42.49904" lon="2.40921">
        <ele>1719.5</ele>
        <time>2020-08-30T13:23:07.729Z</time>
      </trkpt>
      <trkpt lat="42.49893" lon="2.40925">
        <ele>1719.9</ele>
        <time>2020-08-30T13:23:22.479Z</time>
      </trkpt>
      <trkpt lat="42.49883" lon="2.4093">
        <ele>1720.6</ele>
        <time>2020-08-30T13:23:40.725Z</time>
      </trkpt>
      <trkpt lat="42.49873" lon="2.40935">
        <ele>1721.7</ele>
        <time>2020-08-30T13:24:05.859Z</time>
      </trkpt>
      <trkpt lat="42.49864" lon="2.4094">
        <ele>1722.5</ele>
        <time>2020-08-30T13:24:24.803Z</time>
      </trkpt>
      <trkpt lat="42.49863" lon="2.40941">
        <ele>1722.6</ele>
        <time>2020-08-30T13:24:27.188Z</time>
        <extensions>
          <visugpx:TrkExtension xmlns:visugpx="https://www.visugpx.com/editgpx/">
            <visugpx:node>8</visugpx:node>
            </visugpx:TrkExtension>
        </extensions>
      </trkpt>
      <trkpt lat="42.49859" lon="2.40943">
        <ele>1723</ele>
        <time>2020-08-30T13:24:36.374Z</time>
      </trkpt>
      <trkpt lat="42.49852" lon="2.40947">
        <ele>1723.1</ele>
        <time>2020-08-30T13:24:43.962Z</time>
      </trkpt>
      <trkpt lat="42.49846" lon="2.40951">
        <ele>1722.6</ele>
        <time>2020-08-30T13:24:45.294Z</time>
      </trkpt>
      <trkpt lat="42.49838" lon="2.40959">
        <ele>1721.2</ele>
        <time>2020-08-30T13:24:47.274Z</time>
      </trkpt>
      <trkpt lat="42.4983" lon="2.40967">
        <ele>1733.5</ele>
        <time>2020-08-30T13:25:20.954Z</time>
      </trkpt>
      <trkpt lat="42.49823" lon="2.40977">
        <ele>1730.9</ele>
        <time>2020-08-30T13:25:22.979Z</time>
      </trkpt>
      <trkpt lat="42.49815" lon="2.40986">
        <ele>1729.6</ele>
        <time>2020-08-30T13:25:25.050Z</time>
      </trkpt>
      <trkpt lat="42.49809" lon="2.40996">
        <ele>1730</ele>
        <time>2020-08-30T13:25:38.638Z</time>
      </trkpt>
      <trkpt lat="42.49805" lon="2.41004">
        <ele>1716.4</ele>
        <time>2020-08-30T13:25:40.058Z</time>
      </trkpt>
      <trkpt lat="42.49802" lon="2.4101">
        <ele>1716.8</ele>
        <time>2020-08-30T13:25:49.864Z</time>
      </trkpt>
      <trkpt lat="42.49798" lon="2.41016">
        <ele>1717</ele>
        <time>2020-08-30T13:25:57.427Z</time>
      </trkpt>
      <trkpt lat="42.49796" lon="2.41022">
        <ele>1717</ele>
        <time>2020-08-30T13:26:01.692Z</time>
      </trkpt>
      <trkpt lat="42.49793" lon="2.41028">
        <ele>1716.9</ele>
        <time>2020-08-30T13:26:03.224Z</time>
      </trkpt>
      <trkpt lat="42.49791" lon="2.41033">
        <ele>1716.6</ele>
        <time>2020-08-30T13:26:04.060Z</time>
      </trkpt>
      <trkpt lat="42.49787" lon="2.4104">
        <ele>1716.4</ele>
        <time>2020-08-30T13:26:05.699Z</time>
      </trkpt>
      <trkpt lat="42.49782" lon="2.41049">
        <ele>1715.9</ele>
        <time>2020-08-30T13:26:07.294Z</time>
      </trkpt>
      <trkpt lat="42.49777" lon="2.41057">
        <ele>1715.8</ele>
        <time>2020-08-30T13:26:09.675Z</time>
      </trkpt>
      <trkpt lat="42.49772" lon="2.41063">
        <ele>1715.9</ele>
        <time>2020-08-30T13:26:16.473Z</time>
      </trkpt>
      <trkpt lat="42.49766" lon="2.41072">
        <ele>1716.3</ele>
        <time>2020-08-30T13:26:29.755Z</time>
      </trkpt>
      <trkpt lat="42.4976" lon="2.41082">
        <ele>1716.8</ele>
        <time>2020-08-30T13:26:44.610Z</time>
      </trkpt>
      <trkpt lat="42.49754" lon="2.41092">
        <ele>1710</ele>
        <time>2020-08-30T13:26:46.503Z</time>
      </trkpt>
      <trkpt lat="42.49749" lon="2.41099">
        <ele>1711.5</ele>
        <time>2020-08-30T13:27:10.853Z</time>
      </trkpt>
      <trkpt lat="42.49745" lon="2.41107">
        <ele>1709</ele>
        <time>2020-08-30T13:27:12.273Z</time>
      </trkpt>
      <trkpt lat="42.49741" lon="2.41116">
        <ele>1706.7</ele>
        <time>2020-08-30T13:27:13.816Z</time>
      </trkpt>
      <trkpt lat="42.49729" lon="2.41141">
        <ele>1701.5</ele>
        <time>2020-08-30T13:27:18.198Z</time>
      </trkpt>
      <trkpt lat="42.49727" lon="2.41144">
        <ele>1701</ele>
        <time>2020-08-30T13:27:18.792Z</time>
      </trkpt>
      <trkpt lat="42.49723" lon="2.4115">
        <ele>1700.2</ele>
        <time>2020-08-30T13:27:19.980Z</time>
      </trkpt>
      <trkpt lat="42.4972" lon="2.41151">
        <ele>1700.2</ele>
        <time>2020-08-30T13:27:22.694Z</time>
      </trkpt>
      <trkpt lat="42.49717" lon="2.41149">
        <ele>1700.4</ele>
        <time>2020-08-30T13:27:28.183Z</time>
      </trkpt>
      <trkpt lat="42.49714" lon="2.41147">
        <ele>1700.7</ele>
        <time>2020-08-30T13:27:35.126Z</time>
      </trkpt>
      <trkpt lat="42.49712" lon="2.41144">
        <ele>1701.1</ele>
        <time>2020-08-30T13:27:45.230Z</time>
      </trkpt>
      <trkpt lat="42.4971" lon="2.4114">
        <ele>1701.7</ele>
        <time>2020-08-30T13:27:57.305Z</time>
      </trkpt>
      <trkpt lat="42.49707" lon="2.41136">
        <ele>1702.3</ele>
        <time>2020-08-30T13:28:11.560Z</time>
      </trkpt>
      <trkpt lat="42.49703" lon="2.41132">
        <ele>1702.8</ele>
        <time>2020-08-30T13:28:22.981Z</time>
      </trkpt>
      <trkpt lat="42.49699" lon="2.41129">
        <ele>1703.3</ele>
        <time>2020-08-30T13:28:34.475Z</time>
      </trkpt>
      <trkpt lat="42.49693" lon="2.41126">
        <ele>1703.9</ele>
        <time>2020-08-30T13:28:48.255Z</time>
      </trkpt>
      <trkpt lat="42.49686" lon="2.41122">
        <ele>1704.7</ele>
        <time>2020-08-30T13:29:06.557Z</time>
      </trkpt>
      <trkpt lat="42.4968" lon="2.41119">
        <ele>1705.6</ele>
        <time>2020-08-30T13:29:28.226Z</time>
      </trkpt>
      <trkpt lat="42.49673" lon="2.41115">
        <ele>1706.9</ele>
        <time>2020-08-30T13:29:53.964Z</time>
      </trkpt>
      <trkpt lat="42.49666" lon="2.41113">
        <ele>1705.4</ele>
        <time>2020-08-30T13:29:55.390Z</time>
      </trkpt>
      <trkpt lat="42.4966" lon="2.4111">
        <ele>1706.1</ele>
        <time>2020-08-30T13:30:11.483Z</time>
      </trkpt>
      <trkpt lat="42.49655" lon="2.41108">
        <ele>1706.3</ele>
        <time>2020-08-30T13:30:18.544Z</time>
      </trkpt>
      <trkpt lat="42.4965" lon="2.41106">
        <ele>1706.2</ele>
        <time>2020-08-30T13:30:20.030Z</time>
      </trkpt>
      <trkpt lat="42.49634" lon="2.41095">
        <ele>1705.7</ele>
        <time>2020-08-30T13:30:24.668Z</time>
      </trkpt>
      <trkpt lat="42.4963" lon="2.4109">
        <ele>1705.7</ele>
        <time>2020-08-30T13:30:29.446Z</time>
      </trkpt>
      <trkpt lat="42.49622" lon="2.41084">
        <ele>1705.4</ele>
        <time>2020-08-30T13:30:31.691Z</time>
      </trkpt>
      <trkpt lat="42.49619" lon="2.41081">
        <ele>1725.4</ele>
        <time>2020-08-30T13:30:44.321Z</time>
      </trkpt>
      <trkpt lat="42.49613" lon="2.41078">
        <ele>1724.5</ele>
        <time>2020-08-30T13:30:45.594Z</time>
      </trkpt>
      <trkpt lat="42.49607" lon="2.41076">
        <ele>1723.2</ele>
        <time>2020-08-30T13:30:46.825Z</time>
      </trkpt>
      <trkpt lat="42.496" lon="2.41073">
        <ele>1721.5</ele>
        <time>2020-08-30T13:30:48.288Z</time>
      </trkpt>
      <trkpt lat="42.49594" lon="2.41071">
        <ele>1720.2</ele>
        <time>2020-08-30T13:30:49.519Z</time>
      </trkpt>
      <trkpt lat="42.49587" lon="2.41069">
        <ele>1719.6</ele>
        <time>2020-08-30T13:30:50.944Z</time>
      </trkpt>
      <trkpt lat="42.4958" lon="2.41067">
        <ele>1719.3</ele>
        <time>2020-08-30T13:30:52.551Z</time>
      </trkpt>
      <trkpt lat="42.49573" lon="2.41067">
        <ele>1720.6</ele>
        <time>2020-08-30T13:31:16.270Z</time>
      </trkpt>
      <trkpt lat="42.49565" lon="2.41067">
        <ele>1722.2</ele>
        <time>2020-08-30T13:31:43.378Z</time>
      </trkpt>
      <trkpt lat="42.49553" lon="2.41067">
        <ele>1724</ele>
        <time>2020-08-30T13:32:24.040Z</time>
      </trkpt>
      <trkpt lat="42.49546" lon="2.41069">
        <ele>1724.5</ele>
        <time>2020-08-30T13:32:36.676Z</time>
      </trkpt>
      <trkpt lat="42.49538" lon="2.41071">
        <ele>1724.6</ele>
        <time>2020-08-30T13:32:44.729Z</time>
      </trkpt>
      <trkpt lat="42.49531" lon="2.41074">
        <ele>1724.1</ele>
        <time>2020-08-30T13:32:46.192Z</time>
      </trkpt>
      <trkpt lat="42.49525" lon="2.41077">
        <ele>1723.2</ele>
        <time>2020-08-30T13:32:47.466Z</time>
      </trkpt>
      <trkpt lat="42.49519" lon="2.41079">
        <ele>1721.9</ele>
        <time>2020-08-30T13:32:48.696Z</time>
      </trkpt>
      <trkpt lat="42.49514" lon="2.41082">
        <ele>1720.4</ele>
        <time>2020-08-30T13:32:49.786Z</time>
      </trkpt>
      <trkpt lat="42.49508" lon="2.41087">
        <ele>1711.1</ele>
        <time>2020-08-30T13:32:51.189Z</time>
      </trkpt>
      <trkpt lat="42.49492" lon="2.41108">
        <ele>1718.1</ele>
        <time>2020-08-30T13:34:06.635Z</time>
      </trkpt>
      <trkpt lat="42.49484" lon="2.41114">
        <ele>1718.9</ele>
        <time>2020-08-30T13:34:25.254Z</time>
      </trkpt>
      <trkpt lat="42.49469" lon="2.41116">
        <ele>1720.8</ele>
        <time>2020-08-30T13:35:11.407Z</time>
      </trkpt>
      <trkpt lat="42.49461" lon="2.41119">
        <ele>1721.8</ele>
        <time>2020-08-30T13:35:35.096Z</time>
      </trkpt>
      <trkpt lat="42.49454" lon="2.41128">
        <ele>1722.2</ele>
        <time>2020-08-30T13:35:48.760Z</time>
      </trkpt>
      <trkpt lat="42.4945" lon="2.41136">
        <ele>1722</ele>
        <time>2020-08-30T13:35:50.599Z</time>
      </trkpt>
      <trkpt lat="42.49452" lon="2.41147">
        <ele>1720.9</ele>
        <time>2020-08-30T13:35:52.263Z</time>
      </trkpt>
      <trkpt lat="42.49456" lon="2.41162">
        <ele>1719.5</ele>
        <time>2020-08-30T13:35:54.606Z</time>
      </trkpt>
      <trkpt lat="42.49465" lon="2.41169">
        <ele>1720.9</ele>
        <time>2020-08-30T13:36:29.762Z</time>
      </trkpt>
      <trkpt lat="42.49474" lon="2.41171">
        <ele>1718.7</ele>
        <time>2020-08-30T13:36:31.579Z</time>
      </trkpt>
      <trkpt lat="42.49489" lon="2.41169">
        <ele>1712.2</ele>
        <time>2020-08-30T13:36:34.582Z</time>
      </trkpt>
      <trkpt lat="42.49508" lon="2.41166">
        <ele>1703.6</ele>
        <time>2020-08-30T13:36:38.392Z</time>
      </trkpt>
      <trkpt lat="42.49516" lon="2.41165">
        <ele>1703</ele>
        <time>2020-08-30T13:36:39.993Z</time>
      </trkpt>
      <trkpt lat="42.49528" lon="2.41168">
        <ele>1704.3</ele>
        <time>2020-08-30T13:37:09.766Z</time>
      </trkpt>
      <trkpt lat="42.49535" lon="2.41172">
        <ele>1703.7</ele>
        <time>2020-08-30T13:37:11.279Z</time>
      </trkpt>
      <trkpt lat="42.49541" lon="2.41186">
        <ele>1704</ele>
        <time>2020-08-30T13:37:24.904Z</time>
      </trkpt>
      <trkpt lat="42.49551" lon="2.4121">
        <ele>1705.5</ele>
        <time>2020-08-30T13:38:01.895Z</time>
      </trkpt>
      <trkpt lat="42.49562" lon="2.41247">
        <ele>1705.6</ele>
        <time>2020-08-30T13:38:28.566Z</time>
      </trkpt>
      <trkpt lat="42.49562" lon="2.41262">
        <ele>1717.4</ele>
        <time>2020-08-30T13:39:06.043Z</time>
      </trkpt>
      <trkpt lat="42.49561" lon="2.41288">
        <ele>1722.9</ele>
        <time>2020-08-30T13:40:11.091Z</time>
      </trkpt>
      <trkpt lat="42.49563" lon="2.41305">
        <ele>1724.3</ele>
        <time>2020-08-30T13:40:43.322Z</time>
      </trkpt>
      <trkpt lat="42.49567" lon="2.41317">
        <ele>1723.9</ele>
        <time>2020-08-30T13:40:45.518Z</time>
      </trkpt>
      <trkpt lat="42.49572" lon="2.41332">
        <ele>1721.8</ele>
        <time>2020-08-30T13:40:47.936Z</time>
      </trkpt>
      <trkpt lat="42.49581" lon="2.41355">
        <ele>1733.2</ele>
        <time>2020-08-30T13:41:52.991Z</time>
      </trkpt>
      <trkpt lat="42.49587" lon="2.41375">
        <ele>1712.8</ele>
        <time>2020-08-30T13:41:56.163Z</time>
      </trkpt>
      <trkpt lat="42.49594" lon="2.41429">
        <ele>1732.8</ele>
        <time>2020-08-30T13:44:13.147Z</time>
      </trkpt>
      <trkpt lat="42.49598" lon="2.41452">
        <ele>1733.8</ele>
        <time>2020-08-30T13:44:41.274Z</time>
      </trkpt>
      <trkpt lat="42.49604" lon="2.41465">
        <ele>1735.2</ele>
        <time>2020-08-30T13:45:14.910Z</time>
      </trkpt>
      <trkpt lat="42.49617" lon="2.41475">
        <ele>1734.3</ele>
        <time>2020-08-30T13:45:17.778Z</time>
      </trkpt>
      <trkpt lat="42.49631" lon="2.41491">
        <ele>1732.7</ele>
        <time>2020-08-30T13:45:21.425Z</time>
      </trkpt>
      <trkpt lat="42.49636" lon="2.41498">
        <ele>1732</ele>
        <time>2020-08-30T13:45:22.857Z</time>
      </trkpt>
      <trkpt lat="42.49638" lon="2.4151">
        <ele>1750.9</ele>
        <time>2020-08-30T13:45:53.594Z</time>
      </trkpt>
      <trkpt lat="42.4964" lon="2.41521">
        <ele>1752.6</ele>
        <time>2020-08-30T13:46:21.900Z</time>
      </trkpt>
      <trkpt lat="42.49648" lon="2.41536">
        <ele>1755</ele>
        <time>2020-08-30T13:47:08.152Z</time>
      </trkpt>
      <trkpt lat="42.49654" lon="2.41541">
        <ele>1755.8</ele>
        <time>2020-08-30T13:47:26.698Z</time>
      </trkpt>
      <trkpt lat="42.4966" lon="2.41544">
        <ele>1756.1</ele>
        <time>2020-08-30T13:47:36.327Z</time>
      </trkpt>
      <trkpt lat="42.49671" lon="2.41554">
        <ele>1743.1</ele>
        <time>2020-08-30T13:47:38.965Z</time>
      </trkpt>
      <trkpt lat="42.49688" lon="2.41571">
        <ele>1745.9</ele>
        <time>2020-08-30T13:48:49.649Z</time>
      </trkpt>
      <trkpt lat="42.49709" lon="2.41585">
        <ele>1762.7</ele>
        <time>2020-08-30T13:50:08.939Z</time>
      </trkpt>
      <trkpt lat="42.49731" lon="2.41603">
        <ele>1760.1</ele>
        <time>2020-08-30T13:50:14.058Z</time>
      </trkpt>
      <trkpt lat="42.49745" lon="2.41622">
        <ele>1763.3</ele>
        <time>2020-08-30T13:51:21.168Z</time>
      </trkpt>
      <trkpt lat="42.49753" lon="2.41644">
        <ele>1749.3</ele>
        <time>2020-08-30T13:51:24.771Z</time>
      </trkpt>
      <trkpt lat="42.49757" lon="2.41662">
        <ele>1758.5</ele>
        <time>2020-08-30T13:52:11.739Z</time>
      </trkpt>
      <trkpt lat="42.49759" lon="2.41677">
        <ele>1758.1</ele>
        <time>2020-08-30T13:52:14.423Z</time>
      </trkpt>
      <trkpt lat="42.49756" lon="2.41713">
        <ele>1753.1</ele>
        <time>2020-08-30T13:52:19.744Z</time>
      </trkpt>
      <trkpt lat="42.49752" lon="2.41741">
        <ele>1761.7</ele>
        <time>2020-08-30T13:53:30.999Z</time>
      </trkpt>
      <trkpt lat="42.49745" lon="2.41761">
        <ele>1776.3</ele>
        <time>2020-08-30T13:54:26.310Z</time>
      </trkpt>
      <trkpt lat="42.49737" lon="2.41776">
        <ele>1781.8</ele>
        <time>2020-08-30T13:55:12.562Z</time>
        <extensions>
          <visugpx:TrkExtension xmlns:visugpx="https://www.visugpx.com/editgpx/">
            <visugpx:node>9</visugpx:node>
            </visugpx:TrkExtension>
        </extensions>
      </trkpt>
      <trkpt lat="42.49726" lon="2.41796">
        <ele>1784.5</ele>
        <time>2020-08-30T13:56:14.901Z</time>
      </trkpt>
      <trkpt lat="42.49725" lon="2.41801">
        <ele>1784.5</ele>
        <time>2020-08-30T13:56:18.256Z</time>
      </trkpt>
      <trkpt lat="42.49723" lon="2.41807">
        <ele>1784.6</ele>
        <time>2020-08-30T13:56:23.513Z</time>
      </trkpt>
      <trkpt lat="42.49721" lon="2.41814">
        <ele>1784.6</ele>
        <time>2020-08-30T13:56:28.376Z</time>
      </trkpt>
      <trkpt lat="42.49718" lon="2.41821">
        <ele>1784.8</ele>
        <time>2020-08-30T13:56:35.942Z</time>
      </trkpt>
      <trkpt lat="42.49716" lon="2.41828">
        <ele>1785.3</ele>
        <time>2020-08-30T13:56:47.498Z</time>
      </trkpt>
      <trkpt lat="42.49714" lon="2.41835">
        <ele>1790</ele>
        <time>2020-08-30T13:57:06.254Z</time>
      </trkpt>
      <trkpt lat="42.49711" lon="2.41845">
        <ele>1791.7</ele>
        <time>2020-08-30T13:57:33.227Z</time>
      </trkpt>
      <trkpt lat="42.4971" lon="2.41851">
        <ele>1792.7</ele>
        <time>2020-08-30T13:57:48.595Z</time>
      </trkpt>
      <trkpt lat="42.49708" lon="2.41854">
        <ele>1793.4</ele>
        <time>2020-08-30T13:57:58.700Z</time>
      </trkpt>
      <trkpt lat="42.49707" lon="2.41855">
        <ele>1793.9</ele>
        <time>2020-08-30T13:58:02.910Z</time>
      </trkpt>
      <trkpt lat="42.49706" lon="2.41853">
        <ele>1793.8</ele>
        <time>2020-08-30T13:58:03.263Z</time>
      </trkpt>
      <trkpt lat="42.49706" lon="2.41849">
        <ele>1793.6</ele>
        <time>2020-08-30T13:58:03.851Z</time>
      </trkpt>
      <trkpt lat="42.49706" lon="2.41844">
        <ele>1793.3</ele>
        <time>2020-08-30T13:58:04.585Z</time>
      </trkpt>
      <trkpt lat="42.49706" lon="2.41838">
        <ele>1793</ele>
        <time>2020-08-30T13:58:05.467Z</time>
      </trkpt>
      <trkpt lat="42.49706" lon="2.41832">
        <ele>1789</ele>
        <time>2020-08-30T13:58:06.348Z</time>
      </trkpt>
      <trkpt lat="42.49706" lon="2.41826">
        <ele>1789.1</ele>
        <time>2020-08-30T13:58:11.249Z</time>
      </trkpt>
      <trkpt lat="42.49706" lon="2.41815">
        <ele>1789.2</ele>
        <time>2020-08-30T13:58:19.281Z</time>
      </trkpt>
      <trkpt lat="42.49702" lon="2.41812">
        <ele>1790.5</ele>
        <time>2020-08-30T13:58:34.770Z</time>
      </trkpt>
      <trkpt lat="42.49694" lon="2.41816">
        <ele>1793.1</ele>
        <time>2020-08-30T13:59:03.661Z</time>
      </trkpt>
      <trkpt lat="42.49691" lon="2.41818">
        <ele>1794.3</ele>
        <time>2020-08-30T13:59:14.988Z</time>
      </trkpt>
      <trkpt lat="42.49688" lon="2.41821">
        <ele>1795.5</ele>
        <time>2020-08-30T13:59:27.618Z</time>
      </trkpt>
      <trkpt lat="42.49685" lon="2.41826">
        <ele>1796.9</ele>
        <time>2020-08-30T13:59:43.723Z</time>
      </trkpt>
      <trkpt lat="42.49681" lon="2.41841">
        <ele>1801.2</ele>
        <time>2020-08-30T14:00:23.575Z</time>
      </trkpt>
      <trkpt lat="42.49676" lon="2.41851">
        <ele>1801.1</ele>
        <time>2020-08-30T14:00:26.379Z</time>
      </trkpt>
      <trkpt lat="42.49672" lon="2.41855">
        <ele>1801.1</ele>
        <time>2020-08-30T14:00:30.745Z</time>
      </trkpt>
      <trkpt lat="42.4967" lon="2.41859">
        <ele>1801</ele>
        <time>2020-08-30T14:00:31.665Z</time>
      </trkpt>
      <trkpt lat="42.49666" lon="2.41864">
        <ele>1824.9</ele>
        <time>2020-08-30T14:00:50.097Z</time>
      </trkpt>
      <trkpt lat="42.49662" lon="2.4187">
        <ele>1826.4</ele>
        <time>2020-08-30T14:01:10.307Z</time>
      </trkpt>
      <trkpt lat="42.49656" lon="2.41877">
        <ele>1827.6</ele>
        <time>2020-08-30T14:01:37.125Z</time>
      </trkpt>
      <trkpt lat="42.49651" lon="2.41884">
        <ele>1828.6</ele>
        <time>2020-08-30T14:02:01.474Z</time>
      </trkpt>
      <trkpt lat="42.49645" lon="2.41891">
        <ele>1829.5</ele>
        <time>2020-08-30T14:02:22.344Z</time>
      </trkpt>
      <trkpt lat="42.49638" lon="2.419">
        <ele>1831</ele>
        <time>2020-08-30T14:02:55.028Z</time>
      </trkpt>
      <trkpt lat="42.49632" lon="2.41908">
        <ele>1832.8</ele>
        <time>2020-08-30T14:03:23.538Z</time>
      </trkpt>
      <trkpt lat="42.49621" lon="2.41928">
        <ele>1839.9</ele>
        <time>2020-08-30T14:04:25.877Z</time>
      </trkpt>
      <trkpt lat="42.49613" lon="2.41939">
        <ele>1842.2</ele>
        <time>2020-08-30T14:05:04.479Z</time>
      </trkpt>
      <trkpt lat="42.4961" lon="2.41944">
        <ele>1842.8</ele>
        <time>2020-08-30T14:05:19.067Z</time>
      </trkpt>
      <trkpt lat="42.49606" lon="2.41955">
        <ele>1843.5</ele>
        <time>2020-08-30T14:05:35.999Z</time>
      </trkpt>
      <trkpt lat="42.49603" lon="2.41961">
        <ele>1844</ele>
        <time>2020-08-30T14:05:47.487Z</time>
      </trkpt>
      <trkpt lat="42.49601" lon="2.41964">
        <ele>1844.3</ele>
        <time>2020-08-30T14:05:54.340Z</time>
      </trkpt>
      <trkpt lat="42.49598" lon="2.41969">
        <ele>1845</ele>
        <time>2020-08-30T14:06:10.445Z</time>
      </trkpt>
      <trkpt lat="42.49597" lon="2.41974">
        <ele>1845.6</ele>
        <time>2020-08-30T14:06:23.389Z</time>
      </trkpt>
      <trkpt lat="42.49597" lon="2.41978">
        <ele>1846</ele>
        <time>2020-08-30T14:06:33.383Z</time>
      </trkpt>
      <trkpt lat="42.496" lon="2.41982">
        <ele>1846</ele>
        <time>2020-08-30T14:06:37.078Z</time>
      </trkpt>
      <trkpt lat="42.49602" lon="2.41982">
        <ele>1845.7</ele>
        <time>2020-08-30T14:06:37.477Z</time>
      </trkpt>
      <trkpt lat="42.49607" lon="2.41984">
        <ele>1845</ele>
        <time>2020-08-30T14:06:38.515Z</time>
      </trkpt>
      <trkpt lat="42.4961" lon="2.41985">
        <ele>1844.4</ele>
        <time>2020-08-30T14:06:39.131Z</time>
      </trkpt>
      <trkpt lat="42.49614" lon="2.41986">
        <ele>1843.8</ele>
        <time>2020-08-30T14:06:39.941Z</time>
      </trkpt>
      <trkpt lat="42.49617" lon="2.41986">
        <ele>1843.2</ele>
        <time>2020-08-30T14:06:40.539Z</time>
      </trkpt>
      <trkpt lat="42.49645" lon="2.41978">
        <ele>1838.7</ele>
        <time>2020-08-30T14:06:46.240Z</time>
      </trkpt>
      <trkpt lat="42.49662" lon="2.41981">
        <ele>1837.5</ele>
        <time>2020-08-30T14:06:49.655Z</time>
      </trkpt>
      <trkpt lat="42.49672" lon="2.41987">
        <ele>1828.7</ele>
        <time>2020-08-30T14:06:51.833Z</time>
      </trkpt>
      <trkpt lat="42.49688" lon="2.42004">
        <ele>1842.7</ele>
        <time>2020-08-30T14:08:00.705Z</time>
      </trkpt>
      <trkpt lat="42.49712" lon="2.42039">
        <ele>1848</ele>
        <time>2020-08-30T14:10:00.120Z</time>
      </trkpt>
      <trkpt lat="42.49732" lon="2.42064">
        <ele>1852.4</ele>
        <time>2020-08-30T14:11:32.282Z</time>
      </trkpt>
      <trkpt lat="42.49747" lon="2.42076">
        <ele>1856.7</ele>
        <time>2020-08-30T14:12:31.292Z</time>
      </trkpt>
      <trkpt lat="42.49813" lon="2.4211">
        <ele>1864.4</ele>
        <time>2020-08-30T14:15:28.208Z</time>
      </trkpt>
      <trkpt lat="42.49834" lon="2.42122">
        <ele>1851.5</ele>
        <time>2020-08-30T14:15:32.748Z</time>
      </trkpt>
      <trkpt lat="42.49815" lon="2.423">
        <ele>1896.5</ele>
        <time>2020-08-30T14:23:02.087Z</time>
      </trkpt>
      <trkpt lat="42.49816" lon="2.42315">
        <ele>1895.3</ele>
        <time>2020-08-30T14:23:04.299Z</time>
        <extensions>
          <visugpx:TrkExtension xmlns:visugpx="https://www.visugpx.com/editgpx/">
            <visugpx:node>10</visugpx:node>
            </visugpx:TrkExtension>
        </extensions>
      </trkpt>
      <trkpt lat="42.49819" lon="2.42344">
        <ele>1898.8</ele>
        <time>2020-08-30T14:24:17.460Z</time>
      </trkpt>
      <trkpt lat="42.49829" lon="2.42393">
        <ele>1902.9</ele>
        <time>2020-08-30T14:25:51.707Z</time>
      </trkpt>
      <trkpt lat="42.4983" lon="2.42402">
        <ele>1900.3</ele>
        <time>2020-08-30T14:25:53.044Z</time>
      </trkpt>
      <trkpt lat="42.49831" lon="2.42408">
        <ele>1897.3</ele>
        <time>2020-08-30T14:25:53.948Z</time>
      </trkpt>
      <trkpt lat="42.49834" lon="2.42423">
        <ele>1885.3</ele>
        <time>2020-08-30T14:25:56.231Z</time>
      </trkpt>
      <trkpt lat="42.49836" lon="2.42436">
        <ele>1878.5</ele>
        <time>2020-08-30T14:25:58.181Z</time>
      </trkpt>
      <trkpt lat="42.49837" lon="2.42443">
        <ele>1876.7</ele>
        <time>2020-08-30T14:25:59.229Z</time>
      </trkpt>
      <trkpt lat="42.49837" lon="2.42448">
        <ele>1875.9</ele>
        <time>2020-08-30T14:25:59.963Z</time>
      </trkpt>
      <trkpt lat="42.49838" lon="2.42455">
        <ele>1875.7</ele>
        <time>2020-08-30T14:26:01.188Z</time>
      </trkpt>
      <trkpt lat="42.49838" lon="2.42461">
        <ele>1876</ele>
        <time>2020-08-30T14:26:08.882Z</time>
      </trkpt>
      <trkpt lat="42.49841" lon="2.42476">
        <ele>1879.1</ele>
        <time>2020-08-30T14:26:47.711Z</time>
      </trkpt>
      <trkpt lat="42.4984" lon="2.42482">
        <ele>1881.8</ele>
        <time>2020-08-30T14:27:03.079Z</time>
      </trkpt>
      <trkpt lat="42.49838" lon="2.42487">
        <ele>1885.2</ele>
        <time>2020-08-30T14:27:17.290Z</time>
      </trkpt>
      <trkpt lat="42.49837" lon="2.42492">
        <ele>1889.1</ele>
        <time>2020-08-30T14:27:30.233Z</time>
      </trkpt>
      <trkpt lat="42.49835" lon="2.42496">
        <ele>1893.6</ele>
        <time>2020-08-30T14:27:42.308Z</time>
      </trkpt>
      <trkpt lat="42.49834" lon="2.425">
        <ele>1898.2</ele>
        <time>2020-08-30T14:27:52.860Z</time>
      </trkpt>
      <trkpt lat="42.49833" lon="2.42505">
        <ele>1904</ele>
        <time>2020-08-30T14:28:05.803Z</time>
      </trkpt>
      <trkpt lat="42.49832" lon="2.42509">
        <ele>1907.8</ele>
        <time>2020-08-30T14:28:16.355Z</time>
      </trkpt>
      <trkpt lat="42.49831" lon="2.42514">
        <ele>1911.1</ele>
        <time>2020-08-30T14:28:29.298Z</time>
      </trkpt>
      <trkpt lat="42.4983" lon="2.42519">
        <ele>1914.1</ele>
        <time>2020-08-30T14:28:42.241Z</time>
      </trkpt>
      <trkpt lat="42.49829" lon="2.42526">
        <ele>1916.8</ele>
        <time>2020-08-30T14:29:00.055Z</time>
      </trkpt>
      <trkpt lat="42.49829" lon="2.4254">
        <ele>1919.7</ele>
        <time>2020-08-30T14:29:35.032Z</time>
      </trkpt>
      <trkpt lat="42.4983" lon="2.42545">
        <ele>1920</ele>
        <time>2020-08-30T14:29:42.249Z</time>
      </trkpt>
      <trkpt lat="42.49832" lon="2.42553">
        <ele>1919.7</ele>
        <time>2020-08-30T14:29:43.571Z</time>
      </trkpt>
      <trkpt lat="42.49835" lon="2.42558">
        <ele>1891.4</ele>
        <time>2020-08-30T14:29:44.518Z</time>
      </trkpt>
      <trkpt lat="42.49837" lon="2.42564">
        <ele>1893.2</ele>
        <time>2020-08-30T14:30:00.968Z</time>
      </trkpt>
      <trkpt lat="42.49841" lon="2.42571">
        <ele>1896.1</ele>
        <time>2020-08-30T14:30:23.094Z</time>
      </trkpt>
      <trkpt lat="42.49843" lon="2.42576">
        <ele>1897.8</ele>
        <time>2020-08-30T14:30:37.306Z</time>
      </trkpt>
      <trkpt lat="42.49844" lon="2.42581">
        <ele>1898.4</ele>
        <time>2020-08-30T14:30:50.249Z</time>
      </trkpt>
      <trkpt lat="42.49846" lon="2.42587">
        <ele>1901.8</ele>
        <time>2020-08-30T14:31:06.699Z</time>
      </trkpt>
      <trkpt lat="42.49847" lon="2.42594">
        <ele>1899.9</ele>
        <time>2020-08-30T14:31:07.747Z</time>
      </trkpt>
      <trkpt lat="42.49849" lon="2.42601">
        <ele>1898.3</ele>
        <time>2020-08-30T14:31:08.849Z</time>
      </trkpt>
      <trkpt lat="42.4985" lon="2.42607">
        <ele>1897.1</ele>
        <time>2020-08-30T14:31:09.753Z</time>
      </trkpt>
      <trkpt lat="42.49856" lon="2.42634">
        <ele>1896.8</ele>
        <time>2020-08-30T14:31:16.035Z</time>
      </trkpt>
      <trkpt lat="42.49857" lon="2.42641">
        <ele>1897.3</ele>
        <time>2020-08-30T14:31:27.498Z</time>
      </trkpt>
      <trkpt lat="42.49858" lon="2.42648">
        <ele>1898</ele>
        <time>2020-08-30T14:31:45.240Z</time>
      </trkpt>
      <trkpt lat="42.49859" lon="2.42653">
        <ele>1898.5</ele>
        <time>2020-08-30T14:31:57.726Z</time>
      </trkpt>
      <trkpt lat="42.4986" lon="2.42665">
        <ele>1899.6</ele>
        <time>2020-08-30T14:32:24.123Z</time>
      </trkpt>
      <trkpt lat="42.49858" lon="2.42669">
        <ele>1908.9</ele>
        <time>2020-08-30T14:32:36.197Z</time>
      </trkpt>
      <trkpt lat="42.49855" lon="2.42678">
        <ele>1909.6</ele>
        <time>2020-08-30T14:32:52.228Z</time>
      </trkpt>
      <trkpt lat="42.49855" lon="2.42683">
        <ele>1909.7</ele>
        <time>2020-08-30T14:32:56.537Z</time>
      </trkpt>
      <trkpt lat="42.49856" lon="2.42687">
        <ele>1909.5</ele>
        <time>2020-08-30T14:32:57.117Z</time>
      </trkpt>
      <trkpt lat="42.49858" lon="2.42692">
        <ele>1909.1</ele>
        <time>2020-08-30T14:32:57.952Z</time>
      </trkpt>
      <trkpt lat="42.49861" lon="2.42698">
        <ele>1908.7</ele>
        <time>2020-08-30T14:32:59.017Z</time>
      </trkpt>
      <trkpt lat="42.49864" lon="2.42705">
        <ele>1908.7</ele>
        <time>2020-08-30T14:33:04.261Z</time>
      </trkpt>
      <trkpt lat="42.49866" lon="2.4271">
        <ele>1908.7</ele>
        <time>2020-08-30T14:33:07.946Z</time>
      </trkpt>
      <trkpt lat="42.49869" lon="2.42717">
        <ele>1909</ele>
        <time>2020-08-30T14:33:17.131Z</time>
      </trkpt>
      <trkpt lat="42.49871" lon="2.42723">
        <ele>1909</ele>
        <time>2020-08-30T14:33:21.396Z</time>
      </trkpt>
      <trkpt lat="42.49874" lon="2.42731">
        <ele>1908.9</ele>
        <time>2020-08-30T14:33:23.378Z</time>
      </trkpt>
      <trkpt lat="42.49877" lon="2.42738">
        <ele>1908.4</ele>
        <time>2020-08-30T14:33:24.568Z</time>
      </trkpt>
      <trkpt lat="42.4988" lon="2.42746">
        <ele>1907.8</ele>
        <time>2020-08-30T14:33:25.886Z</time>
      </trkpt>
      <trkpt lat="42.49882" lon="2.42753">
        <ele>1917.7</ele>
        <time>2020-08-30T14:33:44.641Z</time>
      </trkpt>
      <trkpt lat="42.49883" lon="2.42758">
        <ele>1917.3</ele>
        <time>2020-08-30T14:33:45.402Z</time>
      </trkpt>
      <trkpt lat="42.49886" lon="2.42764">
        <ele>1917</ele>
        <time>2020-08-30T14:33:46.462Z</time>
      </trkpt>
      <trkpt lat="42.49888" lon="2.4277">
        <ele>1917.1</ele>
        <time>2020-08-30T14:33:51.719Z</time>
      </trkpt>
      <trkpt lat="42.49889" lon="2.42777">
        <ele>1917.8</ele>
        <time>2020-08-30T14:34:09.461Z</time>
      </trkpt>
      <trkpt lat="42.49889" lon="2.42785">
        <ele>1918.9</ele>
        <time>2020-08-30T14:34:29.448Z</time>
      </trkpt>
      <trkpt lat="42.49891" lon="2.42795">
        <ele>1919.5</ele>
        <time>2020-08-30T14:34:43.882Z</time>
      </trkpt>
      <trkpt lat="42.49892" lon="2.42803">
        <ele>1919.8</ele>
        <time>2020-08-30T14:34:53.080Z</time>
      </trkpt>
      <trkpt lat="42.49893" lon="2.4281">
        <ele>1919.5</ele>
        <time>2020-08-30T14:34:54.115Z</time>
      </trkpt>
      <trkpt lat="42.49894" lon="2.42816">
        <ele>1919.1</ele>
        <time>2020-08-30T14:34:55.018Z</time>
      </trkpt>
      <trkpt lat="42.49894" lon="2.42823">
        <ele>1918.5</ele>
        <time>2020-08-30T14:34:56.047Z</time>
      </trkpt>
      <trkpt lat="42.49892" lon="2.42846">
        <ele>1927.5</ele>
        <time>2020-08-30T14:35:53.906Z</time>
      </trkpt>
      <trkpt lat="42.49892" lon="2.42863">
        <ele>1930.2</ele>
        <time>2020-08-30T14:36:36.377Z</time>
      </trkpt>
      <trkpt lat="42.49892" lon="2.42871">
        <ele>1930.8</ele>
        <time>2020-08-30T14:36:50.082Z</time>
      </trkpt>
      <trkpt lat="42.49893" lon="2.42877">
        <ele>1931</ele>
        <time>2020-08-30T14:36:56.766Z</time>
      </trkpt>
      <trkpt lat="42.49895" lon="2.42883">
        <ele>1930.5</ele>
        <time>2020-08-30T14:36:57.733Z</time>
      </trkpt>
      <trkpt lat="42.49896" lon="2.42886">
        <ele>1930</ele>
        <time>2020-08-30T14:36:58.217Z</time>
      </trkpt>
      <trkpt lat="42.499" lon="2.42891">
        <ele>1928.6</ele>
        <time>2020-08-30T14:36:59.301Z</time>
      </trkpt>
      <trkpt lat="42.49902" lon="2.42895">
        <ele>1927.1</ele>
        <time>2020-08-30T14:37:00.011Z</time>
      </trkpt>
      <trkpt lat="42.49905" lon="2.42899">
        <ele>1925.5</ele>
        <time>2020-08-30T14:37:00.849Z</time>
      </trkpt>
      <trkpt lat="42.49906" lon="2.42902">
        <ele>1924</ele>
        <time>2020-08-30T14:37:01.332Z</time>
      </trkpt>
      <trkpt lat="42.49906" lon="2.4291">
        <ele>1921.3</ele>
        <time>2020-08-30T14:37:02.507Z</time>
      </trkpt>
      <trkpt lat="42.49907" lon="2.42917">
        <ele>1919.8</ele>
        <time>2020-08-30T14:37:03.555Z</time>
      </trkpt>
      <trkpt lat="42.49902" lon="2.42925">
        <ele>1929</ele>
        <time>2020-08-30T14:37:29.756Z</time>
      </trkpt>
      <trkpt lat="42.49893" lon="2.42936">
        <ele>1937.2</ele>
        <time>2020-08-30T14:38:10.808Z</time>
      </trkpt>
      <trkpt lat="42.49887" lon="2.4295">
        <ele>1942</ele>
        <time>2020-08-30T14:38:51.264Z</time>
      </trkpt>
      <trkpt lat="42.49884" lon="2.42963">
        <ele>1943.9</ele>
        <time>2020-08-30T14:39:25.295Z</time>
      </trkpt>
      <trkpt lat="42.49879" lon="2.42978">
        <ele>1946.6</ele>
        <time>2020-08-30T14:40:06.422Z</time>
      </trkpt>
      <trkpt lat="42.49879" lon="2.42984">
        <ele>1946.7</ele>
        <time>2020-08-30T14:40:11.323Z</time>
      </trkpt>
      <trkpt lat="42.49883" lon="2.42993">
        <ele>1944.8</ele>
        <time>2020-08-30T14:40:12.867Z</time>
      </trkpt>
      <trkpt lat="42.49883" lon="2.42994">
        <ele>1944.5</ele>
        <time>2020-08-30T14:40:13.013Z</time>
        <extensions>
          <visugpx:TrkExtension xmlns:visugpx="https://www.visugpx.com/editgpx/">
            <visugpx:node>11</visugpx:node>
            </visugpx:TrkExtension>
        </extensions>
      </trkpt>
      <trkpt lat="42.49887" lon="2.43">
        <ele>1952.8</ele>
        <time>2020-08-30T14:40:33.222Z</time>
      </trkpt>
      <trkpt lat="42.49889" lon="2.43006">
        <ele>1952.1</ele>
        <time>2020-08-30T14:40:34.190Z</time>
      </trkpt>
      <trkpt lat="42.4989" lon="2.43027">
        <ele>1956.6</ele>
        <time>2020-08-30T14:41:26.763Z</time>
      </trkpt>
      <trkpt lat="42.49893" lon="2.43032">
        <ele>1956.9</ele>
        <time>2020-08-30T14:41:34.751Z</time>
      </trkpt>
      <trkpt lat="42.49908" lon="2.43045">
        <ele>1956.3</ele>
        <time>2020-08-30T14:41:39.082Z</time>
      </trkpt>
      <trkpt lat="42.49926" lon="2.4307">
        <ele>1929.6</ele>
        <time>2020-08-30T14:41:44.214Z</time>
      </trkpt>
      <trkpt lat="42.49934" lon="2.43089">
        <ele>1938.7</ele>
        <time>2020-08-30T14:42:38.877Z</time>
      </trkpt>
      <trkpt lat="42.49948" lon="2.43118">
        <ele>1931.2</ele>
        <time>2020-08-30T14:42:43.968Z</time>
      </trkpt>
      <trkpt lat="42.49948" lon="2.43126">
        <ele>1931.8</ele>
        <time>2020-08-30T14:42:57.673Z</time>
      </trkpt>
      <trkpt lat="42.49948" lon="2.43133">
        <ele>1932.6</ele>
        <time>2020-08-30T14:43:15.161Z</time>
      </trkpt>
      <trkpt lat="42.49948" lon="2.43137">
        <ele>1933.1</ele>
        <time>2020-08-30T14:43:25.154Z</time>
      </trkpt>
      <trkpt lat="42.49946" lon="2.43148">
        <ele>1935.6</ele>
        <time>2020-08-30T14:43:53.459Z</time>
      </trkpt>
      <trkpt lat="42.49946" lon="2.43153">
        <ele>1936.6</ele>
        <time>2020-08-30T14:44:05.950Z</time>
      </trkpt>
      <trkpt lat="42.49947" lon="2.43159">
        <ele>1937</ele>
        <time>2020-08-30T14:44:15.242Z</time>
      </trkpt>
      <trkpt lat="42.49947" lon="2.43166">
        <ele>1937.3</ele>
        <time>2020-08-30T14:44:23.616Z</time>
      </trkpt>
      <trkpt lat="42.49947" lon="2.43175">
        <ele>1946</ele>
        <time>2020-08-30T14:44:46.101Z</time>
      </trkpt>
      <trkpt lat="42.49947" lon="2.43185">
        <ele>1945.8</ele>
        <time>2020-08-30T14:44:48.022Z</time>
      </trkpt>
      <trkpt lat="42.49947" lon="2.43195">
        <ele>1945.8</ele>
        <time>2020-08-30T14:44:54.499Z</time>
      </trkpt>
      <trkpt lat="42.49947" lon="2.43209">
        <ele>1946.6</ele>
        <time>2020-08-30T14:45:13.840Z</time>
      </trkpt>
      <trkpt lat="42.49948" lon="2.43218">
        <ele>1947.6</ele>
        <time>2020-08-30T14:45:36.579Z</time>
      </trkpt>
      <trkpt lat="42.49948" lon="2.43227">
        <ele>1949</ele>
        <time>2020-08-30T14:45:59.063Z</time>
      </trkpt>
      <trkpt lat="42.49948" lon="2.43237">
        <ele>1950.4</ele>
        <time>2020-08-30T14:46:24.046Z</time>
      </trkpt>
      <trkpt lat="42.49948" lon="2.43246">
        <ele>1951</ele>
        <time>2020-08-30T14:46:37.911Z</time>
      </trkpt>
      <trkpt lat="42.4995" lon="2.43253">
        <ele>1958.1</ele>
        <time>2020-08-30T14:46:56.666Z</time>
      </trkpt>
      <trkpt lat="42.49952" lon="2.43258">
        <ele>1956.7</ele>
        <time>2020-08-30T14:46:57.502Z</time>
      </trkpt>
      <trkpt lat="42.49955" lon="2.43263">
        <ele>1955.5</ele>
        <time>2020-08-30T14:46:58.449Z</time>
      </trkpt>
      <trkpt lat="42.49957" lon="2.43268">
        <ele>1954.5</ele>
        <time>2020-08-30T14:46:59.284Z</time>
      </trkpt>
      <trkpt lat="42.49961" lon="2.43279">
        <ele>1953.6</ele>
        <time>2020-08-30T14:47:01.086Z</time>
      </trkpt>
      <trkpt lat="42.49963" lon="2.43288">
        <ele>1953.6</ele>
        <time>2020-08-30T14:47:07.174Z</time>
      </trkpt>
      <trkpt lat="42.49965" lon="2.43296">
        <ele>1953.7</ele>
        <time>2020-08-30T14:47:13.589Z</time>
      </trkpt>
      <trkpt lat="42.49966" lon="2.43305">
        <ele>1953.9</ele>
        <time>2020-08-30T14:47:21.698Z</time>
      </trkpt>
      <trkpt lat="42.49967" lon="2.43313">
        <ele>1953.9</ele>
        <time>2020-08-30T14:47:26.953Z</time>
      </trkpt>
      <trkpt lat="42.49967" lon="2.43341">
        <ele>1958.4</ele>
        <time>2020-08-30T14:48:36.905Z</time>
      </trkpt>
      <trkpt lat="42.49968" lon="2.43344">
        <ele>1958.4</ele>
        <time>2020-08-30T14:48:39.037Z</time>
      </trkpt>
      <trkpt lat="42.49968" lon="2.43347">
        <ele>1958.3</ele>
        <time>2020-08-30T14:48:39.519Z</time>
      </trkpt>
      <trkpt lat="42.4997" lon="2.43351">
        <ele>1958.2</ele>
        <time>2020-08-30T14:48:40.439Z</time>
      </trkpt>
      <trkpt lat="42.4997" lon="2.43354">
        <ele>1958.3</ele>
        <time>2020-08-30T14:48:43.733Z</time>
      </trkpt>
      <trkpt lat="42.4997" lon="2.4336">
        <ele>1958.6</ele>
        <time>2020-08-30T14:48:51.426Z</time>
      </trkpt>
      <trkpt lat="42.49971" lon="2.43365">
        <ele>1958.9</ele>
        <time>2020-08-30T14:48:58.643Z</time>
      </trkpt>
      <trkpt lat="42.49972" lon="2.43372">
        <ele>1958.8</ele>
        <time>2020-08-30T14:49:00.145Z</time>
      </trkpt>
      <trkpt lat="42.49974" lon="2.43378">
        <ele>1958.6</ele>
        <time>2020-08-30T14:49:01.243Z</time>
      </trkpt>
      <trkpt lat="42.49975" lon="2.43383">
        <ele>1958.3</ele>
        <time>2020-08-30T14:49:02.004Z</time>
      </trkpt>
      <trkpt lat="42.49975" lon="2.43386">
        <ele>1958.2</ele>
        <time>2020-08-30T14:49:02.486Z</time>
      </trkpt>
      <trkpt lat="42.49973" lon="2.43389">
        <ele>1958.5</ele>
        <time>2020-08-30T14:49:09.339Z</time>
      </trkpt>
      <trkpt lat="42.49972" lon="2.43393">
        <ele>1958.7</ele>
        <time>2020-08-30T14:49:14.614Z</time>
      </trkpt>
      <trkpt lat="42.49973" lon="2.43396">
        <ele>1958.4</ele>
        <time>2020-08-30T14:49:15.098Z</time>
      </trkpt>
      <trkpt lat="42.49974" lon="2.43399">
        <ele>1957.8</ele>
        <time>2020-08-30T14:49:15.581Z</time>
      </trkpt>
      <trkpt lat="42.49976" lon="2.43403">
        <ele>1957.1</ele>
        <time>2020-08-30T14:49:16.291Z</time>
      </trkpt>
      <trkpt lat="42.49978" lon="2.43419">
        <ele>1958.7</ele>
        <time>2020-08-30T14:49:56.834Z</time>
      </trkpt>
      <trkpt lat="42.49979" lon="2.43427">
        <ele>1958.8</ele>
        <time>2020-08-30T14:50:03.040Z</time>
      </trkpt>
      <trkpt lat="42.49981" lon="2.43433">
        <ele>1959.6</ele>
        <time>2020-08-30T14:50:19.490Z</time>
      </trkpt>
      <trkpt lat="42.49982" lon="2.43439">
        <ele>1960.5</ele>
        <time>2020-08-30T14:50:34.858Z</time>
      </trkpt>
      <trkpt lat="42.49983" lon="2.43445">
        <ele>1961.3</ele>
        <time>2020-08-30T14:50:50.226Z</time>
      </trkpt>
      <trkpt lat="42.49985" lon="2.43453">
        <ele>1962.1</ele>
        <time>2020-08-30T14:51:09.911Z</time>
      </trkpt>
      <trkpt lat="42.49987" lon="2.43459">
        <ele>1962.4</ele>
        <time>2020-08-30T14:51:17.993Z</time>
      </trkpt>
      <trkpt lat="42.49988" lon="2.43471">
        <ele>1962.8</ele>
        <time>2020-08-30T14:51:31.230Z</time>
      </trkpt>
      <trkpt lat="42.49987" lon="2.43475">
        <ele>1962.8</ele>
        <time>2020-08-30T14:51:33.966Z</time>
      </trkpt>
      <trkpt lat="42.49986" lon="2.4348">
        <ele>1962.7</ele>
        <time>2020-08-30T14:51:34.972Z</time>
      </trkpt>
      <trkpt lat="42.49985" lon="2.43485">
        <ele>1962.5</ele>
        <time>2020-08-30T14:51:35.754Z</time>
      </trkpt>
      <trkpt lat="42.49986" lon="2.43493">
        <ele>1961.6</ele>
        <time>2020-08-30T14:51:36.945Z</time>
      </trkpt>
      <trkpt lat="42.49988" lon="2.435">
        <ele>1960.6</ele>
        <time>2020-08-30T14:51:38.048Z</time>
      </trkpt>
      <trkpt lat="42.49988" lon="2.43504">
        <ele>1963.5</ele>
        <time>2020-08-30T14:51:48.041Z</time>
      </trkpt>
      <trkpt lat="42.49984" lon="2.43513">
        <ele>1966.2</ele>
        <time>2020-08-30T14:52:14.295Z</time>
      </trkpt>
      <trkpt lat="42.49983" lon="2.43519">
        <ele>1967.6</ele>
        <time>2020-08-30T14:52:29.663Z</time>
      </trkpt>
      <trkpt lat="42.49982" lon="2.43525">
        <ele>1968.6</ele>
        <time>2020-08-30T14:52:45.031Z</time>
      </trkpt>
      <trkpt lat="42.49982" lon="2.43532">
        <ele>1969.5</ele>
        <time>2020-08-30T14:53:02.518Z</time>
      </trkpt>
      <trkpt lat="42.49982" lon="2.4354">
        <ele>1970.1</ele>
        <time>2020-08-30T14:53:16.224Z</time>
      </trkpt>
      <trkpt lat="42.49982" lon="2.43548">
        <ele>1970.4</ele>
        <time>2020-08-30T14:53:25.335Z</time>
      </trkpt>
      <trkpt lat="42.4998" lon="2.43556">
        <ele>1970.6</ele>
        <time>2020-08-30T14:53:33.087Z</time>
      </trkpt>
      <trkpt lat="42.49978" lon="2.43566">
        <ele>1970.6</ele>
        <time>2020-08-30T14:53:39.798Z</time>
      </trkpt>
      <trkpt lat="42.49976" lon="2.43575">
        <ele>1970.6</ele>
        <time>2020-08-30T14:53:45.886Z</time>
      </trkpt>
      <trkpt lat="42.49975" lon="2.43582">
        <ele>1970.9</ele>
        <time>2020-08-30T14:53:54.353Z</time>
      </trkpt>
      <trkpt lat="42.49973" lon="2.43588">
        <ele>1972.9</ele>
        <time>2020-08-30T14:54:10.804Z</time>
      </trkpt>
      <trkpt lat="42.49973" lon="2.43598">
        <ele>1973.4</ele>
        <time>2020-08-30T14:54:23.626Z</time>
      </trkpt>
      <trkpt lat="42.49977" lon="2.4361">
        <ele>1973.4</ele>
        <time>2020-08-30T14:54:32.156Z</time>
      </trkpt>
      <trkpt lat="42.49978" lon="2.43615">
        <ele>1973.4</ele>
        <time>2020-08-30T14:54:35.511Z</time>
      </trkpt>
      <trkpt lat="42.49979" lon="2.4362">
        <ele>1973.5</ele>
        <time>2020-08-30T14:54:39.925Z</time>
      </trkpt>
      <trkpt lat="42.4998" lon="2.43636">
        <ele>1973.2</ele>
        <time>2020-08-30T14:54:43.072Z</time>
      </trkpt>
      <trkpt lat="42.49981" lon="2.43642">
        <ele>1972.8</ele>
        <time>2020-08-30T14:54:43.975Z</time>
      </trkpt>
      <trkpt lat="42.49982" lon="2.43648">
        <ele>1971.9</ele>
        <time>2020-08-30T14:54:44.879Z</time>
      </trkpt>
      <trkpt lat="42.49984" lon="2.43652">
        <ele>1971.2</ele>
        <time>2020-08-30T14:54:45.589Z</time>
      </trkpt>
      <trkpt lat="42.49986" lon="2.43658">
        <ele>1970</ele>
        <time>2020-08-30T14:54:46.556Z</time>
      </trkpt>
      <trkpt lat="42.49987" lon="2.4367">
        <ele>1969.9</ele>
        <time>2020-08-30T14:54:49.358Z</time>
      </trkpt>
      <trkpt lat="42.49986" lon="2.43677">
        <ele>1971.2</ele>
        <time>2020-08-30T14:55:07.171Z</time>
      </trkpt>
      <trkpt lat="42.49985" lon="2.43683">
        <ele>1972.7</ele>
        <time>2020-08-30T14:55:22.539Z</time>
      </trkpt>
      <trkpt lat="42.49984" lon="2.43688">
        <ele>1973.6</ele>
        <time>2020-08-30T14:55:35.482Z</time>
      </trkpt>
      <trkpt lat="42.49981" lon="2.43694">
        <ele>1974.7</ele>
        <time>2020-08-30T14:55:53.593Z</time>
      </trkpt>
      <trkpt lat="42.49978" lon="2.437">
        <ele>1975.7</ele>
        <time>2020-08-30T14:56:11.705Z</time>
      </trkpt>
      <trkpt lat="42.49975" lon="2.43708">
        <ele>1976.5</ele>
        <time>2020-08-30T14:56:30.687Z</time>
      </trkpt>
      <trkpt lat="42.49971" lon="2.43721">
        <ele>1977.3</ele>
        <time>2020-08-30T14:56:50.074Z</time>
      </trkpt>
      <trkpt lat="42.49969" lon="2.43728">
        <ele>1977.4</ele>
        <time>2020-08-30T14:56:55.901Z</time>
      </trkpt>
      <trkpt lat="42.49969" lon="2.43741">
        <ele>1977</ele>
        <time>2020-08-30T14:56:58.058Z</time>
      </trkpt>
      <trkpt lat="42.4997" lon="2.43748">
        <ele>1976.9</ele>
        <time>2020-08-30T14:56:59.560Z</time>
      </trkpt>
      <trkpt lat="42.4997" lon="2.43756">
        <ele>1979</ele>
        <time>2020-08-30T14:57:19.546Z</time>
      </trkpt>
      <trkpt lat="42.49969" lon="2.43763">
        <ele>1979.4</ele>
        <time>2020-08-30T14:57:29.286Z</time>
      </trkpt>
      <trkpt lat="42.49969" lon="2.4377">
        <ele>1979.9</ele>
        <time>2020-08-30T14:57:40.729Z</time>
      </trkpt>
      <trkpt lat="42.49969" lon="2.43777">
        <ele>1980.4</ele>
        <time>2020-08-30T14:57:52.171Z</time>
      </trkpt>
      <trkpt lat="42.49965" lon="2.43792">
        <ele>1981.7</ele>
        <time>2020-08-30T14:58:22.114Z</time>
      </trkpt>
      <trkpt lat="42.49964" lon="2.43796">
        <ele>1982.1</ele>
        <time>2020-08-30T14:58:31.957Z</time>
      </trkpt>
      <trkpt lat="42.49962" lon="2.43804">
        <ele>1982.5</ele>
        <time>2020-08-30T14:58:42.507Z</time>
      </trkpt>
      <trkpt lat="42.49963" lon="2.43811">
        <ele>1982.4</ele>
        <time>2020-08-30T14:58:44.009Z</time>
      </trkpt>
      <trkpt lat="42.49963" lon="2.43817">
        <ele>1982.1</ele>
        <time>2020-08-30T14:58:44.890Z</time>
      </trkpt>
      <trkpt lat="42.49962" lon="2.43828">
        <ele>1982.6</ele>
        <time>2020-08-30T14:58:58.435Z</time>
      </trkpt>
      <trkpt lat="42.4996" lon="2.43834">
        <ele>1983</ele>
        <time>2020-08-30T14:59:07.902Z</time>
      </trkpt>
      <trkpt lat="42.49958" lon="2.4384">
        <ele>1983.7</ele>
        <time>2020-08-30T14:59:24.352Z</time>
      </trkpt>
      <trkpt lat="42.49955" lon="2.43846">
        <ele>1984.4</ele>
        <time>2020-08-30T14:59:41.840Z</time>
      </trkpt>
      <trkpt lat="42.49953" lon="2.43852">
        <ele>1984.9</ele>
        <time>2020-08-30T14:59:53.263Z</time>
      </trkpt>
      <trkpt lat="42.49948" lon="2.43861">
        <ele>1985.6</ele>
        <time>2020-08-30T15:00:09.719Z</time>
      </trkpt>
      <trkpt lat="42.49944" lon="2.43866">
        <ele>1985.9</ele>
        <time>2020-08-30T15:00:18.367Z</time>
      </trkpt>
      <trkpt lat="42.49942" lon="2.43873">
        <ele>1985.9</ele>
        <time>2020-08-30T15:00:23.229Z</time>
      </trkpt>
      <trkpt lat="42.4994" lon="2.43897">
        <ele>1985.8</ele>
        <time>2020-08-30T15:00:37.634Z</time>
      </trkpt>
      <trkpt lat="42.4994" lon="2.43904">
        <ele>1985.9</ele>
        <time>2020-08-30T15:00:43.146Z</time>
      </trkpt>
      <trkpt lat="42.4994" lon="2.43909">
        <ele>1986.1</ele>
        <time>2020-08-30T15:00:48.971Z</time>
      </trkpt>
      <trkpt lat="42.49938" lon="2.4392">
        <ele>1987.4</ele>
        <time>2020-08-30T15:01:17.275Z</time>
      </trkpt>
      <trkpt lat="42.49942" lon="2.43929">
        <ele>1986.6</ele>
        <time>2020-08-30T15:01:18.819Z</time>
      </trkpt>
      <trkpt lat="42.49944" lon="2.4393">
        <ele>1986.4</ele>
        <time>2020-08-30T15:01:19.244Z</time>
      </trkpt>
      <trkpt lat="42.49949" lon="2.43935">
        <ele>1985.6</ele>
        <time>2020-08-30T15:01:20.481Z</time>
      </trkpt>
      <trkpt lat="42.49953" lon="2.43939">
        <ele>1985.2</ele>
        <time>2020-08-30T15:01:21.471Z</time>
      </trkpt>
      <trkpt lat="42.49954" lon="2.43943">
        <ele>1985.1</ele>
        <time>2020-08-30T15:01:22.241Z</time>
      </trkpt>
      <trkpt lat="42.49956" lon="2.43946">
        <ele>1985.1</ele>
        <time>2020-08-30T15:01:24.861Z</time>
      </trkpt>
      <trkpt lat="42.49956" lon="2.4395">
        <ele>1985.1</ele>
        <time>2020-08-30T15:01:27.452Z</time>
      </trkpt>
      <trkpt lat="42.49969" lon="2.43975">
        <ele>1984.8</ele>
        <time>2020-08-30T15:01:34.364Z</time>
      </trkpt>
      <trkpt lat="42.49996" lon="2.43972">
        <ele>1982.6</ele>
        <time>2020-08-30T15:01:39.761Z</time>
      </trkpt>
      <trkpt lat="42.50018" lon="2.43962">
        <ele>1985.5</ele>
        <time>2020-08-30T15:02:49.828Z</time>
      </trkpt>
      <trkpt lat="42.50018" lon="2.43957">
        <ele>1985.1</ele>
        <time>2020-08-30T15:02:50.562Z</time>
      </trkpt>
      <trkpt lat="42.50018" lon="2.43951">
        <ele>1984.5</ele>
        <time>2020-08-30T15:02:51.444Z</time>
      </trkpt>
      <trkpt lat="42.50018" lon="2.43944">
        <ele>1983.6</ele>
        <time>2020-08-30T15:02:52.472Z</time>
      </trkpt>
      <trkpt lat="42.5002" lon="2.43936">
        <ele>1982.8</ele>
        <time>2020-08-30T15:02:53.713Z</time>
      </trkpt>
      <trkpt lat="42.5002" lon="2.43931">
        <ele>1982.1</ele>
        <time>2020-08-30T15:02:54.447Z</time>
      </trkpt>
      <trkpt lat="42.50022" lon="2.43923">
        <ele>1981.7</ele>
        <time>2020-08-30T15:02:55.605Z</time>
      </trkpt>
      <trkpt lat="42.50024" lon="2.43919">
        <ele>1982</ele>
        <time>2020-08-30T15:03:02.659Z</time>
      </trkpt>
      <trkpt lat="42.50028" lon="2.43915">
        <ele>1977.6</ele>
        <time>2020-08-30T15:03:03.649Z</time>
      </trkpt>
      <trkpt lat="42.50033" lon="2.43911">
        <ele>1978.5</ele>
        <time>2020-08-30T15:03:23.319Z</time>
      </trkpt>
      <trkpt lat="42.50037" lon="2.43907">
        <ele>1979.3</ele>
        <time>2020-08-30T15:03:40.159Z</time>
      </trkpt>
      <trkpt lat="42.5004" lon="2.43901">
        <ele>1979.7</ele>
        <time>2020-08-30T15:03:49.965Z</time>
      </trkpt>
      <trkpt lat="42.50043" lon="2.43893">
        <ele>1979.9</ele>
        <time>2020-08-30T15:03:58.003Z</time>
      </trkpt>
      <trkpt lat="42.50046" lon="2.43886">
        <ele>1980</ele>
        <time>2020-08-30T15:04:04.198Z</time>
      </trkpt>
      <trkpt lat="42.50052" lon="2.43875">
        <ele>1980</ele>
        <time>2020-08-30T15:04:13.061Z</time>
      </trkpt>
      <trkpt lat="42.50056" lon="2.43867">
        <ele>1980</ele>
        <time>2020-08-30T15:04:19.321Z</time>
      </trkpt>
      <trkpt lat="42.50061" lon="2.43858">
        <ele>1980.1</ele>
        <time>2020-08-30T15:04:27.525Z</time>
      </trkpt>
      <trkpt lat="42.50065" lon="2.43849">
        <ele>1980.4</ele>
        <time>2020-08-30T15:04:38.072Z</time>
      </trkpt>
      <trkpt lat="42.5007" lon="2.43841">
        <ele>1981</ele>
        <time>2020-08-30T15:04:52.571Z</time>
      </trkpt>
      <trkpt lat="42.50074" lon="2.43833">
        <ele>1978</ele>
        <time>2020-08-30T15:04:53.991Z</time>
      </trkpt>
      <trkpt lat="42.50078" lon="2.43825">
        <ele>1977.8</ele>
        <time>2020-08-30T15:04:55.830Z</time>
      </trkpt>
      <trkpt lat="42.50082" lon="2.4382">
        <ele>1976.3</ele>
        <time>2020-08-30T15:04:56.913Z</time>
      </trkpt>
      <trkpt lat="42.50086" lon="2.43815">
        <ele>1982.7</ele>
        <time>2020-08-30T15:05:15.345Z</time>
      </trkpt>
      <trkpt lat="42.5009" lon="2.4381">
        <ele>1982.5</ele>
        <time>2020-08-30T15:05:16.629Z</time>
      </trkpt>
      <trkpt lat="42.50095" lon="2.43807">
        <ele>1982.5</ele>
        <time>2020-08-30T15:05:21.432Z</time>
      </trkpt>
      <trkpt lat="42.501" lon="2.43805">
        <ele>1982.7</ele>
        <time>2020-08-30T15:05:28.493Z</time>
      </trkpt>
      <trkpt lat="42.50113" lon="2.43801">
        <ele>1983.7</ele>
        <time>2020-08-30T15:05:52.984Z</time>
      </trkpt>
      <trkpt lat="42.50121" lon="2.43798">
        <ele>1984.5</ele>
        <time>2020-08-30T15:06:11.301Z</time>
      </trkpt>
      <trkpt lat="42.50127" lon="2.43795">
        <ele>1985.1</ele>
        <time>2020-08-30T15:06:25.081Z</time>
      </trkpt>
      <trkpt lat="42.50134" lon="2.43793">
        <ele>1985.9</ele>
        <time>2020-08-30T15:06:43.553Z</time>
      </trkpt>
      <trkpt lat="42.50141" lon="2.43791">
        <ele>1986.6</ele>
        <time>2020-08-30T15:06:59.561Z</time>
      </trkpt>
      <trkpt lat="42.50148" lon="2.43788">
        <ele>1987.1</ele>
        <time>2020-08-30T15:07:12.356Z</time>
      </trkpt>
      <trkpt lat="42.50154" lon="2.43785">
        <ele>1987.1</ele>
        <time>2020-08-30T15:07:17.973Z</time>
      </trkpt>
      <trkpt lat="42.50159" lon="2.4378">
        <ele>1986.6</ele>
        <time>2020-08-30T15:07:19.211Z</time>
      </trkpt>
      <trkpt lat="42.50164" lon="2.43774">
        <ele>1985.9</ele>
        <time>2020-08-30T15:07:20.541Z</time>
      </trkpt>
      <trkpt lat="42.50168" lon="2.43768">
        <ele>1997</ele>
        <time>2020-08-30T15:07:40.749Z</time>
      </trkpt>
      <trkpt lat="42.50172" lon="2.43762">
        <ele>1994.7</ele>
        <time>2020-08-30T15:07:41.938Z</time>
      </trkpt>
      <trkpt lat="42.50177" lon="2.43757">
        <ele>1994.2</ele>
        <time>2020-08-30T15:07:43.175Z</time>
      </trkpt>
      <trkpt lat="42.50182" lon="2.43752">
        <ele>1995.7</ele>
        <time>2020-08-30T15:08:04.224Z</time>
      </trkpt>
      <trkpt lat="42.50186" lon="2.43747">
        <ele>1988</ele>
        <time>2020-08-30T15:08:05.308Z</time>
      </trkpt>
      <trkpt lat="42.5019" lon="2.43741">
        <ele>1988.7</ele>
        <time>2020-08-30T15:08:21.709Z</time>
      </trkpt>
      <trkpt lat="42.50192" lon="2.43736">
        <ele>1989.1</ele>
        <time>2020-08-30T15:08:30.877Z</time>
      </trkpt>
      <trkpt lat="42.50195" lon="2.43733">
        <ele>1989.4</ele>
        <time>2020-08-30T15:08:38.032Z</time>
      </trkpt>
      <trkpt lat="42.50197" lon="2.43731">
        <ele>1989.8</ele>
        <time>2020-08-30T15:08:46.452Z</time>
      </trkpt>
      <trkpt lat="42.502" lon="2.43731">
        <ele>1990.4</ele>
        <time>2020-08-30T15:08:56.617Z</time>
      </trkpt>
      <trkpt lat="42.50204" lon="2.4373">
        <ele>1991.2</ele>
        <time>2020-08-30T15:09:10.400Z</time>
      </trkpt>
      <trkpt lat="42.5021" lon="2.4373">
        <ele>1992.4</ele>
        <time>2020-08-30T15:09:30.730Z</time>
      </trkpt>
      <trkpt lat="42.5022" lon="2.43731">
        <ele>1994.7</ele>
        <time>2020-08-30T15:10:04.707Z</time>
      </trkpt>
      <trkpt lat="42.50225" lon="2.43731">
        <ele>1996.1</ele>
        <time>2020-08-30T15:10:21.650Z</time>
      </trkpt>
      <trkpt lat="42.50232" lon="2.43732">
        <ele>1998</ele>
        <time>2020-08-30T15:10:45.500Z</time>
      </trkpt>
      <trkpt lat="42.50239" lon="2.43732">
        <ele>1999.8</ele>
        <time>2020-08-30T15:11:09.220Z</time>
      </trkpt>
      <trkpt lat="42.50244" lon="2.43732">
        <ele>2000.7</ele>
        <time>2020-08-30T15:11:26.162Z</time>
      </trkpt>
      <trkpt lat="42.50248" lon="2.43732">
        <ele>2001.2</ele>
        <time>2020-08-30T15:11:38.244Z</time>
      </trkpt>
      <trkpt lat="42.50251" lon="2.43731">
        <ele>2017.2</ele>
        <time>2020-08-30T15:11:48.712Z</time>
      </trkpt>
      <trkpt lat="42.50253" lon="2.43729">
        <ele>2017.7</ele>
        <time>2020-08-30T15:11:57.131Z</time>
      </trkpt>
      <trkpt lat="42.50254" lon="2.43726">
        <ele>2018.1</ele>
        <time>2020-08-30T15:12:05.356Z</time>
      </trkpt>
      <trkpt lat="42.50254" lon="2.43722">
        <ele>2018.5</ele>
        <time>2020-08-30T15:12:15.349Z</time>
      </trkpt>
      <trkpt lat="42.50254" lon="2.43717">
        <ele>2018.6</ele>
        <time>2020-08-30T15:12:19.658Z</time>
      </trkpt>
      <trkpt lat="42.50254" lon="2.4371">
        <ele>2018.4</ele>
        <time>2020-08-30T15:12:20.852Z</time>
      </trkpt>
      <trkpt lat="42.50253" lon="2.43703">
        <ele>2017.7</ele>
        <time>2020-08-30T15:12:21.900Z</time>
      </trkpt>
      <trkpt lat="42.50253" lon="2.43699">
        <ele>2017.1</ele>
        <time>2020-08-30T15:12:22.487Z</time>
      </trkpt>
      <trkpt lat="42.50253" lon="2.43694">
        <ele>2016</ele>
        <time>2020-08-30T15:12:23.222Z</time>
      </trkpt>
      <trkpt lat="42.50253" lon="2.43688">
        <ele>2014.3</ele>
        <time>2020-08-30T15:12:24.103Z</time>
      </trkpt>
      <trkpt lat="42.50253" lon="2.43683">
        <ele>2012.8</ele>
        <time>2020-08-30T15:12:24.837Z</time>
      </trkpt>
      <trkpt lat="42.50255" lon="2.43677">
        <ele>2010.5</ele>
        <time>2020-08-30T15:12:25.804Z</time>
      </trkpt>
      <trkpt lat="42.50258" lon="2.43672">
        <ele>2009.3</ele>
        <time>2020-08-30T15:12:26.751Z</time>
      </trkpt>
      <trkpt lat="42.50263" lon="2.43665">
        <ele>2007.9</ele>
        <time>2020-08-30T15:12:28.183Z</time>
      </trkpt>
      <trkpt lat="42.50268" lon="2.43656">
        <ele>2010.4</ele>
        <time>2020-08-30T15:12:56.335Z</time>
      </trkpt>
      <trkpt lat="42.50271" lon="2.43652">
        <ele>2011.5</ele>
        <time>2020-08-30T15:13:10.589Z</time>
      </trkpt>
      <trkpt lat="42.50275" lon="2.43646">
        <ele>2012.8</ele>
        <time>2020-08-30T15:13:30.798Z</time>
      </trkpt>
      <trkpt lat="42.50279" lon="2.43639">
        <ele>2013.6</ele>
        <time>2020-08-30T15:13:49.909Z</time>
      </trkpt>
      <trkpt lat="42.50283" lon="2.43629">
        <ele>2014</ele>
        <time>2020-08-30T15:14:02.601Z</time>
      </trkpt>
      <trkpt lat="42.50286" lon="2.43619">
        <ele>2014.1</ele>
        <time>2020-08-30T15:14:10.503Z</time>
      </trkpt>
      <trkpt lat="42.50289" lon="2.43609">
        <ele>2014.2</ele>
        <time>2020-08-30T15:14:18.404Z</time>
      </trkpt>
      <trkpt lat="42.50294" lon="2.43595">
        <ele>2015.1</ele>
        <time>2020-08-30T15:14:40.062Z</time>
      </trkpt>
      <trkpt lat="42.50299" lon="2.43583">
        <ele>2010</ele>
        <time>2020-08-30T15:14:42.087Z</time>
      </trkpt>
      <trkpt lat="42.50304" lon="2.43568">
        <ele>2011.2</ele>
        <time>2020-08-30T15:15:09.512Z</time>
      </trkpt>
      <trkpt lat="42.5031" lon="2.43553">
        <ele>2010.9</ele>
        <time>2020-08-30T15:15:12.912Z</time>
      </trkpt>
      <trkpt lat="42.50315" lon="2.43541">
        <ele>2010.8</ele>
        <time>2020-08-30T15:15:16.170Z</time>
      </trkpt>
      <trkpt lat="42.5032" lon="2.43529">
        <ele>2011.5</ele>
        <time>2020-08-30T15:15:33.984Z</time>
      </trkpt>
      <trkpt lat="42.50324" lon="2.43521">
        <ele>2012.9</ele>
        <time>2020-08-30T15:15:58.131Z</time>
      </trkpt>
      <trkpt lat="42.50327" lon="2.43514">
        <ele>2014.9</ele>
        <time>2020-08-30T15:16:18.358Z</time>
      </trkpt>
      <trkpt lat="42.5033" lon="2.43507">
        <ele>2017.4</ele>
        <time>2020-08-30T15:16:38.585Z</time>
      </trkpt>
      <trkpt lat="42.50332" lon="2.43502">
        <ele>2020.2</ele>
        <time>2020-08-30T15:16:52.796Z</time>
      </trkpt>
      <trkpt lat="42.50332" lon="2.43498">
        <ele>2019.6</ele>
        <time>2020-08-30T15:16:53.383Z</time>
      </trkpt>
      <trkpt lat="42.50334" lon="2.43498">
        <ele>2023.3</ele>
        <time>2020-08-30T15:17:00.160Z</time>
      </trkpt>
      <trkpt lat="42.50334" lon="2.435">
        <ele>2022.3</ele>
        <time>2020-08-30T15:17:00.454Z</time>
      </trkpt>
      <trkpt lat="42.50334" lon="2.43513">
        <ele>2031.9</ele>
        <time>2020-08-30T15:17:32.930Z</time>
      </trkpt>
      <trkpt lat="42.50334" lon="2.4352">
        <ele>2035.3</ele>
        <time>2020-08-30T15:17:50.417Z</time>
      </trkpt>
      <trkpt lat="42.50333" lon="2.43529">
        <ele>2013.3</ele>
        <time>2020-08-30T15:17:51.753Z</time>
      </trkpt>
      <trkpt lat="42.50333" lon="2.43538">
        <ele>2013.2</ele>
        <time>2020-08-30T15:17:53.742Z</time>
      </trkpt>
      <trkpt lat="42.50332" lon="2.43548">
        <ele>2014.2</ele>
        <time>2020-08-30T15:18:18.952Z</time>
      </trkpt>
      <trkpt lat="42.50331" lon="2.43558">
        <ele>2016.4</ele>
        <time>2020-08-30T15:18:44.162Z</time>
      </trkpt>
      <trkpt lat="42.5033" lon="2.43573">
        <ele>2022.7</ele>
        <time>2020-08-30T15:19:21.787Z</time>
      </trkpt>
      <trkpt lat="42.50329" lon="2.43585">
        <ele>2029.1</ele>
        <time>2020-08-30T15:19:51.955Z</time>
      </trkpt>
      <trkpt lat="42.50328" lon="2.436">
        <ele>2024.6</ele>
        <time>2020-08-30T15:19:54.168Z</time>
      </trkpt>
      <trkpt lat="42.50326" lon="2.43613">
        <ele>2022.7</ele>
        <time>2020-08-30T15:19:56.118Z</time>
      </trkpt>
      <trkpt lat="42.50324" lon="2.43629">
        <ele>2023.2</ele>
        <time>2020-08-30T15:20:13.147Z</time>
      </trkpt>
      <trkpt lat="42.50323" lon="2.43639">
        <ele>2024.7</ele>
        <time>2020-08-30T15:20:38.357Z</time>
      </trkpt>
      <trkpt lat="42.50323" lon="2.43646">
        <ele>2026.4</ele>
        <time>2020-08-30T15:20:55.844Z</time>
      </trkpt>
      <trkpt lat="42.50322" lon="2.43653">
        <ele>2028.4</ele>
        <time>2020-08-30T15:21:13.656Z</time>
      </trkpt>
      <trkpt lat="42.50321" lon="2.43661">
        <ele>2030.5</ele>
        <time>2020-08-30T15:21:33.927Z</time>
      </trkpt>
      <trkpt lat="42.5032" lon="2.43669">
        <ele>2033.9</ele>
        <time>2020-08-30T15:21:54.197Z</time>
      </trkpt>
      <trkpt lat="42.50318" lon="2.43676">
        <ele>2032.4</ele>
        <time>2020-08-30T15:21:55.300Z</time>
      </trkpt>
      <trkpt lat="42.50317" lon="2.43683">
        <ele>2031.3</ele>
        <time>2020-08-30T15:21:56.347Z</time>
      </trkpt>
      <trkpt lat="42.50316" lon="2.4369">
        <ele>2030.3</ele>
        <time>2020-08-30T15:21:57.394Z</time>
      </trkpt>
      <trkpt lat="42.50315" lon="2.43694">
        <ele>2029.9</ele>
        <time>2020-08-30T15:21:58.014Z</time>
      </trkpt>
      <trkpt lat="42.50315" lon="2.43699">
        <ele>2029.6</ele>
        <time>2020-08-30T15:21:58.749Z</time>
      </trkpt>
      <trkpt lat="42.50314" lon="2.43705">
        <ele>2029.4</ele>
        <time>2020-08-30T15:21:59.747Z</time>
      </trkpt>
      <trkpt lat="42.50313" lon="2.4371">
        <ele>2029.5</ele>
        <time>2020-08-30T15:22:04.161Z</time>
      </trkpt>
      <trkpt lat="42.50311" lon="2.43723">
        <ele>2030.3</ele>
        <time>2020-08-30T15:22:23.145Z</time>
      </trkpt>
      <trkpt lat="42.50313" lon="2.43728">
        <ele>2031.4</ele>
        <time>2020-08-30T15:22:37.356Z</time>
      </trkpt>
      <trkpt lat="42.50314" lon="2.43732">
        <ele>2032.3</ele>
        <time>2020-08-30T15:22:47.907Z</time>
      </trkpt>
      <trkpt lat="42.50317" lon="2.43735">
        <ele>2033.7</ele>
        <time>2020-08-30T15:23:00.536Z</time>
      </trkpt>
      <trkpt lat="42.5032" lon="2.43738">
        <ele>2035.3</ele>
        <time>2020-08-30T15:23:13.166Z</time>
      </trkpt>
      <trkpt lat="42.50329" lon="2.43748">
        <ele>2042.2</ele>
        <time>2020-08-30T15:23:52.588Z</time>
      </trkpt>
      <trkpt lat="42.50332" lon="2.43753">
        <ele>2044.5</ele>
        <time>2020-08-30T15:24:08.692Z</time>
      </trkpt>
      <trkpt lat="42.50335" lon="2.43758">
        <ele>2051</ele>
        <time>2020-08-30T15:24:24.797Z</time>
      </trkpt>
      <trkpt lat="42.50338" lon="2.43764">
        <ele>2053.9</ele>
        <time>2020-08-30T15:24:42.908Z</time>
      </trkpt>
      <trkpt lat="42.50341" lon="2.43773">
        <ele>2057</ele>
        <time>2020-08-30T15:25:07.582Z</time>
      </trkpt>
      <trkpt lat="42.50344" lon="2.43781">
        <ele>2058.6</ele>
        <time>2020-08-30T15:25:30.004Z</time>
      </trkpt>
      <trkpt lat="42.50346" lon="2.43789">
        <ele>2059.6</ele>
        <time>2020-08-30T15:25:51.107Z</time>
      </trkpt>
      <trkpt lat="42.50349" lon="2.43796">
        <ele>2060.1</ele>
        <time>2020-08-30T15:26:02.881Z</time>
      </trkpt>
      <trkpt lat="42.50352" lon="2.43801">
        <ele>2060.4</ele>
        <time>2020-08-30T15:26:10.868Z</time>
      </trkpt>
      <trkpt lat="42.50354" lon="2.43806">
        <ele>2060.6</ele>
        <time>2020-08-30T15:26:17.214Z</time>
      </trkpt>
      <trkpt lat="42.50357" lon="2.43816">
        <ele>2060.5</ele>
        <time>2020-08-30T15:26:19.676Z</time>
      </trkpt>
      <trkpt lat="42.50356" lon="2.43831">
        <ele>2059.4</ele>
        <time>2020-08-30T15:26:21.888Z</time>
      </trkpt>
      <trkpt lat="42.50354" lon="2.43835">
        <ele>2063.4</ele>
        <time>2020-08-30T15:26:33.962Z</time>
      </trkpt>
      <trkpt lat="42.50352" lon="2.4384">
        <ele>2062.8</ele>
        <time>2020-08-30T15:26:34.798Z</time>
      </trkpt>
      <trkpt lat="42.50345" lon="2.43856">
        <ele>2065</ele>
        <time>2020-08-30T15:27:21.276Z</time>
      </trkpt>
      <trkpt lat="42.50342" lon="2.43874">
        <ele>2068.7</ele>
        <time>2020-08-30T15:28:07.377Z</time>
      </trkpt>
      <trkpt lat="42.50337" lon="2.43881">
        <ele>2069.1</ele>
        <time>2020-08-30T15:28:18.840Z</time>
      </trkpt>
      <trkpt lat="42.50329" lon="2.43881">
        <ele>2053.5</ele>
        <time>2020-08-30T15:28:20.434Z</time>
      </trkpt>
      <trkpt lat="42.50324" lon="2.43879">
        <ele>2052.8</ele>
        <time>2020-08-30T15:28:21.472Z</time>
      </trkpt>
      <trkpt lat="42.50318" lon="2.43878">
        <ele>2052.1</ele>
        <time>2020-08-30T15:28:22.677Z</time>
      </trkpt>
      <trkpt lat="42.50305" lon="2.43875">
        <ele>2050.5</ele>
        <time>2020-08-30T15:28:25.304Z</time>
      </trkpt>
      <trkpt lat="42.50296" lon="2.43867">
        <ele>2048.6</ele>
        <time>2020-08-30T15:28:27.447Z</time>
      </trkpt>
      <trkpt lat="42.50294" lon="2.43865">
        <ele>2048.2</ele>
        <time>2020-08-30T15:28:27.943Z</time>
      </trkpt>
      <trkpt lat="42.50291" lon="2.43865">
        <ele>2047.8</ele>
        <time>2020-08-30T15:28:28.540Z</time>
      </trkpt>
      <trkpt lat="42.50288" lon="2.43866">
        <ele>2047.5</ele>
        <time>2020-08-30T15:28:29.156Z</time>
      </trkpt>
      <trkpt lat="42.50285" lon="2.43867">
        <ele>2047.3</ele>
        <time>2020-08-30T15:28:29.728Z</time>
      </trkpt>
      <trkpt lat="42.5028" lon="2.43874">
        <ele>2047.5</ele>
        <time>2020-08-30T15:28:38.200Z</time>
      </trkpt>
      <trkpt lat="42.50279" lon="2.43877">
        <ele>2047.8</ele>
        <time>2020-08-30T15:28:45.401Z</time>
      </trkpt>
      <trkpt lat="42.50278" lon="2.43881">
        <ele>2048.2</ele>
        <time>2020-08-30T15:28:55.244Z</time>
      </trkpt>
      <trkpt lat="42.50278" lon="2.43886">
        <ele>2048.7</ele>
        <time>2020-08-30T15:29:07.735Z</time>
      </trkpt>
      <trkpt lat="42.50279" lon="2.43896">
        <ele>2049.5</ele>
        <time>2020-08-30T15:29:26.077Z</time>
      </trkpt>
      <trkpt lat="42.50279" lon="2.43905">
        <ele>2050</ele>
        <time>2020-08-30T15:29:38.300Z</time>
      </trkpt>
      <trkpt lat="42.50279" lon="2.43914">
        <ele>2050.4</ele>
        <time>2020-08-30T15:29:49.229Z</time>
      </trkpt>
      <trkpt lat="42.5028" lon="2.43921">
        <ele>2059.8</ele>
        <time>2020-08-30T15:30:07.042Z</time>
      </trkpt>
      <trkpt lat="42.5028" lon="2.43924">
        <ele>2059.9</ele>
        <time>2020-08-30T15:30:10.336Z</time>
      </trkpt>
      <trkpt lat="42.5028" lon="2.43931">
        <ele>2060.6</ele>
        <time>2020-08-30T15:30:27.823Z</time>
      </trkpt>
      <trkpt lat="42.50281" lon="2.43938">
        <ele>2061.3</ele>
        <time>2020-08-30T15:30:45.566Z</time>
      </trkpt>
      <trkpt lat="42.50282" lon="2.43945">
        <ele>2062.2</ele>
        <time>2020-08-30T15:31:03.378Z</time>
      </trkpt>
      <trkpt lat="42.50283" lon="2.43954">
        <ele>2063.1</ele>
        <time>2020-08-30T15:31:26.115Z</time>
      </trkpt>
      <trkpt lat="42.50284" lon="2.43963">
        <ele>2064</ele>
        <time>2020-08-30T15:31:48.852Z</time>
      </trkpt>
      <trkpt lat="42.50284" lon="2.43971">
        <ele>2064.6</ele>
        <time>2020-08-30T15:32:02.557Z</time>
      </trkpt>
      <trkpt lat="42.50284" lon="2.43981">
        <ele>2065.1</ele>
        <time>2020-08-30T15:32:15.379Z</time>
      </trkpt>
      <trkpt lat="42.50284" lon="2.43986">
        <ele>2065.3</ele>
        <time>2020-08-30T15:32:21.204Z</time>
      </trkpt>
      <trkpt lat="42.50284" lon="2.43995">
        <ele>2065.6</ele>
        <time>2020-08-30T15:32:31.087Z</time>
      </trkpt>
      <trkpt lat="42.50284" lon="2.44006">
        <ele>2074.6</ele>
        <time>2020-08-30T15:32:58.566Z</time>
      </trkpt>
      <trkpt lat="42.50283" lon="2.44022">
        <ele>2075.7</ele>
        <time>2020-08-30T15:33:23.865Z</time>
      </trkpt>
      <trkpt lat="42.50283" lon="2.44033">
        <ele>2076.7</ele>
        <time>2020-08-30T15:33:47.837Z</time>
      </trkpt>
      <trkpt lat="42.50281" lon="2.44041">
        <ele>2077.4</ele>
        <time>2020-08-30T15:34:04.020Z</time>
      </trkpt>
      <trkpt lat="42.50276" lon="2.44048">
        <ele>2077.4</ele>
        <time>2020-08-30T15:34:10.333Z</time>
      </trkpt>
      <trkpt lat="42.50268" lon="2.44054">
        <ele>2077.1</ele>
        <time>2020-08-30T15:34:12.577Z</time>
      </trkpt>
      <trkpt lat="42.50263" lon="2.44061">
        <ele>2076.9</ele>
        <time>2020-08-30T15:34:14.435Z</time>
      </trkpt>
      <trkpt lat="42.50256" lon="2.44072">
        <ele>2076.4</ele>
        <time>2020-08-30T15:34:16.740Z</time>
      </trkpt>
      <trkpt lat="42.50253" lon="2.44086">
        <ele>2077.3</ele>
        <time>2020-08-30T15:34:37.935Z</time>
      </trkpt>
      <trkpt lat="42.50253" lon="2.4409">
        <ele>2079.2</ele>
        <time>2020-08-30T15:34:47.928Z</time>
      </trkpt>
      <trkpt lat="42.50254" lon="2.44094">
        <ele>2080.8</ele>
        <time>2020-08-30T15:34:58.479Z</time>
      </trkpt>
      <trkpt lat="42.50255" lon="2.44098">
        <ele>2082.2</ele>
        <time>2020-08-30T15:35:09.031Z</time>
      </trkpt>
      <trkpt lat="42.50255" lon="2.44103">
        <ele>2083.7</ele>
        <time>2020-08-30T15:35:21.521Z</time>
      </trkpt>
      <trkpt lat="42.50254" lon="2.44107">
        <ele>2084.5</ele>
        <time>2020-08-30T15:35:32.073Z</time>
      </trkpt>
      <trkpt lat="42.50253" lon="2.44111">
        <ele>2085.1</ele>
        <time>2020-08-30T15:35:42.625Z</time>
      </trkpt>
      <trkpt lat="42.50252" lon="2.44117">
        <ele>2085.9</ele>
        <time>2020-08-30T15:35:57.992Z</time>
      </trkpt>
      <trkpt lat="42.5025" lon="2.44123">
        <ele>2070</ele>
        <time>2020-08-30T15:35:58.959Z</time>
      </trkpt>
      <trkpt lat="42.50248" lon="2.44129">
        <ele>2070.4</ele>
        <time>2020-08-30T15:36:08.425Z</time>
      </trkpt>
      <trkpt lat="42.50247" lon="2.44134">
        <ele>2070.9</ele>
        <time>2020-08-30T15:36:20.912Z</time>
      </trkpt>
      <trkpt lat="42.50245" lon="2.44142">
        <ele>2072.1</ele>
        <time>2020-08-30T15:36:42.015Z</time>
      </trkpt>
      <trkpt lat="42.50243" lon="2.44149">
        <ele>2073.7</ele>
        <time>2020-08-30T15:37:00.769Z</time>
      </trkpt>
      <trkpt lat="42.50241" lon="2.44157">
        <ele>2075.5</ele>
        <time>2020-08-30T15:37:21.872Z</time>
      </trkpt>
      <trkpt lat="42.5024" lon="2.44165">
        <ele>2077</ele>
        <time>2020-08-30T15:37:42.143Z</time>
      </trkpt>
      <trkpt lat="42.5024" lon="2.44174">
        <ele>2077.4</ele>
        <time>2020-08-30T15:37:53.072Z</time>
      </trkpt>
      <trkpt lat="42.50237" lon="2.44183">
        <ele>2075.4</ele>
        <time>2020-08-30T15:37:54.522Z</time>
      </trkpt>
      <trkpt lat="42.50235" lon="2.44193">
        <ele>2073.9</ele>
        <time>2020-08-30T15:37:56.044Z</time>
      </trkpt>
      <trkpt lat="42.50234" lon="2.44202">
        <ele>2073.3</ele>
        <time>2020-08-30T15:37:57.381Z</time>
      </trkpt>
      <trkpt lat="42.50235" lon="2.44209">
        <ele>2073.5</ele>
        <time>2020-08-30T15:38:04.469Z</time>
      </trkpt>
      <trkpt lat="42.50236" lon="2.44216">
        <ele>2074.2</ele>
        <time>2020-08-30T15:38:22.212Z</time>
      </trkpt>
      <trkpt lat="42.50237" lon="2.44223">
        <ele>2075.1</ele>
        <time>2020-08-30T15:38:40.025Z</time>
      </trkpt>
      <trkpt lat="42.50239" lon="2.4423">
        <ele>2076.7</ele>
        <time>2020-08-30T15:38:58.779Z</time>
      </trkpt>
      <trkpt lat="42.50241" lon="2.44236">
        <ele>2078.7</ele>
        <time>2020-08-30T15:39:15.229Z</time>
      </trkpt>
      <trkpt lat="42.50244" lon="2.44243">
        <ele>2081.8</ele>
        <time>2020-08-30T15:39:35.456Z</time>
      </trkpt>
      <trkpt lat="42.50246" lon="2.44249">
        <ele>2084.7</ele>
        <time>2020-08-30T15:39:51.906Z</time>
      </trkpt>
      <trkpt lat="42.50247" lon="2.44256">
        <ele>2083.5</ele>
        <time>2020-08-30T15:39:52.953Z</time>
      </trkpt>
      <trkpt lat="42.50249" lon="2.44262">
        <ele>2081.2</ele>
        <time>2020-08-30T15:39:53.920Z</time>
      </trkpt>
      <trkpt lat="42.50252" lon="2.44266">
        <ele>2093.4</ele>
        <time>2020-08-30T15:40:08.175Z</time>
      </trkpt>
      <trkpt lat="42.50255" lon="2.44271">
        <ele>2094.4</ele>
        <time>2020-08-30T15:40:24.279Z</time>
      </trkpt>
      <trkpt lat="42.50257" lon="2.44276">
        <ele>2095.2</ele>
        <time>2020-08-30T15:40:38.490Z</time>
      </trkpt>
      <trkpt lat="42.5026" lon="2.44283">
        <ele>2095.8</ele>
        <time>2020-08-30T15:40:52.196Z</time>
      </trkpt>
      <trkpt lat="42.50263" lon="2.44288">
        <ele>2096.1</ele>
        <time>2020-08-30T15:41:00.183Z</time>
      </trkpt>
      <trkpt lat="42.50265" lon="2.44293">
        <ele>2096.2</ele>
        <time>2020-08-30T15:41:04.897Z</time>
      </trkpt>
      <trkpt lat="42.50268" lon="2.44299">
        <ele>2096.3</ele>
        <time>2020-08-30T15:41:10.563Z</time>
      </trkpt>
      <trkpt lat="42.50271" lon="2.44304">
        <ele>2096.3</ele>
        <time>2020-08-30T15:41:14.739Z</time>
      </trkpt>
      <trkpt lat="42.50274" lon="2.4431">
        <ele>2096.4</ele>
        <time>2020-08-30T15:41:20.405Z</time>
      </trkpt>
      <trkpt lat="42.50278" lon="2.44317">
        <ele>2096.7</ele>
        <time>2020-08-30T15:41:30.175Z</time>
      </trkpt>
      <trkpt lat="42.50281" lon="2.44323">
        <ele>2097.2</ele>
        <time>2020-08-30T15:41:41.664Z</time>
      </trkpt>
      <trkpt lat="42.50285" lon="2.44331">
        <ele>2098.2</ele>
        <time>2020-08-30T15:42:05.811Z</time>
      </trkpt>
      <trkpt lat="42.50289" lon="2.44337">
        <ele>2096.8</ele>
        <time>2020-08-30T15:42:07.000Z</time>
      </trkpt>
      <trkpt lat="42.50292" lon="2.44343">
        <ele>2097.7</ele>
        <time>2020-08-30T15:42:25.110Z</time>
      </trkpt>
      <trkpt lat="42.50295" lon="2.44348">
        <ele>2098.5</ele>
        <time>2020-08-30T15:42:41.215Z</time>
      </trkpt>
      <trkpt lat="42.50297" lon="2.44351">
        <ele>2098.9</ele>
        <time>2020-08-30T15:42:51.319Z</time>
      </trkpt>
      <trkpt lat="42.503" lon="2.44356">
        <ele>2099.5</ele>
        <time>2020-08-30T15:43:05.908Z</time>
      </trkpt>
      <trkpt lat="42.50304" lon="2.44362">
        <ele>2100</ele>
        <time>2020-08-30T15:43:17.678Z</time>
      </trkpt>
      <trkpt lat="42.50308" lon="2.44367">
        <ele>2100.3</ele>
        <time>2020-08-30T15:43:26.326Z</time>
      </trkpt>
      <trkpt lat="42.50314" lon="2.44372">
        <ele>2100.9</ele>
        <time>2020-08-30T15:43:40.386Z</time>
      </trkpt>
      <trkpt lat="42.50318" lon="2.44376">
        <ele>2101.4</ele>
        <time>2020-08-30T15:43:51.807Z</time>
      </trkpt>
      <trkpt lat="42.50324" lon="2.44381">
        <ele>2101.8</ele>
        <time>2020-08-30T15:44:03.129Z</time>
      </trkpt>
      <trkpt lat="42.50327" lon="2.44385">
        <ele>2102</ele>
        <time>2020-08-30T15:44:09.489Z</time>
      </trkpt>
      <trkpt lat="42.5033" lon="2.4439">
        <ele>2102.4</ele>
        <time>2020-08-30T15:44:18.895Z</time>
      </trkpt>
      <trkpt lat="42.50334" lon="2.44397">
        <ele>2120.3</ele>
        <time>2020-08-30T15:44:41.019Z</time>
      </trkpt>
      <trkpt lat="42.50338" lon="2.44403">
        <ele>2118.2</ele>
        <time>2020-08-30T15:44:42.208Z</time>
      </trkpt>
      <trkpt lat="42.5034" lon="2.4441">
        <ele>2115.7</ele>
        <time>2020-08-30T15:44:43.310Z</time>
      </trkpt>
      <trkpt lat="42.50344" lon="2.4442">
        <ele>2114.6</ele>
        <time>2020-08-30T15:44:44.981Z</time>
      </trkpt>
      <trkpt lat="42.50346" lon="2.44424">
        <ele>2116</ele>
        <time>2020-08-30T15:44:57.055Z</time>
      </trkpt>
      <trkpt lat="42.5035" lon="2.44429">
        <ele>2118</ele>
        <time>2020-08-30T15:45:15.487Z</time>
      </trkpt>
      <trkpt lat="42.50353" lon="2.44434">
        <ele>2119.5</ele>
        <time>2020-08-30T15:45:31.591Z</time>
      </trkpt>
      <trkpt lat="42.50354" lon="2.44436">
        <ele>2119.8</ele>
        <time>2020-08-30T15:45:37.628Z</time>
      </trkpt>
      <trkpt lat="42.50357" lon="2.44441">
        <ele>2120.8</ele>
        <time>2020-08-30T15:45:53.732Z</time>
      </trkpt>
      <trkpt lat="42.50358" lon="2.44443">
        <ele>2121.4</ele>
        <time>2020-08-30T15:45:59.769Z</time>
      </trkpt>
      <trkpt lat="42.5036" lon="2.44448">
        <ele>2121.9</ele>
        <time>2020-08-30T15:46:11.559Z</time>
      </trkpt>
      <trkpt lat="42.50363" lon="2.44452">
        <ele>2122.4</ele>
        <time>2020-08-30T15:46:23.333Z</time>
      </trkpt>
      <trkpt lat="42.50365" lon="2.44457">
        <ele>2122.9</ele>
        <time>2020-08-30T15:46:35.122Z</time>
      </trkpt>
      <trkpt lat="42.50368" lon="2.44461">
        <ele>2123.3</ele>
        <time>2020-08-30T15:46:44.293Z</time>
      </trkpt>
      <trkpt lat="42.5037" lon="2.44466">
        <ele>2123.6</ele>
        <time>2020-08-30T15:46:51.793Z</time>
      </trkpt>
      <trkpt lat="42.50372" lon="2.44471">
        <ele>2123.9</ele>
        <time>2020-08-30T15:46:59.294Z</time>
      </trkpt>
      <trkpt lat="42.50375" lon="2.44476">
        <ele>2124.5</ele>
        <time>2020-08-30T15:47:13.882Z</time>
      </trkpt>
      <trkpt lat="42.50378" lon="2.4448">
        <ele>2125</ele>
        <time>2020-08-30T15:47:25.656Z</time>
      </trkpt>
      <trkpt lat="42.50379" lon="2.44484">
        <ele>2125.4</ele>
        <time>2020-08-30T15:47:35.500Z</time>
      </trkpt>
      <trkpt lat="42.5038" lon="2.44501">
        <ele>2124.1</ele>
        <time>2020-08-30T15:47:38.004Z</time>
      </trkpt>
      <trkpt lat="42.50382" lon="2.4451">
        <ele>2124.7</ele>
        <time>2020-08-30T15:47:52.005Z</time>
      </trkpt>
      <trkpt lat="42.50387" lon="2.44521">
        <ele>2125.6</ele>
        <time>2020-08-30T15:48:12.657Z</time>
      </trkpt>
      <trkpt lat="42.50389" lon="2.44526">
        <ele>2125.8</ele>
        <time>2020-08-30T15:48:19.003Z</time>
      </trkpt>
      <trkpt lat="42.5039" lon="2.44531">
        <ele>2125.8</ele>
        <time>2020-08-30T15:48:22.358Z</time>
      </trkpt>
      <trkpt lat="42.5039" lon="2.44533">
        <ele>2125.8</ele>
        <time>2020-08-30T15:48:23.653Z</time>
      </trkpt>
    </trkseg>
  </trk>
  <trk>
    <name><![CDATA[Pic et tour du Canigou _2]]></name>
    <extensions>
      <line xmlns="http://www.topografix.com/GPX/gpx_style/0/2">
        <color>fbff00</color>
        <opacity>1</opacity>
        <width>4</width>
      </line>
    </extensions>
    <trkseg>
      <trkpt lat="42.504" lon="2.44549">
        <ele>2127.2</ele>
        <time>2020-08-31T06:00:00.000Z</time>
      </trkpt>
      <trkpt lat="42.50398" lon="2.44551">
        <ele>2126.9</ele>
        <time>2020-08-31T06:00:00.621Z</time>
      </trkpt>
      <trkpt lat="42.504" lon="2.44557">
        <ele>2127.7</ele>
        <time>2020-08-31T06:00:24.850Z</time>
      </trkpt>
      <trkpt lat="42.50402" lon="2.44564">
        <ele>2128.6</ele>
        <time>2020-08-31T06:00:52.474Z</time>
      </trkpt>
      <trkpt lat="42.50404" lon="2.44576">
        <ele>2130.8</ele>
        <time>2020-08-31T06:01:37.744Z</time>
      </trkpt>
      <trkpt lat="42.50405" lon="2.44583">
        <ele>2131.7</ele>
        <time>2020-08-31T06:02:03.981Z</time>
      </trkpt>
      <trkpt lat="42.50406" lon="2.44588">
        <ele>2132.7</ele>
        <time>2020-08-31T06:02:23.044Z</time>
      </trkpt>
      <trkpt lat="42.50406" lon="2.44592">
        <ele>2132.3</ele>
        <time>2020-08-31T06:02:23.781Z</time>
      </trkpt>
      <trkpt lat="42.50407" lon="2.44595">
        <ele>2131.9</ele>
        <time>2020-08-31T06:02:24.387Z</time>
      </trkpt>
      <trkpt lat="42.50409" lon="2.446">
        <ele>2131.4</ele>
        <time>2020-08-31T06:02:25.435Z</time>
      </trkpt>
      <trkpt lat="42.50412" lon="2.44605">
        <ele>2131.1</ele>
        <time>2020-08-31T06:02:26.552Z</time>
      </trkpt>
      <trkpt lat="42.50414" lon="2.44613">
        <ele>2130.6</ele>
        <time>2020-08-31T06:02:28.108Z</time>
      </trkpt>
      <trkpt lat="42.50417" lon="2.44618">
        <ele>2146.3</ele>
        <time>2020-08-31T06:02:51.829Z</time>
      </trkpt>
      <trkpt lat="42.50419" lon="2.44622">
        <ele>2146.6</ele>
        <time>2020-08-31T06:03:02.219Z</time>
      </trkpt>
      <trkpt lat="42.50422" lon="2.44625">
        <ele>2146.9</ele>
        <time>2020-08-31T06:03:12.758Z</time>
      </trkpt>
      <trkpt lat="42.50426" lon="2.44628">
        <ele>2147.2</ele>
        <time>2020-08-31T06:03:24.280Z</time>
      </trkpt>
      <trkpt lat="42.5043" lon="2.44632">
        <ele>2147.4</ele>
        <time>2020-08-31T06:03:34.465Z</time>
      </trkpt>
      <trkpt lat="42.50432" lon="2.44637">
        <ele>2147.5</ele>
        <time>2020-08-31T06:03:41.408Z</time>
      </trkpt>
      <trkpt lat="42.50434" lon="2.44641">
        <ele>2147.5</ele>
        <time>2020-08-31T06:03:46.019Z</time>
      </trkpt>
      <trkpt lat="42.50436" lon="2.44646">
        <ele>2147.4</ele>
        <time>2020-08-31T06:03:47.440Z</time>
      </trkpt>
      <trkpt lat="42.50438" lon="2.44651">
        <ele>2147.2</ele>
        <time>2020-08-31T06:03:48.561Z</time>
      </trkpt>
      <trkpt lat="42.50439" lon="2.44657">
        <ele>2147</ele>
        <time>2020-08-31T06:03:49.813Z</time>
      </trkpt>
      <trkpt lat="42.5044" lon="2.44664">
        <ele>2147</ele>
        <time>2020-08-31T06:03:56.615Z</time>
      </trkpt>
      <trkpt lat="42.50441" lon="2.44669">
        <ele>2146.3</ele>
        <time>2020-08-31T06:03:57.569Z</time>
      </trkpt>
      <trkpt lat="42.50441" lon="2.44673">
        <ele>2146.5</ele>
        <time>2020-08-31T06:04:05.123Z</time>
      </trkpt>
      <trkpt lat="42.50441" lon="2.44678">
        <ele>2146.7</ele>
        <time>2020-08-31T06:04:13.703Z</time>
      </trkpt>
      <trkpt lat="42.50441" lon="2.44684">
        <ele>2147.1</ele>
        <time>2020-08-31T06:04:27.318Z</time>
      </trkpt>
      <trkpt lat="42.50442" lon="2.44691">
        <ele>2147.6</ele>
        <time>2020-08-31T06:04:44.204Z</time>
      </trkpt>
      <trkpt lat="42.50443" lon="2.44697">
        <ele>2148.1</ele>
        <time>2020-08-31T06:05:01.158Z</time>
      </trkpt>
      <trkpt lat="42.50447" lon="2.44709">
        <ele>2148.8</ele>
        <time>2020-08-31T06:05:26.845Z</time>
      </trkpt>
      <trkpt lat="42.50448" lon="2.44715">
        <ele>2149</ele>
        <time>2020-08-31T06:05:36.691Z</time>
      </trkpt>
      <trkpt lat="42.50452" lon="2.44724">
        <ele>2149.3</ele>
        <time>2020-08-31T06:05:52.226Z</time>
      </trkpt>
      <trkpt lat="42.50454" lon="2.44729">
        <ele>2149.5</ele>
        <time>2020-08-31T06:06:01.574Z</time>
      </trkpt>
      <trkpt lat="42.50455" lon="2.44736">
        <ele>2149.7</ele>
        <time>2020-08-31T06:06:12.014Z</time>
      </trkpt>
      <trkpt lat="42.50458" lon="2.44742">
        <ele>2150.1</ele>
        <time>2020-08-31T06:06:26.458Z</time>
      </trkpt>
      <trkpt lat="42.50461" lon="2.44746">
        <ele>2150.6</ele>
        <time>2020-08-31T06:06:43.801Z</time>
      </trkpt>
      <trkpt lat="42.50466" lon="2.44756">
        <ele>2152.4</ele>
        <time>2020-08-31T06:07:28.262Z</time>
      </trkpt>
      <trkpt lat="42.5047" lon="2.44761">
        <ele>2152.9</ele>
        <time>2020-08-31T06:07:45.230Z</time>
      </trkpt>
      <trkpt lat="42.5048" lon="2.44776">
        <ele>2153.9</ele>
        <time>2020-08-31T06:08:23.213Z</time>
      </trkpt>
      <trkpt lat="42.50487" lon="2.44787">
        <ele>2154.4</ele>
        <time>2020-08-31T06:08:46.935Z</time>
      </trkpt>
      <trkpt lat="42.50491" lon="2.44793">
        <ele>2154.9</ele>
        <time>2020-08-31T06:09:04.273Z</time>
      </trkpt>
      <trkpt lat="42.50495" lon="2.44797">
        <ele>2155.3</ele>
        <time>2020-08-31T06:09:18.324Z</time>
      </trkpt>
      <trkpt lat="42.50499" lon="2.44803">
        <ele>2155.9</ele>
        <time>2020-08-31T06:09:38.512Z</time>
      </trkpt>
      <trkpt lat="42.50504" lon="2.44808">
        <ele>2170.1</ele>
        <time>2020-08-31T06:10:09.517Z</time>
      </trkpt>
      <trkpt lat="42.50509" lon="2.44815">
        <ele>2169.8</ele>
        <time>2020-08-31T06:10:11.544Z</time>
      </trkpt>
      <trkpt lat="42.50513" lon="2.44819">
        <ele>2169.8</ele>
        <time>2020-08-31T06:10:17.974Z</time>
      </trkpt>
      <trkpt lat="42.50517" lon="2.44824">
        <ele>2170.2</ele>
        <time>2020-08-31T06:10:32.526Z</time>
      </trkpt>
      <trkpt lat="42.50522" lon="2.44829">
        <ele>2171.1</ele>
        <time>2020-08-31T06:11:03.530Z</time>
      </trkpt>
      <trkpt lat="42.50525" lon="2.44834">
        <ele>2171.9</ele>
        <time>2020-08-31T06:11:27.251Z</time>
      </trkpt>
      <trkpt lat="42.50531" lon="2.44844">
        <ele>2173.7</ele>
        <time>2020-08-31T06:12:14.693Z</time>
      </trkpt>
      <trkpt lat="42.50534" lon="2.44847">
        <ele>2174.3</ele>
        <time>2020-08-31T06:12:33.296Z</time>
      </trkpt>
      <trkpt lat="42.50537" lon="2.4485">
        <ele>2174.9</ele>
        <time>2020-08-31T06:12:51.898Z</time>
      </trkpt>
      <trkpt lat="42.5054" lon="2.44853">
        <ele>2175.5</ele>
        <time>2020-08-31T06:13:10.501Z</time>
      </trkpt>
      <trkpt lat="42.50542" lon="2.44856">
        <ele>2175.9</ele>
        <time>2020-08-31T06:13:25.384Z</time>
      </trkpt>
      <trkpt lat="42.50543" lon="2.44859">
        <ele>2176.1</ele>
        <time>2020-08-31T06:13:32.356Z</time>
      </trkpt>
      <trkpt lat="42.50546" lon="2.44862">
        <ele>2176.6</ele>
        <time>2020-08-31T06:13:50.958Z</time>
      </trkpt>
      <trkpt lat="42.50551" lon="2.44867">
        <ele>2177.3</ele>
        <time>2020-08-31T06:14:14.810Z</time>
      </trkpt>
      <trkpt lat="42.50554" lon="2.44868">
        <ele>2177.7</ele>
        <time>2020-08-31T06:14:29.396Z</time>
      </trkpt>
      <trkpt lat="42.50557" lon="2.44872">
        <ele>2178</ele>
        <time>2020-08-31T06:14:40.459Z</time>
      </trkpt>
      <trkpt lat="42.50557" lon="2.44876">
        <ele>2178</ele>
        <time>2020-08-31T06:14:44.275Z</time>
      </trkpt>
      <trkpt lat="42.50558" lon="2.44883">
        <ele>2178.2</ele>
        <time>2020-08-31T06:14:54.716Z</time>
      </trkpt>
      <trkpt lat="42.50559" lon="2.44889">
        <ele>2178.6</ele>
        <time>2020-08-31T06:15:08.403Z</time>
      </trkpt>
      <trkpt lat="42.5056" lon="2.44896">
        <ele>2179.1</ele>
        <time>2020-08-31T06:15:25.288Z</time>
      </trkpt>
      <trkpt lat="42.50561" lon="2.44902">
        <ele>2179.6</ele>
        <time>2020-08-31T06:15:42.243Z</time>
      </trkpt>
      <trkpt lat="42.50563" lon="2.44909">
        <ele>2180.3</ele>
        <time>2020-08-31T06:16:07.343Z</time>
      </trkpt>
      <trkpt lat="42.50564" lon="2.44915">
        <ele>2180.8</ele>
        <time>2020-08-31T06:16:24.298Z</time>
      </trkpt>
      <trkpt lat="42.50566" lon="2.44927">
        <ele>2183.7</ele>
        <time>2020-08-31T06:17:09.567Z</time>
      </trkpt>
      <trkpt lat="42.50569" lon="2.44936">
        <ele>2183.8</ele>
        <time>2020-08-31T06:17:20.345Z</time>
      </trkpt>
      <trkpt lat="42.5057" lon="2.44947">
        <ele>2184</ele>
        <time>2020-08-31T06:17:33.974Z</time>
      </trkpt>
      <trkpt lat="42.5057" lon="2.44954">
        <ele>2184.5</ele>
        <time>2020-08-31T06:17:50.828Z</time>
      </trkpt>
      <trkpt lat="42.50572" lon="2.4496">
        <ele>2185.1</ele>
        <time>2020-08-31T06:18:12.042Z</time>
      </trkpt>
      <trkpt lat="42.5058" lon="2.44966">
        <ele>2186.6</ele>
        <time>2020-08-31T06:18:57.668Z</time>
      </trkpt>
      <trkpt lat="42.50583" lon="2.44969">
        <ele>2187.1</ele>
        <time>2020-08-31T06:19:16.270Z</time>
      </trkpt>
      <trkpt lat="42.50585" lon="2.44973">
        <ele>2204.6</ele>
        <time>2020-08-31T06:19:34.054Z</time>
      </trkpt>
      <trkpt lat="42.50587" lon="2.44976">
        <ele>2204.6</ele>
        <time>2020-08-31T06:19:37.913Z</time>
      </trkpt>
      <trkpt lat="42.5059" lon="2.4498">
        <ele>2204.6</ele>
        <time>2020-08-31T06:19:43.356Z</time>
      </trkpt>
      <trkpt lat="42.50593" lon="2.44986">
        <ele>2204.4</ele>
        <time>2020-08-31T06:19:44.928Z</time>
      </trkpt>
      <trkpt lat="42.50597" lon="2.44994">
        <ele>2204.3</ele>
        <time>2020-08-31T06:19:47.641Z</time>
      </trkpt>
      <trkpt lat="42.50604" lon="2.45003">
        <ele>2207.8</ele>
        <time>2020-08-31T06:20:35.779Z</time>
      </trkpt>
      <trkpt lat="42.50609" lon="2.45007">
        <ele>2209.5</ele>
        <time>2020-08-31T06:21:04.752Z</time>
      </trkpt>
      <trkpt lat="42.50616" lon="2.45016">
        <ele>2211.8</ele>
        <time>2020-08-31T06:21:52.890Z</time>
      </trkpt>
      <trkpt lat="42.50622" lon="2.45026">
        <ele>2213.1</ele>
        <time>2020-08-31T06:22:40.332Z</time>
      </trkpt>
      <trkpt lat="42.50625" lon="2.45035">
        <ele>2213.8</ele>
        <time>2020-08-31T06:23:03.945Z</time>
      </trkpt>
      <trkpt lat="42.50629" lon="2.45044">
        <ele>2214.5</ele>
        <time>2020-08-31T06:23:27.775Z</time>
      </trkpt>
      <trkpt lat="42.50631" lon="2.45052">
        <ele>2214.9</ele>
        <time>2020-08-31T06:23:43.315Z</time>
      </trkpt>
      <trkpt lat="42.50636" lon="2.45056">
        <ele>2215.8</ele>
        <time>2020-08-31T06:24:12.287Z</time>
      </trkpt>
      <trkpt lat="42.50638" lon="2.45065">
        <ele>2216.5</ele>
        <time>2020-08-31T06:24:35.839Z</time>
      </trkpt>
      <trkpt lat="42.50642" lon="2.45069">
        <ele>2217.6</ele>
        <time>2020-08-31T06:25:00.642Z</time>
      </trkpt>
      <trkpt lat="42.50646" lon="2.45078">
        <ele>2219.5</ele>
        <time>2020-08-31T06:25:39.310Z</time>
      </trkpt>
      <trkpt lat="42.50648" lon="2.45085">
        <ele>2220.8</ele>
        <time>2020-08-31T06:26:06.933Z</time>
      </trkpt>
      <trkpt lat="42.50652" lon="2.45089">
        <ele>2221.9</ele>
        <time>2020-08-31T06:26:31.737Z</time>
      </trkpt>
      <trkpt lat="42.50656" lon="2.45096">
        <ele>2222.1</ele>
        <time>2020-08-31T06:26:43.481Z</time>
      </trkpt>
      <trkpt lat="42.50661" lon="2.45104">
        <ele>2221.5</ele>
        <time>2020-08-31T06:26:45.412Z</time>
      </trkpt>
      <trkpt lat="42.50666" lon="2.45111">
        <ele>2221.1</ele>
        <time>2020-08-31T06:26:47.206Z</time>
      </trkpt>
      <trkpt lat="42.50668" lon="2.45118">
        <ele>2240.7</ele>
        <time>2020-08-31T06:27:14.829Z</time>
      </trkpt>
      <trkpt lat="42.5067" lon="2.45126">
        <ele>2241.3</ele>
        <time>2020-08-31T06:27:35.064Z</time>
      </trkpt>
      <trkpt lat="42.50673" lon="2.4513">
        <ele>2241.5</ele>
        <time>2020-08-31T06:27:44.432Z</time>
      </trkpt>
      <trkpt lat="42.50675" lon="2.45133">
        <ele>2241.7</ele>
        <time>2020-08-31T06:27:52.028Z</time>
      </trkpt>
      <trkpt lat="42.50679" lon="2.45133">
        <ele>2242.1</ele>
        <time>2020-08-31T06:28:05.488Z</time>
      </trkpt>
      <trkpt lat="42.50684" lon="2.45135">
        <ele>2242.8</ele>
        <time>2020-08-31T06:28:31.507Z</time>
      </trkpt>
      <trkpt lat="42.50687" lon="2.45137">
        <ele>2243.2</ele>
        <time>2020-08-31T06:28:45.421Z</time>
      </trkpt>
      <trkpt lat="42.5069" lon="2.45141">
        <ele>2243.6</ele>
        <time>2020-08-31T06:28:58.930Z</time>
      </trkpt>
      <trkpt lat="42.50692" lon="2.45145">
        <ele>2243.9</ele>
        <time>2020-08-31T06:29:09.320Z</time>
      </trkpt>
      <trkpt lat="42.50695" lon="2.45149">
        <ele>2244.5</ele>
        <time>2020-08-31T06:29:30.316Z</time>
      </trkpt>
      <trkpt lat="42.50698" lon="2.45153">
        <ele>2245</ele>
        <time>2020-08-31T06:29:47.659Z</time>
      </trkpt>
      <trkpt lat="42.507" lon="2.45156">
        <ele>2245.6</ele>
        <time>2020-08-31T06:30:02.541Z</time>
      </trkpt>
      <trkpt lat="42.50704" lon="2.45159">
        <ele>2246.6</ele>
        <time>2020-08-31T06:30:25.354Z</time>
      </trkpt>
      <trkpt lat="42.50706" lon="2.45163">
        <ele>2247.2</ele>
        <time>2020-08-31T06:30:43.138Z</time>
      </trkpt>
      <trkpt lat="42.50709" lon="2.45168">
        <ele>2249.2</ele>
        <time>2020-08-31T06:31:06.858Z</time>
      </trkpt>
      <trkpt lat="42.50711" lon="2.45172">
        <ele>2249.8</ele>
        <time>2020-08-31T06:31:24.642Z</time>
      </trkpt>
      <trkpt lat="42.50714" lon="2.45177">
        <ele>2250.6</ele>
        <time>2020-08-31T06:31:48.363Z</time>
      </trkpt>
      <trkpt lat="42.50718" lon="2.45182">
        <ele>2251.6</ele>
        <time>2020-08-31T06:32:15.511Z</time>
      </trkpt>
      <trkpt lat="42.50721" lon="2.45187">
        <ele>2252.2</ele>
        <time>2020-08-31T06:32:37.000Z</time>
      </trkpt>
      <trkpt lat="42.50725" lon="2.45196">
        <ele>2252.7</ele>
        <time>2020-08-31T06:32:56.375Z</time>
      </trkpt>
      <trkpt lat="42.50727" lon="2.45199">
        <ele>2252.9</ele>
        <time>2020-08-31T06:33:03.972Z</time>
      </trkpt>
      <trkpt lat="42.5073" lon="2.45203">
        <ele>2253.2</ele>
        <time>2020-08-31T06:33:15.035Z</time>
      </trkpt>
      <trkpt lat="42.50733" lon="2.45207">
        <ele>2253.6</ele>
        <time>2020-08-31T06:33:28.544Z</time>
      </trkpt>
      <trkpt lat="42.50736" lon="2.4521">
        <ele>2254</ele>
        <time>2020-08-31T06:33:42.049Z</time>
      </trkpt>
      <trkpt lat="42.5074" lon="2.45213">
        <ele>2254.5</ele>
        <time>2020-08-31T06:33:58.979Z</time>
      </trkpt>
      <trkpt lat="42.50745" lon="2.45218">
        <ele>2255.1</ele>
        <time>2020-08-31T06:34:19.210Z</time>
      </trkpt>
      <trkpt lat="42.50749" lon="2.45225">
        <ele>2256</ele>
        <time>2020-08-31T06:34:51.798Z</time>
      </trkpt>
      <trkpt lat="42.50751" lon="2.4523">
        <ele>2272.2</ele>
        <time>2020-08-31T06:35:12.729Z</time>
      </trkpt>
      <trkpt lat="42.50751" lon="2.45235">
        <ele>2270.8</ele>
        <time>2020-08-31T06:35:13.649Z</time>
      </trkpt>
      <trkpt lat="42.50754" lon="2.4524">
        <ele>2269.4</ele>
        <time>2020-08-31T06:35:14.837Z</time>
      </trkpt>
      <trkpt lat="42.50758" lon="2.45241">
        <ele>2270</ele>
        <time>2020-08-31T06:35:35.138Z</time>
      </trkpt>
      <trkpt lat="42.50761" lon="2.45243">
        <ele>2270.6</ele>
        <time>2020-08-31T06:35:51.822Z</time>
      </trkpt>
      <trkpt lat="42.50763" lon="2.45248">
        <ele>2270.7</ele>
        <time>2020-08-31T06:35:58.765Z</time>
      </trkpt>
      <trkpt lat="42.50763" lon="2.45253">
        <ele>2269.9</ele>
        <time>2020-08-31T06:35:59.685Z</time>
      </trkpt>
      <trkpt lat="42.50762" lon="2.45259">
        <ele>2270</ele>
        <time>2020-08-31T06:36:07.039Z</time>
      </trkpt>
      <trkpt lat="42.5076" lon="2.45264">
        <ele>2270.6</ele>
        <time>2020-08-31T06:36:27.969Z</time>
      </trkpt>
      <trkpt lat="42.50759" lon="2.45275">
        <ele>2272.5</ele>
        <time>2020-08-31T06:37:08.750Z</time>
      </trkpt>
      <trkpt lat="42.50759" lon="2.45279">
        <ele>2273</ele>
        <time>2020-08-31T06:37:23.467Z</time>
      </trkpt>
      <trkpt lat="42.50762" lon="2.45286">
        <ele>2273.8</ele>
        <time>2020-08-31T06:37:53.259Z</time>
      </trkpt>
      <trkpt lat="42.50765" lon="2.45289">
        <ele>2274.2</ele>
        <time>2020-08-31T06:38:06.765Z</time>
      </trkpt>
      <trkpt lat="42.50768" lon="2.45293">
        <ele>2274.7</ele>
        <time>2020-08-31T06:38:24.108Z</time>
      </trkpt>
      <trkpt lat="42.50773" lon="2.453">
        <ele>2275.2</ele>
        <time>2020-08-31T06:38:42.759Z</time>
      </trkpt>
      <trkpt lat="42.50775" lon="2.45306">
        <ele>2275.2</ele>
        <time>2020-08-31T06:38:49.041Z</time>
      </trkpt>
      <trkpt lat="42.50779" lon="2.45308">
        <ele>2275.8</ele>
        <time>2020-08-31T06:39:10.318Z</time>
      </trkpt>
      <trkpt lat="42.50782" lon="2.4531">
        <ele>2276.4</ele>
        <time>2020-08-31T06:39:27.002Z</time>
      </trkpt>
      <trkpt lat="42.50787" lon="2.4531">
        <ele>2277.4</ele>
        <time>2020-08-31T06:39:51.958Z</time>
      </trkpt>
      <trkpt lat="42.5079" lon="2.45313">
        <ele>2278.1</ele>
        <time>2020-08-31T06:40:10.561Z</time>
      </trkpt>
      <trkpt lat="42.50793" lon="2.45317">
        <ele>2278.6</ele>
        <time>2020-08-31T06:40:27.904Z</time>
      </trkpt>
      <trkpt lat="42.50794" lon="2.4532">
        <ele>2278.9</ele>
        <time>2020-08-31T06:40:38.511Z</time>
      </trkpt>
      <trkpt lat="42.50796" lon="2.45326">
        <ele>2279.4</ele>
        <time>2020-08-31T06:40:55.338Z</time>
      </trkpt>
      <trkpt lat="42.50798" lon="2.4533">
        <ele>2280</ele>
        <time>2020-08-31T06:41:13.121Z</time>
      </trkpt>
      <trkpt lat="42.50803" lon="2.45336">
        <ele>2280.6</ele>
        <time>2020-08-31T06:41:33.568Z</time>
      </trkpt>
      <trkpt lat="42.50806" lon="2.45341">
        <ele>2281.3</ele>
        <time>2020-08-31T06:41:57.289Z</time>
      </trkpt>
      <trkpt lat="42.5081" lon="2.45349">
        <ele>2281.8</ele>
        <time>2020-08-31T06:42:15.867Z</time>
      </trkpt>
      <trkpt lat="42.50815" lon="2.45356">
        <ele>2282.1</ele>
        <time>2020-08-31T06:42:30.923Z</time>
      </trkpt>
      <trkpt lat="42.50818" lon="2.45363">
        <ele>2282</ele>
        <time>2020-08-31T06:42:33.120Z</time>
      </trkpt>
      <trkpt lat="42.50822" lon="2.45369">
        <ele>2281.9</ele>
        <time>2020-08-31T06:42:35.315Z</time>
      </trkpt>
      <trkpt lat="42.50824" lon="2.45377">
        <ele>2281.7</ele>
        <time>2020-08-31T06:42:37.245Z</time>
      </trkpt>
      <trkpt lat="42.50827" lon="2.45386">
        <ele>2282</ele>
        <time>2020-08-31T06:42:52.379Z</time>
      </trkpt>
      <trkpt lat="42.50831" lon="2.45399">
        <ele>2283.1</ele>
        <time>2020-08-31T06:43:29.465Z</time>
      </trkpt>
      <trkpt lat="42.50828" lon="2.45399">
        <ele>2282.9</ele>
        <time>2020-08-31T06:43:30.151Z</time>
      </trkpt>
      <trkpt lat="42.50824" lon="2.45398">
        <ele>2282.4</ele>
        <time>2020-08-31T06:43:31.167Z</time>
      </trkpt>
      <trkpt lat="42.50821" lon="2.45398">
        <ele>2282.1</ele>
        <time>2020-08-31T06:43:31.917Z</time>
      </trkpt>
      <trkpt lat="42.50813" lon="2.45395">
        <ele>2281.1</ele>
        <time>2020-08-31T06:43:33.990Z</time>
      </trkpt>
      <trkpt lat="42.5081" lon="2.45392">
        <ele>2280.5</ele>
        <time>2020-08-31T06:43:34.921Z</time>
      </trkpt>
      <trkpt lat="42.50804" lon="2.45388">
        <ele>2279.7</ele>
        <time>2020-08-31T06:43:36.591Z</time>
      </trkpt>
      <trkpt lat="42.50799" lon="2.45388">
        <ele>2279.1</ele>
        <time>2020-08-31T06:43:37.840Z</time>
      </trkpt>
      <trkpt lat="42.50795" lon="2.45395">
        <ele>2278.5</ele>
        <time>2020-08-31T06:43:39.471Z</time>
      </trkpt>
      <trkpt lat="42.50792" lon="2.45398">
        <ele>2278.2</ele>
        <time>2020-08-31T06:43:40.402Z</time>
      </trkpt>
      <trkpt lat="42.5079" lon="2.45403">
        <ele>2277.8</ele>
        <time>2020-08-31T06:43:41.450Z</time>
      </trkpt>
      <trkpt lat="42.50788" lon="2.45406">
        <ele>2277.5</ele>
        <time>2020-08-31T06:43:42.195Z</time>
      </trkpt>
      <trkpt lat="42.50785" lon="2.45411">
        <ele>2277.1</ele>
        <time>2020-08-31T06:43:43.382Z</time>
      </trkpt>
      <trkpt lat="42.50783" lon="2.45417">
        <ele>2280.5</ele>
        <time>2020-08-31T06:44:07.610Z</time>
      </trkpt>
      <trkpt lat="42.5078" lon="2.45425">
        <ele>2280.2</ele>
        <time>2020-08-31T06:44:09.416Z</time>
      </trkpt>
      <trkpt lat="42.50776" lon="2.45436">
        <ele>2280.7</ele>
        <time>2020-08-31T06:44:30.611Z</time>
      </trkpt>
      <trkpt lat="42.50767" lon="2.45467">
        <ele>2283.3</ele>
        <time>2020-08-31T06:45:58.264Z</time>
      </trkpt>
      <trkpt lat="42.50764" lon="2.45478">
        <ele>2284.1</ele>
        <time>2020-08-31T06:46:25.384Z</time>
      </trkpt>
      <trkpt lat="42.5076" lon="2.45492">
        <ele>2285.1</ele>
        <time>2020-08-31T06:46:59.427Z</time>
      </trkpt>
      <trkpt lat="42.50757" lon="2.45502">
        <ele>2288.3</ele>
        <time>2020-08-31T06:47:39.152Z</time>
      </trkpt>
      <trkpt lat="42.50756" lon="2.45507">
        <ele>2288.8</ele>
        <time>2020-08-31T06:47:57.545Z</time>
      </trkpt>
      <trkpt lat="42.50747" lon="2.45518">
        <ele>2283.2</ele>
        <time>2020-08-31T06:48:00.571Z</time>
      </trkpt>
      <trkpt lat="42.50744" lon="2.45521">
        <ele>2282.8</ele>
        <time>2020-08-31T06:48:01.502Z</time>
      </trkpt>
      <trkpt lat="42.50741" lon="2.45523">
        <ele>2282.6</ele>
        <time>2020-08-31T06:48:02.309Z</time>
      </trkpt>
      <trkpt lat="42.50739" lon="2.45526">
        <ele>2282.4</ele>
        <time>2020-08-31T06:48:03.054Z</time>
      </trkpt>
      <trkpt lat="42.50737" lon="2.45533">
        <ele>2282.4</ele>
        <time>2020-08-31T06:48:10.215Z</time>
      </trkpt>
      <trkpt lat="42.50736" lon="2.45539">
        <ele>2282.6</ele>
        <time>2020-08-31T06:48:20.061Z</time>
      </trkpt>
      <trkpt lat="42.50737" lon="2.45546">
        <ele>2283.1</ele>
        <time>2020-08-31T06:48:36.946Z</time>
      </trkpt>
      <trkpt lat="42.50738" lon="2.4555">
        <ele>2283.7</ele>
        <time>2020-08-31T06:48:52.487Z</time>
      </trkpt>
      <trkpt lat="42.50739" lon="2.45558">
        <ele>2285</ele>
        <time>2020-08-31T06:49:22.343Z</time>
      </trkpt>
      <trkpt lat="42.5074" lon="2.45564">
        <ele>2286.2</ele>
        <time>2020-08-31T06:49:44.976Z</time>
      </trkpt>
      <trkpt lat="42.50742" lon="2.45573">
        <ele>2288.6</ele>
        <time>2020-08-31T06:50:19.563Z</time>
      </trkpt>
      <trkpt lat="42.50744" lon="2.4558">
        <ele>2291.4</ele>
        <time>2020-08-31T06:50:47.186Z</time>
      </trkpt>
      <trkpt lat="42.50747" lon="2.4559">
        <ele>2293.4</ele>
        <time>2020-08-31T06:51:26.910Z</time>
      </trkpt>
      <trkpt lat="42.5075" lon="2.45608">
        <ele>2301</ele>
        <time>2020-08-31T06:52:34.811Z</time>
      </trkpt>
      <trkpt lat="42.50751" lon="2.45626">
        <ele>2303</ele>
        <time>2020-08-31T06:53:41.229Z</time>
      </trkpt>
      <trkpt lat="42.50751" lon="2.45641">
        <ele>2303.7</ele>
        <time>2020-08-31T06:54:08.638Z</time>
      </trkpt>
      <trkpt lat="42.50752" lon="2.45657">
        <ele>2303.6</ele>
        <time>2020-08-31T06:54:13.486Z</time>
      </trkpt>
      <trkpt lat="42.50753" lon="2.45671">
        <ele>2304.5</ele>
        <time>2020-08-31T06:54:44.401Z</time>
      </trkpt>
      <trkpt lat="42.50754" lon="2.4568">
        <ele>2306.5</ele>
        <time>2020-08-31T06:55:17.890Z</time>
      </trkpt>
      <trkpt lat="42.50756" lon="2.45688">
        <ele>2307.7</ele>
        <time>2020-08-31T06:55:48.972Z</time>
      </trkpt>
      <trkpt lat="42.50758" lon="2.45689">
        <ele>2308</ele>
        <time>2020-08-31T06:55:59.611Z</time>
      </trkpt>
      <trkpt lat="42.50759" lon="2.45688">
        <ele>2307.9</ele>
        <time>2020-08-31T06:55:59.921Z</time>
      </trkpt>
      <trkpt lat="42.5076" lon="2.45685">
        <ele>2307.6</ele>
        <time>2020-08-31T06:56:00.527Z</time>
      </trkpt>
      <trkpt lat="42.50762" lon="2.45679">
        <ele>2307.2</ele>
        <time>2020-08-31T06:56:01.740Z</time>
      </trkpt>
      <trkpt lat="42.50764" lon="2.45674">
        <ele>2307.1</ele>
        <time>2020-08-31T06:56:03.161Z</time>
      </trkpt>
      <trkpt lat="42.50767" lon="2.45666">
        <ele>2304.5</ele>
        <time>2020-08-31T06:56:04.814Z</time>
      </trkpt>
      <trkpt lat="42.50776" lon="2.45655">
        <ele>2305.2</ele>
        <time>2020-08-31T06:56:33.697Z</time>
      </trkpt>
      <trkpt lat="42.50781" lon="2.45652">
        <ele>2305.6</ele>
        <time>2020-08-31T06:56:48.280Z</time>
      </trkpt>
      <trkpt lat="42.50785" lon="2.45649">
        <ele>2305.9</ele>
        <time>2020-08-31T06:56:59.803Z</time>
      </trkpt>
      <trkpt lat="42.5079" lon="2.45647">
        <ele>2306.2</ele>
        <time>2020-08-31T06:57:12.211Z</time>
      </trkpt>
      <trkpt lat="42.50795" lon="2.45645">
        <ele>2306.6</ele>
        <time>2020-08-31T06:57:26.511Z</time>
      </trkpt>
      <trkpt lat="42.50799" lon="2.45645">
        <ele>2307.1</ele>
        <time>2020-08-31T06:57:44.306Z</time>
      </trkpt>
      <trkpt lat="42.50806" lon="2.45646">
        <ele>2307.9</ele>
        <time>2020-08-31T06:58:11.628Z</time>
      </trkpt>
      <trkpt lat="42.50817" lon="2.45653">
        <ele>2310.2</ele>
        <time>2020-08-31T06:59:12.272Z</time>
      </trkpt>
      <trkpt lat="42.50827" lon="2.45659">
        <ele>2313.2</ele>
        <time>2020-08-31T07:00:06.848Z</time>
      </trkpt>
      <trkpt lat="42.50833" lon="2.45663">
        <ele>2315.2</ele>
        <time>2020-08-31T07:00:40.216Z</time>
      </trkpt>
      <trkpt lat="42.50836" lon="2.45667">
        <ele>2316.8</ele>
        <time>2020-08-31T07:01:01.211Z</time>
      </trkpt>
      <trkpt lat="42.50838" lon="2.45672">
        <ele>2318.3</ele>
        <time>2020-08-31T07:01:22.142Z</time>
      </trkpt>
      <trkpt lat="42.50841" lon="2.45677">
        <ele>2319</ele>
        <time>2020-08-31T07:01:45.862Z</time>
      </trkpt>
      <trkpt lat="42.50843" lon="2.45683">
        <ele>2319.6</ele>
        <time>2020-08-31T07:02:07.076Z</time>
      </trkpt>
      <trkpt lat="42.50845" lon="2.45687">
        <ele>2320.1</ele>
        <time>2020-08-31T07:02:24.859Z</time>
      </trkpt>
      <trkpt lat="42.50851" lon="2.45692">
        <ele>2320.6</ele>
        <time>2020-08-31T07:02:43.335Z</time>
      </trkpt>
      <trkpt lat="42.50855" lon="2.45694">
        <ele>2320.9</ele>
        <time>2020-08-31T07:02:54.467Z</time>
      </trkpt>
      <trkpt lat="42.50861" lon="2.45695">
        <ele>2321.2</ele>
        <time>2020-08-31T07:03:08.111Z</time>
      </trkpt>
      <trkpt lat="42.50866" lon="2.45696">
        <ele>2321.4</ele>
        <time>2020-08-31T07:03:18.370Z</time>
      </trkpt>
      <trkpt lat="42.50888" lon="2.45721">
        <ele>2323.4</ele>
        <time>2020-08-31T07:04:32.923Z</time>
      </trkpt>
      <trkpt lat="42.50896" lon="2.45735">
        <ele>2324.9</ele>
        <time>2020-08-31T07:05:24.311Z</time>
      </trkpt>
      <trkpt lat="42.50907" lon="2.45755">
        <ele>2330.2</ele>
        <time>2020-08-31T07:06:56.122Z</time>
      </trkpt>
      <trkpt lat="42.5091" lon="2.45761">
        <ele>2330.4</ele>
        <time>2020-08-31T07:07:06.645Z</time>
      </trkpt>
      <trkpt lat="42.50922" lon="2.45784">
        <ele>2338</ele>
        <time>2020-08-31T07:08:50.320Z</time>
      </trkpt>
      <trkpt lat="42.50924" lon="2.45784">
        <ele>2338</ele>
        <time>2020-08-31T07:08:52.908Z</time>
      </trkpt>
      <trkpt lat="42.50925" lon="2.45785">
        <ele>2338.1</ele>
        <time>2020-08-31T07:08:56.421Z</time>
      </trkpt>
      <trkpt lat="42.50926" lon="2.45787">
        <ele>2338.4</ele>
        <time>2020-08-31T07:09:05.313Z</time>
      </trkpt>
      <trkpt lat="42.50927" lon="2.45789">
        <ele>2338.8</ele>
        <time>2020-08-31T07:09:14.204Z</time>
      </trkpt>
      <trkpt lat="42.50928" lon="2.45792">
        <ele>2339.1</ele>
        <time>2020-08-31T07:09:24.812Z</time>
      </trkpt>
      <trkpt lat="42.50928" lon="2.45796">
        <ele>2339.5</ele>
        <time>2020-08-31T07:09:39.529Z</time>
      </trkpt>
      <trkpt lat="42.50928" lon="2.45799">
        <ele>2339.8</ele>
        <time>2020-08-31T07:09:50.567Z</time>
      </trkpt>
      <trkpt lat="42.50929" lon="2.458">
        <ele>2339.9</ele>
        <time>2020-08-31T07:09:54.080Z</time>
      </trkpt>
      <trkpt lat="42.50931" lon="2.45802">
        <ele>2340.1</ele>
        <time>2020-08-31T07:10:01.105Z</time>
      </trkpt>
      <trkpt lat="42.50934" lon="2.45803">
        <ele>2340.2</ele>
        <time>2020-08-31T07:10:06.788Z</time>
      </trkpt>
      <trkpt lat="42.50937" lon="2.45804">
        <ele>2340.4</ele>
        <time>2020-08-31T07:10:14.525Z</time>
      </trkpt>
      <trkpt lat="42.50939" lon="2.45807">
        <ele>2340.7</ele>
        <time>2020-08-31T07:10:24.619Z</time>
      </trkpt>
      <trkpt lat="42.50939" lon="2.45814">
        <ele>2341.2</ele>
        <time>2020-08-31T07:10:41.473Z</time>
      </trkpt>
      <trkpt lat="42.5094" lon="2.45821">
        <ele>2341.6</ele>
        <time>2020-08-31T07:10:55.819Z</time>
      </trkpt>
      <trkpt lat="42.50941" lon="2.45825">
        <ele>2341.7</ele>
        <time>2020-08-31T07:11:01.528Z</time>
      </trkpt>
      <trkpt lat="42.50944" lon="2.45828">
        <ele>2341.9</ele>
        <time>2020-08-31T07:11:10.168Z</time>
      </trkpt>
      <trkpt lat="42.50945" lon="2.45828">
        <ele>2341.9</ele>
        <time>2020-08-31T07:11:11.462Z</time>
      </trkpt>
      <trkpt lat="42.50948" lon="2.45828">
        <ele>2342</ele>
        <time>2020-08-31T07:11:17.050Z</time>
      </trkpt>
      <trkpt lat="42.5095" lon="2.45828">
        <ele>2342</ele>
        <time>2020-08-31T07:11:19.638Z</time>
      </trkpt>
      <trkpt lat="42.50953" lon="2.45826">
        <ele>2342.1</ele>
        <time>2020-08-31T07:11:25.596Z</time>
      </trkpt>
      <trkpt lat="42.50956" lon="2.45826">
        <ele>2342.3</ele>
        <time>2020-08-31T07:11:33.216Z</time>
      </trkpt>
      <trkpt lat="42.50959" lon="2.45827">
        <ele>2342.5</ele>
        <time>2020-08-31T07:11:40.953Z</time>
      </trkpt>
      <trkpt lat="42.50961" lon="2.45828">
        <ele>2342.6</ele>
        <time>2020-08-31T07:11:45.681Z</time>
      </trkpt>
      <trkpt lat="42.50962" lon="2.45827">
        <ele>2342.7</ele>
        <time>2020-08-31T07:11:49.194Z</time>
      </trkpt>
      <trkpt lat="42.50963" lon="2.45826">
        <ele>2342.7</ele>
        <time>2020-08-31T07:11:50.801Z</time>
      </trkpt>
      <trkpt lat="42.50966" lon="2.45819">
        <ele>2342.7</ele>
        <time>2020-08-31T07:11:58.525Z</time>
      </trkpt>
      <trkpt lat="42.50969" lon="2.45819">
        <ele>2342.8</ele>
        <time>2020-08-31T07:12:04.113Z</time>
      </trkpt>
      <trkpt lat="42.50971" lon="2.45819">
        <ele>2343</ele>
        <time>2020-08-31T07:12:10.843Z</time>
      </trkpt>
      <trkpt lat="42.50972" lon="2.45821">
        <ele>2343.3</ele>
        <time>2020-08-31T07:12:19.735Z</time>
      </trkpt>
      <trkpt lat="42.50974" lon="2.45823">
        <ele>2343.6</ele>
        <time>2020-08-31T07:12:30.214Z</time>
      </trkpt>
      <trkpt lat="42.50976" lon="2.45827">
        <ele>2344.1</ele>
        <time>2020-08-31T07:12:47.997Z</time>
      </trkpt>
      <trkpt lat="42.50979" lon="2.45831">
        <ele>2344.7</ele>
        <time>2020-08-31T07:13:08.992Z</time>
      </trkpt>
      <trkpt lat="42.50984" lon="2.45842">
        <ele>2352.9</ele>
        <time>2020-08-31T07:13:56.540Z</time>
      </trkpt>
      <trkpt lat="42.50987" lon="2.45846">
        <ele>2353.2</ele>
        <time>2020-08-31T07:14:07.603Z</time>
      </trkpt>
      <trkpt lat="42.50991" lon="2.45851">
        <ele>2353.6</ele>
        <time>2020-08-31T07:14:22.154Z</time>
      </trkpt>
      <trkpt lat="42.50995" lon="2.45856">
        <ele>2354.3</ele>
        <time>2020-08-31T07:14:47.562Z</time>
      </trkpt>
      <trkpt lat="42.50999" lon="2.4586">
        <ele>2354.9</ele>
        <time>2020-08-31T07:15:08.520Z</time>
      </trkpt>
      <trkpt lat="42.51003" lon="2.45864">
        <ele>2359.9</ele>
        <time>2020-08-31T07:15:33.322Z</time>
      </trkpt>
      <trkpt lat="42.51007" lon="2.45869">
        <ele>2360.8</ele>
        <time>2020-08-31T07:16:00.470Z</time>
      </trkpt>
      <trkpt lat="42.51015" lon="2.45876">
        <ele>2362.4</ele>
        <time>2020-08-31T07:16:47.985Z</time>
      </trkpt>
      <trkpt lat="42.51019" lon="2.4588">
        <ele>2362.9</ele>
        <time>2020-08-31T07:17:04.809Z</time>
      </trkpt>
      <trkpt lat="42.51022" lon="2.45883">
        <ele>2363.4</ele>
        <time>2020-08-31T07:17:23.411Z</time>
      </trkpt>
      <trkpt lat="42.51025" lon="2.45886">
        <ele>2363.8</ele>
        <time>2020-08-31T07:17:36.916Z</time>
      </trkpt>
      <trkpt lat="42.51028" lon="2.4589">
        <ele>2364.2</ele>
        <time>2020-08-31T07:17:50.425Z</time>
      </trkpt>
      <trkpt lat="42.51031" lon="2.45891">
        <ele>2364.4</ele>
        <time>2020-08-31T07:17:58.162Z</time>
      </trkpt>
      <trkpt lat="42.51035" lon="2.45893">
        <ele>2364.6</ele>
        <time>2020-08-31T07:18:07.617Z</time>
      </trkpt>
      <trkpt lat="42.51038" lon="2.45894">
        <ele>2364.7</ele>
        <time>2020-08-31T07:18:13.299Z</time>
      </trkpt>
      <trkpt lat="42.51042" lon="2.45894">
        <ele>2364.8</ele>
        <time>2020-08-31T07:18:20.012Z</time>
      </trkpt>
      <trkpt lat="42.51044" lon="2.45895">
        <ele>2365</ele>
        <time>2020-08-31T07:18:26.778Z</time>
      </trkpt>
      <trkpt lat="42.51048" lon="2.45895">
        <ele>2365.2</ele>
        <time>2020-08-31T07:18:35.829Z</time>
      </trkpt>
      <trkpt lat="42.51053" lon="2.45895">
        <ele>2365.4</ele>
        <time>2020-08-31T07:18:46.040Z</time>
      </trkpt>
      <trkpt lat="42.51057" lon="2.45895">
        <ele>2365.7</ele>
        <time>2020-08-31T07:18:56.864Z</time>
      </trkpt>
      <trkpt lat="42.51061" lon="2.45895">
        <ele>2366</ele>
        <time>2020-08-31T07:19:07.687Z</time>
      </trkpt>
      <trkpt lat="42.51065" lon="2.45896">
        <ele>2366.3</ele>
        <time>2020-08-31T07:19:18.587Z</time>
      </trkpt>
      <trkpt lat="42.51068" lon="2.45897">
        <ele>2366.7</ele>
        <time>2020-08-31T07:19:33.173Z</time>
      </trkpt>
      <trkpt lat="42.5107" lon="2.45897">
        <ele>2366.9</ele>
        <time>2020-08-31T07:19:39.903Z</time>
      </trkpt>
      <trkpt lat="42.51073" lon="2.45895">
        <ele>2366.8</ele>
        <time>2020-08-31T07:19:40.963Z</time>
      </trkpt>
      <trkpt lat="42.51076" lon="2.45894">
        <ele>2366.9</ele>
        <time>2020-08-31T07:19:46.645Z</time>
      </trkpt>
      <trkpt lat="42.51078" lon="2.45894">
        <ele>2366.9</ele>
        <time>2020-08-31T07:19:49.233Z</time>
      </trkpt>
      <trkpt lat="42.51082" lon="2.45895">
        <ele>2367.3</ele>
        <time>2020-08-31T07:20:02.703Z</time>
      </trkpt>
      <trkpt lat="42.51085" lon="2.45897">
        <ele>2373.3</ele>
        <time>2020-08-31T07:20:19.387Z</time>
      </trkpt>
      <trkpt lat="42.5109" lon="2.45901">
        <ele>2373.6</ele>
        <time>2020-08-31T07:20:32.667Z</time>
      </trkpt>
      <trkpt lat="42.51093" lon="2.45903">
        <ele>2373.8</ele>
        <time>2020-08-31T07:20:40.751Z</time>
      </trkpt>
      <trkpt lat="42.51097" lon="2.45905">
        <ele>2374</ele>
        <time>2020-08-31T07:20:50.206Z</time>
      </trkpt>
      <trkpt lat="42.51101" lon="2.45907">
        <ele>2374.4</ele>
        <time>2020-08-31T07:21:03.737Z</time>
      </trkpt>
      <trkpt lat="42.51104" lon="2.45908">
        <ele>2374.7</ele>
        <time>2020-08-31T07:21:13.848Z</time>
      </trkpt>
      <trkpt lat="42.51107" lon="2.45908">
        <ele>2375</ele>
        <time>2020-08-31T07:21:23.943Z</time>
      </trkpt>
      <trkpt lat="42.51112" lon="2.45907">
        <ele>2375.4</ele>
        <time>2020-08-31T07:21:38.078Z</time>
      </trkpt>
      <trkpt lat="42.51113" lon="2.45905">
        <ele>2375.5</ele>
        <time>2020-08-31T07:21:42.277Z</time>
      </trkpt>
      <trkpt lat="42.51116" lon="2.45903">
        <ele>2375.7</ele>
        <time>2020-08-31T07:21:50.362Z</time>
      </trkpt>
      <trkpt lat="42.51117" lon="2.459">
        <ele>2375.7</ele>
        <time>2020-08-31T07:21:53.502Z</time>
      </trkpt>
      <trkpt lat="42.51118" lon="2.45895">
        <ele>2375.6</ele>
        <time>2020-08-31T07:21:54.763Z</time>
      </trkpt>
      <trkpt lat="42.51119" lon="2.45889">
        <ele>2375.4</ele>
        <time>2020-08-31T07:21:56.015Z</time>
      </trkpt>
      <trkpt lat="42.5112" lon="2.45884">
        <ele>2375.1</ele>
        <time>2020-08-31T07:21:56.969Z</time>
      </trkpt>
      <trkpt lat="42.5112" lon="2.45876">
        <ele>2374.5</ele>
        <time>2020-08-31T07:21:58.442Z</time>
      </trkpt>
      <trkpt lat="42.51121" lon="2.4587">
        <ele>2374.1</ele>
        <time>2020-08-31T07:21:59.574Z</time>
      </trkpt>
      <trkpt lat="42.51128" lon="2.45863">
        <ele>2374.4</ele>
        <time>2020-08-31T07:22:16.026Z</time>
      </trkpt>
      <trkpt lat="42.51132" lon="2.4586">
        <ele>2374.7</ele>
        <time>2020-08-31T07:22:27.548Z</time>
      </trkpt>
      <trkpt lat="42.51138" lon="2.45857">
        <ele>2375.1</ele>
        <time>2020-08-31T07:22:43.313Z</time>
      </trkpt>
      <trkpt lat="42.51141" lon="2.45855">
        <ele>2375.4</ele>
        <time>2020-08-31T07:22:53.540Z</time>
      </trkpt>
      <trkpt lat="42.51145" lon="2.45855">
        <ele>2375.8</ele>
        <time>2020-08-31T07:23:07.000Z</time>
      </trkpt>
      <trkpt lat="42.5115" lon="2.45856">
        <ele>2376.2</ele>
        <time>2020-08-31T07:23:21.135Z</time>
      </trkpt>
      <trkpt lat="42.51154" lon="2.45857">
        <ele>2376.5</ele>
        <time>2020-08-31T07:23:32.034Z</time>
      </trkpt>
      <trkpt lat="42.51157" lon="2.45858">
        <ele>2376.8</ele>
        <time>2020-08-31T07:23:42.145Z</time>
      </trkpt>
      <trkpt lat="42.5116" lon="2.45861">
        <ele>2377</ele>
        <time>2020-08-31T07:23:50.785Z</time>
      </trkpt>
      <trkpt lat="42.51162" lon="2.45862">
        <ele>2377.2</ele>
        <time>2020-08-31T07:23:57.551Z</time>
      </trkpt>
      <trkpt lat="42.51164" lon="2.45864">
        <ele>2377.4</ele>
        <time>2020-08-31T07:24:04.577Z</time>
      </trkpt>
      <trkpt lat="42.51166" lon="2.45867">
        <ele>2377.7</ele>
        <time>2020-08-31T07:24:14.671Z</time>
      </trkpt>
      <trkpt lat="42.51169" lon="2.4587">
        <ele>2390</ele>
        <time>2020-08-31T07:24:33.273Z</time>
      </trkpt>
      <trkpt lat="42.51171" lon="2.45874">
        <ele>2390.6</ele>
        <time>2020-08-31T07:24:51.056Z</time>
      </trkpt>
      <trkpt lat="42.51173" lon="2.45877">
        <ele>2391.1</ele>
        <time>2020-08-31T07:25:05.938Z</time>
      </trkpt>
      <trkpt lat="42.51176" lon="2.4588">
        <ele>2391.5</ele>
        <time>2020-08-31T07:25:19.443Z</time>
      </trkpt>
      <trkpt lat="42.5118" lon="2.45883">
        <ele>2392</ele>
        <time>2020-08-31T07:25:36.373Z</time>
      </trkpt>
      <trkpt lat="42.51183" lon="2.45887">
        <ele>2392.5</ele>
        <time>2020-08-31T07:25:53.717Z</time>
      </trkpt>
      <trkpt lat="42.51187" lon="2.45888">
        <ele>2392.9</ele>
        <time>2020-08-31T07:26:07.186Z</time>
      </trkpt>
      <trkpt lat="42.5119" lon="2.4589">
        <ele>2393.3</ele>
        <time>2020-08-31T07:26:21.101Z</time>
      </trkpt>
      <trkpt lat="42.51194" lon="2.4589">
        <ele>2393.7</ele>
        <time>2020-08-31T07:26:34.561Z</time>
      </trkpt>
      <trkpt lat="42.51198" lon="2.45892">
        <ele>2394.3</ele>
        <time>2020-08-31T07:26:55.838Z</time>
      </trkpt>
      <trkpt lat="42.512" lon="2.45893">
        <ele>2394.7</ele>
        <time>2020-08-31T07:27:06.477Z</time>
      </trkpt>
      <trkpt lat="42.51203" lon="2.45894">
        <ele>2395.1</ele>
        <time>2020-08-31T07:27:21.063Z</time>
      </trkpt>
      <trkpt lat="42.51206" lon="2.45894">
        <ele>2395.6</ele>
        <time>2020-08-31T07:27:36.036Z</time>
      </trkpt>
      <trkpt lat="42.51209" lon="2.45894">
        <ele>2396</ele>
        <time>2020-08-31T07:27:50.988Z</time>
      </trkpt>
      <trkpt lat="42.51212" lon="2.45894">
        <ele>2396.6</ele>
        <time>2020-08-31T07:28:05.962Z</time>
      </trkpt>
      <trkpt lat="42.51216" lon="2.45894">
        <ele>2397.1</ele>
        <time>2020-08-31T07:28:23.757Z</time>
      </trkpt>
      <trkpt lat="42.5122" lon="2.45893">
        <ele>2397.7</ele>
        <time>2020-08-31T07:28:44.058Z</time>
      </trkpt>
      <trkpt lat="42.51224" lon="2.45892">
        <ele>2398.3</ele>
        <time>2020-08-31T07:29:04.359Z</time>
      </trkpt>
      <trkpt lat="42.51228" lon="2.4589">
        <ele>2398.6</ele>
        <time>2020-08-31T07:29:15.490Z</time>
      </trkpt>
      <trkpt lat="42.51231" lon="2.45886">
        <ele>2398.5</ele>
        <time>2020-08-31T07:29:16.916Z</time>
      </trkpt>
      <trkpt lat="42.51237" lon="2.45875">
        <ele>2397.7</ele>
        <time>2020-08-31T07:29:19.436Z</time>
      </trkpt>
      <trkpt lat="42.51241" lon="2.45871">
        <ele>2397.5</ele>
        <time>2020-08-31T07:29:20.858Z</time>
      </trkpt>
      <trkpt lat="42.51243" lon="2.45871">
        <ele>2397.7</ele>
        <time>2020-08-31T07:29:27.588Z</time>
      </trkpt>
      <trkpt lat="42.51243" lon="2.45875">
        <ele>2398.2</ele>
        <time>2020-08-31T07:29:42.305Z</time>
      </trkpt>
      <trkpt lat="42.51242" lon="2.4588">
        <ele>2398.6</ele>
        <time>2020-08-31T07:29:55.778Z</time>
      </trkpt>
      <trkpt lat="42.5124" lon="2.45884">
        <ele>2399.3</ele>
        <time>2020-08-31T07:30:13.561Z</time>
      </trkpt>
      <trkpt lat="42.51239" lon="2.45891">
        <ele>2400.4</ele>
        <time>2020-08-31T07:30:39.794Z</time>
      </trkpt>
      <trkpt lat="42.51238" lon="2.45898">
        <ele>2401.7</ele>
        <time>2020-08-31T07:31:06.027Z</time>
      </trkpt>
      <trkpt lat="42.51236" lon="2.45902">
        <ele>2402.1</ele>
        <time>2020-08-31T07:31:19.644Z</time>
      </trkpt>
      <trkpt lat="42.51233" lon="2.45905">
        <ele>2402.1</ele>
        <time>2020-08-31T07:31:24.467Z</time>
      </trkpt>
      <trkpt lat="42.51227" lon="2.45914">
        <ele>2401.4</ele>
        <time>2020-08-31T07:31:26.702Z</time>
      </trkpt>
      <trkpt lat="42.51223" lon="2.45919">
        <ele>2410.3</ele>
        <time>2020-08-31T07:31:53.849Z</time>
      </trkpt>
      <trkpt lat="42.51219" lon="2.45927">
        <ele>2410.1</ele>
        <time>2020-08-31T07:31:56.154Z</time>
      </trkpt>
      <trkpt lat="42.51215" lon="2.45932">
        <ele>2409.9</ele>
        <time>2020-08-31T07:31:57.763Z</time>
      </trkpt>
      <trkpt lat="42.51212" lon="2.45937">
        <ele>2410</ele>
        <time>2020-08-31T07:32:05.381Z</time>
      </trkpt>
      <trkpt lat="42.5121" lon="2.45942">
        <ele>2410.2</ele>
        <time>2020-08-31T07:32:14.728Z</time>
      </trkpt>
      <trkpt lat="42.5121" lon="2.45946">
        <ele>2410.6</ele>
        <time>2020-08-31T07:32:29.445Z</time>
      </trkpt>
      <trkpt lat="42.5121" lon="2.45951">
        <ele>2411.2</ele>
        <time>2020-08-31T07:32:47.840Z</time>
      </trkpt>
      <trkpt lat="42.51208" lon="2.45954">
        <ele>2411.4</ele>
        <time>2020-08-31T07:32:55.437Z</time>
      </trkpt>
      <trkpt lat="42.51205" lon="2.45958">
        <ele>2411.6</ele>
        <time>2020-08-31T07:33:04.804Z</time>
      </trkpt>
      <trkpt lat="42.51202" lon="2.45961">
        <ele>2411.5</ele>
        <time>2020-08-31T07:33:06.026Z</time>
      </trkpt>
      <trkpt lat="42.51199" lon="2.45965">
        <ele>2411.7</ele>
        <time>2020-08-31T07:33:15.393Z</time>
      </trkpt>
      <trkpt lat="42.51195" lon="2.45972">
        <ele>2412.1</ele>
        <time>2020-08-31T07:33:31.342Z</time>
      </trkpt>
      <trkpt lat="42.51192" lon="2.4598">
        <ele>2412.5</ele>
        <time>2020-08-31T07:33:47.414Z</time>
      </trkpt>
      <trkpt lat="42.51189" lon="2.45992">
        <ele>2412.9</ele>
        <time>2020-08-31T07:34:07.302Z</time>
      </trkpt>
      <trkpt lat="42.51186" lon="2.45999">
        <ele>2413</ele>
        <time>2020-08-31T07:34:16.425Z</time>
      </trkpt>
      <trkpt lat="42.51182" lon="2.46007">
        <ele>2425.6</ele>
        <time>2020-08-31T07:34:51.991Z</time>
      </trkpt>
      <trkpt lat="42.51176" lon="2.46018">
        <ele>2427.7</ele>
        <time>2020-08-31T07:35:42.337Z</time>
      </trkpt>
      <trkpt lat="42.51174" lon="2.46025">
        <ele>2430.2</ele>
        <time>2020-08-31T07:36:09.958Z</time>
      </trkpt>
      <trkpt lat="42.51171" lon="2.46029">
        <ele>2431.7</ele>
        <time>2020-08-31T07:36:30.953Z</time>
      </trkpt>
      <trkpt lat="42.51166" lon="2.46038">
        <ele>2421.9</ele>
        <time>2020-08-31T07:36:33.028Z</time>
      </trkpt>
      <trkpt lat="42.51163" lon="2.46042">
        <ele>2422.9</ele>
        <time>2020-08-31T07:36:54.023Z</time>
      </trkpt>
      <trkpt lat="42.51166" lon="2.46043">
        <ele>2423.3</ele>
        <time>2020-08-31T07:37:08.609Z</time>
      </trkpt>
      <trkpt lat="42.51171" lon="2.46041">
        <ele>2435.4</ele>
        <time>2020-08-31T07:37:34.627Z</time>
      </trkpt>
      <trkpt lat="42.51177" lon="2.46035">
        <ele>2434.3</ele>
        <time>2020-08-31T07:37:36.489Z</time>
      </trkpt>
      <trkpt lat="42.51182" lon="2.46031">
        <ele>2433.8</ele>
        <time>2020-08-31T07:37:37.939Z</time>
      </trkpt>
      <trkpt lat="42.51187" lon="2.4603">
        <ele>2434.3</ele>
        <time>2020-08-31T07:37:54.770Z</time>
      </trkpt>
      <trkpt lat="42.51191" lon="2.46028">
        <ele>2434.4</ele>
        <time>2020-08-31T07:38:01.796Z</time>
      </trkpt>
      <trkpt lat="42.51195" lon="2.46022">
        <ele>2434.2</ele>
        <time>2020-08-31T07:38:03.619Z</time>
      </trkpt>
      <trkpt lat="42.51198" lon="2.4602">
        <ele>2434.4</ele>
        <time>2020-08-31T07:38:11.703Z</time>
      </trkpt>
      <trkpt lat="42.51203" lon="2.4602">
        <ele>2435.4</ele>
        <time>2020-08-31T07:38:36.658Z</time>
      </trkpt>
      <trkpt lat="42.51206" lon="2.46021">
        <ele>2436.1</ele>
        <time>2020-08-31T07:38:52.077Z</time>
      </trkpt>
      <trkpt lat="42.51209" lon="2.46019">
        <ele>2436.4</ele>
        <time>2020-08-31T07:39:02.304Z</time>
      </trkpt>
      <trkpt lat="42.51217" lon="2.46014">
        <ele>2436.9</ele>
        <time>2020-08-31T07:39:23.158Z</time>
      </trkpt>
      <trkpt lat="42.51226" lon="2.46007">
        <ele>2436.8</ele>
        <time>2020-08-31T07:39:27.340Z</time>
      </trkpt>
      <trkpt lat="42.51231" lon="2.46002">
        <ele>2436.5</ele>
        <time>2020-08-31T07:39:28.991Z</time>
      </trkpt>
      <trkpt lat="42.51236" lon="2.45998">
        <ele>2424.8</ele>
        <time>2020-08-31T07:39:30.441Z</time>
      </trkpt>
      <trkpt lat="42.51245" lon="2.45994">
        <ele>2428.4</ele>
        <time>2020-08-31T07:40:17.711Z</time>
      </trkpt>
      <trkpt lat="42.51254" lon="2.45991">
        <ele>2435.9</ele>
        <time>2020-08-31T07:41:03.967Z</time>
      </trkpt>
      <trkpt lat="42.51259" lon="2.4599">
        <ele>2436.5</ele>
        <time>2020-08-31T07:41:24.768Z</time>
      </trkpt>
      <trkpt lat="42.51264" lon="2.45991">
        <ele>2437.3</ele>
        <time>2020-08-31T07:41:49.994Z</time>
      </trkpt>
      <trkpt lat="42.51268" lon="2.45989">
        <ele>2438.2</ele>
        <time>2020-08-31T07:42:11.271Z</time>
      </trkpt>
      <trkpt lat="42.51274" lon="2.45988">
        <ele>2439.3</ele>
        <time>2020-08-31T07:42:41.443Z</time>
      </trkpt>
      <trkpt lat="42.51279" lon="2.45987">
        <ele>2440.5</ele>
        <time>2020-08-31T07:43:06.669Z</time>
      </trkpt>
      <trkpt lat="42.51281" lon="2.45988">
        <ele>2441</ele>
        <time>2020-08-31T07:43:17.307Z</time>
      </trkpt>
      <trkpt lat="42.51277" lon="2.45992">
        <ele>2440.2</ele>
        <time>2020-08-31T07:43:18.549Z</time>
      </trkpt>
      <trkpt lat="42.51266" lon="2.46003">
        <ele>2453.2</ele>
        <time>2020-08-31T07:44:26.755Z</time>
      </trkpt>
      <trkpt lat="42.51262" lon="2.46006">
        <ele>2450.6</ele>
        <time>2020-08-31T07:44:27.897Z</time>
      </trkpt>
      <trkpt lat="42.51259" lon="2.46012">
        <ele>2452.5</ele>
        <time>2020-08-31T07:44:54.571Z</time>
      </trkpt>
      <trkpt lat="42.51257" lon="2.46017">
        <ele>2455.5</ele>
        <time>2020-08-31T07:45:15.501Z</time>
      </trkpt>
      <trkpt lat="42.51258" lon="2.4602">
        <ele>2457.2</ele>
        <time>2020-08-31T07:45:27.614Z</time>
      </trkpt>
      <trkpt lat="42.51257" lon="2.46023">
        <ele>2459.2</ele>
        <time>2020-08-31T07:45:39.728Z</time>
      </trkpt>
      <trkpt lat="42.51256" lon="2.46026">
        <ele>2460.4</ele>
        <time>2020-08-31T07:45:51.841Z</time>
      </trkpt>
      <trkpt lat="42.51259" lon="2.46025">
        <ele>2460.5</ele>
        <time>2020-08-31T07:45:57.523Z</time>
      </trkpt>
      <trkpt lat="42.51267" lon="2.46021">
        <ele>2460.7</ele>
        <time>2020-08-31T07:46:11.575Z</time>
      </trkpt>
      <trkpt lat="42.51274" lon="2.46017">
        <ele>2462.3</ele>
        <time>2020-08-31T07:46:49.486Z</time>
      </trkpt>
      <trkpt lat="42.5128" lon="2.46015">
        <ele>2464.5</ele>
        <time>2020-08-31T07:47:20.324Z</time>
      </trkpt>
      <trkpt lat="42.51287" lon="2.46014">
        <ele>2466.8</ele>
        <time>2020-08-31T07:47:55.455Z</time>
      </trkpt>
      <trkpt lat="42.51299" lon="2.46012">
        <ele>2470.4</ele>
        <time>2020-08-31T07:48:55.800Z</time>
      </trkpt>
      <trkpt lat="42.51306" lon="2.4601">
        <ele>2471.7</ele>
        <time>2020-08-31T07:49:31.504Z</time>
      </trkpt>
      <trkpt lat="42.51313" lon="2.46011">
        <ele>2472.7</ele>
        <time>2020-08-31T07:50:06.635Z</time>
      </trkpt>
      <trkpt lat="42.51312" lon="2.46013">
        <ele>2472.9</ele>
        <time>2020-08-31T07:50:13.444Z</time>
      </trkpt>
      <trkpt lat="42.51307" lon="2.46017">
        <ele>2472.8</ele>
        <time>2020-08-31T07:50:15.568Z</time>
      </trkpt>
      <trkpt lat="42.513" lon="2.46025">
        <ele>2472.9</ele>
        <time>2020-08-31T07:50:28.729Z</time>
      </trkpt>
      <trkpt lat="42.51288" lon="2.46041">
        <ele>2474</ele>
        <time>2020-08-31T07:51:11.065Z</time>
      </trkpt>
      <trkpt lat="42.51279" lon="2.46053">
        <ele>2474.8</ele>
        <time>2020-08-31T07:51:42.365Z</time>
      </trkpt>
      <trkpt lat="42.51275" lon="2.46059">
        <ele>2475.3</ele>
        <time>2020-08-31T07:51:59.702Z</time>
      </trkpt>
      <trkpt lat="42.51272" lon="2.46065">
        <ele>2475.8</ele>
        <time>2020-08-31T07:52:16.624Z</time>
      </trkpt>
      <trkpt lat="42.51269" lon="2.4607">
        <ele>2475.8</ele>
        <time>2020-08-31T07:52:22.773Z</time>
      </trkpt>
      <trkpt lat="42.51264" lon="2.46075">
        <ele>2475.7</ele>
        <time>2020-08-31T07:52:25.078Z</time>
      </trkpt>
      <trkpt lat="42.51261" lon="2.4608">
        <ele>2475.5</ele>
        <time>2020-08-31T07:52:26.415Z</time>
      </trkpt>
      <trkpt lat="42.5126" lon="2.46084">
        <ele>2488.6</ele>
        <time>2020-08-31T07:52:41.954Z</time>
      </trkpt>
      <trkpt lat="42.51257" lon="2.46086">
        <ele>2486.5</ele>
        <time>2020-08-31T07:52:42.789Z</time>
      </trkpt>
      <trkpt lat="42.51255" lon="2.46088">
        <ele>2485</ele>
        <time>2020-08-31T07:52:43.410Z</time>
      </trkpt>
      <trkpt lat="42.51252" lon="2.46091">
        <ele>2486.3</ele>
        <time>2020-08-31T07:53:02.012Z</time>
      </trkpt>
      <trkpt lat="42.5125" lon="2.46095">
        <ele>2490.1</ele>
        <time>2020-08-31T07:53:19.795Z</time>
      </trkpt>
      <trkpt lat="42.51249" lon="2.46097">
        <ele>2480</ele>
        <time>2020-08-31T07:53:20.240Z</time>
      </trkpt>
      <trkpt lat="42.51245" lon="2.46098">
        <ele>2480.5</ele>
        <time>2020-08-31T07:53:37.865Z</time>
      </trkpt>
      <trkpt lat="42.51242" lon="2.46099">
        <ele>2480.9</ele>
        <time>2020-08-31T07:53:52.450Z</time>
      </trkpt>
      <trkpt lat="42.51239" lon="2.46104">
        <ele>2482.3</ele>
        <time>2020-08-31T07:54:16.170Z</time>
      </trkpt>
      <trkpt lat="42.51235" lon="2.46109">
        <ele>2483.9</ele>
        <time>2020-08-31T07:54:43.317Z</time>
      </trkpt>
      <trkpt lat="42.51235" lon="2.46111">
        <ele>2484.7</ele>
        <time>2020-08-31T07:54:50.675Z</time>
      </trkpt>
      <trkpt lat="42.51236" lon="2.46112">
        <ele>2484.9</ele>
        <time>2020-08-31T07:54:56.876Z</time>
      </trkpt>
      <trkpt lat="42.51244" lon="2.46111">
        <ele>2484.9</ele>
        <time>2020-08-31T07:55:07.272Z</time>
      </trkpt>
      <trkpt lat="42.51248" lon="2.46111">
        <ele>2484.8</ele>
        <time>2020-08-31T07:55:08.610Z</time>
      </trkpt>
      <trkpt lat="42.51252" lon="2.4611">
        <ele>2502.1</ele>
        <time>2020-08-31T07:55:28.911Z</time>
      </trkpt>
      <trkpt lat="42.51257" lon="2.46107">
        <ele>2501.2</ele>
        <time>2020-08-31T07:55:30.276Z</time>
      </trkpt>
      <trkpt lat="42.5126" lon="2.46106">
        <ele>2501.7</ele>
        <time>2020-08-31T07:55:45.695Z</time>
      </trkpt>
      <trkpt lat="42.5126" lon="2.46108">
        <ele>2503</ele>
        <time>2020-08-31T07:55:53.053Z</time>
      </trkpt>
      <trkpt lat="42.51257" lon="2.46113">
        <ele>2504.9</ele>
        <time>2020-08-31T07:56:16.773Z</time>
      </trkpt>
      <trkpt lat="42.51246" lon="2.46127">
        <ele>2491.2</ele>
        <time>2020-08-31T07:56:20.540Z</time>
      </trkpt>
      <trkpt lat="42.51248" lon="2.46128">
        <ele>2491.8</ele>
        <time>2020-08-31T07:56:31.179Z</time>
      </trkpt>
      <trkpt lat="42.51249" lon="2.46129">
        <ele>2492.2</ele>
        <time>2020-08-31T07:56:37.380Z</time>
      </trkpt>
      <trkpt lat="42.51258" lon="2.46131">
        <ele>2512.3</ele>
        <time>2020-08-31T07:57:22.899Z</time>
      </trkpt>
      <trkpt lat="42.5126" lon="2.46131">
        <ele>2512.6</ele>
        <time>2020-08-31T07:57:32.881Z</time>
      </trkpt>
      <trkpt lat="42.51262" lon="2.46131">
        <ele>2512.9</ele>
        <time>2020-08-31T07:57:42.863Z</time>
      </trkpt>
      <trkpt lat="42.51265" lon="2.46132">
        <ele>2513.5</ele>
        <time>2020-08-31T07:57:58.282Z</time>
      </trkpt>
      <trkpt lat="42.51266" lon="2.46134">
        <ele>2514.4</ele>
        <time>2020-08-31T07:58:07.174Z</time>
      </trkpt>
      <trkpt lat="42.51267" lon="2.46137">
        <ele>2515.1</ele>
        <time>2020-08-31T07:58:19.287Z</time>
      </trkpt>
      <trkpt lat="42.51265" lon="2.4614">
        <ele>2515.8</ele>
        <time>2020-08-31T07:58:34.169Z</time>
      </trkpt>
      <trkpt lat="42.51262" lon="2.46143">
        <ele>2516.2</ele>
        <time>2020-08-31T07:58:47.674Z</time>
      </trkpt>
      <trkpt lat="42.51253" lon="2.46149">
        <ele>2517.1</ele>
        <time>2020-08-31T07:59:18.354Z</time>
      </trkpt>
      <trkpt lat="42.51243" lon="2.46159">
        <ele>2508.9</ele>
        <time>2020-08-31T07:59:21.458Z</time>
      </trkpt>
      <trkpt lat="42.51239" lon="2.46164">
        <ele>2508.8</ele>
        <time>2020-08-31T07:59:23.421Z</time>
      </trkpt>
      <trkpt lat="42.51236" lon="2.46167">
        <ele>2506.5</ele>
        <time>2020-08-31T07:59:24.352Z</time>
      </trkpt>
      <trkpt lat="42.51229" lon="2.46168">
        <ele>2517</ele>
        <time>2020-08-31T07:59:59.483Z</time>
      </trkpt>
      <trkpt lat="42.51218" lon="2.46174">
        <ele>2515.4</ele>
        <time>2020-08-31T08:00:02.445Z</time>
      </trkpt>
      <trkpt lat="42.51211" lon="2.46179">
        <ele>2514.3</ele>
        <time>2020-08-31T08:00:04.421Z</time>
      </trkpt>
      <trkpt lat="42.51201" lon="2.46184">
        <ele>2513.2</ele>
        <time>2020-08-31T08:00:07.083Z</time>
      </trkpt>
      <trkpt lat="42.51192" lon="2.46191">
        <ele>2512.3</ele>
        <time>2020-08-31T08:00:09.675Z</time>
      </trkpt>
      <trkpt lat="42.51206" lon="2.4619">
        <ele>2513.7</ele>
        <time>2020-08-31T08:00:56.787Z</time>
      </trkpt>
      <trkpt lat="42.5122" lon="2.4619">
        <ele>2515.3</ele>
        <time>2020-08-31T08:01:51.517Z</time>
      </trkpt>
      <trkpt lat="42.51229" lon="2.4619">
        <ele>2516.2</ele>
        <time>2020-08-31T08:02:21.802Z</time>
      </trkpt>
      <trkpt lat="42.51242" lon="2.46191">
        <ele>2517.1</ele>
        <time>2020-08-31T08:02:55.483Z</time>
      </trkpt>
      <trkpt lat="42.51247" lon="2.4619">
        <ele>2517.3</ele>
        <time>2020-08-31T08:03:05.741Z</time>
      </trkpt>
      <trkpt lat="42.51251" lon="2.46189">
        <ele>2527</ele>
        <time>2020-08-31T08:03:26.042Z</time>
      </trkpt>
      <trkpt lat="42.51254" lon="2.46189">
        <ele>2527.3</ele>
        <time>2020-08-31T08:03:36.137Z</time>
      </trkpt>
      <trkpt lat="42.51258" lon="2.46189">
        <ele>2527.8</ele>
        <time>2020-08-31T08:03:53.933Z</time>
      </trkpt>
      <trkpt lat="42.51266" lon="2.46186">
        <ele>2528.8</ele>
        <time>2020-08-31T08:04:28.827Z</time>
      </trkpt>
      <trkpt lat="42.51277" lon="2.46183">
        <ele>2531.9</ele>
        <time>2020-08-31T08:05:24.828Z</time>
      </trkpt>
      <trkpt lat="42.51285" lon="2.46181">
        <ele>2534.7</ele>
        <time>2020-08-31T08:06:05.430Z</time>
      </trkpt>
      <trkpt lat="42.51288" lon="2.46179">
        <ele>2535.6</ele>
        <time>2020-08-31T08:06:22.113Z</time>
      </trkpt>
      <trkpt lat="42.51291" lon="2.4618">
        <ele>2536.8</ele>
        <time>2020-08-31T08:06:37.532Z</time>
      </trkpt>
      <trkpt lat="42.51295" lon="2.4618">
        <ele>2538</ele>
        <time>2020-08-31T08:06:57.497Z</time>
      </trkpt>
      <trkpt lat="42.51298" lon="2.4618">
        <ele>2539.5</ele>
        <time>2020-08-31T08:07:12.470Z</time>
      </trkpt>
      <trkpt lat="42.51304" lon="2.46179">
        <ele>2541.7</ele>
        <time>2020-08-31T08:07:42.643Z</time>
      </trkpt>
      <trkpt lat="42.51311" lon="2.46178">
        <ele>2544.3</ele>
        <time>2020-08-31T08:08:17.774Z</time>
      </trkpt>
      <trkpt lat="42.51333" lon="2.46168">
        <ele>2553.3</ele>
        <time>2020-08-31T08:10:13.579Z</time>
      </trkpt>
      <trkpt lat="42.51341" lon="2.46161">
        <ele>2550.3</ele>
        <time>2020-08-31T08:10:15.957Z</time>
      </trkpt>
      <trkpt lat="42.51347" lon="2.46157">
        <ele>2547.8</ele>
        <time>2020-08-31T08:10:17.627Z</time>
      </trkpt>
      <trkpt lat="42.51355" lon="2.46144">
        <ele>2542.4</ele>
        <time>2020-08-31T08:10:20.745Z</time>
      </trkpt>
      <trkpt lat="42.5136" lon="2.46132">
        <ele>2538.6</ele>
        <time>2020-08-31T08:10:23.283Z</time>
      </trkpt>
      <trkpt lat="42.51362" lon="2.46127">
        <ele>2537.1</ele>
        <time>2020-08-31T08:10:24.331Z</time>
      </trkpt>
      <trkpt lat="42.51365" lon="2.46123">
        <ele>2536</ele>
        <time>2020-08-31T08:10:25.381Z</time>
      </trkpt>
      <trkpt lat="42.51368" lon="2.4612">
        <ele>2535.3</ele>
        <time>2020-08-31T08:10:26.312Z</time>
      </trkpt>
      <trkpt lat="42.5137" lon="2.46116">
        <ele>2534.3</ele>
        <time>2020-08-31T08:10:27.202Z</time>
      </trkpt>
      <trkpt lat="42.51372" lon="2.46111">
        <ele>2533.5</ele>
        <time>2020-08-31T08:10:28.250Z</time>
      </trkpt>
      <trkpt lat="42.51375" lon="2.46109">
        <ele>2533.1</ele>
        <time>2020-08-31T08:10:29.085Z</time>
      </trkpt>
      <trkpt lat="42.51379" lon="2.46107">
        <ele>2533.2</ele>
        <time>2020-08-31T08:10:36.111Z</time>
      </trkpt>
      <trkpt lat="42.51384" lon="2.46106">
        <ele>2533.4</ele>
        <time>2020-08-31T08:10:46.369Z</time>
      </trkpt>
      <trkpt lat="42.5139" lon="2.46107">
        <ele>2533.9</ele>
        <time>2020-08-31T08:11:03.778Z</time>
      </trkpt>
      <trkpt lat="42.51397" lon="2.46109">
        <ele>2534.6</ele>
        <time>2020-08-31T08:11:27.357Z</time>
      </trkpt>
      <trkpt lat="42.51401" lon="2.46111">
        <ele>2534.9</ele>
        <time>2020-08-31T08:11:38.489Z</time>
      </trkpt>
      <trkpt lat="42.51403" lon="2.46112">
        <ele>2535</ele>
        <time>2020-08-31T08:11:43.216Z</time>
      </trkpt>
      <trkpt lat="42.51405" lon="2.46112">
        <ele>2535.1</ele>
        <time>2020-08-31T08:11:47.741Z</time>
      </trkpt>
      <trkpt lat="42.51408" lon="2.46112">
        <ele>2535.2</ele>
        <time>2020-08-31T08:11:53.330Z</time>
      </trkpt>
      <trkpt lat="42.5141" lon="2.46111">
        <ele>2535.2</ele>
        <time>2020-08-31T08:11:56.088Z</time>
      </trkpt>
      <trkpt lat="42.51412" lon="2.46111">
        <ele>2535.2</ele>
        <time>2020-08-31T08:11:58.676Z</time>
      </trkpt>
      <trkpt lat="42.51416" lon="2.4611">
        <ele>2535.2</ele>
        <time>2020-08-31T08:12:03.939Z</time>
      </trkpt>
      <trkpt lat="42.51417" lon="2.46108">
        <ele>2570.2</ele>
        <time>2020-08-31T08:12:12.830Z</time>
      </trkpt>
      <trkpt lat="42.51418" lon="2.46107">
        <ele>2570.1</ele>
        <time>2020-08-31T08:12:19.031Z</time>
      </trkpt>
      <trkpt lat="42.5142" lon="2.46106">
        <ele>2570.4</ele>
        <time>2020-08-31T08:12:29.669Z</time>
      </trkpt>
      <trkpt lat="42.51422" lon="2.46105">
        <ele>2570.8</ele>
        <time>2020-08-31T08:12:40.308Z</time>
      </trkpt>
      <trkpt lat="42.51425" lon="2.46104">
        <ele>2571.8</ele>
        <time>2020-08-31T08:12:55.727Z</time>
      </trkpt>
      <trkpt lat="42.51428" lon="2.46104">
        <ele>2573.3</ele>
        <time>2020-08-31T08:13:10.700Z</time>
      </trkpt>
      <trkpt lat="42.51431" lon="2.46103">
        <ele>2574.4</ele>
        <time>2020-08-31T08:13:26.119Z</time>
      </trkpt>
      <trkpt lat="42.51434" lon="2.46103">
        <ele>2575.9</ele>
        <time>2020-08-31T08:13:41.093Z</time>
      </trkpt>
      <trkpt lat="42.51435" lon="2.46103">
        <ele>2576.4</ele>
        <time>2020-08-31T08:13:46.084Z</time>
      </trkpt>
      <trkpt lat="42.51437" lon="2.46102">
        <ele>2577.1</ele>
        <time>2020-08-31T08:13:56.723Z</time>
      </trkpt>
      <trkpt lat="42.51438" lon="2.461">
        <ele>2577</ele>
        <time>2020-08-31T08:14:05.614Z</time>
      </trkpt>
      <trkpt lat="42.51438" lon="2.46098">
        <ele>2576.4</ele>
        <time>2020-08-31T08:14:12.972Z</time>
      </trkpt>
      <trkpt lat="42.51439" lon="2.46096">
        <ele>2576.4</ele>
        <time>2020-08-31T08:14:21.863Z</time>
      </trkpt>
      <trkpt lat="42.51444" lon="2.46086">
        <ele>2577.2</ele>
        <time>2020-08-31T08:15:06.319Z</time>
      </trkpt>
      <trkpt lat="42.51446" lon="2.46082">
        <ele>2515</ele>
        <time>2020-08-31T08:15:24.101Z</time>
      </trkpt>
      <trkpt lat="42.51448" lon="2.46077">
        <ele>2515</ele>
        <time>2020-08-31T08:15:29.527Z</time>
      </trkpt>
      <trkpt lat="42.5145" lon="2.46075">
        <ele>2515</ele>
        <time>2020-08-31T08:15:32.742Z</time>
      </trkpt>
      <trkpt lat="42.51452" lon="2.46073">
        <ele>2515</ele>
        <time>2020-08-31T08:15:35.957Z</time>
      </trkpt>
      <trkpt lat="42.51455" lon="2.46072">
        <ele>2515</ele>
        <time>2020-08-31T08:15:39.955Z</time>
      </trkpt>
      <trkpt lat="42.51459" lon="2.46069">
        <ele>2515</ele>
        <time>2020-08-31T08:15:45.869Z</time>
      </trkpt>
      <trkpt lat="42.51462" lon="2.46067">
        <ele>2515</ele>
        <time>2020-08-31T08:15:50.194Z</time>
      </trkpt>
      <trkpt lat="42.51464" lon="2.46067">
        <ele>2515</ele>
        <time>2020-08-31T08:15:52.782Z</time>
      </trkpt>
      <trkpt lat="42.51467" lon="2.46066">
        <ele>2515</ele>
        <time>2020-08-31T08:15:56.780Z</time>
      </trkpt>
      <trkpt lat="42.5147" lon="2.46065">
        <ele>2515</ele>
        <time>2020-08-31T08:16:00.777Z</time>
      </trkpt>
      <trkpt lat="42.51473" lon="2.46063">
        <ele>2515</ele>
        <time>2020-08-31T08:16:05.103Z</time>
      </trkpt>
      <trkpt lat="42.51475" lon="2.46061">
        <ele>2515</ele>
        <time>2020-08-31T08:16:08.318Z</time>
      </trkpt>
      <trkpt lat="42.51476" lon="2.4606">
        <ele>2515</ele>
        <time>2020-08-31T08:16:09.925Z</time>
      </trkpt>
      <trkpt lat="42.51479" lon="2.46054">
        <ele>2515</ele>
        <time>2020-08-31T08:16:16.841Z</time>
      </trkpt>
      <trkpt lat="42.5148" lon="2.46052">
        <ele>2515</ele>
        <time>2020-08-31T08:16:19.146Z</time>
      </trkpt>
      <trkpt lat="42.51483" lon="2.46049">
        <ele>2515</ele>
        <time>2020-08-31T08:16:23.968Z</time>
      </trkpt>
      <trkpt lat="42.51484" lon="2.46047">
        <ele>2515</ele>
        <time>2020-08-31T08:16:26.273Z</time>
      </trkpt>
      <trkpt lat="42.51486" lon="2.46044">
        <ele>2515</ele>
        <time>2020-08-31T08:16:30.132Z</time>
      </trkpt>
      <trkpt lat="42.51487" lon="2.46041">
        <ele>2515</ele>
        <time>2020-08-31T08:16:33.272Z</time>
      </trkpt>
      <trkpt lat="42.51489" lon="2.46038">
        <ele>2515</ele>
        <time>2020-08-31T08:16:37.130Z</time>
      </trkpt>
      <trkpt lat="42.5149" lon="2.46036">
        <ele>2515</ele>
        <time>2020-08-31T08:16:39.435Z</time>
      </trkpt>
      <trkpt lat="42.51493" lon="2.46034">
        <ele>2515</ele>
        <time>2020-08-31T08:16:43.761Z</time>
      </trkpt>
      <trkpt lat="42.51494" lon="2.46033">
        <ele>2515</ele>
        <time>2020-08-31T08:16:45.368Z</time>
      </trkpt>
      <trkpt lat="42.51496" lon="2.4603">
        <ele>2515</ele>
        <time>2020-08-31T08:16:49.226Z</time>
      </trkpt>
      <trkpt lat="42.51498" lon="2.46028">
        <ele>2515</ele>
        <time>2020-08-31T08:16:52.441Z</time>
      </trkpt>
      <trkpt lat="42.51501" lon="2.46026">
        <ele>2589.9</ele>
        <time>2020-08-31T08:17:09.125Z</time>
      </trkpt>
      <trkpt lat="42.51502" lon="2.46025">
        <ele>2590.1</ele>
        <time>2020-08-31T08:17:15.326Z</time>
      </trkpt>
      <trkpt lat="42.51505" lon="2.46024">
        <ele>2591.9</ele>
        <time>2020-08-31T08:17:30.744Z</time>
      </trkpt>
      <trkpt lat="42.51506" lon="2.46022">
        <ele>2591.7</ele>
        <time>2020-08-31T08:17:39.636Z</time>
      </trkpt>
      <trkpt lat="42.51507" lon="2.46021">
        <ele>2591.9</ele>
        <time>2020-08-31T08:17:45.836Z</time>
        <extensions>
          <visugpx:TrkExtension xmlns:visugpx="https://www.visugpx.com/editgpx/">
            <visugpx:node>1</visugpx:node>
            </visugpx:TrkExtension>
        </extensions>
      </trkpt>
      <trkpt lat="42.51508" lon="2.4602">
        <ele>2592.2</ele>
        <time>2020-08-31T08:17:52.037Z</time>
      </trkpt>
      <trkpt lat="42.51513" lon="2.46015">
        <ele>2593.6</ele>
        <time>2020-08-31T08:18:23.039Z</time>
      </trkpt>
      <trkpt lat="42.51514" lon="2.46014">
        <ele>2593.9</ele>
        <time>2020-08-31T08:18:29.240Z</time>
      </trkpt>
      <trkpt lat="42.51515" lon="2.46011">
        <ele>2593.3</ele>
        <time>2020-08-31T08:18:41.353Z</time>
      </trkpt>
      <trkpt lat="42.51517" lon="2.46008">
        <ele>2593.4</ele>
        <time>2020-08-31T08:18:56.234Z</time>
      </trkpt>
      <trkpt lat="42.5152" lon="2.46004">
        <ele>2593.9</ele>
        <time>2020-08-31T08:19:17.229Z</time>
      </trkpt>
      <trkpt lat="42.51522" lon="2.46003">
        <ele>2595</ele>
        <time>2020-08-31T08:19:27.867Z</time>
      </trkpt>
      <trkpt lat="42.51523" lon="2.46">
        <ele>2541</ele>
        <time>2020-08-31T08:19:39.980Z</time>
      </trkpt>
      <trkpt lat="42.51525" lon="2.45998">
        <ele>2541</ele>
        <time>2020-08-31T08:19:43.195Z</time>
      </trkpt>
      <trkpt lat="42.51526" lon="2.45997">
        <ele>2541</ele>
        <time>2020-08-31T08:19:44.803Z</time>
      </trkpt>
      <trkpt lat="42.51528" lon="2.45994">
        <ele>2541</ele>
        <time>2020-08-31T08:19:48.661Z</time>
      </trkpt>
      <trkpt lat="42.5153" lon="2.45992">
        <ele>2541</ele>
        <time>2020-08-31T08:19:51.876Z</time>
      </trkpt>
      <trkpt lat="42.51532" lon="2.45989">
        <ele>2541</ele>
        <time>2020-08-31T08:19:55.734Z</time>
      </trkpt>
      <trkpt lat="42.51533" lon="2.45987">
        <ele>2541</ele>
        <time>2020-08-31T08:19:58.040Z</time>
      </trkpt>
      <trkpt lat="42.51535" lon="2.45986">
        <ele>2541</ele>
        <time>2020-08-31T08:20:00.798Z</time>
      </trkpt>
      <trkpt lat="42.51537" lon="2.45982">
        <ele>2541</ele>
        <time>2020-08-31T08:20:05.408Z</time>
      </trkpt>
      <trkpt lat="42.51539" lon="2.4598">
        <ele>2541</ele>
        <time>2020-08-31T08:20:08.623Z</time>
      </trkpt>
      <trkpt lat="42.51541" lon="2.45977">
        <ele>2541</ele>
        <time>2020-08-31T08:20:12.481Z</time>
      </trkpt>
      <trkpt lat="42.51543" lon="2.45975">
        <ele>2541</ele>
        <time>2020-08-31T08:20:15.696Z</time>
      </trkpt>
      <trkpt lat="42.51544" lon="2.45973">
        <ele>2541</ele>
        <time>2020-08-31T08:20:18.001Z</time>
      </trkpt>
      <trkpt lat="42.51547" lon="2.45971">
        <ele>2541</ele>
        <time>2020-08-31T08:20:22.327Z</time>
      </trkpt>
      <trkpt lat="42.51549" lon="2.45971">
        <ele>2541</ele>
        <time>2020-08-31T08:20:24.915Z</time>
      </trkpt>
      <trkpt lat="42.51551" lon="2.45969">
        <ele>2541</ele>
        <time>2020-08-31T08:20:28.130Z</time>
      </trkpt>
      <trkpt lat="42.51554" lon="2.45967">
        <ele>2541</ele>
        <time>2020-08-31T08:20:32.455Z</time>
      </trkpt>
      <trkpt lat="42.51556" lon="2.45964">
        <ele>2541</ele>
        <time>2020-08-31T08:20:36.313Z</time>
      </trkpt>
      <trkpt lat="42.51557" lon="2.45963">
        <ele>2541</ele>
        <time>2020-08-31T08:20:37.921Z</time>
      </trkpt>
      <trkpt lat="42.51557" lon="2.4596">
        <ele>2541</ele>
        <time>2020-08-31T08:20:40.782Z</time>
      </trkpt>
      <trkpt lat="42.51558" lon="2.45956">
        <ele>2541</ele>
        <time>2020-08-31T08:20:44.811Z</time>
      </trkpt>
      <trkpt lat="42.5156" lon="2.45954">
        <ele>2541</ele>
        <time>2020-08-31T08:20:48.026Z</time>
      </trkpt>
      <trkpt lat="42.51562" lon="2.45951">
        <ele>2541</ele>
        <time>2020-08-31T08:20:51.884Z</time>
      </trkpt>
      <trkpt lat="42.51563" lon="2.45949">
        <ele>2541</ele>
        <time>2020-08-31T08:20:54.189Z</time>
      </trkpt>
      <trkpt lat="42.51565" lon="2.45946">
        <ele>2541</ele>
        <time>2020-08-31T08:20:58.047Z</time>
      </trkpt>
      <trkpt lat="42.51566" lon="2.45942">
        <ele>2541</ele>
        <time>2020-08-31T08:21:02.076Z</time>
      </trkpt>
      <trkpt lat="42.51569" lon="2.45939">
        <ele>2541</ele>
        <time>2020-08-31T08:21:06.899Z</time>
      </trkpt>
      <trkpt lat="42.51571" lon="2.45936">
        <ele>2541</ele>
        <time>2020-08-31T08:21:10.757Z</time>
      </trkpt>
      <trkpt lat="42.51575" lon="2.45933">
        <ele>2541</ele>
        <time>2020-08-31T08:21:16.671Z</time>
      </trkpt>
      <trkpt lat="42.51578" lon="2.45931">
        <ele>2541</ele>
        <time>2020-08-31T08:21:20.997Z</time>
      </trkpt>
      <trkpt lat="42.51581" lon="2.45929">
        <ele>2541</ele>
        <time>2020-08-31T08:21:25.322Z</time>
      </trkpt>
      <trkpt lat="42.51584" lon="2.45929">
        <ele>2612.2</ele>
        <time>2020-08-31T08:21:40.295Z</time>
      </trkpt>
      <trkpt lat="42.51587" lon="2.45928">
        <ele>2613.8</ele>
        <time>2020-08-31T08:21:55.714Z</time>
      </trkpt>
      <trkpt lat="42.5159" lon="2.45926">
        <ele>2614.9</ele>
        <time>2020-08-31T08:22:12.398Z</time>
      </trkpt>
      <trkpt lat="42.51591" lon="2.45924">
        <ele>2614.7</ele>
        <time>2020-08-31T08:22:21.289Z</time>
      </trkpt>
      <trkpt lat="42.51593" lon="2.45921">
        <ele>2614.6</ele>
        <time>2020-08-31T08:22:36.170Z</time>
      </trkpt>
      <trkpt lat="42.51595" lon="2.45919">
        <ele>2615.1</ele>
        <time>2020-08-31T08:22:48.571Z</time>
      </trkpt>
      <trkpt lat="42.51597" lon="2.45918">
        <ele>2616</ele>
        <time>2020-08-31T08:22:59.210Z</time>
      </trkpt>
      <trkpt lat="42.51599" lon="2.45917">
        <ele>2616.9</ele>
        <time>2020-08-31T08:23:09.849Z</time>
      </trkpt>
      <trkpt lat="42.516" lon="2.45915">
        <ele>2616.7</ele>
        <time>2020-08-31T08:23:18.740Z</time>
      </trkpt>
      <trkpt lat="42.51604" lon="2.4591">
        <ele>2617.3</ele>
        <time>2020-08-31T08:23:45.886Z</time>
      </trkpt>
      <trkpt lat="42.5161" lon="2.45905">
        <ele>2619.2</ele>
        <time>2020-08-31T08:24:21.031Z</time>
      </trkpt>
      <trkpt lat="42.51615" lon="2.459">
        <ele>2620.6</ele>
        <time>2020-08-31T08:24:52.034Z</time>
      </trkpt>
      <trkpt lat="42.51618" lon="2.45897">
        <ele>2621.5</ele>
        <time>2020-08-31T08:25:10.635Z</time>
      </trkpt>
      <trkpt lat="42.51621" lon="2.45893">
        <ele>2621.9</ele>
        <time>2020-08-31T08:25:31.630Z</time>
      </trkpt>
      <trkpt lat="42.51624" lon="2.45891">
        <ele>2623.2</ele>
        <time>2020-08-31T08:25:48.313Z</time>
      </trkpt>
      <trkpt lat="42.51626" lon="2.45888">
        <ele>2623.4</ele>
        <time>2020-08-31T08:26:03.195Z</time>
      </trkpt>
      <trkpt lat="42.51629" lon="2.45886">
        <ele>2624.9</ele>
        <time>2020-08-31T08:26:19.878Z</time>
      </trkpt>
      <trkpt lat="42.51631" lon="2.45886">
        <ele>2626.3</ele>
        <time>2020-08-31T08:26:29.860Z</time>
      </trkpt>
      <trkpt lat="42.51632" lon="2.45885">
        <ele>2626.7</ele>
        <time>2020-08-31T08:26:36.061Z</time>
      </trkpt>
      <trkpt lat="42.51637" lon="2.4588">
        <ele>2628.7</ele>
        <time>2020-08-31T08:27:07.063Z</time>
      </trkpt>
      <trkpt lat="42.51638" lon="2.45878">
        <ele>2628.8</ele>
        <time>2020-08-31T08:27:15.954Z</time>
      </trkpt>
      <trkpt lat="42.51639" lon="2.45876">
        <ele>2628.9</ele>
        <time>2020-08-31T08:27:24.845Z</time>
      </trkpt>
      <trkpt lat="42.5164" lon="2.45874">
        <ele>2629.1</ele>
        <time>2020-08-31T08:27:33.736Z</time>
      </trkpt>
      <trkpt lat="42.51641" lon="2.45872">
        <ele>2629.2</ele>
        <time>2020-08-31T08:27:42.627Z</time>
      </trkpt>
      <trkpt lat="42.51645" lon="2.45867">
        <ele>2630.9</ele>
        <time>2020-08-31T08:28:09.774Z</time>
      </trkpt>
      <trkpt lat="42.51645" lon="2.45865">
        <ele>2630.3</ele>
        <time>2020-08-31T08:28:17.132Z</time>
      </trkpt>
      <trkpt lat="42.51646" lon="2.45863">
        <ele>2630.5</ele>
        <time>2020-08-31T08:28:26.023Z</time>
      </trkpt>
      <trkpt lat="42.51646" lon="2.45861">
        <ele>2629.9</ele>
        <time>2020-08-31T08:28:33.380Z</time>
      </trkpt>
      <trkpt lat="42.51647" lon="2.45858">
        <ele>2629.7</ele>
        <time>2020-08-31T08:28:45.493Z</time>
      </trkpt>
      <trkpt lat="42.51648" lon="2.45856">
        <ele>2629.8</ele>
        <time>2020-08-31T08:28:54.384Z</time>
      </trkpt>
      <trkpt lat="42.51649" lon="2.45854">
        <ele>2630</ele>
        <time>2020-08-31T08:29:03.275Z</time>
      </trkpt>
      <trkpt lat="42.51649" lon="2.45852">
        <ele>2629.3</ele>
        <time>2020-08-31T08:29:10.633Z</time>
      </trkpt>
      <trkpt lat="42.51651" lon="2.45851">
        <ele>2630.6</ele>
        <time>2020-08-31T08:29:21.272Z</time>
      </trkpt>
      <trkpt lat="42.51652" lon="2.45849">
        <ele>2630.7</ele>
        <time>2020-08-31T08:29:30.162Z</time>
      </trkpt>
      <trkpt lat="42.51653" lon="2.45848">
        <ele>2631.2</ele>
        <time>2020-08-31T08:29:36.363Z</time>
      </trkpt>
      <trkpt lat="42.51654" lon="2.45847">
        <ele>2631.7</ele>
        <time>2020-08-31T08:29:42.563Z</time>
      </trkpt>
      <trkpt lat="42.51654" lon="2.45845">
        <ele>2631</ele>
        <time>2020-08-31T08:29:49.921Z</time>
      </trkpt>
      <trkpt lat="42.51655" lon="2.45843">
        <ele>2631.1</ele>
        <time>2020-08-31T08:29:58.812Z</time>
      </trkpt>
      <trkpt lat="42.51655" lon="2.45841">
        <ele>2630.4</ele>
        <time>2020-08-31T08:30:06.170Z</time>
      </trkpt>
      <trkpt lat="42.51656" lon="2.45839">
        <ele>2630.5</ele>
        <time>2020-08-31T08:30:15.061Z</time>
      </trkpt>
      <trkpt lat="42.51656" lon="2.45838">
        <ele>2630.2</ele>
        <time>2020-08-31T08:30:18.740Z</time>
      </trkpt>
      <trkpt lat="42.51657" lon="2.45836">
        <ele>2630.3</ele>
        <time>2020-08-31T08:30:27.631Z</time>
      </trkpt>
      <trkpt lat="42.51657" lon="2.45834">
        <ele>2629.6</ele>
        <time>2020-08-31T08:30:34.988Z</time>
      </trkpt>
      <trkpt lat="42.51659" lon="2.45832">
        <ele>2545</ele>
        <time>2020-08-31T08:30:47.389Z</time>
      </trkpt>
      <trkpt lat="42.5166" lon="2.45831">
        <ele>2545</ele>
        <time>2020-08-31T08:30:48.997Z</time>
      </trkpt>
      <trkpt lat="42.51661" lon="2.4583">
        <ele>2545</ele>
        <time>2020-08-31T08:30:50.604Z</time>
      </trkpt>
      <trkpt lat="42.51664" lon="2.45827">
        <ele>2545</ele>
        <time>2020-08-31T08:30:55.427Z</time>
      </trkpt>
      <trkpt lat="42.51665" lon="2.45826">
        <ele>2545</ele>
        <time>2020-08-31T08:30:57.035Z</time>
      </trkpt>
      <trkpt lat="42.51666" lon="2.45825">
        <ele>2545</ele>
        <time>2020-08-31T08:30:58.642Z</time>
      </trkpt>
      <trkpt lat="42.51667" lon="2.45823">
        <ele>2633.9</ele>
        <time>2020-08-31T08:31:07.533Z</time>
      </trkpt>
      <trkpt lat="42.51668" lon="2.45821">
        <ele>2633.9</ele>
        <time>2020-08-31T08:31:16.424Z</time>
      </trkpt>
      <trkpt lat="42.51671" lon="2.45818">
        <ele>2635</ele>
        <time>2020-08-31T08:31:35.025Z</time>
      </trkpt>
      <trkpt lat="42.51672" lon="2.45817">
        <ele>2635.4</ele>
        <time>2020-08-31T08:31:41.226Z</time>
      </trkpt>
      <trkpt lat="42.51673" lon="2.45815">
        <ele>2635.4</ele>
        <time>2020-08-31T08:31:50.117Z</time>
      </trkpt>
      <trkpt lat="42.51674" lon="2.45813">
        <ele>2635.4</ele>
        <time>2020-08-31T08:31:59.008Z</time>
      </trkpt>
      <trkpt lat="42.51675" lon="2.45811">
        <ele>2635.5</ele>
        <time>2020-08-31T08:32:07.899Z</time>
      </trkpt>
      <trkpt lat="42.51677" lon="2.45809">
        <ele>2636.2</ele>
        <time>2020-08-31T08:32:20.300Z</time>
      </trkpt>
      <trkpt lat="42.51678" lon="2.45807">
        <ele>2636.2</ele>
        <time>2020-08-31T08:32:29.190Z</time>
      </trkpt>
      <trkpt lat="42.5168" lon="2.45806">
        <ele>2637.3</ele>
        <time>2020-08-31T08:32:39.829Z</time>
      </trkpt>
      <trkpt lat="42.51681" lon="2.45804">
        <ele>2637.2</ele>
        <time>2020-08-31T08:32:48.720Z</time>
      </trkpt>
      <trkpt lat="42.51682" lon="2.45803">
        <ele>2637.6</ele>
        <time>2020-08-31T08:32:54.920Z</time>
      </trkpt>
      <trkpt lat="42.51684" lon="2.45801">
        <ele>2638.2</ele>
        <time>2020-08-31T08:33:07.321Z</time>
      </trkpt>
      <trkpt lat="42.51685" lon="2.45799">
        <ele>2638.1</ele>
        <time>2020-08-31T08:33:16.212Z</time>
      </trkpt>
      <trkpt lat="42.51687" lon="2.45798">
        <ele>2639.1</ele>
        <time>2020-08-31T08:33:26.851Z</time>
      </trkpt>
      <trkpt lat="42.51688" lon="2.45796">
        <ele>2639</ele>
        <time>2020-08-31T08:33:35.742Z</time>
      </trkpt>
      <trkpt lat="42.51689" lon="2.45794">
        <ele>2638.9</ele>
        <time>2020-08-31T08:33:44.633Z</time>
      </trkpt>
      <trkpt lat="42.5169" lon="2.45793">
        <ele>2639.1</ele>
        <time>2020-08-31T08:33:50.833Z</time>
      </trkpt>
      <trkpt lat="42.51692" lon="2.45792">
        <ele>2640</ele>
        <time>2020-08-31T08:34:01.472Z</time>
      </trkpt>
      <trkpt lat="42.51694" lon="2.4579">
        <ele>2640.6</ele>
        <time>2020-08-31T08:34:13.873Z</time>
      </trkpt>
      <trkpt lat="42.51695" lon="2.45789">
        <ele>2640.4</ele>
        <time>2020-08-31T08:34:20.073Z</time>
      </trkpt>
      <trkpt lat="42.51697" lon="2.45788">
        <ele>2640.2</ele>
        <time>2020-08-31T08:34:30.712Z</time>
      </trkpt>
      <trkpt lat="42.51698" lon="2.45786">
        <ele>2639.7</ele>
        <time>2020-08-31T08:34:39.603Z</time>
      </trkpt>
      <trkpt lat="42.51699" lon="2.45784">
        <ele>2639.4</ele>
        <time>2020-08-31T08:34:48.494Z</time>
      </trkpt>
      <trkpt lat="42.517" lon="2.45783">
        <ele>2639.5</ele>
        <time>2020-08-31T08:34:54.694Z</time>
      </trkpt>
      <trkpt lat="42.51702" lon="2.45781">
        <ele>2639.8</ele>
        <time>2020-08-31T08:35:07.095Z</time>
      </trkpt>
      <trkpt lat="42.51704" lon="2.45779">
        <ele>2640.5</ele>
        <time>2020-08-31T08:35:19.496Z</time>
      </trkpt>
      <trkpt lat="42.51706" lon="2.45777">
        <ele>2641.2</ele>
        <time>2020-08-31T08:35:31.897Z</time>
      </trkpt>
      <trkpt lat="42.51708" lon="2.45775">
        <ele>2641.5</ele>
        <time>2020-08-31T08:35:44.298Z</time>
      </trkpt>
      <trkpt lat="42.5171" lon="2.45773">
        <ele>2641.9</ele>
        <time>2020-08-31T08:35:56.699Z</time>
      </trkpt>
      <trkpt lat="42.51711" lon="2.45771">
        <ele>2641.8</ele>
        <time>2020-08-31T08:36:05.590Z</time>
      </trkpt>
      <trkpt lat="42.51717" lon="2.45765">
        <ele>2643.4</ele>
        <time>2020-08-31T08:36:42.792Z</time>
      </trkpt>
      <trkpt lat="42.51718" lon="2.45764">
        <ele>2643.7</ele>
        <time>2020-08-31T08:36:48.993Z</time>
      </trkpt>
      <trkpt lat="42.5172" lon="2.4576">
        <ele>2643.9</ele>
        <time>2020-08-31T08:37:06.774Z</time>
      </trkpt>
      <trkpt lat="42.51723" lon="2.45756">
        <ele>2644.8</ele>
        <time>2020-08-31T08:37:27.768Z</time>
      </trkpt>
      <trkpt lat="42.51724" lon="2.45755">
        <ele>2645.3</ele>
        <time>2020-08-31T08:37:33.969Z</time>
      </trkpt>
      <trkpt lat="42.51725" lon="2.45753">
        <ele>2645.5</ele>
        <time>2020-08-31T08:37:42.860Z</time>
      </trkpt>
      <trkpt lat="42.51726" lon="2.45752">
        <ele>2646</ele>
        <time>2020-08-31T08:37:49.060Z</time>
      </trkpt>
      <trkpt lat="42.51729" lon="2.4575">
        <ele>2647.6</ele>
        <time>2020-08-31T08:38:05.744Z</time>
      </trkpt>
      <trkpt lat="42.51731" lon="2.45747">
        <ele>2648</ele>
        <time>2020-08-31T08:38:20.625Z</time>
      </trkpt>
      <trkpt lat="42.51734" lon="2.45745">
        <ele>2649.3</ele>
        <time>2020-08-31T08:38:37.309Z</time>
      </trkpt>
      <trkpt lat="42.51737" lon="2.45742">
        <ele>2650.4</ele>
        <time>2020-08-31T08:38:55.910Z</time>
      </trkpt>
      <trkpt lat="42.51739" lon="2.4574">
        <ele>2651.1</ele>
        <time>2020-08-31T08:39:08.311Z</time>
      </trkpt>
      <trkpt lat="42.51741" lon="2.45737">
        <ele>2651.5</ele>
        <time>2020-08-31T08:39:23.192Z</time>
      </trkpt>
      <trkpt lat="42.51744" lon="2.45733">
        <ele>2652.3</ele>
        <time>2020-08-31T08:39:44.186Z</time>
      </trkpt>
      <trkpt lat="42.51744" lon="2.45732">
        <ele>2651.9</ele>
        <time>2020-08-31T08:39:47.865Z</time>
      </trkpt>
      <trkpt lat="42.51745" lon="2.45732">
        <ele>2652.6</ele>
        <time>2020-08-31T08:39:52.856Z</time>
      </trkpt>
      <trkpt lat="42.51754" lon="2.45726">
        <ele>2656.9</ele>
        <time>2020-08-31T08:40:42.907Z</time>
      </trkpt>
      <trkpt lat="42.51751" lon="2.4573">
        <ele>2656.2</ele>
        <time>2020-08-31T08:41:03.901Z</time>
      </trkpt>
      <trkpt lat="42.51751" lon="2.45734">
        <ele>2657.5</ele>
        <time>2020-08-31T08:41:18.616Z</time>
      </trkpt>
      <trkpt lat="42.51753" lon="2.45735">
        <ele>2659.1</ele>
        <time>2020-08-31T08:41:29.255Z</time>
      </trkpt>
      <trkpt lat="42.51756" lon="2.45732">
        <ele>2660.2</ele>
        <time>2020-08-31T08:41:47.856Z</time>
      </trkpt>
      <trkpt lat="42.51757" lon="2.45732">
        <ele>2660.9</ele>
        <time>2020-08-31T08:41:52.847Z</time>
      </trkpt>
      <trkpt lat="42.51759" lon="2.45731">
        <ele>2661.9</ele>
        <time>2020-08-31T08:42:03.486Z</time>
      </trkpt>
      <trkpt lat="42.5176" lon="2.45731">
        <ele>2662.6</ele>
        <time>2020-08-31T08:42:08.477Z</time>
      </trkpt>
      <trkpt lat="42.51762" lon="2.4573">
        <ele>2663.6</ele>
        <time>2020-08-31T08:42:19.115Z</time>
      </trkpt>
      <trkpt lat="42.51763" lon="2.4573">
        <ele>2664.3</ele>
        <time>2020-08-31T08:42:24.107Z</time>
      </trkpt>
      <trkpt lat="42.51767" lon="2.45731">
        <ele>2667.3</ele>
        <time>2020-08-31T08:42:44.407Z</time>
      </trkpt>
      <trkpt lat="42.5177" lon="2.45729">
        <ele>2668.7</ele>
        <time>2020-08-31T08:43:01.091Z</time>
      </trkpt>
      <trkpt lat="42.51773" lon="2.45732">
        <ele>2671.6</ele>
        <time>2020-08-31T08:43:19.692Z</time>
      </trkpt>
      <trkpt lat="42.51778" lon="2.45732">
        <ele>2675</ele>
        <time>2020-08-31T08:43:44.648Z</time>
      </trkpt>
      <trkpt lat="42.5178" lon="2.45734">
        <ele>2676.9</ele>
        <time>2020-08-31T08:43:57.049Z</time>
      </trkpt>
      <trkpt lat="42.51788" lon="2.45727">
        <ele>2680.6</ele>
        <time>2020-08-31T08:44:44.562Z</time>
        <extensions>
          <visugpx:TrkExtension xmlns:visugpx="https://www.visugpx.com/editgpx/">
            <visugpx:node>3</visugpx:node>
            </visugpx:TrkExtension>
        </extensions>
      </trkpt>
      <trkpt lat="42.51804" lon="2.45701">
        <ele>2686.3</ele>
        <time>2020-08-31T08:46:49.166Z</time>
        <extensions>
          <visugpx:TrkExtension xmlns:visugpx="https://www.visugpx.com/editgpx/">
            <visugpx:node>4</visugpx:node>
            </visugpx:TrkExtension>
        </extensions>
      </trkpt>
      <trkpt lat="42.51818" lon="2.45718">
        <ele>2700.6</ele>
        <time>2020-08-31T08:48:22.942Z</time>
        <extensions>
          <visugpx:TrkExtension xmlns:visugpx="https://www.visugpx.com/editgpx/">
            <visugpx:node>5</visugpx:node>
            </visugpx:TrkExtension>
        </extensions>
      </trkpt>
      <trkpt lat="42.51829" lon="2.45692">
        <ele>2705.5</ele>
        <time>2020-08-31T08:50:13.227Z</time>
        <extensions>
          <visugpx:TrkExtension xmlns:visugpx="https://www.visugpx.com/editgpx/">
            <visugpx:node>6</visugpx:node>
            </visugpx:TrkExtension>
        </extensions>
      </trkpt>
      <trkpt lat="42.51853" lon="2.45706">
        <ele>2732.5</ele>
        <time>2020-08-31T08:52:23.618Z</time>
        <extensions>
          <visugpx:TrkExtension xmlns:visugpx="https://www.visugpx.com/editgpx/">
            <visugpx:node>7</visugpx:node>
            </visugpx:TrkExtension>
        </extensions>
      </trkpt>
      <trkpt lat="42.5186" lon="2.45683">
        <ele>2735.5</ele>
        <time>2020-08-31T08:53:55.159Z</time>
        <extensions>
          <visugpx:TrkExtension xmlns:visugpx="https://www.visugpx.com/editgpx/">
            <visugpx:node>8</visugpx:node>
            </visugpx:TrkExtension>
        </extensions>
      </trkpt>
      <trkpt lat="42.51875" lon="2.45692">
        <ele>2749.2</ele>
        <time>2020-08-31T08:55:17.021Z</time>
        <extensions>
          <visugpx:TrkExtension xmlns:visugpx="https://www.visugpx.com/editgpx/">
            <visugpx:node>9</visugpx:node>
            </visugpx:TrkExtension>
        </extensions>
      </trkpt>
      <trkpt lat="42.51895" lon="2.4566">
        <ele>2776</ele>
        <time>2020-08-31T08:57:51.367Z</time>
        <extensions>
          <visugpx:TrkExtension xmlns:visugpx="https://www.visugpx.com/editgpx/">
            <visugpx:node>10</visugpx:node>
            </visugpx:TrkExtension>
        </extensions>
      </trkpt>
      <trkpt lat="42.51898" lon="2.45651">
        <ele>2774.4</ele>
        <time>2020-08-31T08:58:27.704Z</time>
        <extensions>
          <visugpx:TrkExtension xmlns:visugpx="https://www.visugpx.com/editgpx/">
            <visugpx:node>11</visugpx:node>
            </visugpx:TrkExtension>
        </extensions>
      </trkpt>
      <trkpt lat="42.51898" lon="2.45651">
        <ele>2774.4</ele>
        <time>2020-08-31T08:58:27.704Z</time>
      </trkpt>
      <trkpt lat="42.51899" lon="2.45651">
        <ele>2774.3</ele>
        <time>2020-08-31T08:58:32.695Z</time>
      </trkpt>
      <trkpt lat="42.51901" lon="2.45651">
        <ele>2774</ele>
        <time>2020-08-31T08:58:42.678Z</time>
      </trkpt>
      <trkpt lat="42.51903" lon="2.45651">
        <ele>2773.6</ele>
        <time>2020-08-31T08:58:52.660Z</time>
      </trkpt>
      <trkpt lat="42.51907" lon="2.45649">
        <ele>2772.6</ele>
        <time>2020-08-31T08:59:13.937Z</time>
      </trkpt>
      <trkpt lat="42.51913" lon="2.45647">
        <ele>2771</ele>
        <time>2020-08-31T08:59:44.775Z</time>
      </trkpt>
      <trkpt lat="42.51917" lon="2.45644">
        <ele>2769.4</ele>
        <time>2020-08-31T09:00:07.587Z</time>
      </trkpt>
      <trkpt lat="42.5192" lon="2.45643">
        <ele>2768.2</ele>
        <time>2020-08-31T09:00:23.005Z</time>
      </trkpt>
      <trkpt lat="42.51923" lon="2.45642">
        <ele>2767.1</ele>
        <time>2020-08-31T09:00:38.424Z</time>
      </trkpt>
      <trkpt lat="42.51928" lon="2.45645">
        <ele>2766.2</ele>
        <time>2020-08-31T09:01:05.711Z</time>
      </trkpt>
      <trkpt lat="42.51935" lon="2.45645">
        <ele>2764</ele>
        <time>2020-08-31T09:01:40.649Z</time>
      </trkpt>
      <trkpt lat="42.51942" lon="2.45646">
        <ele>2761.8</ele>
        <time>2020-08-31T09:02:15.781Z</time>
      </trkpt>
      <trkpt lat="42.51947" lon="2.45647">
        <ele>2760</ele>
        <time>2020-08-31T09:02:41.006Z</time>
      </trkpt>
      <trkpt lat="42.51952" lon="2.45647">
        <ele>2758.2</ele>
        <time>2020-08-31T09:03:05.962Z</time>
      </trkpt>
      <trkpt lat="42.51955" lon="2.45647">
        <ele>2757</ele>
        <time>2020-08-31T09:03:20.935Z</time>
      </trkpt>
      <trkpt lat="42.51959" lon="2.45648">
        <ele>2755.4</ele>
        <time>2020-08-31T09:03:41.236Z</time>
      </trkpt>
      <trkpt lat="42.51961" lon="2.45649">
        <ele>2754.6</ele>
        <time>2020-08-31T09:03:51.875Z</time>
      </trkpt>
      <trkpt lat="42.51961" lon="2.45648">
        <ele>2754.7</ele>
        <time>2020-08-31T09:03:55.553Z</time>
      </trkpt>
      <trkpt lat="42.5196" lon="2.45648">
        <ele>2755</ele>
        <time>2020-08-31T09:04:00.545Z</time>
      </trkpt>
      <trkpt lat="42.51959" lon="2.45647">
        <ele>2755.5</ele>
        <time>2020-08-31T09:04:06.745Z</time>
      </trkpt>
      <trkpt lat="42.51958" lon="2.45645">
        <ele>2756.1</ele>
        <time>2020-08-31T09:04:15.636Z</time>
      </trkpt>
      <trkpt lat="42.51957" lon="2.45644">
        <ele>2756.5</ele>
        <time>2020-08-31T09:04:21.836Z</time>
      </trkpt>
      <trkpt lat="42.51956" lon="2.45643">
        <ele>2756.9</ele>
        <time>2020-08-31T09:04:28.036Z</time>
      </trkpt>
      <trkpt lat="42.51953" lon="2.45642">
        <ele>2758.1</ele>
        <time>2020-08-31T09:04:43.455Z</time>
      </trkpt>
      <trkpt lat="42.51951" lon="2.4564">
        <ele>2758.8</ele>
        <time>2020-08-31T09:04:55.856Z</time>
      </trkpt>
      <trkpt lat="42.51949" lon="2.45637">
        <ele>2758.4</ele>
        <time>2020-08-31T09:05:10.737Z</time>
      </trkpt>
      <trkpt lat="42.51946" lon="2.45633">
        <ele>2757.1</ele>
        <time>2020-08-31T09:05:31.730Z</time>
      </trkpt>
      <trkpt lat="42.51942" lon="2.4563">
        <ele>2756.4</ele>
        <time>2020-08-31T09:05:54.542Z</time>
      </trkpt>
      <trkpt lat="42.5194" lon="2.45627">
        <ele>2755.1</ele>
        <time>2020-08-31T09:06:09.423Z</time>
      </trkpt>
      <trkpt lat="42.51938" lon="2.45626">
        <ele>2754.9</ele>
        <time>2020-08-31T09:06:20.062Z</time>
      </trkpt>
      <trkpt lat="42.51937" lon="2.45625">
        <ele>2754.5</ele>
        <time>2020-08-31T09:06:26.262Z</time>
      </trkpt>
      <trkpt lat="42.51936" lon="2.45623">
        <ele>2753.5</ele>
        <time>2020-08-31T09:06:35.153Z</time>
      </trkpt>
      <trkpt lat="42.51932" lon="2.4562">
        <ele>2752.3</ele>
        <time>2020-08-31T09:06:57.965Z</time>
      </trkpt>
      <trkpt lat="42.51929" lon="2.45619">
        <ele>2752.2</ele>
        <time>2020-08-31T09:07:13.384Z</time>
      </trkpt>
      <trkpt lat="42.51927" lon="2.45617">
        <ele>2751.3</ele>
        <time>2020-08-31T09:07:25.784Z</time>
      </trkpt>
      <trkpt lat="42.51925" lon="2.45615">
        <ele>2750.3</ele>
        <time>2020-08-31T09:07:38.185Z</time>
      </trkpt>
      <trkpt lat="42.51926" lon="2.45614">
        <ele>2749.5</ele>
        <time>2020-08-31T09:07:44.385Z</time>
      </trkpt>
      <trkpt lat="42.51927" lon="2.45614">
        <ele>2749.4</ele>
        <time>2020-08-31T09:07:49.377Z</time>
      </trkpt>
      <trkpt lat="42.51931" lon="2.45614">
        <ele>2748.8</ele>
        <time>2020-08-31T09:08:09.341Z</time>
      </trkpt>
      <trkpt lat="42.51934" lon="2.45614">
        <ele>2748.3</ele>
        <time>2020-08-31T09:08:24.315Z</time>
      </trkpt>
      <trkpt lat="42.51936" lon="2.45614">
        <ele>2748</ele>
        <time>2020-08-31T09:08:34.297Z</time>
      </trkpt>
      <trkpt lat="42.51939" lon="2.45614">
        <ele>2747.5</ele>
        <time>2020-08-31T09:08:49.271Z</time>
      </trkpt>
      <trkpt lat="42.51944" lon="2.45614">
        <ele>2746.7</ele>
        <time>2020-08-31T09:09:14.226Z</time>
      </trkpt>
      <trkpt lat="42.51947" lon="2.45616">
        <ele>2747</ele>
        <time>2020-08-31T09:09:30.910Z</time>
      </trkpt>
      <trkpt lat="42.51949" lon="2.45615">
        <ele>2745.8</ele>
        <time>2020-08-31T09:09:41.548Z</time>
      </trkpt>
      <trkpt lat="42.51953" lon="2.45616">
        <ele>2745</ele>
        <time>2020-08-31T09:10:01.849Z</time>
      </trkpt>
      <trkpt lat="42.5196" lon="2.45618">
        <ele>2743.9</ele>
        <time>2020-08-31T09:10:37.553Z</time>
      </trkpt>
      <trkpt lat="42.51962" lon="2.45617">
        <ele>2742.7</ele>
        <time>2020-08-31T09:10:48.192Z</time>
      </trkpt>
      <trkpt lat="42.51966" lon="2.45618">
        <ele>2742</ele>
        <time>2020-08-31T09:11:08.493Z</time>
      </trkpt>
      <trkpt lat="42.51971" lon="2.45619">
        <ele>2740.9</ele>
        <time>2020-08-31T09:11:33.718Z</time>
      </trkpt>
      <trkpt lat="42.51974" lon="2.4562">
        <ele>2740.4</ele>
        <time>2020-08-31T09:11:49.137Z</time>
      </trkpt>
      <trkpt lat="42.51977" lon="2.45621">
        <ele>2739.8</ele>
        <time>2020-08-31T09:12:04.556Z</time>
      </trkpt>
      <trkpt lat="42.51981" lon="2.45622">
        <ele>2738.7</ele>
        <time>2020-08-31T09:12:24.856Z</time>
      </trkpt>
      <trkpt lat="42.51982" lon="2.45622">
        <ele>2738.3</ele>
        <time>2020-08-31T09:12:29.848Z</time>
      </trkpt>
      <trkpt lat="42.51984" lon="2.45624">
        <ele>2738.6</ele>
        <time>2020-08-31T09:12:42.248Z</time>
      </trkpt>
      <trkpt lat="42.51985" lon="2.45625">
        <ele>2738.7</ele>
        <time>2020-08-31T09:12:48.449Z</time>
      </trkpt>
      <trkpt lat="42.51985" lon="2.45625">
        <ele>2738.7</ele>
        <time>2020-08-31T09:12:48.449Z</time>
      </trkpt>
      <trkpt lat="42.51986" lon="2.45624">
        <ele>2737.8</ele>
        <time>2020-08-31T09:12:54.649Z</time>
      </trkpt>
      <trkpt lat="42.51985" lon="2.45623">
        <ele>2737.7</ele>
        <time>2020-08-31T09:13:00.849Z</time>
      </trkpt>
      <trkpt lat="42.51984" lon="2.45622">
        <ele>2737.5</ele>
        <time>2020-08-31T09:13:07.050Z</time>
      </trkpt>
      <trkpt lat="42.51981" lon="2.45618">
        <ele>2736.6</ele>
        <time>2020-08-31T09:13:28.043Z</time>
      </trkpt>
      <trkpt lat="42.51979" lon="2.45615">
        <ele>2735.7</ele>
        <time>2020-08-31T09:13:42.924Z</time>
      </trkpt>
      <trkpt lat="42.51977" lon="2.45613">
        <ele>2735.3</ele>
        <time>2020-08-31T09:13:55.325Z</time>
      </trkpt>
      <trkpt lat="42.51976" lon="2.45611">
        <ele>2734.6</ele>
        <time>2020-08-31T09:14:04.216Z</time>
      </trkpt>
      <trkpt lat="42.51975" lon="2.45608">
        <ele>2733.3</ele>
        <time>2020-08-31T09:14:16.328Z</time>
      </trkpt>
      <trkpt lat="42.51973" lon="2.45607">
        <ele>2733.5</ele>
        <time>2020-08-31T09:14:26.966Z</time>
      </trkpt>
      <trkpt lat="42.51971" lon="2.45605">
        <ele>2733.1</ele>
        <time>2020-08-31T09:14:39.367Z</time>
      </trkpt>
      <trkpt lat="42.5197" lon="2.45603">
        <ele>2732.3</ele>
        <time>2020-08-31T09:14:48.258Z</time>
      </trkpt>
      <trkpt lat="42.51968" lon="2.45601">
        <ele>2731.9</ele>
        <time>2020-08-31T09:15:00.659Z</time>
      </trkpt>
      <trkpt lat="42.51967" lon="2.456">
        <ele>2731.6</ele>
        <time>2020-08-31T09:15:06.859Z</time>
      </trkpt>
      <trkpt lat="42.51965" lon="2.45599">
        <ele>2731.7</ele>
        <time>2020-08-31T09:15:17.498Z</time>
      </trkpt>
      <trkpt lat="42.51963" lon="2.45597">
        <ele>2731.2</ele>
        <time>2020-08-31T09:15:29.898Z</time>
      </trkpt>
      <trkpt lat="42.51962" lon="2.45596">
        <ele>2731</ele>
        <time>2020-08-31T09:15:36.099Z</time>
      </trkpt>
      <trkpt lat="42.51961" lon="2.45593">
        <ele>2729.6</ele>
        <time>2020-08-31T09:15:48.211Z</time>
      </trkpt>
      <trkpt lat="42.51963" lon="2.45593">
        <ele>2729</ele>
        <time>2020-08-31T09:15:58.193Z</time>
      </trkpt>
      <trkpt lat="42.51971" lon="2.45593">
        <ele>2726.6</ele>
        <time>2020-08-31T09:16:38.122Z</time>
      </trkpt>
      <trkpt lat="42.51973" lon="2.45593">
        <ele>2725.9</ele>
        <time>2020-08-31T09:16:48.105Z</time>
      </trkpt>
      <trkpt lat="42.51974" lon="2.45593">
        <ele>2725.5</ele>
        <time>2020-08-31T09:16:53.096Z</time>
      </trkpt>
      <trkpt lat="42.51976" lon="2.45594">
        <ele>2725.3</ele>
        <time>2020-08-31T09:17:03.735Z</time>
      </trkpt>
      <trkpt lat="42.5198" lon="2.45595">
        <ele>2724.3</ele>
        <time>2020-08-31T09:17:24.035Z</time>
      </trkpt>
      <trkpt lat="42.51989" lon="2.45599">
        <ele>2723.2</ele>
        <time>2020-08-31T09:18:11.304Z</time>
      </trkpt>
      <trkpt lat="42.51998" lon="2.45602">
        <ele>2721.5</ele>
        <time>2020-08-31T09:18:57.561Z</time>
      </trkpt>
      <trkpt lat="42.52007" lon="2.45605">
        <ele>2719.5</ele>
        <time>2020-08-31T09:19:43.817Z</time>
      </trkpt>
      <trkpt lat="42.52011" lon="2.45606">
        <ele>2718.3</ele>
        <time>2020-08-31T09:20:04.118Z</time>
      </trkpt>
      <trkpt lat="42.52015" lon="2.45606">
        <ele>2716.6</ele>
        <time>2020-08-31T09:20:24.082Z</time>
      </trkpt>
      <trkpt lat="42.52019" lon="2.45607">
        <ele>2715.4</ele>
        <time>2020-08-31T09:20:44.383Z</time>
      </trkpt>
      <trkpt lat="42.52021" lon="2.45609">
        <ele>2715.7</ele>
        <time>2020-08-31T09:20:56.784Z</time>
      </trkpt>
      <trkpt lat="42.52023" lon="2.4561">
        <ele>2715.4</ele>
        <time>2020-08-31T09:21:07.422Z</time>
      </trkpt>
      <trkpt lat="42.52024" lon="2.45611">
        <ele>2715.6</ele>
        <time>2020-08-31T09:21:13.623Z</time>
      </trkpt>
      <trkpt lat="42.52025" lon="2.45612">
        <ele>2715.4</ele>
        <time>2020-08-31T09:21:19.823Z</time>
      </trkpt>
      <trkpt lat="42.52026" lon="2.45612">
        <ele>2715</ele>
        <time>2020-08-31T09:21:24.814Z</time>
      </trkpt>
      <trkpt lat="42.52027" lon="2.45612">
        <ele>2714.6</ele>
        <time>2020-08-31T09:21:29.805Z</time>
      </trkpt>
      <trkpt lat="42.52027" lon="2.45611">
        <ele>2714.3</ele>
        <time>2020-08-31T09:21:33.484Z</time>
      </trkpt>
      <trkpt lat="42.52027" lon="2.4561">
        <ele>2713.7</ele>
        <time>2020-08-31T09:21:37.163Z</time>
      </trkpt>
      <trkpt lat="42.52026" lon="2.45608">
        <ele>2713</ele>
        <time>2020-08-31T09:21:46.053Z</time>
      </trkpt>
      <trkpt lat="42.52025" lon="2.45607">
        <ele>2712.8</ele>
        <time>2020-08-31T09:21:52.253Z</time>
      </trkpt>
      <trkpt lat="42.52022" lon="2.45603">
        <ele>2711.8</ele>
        <time>2020-08-31T09:22:13.247Z</time>
      </trkpt>
      <trkpt lat="42.5202" lon="2.456">
        <ele>2711</ele>
        <time>2020-08-31T09:22:28.128Z</time>
      </trkpt>
      <trkpt lat="42.52018" lon="2.45598">
        <ele>2710.7</ele>
        <time>2020-08-31T09:22:40.529Z</time>
      </trkpt>
      <trkpt lat="42.52017" lon="2.45597">
        <ele>2710.5</ele>
        <time>2020-08-31T09:22:46.729Z</time>
      </trkpt>
      <trkpt lat="42.52016" lon="2.45596">
        <ele>2710.4</ele>
        <time>2020-08-31T09:22:52.929Z</time>
      </trkpt>
      <trkpt lat="42.52015" lon="2.45595">
        <ele>2710.2</ele>
        <time>2020-08-31T09:22:59.130Z</time>
      </trkpt>
      <trkpt lat="42.52014" lon="2.45594">
        <ele>2710.1</ele>
        <time>2020-08-31T09:23:05.330Z</time>
      </trkpt>
      <trkpt lat="42.52013" lon="2.45591">
        <ele>2708.8</ele>
        <time>2020-08-31T09:23:17.442Z</time>
      </trkpt>
      <trkpt lat="42.52011" lon="2.45588">
        <ele>2707.9</ele>
        <time>2020-08-31T09:23:32.323Z</time>
      </trkpt>
      <trkpt lat="42.52008" lon="2.45585">
        <ele>2707.5</ele>
        <time>2020-08-31T09:23:50.924Z</time>
      </trkpt>
      <trkpt lat="42.52005" lon="2.45582">
        <ele>2707.1</ele>
        <time>2020-08-31T09:24:09.525Z</time>
      </trkpt>
      <trkpt lat="42.52003" lon="2.45579">
        <ele>2706.4</ele>
        <time>2020-08-31T09:24:24.406Z</time>
      </trkpt>
      <trkpt lat="42.52001" lon="2.45576">
        <ele>2705.6</ele>
        <time>2020-08-31T09:24:39.287Z</time>
      </trkpt>
      <trkpt lat="42.52" lon="2.45575">
        <ele>2705.5</ele>
        <time>2020-08-31T09:24:45.487Z</time>
        <extensions>
          <visugpx:TrkExtension xmlns:visugpx="https://www.visugpx.com/editgpx/">
            <visugpx:node>12</visugpx:node>
            </visugpx:TrkExtension>
        </extensions>
      </trkpt>
      <trkpt lat="42.51998" lon="2.45571">
        <ele>2704.1</ele>
        <time>2020-08-31T09:25:03.269Z</time>
      </trkpt>
      <trkpt lat="42.51993" lon="2.45565">
        <ele>2702.7</ele>
        <time>2020-08-31T09:25:36.585Z</time>
      </trkpt>
      <trkpt lat="42.51992" lon="2.45562">
        <ele>2701.4</ele>
        <time>2020-08-31T09:25:48.697Z</time>
      </trkpt>
      <trkpt lat="42.51989" lon="2.4556">
        <ele>2701.4</ele>
        <time>2020-08-31T09:26:05.380Z</time>
      </trkpt>
      <trkpt lat="42.51987" lon="2.45558">
        <ele>2701</ele>
        <time>2020-08-31T09:26:17.781Z</time>
      </trkpt>
      <trkpt lat="42.51986" lon="2.45556">
        <ele>2700.3</ele>
        <time>2020-08-31T09:26:26.672Z</time>
      </trkpt>
      <trkpt lat="42.51985" lon="2.45552">
        <ele>2698.5</ele>
        <time>2020-08-31T09:26:42.210Z</time>
      </trkpt>
      <trkpt lat="42.51982" lon="2.45549">
        <ele>2697.9</ele>
        <time>2020-08-31T09:27:00.811Z</time>
      </trkpt>
      <trkpt lat="42.51979" lon="2.45548">
        <ele>2698.5</ele>
        <time>2020-08-31T09:27:16.230Z</time>
      </trkpt>
      <trkpt lat="42.51978" lon="2.45547">
        <ele>2698.3</ele>
        <time>2020-08-31T09:27:22.430Z</time>
      </trkpt>
      <trkpt lat="42.51977" lon="2.45546">
        <ele>2698.1</ele>
        <time>2020-08-31T09:27:28.631Z</time>
      </trkpt>
      <trkpt lat="42.51977" lon="2.45543">
        <ele>2696.5</ele>
        <time>2020-08-31T09:27:39.667Z</time>
      </trkpt>
      <trkpt lat="42.51975" lon="2.4554">
        <ele>2695.6</ele>
        <time>2020-08-31T09:27:54.548Z</time>
      </trkpt>
      <trkpt lat="42.51975" lon="2.45539">
        <ele>2695.1</ele>
        <time>2020-08-31T09:27:58.226Z</time>
      </trkpt>
      <trkpt lat="42.51973" lon="2.45538">
        <ele>2695.2</ele>
        <time>2020-08-31T09:28:08.865Z</time>
      </trkpt>
      <trkpt lat="42.51972" lon="2.45538">
        <ele>2695.6</ele>
        <time>2020-08-31T09:28:13.856Z</time>
      </trkpt>
      <trkpt lat="42.5197" lon="2.45537">
        <ele>2695.4</ele>
        <time>2020-08-31T09:28:24.495Z</time>
      </trkpt>
      <trkpt lat="42.51969" lon="2.45536">
        <ele>2695</ele>
        <time>2020-08-31T09:28:30.695Z</time>
      </trkpt>
      <trkpt lat="42.51969" lon="2.45535">
        <ele>2694.4</ele>
        <time>2020-08-31T09:28:34.374Z</time>
      </trkpt>
      <trkpt lat="42.51968" lon="2.45534">
        <ele>2694</ele>
        <time>2020-08-31T09:28:40.574Z</time>
      </trkpt>
      <trkpt lat="42.51967" lon="2.45534">
        <ele>2694.1</ele>
        <time>2020-08-31T09:28:45.565Z</time>
      </trkpt>
      <trkpt lat="42.51966" lon="2.45533">
        <ele>2693.7</ele>
        <time>2020-08-31T09:28:51.766Z</time>
      </trkpt>
      <trkpt lat="42.51965" lon="2.45531">
        <ele>2692.7</ele>
        <time>2020-08-31T09:29:00.656Z</time>
      </trkpt>
      <trkpt lat="42.51964" lon="2.45529">
        <ele>2691.6</ele>
        <time>2020-08-31T09:29:09.547Z</time>
      </trkpt>
      <trkpt lat="42.51964" lon="2.45528">
        <ele>2691</ele>
        <time>2020-08-31T09:29:13.226Z</time>
      </trkpt>
      <trkpt lat="42.51964" lon="2.45527">
        <ele>2690.5</ele>
        <time>2020-08-31T09:29:16.904Z</time>
      </trkpt>
      <trkpt lat="42.51964" lon="2.45526">
        <ele>2690</ele>
        <time>2020-08-31T09:29:20.583Z</time>
      </trkpt>
      <trkpt lat="42.51964" lon="2.45526">
        <ele>2690</ele>
        <time>2020-08-31T09:29:20.583Z</time>
      </trkpt>
      <trkpt lat="42.51965" lon="2.45526">
        <ele>2689.9</ele>
        <time>2020-08-31T09:29:25.574Z</time>
      </trkpt>
      <trkpt lat="42.51967" lon="2.45527">
        <ele>2690.2</ele>
        <time>2020-08-31T09:29:36.213Z</time>
      </trkpt>
      <trkpt lat="42.51968" lon="2.45528">
        <ele>2690.6</ele>
        <time>2020-08-31T09:29:42.413Z</time>
      </trkpt>
      <trkpt lat="42.51969" lon="2.45529">
        <ele>2691</ele>
        <time>2020-08-31T09:29:48.613Z</time>
      </trkpt>
      <trkpt lat="42.5197" lon="2.4553">
        <ele>2691.5</ele>
        <time>2020-08-31T09:29:54.814Z</time>
      </trkpt>
      <trkpt lat="42.51971" lon="2.4553">
        <ele>2691.3</ele>
        <time>2020-08-31T09:29:59.805Z</time>
      </trkpt>
      <trkpt lat="42.51973" lon="2.45531">
        <ele>2691.5</ele>
        <time>2020-08-31T09:30:10.444Z</time>
      </trkpt>
      <trkpt lat="42.51977" lon="2.45531">
        <ele>2690</ele>
        <time>2020-08-31T09:30:30.408Z</time>
      </trkpt>
      <trkpt lat="42.51983" lon="2.45532">
        <ele>2688.4</ele>
        <time>2020-08-31T09:31:00.580Z</time>
      </trkpt>
      <trkpt lat="42.51989" lon="2.45533">
        <ele>2686.8</ele>
        <time>2020-08-31T09:31:30.752Z</time>
      </trkpt>
      <trkpt lat="42.51994" lon="2.45535">
        <ele>2686.1</ele>
        <time>2020-08-31T09:31:56.770Z</time>
      </trkpt>
      <trkpt lat="42.51997" lon="2.45538">
        <ele>2686.6</ele>
        <time>2020-08-31T09:32:15.371Z</time>
      </trkpt>
      <trkpt lat="42.51998" lon="2.45537">
        <ele>2685.7</ele>
        <time>2020-08-31T09:32:21.571Z</time>
      </trkpt>
      <trkpt lat="42.52" lon="2.45537">
        <ele>2685</ele>
        <time>2020-08-31T09:32:31.554Z</time>
      </trkpt>
      <trkpt lat="42.52001" lon="2.45537">
        <ele>2684.6</ele>
        <time>2020-08-31T09:32:36.545Z</time>
      </trkpt>
      <trkpt lat="42.52005" lon="2.45538">
        <ele>2683.5</ele>
        <time>2020-08-31T09:32:56.846Z</time>
      </trkpt>
      <trkpt lat="42.52008" lon="2.45539">
        <ele>2682.9</ele>
        <time>2020-08-31T09:33:12.264Z</time>
      </trkpt>
      <trkpt lat="42.52013" lon="2.4554">
        <ele>2681.5</ele>
        <time>2020-08-31T09:33:37.490Z</time>
      </trkpt>
      <trkpt lat="42.52024" lon="2.45547">
        <ele>2680.9</ele>
        <time>2020-08-31T09:34:38.131Z</time>
      </trkpt>
      <trkpt lat="42.5203" lon="2.45548">
        <ele>2678.8</ele>
        <time>2020-08-31T09:35:08.304Z</time>
      </trkpt>
      <trkpt lat="42.52032" lon="2.45551">
        <ele>2679.3</ele>
        <time>2020-08-31T09:35:23.184Z</time>
      </trkpt>
      <trkpt lat="42.52043" lon="2.45555">
        <ele>2675.5</ele>
        <time>2020-08-31T09:36:20.025Z</time>
      </trkpt>
      <trkpt lat="42.52053" lon="2.45563">
        <ele>2674.4</ele>
        <time>2020-08-31T09:37:17.967Z</time>
      </trkpt>
      <trkpt lat="42.52064" lon="2.45569">
        <ele>2673.2</ele>
        <time>2020-08-31T09:38:17.140Z</time>
      </trkpt>
      <trkpt lat="42.52071" lon="2.45569">
        <ele>2670.7</ele>
        <time>2020-08-31T09:38:52.078Z</time>
      </trkpt>
      <trkpt lat="42.52083" lon="2.45568">
        <ele>2665.7</ele>
        <time>2020-08-31T09:39:52.085Z</time>
      </trkpt>
      <trkpt lat="42.52093" lon="2.45573">
        <ele>2666.2</ele>
        <time>2020-08-31T09:40:45.277Z</time>
      </trkpt>
      <trkpt lat="42.52119" lon="2.45574">
        <ele>2659.2</ele>
        <time>2020-08-31T09:42:55.100Z</time>
      </trkpt>
      <trkpt lat="42.5212" lon="2.45574">
        <ele>2658.9</ele>
        <time>2020-08-31T09:43:00.091Z</time>
      </trkpt>
      <trkpt lat="42.52121" lon="2.45574">
        <ele>2658.5</ele>
        <time>2020-08-31T09:43:05.082Z</time>
      </trkpt>
      <trkpt lat="42.52121" lon="2.45573">
        <ele>2658.1</ele>
        <time>2020-08-31T09:43:08.761Z</time>
      </trkpt>
      <trkpt lat="42.52121" lon="2.45572">
        <ele>2657.7</ele>
        <time>2020-08-31T09:43:12.439Z</time>
      </trkpt>
      <trkpt lat="42.52121" lon="2.45571">
        <ele>2657.3</ele>
        <time>2020-08-31T09:43:16.118Z</time>
      </trkpt>
      <trkpt lat="42.5212" lon="2.4557">
        <ele>2657.2</ele>
        <time>2020-08-31T09:43:22.318Z</time>
      </trkpt>
      <trkpt lat="42.5212" lon="2.45569">
        <ele>2656.8</ele>
        <time>2020-08-31T09:43:25.997Z</time>
      </trkpt>
      <trkpt lat="42.5212" lon="2.45568">
        <ele>2656.4</ele>
        <time>2020-08-31T09:43:29.675Z</time>
      </trkpt>
      <trkpt lat="42.52121" lon="2.45567">
        <ele>2655.6</ele>
        <time>2020-08-31T09:43:35.876Z</time>
      </trkpt>
      <trkpt lat="42.52122" lon="2.45567">
        <ele>2655.3</ele>
        <time>2020-08-31T09:43:40.867Z</time>
      </trkpt>
      <trkpt lat="42.52125" lon="2.45567">
        <ele>2654.2</ele>
        <time>2020-08-31T09:43:55.840Z</time>
      </trkpt>
      <trkpt lat="42.52127" lon="2.45568">
        <ele>2654</ele>
        <time>2020-08-31T09:44:06.479Z</time>
      </trkpt>
      <trkpt lat="42.52133" lon="2.4557">
        <ele>2652.7</ele>
        <time>2020-08-31T09:44:37.316Z</time>
      </trkpt>
      <trkpt lat="42.52136" lon="2.4557">
        <ele>2651.7</ele>
        <time>2020-08-31T09:44:52.290Z</time>
      </trkpt>
      <trkpt lat="42.52136" lon="2.4557">
        <ele>2651.7</ele>
        <time>2020-08-31T09:44:52.290Z</time>
      </trkpt>
      <trkpt lat="42.52136" lon="2.45569">
        <ele>2651.3</ele>
        <time>2020-08-31T09:44:55.968Z</time>
      </trkpt>
      <trkpt lat="42.52135" lon="2.45568">
        <ele>2651.3</ele>
        <time>2020-08-31T09:45:02.169Z</time>
      </trkpt>
      <trkpt lat="42.52134" lon="2.45563">
        <ele>2649.6</ele>
        <time>2020-08-31T09:45:21.227Z</time>
      </trkpt>
      <trkpt lat="42.52132" lon="2.45559">
        <ele>2648.6</ele>
        <time>2020-08-31T09:45:39.008Z</time>
      </trkpt>
      <trkpt lat="42.5213" lon="2.45555">
        <ele>2647.6</ele>
        <time>2020-08-31T09:45:56.789Z</time>
      </trkpt>
      <trkpt lat="42.52127" lon="2.4555">
        <ele>2646.1</ele>
        <time>2020-08-31T09:46:20.506Z</time>
      </trkpt>
      <trkpt lat="42.52125" lon="2.45545">
        <ele>2644.2</ele>
        <time>2020-08-31T09:46:41.433Z</time>
      </trkpt>
      <trkpt lat="42.52124" lon="2.45544">
        <ele>2644</ele>
        <time>2020-08-31T09:46:47.634Z</time>
      </trkpt>
      <trkpt lat="42.52123" lon="2.45542">
        <ele>2643.2</ele>
        <time>2020-08-31T09:46:56.524Z</time>
      </trkpt>
      <trkpt lat="42.52123" lon="2.45541">
        <ele>2642.7</ele>
        <time>2020-08-31T09:47:00.203Z</time>
      </trkpt>
      <trkpt lat="42.52124" lon="2.45541">
        <ele>2642.5</ele>
        <time>2020-08-31T09:47:05.194Z</time>
      </trkpt>
      <trkpt lat="42.52124" lon="2.45541">
        <ele>2642.5</ele>
        <time>2020-08-31T09:47:05.194Z</time>
      </trkpt>
      <trkpt lat="42.52126" lon="2.45541">
        <ele>2641.9</ele>
        <time>2020-08-31T09:47:15.176Z</time>
      </trkpt>
      <trkpt lat="42.52129" lon="2.45543">
        <ele>2642</ele>
        <time>2020-08-31T09:47:31.860Z</time>
      </trkpt>
      <trkpt lat="42.52135" lon="2.4555">
        <ele>2643.6</ele>
        <time>2020-08-31T09:48:11.355Z</time>
      </trkpt>
      <trkpt lat="42.52141" lon="2.45555">
        <ele>2643.7</ele>
        <time>2020-08-31T09:48:46.500Z</time>
      </trkpt>
      <trkpt lat="42.52146" lon="2.45558">
        <ele>2642.3</ele>
        <time>2020-08-31T09:49:13.787Z</time>
      </trkpt>
      <trkpt lat="42.52147" lon="2.4556">
        <ele>2642.5</ele>
        <time>2020-08-31T09:49:22.677Z</time>
      </trkpt>
      <trkpt lat="42.52148" lon="2.4556">
        <ele>2642</ele>
        <time>2020-08-31T09:49:27.668Z</time>
      </trkpt>
      <trkpt lat="42.52149" lon="2.45561">
        <ele>2641.8</ele>
        <time>2020-08-31T09:49:33.868Z</time>
      </trkpt>
      <trkpt lat="42.52151" lon="2.45562">
        <ele>2641</ele>
        <time>2020-08-31T09:49:44.507Z</time>
      </trkpt>
      <trkpt lat="42.52153" lon="2.45563">
        <ele>2640.3</ele>
        <time>2020-08-31T09:49:55.146Z</time>
      </trkpt>
      <trkpt lat="42.52154" lon="2.45564">
        <ele>2640.1</ele>
        <time>2020-08-31T09:50:01.346Z</time>
      </trkpt>
      <trkpt lat="42.52156" lon="2.45565">
        <ele>2639.3</ele>
        <time>2020-08-31T09:50:11.984Z</time>
      </trkpt>
      <trkpt lat="42.52157" lon="2.45565">
        <ele>2638.7</ele>
        <time>2020-08-31T09:50:16.976Z</time>
      </trkpt>
      <trkpt lat="42.52158" lon="2.45565">
        <ele>2638.2</ele>
        <time>2020-08-31T09:50:21.967Z</time>
      </trkpt>
      <trkpt lat="42.52159" lon="2.45566">
        <ele>2637.9</ele>
        <time>2020-08-31T09:50:28.167Z</time>
      </trkpt>
      <trkpt lat="42.52162" lon="2.45568">
        <ele>2636.8</ele>
        <time>2020-08-31T09:50:44.850Z</time>
      </trkpt>
      <trkpt lat="42.52163" lon="2.45568">
        <ele>2636.2</ele>
        <time>2020-08-31T09:50:49.841Z</time>
      </trkpt>
      <trkpt lat="42.52162" lon="2.45566">
        <ele>2636.2</ele>
        <time>2020-08-31T09:50:58.732Z</time>
      </trkpt>
      <trkpt lat="42.5216" lon="2.45562">
        <ele>2636.2</ele>
        <time>2020-08-31T09:51:16.513Z</time>
      </trkpt>
      <trkpt lat="42.52158" lon="2.45557">
        <ele>2635.8</ele>
        <time>2020-08-31T09:51:37.440Z</time>
      </trkpt>
      <trkpt lat="42.52155" lon="2.45551">
        <ele>2634.7</ele>
        <time>2020-08-31T09:52:04.111Z</time>
      </trkpt>
      <trkpt lat="42.52152" lon="2.45543">
        <ele>2632.5</ele>
        <time>2020-08-31T09:52:37.130Z</time>
      </trkpt>
      <trkpt lat="42.52148" lon="2.45537">
        <ele>2631.7</ele>
        <time>2020-08-31T09:53:06.892Z</time>
      </trkpt>
      <trkpt lat="42.52145" lon="2.45532">
        <ele>2630.9</ele>
        <time>2020-08-31T09:53:30.609Z</time>
      </trkpt>
      <trkpt lat="42.52142" lon="2.45526">
        <ele>2629.5</ele>
        <time>2020-08-31T09:53:57.280Z</time>
      </trkpt>
      <trkpt lat="42.52139" lon="2.45523">
        <ele>2629.4</ele>
        <time>2020-08-31T09:54:15.881Z</time>
      </trkpt>
      <trkpt lat="42.52139" lon="2.45521">
        <ele>2628.3</ele>
        <time>2020-08-31T09:54:23.239Z</time>
      </trkpt>
      <trkpt lat="42.52139" lon="2.4552">
        <ele>2627.7</ele>
        <time>2020-08-31T09:54:26.917Z</time>
      </trkpt>
      <trkpt lat="42.5214" lon="2.4552">
        <ele>2627.3</ele>
        <time>2020-08-31T09:54:31.908Z</time>
      </trkpt>
      <trkpt lat="42.5214" lon="2.45521">
        <ele>2627.8</ele>
        <time>2020-08-31T09:54:35.587Z</time>
      </trkpt>
      <trkpt lat="42.52141" lon="2.45521">
        <ele>2627.3</ele>
        <time>2020-08-31T09:54:40.578Z</time>
      </trkpt>
      <trkpt lat="42.52142" lon="2.45521">
        <ele>2626.8</ele>
        <time>2020-08-31T09:54:45.569Z</time>
      </trkpt>
      <trkpt lat="42.52151" lon="2.45526">
        <ele>2625</ele>
        <time>2020-08-31T09:55:34.109Z</time>
      </trkpt>
      <trkpt lat="42.52174" lon="2.4554">
        <ele>2620.1</ele>
        <time>2020-08-31T09:57:39.929Z</time>
      </trkpt>
      <trkpt lat="42.52182" lon="2.45546">
        <ele>2619.2</ele>
        <time>2020-08-31T09:58:25.552Z</time>
      </trkpt>
      <trkpt lat="42.522" lon="2.45554">
        <ele>2614.8</ele>
        <time>2020-08-31T10:00:00.090Z</time>
      </trkpt>
      <trkpt lat="42.52225" lon="2.45567">
        <ele>2608.7</ele>
        <time>2020-08-31T10:02:13.719Z</time>
      </trkpt>
      <trkpt lat="42.52233" lon="2.4557">
        <ele>2606.6</ele>
        <time>2020-08-31T10:02:55.145Z</time>
      </trkpt>
      <trkpt lat="42.52247" lon="2.4557">
        <ele>2601.3</ele>
        <time>2020-08-31T10:04:05.021Z</time>
      </trkpt>
      <trkpt lat="42.52259" lon="2.45566">
        <ele>2558</ele>
        <time>2020-08-31T10:05:06.696Z</time>
      </trkpt>
      <trkpt lat="42.52268" lon="2.45568">
        <ele>2558</ele>
        <time>2020-08-31T10:05:18.498Z</time>
      </trkpt>
      <trkpt lat="42.5227" lon="2.45568">
        <ele>2558</ele>
        <time>2020-08-31T10:05:21.086Z</time>
      </trkpt>
      <trkpt lat="42.52278" lon="2.45566">
        <ele>2558</ele>
        <time>2020-08-31T10:05:31.612Z</time>
      </trkpt>
      <trkpt lat="42.52285" lon="2.45569">
        <ele>2558</ele>
        <time>2020-08-31T10:05:41.111Z</time>
      </trkpt>
      <trkpt lat="42.52287" lon="2.45572">
        <ele>2558</ele>
        <time>2020-08-31T10:05:44.969Z</time>
      </trkpt>
      <trkpt lat="42.52293" lon="2.45569">
        <ele>2558</ele>
        <time>2020-08-31T10:05:53.243Z</time>
      </trkpt>
      <trkpt lat="42.52305" lon="2.45567">
        <ele>2558</ele>
        <time>2020-08-31T10:06:08.888Z</time>
      </trkpt>
      <trkpt lat="42.52308" lon="2.45565">
        <ele>2558</ele>
        <time>2020-08-31T10:06:13.213Z</time>
      </trkpt>
      <trkpt lat="42.52316" lon="2.4556">
        <ele>2558</ele>
        <time>2020-08-31T10:06:24.611Z</time>
      </trkpt>
      <trkpt lat="42.52326" lon="2.45555">
        <ele>2558</ele>
        <time>2020-08-31T10:06:38.401Z</time>
      </trkpt>
      <trkpt lat="42.5234" lon="2.45546">
        <ele>2558</ele>
        <time>2020-08-31T10:06:58.448Z</time>
      </trkpt>
      <trkpt lat="42.52344" lon="2.4554">
        <ele>2558</ele>
        <time>2020-08-31T10:07:06.164Z</time>
      </trkpt>
      <trkpt lat="42.52348" lon="2.45538">
        <ele>2558</ele>
        <time>2020-08-31T10:07:11.680Z</time>
      </trkpt>
      <trkpt lat="42.52353" lon="2.45533">
        <ele>2558</ele>
        <time>2020-08-31T10:07:19.717Z</time>
      </trkpt>
      <trkpt lat="42.52366" lon="2.45533">
        <ele>2558</ele>
        <time>2020-08-31T10:07:36.539Z</time>
      </trkpt>
      <trkpt lat="42.52375" lon="2.45525">
        <ele>2558</ele>
        <time>2020-08-31T10:07:50.462Z</time>
      </trkpt>
      <trkpt lat="42.52385" lon="2.45521">
        <ele>2558</ele>
        <time>2020-08-31T10:08:03.953Z</time>
      </trkpt>
      <trkpt lat="42.52393" lon="2.45515">
        <ele>2558</ele>
        <time>2020-08-31T10:08:15.781Z</time>
      </trkpt>
      <trkpt lat="42.52396" lon="2.45515">
        <ele>2558</ele>
        <time>2020-08-31T10:08:19.663Z</time>
      </trkpt>
      <trkpt lat="42.52407" lon="2.45509">
        <ele>2558</ele>
        <time>2020-08-31T10:08:35.004Z</time>
      </trkpt>
      <trkpt lat="42.52429" lon="2.45495">
        <ele>2532.1</ele>
        <time>2020-08-31T10:08:41.074Z</time>
      </trkpt>
      <trkpt lat="42.5245" lon="2.45492">
        <ele>2534.8</ele>
        <time>2020-08-31T10:10:18.616Z</time>
      </trkpt>
      <trkpt lat="42.52459" lon="2.45489">
        <ele>2536</ele>
        <time>2020-08-31T10:11:02.373Z</time>
      </trkpt>
      <trkpt lat="42.52464" lon="2.45489">
        <ele>2537.1</ele>
        <time>2020-08-31T10:11:27.329Z</time>
      </trkpt>
      <trkpt lat="42.52468" lon="2.45487">
        <ele>2538</ele>
        <time>2020-08-31T10:11:48.606Z</time>
      </trkpt>
      <trkpt lat="42.52485" lon="2.45481">
        <ele>2540.6</ele>
        <time>2020-08-31T10:13:16.279Z</time>
      </trkpt>
      <trkpt lat="42.52518" lon="2.45471">
        <ele>2535.3</ele>
        <time>2020-08-31T10:13:24.726Z</time>
      </trkpt>
      <trkpt lat="42.52552" lon="2.45462">
        <ele>2530.3</ele>
        <time>2020-08-31T10:13:33.379Z</time>
      </trkpt>
      <trkpt lat="42.52569" lon="2.45455">
        <ele>2527.8</ele>
        <time>2020-08-31T10:13:37.817Z</time>
      </trkpt>
      <trkpt lat="42.52589" lon="2.45451">
        <ele>2518.5</ele>
        <time>2020-08-31T10:13:42.867Z</time>
      </trkpt>
      <trkpt lat="42.52605" lon="2.45447">
        <ele>2517.3</ele>
        <time>2020-08-31T10:13:46.931Z</time>
      </trkpt>
      <trkpt lat="42.52621" lon="2.45442">
        <ele>2516.2</ele>
        <time>2020-08-31T10:13:51.032Z</time>
      </trkpt>
      <trkpt lat="42.52633" lon="2.45438">
        <ele>2515.1</ele>
        <time>2020-08-31T10:13:54.119Z</time>
      </trkpt>
      <trkpt lat="42.52667" lon="2.45422">
        <ele>2508.7</ele>
        <time>2020-08-31T10:14:03.108Z</time>
      </trkpt>
      <trkpt lat="42.52676" lon="2.45414">
        <ele>2499.8</ele>
        <time>2020-08-31T10:14:05.796Z</time>
      </trkpt>
      <trkpt lat="42.52686" lon="2.45407">
        <ele>2493.6</ele>
        <time>2020-08-31T10:14:08.607Z</time>
      </trkpt>
      <trkpt lat="42.52696" lon="2.45402">
        <ele>2490.3</ele>
        <time>2020-08-31T10:14:11.269Z</time>
      </trkpt>
      <trkpt lat="42.52706" lon="2.45397">
        <ele>2487.8</ele>
        <time>2020-08-31T10:14:13.931Z</time>
      </trkpt>
      <trkpt lat="42.52723" lon="2.45392">
        <ele>2485.6</ele>
        <time>2020-08-31T10:14:18.276Z</time>
      </trkpt>
      <trkpt lat="42.5273" lon="2.45393">
        <ele>2485.3</ele>
        <time>2020-08-31T10:14:20.246Z</time>
      </trkpt>
      <trkpt lat="42.52732" lon="2.45392">
        <ele>2485.2</ele>
        <time>2020-08-31T10:14:20.819Z</time>
      </trkpt>
      <trkpt lat="42.52744" lon="2.45393">
        <ele>2485.3</ele>
        <time>2020-08-31T10:14:37.660Z</time>
      </trkpt>
      <trkpt lat="42.52766" lon="2.454">
        <ele>2473.9</ele>
        <time>2020-08-31T10:14:43.304Z</time>
      </trkpt>
      <trkpt lat="42.52772" lon="2.45403">
        <ele>2473</ele>
        <time>2020-08-31T10:14:44.902Z</time>
      </trkpt>
      <trkpt lat="42.52781" lon="2.45406">
        <ele>2470.6</ele>
        <time>2020-08-31T10:14:47.217Z</time>
      </trkpt>
      <trkpt lat="42.52793" lon="2.45412">
        <ele>2467.9</ele>
        <time>2020-08-31T10:14:50.411Z</time>
      </trkpt>
      <trkpt lat="42.52808" lon="2.45421">
        <ele>2473.4</ele>
        <time>2020-08-31T10:16:12.271Z</time>
      </trkpt>
      <trkpt lat="42.52821" lon="2.45433">
        <ele>2471.5</ele>
        <time>2020-08-31T10:16:16.198Z</time>
      </trkpt>
      <trkpt lat="42.52832" lon="2.45446">
        <ele>2471.7</ele>
        <time>2020-08-31T10:16:37.785Z</time>
      </trkpt>
      <trkpt lat="42.52839" lon="2.4546">
        <ele>2458.2</ele>
        <time>2020-08-31T10:16:40.900Z</time>
      </trkpt>
      <trkpt lat="42.52841" lon="2.45462">
        <ele>2458.1</ele>
        <time>2020-08-31T10:16:41.610Z</time>
      </trkpt>
      <trkpt lat="42.52843" lon="2.45463">
        <ele>2457.9</ele>
        <time>2020-08-31T10:16:42.143Z</time>
      </trkpt>
      <trkpt lat="42.52844" lon="2.45463">
        <ele>2457.9</ele>
        <time>2020-08-31T10:16:43.437Z</time>
      </trkpt>
      <trkpt lat="42.52845" lon="2.45463">
        <ele>2457.8</ele>
        <time>2020-08-31T10:16:43.687Z</time>
      </trkpt>
      <trkpt lat="42.52846" lon="2.45462">
        <ele>2457.7</ele>
        <time>2020-08-31T10:16:43.997Z</time>
      </trkpt>
      <trkpt lat="42.52847" lon="2.45461">
        <ele>2457.7</ele>
        <time>2020-08-31T10:16:45.604Z</time>
      </trkpt>
      <trkpt lat="42.52848" lon="2.4546">
        <ele>2457.6</ele>
        <time>2020-08-31T10:16:45.915Z</time>
      </trkpt>
      <trkpt lat="42.52848" lon="2.45458">
        <ele>2457.6</ele>
        <time>2020-08-31T10:16:47.822Z</time>
      </trkpt>
      <trkpt lat="42.52849" lon="2.45455">
        <ele>2457.5</ele>
        <time>2020-08-31T10:16:48.510Z</time>
      </trkpt>
      <trkpt lat="42.52851" lon="2.45449">
        <ele>2457.5</ele>
        <time>2020-08-31T10:16:54.790Z</time>
      </trkpt>
      <trkpt lat="42.52852" lon="2.45445">
        <ele>2457.7</ele>
        <time>2020-08-31T10:17:02.558Z</time>
      </trkpt>
      <trkpt lat="42.52852" lon="2.45442">
        <ele>2457.8</ele>
        <time>2020-08-31T10:17:07.409Z</time>
      </trkpt>
      <trkpt lat="42.52852" lon="2.45439">
        <ele>2458</ele>
        <time>2020-08-31T10:17:14.216Z</time>
      </trkpt>
      <trkpt lat="42.52852" lon="2.45438">
        <ele>2458.1</ele>
        <time>2020-08-31T10:17:17.894Z</time>
      </trkpt>
      <trkpt lat="42.52852" lon="2.45435">
        <ele>2458.4</ele>
        <time>2020-08-31T10:17:28.929Z</time>
      </trkpt>
      <trkpt lat="42.5285" lon="2.4543">
        <ele>2459</ele>
        <time>2020-08-31T10:17:49.854Z</time>
      </trkpt>
      <trkpt lat="42.52848" lon="2.45421">
        <ele>2460.1</ele>
        <time>2020-08-31T10:18:24.430Z</time>
      </trkpt>
      <trkpt lat="42.52848" lon="2.45416">
        <ele>2454.3</ele>
        <time>2020-08-31T10:18:25.351Z</time>
      </trkpt>
      <trkpt lat="42.52847" lon="2.45412">
        <ele>2453.9</ele>
        <time>2020-08-31T10:18:26.128Z</time>
      </trkpt>
      <trkpt lat="42.52847" lon="2.4541">
        <ele>2453.6</ele>
        <time>2020-08-31T10:18:26.496Z</time>
      </trkpt>
      <trkpt lat="42.52846" lon="2.45408">
        <ele>2453.1</ele>
        <time>2020-08-31T10:18:26.941Z</time>
      </trkpt>
      <trkpt lat="42.52846" lon="2.45406">
        <ele>2452.6</ele>
        <time>2020-08-31T10:18:27.309Z</time>
      </trkpt>
      <trkpt lat="42.52845" lon="2.45404">
        <ele>2452.2</ele>
        <time>2020-08-31T10:18:27.754Z</time>
      </trkpt>
      <trkpt lat="42.52845" lon="2.45403">
        <ele>2451.9</ele>
        <time>2020-08-31T10:18:27.938Z</time>
      </trkpt>
      <trkpt lat="42.52845" lon="2.45402">
        <ele>2451.5</ele>
        <time>2020-08-31T10:18:28.122Z</time>
      </trkpt>
      <trkpt lat="42.52845" lon="2.45402">
        <ele>2451.2</ele>
        <time>2020-08-31T10:18:28.122Z</time>
      </trkpt>
      <trkpt lat="42.52846" lon="2.45402">
        <ele>2451.2</ele>
        <time>2020-08-31T10:18:29.416Z</time>
      </trkpt>
      <trkpt lat="42.52846" lon="2.45402">
        <ele>2451.1</ele>
        <time>2020-08-31T10:18:29.416Z</time>
      </trkpt>
      <trkpt lat="42.52847" lon="2.45403">
        <ele>2451.1</ele>
        <time>2020-08-31T10:18:31.024Z</time>
      </trkpt>
      <trkpt lat="42.52848" lon="2.45403">
        <ele>2451</ele>
        <time>2020-08-31T10:18:31.274Z</time>
      </trkpt>
      <trkpt lat="42.5285" lon="2.45405">
        <ele>2450.9</ele>
        <time>2020-08-31T10:18:31.985Z</time>
      </trkpt>
      <trkpt lat="42.52854" lon="2.45409">
        <ele>2450.4</ele>
        <time>2020-08-31T10:18:33.226Z</time>
      </trkpt>
      <trkpt lat="42.52858" lon="2.45411">
        <ele>2449.2</ele>
        <time>2020-08-31T10:18:34.291Z</time>
      </trkpt>
      <trkpt lat="42.52861" lon="2.45413">
        <ele>2448.4</ele>
        <time>2020-08-31T10:18:35.126Z</time>
      </trkpt>
      <trkpt lat="42.52864" lon="2.45413">
        <ele>2447.6</ele>
        <time>2020-08-31T10:18:35.875Z</time>
      </trkpt>
      <trkpt lat="42.52868" lon="2.45412">
        <ele>2446.4</ele>
        <time>2020-08-31T10:18:36.891Z</time>
      </trkpt>
      <trkpt lat="42.52879" lon="2.45409">
        <ele>2444.1</ele>
        <time>2020-08-31T10:18:39.694Z</time>
      </trkpt>
      <trkpt lat="42.52888" lon="2.45405">
        <ele>2442.6</ele>
        <time>2020-08-31T10:18:42.059Z</time>
      </trkpt>
      <trkpt lat="42.52891" lon="2.45403">
        <ele>2442.2</ele>
        <time>2020-08-31T10:18:42.894Z</time>
      </trkpt>
      <trkpt lat="42.52892" lon="2.45402">
        <ele>2442</ele>
        <time>2020-08-31T10:18:43.205Z</time>
      </trkpt>
      <trkpt lat="42.52893" lon="2.45401">
        <ele>2441.9</ele>
        <time>2020-08-31T10:18:43.515Z</time>
      </trkpt>
      <trkpt lat="42.52894" lon="2.454">
        <ele>2441.7</ele>
        <time>2020-08-31T10:18:43.825Z</time>
      </trkpt>
      <trkpt lat="42.52897" lon="2.454">
        <ele>2441.6</ele>
        <time>2020-08-31T10:18:44.744Z</time>
      </trkpt>
      <trkpt lat="42.52901" lon="2.454">
        <ele>2441.5</ele>
        <time>2020-08-31T10:18:46.082Z</time>
      </trkpt>
      <trkpt lat="42.52904" lon="2.45399">
        <ele>2441.4</ele>
        <time>2020-08-31T10:18:47.037Z</time>
      </trkpt>
      <trkpt lat="42.52905" lon="2.45398">
        <ele>2441.3</ele>
        <time>2020-08-31T10:18:47.347Z</time>
      </trkpt>
      <trkpt lat="42.52906" lon="2.45396">
        <ele>2440.9</ele>
        <time>2020-08-31T10:18:47.792Z</time>
      </trkpt>
      <trkpt lat="42.52911" lon="2.45395">
        <ele>2440.5</ele>
        <time>2020-08-31T10:18:49.055Z</time>
      </trkpt>
      <trkpt lat="42.52912" lon="2.45395">
        <ele>2440.5</ele>
        <time>2020-08-31T10:18:50.349Z</time>
      </trkpt>
      <trkpt lat="42.52913" lon="2.45395">
        <ele>2440.5</ele>
        <time>2020-08-31T10:18:51.643Z</time>
      </trkpt>
      <trkpt lat="42.52914" lon="2.45394">
        <ele>2440.3</ele>
        <time>2020-08-31T10:18:51.953Z</time>
      </trkpt>
      <trkpt lat="42.52916" lon="2.45394">
        <ele>2440</ele>
        <time>2020-08-31T10:18:52.453Z</time>
      </trkpt>
      <trkpt lat="42.52928" lon="2.45388">
        <ele>2428.4</ele>
        <time>2020-08-31T10:18:55.647Z</time>
      </trkpt>
      <trkpt lat="42.52945" lon="2.4538">
        <ele>2424.7</ele>
        <time>2020-08-31T10:19:00.142Z</time>
      </trkpt>
      <trkpt lat="42.52949" lon="2.45376">
        <ele>2423.6</ele>
        <time>2020-08-31T10:19:01.383Z</time>
      </trkpt>
      <trkpt lat="42.52955" lon="2.45376">
        <ele>2423.1</ele>
        <time>2020-08-31T10:19:02.882Z</time>
      </trkpt>
      <trkpt lat="42.52975" lon="2.45366">
        <ele>2419.8</ele>
        <time>2020-08-31T10:19:08.206Z</time>
      </trkpt>
      <trkpt lat="42.52987" lon="2.45363">
        <ele>2418.2</ele>
        <time>2020-08-31T10:19:11.254Z</time>
      </trkpt>
      <trkpt lat="42.52996" lon="2.4536">
        <ele>2416.8</ele>
        <time>2020-08-31T10:19:13.569Z</time>
      </trkpt>
      <trkpt lat="42.53021" lon="2.45355">
        <ele>2407.8</ele>
        <time>2020-08-31T10:19:19.882Z</time>
      </trkpt>
      <trkpt lat="42.5304" lon="2.45352">
        <ele>2406.1</ele>
        <time>2020-08-31T10:19:24.660Z</time>
      </trkpt>
      <trkpt lat="42.53048" lon="2.45347">
        <ele>2404.8</ele>
        <time>2020-08-31T10:19:26.860Z</time>
      </trkpt>
      <trkpt lat="42.53056" lon="2.45347">
        <ele>2403.3</ele>
        <time>2020-08-31T10:19:28.858Z</time>
      </trkpt>
      <trkpt lat="42.53063" lon="2.45341">
        <ele>2400.9</ele>
        <time>2020-08-31T10:19:30.927Z</time>
      </trkpt>
      <trkpt lat="42.53092" lon="2.45327">
        <ele>2384.2</ele>
        <time>2020-08-31T10:19:38.615Z</time>
      </trkpt>
      <trkpt lat="42.531" lon="2.45325">
        <ele>2380.4</ele>
        <time>2020-08-31T10:19:40.647Z</time>
      </trkpt>
      <trkpt lat="42.53113" lon="2.45323">
        <ele>2377</ele>
        <time>2020-08-31T10:19:43.916Z</time>
      </trkpt>
      <trkpt lat="42.5312" lon="2.4532">
        <ele>2375.7</ele>
        <time>2020-08-31T10:19:45.749Z</time>
      </trkpt>
      <trkpt lat="42.53142" lon="2.45308">
        <ele>2373.1</ele>
        <time>2020-08-31T10:19:51.672Z</time>
      </trkpt>
      <trkpt lat="42.53166" lon="2.45291">
        <ele>2369.9</ele>
        <time>2020-08-31T10:19:58.435Z</time>
      </trkpt>
      <trkpt lat="42.53174" lon="2.45288">
        <ele>2361.2</ele>
        <time>2020-08-31T10:20:00.508Z</time>
      </trkpt>
      <trkpt lat="42.53179" lon="2.45287">
        <ele>2360.8</ele>
        <time>2020-08-31T10:20:01.771Z</time>
      </trkpt>
      <trkpt lat="42.53186" lon="2.45285">
        <ele>2360</ele>
        <time>2020-08-31T10:20:03.558Z</time>
      </trkpt>
      <trkpt lat="42.53206" lon="2.45262">
        <ele>2357.4</ele>
        <time>2020-08-31T10:20:10.106Z</time>
      </trkpt>
      <trkpt lat="42.53228" lon="2.45233">
        <ele>2348.8</ele>
        <time>2020-08-31T10:20:17.768Z</time>
      </trkpt>
      <trkpt lat="42.53234" lon="2.45231">
        <ele>2348.8</ele>
        <time>2020-08-31T10:20:25.763Z</time>
      </trkpt>
      <trkpt lat="42.53244" lon="2.4523">
        <ele>2349</ele>
        <time>2020-08-31T10:20:41.638Z</time>
      </trkpt>
      <trkpt lat="42.53253" lon="2.45225">
        <ele>2341.7</ele>
        <time>2020-08-31T10:20:44.067Z</time>
      </trkpt>
      <trkpt lat="42.53255" lon="2.45225">
        <ele>2341.6</ele>
        <time>2020-08-31T10:20:44.591Z</time>
      </trkpt>
      <trkpt lat="42.53256" lon="2.45225">
        <ele>2341.4</ele>
        <time>2020-08-31T10:20:44.841Z</time>
      </trkpt>
      <trkpt lat="42.53258" lon="2.45226">
        <ele>2341.4</ele>
        <time>2020-08-31T10:20:47.599Z</time>
      </trkpt>
      <trkpt lat="42.53259" lon="2.45226">
        <ele>2341.3</ele>
        <time>2020-08-31T10:20:47.849Z</time>
      </trkpt>
      <trkpt lat="42.53261" lon="2.45226">
        <ele>2340.9</ele>
        <time>2020-08-31T10:20:48.349Z</time>
      </trkpt>
      <trkpt lat="42.53263" lon="2.45225">
        <ele>2340.5</ele>
        <time>2020-08-31T10:20:48.881Z</time>
      </trkpt>
      <trkpt lat="42.53266" lon="2.45222">
        <ele>2339.7</ele>
        <time>2020-08-31T10:20:49.812Z</time>
      </trkpt>
      <trkpt lat="42.53274" lon="2.45212">
        <ele>2337.7</ele>
        <time>2020-08-31T10:20:52.529Z</time>
      </trkpt>
      <trkpt lat="42.53281" lon="2.452">
        <ele>2336.2</ele>
        <time>2020-08-31T10:20:55.346Z</time>
      </trkpt>
      <trkpt lat="42.53285" lon="2.45193">
        <ele>2335.4</ele>
        <time>2020-08-31T10:20:56.977Z</time>
      </trkpt>
      <trkpt lat="42.53288" lon="2.45186">
        <ele>2334.8</ele>
        <time>2020-08-31T10:20:58.467Z</time>
      </trkpt>
      <trkpt lat="42.5329" lon="2.45182">
        <ele>2334.5</ele>
        <time>2020-08-31T10:20:59.357Z</time>
      </trkpt>
      <trkpt lat="42.53291" lon="2.4518">
        <ele>2334.3</ele>
        <time>2020-08-31T10:20:59.802Z</time>
      </trkpt>
      <trkpt lat="42.53291" lon="2.45179">
        <ele>2334.1</ele>
        <time>2020-08-31T10:20:59.986Z</time>
      </trkpt>
      <trkpt lat="42.53292" lon="2.45181">
        <ele>2334</ele>
        <time>2020-08-31T10:21:00.429Z</time>
      </trkpt>
      <trkpt lat="42.53292" lon="2.45182">
        <ele>2334</ele>
        <time>2020-08-31T10:21:01.382Z</time>
      </trkpt>
      <trkpt lat="42.53292" lon="2.45185">
        <ele>2334</ele>
        <time>2020-08-31T10:21:04.243Z</time>
      </trkpt>
      <trkpt lat="42.53292" lon="2.4519">
        <ele>2334.1</ele>
        <time>2020-08-31T10:21:10.588Z</time>
      </trkpt>
      <trkpt lat="42.53292" lon="2.4519">
        <ele>2334.1</ele>
        <time>2020-08-31T10:21:10.588Z</time>
      </trkpt>
      <trkpt lat="42.53292" lon="2.45206">
        <ele>2334.4</ele>
        <time>2020-08-31T10:21:30.481Z</time>
      </trkpt>
      <trkpt lat="42.53298" lon="2.45257">
        <ele>2331</ele>
        <time>2020-08-31T10:21:39.988Z</time>
      </trkpt>
      <trkpt lat="42.53303" lon="2.4528">
        <ele>2329.6</ele>
        <time>2020-08-31T10:21:44.402Z</time>
      </trkpt>
      <trkpt lat="42.53304" lon="2.45285">
        <ele>2329.2</ele>
        <time>2020-08-31T10:21:45.355Z</time>
      </trkpt>
      <trkpt lat="42.53311" lon="2.45321">
        <ele>2323.9</ele>
        <time>2020-08-31T10:21:52.209Z</time>
      </trkpt>
      <trkpt lat="42.53312" lon="2.45334">
        <ele>2316.2</ele>
        <time>2020-08-31T10:21:54.615Z</time>
      </trkpt>
      <trkpt lat="42.53312" lon="2.45344">
        <ele>2316.2</ele>
        <time>2020-08-31T10:22:04.150Z</time>
      </trkpt>
      <trkpt lat="42.53313" lon="2.45378">
        <ele>2315.1</ele>
        <time>2020-08-31T10:22:11.087Z</time>
      </trkpt>
      <trkpt lat="42.53314" lon="2.45415">
        <ele>2308.5</ele>
        <time>2020-08-31T10:22:17.902Z</time>
      </trkpt>
      <trkpt lat="42.53318" lon="2.45413">
        <ele>2306.7</ele>
        <time>2020-08-31T10:22:18.967Z</time>
      </trkpt>
      <trkpt lat="42.53355" lon="2.45384">
        <ele>2285.8</ele>
        <time>2020-08-31T10:22:29.640Z</time>
      </trkpt>
      <trkpt lat="42.53362" lon="2.45379">
        <ele>2284.7</ele>
        <time>2020-08-31T10:22:31.616Z</time>
      </trkpt>
      <trkpt lat="42.53372" lon="2.45368">
        <ele>2282.8</ele>
        <time>2020-08-31T10:22:34.832Z</time>
      </trkpt>
      <trkpt lat="42.53377" lon="2.45357">
        <ele>2281.6</ele>
        <time>2020-08-31T10:22:37.211Z</time>
      </trkpt>
      <trkpt lat="42.53378" lon="2.45356">
        <ele>2281.4</ele>
        <time>2020-08-31T10:22:37.521Z</time>
      </trkpt>
      <trkpt lat="42.53378" lon="2.45354">
        <ele>2281.3</ele>
        <time>2020-08-31T10:22:37.889Z</time>
      </trkpt>
      <trkpt lat="42.53379" lon="2.45353">
        <ele>2281.2</ele>
        <time>2020-08-31T10:22:38.199Z</time>
      </trkpt>
      <trkpt lat="42.53379" lon="2.45353">
        <ele>2280.9</ele>
        <time>2020-08-31T10:22:38.199Z</time>
      </trkpt>
      <trkpt lat="42.5338" lon="2.45354">
        <ele>2280.7</ele>
        <time>2020-08-31T10:22:38.510Z</time>
      </trkpt>
      <trkpt lat="42.5338" lon="2.45355">
        <ele>2280.6</ele>
        <time>2020-08-31T10:22:38.694Z</time>
      </trkpt>
      <trkpt lat="42.5338" lon="2.45356">
        <ele>2280.6</ele>
        <time>2020-08-31T10:22:39.647Z</time>
      </trkpt>
      <trkpt lat="42.5338" lon="2.45357">
        <ele>2280.6</ele>
        <time>2020-08-31T10:22:40.601Z</time>
      </trkpt>
      <trkpt lat="42.5338" lon="2.45365">
        <ele>2280.8</ele>
        <time>2020-08-31T10:22:51.668Z</time>
      </trkpt>
      <trkpt lat="42.53379" lon="2.45389">
        <ele>2280.5</ele>
        <time>2020-08-31T10:22:58.174Z</time>
      </trkpt>
      <trkpt lat="42.53378" lon="2.45407">
        <ele>2280.1</ele>
        <time>2020-08-31T10:23:02.386Z</time>
      </trkpt>
      <trkpt lat="42.53378" lon="2.45408">
        <ele>2280.1</ele>
        <time>2020-08-31T10:23:03.340Z</time>
      </trkpt>
      <trkpt lat="42.53377" lon="2.45412">
        <ele>2280.3</ele>
        <time>2020-08-31T10:23:11.108Z</time>
      </trkpt>
      <trkpt lat="42.53375" lon="2.45413">
        <ele>2280.7</ele>
        <time>2020-08-31T10:23:21.746Z</time>
      </trkpt>
      <trkpt lat="42.53374" lon="2.45416">
        <ele>2281</ele>
        <time>2020-08-31T10:23:32.356Z</time>
      </trkpt>
      <trkpt lat="42.53374" lon="2.45419">
        <ele>2275.8</ele>
        <time>2020-08-31T10:23:32.908Z</time>
      </trkpt>
      <trkpt lat="42.53374" lon="2.45423">
        <ele>2275.6</ele>
        <time>2020-08-31T10:23:33.644Z</time>
      </trkpt>
      <trkpt lat="42.53374" lon="2.45429">
        <ele>2275.3</ele>
        <time>2020-08-31T10:23:34.748Z</time>
      </trkpt>
      <trkpt lat="42.53374" lon="2.45432">
        <ele>2275.1</ele>
        <time>2020-08-31T10:23:35.301Z</time>
      </trkpt>
      <trkpt lat="42.53374" lon="2.45434">
        <ele>2275</ele>
        <time>2020-08-31T10:23:35.669Z</time>
      </trkpt>
      <trkpt lat="42.53374" lon="2.45436">
        <ele>2275</ele>
        <time>2020-08-31T10:23:37.576Z</time>
      </trkpt>
      <trkpt lat="42.53373" lon="2.4544">
        <ele>2274.9</ele>
        <time>2020-08-31T10:23:38.541Z</time>
      </trkpt>
      <trkpt lat="42.53373" lon="2.45442">
        <ele>2274.9</ele>
        <time>2020-08-31T10:23:40.448Z</time>
      </trkpt>
      <trkpt lat="42.53373" lon="2.45445">
        <ele>2274.6</ele>
        <time>2020-08-31T10:23:41.000Z</time>
      </trkpt>
      <trkpt lat="42.53373" lon="2.45448">
        <ele>2274.3</ele>
        <time>2020-08-31T10:23:41.552Z</time>
      </trkpt>
      <trkpt lat="42.53373" lon="2.45451">
        <ele>2274.2</ele>
        <time>2020-08-31T10:23:42.156Z</time>
      </trkpt>
      <trkpt lat="42.53373" lon="2.45456">
        <ele>2273.8</ele>
        <time>2020-08-31T10:23:43.077Z</time>
      </trkpt>
      <trkpt lat="42.53373" lon="2.45463">
        <ele>2273.3</ele>
        <time>2020-08-31T10:23:44.365Z</time>
      </trkpt>
      <trkpt lat="42.53372" lon="2.45471">
        <ele>2273</ele>
        <time>2020-08-31T10:23:45.929Z</time>
      </trkpt>
      <trkpt lat="42.53371" lon="2.45476">
        <ele>2272.8</ele>
        <time>2020-08-31T10:23:46.908Z</time>
      </trkpt>
      <trkpt lat="42.53371" lon="2.4548">
        <ele>2272.7</ele>
        <time>2020-08-31T10:23:47.806Z</time>
      </trkpt>
      <trkpt lat="42.53371" lon="2.45484">
        <ele>2272.6</ele>
        <time>2020-08-31T10:23:48.703Z</time>
      </trkpt>
      <trkpt lat="42.5337" lon="2.45486">
        <ele>2272.8</ele>
        <time>2020-08-31T10:23:55.512Z</time>
      </trkpt>
      <trkpt lat="42.53369" lon="2.45487">
        <ele>2272.9</ele>
        <time>2020-08-31T10:23:59.024Z</time>
      </trkpt>
      <trkpt lat="42.5337" lon="2.45489">
        <ele>2272.7</ele>
        <time>2020-08-31T10:23:59.469Z</time>
      </trkpt>
      <trkpt lat="42.5337" lon="2.45493">
        <ele>2272.5</ele>
        <time>2020-08-31T10:24:00.206Z</time>
      </trkpt>
      <trkpt lat="42.5337" lon="2.45496">
        <ele>2272.4</ele>
        <time>2020-08-31T10:24:00.810Z</time>
      </trkpt>
      <trkpt lat="42.5337" lon="2.45498">
        <ele>2272.4</ele>
        <time>2020-08-31T10:24:02.717Z</time>
      </trkpt>
      <trkpt lat="42.53369" lon="2.455">
        <ele>2263.6</ele>
        <time>2020-08-31T10:24:03.162Z</time>
      </trkpt>
      <trkpt lat="42.53368" lon="2.45505">
        <ele>2263.8</ele>
        <time>2020-08-31T10:24:11.937Z</time>
      </trkpt>
      <trkpt lat="42.53365" lon="2.45513">
        <ele>2264.1</ele>
        <time>2020-08-31T10:24:26.461Z</time>
      </trkpt>
      <trkpt lat="42.53363" lon="2.45519">
        <ele>2263.7</ele>
        <time>2020-08-31T10:24:27.673Z</time>
      </trkpt>
      <trkpt lat="42.53364" lon="2.45521">
        <ele>2263.3</ele>
        <time>2020-08-31T10:24:28.118Z</time>
      </trkpt>
      <trkpt lat="42.53364" lon="2.45523">
        <ele>2263.1</ele>
        <time>2020-08-31T10:24:28.486Z</time>
      </trkpt>
      <trkpt lat="42.53363" lon="2.45526">
        <ele>2262.8</ele>
        <time>2020-08-31T10:24:29.092Z</time>
      </trkpt>
      <trkpt lat="42.53362" lon="2.45529">
        <ele>2262.7</ele>
        <time>2020-08-31T10:24:29.780Z</time>
      </trkpt>
      <trkpt lat="42.53357" lon="2.45543">
        <ele>2261.5</ele>
        <time>2020-08-31T10:24:32.644Z</time>
      </trkpt>
      <trkpt lat="42.53351" lon="2.45561">
        <ele>2260.8</ele>
        <time>2020-08-31T10:24:36.522Z</time>
      </trkpt>
      <trkpt lat="42.53337" lon="2.45596">
        <ele>2254.4</ele>
        <time>2020-08-31T10:24:43.852Z</time>
      </trkpt>
      <trkpt lat="42.53333" lon="2.4562">
        <ele>2263.3</ele>
        <time>2020-08-31T10:26:14.351Z</time>
      </trkpt>
      <trkpt lat="42.53328" lon="2.45644">
        <ele>2258</ele>
        <time>2020-08-31T10:26:18.942Z</time>
      </trkpt>
      <trkpt lat="42.53322" lon="2.45655">
        <ele>2254.7</ele>
        <time>2020-08-31T10:26:21.461Z</time>
      </trkpt>
      <trkpt lat="42.5332" lon="2.45663">
        <ele>2253.6</ele>
        <time>2020-08-31T10:26:23.016Z</time>
      </trkpt>
      <trkpt lat="42.53318" lon="2.45673">
        <ele>2244</ele>
        <time>2020-08-31T10:26:24.924Z</time>
      </trkpt>
      <trkpt lat="42.53318" lon="2.45684">
        <ele>2243.5</ele>
        <time>2020-08-31T10:26:26.852Z</time>
      </trkpt>
      <trkpt lat="42.53313" lon="2.45697">
        <ele>2242.6</ele>
        <time>2020-08-31T10:26:29.551Z</time>
      </trkpt>
      <trkpt lat="42.53312" lon="2.4571">
        <ele>2240.5</ele>
        <time>2020-08-31T10:26:31.957Z</time>
      </trkpt>
      <trkpt lat="42.53302" lon="2.45727">
        <ele>2239</ele>
        <time>2020-08-31T10:26:35.961Z</time>
      </trkpt>
      <trkpt lat="42.5329" lon="2.45755">
        <ele>2221.2</ele>
        <time>2020-08-31T10:26:41.923Z</time>
      </trkpt>
      <trkpt lat="42.53283" lon="2.45765">
        <ele>2221.4</ele>
        <time>2020-08-31T10:26:57.967Z</time>
      </trkpt>
      <trkpt lat="42.53246" lon="2.45792">
        <ele>2231.6</ele>
        <time>2020-08-31T10:30:27.646Z</time>
      </trkpt>
      <trkpt lat="42.53224" lon="2.45805">
        <ele>2230.6</ele>
        <time>2020-08-31T10:30:34.420Z</time>
      </trkpt>
      <trkpt lat="42.53206" lon="2.45812">
        <ele>2232.4</ele>
        <time>2020-08-31T10:31:35.140Z</time>
      </trkpt>
      <trkpt lat="42.53197" lon="2.45815">
        <ele>2233.1</ele>
        <time>2020-08-31T10:32:00.322Z</time>
      </trkpt>
      <trkpt lat="42.5319" lon="2.45821">
        <ele>2232.9</ele>
        <time>2020-08-31T10:32:03.117Z</time>
      </trkpt>
      <trkpt lat="42.5318" lon="2.45834">
        <ele>2219.3</ele>
        <time>2020-08-31T10:32:06.576Z</time>
      </trkpt>
      <trkpt lat="42.53171" lon="2.45848">
        <ele>2217.8</ele>
        <time>2020-08-31T10:32:09.996Z</time>
      </trkpt>
      <trkpt lat="42.53156" lon="2.45873">
        <ele>2221.4</ele>
        <time>2020-08-31T10:34:08.571Z</time>
      </trkpt>
      <trkpt lat="42.53144" lon="2.45897">
        <ele>2216.6</ele>
        <time>2020-08-31T10:34:13.910Z</time>
      </trkpt>
      <trkpt lat="42.53138" lon="2.45908">
        <ele>2215.9</ele>
        <time>2020-08-31T10:34:16.429Z</time>
      </trkpt>
      <trkpt lat="42.53133" lon="2.45923">
        <ele>2202.3</ele>
        <time>2020-08-31T10:34:19.459Z</time>
      </trkpt>
      <trkpt lat="42.5313" lon="2.45931">
        <ele>2202.4</ele>
        <time>2020-08-31T10:34:29.395Z</time>
      </trkpt>
      <trkpt lat="42.53127" lon="2.45938">
        <ele>2202.3</ele>
        <time>2020-08-31T10:34:31.591Z</time>
      </trkpt>
      <trkpt lat="42.53126" lon="2.45943">
        <ele>2202</ele>
        <time>2020-08-31T10:34:32.545Z</time>
      </trkpt>
      <trkpt lat="42.53126" lon="2.45947">
        <ele>2201.8</ele>
        <time>2020-08-31T10:34:33.281Z</time>
      </trkpt>
      <trkpt lat="42.53126" lon="2.45964">
        <ele>2200</ele>
        <time>2020-08-31T10:34:36.410Z</time>
      </trkpt>
      <trkpt lat="42.53131" lon="2.45973">
        <ele>2198.5</ele>
        <time>2020-08-31T10:34:38.485Z</time>
      </trkpt>
      <trkpt lat="42.5314" lon="2.45992">
        <ele>2194.6</ele>
        <time>2020-08-31T10:34:42.643Z</time>
      </trkpt>
      <trkpt lat="42.53141" lon="2.45994">
        <ele>2194.2</ele>
        <time>2020-08-31T10:34:43.088Z</time>
        <extensions>
          <visugpx:TrkExtension xmlns:visugpx="https://www.visugpx.com/editgpx/">
            <visugpx:node>13</visugpx:node>
            </visugpx:TrkExtension>
        </extensions>
      </trkpt>
      <trkpt lat="42.53152" lon="2.46015">
        <ele>2186.9</ele>
        <time>2020-08-31T10:34:47.831Z</time>
      </trkpt>
      <trkpt lat="42.53157" lon="2.46023">
        <ele>2187</ele>
        <time>2020-08-31T10:34:59.178Z</time>
      </trkpt>
      <trkpt lat="42.53169" lon="2.46035">
        <ele>2178.2</ele>
        <time>2020-08-31T10:35:02.901Z</time>
      </trkpt>
      <trkpt lat="42.5317" lon="2.46037">
        <ele>2178.1</ele>
        <time>2020-08-31T10:35:03.344Z</time>
      </trkpt>
      <trkpt lat="42.53171" lon="2.46042">
        <ele>2178</ele>
        <time>2020-08-31T10:35:04.605Z</time>
      </trkpt>
      <trkpt lat="42.53172" lon="2.46046">
        <ele>2177.9</ele>
        <time>2020-08-31T10:35:05.570Z</time>
      </trkpt>
      <trkpt lat="42.53173" lon="2.46051">
        <ele>2177.9</ele>
        <time>2020-08-31T10:35:10.510Z</time>
      </trkpt>
      <trkpt lat="42.53174" lon="2.46056">
        <ele>2177.9</ele>
        <time>2020-08-31T10:35:15.450Z</time>
      </trkpt>
      <trkpt lat="42.53175" lon="2.46058">
        <ele>2177.9</ele>
        <time>2020-08-31T10:35:17.755Z</time>
      </trkpt>
      <trkpt lat="42.53177" lon="2.46062">
        <ele>2177.9</ele>
        <time>2020-08-31T10:35:22.364Z</time>
      </trkpt>
      <trkpt lat="42.53181" lon="2.46064">
        <ele>2177.8</ele>
        <time>2020-08-31T10:35:23.815Z</time>
      </trkpt>
      <trkpt lat="42.53184" lon="2.46065">
        <ele>2177.7</ele>
        <time>2020-08-31T10:35:24.770Z</time>
      </trkpt>
      <trkpt lat="42.53187" lon="2.46065">
        <ele>2177.5</ele>
        <time>2020-08-31T10:35:25.456Z</time>
      </trkpt>
      <trkpt lat="42.53191" lon="2.46066">
        <ele>2177.3</ele>
        <time>2020-08-31T10:35:26.529Z</time>
      </trkpt>
      <trkpt lat="42.53195" lon="2.46067">
        <ele>2177.1</ele>
        <time>2020-08-31T10:35:27.603Z</time>
      </trkpt>
      <trkpt lat="42.53197" lon="2.46067">
        <ele>2176.9</ele>
        <time>2020-08-31T10:35:28.102Z</time>
      </trkpt>
      <trkpt lat="42.532" lon="2.46069">
        <ele>2176.7</ele>
        <time>2020-08-31T10:35:28.909Z</time>
      </trkpt>
      <trkpt lat="42.53202" lon="2.4607">
        <ele>2176.6</ele>
        <time>2020-08-31T10:35:29.482Z</time>
      </trkpt>
      <trkpt lat="42.53204" lon="2.46071">
        <ele>2176.5</ele>
        <time>2020-08-31T10:35:30.056Z</time>
      </trkpt>
      <trkpt lat="42.53206" lon="2.46073">
        <ele>2176.3</ele>
        <time>2020-08-31T10:35:30.677Z</time>
      </trkpt>
      <trkpt lat="42.53208" lon="2.46076">
        <ele>2176.2</ele>
        <time>2020-08-31T10:35:31.588Z</time>
      </trkpt>
      <trkpt lat="42.5321" lon="2.46078">
        <ele>2176</ele>
        <time>2020-08-31T10:35:32.208Z</time>
      </trkpt>
      <trkpt lat="42.53213" lon="2.4608">
        <ele>2175.8</ele>
        <time>2020-08-31T10:35:33.015Z</time>
      </trkpt>
      <trkpt lat="42.53215" lon="2.46082">
        <ele>2175.6</ele>
        <time>2020-08-31T10:35:33.635Z</time>
      </trkpt>
      <trkpt lat="42.53218" lon="2.46084">
        <ele>2173.7</ele>
        <time>2020-08-31T10:35:34.470Z</time>
      </trkpt>
      <trkpt lat="42.53221" lon="2.46084">
        <ele>2173.5</ele>
        <time>2020-08-31T10:35:35.157Z</time>
      </trkpt>
      <trkpt lat="42.53224" lon="2.46085">
        <ele>2173.3</ele>
        <time>2020-08-31T10:35:35.874Z</time>
      </trkpt>
      <trkpt lat="42.53227" lon="2.46085">
        <ele>2173.2</ele>
        <time>2020-08-31T10:35:36.793Z</time>
      </trkpt>
      <trkpt lat="42.5323" lon="2.46086">
        <ele>2173</ele>
        <time>2020-08-31T10:35:37.510Z</time>
      </trkpt>
      <trkpt lat="42.53233" lon="2.46088">
        <ele>2172.9</ele>
        <time>2020-08-31T10:35:38.570Z</time>
      </trkpt>
      <trkpt lat="42.53236" lon="2.4609">
        <ele>2172.8</ele>
        <time>2020-08-31T10:35:39.631Z</time>
      </trkpt>
      <trkpt lat="42.53239" lon="2.46091">
        <ele>2172.7</ele>
        <time>2020-08-31T10:35:40.586Z</time>
      </trkpt>
      <trkpt lat="42.53241" lon="2.46093">
        <ele>2172.6</ele>
        <time>2020-08-31T10:35:41.297Z</time>
      </trkpt>
      <trkpt lat="42.53244" lon="2.46094">
        <ele>2172.5</ele>
        <time>2020-08-31T10:35:42.252Z</time>
      </trkpt>
      <trkpt lat="42.53247" lon="2.46096">
        <ele>2172.5</ele>
        <time>2020-08-31T10:35:46.577Z</time>
      </trkpt>
      <trkpt lat="42.5325" lon="2.46098">
        <ele>2168.1</ele>
        <time>2020-08-31T10:35:47.412Z</time>
      </trkpt>
      <trkpt lat="42.53253" lon="2.46101">
        <ele>2167.6</ele>
        <time>2020-08-31T10:35:48.343Z</time>
      </trkpt>
      <trkpt lat="42.53257" lon="2.46104">
        <ele>2166.9</ele>
        <time>2020-08-31T10:35:49.485Z</time>
      </trkpt>
      <trkpt lat="42.53261" lon="2.46106">
        <ele>2166.4</ele>
        <time>2020-08-31T10:35:50.549Z</time>
      </trkpt>
      <trkpt lat="42.53263" lon="2.46108">
        <ele>2166</ele>
        <time>2020-08-31T10:35:51.170Z</time>
      </trkpt>
      <trkpt lat="42.53265" lon="2.46109">
        <ele>2165.8</ele>
        <time>2020-08-31T10:35:51.702Z</time>
      </trkpt>
      <trkpt lat="42.53267" lon="2.46111">
        <ele>2165.5</ele>
        <time>2020-08-31T10:35:52.323Z</time>
      </trkpt>
      <trkpt lat="42.53268" lon="2.46113">
        <ele>2165.2</ele>
        <time>2020-08-31T10:35:52.768Z</time>
      </trkpt>
      <trkpt lat="42.5327" lon="2.46115">
        <ele>2165</ele>
        <time>2020-08-31T10:35:53.388Z</time>
      </trkpt>
      <trkpt lat="42.53271" lon="2.46118">
        <ele>2164.8</ele>
        <time>2020-08-31T10:35:53.995Z</time>
      </trkpt>
      <trkpt lat="42.53278" lon="2.4613">
        <ele>2164</ele>
        <time>2020-08-31T10:35:56.812Z</time>
      </trkpt>
      <trkpt lat="42.53279" lon="2.46132">
        <ele>2163.8</ele>
        <time>2020-08-31T10:35:57.257Z</time>
      </trkpt>
      <trkpt lat="42.53281" lon="2.46137">
        <ele>2163.6</ele>
        <time>2020-08-31T10:35:58.377Z</time>
      </trkpt>
      <trkpt lat="42.53282" lon="2.4614">
        <ele>2163.5</ele>
        <time>2020-08-31T10:35:59.065Z</time>
      </trkpt>
      <trkpt lat="42.53284" lon="2.46144">
        <ele>2163.4</ele>
        <time>2020-08-31T10:36:00.217Z</time>
      </trkpt>
      <trkpt lat="42.53284" lon="2.46148">
        <ele>2163.3</ele>
        <time>2020-08-31T10:36:01.114Z</time>
      </trkpt>
      <trkpt lat="42.53285" lon="2.46151">
        <ele>2163.2</ele>
        <time>2020-08-31T10:36:01.802Z</time>
      </trkpt>
      <trkpt lat="42.53285" lon="2.46156">
        <ele>2163.1</ele>
        <time>2020-08-31T10:36:03.006Z</time>
      </trkpt>
      <trkpt lat="42.53286" lon="2.46165">
        <ele>2163.1</ele>
        <time>2020-08-31T10:36:11.685Z</time>
      </trkpt>
      <trkpt lat="42.53285" lon="2.46168">
        <ele>2163.9</ele>
        <time>2020-08-31T10:36:23.795Z</time>
      </trkpt>
      <trkpt lat="42.53285" lon="2.46176">
        <ele>2164</ele>
        <time>2020-08-31T10:36:32.827Z</time>
      </trkpt>
      <trkpt lat="42.53285" lon="2.4618">
        <ele>2164</ele>
        <time>2020-08-31T10:36:36.641Z</time>
      </trkpt>
      <trkpt lat="42.53285" lon="2.46185">
        <ele>2164</ele>
        <time>2020-08-31T10:36:41.409Z</time>
      </trkpt>
      <trkpt lat="42.53285" lon="2.46189">
        <ele>2164.1</ele>
        <time>2020-08-31T10:36:46.942Z</time>
      </trkpt>
      <trkpt lat="42.53286" lon="2.46193">
        <ele>2164.2</ele>
        <time>2020-08-31T10:36:52.650Z</time>
      </trkpt>
      <trkpt lat="42.53286" lon="2.46197">
        <ele>2164.2</ele>
        <time>2020-08-31T10:36:56.464Z</time>
      </trkpt>
      <trkpt lat="42.53286" lon="2.462">
        <ele>2164.2</ele>
        <time>2020-08-31T10:36:59.324Z</time>
      </trkpt>
      <trkpt lat="42.53287" lon="2.46202">
        <ele>2164.3</ele>
        <time>2020-08-31T10:37:03.523Z</time>
      </trkpt>
      <trkpt lat="42.53287" lon="2.46204">
        <ele>2164.3</ele>
        <time>2020-08-31T10:37:05.430Z</time>
      </trkpt>
      <trkpt lat="42.53288" lon="2.46207">
        <ele>2164.3</ele>
        <time>2020-08-31T10:37:08.570Z</time>
      </trkpt>
      <trkpt lat="42.53289" lon="2.46208">
        <ele>2164.2</ele>
        <time>2020-08-31T10:37:08.880Z</time>
      </trkpt>
      <trkpt lat="42.53291" lon="2.4621">
        <ele>2164.1</ele>
        <time>2020-08-31T10:37:09.591Z</time>
      </trkpt>
      <trkpt lat="42.53292" lon="2.46212">
        <ele>2164.1</ele>
        <time>2020-08-31T10:37:11.896Z</time>
      </trkpt>
      <trkpt lat="42.53295" lon="2.46213">
        <ele>2163.9</ele>
        <time>2020-08-31T10:37:12.613Z</time>
      </trkpt>
      <trkpt lat="42.53296" lon="2.46214">
        <ele>2163.8</ele>
        <time>2020-08-31T10:37:12.924Z</time>
      </trkpt>
      <trkpt lat="42.53298" lon="2.46215">
        <ele>2163.7</ele>
        <time>2020-08-31T10:37:13.497Z</time>
      </trkpt>
      <trkpt lat="42.533" lon="2.46217">
        <ele>2163.5</ele>
        <time>2020-08-31T10:37:14.118Z</time>
      </trkpt>
      <trkpt lat="42.53303" lon="2.46218">
        <ele>2163.4</ele>
        <time>2020-08-31T10:37:15.073Z</time>
      </trkpt>
      <trkpt lat="42.53305" lon="2.4622">
        <ele>2163.2</ele>
        <time>2020-08-31T10:37:15.694Z</time>
      </trkpt>
      <trkpt lat="42.53308" lon="2.46222">
        <ele>2163</ele>
        <time>2020-08-31T10:37:16.500Z</time>
      </trkpt>
      <trkpt lat="42.5331" lon="2.46224">
        <ele>2162.9</ele>
        <time>2020-08-31T10:37:17.211Z</time>
      </trkpt>
      <trkpt lat="42.53314" lon="2.46227">
        <ele>2162.7</ele>
        <time>2020-08-31T10:37:18.477Z</time>
      </trkpt>
      <trkpt lat="42.53317" lon="2.4623">
        <ele>2162.5</ele>
        <time>2020-08-31T10:37:19.423Z</time>
      </trkpt>
      <trkpt lat="42.53319" lon="2.46233">
        <ele>2162.2</ele>
        <time>2020-08-31T10:37:20.167Z</time>
      </trkpt>
      <trkpt lat="42.53322" lon="2.46236">
        <ele>2162</ele>
        <time>2020-08-31T10:37:21.113Z</time>
      </trkpt>
      <trkpt lat="42.53323" lon="2.46239">
        <ele>2161.8</ele>
        <time>2020-08-31T10:37:21.719Z</time>
      </trkpt>
      <trkpt lat="42.53325" lon="2.46243">
        <ele>2161.4</ele>
        <time>2020-08-31T10:37:22.609Z</time>
      </trkpt>
      <trkpt lat="42.53326" lon="2.46246">
        <ele>2161.1</ele>
        <time>2020-08-31T10:37:23.215Z</time>
      </trkpt>
      <trkpt lat="42.53327" lon="2.4625">
        <ele>2160.9</ele>
        <time>2020-08-31T10:37:23.941Z</time>
      </trkpt>
      <trkpt lat="42.53328" lon="2.46256">
        <ele>2160.9</ele>
        <time>2020-08-31T10:37:29.806Z</time>
      </trkpt>
      <trkpt lat="42.53328" lon="2.4626">
        <ele>2161.1</ele>
        <time>2020-08-31T10:37:37.359Z</time>
      </trkpt>
      <trkpt lat="42.53327" lon="2.46263">
        <ele>2161.3</ele>
        <time>2020-08-31T10:37:44.330Z</time>
      </trkpt>
      <trkpt lat="42.53327" lon="2.46266">
        <ele>2161.3</ele>
        <time>2020-08-31T10:37:47.191Z</time>
      </trkpt>
      <trkpt lat="42.53327" lon="2.46268">
        <ele>2161.4</ele>
        <time>2020-08-31T10:37:50.967Z</time>
      </trkpt>
      <trkpt lat="42.53326" lon="2.46271">
        <ele>2161.5</ele>
        <time>2020-08-31T10:37:56.011Z</time>
      </trkpt>
      <trkpt lat="42.53325" lon="2.46273">
        <ele>2161.5</ele>
        <time>2020-08-31T10:37:58.316Z</time>
      </trkpt>
      <trkpt lat="42.53325" lon="2.46277">
        <ele>2161.6</ele>
        <time>2020-08-31T10:38:03.849Z</time>
      </trkpt>
      <trkpt lat="42.53324" lon="2.4628">
        <ele>2161.5</ele>
        <time>2020-08-31T10:38:04.537Z</time>
      </trkpt>
      <trkpt lat="42.53324" lon="2.46286">
        <ele>2161.4</ele>
        <time>2020-08-31T10:38:06.056Z</time>
      </trkpt>
      <trkpt lat="42.53323" lon="2.4629">
        <ele>2161.3</ele>
        <time>2020-08-31T10:38:07.021Z</time>
      </trkpt>
      <trkpt lat="42.53322" lon="2.46296">
        <ele>2161.1</ele>
        <time>2020-08-31T10:38:08.272Z</time>
      </trkpt>
      <trkpt lat="42.53321" lon="2.46297">
        <ele>2161</ele>
        <time>2020-08-31T10:38:08.583Z</time>
      </trkpt>
      <trkpt lat="42.53319" lon="2.46299">
        <ele>2161</ele>
        <time>2020-08-31T10:38:11.797Z</time>
      </trkpt>
      <trkpt lat="42.53317" lon="2.46301">
        <ele>2161</ele>
        <time>2020-08-31T10:38:15.012Z</time>
      </trkpt>
      <trkpt lat="42.53315" lon="2.46303">
        <ele>2161</ele>
        <time>2020-08-31T10:38:18.227Z</time>
      </trkpt>
      <trkpt lat="42.53313" lon="2.46304">
        <ele>2161</ele>
        <time>2020-08-31T10:38:20.985Z</time>
      </trkpt>
      <trkpt lat="42.53311" lon="2.46306">
        <ele>2161.1</ele>
        <time>2020-08-31T10:38:26.077Z</time>
      </trkpt>
      <trkpt lat="42.5331" lon="2.46307">
        <ele>2161.1</ele>
        <time>2020-08-31T10:38:27.685Z</time>
      </trkpt>
      <trkpt lat="42.53308" lon="2.46308">
        <ele>2161.2</ele>
        <time>2020-08-31T10:38:32.412Z</time>
      </trkpt>
      <trkpt lat="42.53305" lon="2.46309">
        <ele>2161.3</ele>
        <time>2020-08-31T10:38:38.094Z</time>
      </trkpt>
      <trkpt lat="42.53303" lon="2.46311">
        <ele>2161.4</ele>
        <time>2020-08-31T10:38:43.186Z</time>
      </trkpt>
      <trkpt lat="42.53301" lon="2.46312">
        <ele>2161.5</ele>
        <time>2020-08-31T10:38:47.913Z</time>
      </trkpt>
      <trkpt lat="42.53299" lon="2.46313">
        <ele>2161.6</ele>
        <time>2020-08-31T10:38:52.641Z</time>
      </trkpt>
      <trkpt lat="42.53298" lon="2.46315">
        <ele>2161.7</ele>
        <time>2020-08-31T10:38:56.840Z</time>
      </trkpt>
      <trkpt lat="42.53296" lon="2.46316">
        <ele>2161.7</ele>
        <time>2020-08-31T10:38:59.598Z</time>
      </trkpt>
      <trkpt lat="42.53295" lon="2.46319">
        <ele>2161.7</ele>
        <time>2020-08-31T10:39:02.737Z</time>
      </trkpt>
      <trkpt lat="42.53294" lon="2.46322">
        <ele>2161.7</ele>
        <time>2020-08-31T10:39:05.877Z</time>
      </trkpt>
      <trkpt lat="42.53294" lon="2.46326">
        <ele>2161.6</ele>
        <time>2020-08-31T10:39:06.774Z</time>
      </trkpt>
      <trkpt lat="42.53294" lon="2.4633">
        <ele>2161.5</ele>
        <time>2020-08-31T10:39:07.671Z</time>
      </trkpt>
      <trkpt lat="42.53294" lon="2.46337">
        <ele>2158.2</ele>
        <time>2020-08-31T10:39:08.960Z</time>
      </trkpt>
      <trkpt lat="42.53294" lon="2.46342">
        <ele>2158.2</ele>
        <time>2020-08-31T10:39:13.727Z</time>
      </trkpt>
      <trkpt lat="42.53294" lon="2.46346">
        <ele>2158.1</ele>
        <time>2020-08-31T10:39:14.625Z</time>
      </trkpt>
      <trkpt lat="42.53294" lon="2.46349">
        <ele>2158.1</ele>
        <time>2020-08-31T10:39:17.485Z</time>
      </trkpt>
      <trkpt lat="42.53293" lon="2.46352">
        <ele>2158.1</ele>
        <time>2020-08-31T10:39:20.625Z</time>
      </trkpt>
      <trkpt lat="42.53292" lon="2.46354">
        <ele>2158.2</ele>
        <time>2020-08-31T10:39:24.824Z</time>
      </trkpt>
      <trkpt lat="42.53291" lon="2.46357">
        <ele>2158.2</ele>
        <time>2020-08-31T10:39:27.964Z</time>
      </trkpt>
      <trkpt lat="42.53289" lon="2.46361">
        <ele>2158.2</ele>
        <time>2020-08-31T10:39:32.573Z</time>
      </trkpt>
      <trkpt lat="42.53288" lon="2.46364">
        <ele>2158.1</ele>
        <time>2020-08-31T10:39:33.261Z</time>
      </trkpt>
      <trkpt lat="42.53288" lon="2.46367">
        <ele>2158.1</ele>
        <time>2020-08-31T10:39:36.121Z</time>
      </trkpt>
      <trkpt lat="42.53288" lon="2.46371">
        <ele>2158</ele>
        <time>2020-08-31T10:39:37.019Z</time>
      </trkpt>
      <trkpt lat="42.53289" lon="2.46374">
        <ele>2157.9</ele>
        <time>2020-08-31T10:39:37.707Z</time>
      </trkpt>
      <trkpt lat="42.53289" lon="2.46377">
        <ele>2157.8</ele>
        <time>2020-08-31T10:39:38.311Z</time>
      </trkpt>
      <trkpt lat="42.5329" lon="2.4638">
        <ele>2157.7</ele>
        <time>2020-08-31T10:39:38.998Z</time>
      </trkpt>
      <trkpt lat="42.53291" lon="2.46384">
        <ele>2157.6</ele>
        <time>2020-08-31T10:39:39.963Z</time>
      </trkpt>
      <trkpt lat="42.53292" lon="2.46387">
        <ele>2157.5</ele>
        <time>2020-08-31T10:39:40.651Z</time>
      </trkpt>
      <trkpt lat="42.53294" lon="2.46389">
        <ele>2157.4</ele>
        <time>2020-08-31T10:39:41.362Z</time>
      </trkpt>
      <trkpt lat="42.53295" lon="2.46391">
        <ele>2157.3</ele>
        <time>2020-08-31T10:39:41.805Z</time>
      </trkpt>
      <trkpt lat="42.53297" lon="2.46394">
        <ele>2157.2</ele>
        <time>2020-08-31T10:39:42.716Z</time>
      </trkpt>
      <trkpt lat="42.53299" lon="2.46396">
        <ele>2157.1</ele>
        <time>2020-08-31T10:39:43.427Z</time>
      </trkpt>
      <trkpt lat="42.53301" lon="2.46399">
        <ele>2156.9</ele>
        <time>2020-08-31T10:39:44.171Z</time>
      </trkpt>
      <trkpt lat="42.53303" lon="2.46401">
        <ele>2156.8</ele>
        <time>2020-08-31T10:39:44.882Z</time>
      </trkpt>
      <trkpt lat="42.53305" lon="2.46403">
        <ele>2156.7</ele>
        <time>2020-08-31T10:39:45.593Z</time>
      </trkpt>
      <trkpt lat="42.53307" lon="2.46405">
        <ele>2156.5</ele>
        <time>2020-08-31T10:39:46.214Z</time>
      </trkpt>
      <trkpt lat="42.5331" lon="2.46406">
        <ele>2156.3</ele>
        <time>2020-08-31T10:39:46.931Z</time>
      </trkpt>
      <trkpt lat="42.53313" lon="2.46407">
        <ele>2156.2</ele>
        <time>2020-08-31T10:39:47.886Z</time>
      </trkpt>
      <trkpt lat="42.53315" lon="2.46407">
        <ele>2156</ele>
        <time>2020-08-31T10:39:48.386Z</time>
      </trkpt>
      <trkpt lat="42.53318" lon="2.46408">
        <ele>2155.8</ele>
        <time>2020-08-31T10:39:49.103Z</time>
      </trkpt>
      <trkpt lat="42.5332" lon="2.46408">
        <ele>2155.6</ele>
        <time>2020-08-31T10:39:49.603Z</time>
      </trkpt>
      <trkpt lat="42.53324" lon="2.46409">
        <ele>2155.4</ele>
        <time>2020-08-31T10:39:50.676Z</time>
      </trkpt>
      <trkpt lat="42.53339" lon="2.46409">
        <ele>2153.6</ele>
        <time>2020-08-31T10:39:54.423Z</time>
      </trkpt>
      <trkpt lat="42.53342" lon="2.46419">
        <ele>2155.2</ele>
        <time>2020-08-31T10:40:34.133Z</time>
      </trkpt>
      <trkpt lat="42.53345" lon="2.46426">
        <ele>2155.8</ele>
        <time>2020-08-31T10:40:54.321Z</time>
      </trkpt>
      <trkpt lat="42.53348" lon="2.46431">
        <ele>2156.3</ele>
        <time>2020-08-31T10:41:11.169Z</time>
      </trkpt>
      <trkpt lat="42.53354" lon="2.46438">
        <ele>2156.8</ele>
        <time>2020-08-31T10:41:30.766Z</time>
      </trkpt>
      <trkpt lat="42.53357" lon="2.46441">
        <ele>2157</ele>
        <time>2020-08-31T10:41:39.405Z</time>
      </trkpt>
      <trkpt lat="42.53362" lon="2.46443">
        <ele>2157.2</ele>
        <time>2020-08-31T10:41:49.806Z</time>
      </trkpt>
      <trkpt lat="42.53367" lon="2.46446">
        <ele>2157.3</ele>
        <time>2020-08-31T10:41:58.304Z</time>
      </trkpt>
      <trkpt lat="42.53372" lon="2.46449">
        <ele>2157.5</ele>
        <time>2020-08-31T10:42:08.943Z</time>
      </trkpt>
      <trkpt lat="42.53379" lon="2.46452">
        <ele>2157.6</ele>
        <time>2020-08-31T10:42:19.796Z</time>
      </trkpt>
      <trkpt lat="42.53384" lon="2.46455">
        <ele>2157.7</ele>
        <time>2020-08-31T10:42:28.294Z</time>
      </trkpt>
      <trkpt lat="42.53388" lon="2.46456">
        <ele>2157.7</ele>
        <time>2020-08-31T10:42:33.557Z</time>
      </trkpt>
      <trkpt lat="42.53393" lon="2.46458">
        <ele>2157.7</ele>
        <time>2020-08-31T10:42:40.303Z</time>
      </trkpt>
      <trkpt lat="42.53396" lon="2.4646">
        <ele>2157.7</ele>
        <time>2020-08-31T10:42:44.628Z</time>
      </trkpt>
      <trkpt lat="42.53399" lon="2.46463">
        <ele>2157.8</ele>
        <time>2020-08-31T10:42:51.021Z</time>
      </trkpt>
      <trkpt lat="42.53403" lon="2.46467">
        <ele>2157.8</ele>
        <time>2020-08-31T10:42:57.451Z</time>
      </trkpt>
      <trkpt lat="42.53406" lon="2.46471">
        <ele>2157.8</ele>
        <time>2020-08-31T10:43:02.893Z</time>
      </trkpt>
      <trkpt lat="42.53411" lon="2.46479">
        <ele>2157.9</ele>
        <time>2020-08-31T10:43:14.240Z</time>
      </trkpt>
      <trkpt lat="42.53414" lon="2.46483">
        <ele>2158</ele>
        <time>2020-08-31T10:43:21.198Z</time>
      </trkpt>
      <trkpt lat="42.53415" lon="2.46489">
        <ele>2158</ele>
        <time>2020-08-31T10:43:27.063Z</time>
      </trkpt>
      <trkpt lat="42.53417" lon="2.46508">
        <ele>2155.8</ele>
        <time>2020-08-31T10:43:30.596Z</time>
      </trkpt>
      <trkpt lat="42.53424" lon="2.46533">
        <ele>2151.4</ele>
        <time>2020-08-31T10:43:35.519Z</time>
      </trkpt>
      <trkpt lat="42.53415" lon="2.46539">
        <ele>2155.6</ele>
        <time>2020-08-31T10:44:25.567Z</time>
      </trkpt>
      <trkpt lat="42.53413" lon="2.46541">
        <ele>2155.5</ele>
        <time>2020-08-31T10:44:26.278Z</time>
      </trkpt>
      <trkpt lat="42.5341" lon="2.46542">
        <ele>2155.4</ele>
        <time>2020-08-31T10:44:27.233Z</time>
      </trkpt>
      <trkpt lat="42.53407" lon="2.46544">
        <ele>2155.3</ele>
        <time>2020-08-31T10:44:28.293Z</time>
      </trkpt>
      <trkpt lat="42.53405" lon="2.46545">
        <ele>2155.3</ele>
        <time>2020-08-31T10:44:31.051Z</time>
      </trkpt>
      <trkpt lat="42.53403" lon="2.46547">
        <ele>2155.2</ele>
        <time>2020-08-31T10:44:31.762Z</time>
      </trkpt>
      <trkpt lat="42.534" lon="2.4655">
        <ele>2155.1</ele>
        <time>2020-08-31T10:44:32.984Z</time>
      </trkpt>
      <trkpt lat="42.53398" lon="2.46552">
        <ele>2155</ele>
        <time>2020-08-31T10:44:33.694Z</time>
      </trkpt>
      <trkpt lat="42.53395" lon="2.46556">
        <ele>2155</ele>
        <time>2020-08-31T10:44:39.137Z</time>
      </trkpt>
      <trkpt lat="42.53393" lon="2.46558">
        <ele>2154.9</ele>
        <time>2020-08-31T10:44:39.847Z</time>
      </trkpt>
      <trkpt lat="42.5339" lon="2.46562">
        <ele>2154.9</ele>
        <time>2020-08-31T10:44:45.290Z</time>
      </trkpt>
      <trkpt lat="42.53388" lon="2.46565">
        <ele>2155</ele>
        <time>2020-08-31T10:44:50.858Z</time>
      </trkpt>
      <trkpt lat="42.53386" lon="2.46568">
        <ele>2155</ele>
        <time>2020-08-31T10:44:54.716Z</time>
      </trkpt>
      <trkpt lat="42.53384" lon="2.46571">
        <ele>2155.3</ele>
        <time>2020-08-31T10:45:04.810Z</time>
      </trkpt>
      <trkpt lat="42.53381" lon="2.46574">
        <ele>2155.5</ele>
        <time>2020-08-31T10:45:13.449Z</time>
      </trkpt>
      <trkpt lat="42.53378" lon="2.46575">
        <ele>2155.9</ele>
        <time>2020-08-31T10:45:28.035Z</time>
      </trkpt>
      <trkpt lat="42.53375" lon="2.46578">
        <ele>2156.3</ele>
        <time>2020-08-31T10:45:41.541Z</time>
      </trkpt>
      <trkpt lat="42.53371" lon="2.46582">
        <ele>2156.9</ele>
        <time>2020-08-31T10:46:02.500Z</time>
      </trkpt>
      <trkpt lat="42.53367" lon="2.46584">
        <ele>2148.5</ele>
        <time>2020-08-31T10:46:03.565Z</time>
      </trkpt>
      <trkpt lat="42.53365" lon="2.46586">
        <ele>2148.9</ele>
        <time>2020-08-31T10:46:15.964Z</time>
      </trkpt>
      <trkpt lat="42.53363" lon="2.46589">
        <ele>2149.2</ele>
        <time>2020-08-31T10:46:26.058Z</time>
      </trkpt>
      <trkpt lat="42.5336" lon="2.46592">
        <ele>2149.6</ele>
        <time>2020-08-31T10:46:39.564Z</time>
      </trkpt>
      <trkpt lat="42.53357" lon="2.46594">
        <ele>2150</ele>
        <time>2020-08-31T10:46:53.479Z</time>
      </trkpt>
      <trkpt lat="42.53354" lon="2.46597">
        <ele>2150.3</ele>
        <time>2020-08-31T10:47:04.017Z</time>
      </trkpt>
      <trkpt lat="42.53352" lon="2.466">
        <ele>2150.4</ele>
        <time>2020-08-31T10:47:09.586Z</time>
      </trkpt>
      <trkpt lat="42.5335" lon="2.46602">
        <ele>2150.4</ele>
        <time>2020-08-31T10:47:12.800Z</time>
      </trkpt>
      <trkpt lat="42.53348" lon="2.46605">
        <ele>2150.2</ele>
        <time>2020-08-31T10:47:13.545Z</time>
      </trkpt>
      <trkpt lat="42.53345" lon="2.46608">
        <ele>2149.9</ele>
        <time>2020-08-31T10:47:14.476Z</time>
      </trkpt>
      <trkpt lat="42.53343" lon="2.4661">
        <ele>2149.5</ele>
        <time>2020-08-31T10:47:15.097Z</time>
      </trkpt>
      <trkpt lat="42.5334" lon="2.46613">
        <ele>2149.3</ele>
        <time>2020-08-31T10:47:16.043Z</time>
      </trkpt>
      <trkpt lat="42.53338" lon="2.46614">
        <ele>2149.2</ele>
        <time>2020-08-31T10:47:16.616Z</time>
      </trkpt>
      <trkpt lat="42.53335" lon="2.46615">
        <ele>2149</ele>
        <time>2020-08-31T10:47:17.334Z</time>
      </trkpt>
      <trkpt lat="42.53332" lon="2.46617">
        <ele>2162.4</ele>
        <time>2020-08-31T10:47:34.016Z</time>
      </trkpt>
      <trkpt lat="42.5333" lon="2.46619">
        <ele>2162.3</ele>
        <time>2020-08-31T10:47:34.727Z</time>
      </trkpt>
      <trkpt lat="42.53327" lon="2.46622">
        <ele>2162.2</ele>
        <time>2020-08-31T10:47:35.949Z</time>
      </trkpt>
      <trkpt lat="42.53325" lon="2.46625">
        <ele>2162</ele>
        <time>2020-08-31T10:47:36.693Z</time>
      </trkpt>
      <trkpt lat="42.53322" lon="2.46628">
        <ele>2161.8</ele>
        <time>2020-08-31T10:47:37.639Z</time>
      </trkpt>
      <trkpt lat="42.5332" lon="2.46632">
        <ele>2161.5</ele>
        <time>2020-08-31T10:47:38.529Z</time>
      </trkpt>
      <trkpt lat="42.53318" lon="2.46635">
        <ele>2161.3</ele>
        <time>2020-08-31T10:47:39.274Z</time>
      </trkpt>
      <trkpt lat="42.53315" lon="2.46639">
        <ele>2161.2</ele>
        <time>2020-08-31T10:47:40.700Z</time>
      </trkpt>
      <trkpt lat="42.53312" lon="2.46643">
        <ele>2161.1</ele>
        <time>2020-08-31T10:47:42.126Z</time>
      </trkpt>
      <trkpt lat="42.5331" lon="2.46646">
        <ele>2161.1</ele>
        <time>2020-08-31T10:47:45.983Z</time>
      </trkpt>
      <trkpt lat="42.53307" lon="2.4665">
        <ele>2161.2</ele>
        <time>2020-08-31T10:47:52.941Z</time>
      </trkpt>
      <trkpt lat="42.53304" lon="2.46654">
        <ele>2161.6</ele>
        <time>2020-08-31T10:48:06.450Z</time>
      </trkpt>
      <trkpt lat="42.53302" lon="2.46657">
        <ele>2161.9</ele>
        <time>2020-08-31T10:48:16.543Z</time>
      </trkpt>
      <trkpt lat="42.53299" lon="2.46661">
        <ele>2162.5</ele>
        <time>2020-08-31T10:48:37.535Z</time>
      </trkpt>
      <trkpt lat="42.53297" lon="2.46664">
        <ele>2163</ele>
        <time>2020-08-31T10:48:52.414Z</time>
      </trkpt>
      <trkpt lat="42.53295" lon="2.46668">
        <ele>2156.9</ele>
        <time>2020-08-31T10:48:53.304Z</time>
      </trkpt>
      <trkpt lat="42.53292" lon="2.46672">
        <ele>2157.6</ele>
        <time>2020-08-31T10:49:14.295Z</time>
      </trkpt>
      <trkpt lat="42.5329" lon="2.46675">
        <ele>2158.1</ele>
        <time>2020-08-31T10:49:29.174Z</time>
      </trkpt>
      <trkpt lat="42.53288" lon="2.46678">
        <ele>2158.5</ele>
        <time>2020-08-31T10:49:44.054Z</time>
      </trkpt>
      <trkpt lat="42.53285" lon="2.46681">
        <ele>2159.1</ele>
        <time>2020-08-31T10:50:02.653Z</time>
      </trkpt>
      <trkpt lat="42.53283" lon="2.46684">
        <ele>2159.6</ele>
        <time>2020-08-31T10:50:17.533Z</time>
      </trkpt>
      <trkpt lat="42.5328" lon="2.46686">
        <ele>2160.1</ele>
        <time>2020-08-31T10:50:34.215Z</time>
      </trkpt>
      <trkpt lat="42.53278" lon="2.46688">
        <ele>2160.5</ele>
        <time>2020-08-31T10:50:46.615Z</time>
      </trkpt>
      <trkpt lat="42.53275" lon="2.4669">
        <ele>2160.9</ele>
        <time>2020-08-31T10:51:00.530Z</time>
      </trkpt>
      <trkpt lat="42.53272" lon="2.46693">
        <ele>2161.2</ele>
        <time>2020-08-31T10:51:11.068Z</time>
      </trkpt>
      <trkpt lat="42.5327" lon="2.46695">
        <ele>2161.3</ele>
        <time>2020-08-31T10:51:16.160Z</time>
      </trkpt>
      <trkpt lat="42.53267" lon="2.46698">
        <ele>2161.6</ele>
        <time>2020-08-31T10:51:26.698Z</time>
      </trkpt>
      <trkpt lat="42.53265" lon="2.46699">
        <ele>2161.7</ele>
        <time>2020-08-31T10:51:31.426Z</time>
      </trkpt>
      <trkpt lat="42.53263" lon="2.46702">
        <ele>2161.7</ele>
        <time>2020-08-31T10:51:35.283Z</time>
      </trkpt>
      <trkpt lat="42.53261" lon="2.46704">
        <ele>2161.8</ele>
        <time>2020-08-31T10:51:40.375Z</time>
      </trkpt>
      <trkpt lat="42.53258" lon="2.46708">
        <ele>2161.8</ele>
        <time>2020-08-31T10:51:45.818Z</time>
      </trkpt>
      <trkpt lat="42.53256" lon="2.4671">
        <ele>2161.9</ele>
        <time>2020-08-31T10:51:50.910Z</time>
      </trkpt>
      <trkpt lat="42.53254" lon="2.46713">
        <ele>2162</ele>
        <time>2020-08-31T10:51:56.479Z</time>
      </trkpt>
      <trkpt lat="42.53253" lon="2.46715">
        <ele>2162.1</ele>
        <time>2020-08-31T10:52:00.677Z</time>
      </trkpt>
      <trkpt lat="42.53251" lon="2.46717">
        <ele>2162.4</ele>
        <time>2020-08-31T10:52:11.157Z</time>
      </trkpt>
      <trkpt lat="42.53248" lon="2.46719">
        <ele>2179.2</ele>
        <time>2020-08-31T10:52:27.840Z</time>
      </trkpt>
      <trkpt lat="42.53242" lon="2.46728">
        <ele>2178.6</ele>
        <time>2020-08-31T10:52:30.074Z</time>
      </trkpt>
      <trkpt lat="42.53242" lon="2.4673">
        <ele>2178.3</ele>
        <time>2020-08-31T10:52:30.442Z</time>
      </trkpt>
      <trkpt lat="42.53242" lon="2.46733">
        <ele>2177.8</ele>
        <time>2020-08-31T10:52:30.994Z</time>
      </trkpt>
      <trkpt lat="42.53242" lon="2.46736">
        <ele>2177.3</ele>
        <time>2020-08-31T10:52:31.546Z</time>
      </trkpt>
      <trkpt lat="42.53241" lon="2.46739">
        <ele>2176.9</ele>
        <time>2020-08-31T10:52:32.152Z</time>
      </trkpt>
      <trkpt lat="42.53241" lon="2.46742">
        <ele>2176.5</ele>
        <time>2020-08-31T10:52:32.705Z</time>
      </trkpt>
      <trkpt lat="42.5324" lon="2.46745">
        <ele>2176.2</ele>
        <time>2020-08-31T10:52:33.311Z</time>
      </trkpt>
      <trkpt lat="42.53238" lon="2.46751">
        <ele>2175.3</ele>
        <time>2020-08-31T10:52:34.523Z</time>
      </trkpt>
      <trkpt lat="42.53236" lon="2.46755">
        <ele>2175.9</ele>
        <time>2020-08-31T10:52:52.302Z</time>
      </trkpt>
      <trkpt lat="42.53231" lon="2.46768">
        <ele>2177.4</ele>
        <time>2020-08-31T10:53:46.236Z</time>
      </trkpt>
      <trkpt lat="42.53227" lon="2.46776">
        <ele>2178.2</ele>
        <time>2020-08-31T10:54:13.472Z</time>
      </trkpt>
      <trkpt lat="42.53225" lon="2.46782">
        <ele>2178.4</ele>
        <time>2020-08-31T10:54:23.560Z</time>
      </trkpt>
      <trkpt lat="42.53223" lon="2.46786">
        <ele>2178.6</ele>
        <time>2020-08-31T10:54:31.958Z</time>
      </trkpt>
      <trkpt lat="42.53219" lon="2.46792">
        <ele>2178.8</ele>
        <time>2020-08-31T10:54:43.095Z</time>
      </trkpt>
      <trkpt lat="42.53217" lon="2.46799">
        <ele>2179</ele>
        <time>2020-08-31T10:54:53.798Z</time>
      </trkpt>
      <trkpt lat="42.53213" lon="2.46816">
        <ele>2179</ele>
        <time>2020-08-31T10:55:10.815Z</time>
      </trkpt>
      <trkpt lat="42.53209" lon="2.46829">
        <ele>2180.1</ele>
        <time>2020-08-31T10:55:47.902Z</time>
      </trkpt>
      <trkpt lat="42.53207" lon="2.46834">
        <ele>2174.8</ele>
        <time>2020-08-31T10:55:48.949Z</time>
      </trkpt>
      <trkpt lat="42.53203" lon="2.46851">
        <ele>2175.3</ele>
        <time>2020-08-31T10:56:15.059Z</time>
      </trkpt>
      <trkpt lat="42.53203" lon="2.46857">
        <ele>2174.9</ele>
        <time>2020-08-31T10:56:16.164Z</time>
      </trkpt>
      <trkpt lat="42.53202" lon="2.46863">
        <ele>2174.4</ele>
        <time>2020-08-31T10:56:17.296Z</time>
      </trkpt>
      <trkpt lat="42.53202" lon="2.46868">
        <ele>2174.1</ele>
        <time>2020-08-31T10:56:18.217Z</time>
      </trkpt>
      <trkpt lat="42.53201" lon="2.46875">
        <ele>2173.7</ele>
        <time>2020-08-31T10:56:19.529Z</time>
      </trkpt>
      <trkpt lat="42.532" lon="2.46879">
        <ele>2173.7</ele>
        <time>2020-08-31T10:56:23.557Z</time>
      </trkpt>
      <trkpt lat="42.53199" lon="2.46883">
        <ele>2173.7</ele>
        <time>2020-08-31T10:56:27.585Z</time>
      </trkpt>
      <trkpt lat="42.53197" lon="2.46888">
        <ele>2173.8</ele>
        <time>2020-08-31T10:56:34.526Z</time>
      </trkpt>
      <trkpt lat="42.53195" lon="2.46893">
        <ele>2174.3</ele>
        <time>2020-08-31T10:56:51.894Z</time>
      </trkpt>
      <trkpt lat="42.53192" lon="2.46898">
        <ele>2175.1</ele>
        <time>2020-08-31T10:57:15.609Z</time>
      </trkpt>
      <trkpt lat="42.5319" lon="2.46901">
        <ele>2176</ele>
        <time>2020-08-31T10:57:30.488Z</time>
      </trkpt>
      <trkpt lat="42.53187" lon="2.46905">
        <ele>2177.2</ele>
        <time>2020-08-31T10:57:51.480Z</time>
      </trkpt>
      <trkpt lat="42.53185" lon="2.46908">
        <ele>2178.1</ele>
        <time>2020-08-31T10:58:06.359Z</time>
      </trkpt>
      <trkpt lat="42.53184" lon="2.46911">
        <ele>2178.9</ele>
        <time>2020-08-31T10:58:18.469Z</time>
      </trkpt>
      <trkpt lat="42.53182" lon="2.46914">
        <ele>2180</ele>
        <time>2020-08-31T10:58:33.349Z</time>
      </trkpt>
      <trkpt lat="42.53178" lon="2.46918">
        <ele>2175</ele>
        <time>2020-08-31T10:58:34.590Z</time>
      </trkpt>
      <trkpt lat="42.53176" lon="2.46921">
        <ele>2176.1</ele>
        <time>2020-08-31T10:58:49.469Z</time>
      </trkpt>
      <trkpt lat="42.53174" lon="2.46924">
        <ele>2176.1</ele>
        <time>2020-08-31T10:58:53.327Z</time>
      </trkpt>
      <trkpt lat="42.53173" lon="2.46927">
        <ele>2175.2</ele>
        <time>2020-08-31T10:58:53.933Z</time>
      </trkpt>
      <trkpt lat="42.5317" lon="2.4693">
        <ele>2173.7</ele>
        <time>2020-08-31T10:58:54.864Z</time>
      </trkpt>
      <trkpt lat="42.53169" lon="2.46932">
        <ele>2172.6</ele>
        <time>2020-08-31T10:58:55.309Z</time>
      </trkpt>
      <trkpt lat="42.53167" lon="2.46935">
        <ele>2170.5</ele>
        <time>2020-08-31T10:58:56.054Z</time>
      </trkpt>
      <trkpt lat="42.53166" lon="2.46938">
        <ele>2186.8</ele>
        <time>2020-08-31T10:59:08.164Z</time>
      </trkpt>
      <trkpt lat="42.53164" lon="2.46941">
        <ele>2186.5</ele>
        <time>2020-08-31T10:59:08.909Z</time>
      </trkpt>
      <trkpt lat="42.53162" lon="2.46943">
        <ele>2186.3</ele>
        <time>2020-08-31T10:59:09.529Z</time>
      </trkpt>
      <trkpt lat="42.5316" lon="2.46944">
        <ele>2186.2</ele>
        <time>2020-08-31T10:59:10.103Z</time>
      </trkpt>
      <trkpt lat="42.53154" lon="2.46948">
        <ele>2186.1</ele>
        <time>2020-08-31T10:59:12.619Z</time>
      </trkpt>
      <trkpt lat="42.53151" lon="2.4695">
        <ele>2186.1</ele>
        <time>2020-08-31T10:59:16.944Z</time>
      </trkpt>
      <trkpt lat="42.53148" lon="2.46952">
        <ele>2186.1</ele>
        <time>2020-08-31T10:59:21.269Z</time>
      </trkpt>
      <trkpt lat="42.53146" lon="2.46954">
        <ele>2186</ele>
        <time>2020-08-31T10:59:21.980Z</time>
      </trkpt>
      <trkpt lat="42.53143" lon="2.46956">
        <ele>2186.1</ele>
        <time>2020-08-31T10:59:27.938Z</time>
      </trkpt>
      <trkpt lat="42.53139" lon="2.46959">
        <ele>2186.1</ele>
        <time>2020-08-31T10:59:33.852Z</time>
      </trkpt>
      <trkpt lat="42.53136" lon="2.4696">
        <ele>2186.3</ele>
        <time>2020-08-31T10:59:41.589Z</time>
      </trkpt>
      <trkpt lat="42.53131" lon="2.46963">
        <ele>2186.6</ele>
        <time>2020-08-31T10:59:54.366Z</time>
      </trkpt>
      <trkpt lat="42.53127" lon="2.46966">
        <ele>2187</ele>
        <time>2020-08-31T11:00:08.078Z</time>
      </trkpt>
      <trkpt lat="42.53124" lon="2.46967">
        <ele>2187.4</ele>
        <time>2020-08-31T11:00:22.664Z</time>
      </trkpt>
      <trkpt lat="42.53119" lon="2.4697">
        <ele>2187.9</ele>
        <time>2020-08-31T11:00:39.647Z</time>
      </trkpt>
      <trkpt lat="42.53117" lon="2.46971">
        <ele>2188.1</ele>
        <time>2020-08-31T11:00:46.413Z</time>
      </trkpt>
      <trkpt lat="42.53116" lon="2.46972">
        <ele>2188.2</ele>
        <time>2020-08-31T11:00:49.926Z</time>
        <extensions>
          <visugpx:TrkExtension xmlns:visugpx="https://www.visugpx.com/editgpx/">
            <visugpx:node>14</visugpx:node>
            </visugpx:TrkExtension>
        </extensions>
      </trkpt>
      <trkpt lat="42.53114" lon="2.46973">
        <ele>2188.3</ele>
        <time>2020-08-31T11:00:54.653Z</time>
      </trkpt>
      <trkpt lat="42.53112" lon="2.46975">
        <ele>2188.4</ele>
        <time>2020-08-31T11:00:59.745Z</time>
      </trkpt>
      <trkpt lat="42.53109" lon="2.46978">
        <ele>2188.6</ele>
        <time>2020-08-31T11:01:08.385Z</time>
      </trkpt>
      <trkpt lat="42.53106" lon="2.4698">
        <ele>2188.7</ele>
        <time>2020-08-31T11:01:14.343Z</time>
      </trkpt>
      <trkpt lat="42.53104" lon="2.46982">
        <ele>2188.9</ele>
        <time>2020-08-31T11:01:21.368Z</time>
      </trkpt>
      <trkpt lat="42.53101" lon="2.46985">
        <ele>2189</ele>
        <time>2020-08-31T11:01:27.762Z</time>
      </trkpt>
      <trkpt lat="42.53099" lon="2.46988">
        <ele>2189</ele>
        <time>2020-08-31T11:01:31.620Z</time>
      </trkpt>
      <trkpt lat="42.53095" lon="2.46995">
        <ele>2189.2</ele>
        <time>2020-08-31T11:01:43.362Z</time>
      </trkpt>
      <trkpt lat="42.53092" lon="2.46999">
        <ele>2189.3</ele>
        <time>2020-08-31T11:01:50.319Z</time>
      </trkpt>
      <trkpt lat="42.53089" lon="2.47006">
        <ele>2180</ele>
        <time>2020-08-31T11:01:51.810Z</time>
      </trkpt>
      <trkpt lat="42.53088" lon="2.47009">
        <ele>2178.6</ele>
        <time>2020-08-31T11:01:52.416Z</time>
      </trkpt>
      <trkpt lat="42.53086" lon="2.47015">
        <ele>2174</ele>
        <time>2020-08-31T11:01:53.628Z</time>
      </trkpt>
      <trkpt lat="42.53084" lon="2.47018">
        <ele>2172.4</ele>
        <time>2020-08-31T11:01:54.373Z</time>
      </trkpt>
      <trkpt lat="42.53083" lon="2.47021">
        <ele>2189</ele>
        <time>2020-08-31T11:02:06.483Z</time>
      </trkpt>
      <trkpt lat="42.53081" lon="2.47024">
        <ele>2188.6</ele>
        <time>2020-08-31T11:02:07.228Z</time>
      </trkpt>
      <trkpt lat="42.5308" lon="2.47027">
        <ele>2188.2</ele>
        <time>2020-08-31T11:02:07.834Z</time>
      </trkpt>
      <trkpt lat="42.53078" lon="2.47029">
        <ele>2187.9</ele>
        <time>2020-08-31T11:02:08.455Z</time>
      </trkpt>
      <trkpt lat="42.53075" lon="2.47032">
        <ele>2187.7</ele>
        <time>2020-08-31T11:02:09.401Z</time>
      </trkpt>
      <trkpt lat="42.53071" lon="2.47034">
        <ele>2187.5</ele>
        <time>2020-08-31T11:02:10.548Z</time>
      </trkpt>
      <trkpt lat="42.53067" lon="2.47038">
        <ele>2187.4</ele>
        <time>2020-08-31T11:02:12.305Z</time>
      </trkpt>
      <trkpt lat="42.5306" lon="2.4704">
        <ele>2187.9</ele>
        <time>2020-08-31T11:02:30.917Z</time>
      </trkpt>
      <trkpt lat="42.53056" lon="2.47042">
        <ele>2188.3</ele>
        <time>2020-08-31T11:02:44.448Z</time>
      </trkpt>
      <trkpt lat="42.53053" lon="2.47043">
        <ele>2188.7</ele>
        <time>2020-08-31T11:02:59.034Z</time>
      </trkpt>
      <trkpt lat="42.5305" lon="2.47045">
        <ele>2189</ele>
        <time>2020-08-31T11:03:09.261Z</time>
      </trkpt>
      <trkpt lat="42.53047" lon="2.47047">
        <ele>2189.2</ele>
        <time>2020-08-31T11:03:17.345Z</time>
      </trkpt>
      <trkpt lat="42.53044" lon="2.47049">
        <ele>2189.5</ele>
        <time>2020-08-31T11:03:27.571Z</time>
      </trkpt>
      <trkpt lat="42.53042" lon="2.47051">
        <ele>2189.5</ele>
        <time>2020-08-31T11:03:30.786Z</time>
      </trkpt>
      <trkpt lat="42.5304" lon="2.47054">
        <ele>2189.6</ele>
        <time>2020-08-31T11:03:36.355Z</time>
      </trkpt>
      <trkpt lat="42.53038" lon="2.47055">
        <ele>2189.7</ele>
        <time>2020-08-31T11:03:41.082Z</time>
      </trkpt>
      <trkpt lat="42.53036" lon="2.47058">
        <ele>2189.9</ele>
        <time>2020-08-31T11:03:48.678Z</time>
      </trkpt>
      <trkpt lat="42.53034" lon="2.4706">
        <ele>2190.1</ele>
        <time>2020-08-31T11:03:55.703Z</time>
      </trkpt>
      <trkpt lat="42.53032" lon="2.47062">
        <ele>2190.3</ele>
        <time>2020-08-31T11:04:02.728Z</time>
      </trkpt>
      <trkpt lat="42.5303" lon="2.47064">
        <ele>2190.6</ele>
        <time>2020-08-31T11:04:13.208Z</time>
      </trkpt>
      <trkpt lat="42.53028" lon="2.47065">
        <ele>2190.8</ele>
        <time>2020-08-31T11:04:19.974Z</time>
      </trkpt>
      <trkpt lat="42.53026" lon="2.47067">
        <ele>2191</ele>
        <time>2020-08-31T11:04:26.999Z</time>
      </trkpt>
      <trkpt lat="42.53024" lon="2.4707">
        <ele>2191.3</ele>
        <time>2020-08-31T11:04:37.093Z</time>
      </trkpt>
      <trkpt lat="42.53023" lon="2.47071">
        <ele>2191.4</ele>
        <time>2020-08-31T11:04:40.606Z</time>
      </trkpt>
      <trkpt lat="42.53021" lon="2.47073">
        <ele>2191.6</ele>
        <time>2020-08-31T11:04:47.631Z</time>
      </trkpt>
      <trkpt lat="42.5302" lon="2.47076">
        <ele>2191.7</ele>
        <time>2020-08-31T11:04:52.675Z</time>
      </trkpt>
      <trkpt lat="42.53019" lon="2.47079">
        <ele>2191.8</ele>
        <time>2020-08-31T11:04:57.719Z</time>
      </trkpt>
      <trkpt lat="42.53018" lon="2.47082">
        <ele>2191.9</ele>
        <time>2020-08-31T11:05:02.762Z</time>
      </trkpt>
      <trkpt lat="42.53017" lon="2.47084">
        <ele>2178.7</ele>
        <time>2020-08-31T11:05:03.207Z</time>
      </trkpt>
      <trkpt lat="42.53016" lon="2.47087">
        <ele>2179.1</ele>
        <time>2020-08-31T11:05:15.318Z</time>
      </trkpt>
      <trkpt lat="42.53015" lon="2.4709">
        <ele>2179.1</ele>
        <time>2020-08-31T11:05:18.458Z</time>
      </trkpt>
      <trkpt lat="42.53013" lon="2.47092">
        <ele>2179</ele>
        <time>2020-08-31T11:05:19.169Z</time>
      </trkpt>
      <trkpt lat="42.53012" lon="2.47096">
        <ele>2178.2</ele>
        <time>2020-08-31T11:05:19.946Z</time>
      </trkpt>
      <trkpt lat="42.53011" lon="2.47098">
        <ele>2177.6</ele>
        <time>2020-08-31T11:05:20.391Z</time>
      </trkpt>
      <trkpt lat="42.53009" lon="2.47101">
        <ele>2176.8</ele>
        <time>2020-08-31T11:05:21.136Z</time>
      </trkpt>
      <trkpt lat="42.53008" lon="2.47103">
        <ele>2176.1</ele>
        <time>2020-08-31T11:05:21.581Z</time>
      </trkpt>
      <trkpt lat="42.53006" lon="2.47106">
        <ele>2175.1</ele>
        <time>2020-08-31T11:05:22.325Z</time>
      </trkpt>
      <trkpt lat="42.53005" lon="2.47108">
        <ele>2174.2</ele>
        <time>2020-08-31T11:05:22.770Z</time>
      </trkpt>
      <trkpt lat="42.53005" lon="2.4711">
        <ele>2173.5</ele>
        <time>2020-08-31T11:05:23.138Z</time>
      </trkpt>
      <trkpt lat="42.53004" lon="2.47113">
        <ele>2172.3</ele>
        <time>2020-08-31T11:05:23.745Z</time>
      </trkpt>
      <trkpt lat="42.53003" lon="2.47117">
        <ele>2171.4</ele>
        <time>2020-08-31T11:05:24.522Z</time>
      </trkpt>
      <trkpt lat="42.53001" lon="2.47121">
        <ele>2170.3</ele>
        <time>2020-08-31T11:05:25.412Z</time>
      </trkpt>
      <trkpt lat="42.52997" lon="2.47129">
        <ele>2198.9</ele>
        <time>2020-08-31T11:06:00.970Z</time>
      </trkpt>
      <trkpt lat="42.52992" lon="2.47138">
        <ele>2196.9</ele>
        <time>2020-08-31T11:06:03.045Z</time>
      </trkpt>
      <trkpt lat="42.52988" lon="2.47146">
        <ele>2194.5</ele>
        <time>2020-08-31T11:06:04.825Z</time>
      </trkpt>
      <trkpt lat="42.52984" lon="2.47154">
        <ele>2192.9</ele>
        <time>2020-08-31T11:06:06.604Z</time>
      </trkpt>
      <trkpt lat="42.52978" lon="2.47164">
        <ele>2194</ele>
        <time>2020-08-31T11:06:44.382Z</time>
      </trkpt>
      <trkpt lat="42.52974" lon="2.47175">
        <ele>2182.5</ele>
        <time>2020-08-31T11:06:46.640Z</time>
      </trkpt>
      <trkpt lat="42.52969" lon="2.47189">
        <ele>2183.7</ele>
        <time>2020-08-31T11:07:27.058Z</time>
      </trkpt>
      <trkpt lat="42.52965" lon="2.47201">
        <ele>2183.6</ele>
        <time>2020-08-31T11:07:30.936Z</time>
      </trkpt>
      <trkpt lat="42.52963" lon="2.47211">
        <ele>2182.8</ele>
        <time>2020-08-31T11:07:32.843Z</time>
      </trkpt>
      <trkpt lat="42.52962" lon="2.47216">
        <ele>2182.1</ele>
        <time>2020-08-31T11:07:33.797Z</time>
      </trkpt>
      <trkpt lat="42.52961" lon="2.47221">
        <ele>2181.6</ele>
        <time>2020-08-31T11:07:34.750Z</time>
      </trkpt>
      <trkpt lat="42.52961" lon="2.47223">
        <ele>2181.3</ele>
        <time>2020-08-31T11:07:35.119Z</time>
      </trkpt>
      <trkpt lat="42.5296" lon="2.47228">
        <ele>2181</ele>
        <time>2020-08-31T11:07:36.072Z</time>
      </trkpt>
      <trkpt lat="42.52959" lon="2.47231">
        <ele>2180.8</ele>
        <time>2020-08-31T11:07:36.678Z</time>
      </trkpt>
      <trkpt lat="42.52958" lon="2.47237">
        <ele>2180.9</ele>
        <time>2020-08-31T11:07:44.030Z</time>
      </trkpt>
      <trkpt lat="42.52957" lon="2.47239">
        <ele>2180.9</ele>
        <time>2020-08-31T11:07:46.335Z</time>
      </trkpt>
      <trkpt lat="42.52957" lon="2.47242">
        <ele>2181</ele>
        <time>2020-08-31T11:07:51.185Z</time>
      </trkpt>
      <trkpt lat="42.52955" lon="2.47247">
        <ele>2181.3</ele>
        <time>2020-08-31T11:08:02.231Z</time>
      </trkpt>
      <trkpt lat="42.52954" lon="2.4725">
        <ele>2181.8</ele>
        <time>2020-08-31T11:08:14.342Z</time>
      </trkpt>
      <trkpt lat="42.52953" lon="2.47252">
        <ele>2166.7</ele>
        <time>2020-08-31T11:08:14.787Z</time>
      </trkpt>
      <trkpt lat="42.52952" lon="2.47254">
        <ele>2167.3</ele>
        <time>2020-08-31T11:08:23.677Z</time>
      </trkpt>
      <trkpt lat="42.52952" lon="2.47255">
        <ele>2167.4</ele>
        <time>2020-08-31T11:08:27.355Z</time>
      </trkpt>
      <trkpt lat="42.52951" lon="2.47257">
        <ele>2167.5</ele>
        <time>2020-08-31T11:08:31.554Z</time>
      </trkpt>
      <trkpt lat="42.5295" lon="2.4726">
        <ele>2167.7</ele>
        <time>2020-08-31T11:08:38.525Z</time>
      </trkpt>
      <trkpt lat="42.52949" lon="2.47263">
        <ele>2167.9</ele>
        <time>2020-08-31T11:08:45.496Z</time>
      </trkpt>
      <trkpt lat="42.52948" lon="2.47264">
        <ele>2168.1</ele>
        <time>2020-08-31T11:08:51.696Z</time>
      </trkpt>
      <trkpt lat="42.52947" lon="2.47267">
        <ele>2168.2</ele>
        <time>2020-08-31T11:08:56.740Z</time>
      </trkpt>
      <trkpt lat="42.52946" lon="2.4727">
        <ele>2168.3</ele>
        <time>2020-08-31T11:09:01.784Z</time>
      </trkpt>
      <trkpt lat="42.52945" lon="2.47272">
        <ele>2168.1</ele>
        <time>2020-08-31T11:09:02.229Z</time>
      </trkpt>
      <trkpt lat="42.52944" lon="2.47275">
        <ele>2167.9</ele>
        <time>2020-08-31T11:09:02.835Z</time>
      </trkpt>
      <trkpt lat="42.52943" lon="2.47278">
        <ele>2167.7</ele>
        <time>2020-08-31T11:09:03.441Z</time>
      </trkpt>
      <trkpt lat="42.52939" lon="2.47287">
        <ele>2167.2</ele>
        <time>2020-08-31T11:09:05.242Z</time>
      </trkpt>
      <trkpt lat="42.52938" lon="2.47289">
        <ele>2167.1</ele>
        <time>2020-08-31T11:09:05.685Z</time>
      </trkpt>
      <trkpt lat="42.52937" lon="2.47292">
        <ele>2166.8</ele>
        <time>2020-08-31T11:09:06.291Z</time>
      </trkpt>
      <trkpt lat="42.52936" lon="2.47298">
        <ele>2166.4</ele>
        <time>2020-08-31T11:09:07.424Z</time>
      </trkpt>
      <trkpt lat="42.52935" lon="2.47301">
        <ele>2166.4</ele>
        <time>2020-08-31T11:09:10.564Z</time>
      </trkpt>
      <trkpt lat="42.52934" lon="2.47304">
        <ele>2166.6</ele>
        <time>2020-08-31T11:09:17.535Z</time>
      </trkpt>
      <trkpt lat="42.52933" lon="2.47306">
        <ele>2166.8</ele>
        <time>2020-08-31T11:09:24.344Z</time>
      </trkpt>
      <trkpt lat="42.52931" lon="2.47308">
        <ele>2167.2</ele>
        <time>2020-08-31T11:09:36.744Z</time>
      </trkpt>
      <trkpt lat="42.5293" lon="2.47311">
        <ele>2167.7</ele>
        <time>2020-08-31T11:09:48.855Z</time>
      </trkpt>
      <trkpt lat="42.52929" lon="2.47314">
        <ele>2168.1</ele>
        <time>2020-08-31T11:10:00.965Z</time>
      </trkpt>
      <trkpt lat="42.52928" lon="2.47316">
        <ele>2168.8</ele>
        <time>2020-08-31T11:10:09.855Z</time>
      </trkpt>
      <trkpt lat="42.52927" lon="2.4732">
        <ele>2169.6</ele>
        <time>2020-08-31T11:10:25.391Z</time>
      </trkpt>
      <trkpt lat="42.52926" lon="2.47322">
        <ele>2170.4</ele>
        <time>2020-08-31T11:10:34.281Z</time>
      </trkpt>
      <trkpt lat="42.52925" lon="2.47324">
        <ele>2171.2</ele>
        <time>2020-08-31T11:10:43.171Z</time>
      </trkpt>
      <trkpt lat="42.52924" lon="2.47328">
        <ele>2172.8</ele>
        <time>2020-08-31T11:10:58.707Z</time>
      </trkpt>
      <trkpt lat="42.52923" lon="2.47331">
        <ele>2174</ele>
        <time>2020-08-31T11:11:10.818Z</time>
      </trkpt>
      <trkpt lat="42.52923" lon="2.47333">
        <ele>2174.7</ele>
        <time>2020-08-31T11:11:18.174Z</time>
      </trkpt>
      <trkpt lat="42.52922" lon="2.47335">
        <ele>2172.6</ele>
        <time>2020-08-31T11:11:18.619Z</time>
      </trkpt>
      <trkpt lat="42.52921" lon="2.47337">
        <ele>2172.5</ele>
        <time>2020-08-31T11:11:19.062Z</time>
      </trkpt>
      <trkpt lat="42.52918" lon="2.4734">
        <ele>2171.1</ele>
        <time>2020-08-31T11:11:19.993Z</time>
      </trkpt>
      <trkpt lat="42.52918" lon="2.47342">
        <ele>2170.1</ele>
        <time>2020-08-31T11:11:20.361Z</time>
      </trkpt>
      <trkpt lat="42.52917" lon="2.47343">
        <ele>2168.7</ele>
        <time>2020-08-31T11:11:20.671Z</time>
      </trkpt>
      <trkpt lat="42.52917" lon="2.47345">
        <ele>2167.5</ele>
        <time>2020-08-31T11:11:21.039Z</time>
      </trkpt>
      <trkpt lat="42.52916" lon="2.47346">
        <ele>2189.6</ele>
        <time>2020-08-31T11:11:27.239Z</time>
      </trkpt>
      <trkpt lat="42.52915" lon="2.47347">
        <ele>2190.4</ele>
        <time>2020-08-31T11:11:33.439Z</time>
      </trkpt>
      <trkpt lat="42.52913" lon="2.47349">
        <ele>2191.4</ele>
        <time>2020-08-31T11:11:45.839Z</time>
      </trkpt>
      <trkpt lat="42.52912" lon="2.47351">
        <ele>2192.7</ele>
        <time>2020-08-31T11:11:54.729Z</time>
      </trkpt>
      <trkpt lat="42.52912" lon="2.47353">
        <ele>2193.3</ele>
        <time>2020-08-31T11:12:02.085Z</time>
      </trkpt>
      <trkpt lat="42.52912" lon="2.47354">
        <ele>2193.8</ele>
        <time>2020-08-31T11:12:05.764Z</time>
      </trkpt>
      <trkpt lat="42.52913" lon="2.47356">
        <ele>2194.2</ele>
        <time>2020-08-31T11:12:14.653Z</time>
      </trkpt>
      <trkpt lat="42.52914" lon="2.47357">
        <ele>2194.6</ele>
        <time>2020-08-31T11:12:20.853Z</time>
      </trkpt>
      <trkpt lat="42.52914" lon="2.47359">
        <ele>2194.9</ele>
        <time>2020-08-31T11:12:28.210Z</time>
      </trkpt>
      <trkpt lat="42.52915" lon="2.47361">
        <ele>2195.1</ele>
        <time>2020-08-31T11:12:35.019Z</time>
      </trkpt>
      <trkpt lat="42.52916" lon="2.47362">
        <ele>2195.4</ele>
        <time>2020-08-31T11:12:41.219Z</time>
      </trkpt>
      <trkpt lat="42.52917" lon="2.47364">
        <ele>2195.5</ele>
        <time>2020-08-31T11:12:45.418Z</time>
      </trkpt>
      <trkpt lat="42.52917" lon="2.47366">
        <ele>2158.7</ele>
        <time>2020-08-31T11:12:45.786Z</time>
      </trkpt>
      <trkpt lat="42.52917" lon="2.47368">
        <ele>2158.4</ele>
        <time>2020-08-31T11:12:46.154Z</time>
      </trkpt>
      <trkpt lat="42.52917" lon="2.47371">
        <ele>2158.1</ele>
        <time>2020-08-31T11:12:46.706Z</time>
      </trkpt>
      <trkpt lat="42.52917" lon="2.47372">
        <ele>2157.9</ele>
        <time>2020-08-31T11:12:46.890Z</time>
      </trkpt>
      <trkpt lat="42.52917" lon="2.47375">
        <ele>2157.7</ele>
        <time>2020-08-31T11:12:47.443Z</time>
      </trkpt>
      <trkpt lat="42.52917" lon="2.47377">
        <ele>2157.7</ele>
        <time>2020-08-31T11:12:49.350Z</time>
      </trkpt>
      <trkpt lat="42.52916" lon="2.47379">
        <ele>2195.9</ele>
        <time>2020-08-31T11:12:58.239Z</time>
      </trkpt>
      <trkpt lat="42.52915" lon="2.4738">
        <ele>2195.9</ele>
        <time>2020-08-31T11:12:59.847Z</time>
      </trkpt>
      <trkpt lat="42.52914" lon="2.47382">
        <ele>2195.9</ele>
        <time>2020-08-31T11:13:02.152Z</time>
      </trkpt>
      <trkpt lat="42.52913" lon="2.47385">
        <ele>2195.4</ele>
        <time>2020-08-31T11:13:02.758Z</time>
      </trkpt>
      <trkpt lat="42.52915" lon="2.47388">
        <ele>2194.6</ele>
        <time>2020-08-31T11:13:03.502Z</time>
      </trkpt>
      <trkpt lat="42.52915" lon="2.47389">
        <ele>2194.1</ele>
        <time>2020-08-31T11:13:03.686Z</time>
      </trkpt>
      <trkpt lat="42.52916" lon="2.47391">
        <ele>2193.6</ele>
        <time>2020-08-31T11:13:04.131Z</time>
      </trkpt>
      <trkpt lat="42.52916" lon="2.47393">
        <ele>2192.9</ele>
        <time>2020-08-31T11:13:04.500Z</time>
      </trkpt>
      <trkpt lat="42.52916" lon="2.47395">
        <ele>2192.1</ele>
        <time>2020-08-31T11:13:04.868Z</time>
      </trkpt>
      <trkpt lat="42.52916" lon="2.47397">
        <ele>2190.9</ele>
        <time>2020-08-31T11:13:05.236Z</time>
      </trkpt>
      <trkpt lat="42.52917" lon="2.474">
        <ele>2189.7</ele>
        <time>2020-08-31T11:13:05.842Z</time>
      </trkpt>
      <trkpt lat="42.52917" lon="2.47405">
        <ele>2164.3</ele>
        <time>2020-08-31T11:13:06.762Z</time>
      </trkpt>
      <trkpt lat="42.52918" lon="2.47407">
        <ele>2165.6</ele>
        <time>2020-08-31T11:13:15.652Z</time>
      </trkpt>
      <trkpt lat="42.52918" lon="2.4741">
        <ele>2167.9</ele>
        <time>2020-08-31T11:13:26.687Z</time>
      </trkpt>
      <trkpt lat="42.52918" lon="2.47413">
        <ele>2169.9</ele>
        <time>2020-08-31T11:13:37.721Z</time>
      </trkpt>
      <trkpt lat="42.52918" lon="2.47415">
        <ele>2172.1</ele>
        <time>2020-08-31T11:13:45.077Z</time>
      </trkpt>
      <trkpt lat="42.52918" lon="2.47418">
        <ele>2172.9</ele>
        <time>2020-08-31T11:13:56.112Z</time>
      </trkpt>
      <trkpt lat="42.52918" lon="2.4742">
        <ele>2171.1</ele>
        <time>2020-08-31T11:13:56.480Z</time>
      </trkpt>
      <trkpt lat="42.52918" lon="2.47423">
        <ele>2169.1</ele>
        <time>2020-08-31T11:13:57.032Z</time>
      </trkpt>
      <trkpt lat="42.52918" lon="2.47426">
        <ele>2167.5</ele>
        <time>2020-08-31T11:13:57.584Z</time>
      </trkpt>
      <trkpt lat="42.52919" lon="2.4743">
        <ele>2165.5</ele>
        <time>2020-08-31T11:13:58.362Z</time>
      </trkpt>
      <trkpt lat="42.5292" lon="2.47433">
        <ele>2164.5</ele>
        <time>2020-08-31T11:13:58.968Z</time>
      </trkpt>
      <trkpt lat="42.5292" lon="2.47435">
        <ele>2163.6</ele>
        <time>2020-08-31T11:13:59.336Z</time>
      </trkpt>
      <trkpt lat="42.5292" lon="2.47438">
        <ele>2162.9</ele>
        <time>2020-08-31T11:13:59.889Z</time>
      </trkpt>
      <trkpt lat="42.52921" lon="2.47443">
        <ele>2161.9</ele>
        <time>2020-08-31T11:14:00.842Z</time>
      </trkpt>
      <trkpt lat="42.52922" lon="2.47445">
        <ele>2161.6</ele>
        <time>2020-08-31T11:14:01.287Z</time>
      </trkpt>
      <trkpt lat="42.52923" lon="2.47447">
        <ele>2161.3</ele>
        <time>2020-08-31T11:14:01.732Z</time>
      </trkpt>
      <trkpt lat="42.52924" lon="2.4745">
        <ele>2161</ele>
        <time>2020-08-31T11:14:02.338Z</time>
      </trkpt>
      <trkpt lat="42.52925" lon="2.47453">
        <ele>2160.7</ele>
        <time>2020-08-31T11:14:02.944Z</time>
      </trkpt>
      <trkpt lat="42.52927" lon="2.47458">
        <ele>2160.6</ele>
        <time>2020-08-31T11:14:04.365Z</time>
      </trkpt>
      <trkpt lat="42.5293" lon="2.4746">
        <ele>2160.3</ele>
        <time>2020-08-31T11:14:05.200Z</time>
      </trkpt>
      <trkpt lat="42.52932" lon="2.47462">
        <ele>2160</ele>
        <time>2020-08-31T11:14:05.820Z</time>
      </trkpt>
      <trkpt lat="42.52933" lon="2.47463">
        <ele>2160</ele>
        <time>2020-08-31T11:14:07.428Z</time>
      </trkpt>
      <trkpt lat="42.52935" lon="2.47466">
        <ele>2160</ele>
        <time>2020-08-31T11:14:11.285Z</time>
      </trkpt>
      <trkpt lat="42.52936" lon="2.47468">
        <ele>2160.1</ele>
        <time>2020-08-31T11:14:15.484Z</time>
      </trkpt>
      <trkpt lat="42.52937" lon="2.4747">
        <ele>2160.2</ele>
        <time>2020-08-31T11:14:19.683Z</time>
      </trkpt>
      <trkpt lat="42.52938" lon="2.47473">
        <ele>2160.3</ele>
        <time>2020-08-31T11:14:24.727Z</time>
      </trkpt>
      <trkpt lat="42.52941" lon="2.4748">
        <ele>2160.7</ele>
        <time>2020-08-31T11:14:39.925Z</time>
      </trkpt>
      <trkpt lat="42.52942" lon="2.47482">
        <ele>2160.8</ele>
        <time>2020-08-31T11:14:44.124Z</time>
      </trkpt>
      <trkpt lat="42.52942" lon="2.47485">
        <ele>2161</ele>
        <time>2020-08-31T11:14:50.931Z</time>
      </trkpt>
      <trkpt lat="42.52943" lon="2.4749">
        <ele>2161.6</ele>
        <time>2020-08-31T11:15:09.987Z</time>
      </trkpt>
      <trkpt lat="42.52945" lon="2.47495">
        <ele>2161.3</ele>
        <time>2020-08-31T11:15:11.035Z</time>
      </trkpt>
      <trkpt lat="42.52946" lon="2.47497">
        <ele>2160.7</ele>
        <time>2020-08-31T11:15:11.479Z</time>
      </trkpt>
      <trkpt lat="42.52947" lon="2.47498">
        <ele>2160.2</ele>
        <time>2020-08-31T11:15:11.790Z</time>
      </trkpt>
      <trkpt lat="42.52951" lon="2.47503">
        <ele>2174.6</ele>
        <time>2020-08-31T11:15:38.934Z</time>
      </trkpt>
      <trkpt lat="42.52954" lon="2.47507">
        <ele>2173.8</ele>
        <time>2020-08-31T11:15:39.984Z</time>
      </trkpt>
      <trkpt lat="42.52957" lon="2.47511">
        <ele>2173.1</ele>
        <time>2020-08-31T11:15:41.035Z</time>
      </trkpt>
      <trkpt lat="42.52959" lon="2.47512">
        <ele>2172.8</ele>
        <time>2020-08-31T11:15:41.567Z</time>
      </trkpt>
      <trkpt lat="42.52961" lon="2.47514">
        <ele>2172.3</ele>
        <time>2020-08-31T11:15:42.188Z</time>
      </trkpt>
      <trkpt lat="42.52963" lon="2.47516">
        <ele>2172</ele>
        <time>2020-08-31T11:15:42.809Z</time>
      </trkpt>
      <trkpt lat="42.52964" lon="2.47517">
        <ele>2171.7</ele>
        <time>2020-08-31T11:15:43.119Z</time>
      </trkpt>
      <trkpt lat="42.52966" lon="2.47519">
        <ele>2171.1</ele>
        <time>2020-08-31T11:15:43.740Z</time>
      </trkpt>
      <trkpt lat="42.5297" lon="2.47521">
        <ele>2170.3</ele>
        <time>2020-08-31T11:15:44.804Z</time>
      </trkpt>
      <trkpt lat="42.52978" lon="2.47526">
        <ele>2168.9</ele>
        <time>2020-08-31T11:15:47.005Z</time>
      </trkpt>
      <trkpt lat="42.52983" lon="2.47529">
        <ele>2168.3</ele>
        <time>2020-08-31T11:15:48.370Z</time>
      </trkpt>
      <trkpt lat="42.52987" lon="2.47532">
        <ele>2168.8</ele>
        <time>2020-08-31T11:16:05.301Z</time>
      </trkpt>
      <trkpt lat="42.5299" lon="2.47534">
        <ele>2169</ele>
        <time>2020-08-31T11:16:13.384Z</time>
      </trkpt>
      <trkpt lat="42.52994" lon="2.47538">
        <ele>2169.9</ele>
        <time>2020-08-31T11:16:38.185Z</time>
      </trkpt>
      <trkpt lat="42.52997" lon="2.47542">
        <ele>2171</ele>
        <time>2020-08-31T11:16:59.176Z</time>
      </trkpt>
      <trkpt lat="42.53001" lon="2.47546">
        <ele>2143.5</ele>
        <time>2020-08-31T11:17:00.418Z</time>
      </trkpt>
      <trkpt lat="42.53004" lon="2.47548">
        <ele>2144.2</ele>
        <time>2020-08-31T11:17:17.100Z</time>
      </trkpt>
      <trkpt lat="42.53009" lon="2.47552">
        <ele>2145.2</ele>
        <time>2020-08-31T11:17:46.070Z</time>
      </trkpt>
      <trkpt lat="42.53013" lon="2.47555">
        <ele>2145.7</ele>
        <time>2020-08-31T11:18:03.001Z</time>
      </trkpt>
      <trkpt lat="42.53018" lon="2.47559">
        <ele>2145.7</ele>
        <time>2020-08-31T11:18:10.511Z</time>
      </trkpt>
      <trkpt lat="42.53024" lon="2.47563">
        <ele>2144.8</ele>
        <time>2020-08-31T11:18:12.181Z</time>
      </trkpt>
      <trkpt lat="42.53028" lon="2.47566">
        <ele>2143.8</ele>
        <time>2020-08-31T11:18:13.323Z</time>
      </trkpt>
      <trkpt lat="42.53031" lon="2.47568">
        <ele>2143.2</ele>
        <time>2020-08-31T11:18:14.158Z</time>
      </trkpt>
      <trkpt lat="42.53034" lon="2.4757">
        <ele>2142.2</ele>
        <time>2020-08-31T11:18:14.993Z</time>
      </trkpt>
      <trkpt lat="42.53037" lon="2.47572">
        <ele>2141.1</ele>
        <time>2020-08-31T11:18:15.828Z</time>
      </trkpt>
      <trkpt lat="42.53041" lon="2.47575">
        <ele>2139.6</ele>
        <time>2020-08-31T11:18:16.969Z</time>
      </trkpt>
      <trkpt lat="42.53046" lon="2.47577">
        <ele>2137.8</ele>
        <time>2020-08-31T11:18:18.271Z</time>
      </trkpt>
      <trkpt lat="42.53051" lon="2.47582">
        <ele>2136.2</ele>
        <time>2020-08-31T11:18:19.823Z</time>
      </trkpt>
      <trkpt lat="42.53055" lon="2.47586">
        <ele>2155.3</ele>
        <time>2020-08-31T11:18:44.623Z</time>
      </trkpt>
      <trkpt lat="42.5306" lon="2.47593">
        <ele>2153.5</ele>
        <time>2020-08-31T11:18:46.417Z</time>
      </trkpt>
      <trkpt lat="42.53065" lon="2.476">
        <ele>2153.3</ele>
        <time>2020-08-31T11:18:48.747Z</time>
      </trkpt>
      <trkpt lat="42.53068" lon="2.47605">
        <ele>2153.6</ele>
        <time>2020-08-31T11:19:00.510Z</time>
      </trkpt>
      <trkpt lat="42.53071" lon="2.4761">
        <ele>2155.3</ele>
        <time>2020-08-31T11:19:24.226Z</time>
      </trkpt>
      <trkpt lat="42.53072" lon="2.47615">
        <ele>2157</ele>
        <time>2020-08-31T11:19:43.281Z</time>
      </trkpt>
      <trkpt lat="42.53073" lon="2.47628">
        <ele>2160.7</ele>
        <time>2020-08-31T11:20:31.356Z</time>
      </trkpt>
      <trkpt lat="42.53075" lon="2.4764">
        <ele>2162.2</ele>
        <time>2020-08-31T11:21:16.607Z</time>
      </trkpt>
      <trkpt lat="42.53076" lon="2.47642">
        <ele>2162.3</ele>
        <time>2020-08-31T11:21:20.806Z</time>
      </trkpt>
      <trkpt lat="42.53076" lon="2.47645">
        <ele>2162.3</ele>
        <time>2020-08-31T11:21:23.667Z</time>
      </trkpt>
      <trkpt lat="42.53076" lon="2.47646">
        <ele>2162.4</ele>
        <time>2020-08-31T11:21:27.345Z</time>
      </trkpt>
      <trkpt lat="42.53076" lon="2.47648">
        <ele>2162.4</ele>
        <time>2020-08-31T11:21:29.252Z</time>
      </trkpt>
      <trkpt lat="42.53075" lon="2.4765">
        <ele>2162.5</ele>
        <time>2020-08-31T11:21:33.451Z</time>
      </trkpt>
      <trkpt lat="42.53074" lon="2.47653">
        <ele>2162.7</ele>
        <time>2020-08-31T11:21:40.422Z</time>
      </trkpt>
      <trkpt lat="42.53073" lon="2.47654">
        <ele>2162.7</ele>
        <time>2020-08-31T11:21:42.030Z</time>
      </trkpt>
      <trkpt lat="42.53072" lon="2.47656">
        <ele>2162.7</ele>
        <time>2020-08-31T11:21:44.334Z</time>
      </trkpt>
      <trkpt lat="42.53071" lon="2.47661">
        <ele>2162.7</ele>
        <time>2020-08-31T11:21:49.275Z</time>
      </trkpt>
      <trkpt lat="42.53071" lon="2.47663">
        <ele>2162.6</ele>
        <time>2020-08-31T11:21:49.643Z</time>
      </trkpt>
      <trkpt lat="42.53071" lon="2.47667">
        <ele>2168.8</ele>
        <time>2020-08-31T11:22:04.355Z</time>
      </trkpt>
      <trkpt lat="42.53072" lon="2.4767">
        <ele>2169.1</ele>
        <time>2020-08-31T11:22:14.964Z</time>
      </trkpt>
      <trkpt lat="42.53072" lon="2.47674">
        <ele>2169.9</ele>
        <time>2020-08-31T11:22:29.676Z</time>
      </trkpt>
      <trkpt lat="42.53072" lon="2.47677">
        <ele>2170.7</ele>
        <time>2020-08-31T11:22:40.710Z</time>
      </trkpt>
      <trkpt lat="42.53073" lon="2.4768">
        <ele>2171.5</ele>
        <time>2020-08-31T11:22:52.821Z</time>
      </trkpt>
      <trkpt lat="42.53073" lon="2.47682">
        <ele>2172.4</ele>
        <time>2020-08-31T11:23:00.177Z</time>
      </trkpt>
      <trkpt lat="42.53072" lon="2.47684">
        <ele>2173.2</ele>
        <time>2020-08-31T11:23:09.067Z</time>
      </trkpt>
      <trkpt lat="42.53072" lon="2.47686">
        <ele>2173.9</ele>
        <time>2020-08-31T11:23:16.423Z</time>
      </trkpt>
      <trkpt lat="42.53072" lon="2.4769">
        <ele>2175.2</ele>
        <time>2020-08-31T11:23:31.135Z</time>
      </trkpt>
      <trkpt lat="42.53072" lon="2.47693">
        <ele>2175.8</ele>
        <time>2020-08-31T11:23:42.169Z</time>
      </trkpt>
      <trkpt lat="42.53073" lon="2.47695">
        <ele>2176.4</ele>
        <time>2020-08-31T11:23:51.059Z</time>
      </trkpt>
      <trkpt lat="42.53073" lon="2.47698">
        <ele>2176.7</ele>
        <time>2020-08-31T11:24:02.093Z</time>
      </trkpt>
      <trkpt lat="42.53074" lon="2.47701">
        <ele>2177</ele>
        <time>2020-08-31T11:24:12.702Z</time>
      </trkpt>
      <trkpt lat="42.53074" lon="2.47704">
        <ele>2177.4</ele>
        <time>2020-08-31T11:24:23.736Z</time>
      </trkpt>
      <trkpt lat="42.53074" lon="2.47713">
        <ele>2177.9</ele>
        <time>2020-08-31T11:24:41.737Z</time>
      </trkpt>
      <trkpt lat="42.53073" lon="2.47718">
        <ele>2177.8</ele>
        <time>2020-08-31T11:24:42.997Z</time>
      </trkpt>
      <trkpt lat="42.53073" lon="2.47722">
        <ele>2177.6</ele>
        <time>2020-08-31T11:24:43.733Z</time>
      </trkpt>
      <trkpt lat="42.53072" lon="2.47727">
        <ele>2177.2</ele>
        <time>2020-08-31T11:24:44.687Z</time>
      </trkpt>
      <trkpt lat="42.53073" lon="2.47732">
        <ele>2176</ele>
        <time>2020-08-31T11:24:45.641Z</time>
      </trkpt>
      <trkpt lat="42.53075" lon="2.47736">
        <ele>2174.4</ele>
        <time>2020-08-31T11:24:46.530Z</time>
      </trkpt>
      <trkpt lat="42.53076" lon="2.4774">
        <ele>2172.9</ele>
        <time>2020-08-31T11:24:47.308Z</time>
      </trkpt>
      <trkpt lat="42.53076" lon="2.47745">
        <ele>2171.3</ele>
        <time>2020-08-31T11:24:48.228Z</time>
      </trkpt>
      <trkpt lat="42.53076" lon="2.47749">
        <ele>2170.5</ele>
        <time>2020-08-31T11:24:48.965Z</time>
      </trkpt>
      <trkpt lat="42.53077" lon="2.47755">
        <ele>2169.6</ele>
        <time>2020-08-31T11:24:50.097Z</time>
      </trkpt>
      <trkpt lat="42.53078" lon="2.47761">
        <ele>2171.3</ele>
        <time>2020-08-31T11:25:12.723Z</time>
      </trkpt>
      <trkpt lat="42.53078" lon="2.47767">
        <ele>2173</ele>
        <time>2020-08-31T11:25:34.791Z</time>
      </trkpt>
      <trkpt lat="42.53077" lon="2.47775">
        <ele>2174.6</ele>
        <time>2020-08-31T11:26:04.636Z</time>
      </trkpt>
      <trkpt lat="42.53075" lon="2.4778">
        <ele>2175.2</ele>
        <time>2020-08-31T11:26:25.561Z</time>
      </trkpt>
      <trkpt lat="42.53074" lon="2.47785">
        <ele>2175.5</ele>
        <time>2020-08-31T11:26:36.189Z</time>
      </trkpt>
      <trkpt lat="42.53073" lon="2.47792">
        <ele>2175.5</ele>
        <time>2020-08-31T11:26:42.989Z</time>
      </trkpt>
      <trkpt lat="42.53072" lon="2.47799">
        <ele>2175</ele>
        <time>2020-08-31T11:26:44.301Z</time>
      </trkpt>
      <trkpt lat="42.53071" lon="2.47808">
        <ele>2173.8</ele>
        <time>2020-08-31T11:26:45.977Z</time>
      </trkpt>
      <trkpt lat="42.5307" lon="2.47819">
        <ele>2171.4</ele>
        <time>2020-08-31T11:26:48.017Z</time>
      </trkpt>
      <trkpt lat="42.53069" lon="2.47826">
        <ele>2170.1</ele>
        <time>2020-08-31T11:26:49.329Z</time>
      </trkpt>
      <trkpt lat="42.53068" lon="2.47831">
        <ele>2169.8</ele>
        <time>2020-08-31T11:26:50.283Z</time>
      </trkpt>
      <trkpt lat="42.53067" lon="2.47838">
        <ele>2164</ele>
        <time>2020-08-31T11:26:51.596Z</time>
      </trkpt>
      <trkpt lat="42.53065" lon="2.47846">
        <ele>2164.5</ele>
        <time>2020-08-31T11:27:09.173Z</time>
      </trkpt>
      <trkpt lat="42.53063" lon="2.47852">
        <ele>2164.8</ele>
        <time>2020-08-31T11:27:21.075Z</time>
      </trkpt>
      <trkpt lat="42.53061" lon="2.4786">
        <ele>2164.8</ele>
        <time>2020-08-31T11:27:29.130Z</time>
      </trkpt>
      <trkpt lat="42.53059" lon="2.47867">
        <ele>2164.6</ele>
        <time>2020-08-31T11:27:30.777Z</time>
      </trkpt>
      <trkpt lat="42.53057" lon="2.47874">
        <ele>2164.2</ele>
        <time>2020-08-31T11:27:32.159Z</time>
      </trkpt>
      <trkpt lat="42.53053" lon="2.47881">
        <ele>2164</ele>
        <time>2020-08-31T11:27:34.214Z</time>
      </trkpt>
      <trkpt lat="42.53048" lon="2.47887">
        <ele>2164.2</ele>
        <time>2020-08-31T11:27:46.119Z</time>
      </trkpt>
      <trkpt lat="42.53043" lon="2.47891">
        <ele>2164.8</ele>
        <time>2020-08-31T11:28:06.314Z</time>
      </trkpt>
      <trkpt lat="42.53039" lon="2.47894">
        <ele>2165.4</ele>
        <time>2020-08-31T11:28:28.437Z</time>
      </trkpt>
      <trkpt lat="42.53034" lon="2.47897">
        <ele>2166.2</ele>
        <time>2020-08-31T11:28:55.723Z</time>
      </trkpt>
      <trkpt lat="42.5303" lon="2.47902">
        <ele>2166.6</ele>
        <time>2020-08-31T11:29:10.274Z</time>
      </trkpt>
      <trkpt lat="42.53026" lon="2.47908">
        <ele>2167.1</ele>
        <time>2020-08-31T11:29:27.611Z</time>
      </trkpt>
      <trkpt lat="42.53024" lon="2.47913">
        <ele>2167.4</ele>
        <time>2020-08-31T11:29:38.657Z</time>
      </trkpt>
      <trkpt lat="42.53023" lon="2.4792">
        <ele>2155.5</ele>
        <time>2020-08-31T11:29:39.969Z</time>
      </trkpt>
      <trkpt lat="42.53021" lon="2.47925">
        <ele>2155.3</ele>
        <time>2020-08-31T11:29:41.090Z</time>
      </trkpt>
      <trkpt lat="42.53018" lon="2.47928">
        <ele>2155.8</ele>
        <time>2020-08-31T11:29:59.690Z</time>
      </trkpt>
      <trkpt lat="42.53015" lon="2.47933">
        <ele>2155.7</ele>
        <time>2020-08-31T11:30:01.352Z</time>
      </trkpt>
      <trkpt lat="42.53011" lon="2.47939">
        <ele>2154.4</ele>
        <time>2020-08-31T11:30:02.841Z</time>
      </trkpt>
      <trkpt lat="42.53008" lon="2.47946">
        <ele>2152.6</ele>
        <time>2020-08-31T11:30:04.332Z</time>
      </trkpt>
      <trkpt lat="42.53005" lon="2.47954">
        <ele>2150.6</ele>
        <time>2020-08-31T11:30:05.984Z</time>
      </trkpt>
      <trkpt lat="42.53002" lon="2.47962">
        <ele>2148.9</ele>
        <time>2020-08-31T11:30:07.637Z</time>
      </trkpt>
      <trkpt lat="42.53" lon="2.47969">
        <ele>2169.7</ele>
        <time>2020-08-31T11:30:35.251Z</time>
      </trkpt>
      <trkpt lat="42.52997" lon="2.47975">
        <ele>2167.8</ele>
        <time>2020-08-31T11:30:36.586Z</time>
      </trkpt>
      <trkpt lat="42.52995" lon="2.4798">
        <ele>2165.9</ele>
        <time>2020-08-31T11:30:37.633Z</time>
      </trkpt>
      <trkpt lat="42.52993" lon="2.47985">
        <ele>2163</ele>
        <time>2020-08-31T11:30:38.680Z</time>
      </trkpt>
      <trkpt lat="42.52993" lon="2.47991">
        <ele>2159.7</ele>
        <time>2020-08-31T11:30:39.785Z</time>
      </trkpt>
      <trkpt lat="42.5299" lon="2.47998">
        <ele>2158</ele>
        <time>2020-08-31T11:30:41.275Z</time>
      </trkpt>
      <trkpt lat="42.52987" lon="2.48005">
        <ele>2151.4</ele>
        <time>2020-08-31T11:30:42.766Z</time>
      </trkpt>
      <trkpt lat="42.52984" lon="2.48012">
        <ele>2152.3</ele>
        <time>2020-08-31T11:31:12.550Z</time>
      </trkpt>
      <trkpt lat="42.52981" lon="2.4802">
        <ele>2152.7</ele>
        <time>2020-08-31T11:31:28.619Z</time>
      </trkpt>
      <trkpt lat="42.52978" lon="2.48026">
        <ele>2153.1</ele>
        <time>2020-08-31T11:31:43.062Z</time>
      </trkpt>
      <trkpt lat="42.52974" lon="2.48032">
        <ele>2153.2</ele>
        <time>2020-08-31T11:31:52.178Z</time>
      </trkpt>
      <trkpt lat="42.52971" lon="2.4804">
        <ele>2152.7</ele>
        <time>2020-08-31T11:31:53.830Z</time>
      </trkpt>
      <trkpt lat="42.52968" lon="2.48046">
        <ele>2152.4</ele>
        <time>2020-08-31T11:31:55.159Z</time>
      </trkpt>
      <trkpt lat="42.52965" lon="2.48051">
        <ele>2152.3</ele>
        <time>2020-08-31T11:31:56.821Z</time>
      </trkpt>
      <trkpt lat="42.52964" lon="2.48056">
        <ele>2151.6</ele>
        <time>2020-08-31T11:31:57.774Z</time>
      </trkpt>
      <trkpt lat="42.52962" lon="2.48067">
        <ele>2150.6</ele>
        <time>2020-08-31T11:31:59.860Z</time>
      </trkpt>
      <trkpt lat="42.52961" lon="2.48074">
        <ele>2150.2</ele>
        <time>2020-08-31T11:32:01.173Z</time>
      </trkpt>
      <trkpt lat="42.5296" lon="2.4808">
        <ele>2150</ele>
        <time>2020-08-31T11:32:02.424Z</time>
      </trkpt>
      <trkpt lat="42.5296" lon="2.48088">
        <ele>2134.4</ele>
        <time>2020-08-31T11:32:03.896Z</time>
      </trkpt>
      <trkpt lat="42.52959" lon="2.48093">
        <ele>2134.1</ele>
        <time>2020-08-31T11:32:04.850Z</time>
      </trkpt>
      <trkpt lat="42.52959" lon="2.48099">
        <ele>2133.7</ele>
        <time>2020-08-31T11:32:05.955Z</time>
      </trkpt>
      <trkpt lat="42.5296" lon="2.48102">
        <ele>2133.2</ele>
        <time>2020-08-31T11:32:06.561Z</time>
      </trkpt>
      <trkpt lat="42.5296" lon="2.48105">
        <ele>2132.8</ele>
        <time>2020-08-31T11:32:07.113Z</time>
      </trkpt>
      <trkpt lat="42.5296" lon="2.48109">
        <ele>2132.5</ele>
        <time>2020-08-31T11:32:07.849Z</time>
      </trkpt>
      <trkpt lat="42.52959" lon="2.48112">
        <ele>2132.5</ele>
        <time>2020-08-31T11:32:10.989Z</time>
      </trkpt>
      <trkpt lat="42.52959" lon="2.48116">
        <ele>2132.1</ele>
        <time>2020-08-31T11:32:11.726Z</time>
      </trkpt>
      <trkpt lat="42.52959" lon="2.48123">
        <ele>2131.2</ele>
        <time>2020-08-31T11:32:13.014Z</time>
      </trkpt>
      <trkpt lat="42.52959" lon="2.48129">
        <ele>2130.4</ele>
        <time>2020-08-31T11:32:14.119Z</time>
      </trkpt>
      <trkpt lat="42.52959" lon="2.48136">
        <ele>2129.4</ele>
        <time>2020-08-31T11:32:15.407Z</time>
      </trkpt>
      <trkpt lat="42.5296" lon="2.48142">
        <ele>2128.4</ele>
        <time>2020-08-31T11:32:16.540Z</time>
      </trkpt>
      <trkpt lat="42.52959" lon="2.48147">
        <ele>2127.9</ele>
        <time>2020-08-31T11:32:17.493Z</time>
      </trkpt>
      <trkpt lat="42.52959" lon="2.48151">
        <ele>2127.8</ele>
        <time>2020-08-31T11:32:18.391Z</time>
      </trkpt>
      <trkpt lat="42.52958" lon="2.48155">
        <ele>2127.7</ele>
        <time>2020-08-31T11:32:19.355Z</time>
      </trkpt>
      <trkpt lat="42.52958" lon="2.48158">
        <ele>2127.4</ele>
        <time>2020-08-31T11:32:19.908Z</time>
      </trkpt>
      <trkpt lat="42.52959" lon="2.4816">
        <ele>2127</ele>
        <time>2020-08-31T11:32:20.353Z</time>
      </trkpt>
      <trkpt lat="42.52959" lon="2.48164">
        <ele>2126.8</ele>
        <time>2020-08-31T11:32:21.089Z</time>
      </trkpt>
      <trkpt lat="42.52959" lon="2.48165">
        <ele>2126.7</ele>
        <time>2020-08-31T11:32:21.273Z</time>
      </trkpt>
      <trkpt lat="42.52959" lon="2.48168">
        <ele>2113.4</ele>
        <time>2020-08-31T11:32:21.825Z</time>
      </trkpt>
      <trkpt lat="42.52959" lon="2.48174">
        <ele>2113</ele>
        <time>2020-08-31T11:32:22.930Z</time>
      </trkpt>
      <trkpt lat="42.5296" lon="2.48178">
        <ele>2112.6</ele>
        <time>2020-08-31T11:32:23.707Z</time>
      </trkpt>
      <trkpt lat="42.5296" lon="2.48182">
        <ele>2112.2</ele>
        <time>2020-08-31T11:32:24.444Z</time>
      </trkpt>
      <trkpt lat="42.52959" lon="2.48186">
        <ele>2112</ele>
        <time>2020-08-31T11:32:25.169Z</time>
      </trkpt>
      <trkpt lat="42.52959" lon="2.4819">
        <ele>2111.6</ele>
        <time>2020-08-31T11:32:25.906Z</time>
      </trkpt>
      <trkpt lat="42.52959" lon="2.48196">
        <ele>2111.1</ele>
        <time>2020-08-31T11:32:27.010Z</time>
      </trkpt>
      <trkpt lat="42.5296" lon="2.482">
        <ele>2110.3</ele>
        <time>2020-08-31T11:32:27.788Z</time>
      </trkpt>
      <trkpt lat="42.52961" lon="2.48203">
        <ele>2109.7</ele>
        <time>2020-08-31T11:32:28.394Z</time>
      </trkpt>
      <trkpt lat="42.52961" lon="2.48207">
        <ele>2109.3</ele>
        <time>2020-08-31T11:32:29.130Z</time>
      </trkpt>
      <trkpt lat="42.5296" lon="2.48209">
        <ele>2109.4</ele>
        <time>2020-08-31T11:32:33.329Z</time>
      </trkpt>
      <trkpt lat="42.52957" lon="2.48211">
        <ele>2109.7</ele>
        <time>2020-08-31T11:32:43.556Z</time>
      </trkpt>
      <trkpt lat="42.52956" lon="2.48214">
        <ele>2109.5</ele>
        <time>2020-08-31T11:32:44.162Z</time>
      </trkpt>
      <trkpt lat="42.52957" lon="2.48217">
        <ele>2109</ele>
        <time>2020-08-31T11:32:44.768Z</time>
      </trkpt>
      <trkpt lat="42.52955" lon="2.48221">
        <ele>2109</ele>
        <time>2020-08-31T11:32:49.377Z</time>
      </trkpt>
      <trkpt lat="42.52952" lon="2.48232">
        <ele>2108.4</ele>
        <time>2020-08-31T11:32:51.537Z</time>
      </trkpt>
      <trkpt lat="42.5295" lon="2.48238">
        <ele>2108.5</ele>
        <time>2020-08-31T11:32:59.277Z</time>
      </trkpt>
      <trkpt lat="42.52948" lon="2.48241">
        <ele>2108.8</ele>
        <time>2020-08-31T11:33:09.371Z</time>
      </trkpt>
      <trkpt lat="42.52946" lon="2.48244">
        <ele>2109</ele>
        <time>2020-08-31T11:33:16.967Z</time>
      </trkpt>
      <trkpt lat="42.52944" lon="2.48249">
        <ele>2109.1</ele>
        <time>2020-08-31T11:33:23.909Z</time>
      </trkpt>
      <trkpt lat="42.52945" lon="2.48251">
        <ele>2098.3</ele>
        <time>2020-08-31T11:33:24.354Z</time>
      </trkpt>
      <trkpt lat="42.52946" lon="2.48254">
        <ele>2097.8</ele>
        <time>2020-08-31T11:33:24.960Z</time>
      </trkpt>
      <trkpt lat="42.52949" lon="2.48257">
        <ele>2096.8</ele>
        <time>2020-08-31T11:33:25.891Z</time>
      </trkpt>
      <trkpt lat="42.52952" lon="2.48262">
        <ele>2095.7</ele>
        <time>2020-08-31T11:33:27.077Z</time>
      </trkpt>
      <trkpt lat="42.52955" lon="2.48265">
        <ele>2094.6</ele>
        <time>2020-08-31T11:33:28.008Z</time>
      </trkpt>
      <trkpt lat="42.52958" lon="2.48268">
        <ele>2093.8</ele>
        <time>2020-08-31T11:33:28.939Z</time>
      </trkpt>
      <trkpt lat="42.5296" lon="2.48273">
        <ele>2093.2</ele>
        <time>2020-08-31T11:33:29.987Z</time>
      </trkpt>
      <trkpt lat="42.52961" lon="2.48276">
        <ele>2092.8</ele>
        <time>2020-08-31T11:33:30.593Z</time>
      </trkpt>
      <trkpt lat="42.52961" lon="2.48283">
        <ele>2092.3</ele>
        <time>2020-08-31T11:33:31.881Z</time>
      </trkpt>
      <trkpt lat="42.52962" lon="2.48289">
        <ele>2091.6</ele>
        <time>2020-08-31T11:33:33.014Z</time>
      </trkpt>
      <trkpt lat="42.52963" lon="2.48294">
        <ele>2091.1</ele>
        <time>2020-08-31T11:33:33.967Z</time>
      </trkpt>
      <trkpt lat="42.52964" lon="2.48298">
        <ele>2090.7</ele>
        <time>2020-08-31T11:33:34.745Z</time>
      </trkpt>
      <trkpt lat="42.52964" lon="2.48301">
        <ele>2090.3</ele>
        <time>2020-08-31T11:33:35.297Z</time>
      </trkpt>
      <trkpt lat="42.52963" lon="2.48307">
        <ele>2089.9</ele>
        <time>2020-08-31T11:33:36.430Z</time>
      </trkpt>
      <trkpt lat="42.5296" lon="2.48313">
        <ele>2089.8</ele>
        <time>2020-08-31T11:33:38.350Z</time>
      </trkpt>
      <trkpt lat="42.52956" lon="2.48318">
        <ele>2089.8</ele>
        <time>2020-08-31T11:33:45.388Z</time>
      </trkpt>
      <trkpt lat="42.52953" lon="2.48322">
        <ele>2089.7</ele>
        <time>2020-08-31T11:33:46.814Z</time>
      </trkpt>
      <trkpt lat="42.52949" lon="2.48326">
        <ele>2089.7</ele>
        <time>2020-08-31T11:33:53.243Z</time>
      </trkpt>
      <trkpt lat="42.52943" lon="2.48329">
        <ele>2089.8</ele>
        <time>2020-08-31T11:34:02.901Z</time>
      </trkpt>
      <trkpt lat="42.52938" lon="2.4833">
        <ele>2089.8</ele>
        <time>2020-08-31T11:34:09.441Z</time>
      </trkpt>
      <trkpt lat="42.5293" lon="2.48333">
        <ele>2089.5</ele>
        <time>2020-08-31T11:34:11.912Z</time>
      </trkpt>
      <trkpt lat="42.52926" lon="2.48334">
        <ele>2084.1</ele>
        <time>2020-08-31T11:34:12.928Z</time>
      </trkpt>
      <trkpt lat="42.52918" lon="2.48335">
        <ele>2086.8</ele>
        <time>2020-08-31T11:34:53.026Z</time>
      </trkpt>
      <trkpt lat="42.52911" lon="2.48338">
        <ele>2084.5</ele>
        <time>2020-08-31T11:34:54.860Z</time>
      </trkpt>
      <trkpt lat="42.52903" lon="2.48341">
        <ele>2081.6</ele>
        <time>2020-08-31T11:34:56.933Z</time>
      </trkpt>
      <trkpt lat="42.52898" lon="2.48343">
        <ele>2080.2</ele>
        <time>2020-08-31T11:34:58.236Z</time>
      </trkpt>
      <trkpt lat="42.52891" lon="2.48344">
        <ele>2079</ele>
        <time>2020-08-31T11:34:59.994Z</time>
      </trkpt>
      <trkpt lat="42.52885" lon="2.48346">
        <ele>2078.2</ele>
        <time>2020-08-31T11:35:01.537Z</time>
      </trkpt>
      <trkpt lat="42.52877" lon="2.48348">
        <ele>2077.5</ele>
        <time>2020-08-31T11:35:03.569Z</time>
      </trkpt>
      <trkpt lat="42.52866" lon="2.48352">
        <ele>2076.9</ele>
        <time>2020-08-31T11:35:06.484Z</time>
      </trkpt>
      <trkpt lat="42.52853" lon="2.48352">
        <ele>2077.6</ele>
        <time>2020-08-31T11:35:36.659Z</time>
      </trkpt>
      <trkpt lat="42.5284" lon="2.48349">
        <ele>2079.7</ele>
        <time>2020-08-31T11:36:42.475Z</time>
      </trkpt>
      <trkpt lat="42.52832" lon="2.48347">
        <ele>2077.8</ele>
        <time>2020-08-31T11:36:44.508Z</time>
      </trkpt>
      <trkpt lat="42.52824" lon="2.48344">
        <ele>2077.6</ele>
        <time>2020-08-31T11:36:47.312Z</time>
      </trkpt>
      <trkpt lat="42.52817" lon="2.4834">
        <ele>2076.2</ele>
        <time>2020-08-31T11:36:49.209Z</time>
      </trkpt>
      <trkpt lat="42.52809" lon="2.48337">
        <ele>2074.4</ele>
        <time>2020-08-31T11:36:51.282Z</time>
      </trkpt>
      <trkpt lat="42.52803" lon="2.48337">
        <ele>2073</ele>
        <time>2020-08-31T11:36:52.781Z</time>
      </trkpt>
      <trkpt lat="42.52797" lon="2.48338">
        <ele>2071.8</ele>
        <time>2020-08-31T11:36:54.291Z</time>
      </trkpt>
      <trkpt lat="42.52788" lon="2.48336">
        <ele>2071.2</ele>
        <time>2020-08-31T11:36:56.392Z</time>
      </trkpt>
      <trkpt lat="42.52778" lon="2.48333">
        <ele>2089.6</ele>
        <time>2020-08-31T11:37:47.509Z</time>
      </trkpt>
      <trkpt lat="42.52766" lon="2.48331">
        <ele>2086.5</ele>
        <time>2020-08-31T11:37:50.529Z</time>
      </trkpt>
      <trkpt lat="42.52757" lon="2.48333">
        <ele>2081.8</ele>
        <time>2020-08-31T11:37:52.807Z</time>
      </trkpt>
      <trkpt lat="42.52747" lon="2.48333">
        <ele>2079.5</ele>
        <time>2020-08-31T11:37:55.305Z</time>
      </trkpt>
      <trkpt lat="42.52735" lon="2.48335">
        <ele>2073.5</ele>
        <time>2020-08-31T11:37:58.325Z</time>
      </trkpt>
      <trkpt lat="42.52727" lon="2.48338">
        <ele>2072.7</ele>
        <time>2020-08-31T11:38:00.398Z</time>
      </trkpt>
      <trkpt lat="42.52717" lon="2.48343">
        <ele>2072.3</ele>
        <time>2020-08-31T11:38:03.528Z</time>
      </trkpt>
      <trkpt lat="42.52706" lon="2.48352">
        <ele>2072.1</ele>
        <time>2020-08-31T11:38:08.326Z</time>
      </trkpt>
      <trkpt lat="42.52696" lon="2.48361">
        <ele>2071.9</ele>
        <time>2020-08-31T11:38:12.748Z</time>
      </trkpt>
      <trkpt lat="42.52688" lon="2.48368">
        <ele>2071.3</ele>
        <time>2020-08-31T11:38:14.988Z</time>
      </trkpt>
      <trkpt lat="42.52681" lon="2.48375">
        <ele>2070.4</ele>
        <time>2020-08-31T11:38:17.160Z</time>
      </trkpt>
      <trkpt lat="42.52673" lon="2.48381">
        <ele>2069.4</ele>
        <time>2020-08-31T11:38:19.443Z</time>
      </trkpt>
      <trkpt lat="42.52662" lon="2.48387">
        <ele>2074.8</ele>
        <time>2020-08-31T11:39:18.616Z</time>
      </trkpt>
      <trkpt lat="42.52653" lon="2.48393">
        <ele>2074</ele>
        <time>2020-08-31T11:39:21.120Z</time>
      </trkpt>
      <trkpt lat="42.52646" lon="2.48399">
        <ele>2073.5</ele>
        <time>2020-08-31T11:39:23.110Z</time>
      </trkpt>
      <trkpt lat="42.52638" lon="2.48408">
        <ele>2073.4</ele>
        <time>2020-08-31T11:39:27.299Z</time>
      </trkpt>
      <trkpt lat="42.52631" lon="2.48415">
        <ele>2073.5</ele>
        <time>2020-08-31T11:39:39.876Z</time>
      </trkpt>
      <trkpt lat="42.52619" lon="2.48429">
        <ele>2058.7</ele>
        <time>2020-08-31T11:39:43.829Z</time>
      </trkpt>
      <trkpt lat="42.52616" lon="2.48437">
        <ele>2058.1</ele>
        <time>2020-08-31T11:39:45.482Z</time>
      </trkpt>
      <trkpt lat="42.52609" lon="2.48439">
        <ele>2058.4</ele>
        <time>2020-08-31T11:40:00.512Z</time>
      </trkpt>
      <trkpt lat="42.52598" lon="2.48442">
        <ele>2058.7</ele>
        <time>2020-08-31T11:40:19.740Z</time>
      </trkpt>
      <trkpt lat="42.52595" lon="2.48443">
        <ele>2058.7</ele>
        <time>2020-08-31T11:40:23.738Z</time>
      </trkpt>
      <trkpt lat="42.5259" lon="2.48445">
        <ele>2058.6</ele>
        <time>2020-08-31T11:40:25.601Z</time>
      </trkpt>
      <trkpt lat="42.5258" lon="2.48443">
        <ele>2054.8</ele>
        <time>2020-08-31T11:40:28.126Z</time>
      </trkpt>
      <trkpt lat="42.5256" lon="2.4844">
        <ele>2052.8</ele>
        <time>2020-08-31T11:40:33.153Z</time>
      </trkpt>
      <trkpt lat="42.52556" lon="2.48441">
        <ele>2051.8</ele>
        <time>2020-08-31T11:40:34.169Z</time>
      </trkpt>
      <trkpt lat="42.52546" lon="2.48441">
        <ele>2050.3</ele>
        <time>2020-08-31T11:40:36.667Z</time>
      </trkpt>
      <trkpt lat="42.52542" lon="2.4844">
        <ele>2050</ele>
        <time>2020-08-31T11:40:37.683Z</time>
      </trkpt>
      <trkpt lat="42.52537" lon="2.48438">
        <ele>2049.7</ele>
        <time>2020-08-31T11:40:38.964Z</time>
      </trkpt>
      <trkpt lat="42.52535" lon="2.48438">
        <ele>2049.4</ele>
        <time>2020-08-31T11:40:39.464Z</time>
      </trkpt>
      <trkpt lat="42.52532" lon="2.48438">
        <ele>2049.1</ele>
        <time>2020-08-31T11:40:40.213Z</time>
      </trkpt>
      <trkpt lat="42.5253" lon="2.48444">
        <ele>2048.1</ele>
        <time>2020-08-31T11:40:41.425Z</time>
      </trkpt>
      <trkpt lat="42.52531" lon="2.48449">
        <ele>2047.4</ele>
        <time>2020-08-31T11:40:42.379Z</time>
      </trkpt>
      <trkpt lat="42.52532" lon="2.48452">
        <ele>2047.2</ele>
        <time>2020-08-31T11:40:42.985Z</time>
      </trkpt>
      <trkpt lat="42.52534" lon="2.48454">
        <ele>2047</ele>
        <time>2020-08-31T11:40:43.606Z</time>
      </trkpt>
      <trkpt lat="42.52538" lon="2.48457">
        <ele>2047</ele>
        <time>2020-08-31T11:40:49.520Z</time>
      </trkpt>
      <trkpt lat="42.52542" lon="2.48459">
        <ele>2047.2</ele>
        <time>2020-08-31T11:40:58.974Z</time>
      </trkpt>
      <trkpt lat="42.52547" lon="2.4846">
        <ele>2047.6</ele>
        <time>2020-08-31T11:41:13.109Z</time>
      </trkpt>
      <trkpt lat="42.52551" lon="2.48462">
        <ele>2047.8</ele>
        <time>2020-08-31T11:41:22.563Z</time>
      </trkpt>
      <trkpt lat="42.52555" lon="2.48465">
        <ele>2047.9</ele>
        <time>2020-08-31T11:41:29.960Z</time>
      </trkpt>
      <trkpt lat="42.5256" lon="2.48469">
        <ele>2047.8</ele>
        <time>2020-08-31T11:41:32.084Z</time>
      </trkpt>
      <trkpt lat="42.52564" lon="2.48472">
        <ele>2047.8</ele>
        <time>2020-08-31T11:41:37.998Z</time>
      </trkpt>
      <trkpt lat="42.5257" lon="2.48474">
        <ele>2048</ele>
        <time>2020-08-31T11:41:49.363Z</time>
      </trkpt>
      <trkpt lat="42.52576" lon="2.48477">
        <ele>2048</ele>
        <time>2020-08-31T11:41:57.637Z</time>
      </trkpt>
      <trkpt lat="42.52581" lon="2.48479">
        <ele>2048</ele>
        <time>2020-08-31T11:42:04.382Z</time>
      </trkpt>
      <trkpt lat="42.52584" lon="2.48481">
        <ele>2051.8</ele>
        <time>2020-08-31T11:42:21.065Z</time>
      </trkpt>
      <trkpt lat="42.52588" lon="2.48483">
        <ele>2051.4</ele>
        <time>2020-08-31T11:42:22.130Z</time>
      </trkpt>
      <trkpt lat="42.52591" lon="2.48485">
        <ele>2051.3</ele>
        <time>2020-08-31T11:42:23.190Z</time>
      </trkpt>
      <trkpt lat="42.52593" lon="2.48486">
        <ele>2051.2</ele>
        <time>2020-08-31T11:42:23.764Z</time>
      </trkpt>
      <trkpt lat="42.52601" lon="2.48495">
        <ele>2051</ele>
        <time>2020-08-31T11:42:27.477Z</time>
      </trkpt>
      <trkpt lat="42.52607" lon="2.48496">
        <ele>2051.4</ele>
        <time>2020-08-31T11:42:42.775Z</time>
      </trkpt>
      <trkpt lat="42.52616" lon="2.48496">
        <ele>2051.6</ele>
        <time>2020-08-31T11:42:57.398Z</time>
      </trkpt>
      <trkpt lat="42.52624" lon="2.48498">
        <ele>2051.5</ele>
        <time>2020-08-31T11:43:00.564Z</time>
      </trkpt>
      <trkpt lat="42.52629" lon="2.48498">
        <ele>2051.2</ele>
        <time>2020-08-31T11:43:01.769Z</time>
      </trkpt>
      <trkpt lat="42.52638" lon="2.48499">
        <ele>2050.5</ele>
        <time>2020-08-31T11:43:04.025Z</time>
      </trkpt>
      <trkpt lat="42.52648" lon="2.48499">
        <ele>2049</ele>
        <time>2020-08-31T11:43:06.523Z</time>
      </trkpt>
      <trkpt lat="42.52652" lon="2.48502">
        <ele>2038.7</ele>
        <time>2020-08-31T11:43:07.665Z</time>
      </trkpt>
      <trkpt lat="42.52653" lon="2.48507">
        <ele>2038.5</ele>
        <time>2020-08-31T11:43:08.645Z</time>
      </trkpt>
      <trkpt lat="42.52651" lon="2.48514">
        <ele>2037.2</ele>
        <time>2020-08-31T11:43:10.027Z</time>
      </trkpt>
      <trkpt lat="42.52647" lon="2.48518">
        <ele>2036.2</ele>
        <time>2020-08-31T11:43:11.268Z</time>
      </trkpt>
      <trkpt lat="42.52643" lon="2.48522">
        <ele>2035.4</ele>
        <time>2020-08-31T11:43:12.509Z</time>
      </trkpt>
      <trkpt lat="42.52643" lon="2.48525">
        <ele>2035</ele>
        <time>2020-08-31T11:43:13.061Z</time>
      </trkpt>
      <trkpt lat="42.52643" lon="2.48529">
        <ele>2034.4</ele>
        <time>2020-08-31T11:43:13.798Z</time>
      </trkpt>
      <trkpt lat="42.52649" lon="2.48537">
        <ele>2033.4</ele>
        <time>2020-08-31T11:43:15.899Z</time>
      </trkpt>
      <trkpt lat="42.52657" lon="2.48544">
        <ele>2032.4</ele>
        <time>2020-08-31T11:43:18.277Z</time>
      </trkpt>
      <trkpt lat="42.52665" lon="2.48548">
        <ele>2032</ele>
        <time>2020-08-31T11:43:20.571Z</time>
      </trkpt>
      <trkpt lat="42.52671" lon="2.48547">
        <ele>2027.1</ele>
        <time>2020-08-31T11:43:22.081Z</time>
      </trkpt>
      <trkpt lat="42.52673" lon="2.48544">
        <ele>2027.4</ele>
        <time>2020-08-31T11:43:32.175Z</time>
      </trkpt>
      <trkpt lat="42.52673" lon="2.48537">
        <ele>2028.4</ele>
        <time>2020-08-31T11:43:57.923Z</time>
      </trkpt>
      <trkpt lat="42.52674" lon="2.48532">
        <ele>2029.3</ele>
        <time>2020-08-31T11:44:16.980Z</time>
      </trkpt>
      <trkpt lat="42.52678" lon="2.4853">
        <ele>2029.5</ele>
        <time>2020-08-31T11:44:26.435Z</time>
      </trkpt>
      <trkpt lat="42.52686" lon="2.48526">
        <ele>2029.2</ele>
        <time>2020-08-31T11:44:28.997Z</time>
      </trkpt>
      <trkpt lat="42.52691" lon="2.48527">
        <ele>2028.3</ele>
        <time>2020-08-31T11:44:30.259Z</time>
      </trkpt>
      <trkpt lat="42.52694" lon="2.48527">
        <ele>2027.8</ele>
        <time>2020-08-31T11:44:31.009Z</time>
      </trkpt>
      <trkpt lat="42.52696" lon="2.4853">
        <ele>2027.2</ele>
        <time>2020-08-31T11:44:31.754Z</time>
      </trkpt>
      <trkpt lat="42.52696" lon="2.48545">
        <ele>2025.2</ele>
        <time>2020-08-31T11:44:34.515Z</time>
      </trkpt>
      <trkpt lat="42.52696" lon="2.48551">
        <ele>2024.5</ele>
        <time>2020-08-31T11:44:35.620Z</time>
      </trkpt>
      <trkpt lat="42.52696" lon="2.48556">
        <ele>2024.1</ele>
        <time>2020-08-31T11:44:36.540Z</time>
      </trkpt>
      <trkpt lat="42.52696" lon="2.48563">
        <ele>2023.5</ele>
        <time>2020-08-31T11:44:37.829Z</time>
      </trkpt>
      <trkpt lat="42.52694" lon="2.48569">
        <ele>2023.3</ele>
        <time>2020-08-31T11:44:39.205Z</time>
      </trkpt>
      <trkpt lat="42.52693" lon="2.48574">
        <ele>2023.3</ele>
        <time>2020-08-31T11:44:44.145Z</time>
      </trkpt>
      <trkpt lat="42.52691" lon="2.48579">
        <ele>2023.3</ele>
        <time>2020-08-31T11:44:49.570Z</time>
      </trkpt>
      <trkpt lat="42.5269" lon="2.48584">
        <ele>2009.2</ele>
        <time>2020-08-31T11:44:50.524Z</time>
      </trkpt>
      <trkpt lat="42.52688" lon="2.4859">
        <ele>2009.3</ele>
        <time>2020-08-31T11:44:58.265Z</time>
      </trkpt>
      <trkpt lat="42.52686" lon="2.48594">
        <ele>2008.9</ele>
        <time>2020-08-31T11:44:59.155Z</time>
      </trkpt>
      <trkpt lat="42.52685" lon="2.48597">
        <ele>2008.3</ele>
        <time>2020-08-31T11:44:59.761Z</time>
      </trkpt>
      <trkpt lat="42.52683" lon="2.48603">
        <ele>2006.8</ele>
        <time>2020-08-31T11:45:00.973Z</time>
      </trkpt>
      <trkpt lat="42.52681" lon="2.48612">
        <ele>2003.9</ele>
        <time>2020-08-31T11:45:02.704Z</time>
      </trkpt>
      <trkpt lat="42.52682" lon="2.48615">
        <ele>2002.6</ele>
        <time>2020-08-31T11:45:03.310Z</time>
      </trkpt>
      <trkpt lat="42.52684" lon="2.48618">
        <ele>2001.3</ele>
        <time>2020-08-31T11:45:04.055Z</time>
      </trkpt>
      <trkpt lat="42.52687" lon="2.48622">
        <ele>1999.7</ele>
        <time>2020-08-31T11:45:05.105Z</time>
      </trkpt>
      <trkpt lat="42.5269" lon="2.48626">
        <ele>1998.2</ele>
        <time>2020-08-31T11:45:06.156Z</time>
      </trkpt>
      <trkpt lat="42.52695" lon="2.48631">
        <ele>1996.8</ele>
        <time>2020-08-31T11:45:07.708Z</time>
      </trkpt>
      <trkpt lat="42.52698" lon="2.48633">
        <ele>1996.2</ele>
        <time>2020-08-31T11:45:08.543Z</time>
      </trkpt>
      <trkpt lat="42.52703" lon="2.48635">
        <ele>1995.8</ele>
        <time>2020-08-31T11:45:09.845Z</time>
      </trkpt>
      <trkpt lat="42.52706" lon="2.48636">
        <ele>1995.4</ele>
        <time>2020-08-31T11:45:10.616Z</time>
      </trkpt>
      <trkpt lat="42.52709" lon="2.48639">
        <ele>1994.8</ele>
        <time>2020-08-31T11:45:11.547Z</time>
      </trkpt>
      <trkpt lat="42.52709" lon="2.48642">
        <ele>1994.3</ele>
        <time>2020-08-31T11:45:12.099Z</time>
      </trkpt>
      <trkpt lat="42.52708" lon="2.48644">
        <ele>1993.9</ele>
        <time>2020-08-31T11:45:12.544Z</time>
      </trkpt>
      <trkpt lat="42.52709" lon="2.48649">
        <ele>1993.1</ele>
        <time>2020-08-31T11:45:13.498Z</time>
      </trkpt>
      <trkpt lat="42.52714" lon="2.48652">
        <ele>1992.6</ele>
        <time>2020-08-31T11:45:14.864Z</time>
      </trkpt>
      <trkpt lat="42.52718" lon="2.48652">
        <ele>1992.3</ele>
        <time>2020-08-31T11:45:15.863Z</time>
      </trkpt>
      <trkpt lat="42.52721" lon="2.48653">
        <ele>1992</ele>
        <time>2020-08-31T11:45:16.635Z</time>
      </trkpt>
      <trkpt lat="42.52722" lon="2.48654">
        <ele>1991.7</ele>
        <time>2020-08-31T11:45:16.945Z</time>
      </trkpt>
      <trkpt lat="42.52722" lon="2.48656">
        <ele>1991.4</ele>
        <time>2020-08-31T11:45:17.313Z</time>
      </trkpt>
      <trkpt lat="42.5272" lon="2.4866">
        <ele>1991.1</ele>
        <time>2020-08-31T11:45:18.203Z</time>
      </trkpt>
      <trkpt lat="42.52718" lon="2.48662">
        <ele>1991.1</ele>
        <time>2020-08-31T11:45:21.418Z</time>
      </trkpt>
      <trkpt lat="42.52714" lon="2.48668">
        <ele>1973.1</ele>
        <time>2020-08-31T11:45:22.907Z</time>
      </trkpt>
      <trkpt lat="42.52715" lon="2.48671">
        <ele>1973</ele>
        <time>2020-08-31T11:45:23.595Z</time>
      </trkpt>
      <trkpt lat="42.52715" lon="2.48673">
        <ele>1972.8</ele>
        <time>2020-08-31T11:45:23.964Z</time>
      </trkpt>
      <trkpt lat="42.52713" lon="2.48675">
        <ele>1972.5</ele>
        <time>2020-08-31T11:45:24.584Z</time>
      </trkpt>
      <trkpt lat="42.52713" lon="2.48677">
        <ele>1972.3</ele>
        <time>2020-08-31T11:45:24.952Z</time>
      </trkpt>
      <trkpt lat="42.52714" lon="2.48679">
        <ele>1972.1</ele>
        <time>2020-08-31T11:45:25.397Z</time>
      </trkpt>
      <trkpt lat="42.52716" lon="2.48682">
        <ele>1971.9</ele>
        <time>2020-08-31T11:45:26.142Z</time>
      </trkpt>
      <trkpt lat="42.5272" lon="2.48685">
        <ele>1971.8</ele>
        <time>2020-08-31T11:45:27.725Z</time>
      </trkpt>
      <trkpt lat="42.52723" lon="2.48687">
        <ele>1971.7</ele>
        <time>2020-08-31T11:45:28.786Z</time>
      </trkpt>
      <trkpt lat="42.52724" lon="2.48688">
        <ele>1971.5</ele>
        <time>2020-08-31T11:45:29.096Z</time>
      </trkpt>
      <trkpt lat="42.52724" lon="2.48691">
        <ele>1971.1</ele>
        <time>2020-08-31T11:45:29.648Z</time>
      </trkpt>
      <trkpt lat="42.52723" lon="2.48694">
        <ele>1970.5</ele>
        <time>2020-08-31T11:45:30.254Z</time>
      </trkpt>
      <trkpt lat="42.52725" lon="2.48697">
        <ele>1970.1</ele>
        <time>2020-08-31T11:45:30.999Z</time>
      </trkpt>
      <trkpt lat="42.52727" lon="2.48698">
        <ele>1970</ele>
        <time>2020-08-31T11:45:31.573Z</time>
      </trkpt>
      <trkpt lat="42.52728" lon="2.48699">
        <ele>1969.8</ele>
        <time>2020-08-31T11:45:31.883Z</time>
      </trkpt>
      <trkpt lat="42.52729" lon="2.487">
        <ele>1969.7</ele>
        <time>2020-08-31T11:45:32.193Z</time>
      </trkpt>
      <trkpt lat="42.52728" lon="2.48702">
        <ele>1969.3</ele>
        <time>2020-08-31T11:45:32.638Z</time>
      </trkpt>
      <trkpt lat="42.52726" lon="2.48703">
        <ele>1969</ele>
        <time>2020-08-31T11:45:33.171Z</time>
      </trkpt>
      <trkpt lat="42.52723" lon="2.48704">
        <ele>1968.8</ele>
        <time>2020-08-31T11:45:33.888Z</time>
      </trkpt>
      <trkpt lat="42.52722" lon="2.48706">
        <ele>1968.5</ele>
        <time>2020-08-31T11:45:34.333Z</time>
      </trkpt>
      <trkpt lat="42.5272" lon="2.48708">
        <ele>1968.1</ele>
        <time>2020-08-31T11:45:34.953Z</time>
      </trkpt>
      <trkpt lat="42.52718" lon="2.4871">
        <ele>1967.7</ele>
        <time>2020-08-31T11:45:35.574Z</time>
      </trkpt>
      <trkpt lat="42.52716" lon="2.48711">
        <ele>1967.5</ele>
        <time>2020-08-31T11:45:36.107Z</time>
      </trkpt>
      <trkpt lat="42.5271" lon="2.48716">
        <ele>1966.8</ele>
        <time>2020-08-31T11:45:37.865Z</time>
      </trkpt>
      <trkpt lat="42.52708" lon="2.48718">
        <ele>1966.5</ele>
        <time>2020-08-31T11:45:38.486Z</time>
      </trkpt>
      <trkpt lat="42.52711" lon="2.4872">
        <ele>1966.2</ele>
        <time>2020-08-31T11:45:39.321Z</time>
      </trkpt>
      <trkpt lat="42.52713" lon="2.48721">
        <ele>1966</ele>
        <time>2020-08-31T11:45:39.853Z</time>
      </trkpt>
      <trkpt lat="42.52717" lon="2.48724">
        <ele>1965.5</ele>
        <time>2020-08-31T11:45:40.995Z</time>
      </trkpt>
      <trkpt lat="42.5272" lon="2.48727">
        <ele>1965</ele>
        <time>2020-08-31T11:45:41.926Z</time>
      </trkpt>
      <trkpt lat="42.52721" lon="2.48729">
        <ele>1964.5</ele>
        <time>2020-08-31T11:45:42.371Z</time>
      </trkpt>
      <trkpt lat="42.52725" lon="2.48732">
        <ele>1963.8</ele>
        <time>2020-08-31T11:45:43.513Z</time>
      </trkpt>
      <trkpt lat="42.52728" lon="2.48735">
        <ele>1963</ele>
        <time>2020-08-31T11:45:44.443Z</time>
      </trkpt>
      <trkpt lat="42.52731" lon="2.48738">
        <ele>1962.1</ele>
        <time>2020-08-31T11:45:45.374Z</time>
      </trkpt>
      <trkpt lat="42.52732" lon="2.4874">
        <ele>1961.7</ele>
        <time>2020-08-31T11:45:45.819Z</time>
      </trkpt>
      <trkpt lat="42.52733" lon="2.48744">
        <ele>1960.9</ele>
        <time>2020-08-31T11:45:46.597Z</time>
      </trkpt>
      <trkpt lat="42.52731" lon="2.48748">
        <ele>1960.8</ele>
        <time>2020-08-31T11:45:47.749Z</time>
      </trkpt>
      <trkpt lat="42.52729" lon="2.48753">
        <ele>1946.5</ele>
        <time>2020-08-31T11:45:48.796Z</time>
      </trkpt>
      <trkpt lat="42.52727" lon="2.48759">
        <ele>1945.5</ele>
        <time>2020-08-31T11:45:50.009Z</time>
      </trkpt>
      <trkpt lat="42.52725" lon="2.48764">
        <ele>1944.5</ele>
        <time>2020-08-31T11:45:51.056Z</time>
      </trkpt>
      <trkpt lat="42.52723" lon="2.48769">
        <ele>1943.5</ele>
        <time>2020-08-31T11:45:52.103Z</time>
      </trkpt>
      <trkpt lat="42.52721" lon="2.48775">
        <ele>1942.4</ele>
        <time>2020-08-31T11:45:53.316Z</time>
      </trkpt>
      <trkpt lat="42.5272" lon="2.48777">
        <ele>1942</ele>
        <time>2020-08-31T11:45:53.760Z</time>
      </trkpt>
      <trkpt lat="42.52717" lon="2.48779">
        <ele>1941.5</ele>
        <time>2020-08-31T11:45:54.595Z</time>
      </trkpt>
      <trkpt lat="42.52715" lon="2.48784">
        <ele>1940.5</ele>
        <time>2020-08-31T11:45:55.643Z</time>
      </trkpt>
      <trkpt lat="42.52717" lon="2.4879">
        <ele>1939.5</ele>
        <time>2020-08-31T11:45:56.855Z</time>
      </trkpt>
      <trkpt lat="42.52719" lon="2.4879">
        <ele>1939.4</ele>
        <time>2020-08-31T11:45:57.379Z</time>
      </trkpt>
      <trkpt lat="42.52722" lon="2.48791">
        <ele>1939.4</ele>
        <time>2020-08-31T11:46:01.376Z</time>
      </trkpt>
      <trkpt lat="42.52725" lon="2.48791">
        <ele>1939.4</ele>
        <time>2020-08-31T11:46:05.258Z</time>
      </trkpt>
      <trkpt lat="42.5273" lon="2.4879">
        <ele>1939.8</ele>
        <time>2020-08-31T11:46:19.393Z</time>
      </trkpt>
      <trkpt lat="42.52732" lon="2.48789">
        <ele>1940.1</ele>
        <time>2020-08-31T11:46:30.031Z</time>
      </trkpt>
      <trkpt lat="42.52733" lon="2.48795">
        <ele>1939</ele>
        <time>2020-08-31T11:46:31.164Z</time>
      </trkpt>
      <trkpt lat="42.52732" lon="2.48799">
        <ele>1938.1</ele>
        <time>2020-08-31T11:46:31.941Z</time>
      </trkpt>
      <trkpt lat="42.52731" lon="2.48804">
        <ele>1937.1</ele>
        <time>2020-08-31T11:46:32.895Z</time>
      </trkpt>
      <trkpt lat="42.52729" lon="2.48809">
        <ele>1936.2</ele>
        <time>2020-08-31T11:46:33.942Z</time>
      </trkpt>
      <trkpt lat="42.52728" lon="2.48813">
        <ele>1935.6</ele>
        <time>2020-08-31T11:46:34.720Z</time>
      </trkpt>
      <trkpt lat="42.5273" lon="2.48817">
        <ele>1935.1</ele>
        <time>2020-08-31T11:46:35.610Z</time>
      </trkpt>
      <trkpt lat="42.52734" lon="2.4882">
        <ele>1934.5</ele>
        <time>2020-08-31T11:46:36.751Z</time>
      </trkpt>
      <trkpt lat="42.52738" lon="2.48823">
        <ele>1933.8</ele>
        <time>2020-08-31T11:46:37.893Z</time>
      </trkpt>
      <trkpt lat="42.5274" lon="2.48826">
        <ele>1933</ele>
        <time>2020-08-31T11:46:38.638Z</time>
      </trkpt>
      <trkpt lat="42.52743" lon="2.4883">
        <ele>1932</ele>
        <time>2020-08-31T11:46:39.688Z</time>
      </trkpt>
      <trkpt lat="42.52744" lon="2.48835">
        <ele>1925</ele>
        <time>2020-08-31T11:46:40.642Z</time>
      </trkpt>
      <trkpt lat="42.52745" lon="2.4884">
        <ele>1923.1</ele>
        <time>2020-08-31T11:46:41.596Z</time>
      </trkpt>
      <trkpt lat="42.52743" lon="2.48848">
        <ele>1918.7</ele>
        <time>2020-08-31T11:46:43.151Z</time>
      </trkpt>
      <trkpt lat="42.5274" lon="2.48853">
        <ele>1916.1</ele>
        <time>2020-08-31T11:46:44.338Z</time>
      </trkpt>
      <trkpt lat="42.52738" lon="2.48852">
        <ele>1916</ele>
        <time>2020-08-31T11:46:44.912Z</time>
      </trkpt>
      <trkpt lat="42.52734" lon="2.4885">
        <ele>1915.6</ele>
        <time>2020-08-31T11:46:45.977Z</time>
      </trkpt>
      <trkpt lat="42.52727" lon="2.4885">
        <ele>1914</ele>
        <time>2020-08-31T11:46:47.725Z</time>
      </trkpt>
      <trkpt lat="42.52724" lon="2.48849">
        <ele>1913.4</ele>
        <time>2020-08-31T11:46:48.497Z</time>
      </trkpt>
      <trkpt lat="42.52721" lon="2.48849">
        <ele>1913</ele>
        <time>2020-08-31T11:46:49.246Z</time>
      </trkpt>
      <trkpt lat="42.52717" lon="2.48847">
        <ele>1912.5</ele>
        <time>2020-08-31T11:46:50.311Z</time>
      </trkpt>
      <trkpt lat="42.52712" lon="2.48848">
        <ele>1911.6</ele>
        <time>2020-08-31T11:46:51.574Z</time>
      </trkpt>
      <trkpt lat="42.52713" lon="2.4885">
        <ele>1911.3</ele>
        <time>2020-08-31T11:46:52.018Z</time>
      </trkpt>
      <trkpt lat="42.52715" lon="2.48853">
        <ele>1911</ele>
        <time>2020-08-31T11:46:52.763Z</time>
      </trkpt>
      <trkpt lat="42.52718" lon="2.48857">
        <ele>1910.9</ele>
        <time>2020-08-31T11:46:54.189Z</time>
      </trkpt>
      <trkpt lat="42.52721" lon="2.48859">
        <ele>1911</ele>
        <time>2020-08-31T11:47:00.147Z</time>
      </trkpt>
      <trkpt lat="42.52725" lon="2.48861">
        <ele>1911</ele>
        <time>2020-08-31T11:47:05.663Z</time>
      </trkpt>
      <trkpt lat="42.52728" lon="2.48862">
        <ele>1911.3</ele>
        <time>2020-08-31T11:47:15.774Z</time>
      </trkpt>
      <trkpt lat="42.52731" lon="2.48865">
        <ele>1911</ele>
        <time>2020-08-31T11:47:16.705Z</time>
      </trkpt>
      <trkpt lat="42.52735" lon="2.48869">
        <ele>1910.1</ele>
        <time>2020-08-31T11:47:17.946Z</time>
      </trkpt>
      <trkpt lat="42.52736" lon="2.48871">
        <ele>1909.7</ele>
        <time>2020-08-31T11:47:18.391Z</time>
      </trkpt>
      <trkpt lat="42.52739" lon="2.48876">
        <ele>1908.8</ele>
        <time>2020-08-31T11:47:19.578Z</time>
      </trkpt>
      <trkpt lat="42.52743" lon="2.48882">
        <ele>1907.4</ele>
        <time>2020-08-31T11:47:21.068Z</time>
      </trkpt>
      <trkpt lat="42.52747" lon="2.48887">
        <ele>1906.2</ele>
        <time>2020-08-31T11:47:22.426Z</time>
      </trkpt>
      <trkpt lat="42.52751" lon="2.48891">
        <ele>1906.9</ele>
        <time>2020-08-31T11:47:47.227Z</time>
      </trkpt>
      <trkpt lat="42.52754" lon="2.48894">
        <ele>1905.9</ele>
        <time>2020-08-31T11:47:48.157Z</time>
      </trkpt>
      <trkpt lat="42.52757" lon="2.48899">
        <ele>1904.8</ele>
        <time>2020-08-31T11:47:49.344Z</time>
      </trkpt>
      <trkpt lat="42.52759" lon="2.48904">
        <ele>1903.9</ele>
        <time>2020-08-31T11:47:50.392Z</time>
      </trkpt>
      <trkpt lat="42.52762" lon="2.48912">
        <ele>1902.7</ele>
        <time>2020-08-31T11:47:52.044Z</time>
      </trkpt>
      <trkpt lat="42.52764" lon="2.48918">
        <ele>1890.5</ele>
        <time>2020-08-31T11:47:53.256Z</time>
      </trkpt>
      <trkpt lat="42.52766" lon="2.48923">
        <ele>1889.3</ele>
        <time>2020-08-31T11:47:54.304Z</time>
      </trkpt>
      <trkpt lat="42.52768" lon="2.48928">
        <ele>1887.4</ele>
        <time>2020-08-31T11:47:55.351Z</time>
      </trkpt>
      <trkpt lat="42.52771" lon="2.48935">
        <ele>1885.1</ele>
        <time>2020-08-31T11:47:56.842Z</time>
      </trkpt>
      <trkpt lat="42.52774" lon="2.4894">
        <ele>1883.5</ele>
        <time>2020-08-31T11:47:58.029Z</time>
      </trkpt>
      <trkpt lat="42.52777" lon="2.48948">
        <ele>1881.7</ele>
        <time>2020-08-31T11:47:59.681Z</time>
      </trkpt>
      <trkpt lat="42.52779" lon="2.48954">
        <ele>1880.2</ele>
        <time>2020-08-31T11:48:00.893Z</time>
      </trkpt>
      <trkpt lat="42.52782" lon="2.48962">
        <ele>1878.4</ele>
        <time>2020-08-31T11:48:02.546Z</time>
      </trkpt>
      <trkpt lat="42.52786" lon="2.4897">
        <ele>1877</ele>
        <time>2020-08-31T11:48:04.325Z</time>
      </trkpt>
      <trkpt lat="42.52789" lon="2.48976">
        <ele>1876</ele>
        <time>2020-08-31T11:48:05.660Z</time>
      </trkpt>
      <trkpt lat="42.52793" lon="2.48983">
        <ele>1875.1</ele>
        <time>2020-08-31T11:48:07.291Z</time>
      </trkpt>
      <trkpt lat="42.52795" lon="2.48991">
        <ele>1874.2</ele>
        <time>2020-08-31T11:48:08.846Z</time>
      </trkpt>
      <trkpt lat="42.52798" lon="2.49002">
        <ele>1859.4</ele>
        <time>2020-08-31T11:48:11.005Z</time>
      </trkpt>
      <trkpt lat="42.52798" lon="2.49003">
        <ele>1859.4</ele>
        <time>2020-08-31T11:48:11.959Z</time>
      </trkpt>
      <trkpt lat="42.528" lon="2.49008">
        <ele>1859.2</ele>
        <time>2020-08-31T11:48:13.079Z</time>
        <extensions>
          <visugpx:TrkExtension xmlns:visugpx="https://www.visugpx.com/editgpx/">
            <visugpx:node>15</visugpx:node>
            </visugpx:TrkExtension>
        </extensions>
      </trkpt>
      <trkpt lat="42.52801" lon="2.49011">
        <ele>1859.1</ele>
        <time>2020-08-31T11:48:13.767Z</time>
      </trkpt>
      <trkpt lat="42.52803" lon="2.49017">
        <ele>1858.8</ele>
        <time>2020-08-31T11:48:14.920Z</time>
      </trkpt>
      <trkpt lat="42.52805" lon="2.49027">
        <ele>1858.1</ele>
        <time>2020-08-31T11:48:16.828Z</time>
      </trkpt>
      <trkpt lat="42.52809" lon="2.49045">
        <ele>1856.6</ele>
        <time>2020-08-31T11:48:20.288Z</time>
      </trkpt>
      <trkpt lat="42.5281" lon="2.49054">
        <ele>1856</ele>
        <time>2020-08-31T11:48:21.964Z</time>
      </trkpt>
      <trkpt lat="42.52812" lon="2.49059">
        <ele>1855.8</ele>
        <time>2020-08-31T11:48:23.084Z</time>
      </trkpt>
      <trkpt lat="42.52812" lon="2.4906">
        <ele>1855.8</ele>
        <time>2020-08-31T11:48:24.038Z</time>
      </trkpt>
      <trkpt lat="42.52816" lon="2.49062">
        <ele>1855.9</ele>
        <time>2020-08-31T11:48:31.064Z</time>
      </trkpt>
      <trkpt lat="42.52819" lon="2.49062">
        <ele>1856.1</ele>
        <time>2020-08-31T11:48:38.684Z</time>
      </trkpt>
      <trkpt lat="42.52821" lon="2.49066">
        <ele>1856.1</ele>
        <time>2020-08-31T11:48:43.293Z</time>
      </trkpt>
      <trkpt lat="42.52824" lon="2.49075">
        <ele>1856.2</ele>
        <time>2020-08-31T11:48:54.069Z</time>
      </trkpt>
      <trkpt lat="42.52828" lon="2.49081">
        <ele>1856.6</ele>
        <time>2020-08-31T11:49:09.261Z</time>
      </trkpt>
      <trkpt lat="42.52831" lon="2.49084">
        <ele>1854.5</ele>
        <time>2020-08-31T11:49:10.192Z</time>
      </trkpt>
      <trkpt lat="42.52832" lon="2.49087">
        <ele>1853.9</ele>
        <time>2020-08-31T11:49:10.798Z</time>
      </trkpt>
      <trkpt lat="42.52839" lon="2.49101">
        <ele>1849.6</ele>
        <time>2020-08-31T11:49:13.912Z</time>
      </trkpt>
      <trkpt lat="42.52844" lon="2.49117">
        <ele>1846.2</ele>
        <time>2020-08-31T11:49:17.111Z</time>
      </trkpt>
      <trkpt lat="42.52847" lon="2.49122">
        <ele>1845.4</ele>
        <time>2020-08-31T11:49:18.298Z</time>
      </trkpt>
      <trkpt lat="42.52849" lon="2.49129">
        <ele>1844.6</ele>
        <time>2020-08-31T11:49:19.680Z</time>
      </trkpt>
      <trkpt lat="42.5285" lon="2.49137">
        <ele>1844</ele>
        <time>2020-08-31T11:49:21.174Z</time>
      </trkpt>
      <trkpt lat="42.52852" lon="2.49148">
        <ele>1843.4</ele>
        <time>2020-08-31T11:49:23.260Z</time>
      </trkpt>
      <trkpt lat="42.52852" lon="2.49158">
        <ele>1843</ele>
        <time>2020-08-31T11:49:25.121Z</time>
      </trkpt>
      <trkpt lat="42.52852" lon="2.49165">
        <ele>1842.9</ele>
        <time>2020-08-31T11:49:26.961Z</time>
      </trkpt>
      <trkpt lat="42.52854" lon="2.49172">
        <ele>1836.9</ele>
        <time>2020-08-31T11:49:28.343Z</time>
      </trkpt>
      <trkpt lat="42.52857" lon="2.4918">
        <ele>1835.8</ele>
        <time>2020-08-31T11:49:29.995Z</time>
      </trkpt>
      <trkpt lat="42.5286" lon="2.49188">
        <ele>1834.6</ele>
        <time>2020-08-31T11:49:31.648Z</time>
      </trkpt>
      <trkpt lat="42.52863" lon="2.49194">
        <ele>1833.9</ele>
        <time>2020-08-31T11:49:32.982Z</time>
      </trkpt>
      <trkpt lat="42.52867" lon="2.49201">
        <ele>1833.1</ele>
        <time>2020-08-31T11:49:34.613Z</time>
      </trkpt>
      <trkpt lat="42.52871" lon="2.49209">
        <ele>1832.3</ele>
        <time>2020-08-31T11:49:36.393Z</time>
      </trkpt>
      <trkpt lat="42.52874" lon="2.49217">
        <ele>1831.7</ele>
        <time>2020-08-31T11:49:38.045Z</time>
      </trkpt>
      <trkpt lat="42.52876" lon="2.49224">
        <ele>1831.3</ele>
        <time>2020-08-31T11:49:39.427Z</time>
      </trkpt>
      <trkpt lat="42.52877" lon="2.49229">
        <ele>1831</ele>
        <time>2020-08-31T11:49:40.381Z</time>
      </trkpt>
      <trkpt lat="42.52878" lon="2.49234">
        <ele>1830.8</ele>
        <time>2020-08-31T11:49:41.361Z</time>
      </trkpt>
      <trkpt lat="42.52878" lon="2.49236">
        <ele>1830.7</ele>
        <time>2020-08-31T11:49:41.729Z</time>
      </trkpt>
      <trkpt lat="42.52878" lon="2.49239">
        <ele>1830.5</ele>
        <time>2020-08-31T11:49:42.281Z</time>
      </trkpt>
      <trkpt lat="42.52879" lon="2.49247">
        <ele>1830.3</ele>
        <time>2020-08-31T11:49:44.110Z</time>
      </trkpt>
      <trkpt lat="42.52879" lon="2.49253">
        <ele>1820.2</ele>
        <time>2020-08-31T11:49:45.214Z</time>
      </trkpt>
      <trkpt lat="42.5288" lon="2.49268">
        <ele>1819.4</ele>
        <time>2020-08-31T11:49:47.987Z</time>
      </trkpt>
      <trkpt lat="42.52883" lon="2.49282">
        <ele>1818.2</ele>
        <time>2020-08-31T11:49:50.671Z</time>
      </trkpt>
      <trkpt lat="42.52885" lon="2.4929">
        <ele>1817.6</ele>
        <time>2020-08-31T11:49:52.226Z</time>
      </trkpt>
      <trkpt lat="42.52886" lon="2.49296">
        <ele>1817</ele>
        <time>2020-08-31T11:49:53.358Z</time>
      </trkpt>
      <trkpt lat="42.52888" lon="2.49299">
        <ele>1816.9</ele>
        <time>2020-08-31T11:49:54.269Z</time>
      </trkpt>
      <trkpt lat="42.5289" lon="2.49301">
        <ele>1817</ele>
        <time>2020-08-31T11:49:59.362Z</time>
      </trkpt>
      <trkpt lat="42.52891" lon="2.49304">
        <ele>1816.9</ele>
        <time>2020-08-31T11:50:00.050Z</time>
      </trkpt>
      <trkpt lat="42.52893" lon="2.49308">
        <ele>1816.7</ele>
        <time>2020-08-31T11:50:00.936Z</time>
      </trkpt>
      <trkpt lat="42.52892" lon="2.4931">
        <ele>1816.5</ele>
        <time>2020-08-31T11:50:01.380Z</time>
      </trkpt>
      <trkpt lat="42.5289" lon="2.49312">
        <ele>1816.2</ele>
        <time>2020-08-31T11:50:02.001Z</time>
      </trkpt>
      <trkpt lat="42.5289" lon="2.49316">
        <ele>1816</ele>
        <time>2020-08-31T11:50:02.737Z</time>
      </trkpt>
      <trkpt lat="42.52891" lon="2.49319">
        <ele>1816</ele>
        <time>2020-08-31T11:50:05.877Z</time>
      </trkpt>
      <trkpt lat="42.52891" lon="2.49323">
        <ele>1815.8</ele>
        <time>2020-08-31T11:50:06.614Z</time>
      </trkpt>
      <trkpt lat="42.52891" lon="2.49328">
        <ele>1815.7</ele>
        <time>2020-08-31T11:50:07.817Z</time>
      </trkpt>
      <trkpt lat="42.52891" lon="2.49334">
        <ele>1803.6</ele>
        <time>2020-08-31T11:50:08.922Z</time>
      </trkpt>
      <trkpt lat="42.5289" lon="2.49339">
        <ele>1802.7</ele>
        <time>2020-08-31T11:50:09.876Z</time>
      </trkpt>
      <trkpt lat="42.52889" lon="2.49345">
        <ele>1801.7</ele>
        <time>2020-08-31T11:50:11.008Z</time>
      </trkpt>
      <trkpt lat="42.52887" lon="2.49351">
        <ele>1800.2</ele>
        <time>2020-08-31T11:50:12.220Z</time>
      </trkpt>
      <trkpt lat="42.52886" lon="2.49357">
        <ele>1798.9</ele>
        <time>2020-08-31T11:50:13.353Z</time>
      </trkpt>
      <trkpt lat="42.52885" lon="2.49363">
        <ele>1797.7</ele>
        <time>2020-08-31T11:50:14.485Z</time>
      </trkpt>
      <trkpt lat="42.52886" lon="2.4937">
        <ele>1796.6</ele>
        <time>2020-08-31T11:50:15.798Z</time>
      </trkpt>
      <trkpt lat="42.52887" lon="2.49379">
        <ele>1795.2</ele>
        <time>2020-08-31T11:50:17.473Z</time>
      </trkpt>
      <trkpt lat="42.52888" lon="2.49388">
        <ele>1794</ele>
        <time>2020-08-31T11:50:19.149Z</time>
      </trkpt>
      <trkpt lat="42.52888" lon="2.49398">
        <ele>1792.9</ele>
        <time>2020-08-31T11:50:20.990Z</time>
      </trkpt>
      <trkpt lat="42.52887" lon="2.49405">
        <ele>1792.2</ele>
        <time>2020-08-31T11:50:22.302Z</time>
      </trkpt>
      <trkpt lat="42.52886" lon="2.4941">
        <ele>1791.7</ele>
        <time>2020-08-31T11:50:23.256Z</time>
      </trkpt>
      <trkpt lat="42.52887" lon="2.49413">
        <ele>1791.6</ele>
        <time>2020-08-31T11:50:23.944Z</time>
      </trkpt>
      <trkpt lat="42.52891" lon="2.49417">
        <ele>1791.9</ele>
        <time>2020-08-31T11:50:36.007Z</time>
      </trkpt>
      <trkpt lat="42.52894" lon="2.49419">
        <ele>1778.6</ele>
        <time>2020-08-31T11:50:36.842Z</time>
      </trkpt>
      <trkpt lat="42.52896" lon="2.49422">
        <ele>1779.1</ele>
        <time>2020-08-31T11:50:51.721Z</time>
      </trkpt>
      <trkpt lat="42.52897" lon="2.49426">
        <ele>1778.8</ele>
        <time>2020-08-31T11:50:52.499Z</time>
      </trkpt>
      <trkpt lat="42.52898" lon="2.49432">
        <ele>1777.8</ele>
        <time>2020-08-31T11:50:53.631Z</time>
      </trkpt>
      <trkpt lat="42.52899" lon="2.49436">
        <ele>1776.8</ele>
        <time>2020-08-31T11:50:54.409Z</time>
      </trkpt>
      <trkpt lat="42.52899" lon="2.49441">
        <ele>1775.7</ele>
        <time>2020-08-31T11:50:55.329Z</time>
      </trkpt>
      <trkpt lat="42.529" lon="2.49446">
        <ele>1774.6</ele>
        <time>2020-08-31T11:50:56.283Z</time>
      </trkpt>
      <trkpt lat="42.52901" lon="2.49453">
        <ele>1773</ele>
        <time>2020-08-31T11:50:57.596Z</time>
      </trkpt>
      <trkpt lat="42.52901" lon="2.49458">
        <ele>1772</ele>
        <time>2020-08-31T11:50:58.516Z</time>
      </trkpt>
      <trkpt lat="42.52902" lon="2.49463">
        <ele>1771.2</ele>
        <time>2020-08-31T11:50:59.470Z</time>
      </trkpt>
      <trkpt lat="42.52904" lon="2.49466">
        <ele>1770.9</ele>
        <time>2020-08-31T11:51:00.214Z</time>
      </trkpt>
      <trkpt lat="42.52907" lon="2.4947">
        <ele>1770.4</ele>
        <time>2020-08-31T11:51:01.265Z</time>
      </trkpt>
      <trkpt lat="42.52907" lon="2.49474">
        <ele>1769.9</ele>
        <time>2020-08-31T11:51:02.001Z</time>
      </trkpt>
      <trkpt lat="42.52907" lon="2.49477">
        <ele>1769.5</ele>
        <time>2020-08-31T11:51:02.554Z</time>
      </trkpt>
      <trkpt lat="42.52911" lon="2.4948">
        <ele>1769.5</ele>
        <time>2020-08-31T11:51:08.468Z</time>
      </trkpt>
      <trkpt lat="42.52917" lon="2.49482">
        <ele>1773.5</ele>
        <time>2020-08-31T11:51:39.305Z</time>
      </trkpt>
      <trkpt lat="42.52922" lon="2.49483">
        <ele>1773.2</ele>
        <time>2020-08-31T11:51:40.529Z</time>
      </trkpt>
      <trkpt lat="42.52924" lon="2.49483">
        <ele>1773.3</ele>
        <time>2020-08-31T11:51:45.055Z</time>
      </trkpt>
      <trkpt lat="42.52928" lon="2.49483">
        <ele>1773.4</ele>
        <time>2020-08-31T11:51:51.768Z</time>
      </trkpt>
      <trkpt lat="42.52931" lon="2.49486">
        <ele>1773.2</ele>
        <time>2020-08-31T11:51:52.714Z</time>
      </trkpt>
      <trkpt lat="42.5293" lon="2.49489">
        <ele>1772.7</ele>
        <time>2020-08-31T11:51:53.320Z</time>
      </trkpt>
      <trkpt lat="42.52928" lon="2.49492">
        <ele>1772.1</ele>
        <time>2020-08-31T11:51:54.065Z</time>
      </trkpt>
      <trkpt lat="42.52927" lon="2.49495">
        <ele>1771.7</ele>
        <time>2020-08-31T11:51:54.671Z</time>
      </trkpt>
      <trkpt lat="42.52927" lon="2.49498">
        <ele>1771.3</ele>
        <time>2020-08-31T11:51:55.223Z</time>
      </trkpt>
      <trkpt lat="42.52926" lon="2.49502">
        <ele>1763.6</ele>
        <time>2020-08-31T11:51:56.001Z</time>
      </trkpt>
      <trkpt lat="42.52926" lon="2.49503">
        <ele>1763.4</ele>
        <time>2020-08-31T11:51:56.185Z</time>
      </trkpt>
      <trkpt lat="42.52926" lon="2.49507">
        <ele>1762.6</ele>
        <time>2020-08-31T11:51:56.921Z</time>
      </trkpt>
      <trkpt lat="42.52927" lon="2.4951">
        <ele>1761</ele>
        <time>2020-08-31T11:51:57.527Z</time>
      </trkpt>
      <trkpt lat="42.5293" lon="2.49514">
        <ele>1759.2</ele>
        <time>2020-08-31T11:51:58.578Z</time>
      </trkpt>
      <trkpt lat="42.52933" lon="2.49518">
        <ele>1757.8</ele>
        <time>2020-08-31T11:51:59.628Z</time>
      </trkpt>
      <trkpt lat="42.52935" lon="2.49522">
        <ele>1756.4</ele>
        <time>2020-08-31T11:52:00.518Z</time>
      </trkpt>
      <trkpt lat="42.52936" lon="2.49527">
        <ele>1755.2</ele>
        <time>2020-08-31T11:52:01.472Z</time>
      </trkpt>
      <trkpt lat="42.5295" lon="2.49526">
        <ele>1754.2</ele>
        <time>2020-08-31T11:52:04.974Z</time>
      </trkpt>
      <trkpt lat="42.52949" lon="2.49533">
        <ele>1753</ele>
        <time>2020-08-31T11:52:06.287Z</time>
      </trkpt>
      <trkpt lat="42.52947" lon="2.4954">
        <ele>1751.9</ele>
        <time>2020-08-31T11:52:07.669Z</time>
      </trkpt>
      <trkpt lat="42.52944" lon="2.49549">
        <ele>1750.2</ele>
        <time>2020-08-31T11:52:09.487Z</time>
      </trkpt>
      <trkpt lat="42.52941" lon="2.49557">
        <ele>1748.7</ele>
        <time>2020-08-31T11:52:11.139Z</time>
      </trkpt>
      <trkpt lat="42.52939" lon="2.49564">
        <ele>1747.3</ele>
        <time>2020-08-31T11:52:12.521Z</time>
      </trkpt>
      <trkpt lat="42.52938" lon="2.4957">
        <ele>1746.2</ele>
        <time>2020-08-31T11:52:13.654Z</time>
      </trkpt>
      <trkpt lat="42.52938" lon="2.49575">
        <ele>1745.5</ele>
        <time>2020-08-31T11:52:14.574Z</time>
      </trkpt>
      <trkpt lat="42.5294" lon="2.49582">
        <ele>1745.1</ele>
        <time>2020-08-31T11:52:15.956Z</time>
      </trkpt>
      <trkpt lat="42.52944" lon="2.49587">
        <ele>1730.4</ele>
        <time>2020-08-31T11:52:17.315Z</time>
      </trkpt>
      <trkpt lat="42.52951" lon="2.49597">
        <ele>1729</ele>
        <time>2020-08-31T11:52:19.854Z</time>
      </trkpt>
      <trkpt lat="42.52947" lon="2.496">
        <ele>1728.9</ele>
        <time>2020-08-31T11:52:21.437Z</time>
      </trkpt>
      <trkpt lat="42.52943" lon="2.49601">
        <ele>1729</ele>
        <time>2020-08-31T11:52:28.230Z</time>
      </trkpt>
      <trkpt lat="42.52939" lon="2.49601">
        <ele>1729.2</ele>
        <time>2020-08-31T11:52:37.281Z</time>
      </trkpt>
      <trkpt lat="42.52935" lon="2.49596">
        <ele>1730.4</ele>
        <time>2020-08-31T11:53:04.425Z</time>
      </trkpt>
      <trkpt lat="42.52932" lon="2.4959">
        <ele>1731.9</ele>
        <time>2020-08-31T11:53:31.094Z</time>
      </trkpt>
      <trkpt lat="42.52928" lon="2.49584">
        <ele>1733.6</ele>
        <time>2020-08-31T11:54:00.853Z</time>
      </trkpt>
      <trkpt lat="42.52924" lon="2.4958">
        <ele>1741.7</ele>
        <time>2020-08-31T11:54:25.653Z</time>
      </trkpt>
      <trkpt lat="42.52918" lon="2.49578">
        <ele>1740.7</ele>
        <time>2020-08-31T11:54:27.197Z</time>
      </trkpt>
      <trkpt lat="42.52914" lon="2.49573">
        <ele>1738.3</ele>
        <time>2020-08-31T11:54:28.555Z</time>
      </trkpt>
      <trkpt lat="42.52909" lon="2.49566">
        <ele>1738.6</ele>
        <time>2020-08-31T11:54:43.610Z</time>
      </trkpt>
      <trkpt lat="42.52903" lon="2.4956">
        <ele>1739</ele>
        <time>2020-08-31T11:55:00.889Z</time>
      </trkpt>
      <trkpt lat="42.52898" lon="2.49555">
        <ele>1739.2</ele>
        <time>2020-08-31T11:55:12.288Z</time>
      </trkpt>
      <trkpt lat="42.52893" lon="2.49553">
        <ele>1738.9</ele>
        <time>2020-08-31T11:55:13.570Z</time>
      </trkpt>
      <trkpt lat="42.52886" lon="2.49551">
        <ele>1738.2</ele>
        <time>2020-08-31T11:55:15.357Z</time>
      </trkpt>
      <trkpt lat="42.52879" lon="2.49549">
        <ele>1737.2</ele>
        <time>2020-08-31T11:55:17.144Z</time>
      </trkpt>
      <trkpt lat="42.5287" lon="2.49549">
        <ele>1735.7</ele>
        <time>2020-08-31T11:55:19.392Z</time>
      </trkpt>
      <trkpt lat="42.52864" lon="2.49549">
        <ele>1734.4</ele>
        <time>2020-08-31T11:55:20.891Z</time>
      </trkpt>
      <trkpt lat="42.5286" lon="2.4955">
        <ele>1733.3</ele>
        <time>2020-08-31T11:55:21.907Z</time>
      </trkpt>
      <trkpt lat="42.52856" lon="2.49548">
        <ele>1733.1</ele>
        <time>2020-08-31T11:55:23.054Z</time>
      </trkpt>
      <trkpt lat="42.52851" lon="2.49545">
        <ele>1733.1</ele>
        <time>2020-08-31T11:55:30.128Z</time>
      </trkpt>
      <trkpt lat="42.52845" lon="2.49542">
        <ele>1733.1</ele>
        <time>2020-08-31T11:55:38.402Z</time>
      </trkpt>
      <trkpt lat="42.5284" lon="2.4954">
        <ele>1733.2</ele>
        <time>2020-08-31T11:55:46.586Z</time>
      </trkpt>
      <trkpt lat="42.52836" lon="2.49538">
        <ele>1733.5</ele>
        <time>2020-08-31T11:55:57.717Z</time>
      </trkpt>
      <trkpt lat="42.52834" lon="2.49535">
        <ele>1734.3</ele>
        <time>2020-08-31T11:56:12.597Z</time>
      </trkpt>
      <trkpt lat="42.52829" lon="2.49527">
        <ele>1709</ele>
        <time>2020-08-31T11:56:14.528Z</time>
      </trkpt>
      <trkpt lat="42.52827" lon="2.49521">
        <ele>1712.3</ele>
        <time>2020-08-31T11:56:38.750Z</time>
      </trkpt>
      <trkpt lat="42.52825" lon="2.49517">
        <ele>1715</ele>
        <time>2020-08-31T11:56:56.529Z</time>
      </trkpt>
      <trkpt lat="42.52824" lon="2.49513">
        <ele>1717.5</ele>
        <time>2020-08-31T11:57:12.066Z</time>
      </trkpt>
      <trkpt lat="42.52824" lon="2.49507">
        <ele>1721.8</ele>
        <time>2020-08-31T11:57:34.135Z</time>
      </trkpt>
      <trkpt lat="42.5282" lon="2.49501">
        <ele>1719.8</ele>
        <time>2020-08-31T11:57:35.624Z</time>
      </trkpt>
      <trkpt lat="42.52816" lon="2.49497">
        <ele>1730.9</ele>
        <time>2020-08-31T11:58:00.425Z</time>
      </trkpt>
      <trkpt lat="42.52811" lon="2.49492">
        <ele>1728.5</ele>
        <time>2020-08-31T11:58:01.976Z</time>
      </trkpt>
      <trkpt lat="42.52808" lon="2.49487">
        <ele>1727.2</ele>
        <time>2020-08-31T11:58:03.163Z</time>
      </trkpt>
      <trkpt lat="42.52805" lon="2.49481">
        <ele>1725.9</ele>
        <time>2020-08-31T11:58:04.498Z</time>
      </trkpt>
      <trkpt lat="42.52802" lon="2.49474">
        <ele>1725.4</ele>
        <time>2020-08-31T11:58:05.988Z</time>
      </trkpt>
      <trkpt lat="42.52802" lon="2.49469">
        <ele>1726</ele>
        <time>2020-08-31T11:58:24.379Z</time>
      </trkpt>
      <trkpt lat="42.52803" lon="2.4946">
        <ele>1727.7</ele>
        <time>2020-08-31T11:58:57.858Z</time>
      </trkpt>
      <trkpt lat="42.52803" lon="2.49454">
        <ele>1729.2</ele>
        <time>2020-08-31T11:59:19.927Z</time>
      </trkpt>
      <trkpt lat="42.52803" lon="2.49448">
        <ele>1730.5</ele>
        <time>2020-08-31T11:59:41.996Z</time>
      </trkpt>
      <trkpt lat="42.52802" lon="2.49443">
        <ele>1731.3</ele>
        <time>2020-08-31T12:00:01.053Z</time>
      </trkpt>
      <trkpt lat="42.52798" lon="2.49438">
        <ele>1730.5</ele>
        <time>2020-08-31T12:00:02.411Z</time>
      </trkpt>
      <trkpt lat="42.52793" lon="2.49434">
        <ele>1729</ele>
        <time>2020-08-31T12:00:03.861Z</time>
      </trkpt>
      <trkpt lat="42.52789" lon="2.4943">
        <ele>1727.6</ele>
        <time>2020-08-31T12:00:05.102Z</time>
      </trkpt>
      <trkpt lat="42.52783" lon="2.49424">
        <ele>1725.3</ele>
        <time>2020-08-31T12:00:06.964Z</time>
      </trkpt>
      <trkpt lat="42.5278" lon="2.49419">
        <ele>1724.1</ele>
        <time>2020-08-31T12:00:08.151Z</time>
      </trkpt>
      <trkpt lat="42.52778" lon="2.49415">
        <ele>1740</ele>
        <time>2020-08-31T12:00:25.931Z</time>
      </trkpt>
      <trkpt lat="42.52777" lon="2.49412">
        <ele>1739.2</ele>
        <time>2020-08-31T12:00:26.537Z</time>
      </trkpt>
      <trkpt lat="42.52776" lon="2.49407">
        <ele>1739.5</ele>
        <time>2020-08-31T12:00:37.166Z</time>
      </trkpt>
      <trkpt lat="42.52775" lon="2.49403">
        <ele>1740</ele>
        <time>2020-08-31T12:00:52.702Z</time>
      </trkpt>
      <trkpt lat="42.52773" lon="2.49397">
        <ele>1740.8</ele>
        <time>2020-08-31T12:01:16.924Z</time>
      </trkpt>
      <trkpt lat="42.52771" lon="2.49393">
        <ele>1741.4</ele>
        <time>2020-08-31T12:01:34.704Z</time>
      </trkpt>
      <trkpt lat="42.52769" lon="2.49389">
        <ele>1741.8</ele>
        <time>2020-08-31T12:01:48.322Z</time>
      </trkpt>
      <trkpt lat="42.52766" lon="2.49387">
        <ele>1741.4</ele>
        <time>2020-08-31T12:01:49.156Z</time>
      </trkpt>
      <trkpt lat="42.52765" lon="2.49383">
        <ele>1742.3</ele>
        <time>2020-08-31T12:02:04.693Z</time>
      </trkpt>
      <trkpt lat="42.52764" lon="2.49379">
        <ele>1743.5</ele>
        <time>2020-08-31T12:02:20.229Z</time>
      </trkpt>
      <trkpt lat="42.52764" lon="2.49374">
        <ele>1744.3</ele>
        <time>2020-08-31T12:02:38.621Z</time>
      </trkpt>
      <trkpt lat="42.52761" lon="2.49369">
        <ele>1744.7</ele>
        <time>2020-08-31T12:02:52.475Z</time>
      </trkpt>
      <trkpt lat="42.52758" lon="2.49365">
        <ele>1744.6</ele>
        <time>2020-08-31T12:02:53.901Z</time>
      </trkpt>
      <trkpt lat="42.52755" lon="2.49361">
        <ele>1744.3</ele>
        <time>2020-08-31T12:02:54.951Z</time>
      </trkpt>
      <trkpt lat="42.52748" lon="2.49355">
        <ele>1715.9</ele>
        <time>2020-08-31T12:02:57.020Z</time>
      </trkpt>
      <trkpt lat="42.52743" lon="2.4935">
        <ele>1717.6</ele>
        <time>2020-08-31T12:03:28.020Z</time>
      </trkpt>
      <trkpt lat="42.52737" lon="2.49346">
        <ele>1717.2</ele>
        <time>2020-08-31T12:03:29.633Z</time>
      </trkpt>
      <trkpt lat="42.52733" lon="2.49344">
        <ele>1715.5</ele>
        <time>2020-08-31T12:03:30.698Z</time>
      </trkpt>
      <trkpt lat="42.52729" lon="2.49341">
        <ele>1713.9</ele>
        <time>2020-08-31T12:03:31.840Z</time>
      </trkpt>
      <trkpt lat="42.52725" lon="2.4934">
        <ele>1712.3</ele>
        <time>2020-08-31T12:03:32.856Z</time>
      </trkpt>
      <trkpt lat="42.5272" lon="2.49336">
        <ele>1709.8</ele>
        <time>2020-08-31T12:03:34.306Z</time>
      </trkpt>
      <trkpt lat="42.52717" lon="2.49331">
        <ele>1726</ele>
        <time>2020-08-31T12:03:58.022Z</time>
      </trkpt>
      <trkpt lat="42.52715" lon="2.49325">
        <ele>1725.6</ele>
        <time>2020-08-31T12:03:59.234Z</time>
      </trkpt>
      <trkpt lat="42.52713" lon="2.49319">
        <ele>1725.7</ele>
        <time>2020-08-31T12:04:06.975Z</time>
      </trkpt>
      <trkpt lat="42.52713" lon="2.49312">
        <ele>1726.3</ele>
        <time>2020-08-31T12:04:27.614Z</time>
      </trkpt>
      <trkpt lat="42.52711" lon="2.49306">
        <ele>1726.6</ele>
        <time>2020-08-31T12:04:39.516Z</time>
      </trkpt>
      <trkpt lat="42.52708" lon="2.493">
        <ele>1726.8</ele>
        <time>2020-08-31T12:04:50.038Z</time>
      </trkpt>
      <trkpt lat="42.52706" lon="2.49295">
        <ele>1727.1</ele>
        <time>2020-08-31T12:05:01.084Z</time>
      </trkpt>
      <trkpt lat="42.52703" lon="2.49288">
        <ele>1727.8</ele>
        <time>2020-08-31T12:05:25.237Z</time>
      </trkpt>
      <trkpt lat="42.527" lon="2.4928">
        <ele>1728.3</ele>
        <time>2020-08-31T12:05:43.219Z</time>
      </trkpt>
      <trkpt lat="42.52697" lon="2.49272">
        <ele>1728.7</ele>
        <time>2020-08-31T12:05:59.289Z</time>
      </trkpt>
      <trkpt lat="42.52694" lon="2.49263">
        <ele>1728.8</ele>
        <time>2020-08-31T12:06:10.065Z</time>
      </trkpt>
      <trkpt lat="42.52693" lon="2.49255">
        <ele>1728.7</ele>
        <time>2020-08-31T12:06:12.267Z</time>
      </trkpt>
      <trkpt lat="42.52691" lon="2.4925">
        <ele>1746.4</ele>
        <time>2020-08-31T12:06:33.192Z</time>
      </trkpt>
      <trkpt lat="42.52687" lon="2.49242">
        <ele>1745.2</ele>
        <time>2020-08-31T12:06:34.972Z</time>
      </trkpt>
      <trkpt lat="42.52681" lon="2.49234">
        <ele>1745.2</ele>
        <time>2020-08-31T12:06:45.857Z</time>
      </trkpt>
      <trkpt lat="42.52677" lon="2.49229">
        <ele>1746.4</ele>
        <time>2020-08-31T12:07:13.002Z</time>
      </trkpt>
      <trkpt lat="42.52672" lon="2.49225">
        <ele>1747.2</ele>
        <time>2020-08-31T12:07:41.972Z</time>
      </trkpt>
      <trkpt lat="42.52667" lon="2.49224">
        <ele>1747.1</ele>
        <time>2020-08-31T12:07:43.766Z</time>
      </trkpt>
      <trkpt lat="42.52661" lon="2.49223">
        <ele>1726.9</ele>
        <time>2020-08-31T12:07:45.276Z</time>
      </trkpt>
      <trkpt lat="42.52653" lon="2.49224">
        <ele>1726.3</ele>
        <time>2020-08-31T12:07:47.283Z</time>
      </trkpt>
      <trkpt lat="42.52645" lon="2.49226">
        <ele>1725.2</ele>
        <time>2020-08-31T12:07:49.315Z</time>
      </trkpt>
      <trkpt lat="42.52638" lon="2.49228">
        <ele>1723.8</ele>
        <time>2020-08-31T12:07:51.102Z</time>
      </trkpt>
      <trkpt lat="42.52631" lon="2.49229">
        <ele>1722.5</ele>
        <time>2020-08-31T12:07:52.860Z</time>
      </trkpt>
      <trkpt lat="42.52627" lon="2.49228">
        <ele>1721.6</ele>
        <time>2020-08-31T12:07:53.876Z</time>
      </trkpt>
      <trkpt lat="42.52621" lon="2.49228">
        <ele>1720.4</ele>
        <time>2020-08-31T12:07:55.375Z</time>
      </trkpt>
      <trkpt lat="42.52613" lon="2.49226">
        <ele>1718.6</ele>
        <time>2020-08-31T12:07:57.407Z</time>
      </trkpt>
      <trkpt lat="42.52606" lon="2.49224">
        <ele>1717.4</ele>
        <time>2020-08-31T12:07:59.194Z</time>
      </trkpt>
      <trkpt lat="42.526" lon="2.49223">
        <ele>1716.3</ele>
        <time>2020-08-31T12:08:00.704Z</time>
      </trkpt>
      <trkpt lat="42.52599" lon="2.49223">
        <ele>1715.9</ele>
        <time>2020-08-31T12:08:00.954Z</time>
        <extensions>
          <visugpx:TrkExtension xmlns:visugpx="https://www.visugpx.com/editgpx/">
            <visugpx:node>16</visugpx:node>
            </visugpx:TrkExtension>
        </extensions>
      </trkpt>
      <trkpt lat="42.52593" lon="2.49223">
        <ele>1714.7</ele>
        <time>2020-08-31T12:08:02.452Z</time>
      </trkpt>
      <trkpt lat="42.52585" lon="2.49223">
        <ele>1713.4</ele>
        <time>2020-08-31T12:08:04.451Z</time>
      </trkpt>
      <trkpt lat="42.52579" lon="2.49222">
        <ele>1703.1</ele>
        <time>2020-08-31T12:08:05.961Z</time>
      </trkpt>
      <trkpt lat="42.52571" lon="2.49219">
        <ele>1704.5</ele>
        <time>2020-08-31T12:08:47.387Z</time>
      </trkpt>
      <trkpt lat="42.52563" lon="2.49215">
        <ele>1705.9</ele>
        <time>2020-08-31T12:09:29.941Z</time>
      </trkpt>
      <trkpt lat="42.52554" lon="2.49212">
        <ele>1706.7</ele>
        <time>2020-08-31T12:09:57.459Z</time>
      </trkpt>
      <trkpt lat="42.52546" lon="2.4921">
        <ele>1706.9</ele>
        <time>2020-08-31T12:10:11.045Z</time>
      </trkpt>
      <trkpt lat="42.52539" lon="2.49208">
        <ele>1707.3</ele>
        <time>2020-08-31T12:10:27.883Z</time>
      </trkpt>
      <trkpt lat="42.52533" lon="2.49205">
        <ele>1707.6</ele>
        <time>2020-08-31T12:10:42.065Z</time>
      </trkpt>
      <trkpt lat="42.52527" lon="2.49203">
        <ele>1708</ele>
        <time>2020-08-31T12:10:57.539Z</time>
      </trkpt>
      <trkpt lat="42.52521" lon="2.49202">
        <ele>1708</ele>
        <time>2020-08-31T12:11:05.362Z</time>
      </trkpt>
      <trkpt lat="42.52515" lon="2.49204">
        <ele>1707.6</ele>
        <time>2020-08-31T12:11:06.796Z</time>
      </trkpt>
      <trkpt lat="42.5251" lon="2.49207">
        <ele>1706.4</ele>
        <time>2020-08-31T12:11:08.162Z</time>
      </trkpt>
      <trkpt lat="42.52503" lon="2.49212">
        <ele>1704.7</ele>
        <time>2020-08-31T12:11:10.138Z</time>
      </trkpt>
      <trkpt lat="42.52498" lon="2.49217">
        <ele>1698.2</ele>
        <time>2020-08-31T12:11:11.690Z</time>
      </trkpt>
      <trkpt lat="42.5249" lon="2.49224">
        <ele>1696.2</ele>
        <time>2020-08-31T12:11:14.067Z</time>
      </trkpt>
      <trkpt lat="42.52486" lon="2.49228">
        <ele>1695.4</ele>
        <time>2020-08-31T12:11:15.309Z</time>
      </trkpt>
      <trkpt lat="42.5248" lon="2.4923">
        <ele>1695.1</ele>
        <time>2020-08-31T12:11:16.948Z</time>
      </trkpt>
      <trkpt lat="42.52474" lon="2.49232">
        <ele>1695</ele>
        <time>2020-08-31T12:11:19.238Z</time>
      </trkpt>
      <trkpt lat="42.52468" lon="2.49233">
        <ele>1695.1</ele>
        <time>2020-08-31T12:11:28.457Z</time>
      </trkpt>
      <trkpt lat="42.52461" lon="2.49232">
        <ele>1695</ele>
        <time>2020-08-31T12:11:31.131Z</time>
      </trkpt>
      <trkpt lat="42.52454" lon="2.49231">
        <ele>1694.7</ele>
        <time>2020-08-31T12:11:33.101Z</time>
      </trkpt>
      <trkpt lat="42.52446" lon="2.49229">
        <ele>1694.3</ele>
        <time>2020-08-31T12:11:35.247Z</time>
      </trkpt>
      <trkpt lat="42.52438" lon="2.49225">
        <ele>1694.2</ele>
        <time>2020-08-31T12:11:38.590Z</time>
      </trkpt>
      <trkpt lat="42.52432" lon="2.49222">
        <ele>1694.4</ele>
        <time>2020-08-31T12:11:50.187Z</time>
      </trkpt>
      <trkpt lat="42.52426" lon="2.49218">
        <ele>1695</ele>
        <time>2020-08-31T12:12:10.640Z</time>
      </trkpt>
      <trkpt lat="42.52419" lon="2.49214">
        <ele>1696</ele>
        <time>2020-08-31T12:12:47.601Z</time>
      </trkpt>
      <trkpt lat="42.52413" lon="2.49209">
        <ele>1686.9</ele>
        <time>2020-08-31T12:12:49.360Z</time>
      </trkpt>
      <trkpt lat="42.52409" lon="2.49205">
        <ele>1687.9</ele>
        <time>2020-08-31T12:13:14.161Z</time>
      </trkpt>
      <trkpt lat="42.52405" lon="2.492">
        <ele>1688.9</ele>
        <time>2020-08-31T12:13:41.306Z</time>
      </trkpt>
      <trkpt lat="42.524" lon="2.49195">
        <ele>1689.8</ele>
        <time>2020-08-31T12:14:12.307Z</time>
      </trkpt>
      <trkpt lat="42.52395" lon="2.4919">
        <ele>1690.4</ele>
        <time>2020-08-31T12:14:32.538Z</time>
      </trkpt>
      <trkpt lat="42.5239" lon="2.49183">
        <ele>1690.8</ele>
        <time>2020-08-31T12:14:49.421Z</time>
      </trkpt>
      <trkpt lat="42.52383" lon="2.49177">
        <ele>1690.2</ele>
        <time>2020-08-31T12:14:51.490Z</time>
      </trkpt>
      <trkpt lat="42.52378" lon="2.49172">
        <ele>1689.7</ele>
        <time>2020-08-31T12:14:53.041Z</time>
      </trkpt>
      <trkpt lat="42.5237" lon="2.49169">
        <ele>1688.6</ele>
        <time>2020-08-31T12:14:55.115Z</time>
      </trkpt>
      <trkpt lat="42.52365" lon="2.49169">
        <ele>1688</ele>
        <time>2020-08-31T12:14:56.364Z</time>
      </trkpt>
      <trkpt lat="42.52358" lon="2.49167">
        <ele>1687.7</ele>
        <time>2020-08-31T12:14:58.378Z</time>
      </trkpt>
      <trkpt lat="42.52352" lon="2.49166">
        <ele>1705.4</ele>
        <time>2020-08-31T12:15:28.550Z</time>
      </trkpt>
      <trkpt lat="42.52345" lon="2.49165">
        <ele>1701.4</ele>
        <time>2020-08-31T12:15:30.308Z</time>
      </trkpt>
      <trkpt lat="42.52339" lon="2.49164">
        <ele>1697.1</ele>
        <time>2020-08-31T12:15:31.818Z</time>
      </trkpt>
      <trkpt lat="42.52337" lon="2.49162">
        <ele>1696.6</ele>
        <time>2020-08-31T12:15:32.439Z</time>
      </trkpt>
      <trkpt lat="42.52335" lon="2.4916">
        <ele>1697.9</ele>
        <time>2020-08-31T12:15:44.840Z</time>
      </trkpt>
      <trkpt lat="42.5233" lon="2.49157">
        <ele>1690.7</ele>
        <time>2020-08-31T12:15:46.205Z</time>
      </trkpt>
      <trkpt lat="42.52323" lon="2.49156">
        <ele>1690.2</ele>
        <time>2020-08-31T12:15:47.964Z</time>
      </trkpt>
      <trkpt lat="42.52316" lon="2.49155">
        <ele>1689.4</ele>
        <time>2020-08-31T12:15:49.722Z</time>
      </trkpt>
      <trkpt lat="42.52308" lon="2.49155">
        <ele>1688.1</ele>
        <time>2020-08-31T12:15:51.720Z</time>
      </trkpt>
      <trkpt lat="42.52301" lon="2.49155">
        <ele>1686.6</ele>
        <time>2020-08-31T12:15:53.469Z</time>
      </trkpt>
      <trkpt lat="42.52296" lon="2.49155">
        <ele>1685.3</ele>
        <time>2020-08-31T12:15:54.718Z</time>
      </trkpt>
      <trkpt lat="42.52289" lon="2.49155">
        <ele>1683.2</ele>
        <time>2020-08-31T12:15:56.466Z</time>
      </trkpt>
      <trkpt lat="42.52281" lon="2.49153">
        <ele>1680.7</ele>
        <time>2020-08-31T12:15:58.498Z</time>
      </trkpt>
      <trkpt lat="42.52275" lon="2.49153">
        <ele>1678.3</ele>
        <time>2020-08-31T12:15:59.997Z</time>
      </trkpt>
      <trkpt lat="42.52269" lon="2.49151">
        <ele>1676.5</ele>
        <time>2020-08-31T12:16:01.540Z</time>
      </trkpt>
      <trkpt lat="42.52266" lon="2.49152">
        <ele>1674.8</ele>
        <time>2020-08-31T12:16:02.312Z</time>
      </trkpt>
      <trkpt lat="42.52262" lon="2.49151">
        <ele>1673.8</ele>
        <time>2020-08-31T12:16:03.328Z</time>
      </trkpt>
      <trkpt lat="42.52259" lon="2.49148">
        <ele>1673.9</ele>
        <time>2020-08-31T12:16:09.722Z</time>
      </trkpt>
      <trkpt lat="42.52259" lon="2.49142">
        <ele>1676.5</ele>
        <time>2020-08-31T12:16:31.793Z</time>
      </trkpt>
      <trkpt lat="42.52259" lon="2.49139">
        <ele>1678</ele>
        <time>2020-08-31T12:16:42.829Z</time>
      </trkpt>
      <trkpt lat="42.52259" lon="2.4913">
        <ele>1680.8</ele>
        <time>2020-08-31T12:17:15.936Z</time>
      </trkpt>
      <trkpt lat="42.52259" lon="2.4912">
        <ele>1682.9</ele>
        <time>2020-08-31T12:17:52.721Z</time>
      </trkpt>
      <trkpt lat="42.52257" lon="2.49102">
        <ele>1684.4</ele>
        <time>2020-08-31T12:18:43.736Z</time>
      </trkpt>
      <trkpt lat="42.52255" lon="2.49091">
        <ele>1683.4</ele>
        <time>2020-08-31T12:18:45.822Z</time>
      </trkpt>
      <trkpt lat="42.52253" lon="2.4908">
        <ele>1687.2</ele>
        <time>2020-08-31T12:19:27.499Z</time>
      </trkpt>
      <trkpt lat="42.52251" lon="2.49073">
        <ele>1694.1</ele>
        <time>2020-08-31T12:19:55.116Z</time>
      </trkpt>
      <trkpt lat="42.52246" lon="2.49066">
        <ele>1675.5</ele>
        <time>2020-08-31T12:19:56.911Z</time>
      </trkpt>
      <trkpt lat="42.52241" lon="2.49059">
        <ele>1674.5</ele>
        <time>2020-08-31T12:19:58.705Z</time>
      </trkpt>
      <trkpt lat="42.52236" lon="2.4905">
        <ele>1674.1</ele>
        <time>2020-08-31T12:20:00.916Z</time>
      </trkpt>
      <trkpt lat="42.52231" lon="2.49044">
        <ele>1673.9</ele>
        <time>2020-08-31T12:20:03.033Z</time>
      </trkpt>
      <trkpt lat="42.52226" lon="2.49039">
        <ele>1673.5</ele>
        <time>2020-08-31T12:20:04.479Z</time>
      </trkpt>
      <trkpt lat="42.5222" lon="2.49035">
        <ele>1672.6</ele>
        <time>2020-08-31T12:20:06.149Z</time>
      </trkpt>
      <trkpt lat="42.52217" lon="2.4903">
        <ele>1672.2</ele>
        <time>2020-08-31T12:20:07.336Z</time>
      </trkpt>
      <trkpt lat="42.52214" lon="2.49021">
        <ele>1673.1</ele>
        <time>2020-08-31T12:20:39.160Z</time>
      </trkpt>
      <trkpt lat="42.52211" lon="2.4901">
        <ele>1673.2</ele>
        <time>2020-08-31T12:20:51.672Z</time>
      </trkpt>
      <trkpt lat="42.52209" lon="2.49005">
        <ele>1672.5</ele>
        <time>2020-08-31T12:20:52.719Z</time>
      </trkpt>
      <trkpt lat="42.52208" lon="2.48998">
        <ele>1689.7</ele>
        <time>2020-08-31T12:21:18.948Z</time>
      </trkpt>
      <trkpt lat="42.52208" lon="2.48986">
        <ele>1690.7</ele>
        <time>2020-08-31T12:21:53.053Z</time>
      </trkpt>
      <trkpt lat="42.52206" lon="2.48971">
        <ele>1692.5</ele>
        <time>2020-08-31T12:22:49.127Z</time>
      </trkpt>
      <trkpt lat="42.52205" lon="2.48965">
        <ele>1693.1</ele>
        <time>2020-08-31T12:23:11.403Z</time>
      </trkpt>
      <trkpt lat="42.52203" lon="2.48959">
        <ele>1693.5</ele>
        <time>2020-08-31T12:23:25.346Z</time>
      </trkpt>
      <trkpt lat="42.52201" lon="2.48953">
        <ele>1693.8</ele>
        <time>2020-08-31T12:23:37.249Z</time>
      </trkpt>
      <trkpt lat="42.52197" lon="2.48948">
        <ele>1693.4</ele>
        <time>2020-08-31T12:23:38.608Z</time>
      </trkpt>
      <trkpt lat="42.52191" lon="2.48944">
        <ele>1692</ele>
        <time>2020-08-31T12:23:40.277Z</time>
      </trkpt>
      <trkpt lat="42.52185" lon="2.48939">
        <ele>1690.6</ele>
        <time>2020-08-31T12:23:42.036Z</time>
      </trkpt>
      <trkpt lat="42.5218" lon="2.48935">
        <ele>1689.5</ele>
        <time>2020-08-31T12:23:43.486Z</time>
      </trkpt>
      <trkpt lat="42.52177" lon="2.4893">
        <ele>1688.4</ele>
        <time>2020-08-31T12:23:44.673Z</time>
      </trkpt>
      <trkpt lat="42.52175" lon="2.48924">
        <ele>1687</ele>
        <time>2020-08-31T12:23:45.886Z</time>
      </trkpt>
      <trkpt lat="42.52174" lon="2.48918">
        <ele>1685.7</ele>
        <time>2020-08-31T12:23:47.018Z</time>
      </trkpt>
      <trkpt lat="42.52173" lon="2.48912">
        <ele>1693.9</ele>
        <time>2020-08-31T12:24:09.647Z</time>
      </trkpt>
      <trkpt lat="42.52171" lon="2.48907">
        <ele>1696.1</ele>
        <time>2020-08-31T12:24:30.574Z</time>
      </trkpt>
      <trkpt lat="42.52165" lon="2.48903">
        <ele>1680.6</ele>
        <time>2020-08-31T12:24:32.244Z</time>
      </trkpt>
      <trkpt lat="42.52159" lon="2.489">
        <ele>1680.1</ele>
        <time>2020-08-31T12:24:33.841Z</time>
      </trkpt>
      <trkpt lat="42.52154" lon="2.48897">
        <ele>1679.6</ele>
        <time>2020-08-31T12:24:35.207Z</time>
      </trkpt>
      <trkpt lat="42.52149" lon="2.48892">
        <ele>1679.3</ele>
        <time>2020-08-31T12:24:36.858Z</time>
      </trkpt>
      <trkpt lat="42.52146" lon="2.48887">
        <ele>1679.5</ele>
        <time>2020-08-31T12:24:46.865Z</time>
      </trkpt>
      <trkpt lat="42.52144" lon="2.48881">
        <ele>1680.2</ele>
        <time>2020-08-31T12:25:11.089Z</time>
      </trkpt>
      <trkpt lat="42.52142" lon="2.48876">
        <ele>1680.8</ele>
        <time>2020-08-31T12:25:32.016Z</time>
      </trkpt>
      <trkpt lat="42.52139" lon="2.48872">
        <ele>1681.1</ele>
        <time>2020-08-31T12:25:43.079Z</time>
      </trkpt>
      <trkpt lat="42.52134" lon="2.48868">
        <ele>1680.7</ele>
        <time>2020-08-31T12:25:44.529Z</time>
      </trkpt>
      <trkpt lat="42.52125" lon="2.48865">
        <ele>1679</ele>
        <time>2020-08-31T12:25:46.844Z</time>
      </trkpt>
      <trkpt lat="42.52119" lon="2.48863">
        <ele>1677.9</ele>
        <time>2020-08-31T12:25:48.387Z</time>
      </trkpt>
      <trkpt lat="42.52114" lon="2.4886">
        <ele>1677.3</ele>
        <time>2020-08-31T12:25:49.753Z</time>
      </trkpt>
      <trkpt lat="42.52111" lon="2.48857">
        <ele>1677.2</ele>
        <time>2020-08-31T12:25:50.975Z</time>
      </trkpt>
      <trkpt lat="42.5211" lon="2.48852">
        <ele>1677.4</ele>
        <time>2020-08-31T12:25:59.751Z</time>
      </trkpt>
      <trkpt lat="42.52109" lon="2.48848">
        <ele>1677.9</ele>
        <time>2020-08-31T12:26:15.289Z</time>
      </trkpt>
      <trkpt lat="42.52109" lon="2.48841">
        <ele>1678.4</ele>
        <time>2020-08-31T12:26:32.143Z</time>
      </trkpt>
      <trkpt lat="42.52108" lon="2.48833">
        <ele>1678.7</ele>
        <time>2020-08-31T12:26:45.689Z</time>
      </trkpt>
      <trkpt lat="42.52108" lon="2.48826">
        <ele>1698.3</ele>
        <time>2020-08-31T12:27:11.440Z</time>
      </trkpt>
      <trkpt lat="42.52108" lon="2.48819">
        <ele>1700.1</ele>
        <time>2020-08-31T12:27:37.190Z</time>
      </trkpt>
      <trkpt lat="42.52107" lon="2.48814">
        <ele>1701.5</ele>
        <time>2020-08-31T12:27:56.248Z</time>
      </trkpt>
      <trkpt lat="42.52107" lon="2.48806">
        <ele>1704</ele>
        <time>2020-08-31T12:28:25.677Z</time>
      </trkpt>
      <trkpt lat="42.52107" lon="2.48802">
        <ele>1705.3</ele>
        <time>2020-08-31T12:28:40.392Z</time>
      </trkpt>
      <trkpt lat="42.52107" lon="2.48797">
        <ele>1706.7</ele>
        <time>2020-08-31T12:28:58.785Z</time>
      </trkpt>
      <trkpt lat="42.52105" lon="2.48794">
        <ele>1707.3</ele>
        <time>2020-08-31T12:29:13.666Z</time>
      </trkpt>
      <trkpt lat="42.52099" lon="2.48794">
        <ele>1706.7</ele>
        <time>2020-08-31T12:29:15.165Z</time>
      </trkpt>
      <trkpt lat="42.52091" lon="2.48794">
        <ele>1705.5</ele>
        <time>2020-08-31T12:29:17.163Z</time>
      </trkpt>
      <trkpt lat="42.52086" lon="2.48795">
        <ele>1704.7</ele>
        <time>2020-08-31T12:29:18.426Z</time>
      </trkpt>
      <trkpt lat="42.52079" lon="2.48795">
        <ele>1685</ele>
        <time>2020-08-31T12:29:20.174Z</time>
      </trkpt>
      <trkpt lat="42.52072" lon="2.48795">
        <ele>1684.3</ele>
        <time>2020-08-31T12:29:21.923Z</time>
      </trkpt>
      <trkpt lat="42.52067" lon="2.48798">
        <ele>1682.8</ele>
        <time>2020-08-31T12:29:23.288Z</time>
      </trkpt>
      <trkpt lat="42.52063" lon="2.48804">
        <ele>1680.9</ele>
        <time>2020-08-31T12:29:24.778Z</time>
      </trkpt>
      <trkpt lat="42.52059" lon="2.48808">
        <ele>1679.6</ele>
        <time>2020-08-31T12:29:26.019Z</time>
      </trkpt>
      <trkpt lat="42.52053" lon="2.48811">
        <ele>1678.1</ele>
        <time>2020-08-31T12:29:27.616Z</time>
      </trkpt>
      <trkpt lat="42.52049" lon="2.48811">
        <ele>1677.4</ele>
        <time>2020-08-31T12:29:28.616Z</time>
      </trkpt>
      <trkpt lat="42.52043" lon="2.48811">
        <ele>1676.4</ele>
        <time>2020-08-31T12:29:30.114Z</time>
      </trkpt>
      <trkpt lat="42.52037" lon="2.48809">
        <ele>1675.3</ele>
        <time>2020-08-31T12:29:31.658Z</time>
      </trkpt>
      <trkpt lat="42.5203" lon="2.48806">
        <ele>1674.5</ele>
        <time>2020-08-31T12:29:33.492Z</time>
      </trkpt>
      <trkpt lat="42.52023" lon="2.48801">
        <ele>1674.3</ele>
        <time>2020-08-31T12:29:36.129Z</time>
      </trkpt>
      <trkpt lat="42.52017" lon="2.48797">
        <ele>1674.5</ele>
        <time>2020-08-31T12:29:48.045Z</time>
      </trkpt>
      <trkpt lat="42.52011" lon="2.48792">
        <ele>1675.3</ele>
        <time>2020-08-31T12:30:15.364Z</time>
      </trkpt>
      <trkpt lat="42.52006" lon="2.48788">
        <ele>1676.2</ele>
        <time>2020-08-31T12:30:44.335Z</time>
      </trkpt>
      <trkpt lat="42.52002" lon="2.48782">
        <ele>1677.3</ele>
        <time>2020-08-31T12:31:14.097Z</time>
      </trkpt>
      <trkpt lat="42.51997" lon="2.48772">
        <ele>1665.2</ele>
        <time>2020-08-31T12:31:16.322Z</time>
      </trkpt>
      <trkpt lat="42.51993" lon="2.48764">
        <ele>1668.8</ele>
        <time>2020-08-31T12:31:51.884Z</time>
      </trkpt>
      <trkpt lat="42.51989" lon="2.48756">
        <ele>1671.3</ele>
        <time>2020-08-31T12:32:27.446Z</time>
      </trkpt>
      <trkpt lat="42.51985" lon="2.48747">
        <ele>1684.8</ele>
        <time>2020-08-31T12:33:06.108Z</time>
      </trkpt>
      <trkpt lat="42.51982" lon="2.48739">
        <ele>1685.5</ele>
        <time>2020-08-31T12:33:29.706Z</time>
      </trkpt>
      <trkpt lat="42.51977" lon="2.48733">
        <ele>1686.2</ele>
        <time>2020-08-31T12:33:53.287Z</time>
      </trkpt>
      <trkpt lat="42.51973" lon="2.48728">
        <ele>1686.7</ele>
        <time>2020-08-31T12:34:10.255Z</time>
      </trkpt>
      <trkpt lat="42.51967" lon="2.48721">
        <ele>1687.2</ele>
        <time>2020-08-31T12:34:29.852Z</time>
      </trkpt>
      <trkpt lat="42.51964" lon="2.48716">
        <ele>1687.9</ele>
        <time>2020-08-31T12:34:53.570Z</time>
      </trkpt>
      <trkpt lat="42.51961" lon="2.4871">
        <ele>1688.9</ele>
        <time>2020-08-31T12:35:20.242Z</time>
      </trkpt>
      <trkpt lat="42.51955" lon="2.48704">
        <ele>1689.2</ele>
        <time>2020-08-31T12:35:35.519Z</time>
      </trkpt>
      <trkpt lat="42.51951" lon="2.487">
        <ele>1689.6</ele>
        <time>2020-08-31T12:35:49.570Z</time>
      </trkpt>
      <trkpt lat="42.51947" lon="2.48695">
        <ele>1690</ele>
        <time>2020-08-31T12:36:04.121Z</time>
      </trkpt>
      <trkpt lat="42.51943" lon="2.4869">
        <ele>1690.5</ele>
        <time>2020-08-31T12:36:21.089Z</time>
      </trkpt>
      <trkpt lat="42.51941" lon="2.48684">
        <ele>1691.4</ele>
        <time>2020-08-31T12:36:45.314Z</time>
      </trkpt>
      <trkpt lat="42.5194" lon="2.48676">
        <ele>1692.5</ele>
        <time>2020-08-31T12:37:15.164Z</time>
      </trkpt>
      <trkpt lat="42.51939" lon="2.48669">
        <ele>1693.2</ele>
        <time>2020-08-31T12:37:41.305Z</time>
      </trkpt>
      <trkpt lat="42.51936" lon="2.48664">
        <ele>1710.6</ele>
        <time>2020-08-31T12:38:05.023Z</time>
      </trkpt>
      <trkpt lat="42.51933" lon="2.48661">
        <ele>1709.4</ele>
        <time>2020-08-31T12:38:05.953Z</time>
      </trkpt>
      <trkpt lat="42.51931" lon="2.4866">
        <ele>1708.3</ele>
        <time>2020-08-31T12:38:06.486Z</time>
      </trkpt>
      <trkpt lat="42.51929" lon="2.4866">
        <ele>1707.4</ele>
        <time>2020-08-31T12:38:06.986Z</time>
      </trkpt>
      <trkpt lat="42.51927" lon="2.4866">
        <ele>1706</ele>
        <time>2020-08-31T12:38:07.485Z</time>
      </trkpt>
      <trkpt lat="42.51925" lon="2.48664">
        <ele>1703.2</ele>
        <time>2020-08-31T12:38:08.375Z</time>
      </trkpt>
      <trkpt lat="42.51924" lon="2.4867">
        <ele>1693.4</ele>
        <time>2020-08-31T12:38:09.508Z</time>
      </trkpt>
      <trkpt lat="42.51924" lon="2.48679">
        <ele>1691.9</ele>
        <time>2020-08-31T12:38:11.165Z</time>
      </trkpt>
      <trkpt lat="42.51922" lon="2.48689">
        <ele>1689.6</ele>
        <time>2020-08-31T12:38:13.072Z</time>
      </trkpt>
      <trkpt lat="42.51921" lon="2.48695">
        <ele>1687.9</ele>
        <time>2020-08-31T12:38:14.205Z</time>
      </trkpt>
      <trkpt lat="42.5192" lon="2.48699">
        <ele>1686.9</ele>
        <time>2020-08-31T12:38:14.983Z</time>
      </trkpt>
      <trkpt lat="42.51917" lon="2.487">
        <ele>1686.3</ele>
        <time>2020-08-31T12:38:15.754Z</time>
      </trkpt>
      <trkpt lat="42.51914" lon="2.48699">
        <ele>1682.9</ele>
        <time>2020-08-31T12:38:16.526Z</time>
      </trkpt>
      <trkpt lat="42.51909" lon="2.48694">
        <ele>1684.2</ele>
        <time>2020-08-31T12:38:47.528Z</time>
      </trkpt>
      <trkpt lat="42.51904" lon="2.4869">
        <ele>1685.4</ele>
        <time>2020-08-31T12:39:16.499Z</time>
      </trkpt>
      <trkpt lat="42.519" lon="2.48688">
        <ele>1685.8</ele>
        <time>2020-08-31T12:39:30.031Z</time>
      </trkpt>
      <trkpt lat="42.51897" lon="2.48686">
        <ele>1685.9</ele>
        <time>2020-08-31T12:39:35.989Z</time>
      </trkpt>
      <trkpt lat="42.5189" lon="2.48686">
        <ele>1685.7</ele>
        <time>2020-08-31T12:39:38.241Z</time>
      </trkpt>
      <trkpt lat="42.51885" lon="2.48683">
        <ele>1686.1</ele>
        <time>2020-08-31T12:39:52.824Z</time>
      </trkpt>
      <trkpt lat="42.51881" lon="2.4868">
        <ele>1686.6</ele>
        <time>2020-08-31T12:40:09.755Z</time>
      </trkpt>
      <trkpt lat="42.51877" lon="2.48677">
        <ele>1686.9</ele>
        <time>2020-08-31T12:40:21.277Z</time>
      </trkpt>
      <trkpt lat="42.51874" lon="2.48676">
        <ele>1687.2</ele>
        <time>2020-08-31T12:40:31.388Z</time>
      </trkpt>
      <trkpt lat="42.5187" lon="2.48678">
        <ele>1687.3</ele>
        <time>2020-08-31T12:40:38.413Z</time>
      </trkpt>
      <trkpt lat="42.51868" lon="2.4868">
        <ele>1687.2</ele>
        <time>2020-08-31T12:40:39.124Z</time>
      </trkpt>
      <trkpt lat="42.51865" lon="2.48685">
        <ele>1686.8</ele>
        <time>2020-08-31T12:40:40.311Z</time>
      </trkpt>
      <trkpt lat="42.51866" lon="2.48689">
        <ele>1686.2</ele>
        <time>2020-08-31T12:40:41.089Z</time>
      </trkpt>
      <trkpt lat="42.51868" lon="2.48694">
        <ele>1685.4</ele>
        <time>2020-08-31T12:40:42.137Z</time>
      </trkpt>
      <trkpt lat="42.51869" lon="2.487">
        <ele>1684.4</ele>
        <time>2020-08-31T12:40:43.269Z</time>
      </trkpt>
      <trkpt lat="42.5187" lon="2.48705">
        <ele>1683.5</ele>
        <time>2020-08-31T12:40:44.223Z</time>
      </trkpt>
      <trkpt lat="42.51868" lon="2.48711">
        <ele>1682.8</ele>
        <time>2020-08-31T12:40:45.435Z</time>
      </trkpt>
      <trkpt lat="42.51864" lon="2.48715">
        <ele>1682.5</ele>
        <time>2020-08-31T12:40:46.629Z</time>
      </trkpt>
      <trkpt lat="42.51861" lon="2.48719">
        <ele>1682.3</ele>
        <time>2020-08-31T12:40:47.755Z</time>
      </trkpt>
      <trkpt lat="42.51859" lon="2.48722">
        <ele>1682.1</ele>
        <time>2020-08-31T12:40:48.500Z</time>
      </trkpt>
      <trkpt lat="42.51858" lon="2.48726">
        <ele>1681.7</ele>
        <time>2020-08-31T12:40:49.278Z</time>
      </trkpt>
      <trkpt lat="42.51858" lon="2.48729">
        <ele>1681.4</ele>
        <time>2020-08-31T12:40:49.830Z</time>
      </trkpt>
      <trkpt lat="42.51859" lon="2.48731">
        <ele>1681.2</ele>
        <time>2020-08-31T12:40:50.275Z</time>
      </trkpt>
      <trkpt lat="42.51863" lon="2.48731">
        <ele>1680.7</ele>
        <time>2020-08-31T12:40:51.274Z</time>
      </trkpt>
      <trkpt lat="42.51864" lon="2.48735">
        <ele>1680.2</ele>
        <time>2020-08-31T12:40:52.052Z</time>
      </trkpt>
      <trkpt lat="42.51865" lon="2.4874">
        <ele>1679.7</ele>
        <time>2020-08-31T12:40:53.006Z</time>
      </trkpt>
      <trkpt lat="42.51865" lon="2.48745">
        <ele>1679.3</ele>
        <time>2020-08-31T12:40:53.926Z</time>
      </trkpt>
      <trkpt lat="42.51865" lon="2.48751">
        <ele>1664.7</ele>
        <time>2020-08-31T12:40:55.031Z</time>
      </trkpt>
      <trkpt lat="42.51864" lon="2.48755">
        <ele>1664.8</ele>
        <time>2020-08-31T12:41:00.739Z</time>
      </trkpt>
      <trkpt lat="42.51862" lon="2.48757">
        <ele>1665.2</ele>
        <time>2020-08-31T12:41:13.140Z</time>
      </trkpt>
      <trkpt lat="42.51854" lon="2.4876">
        <ele>1667.7</ele>
        <time>2020-08-31T12:41:54.566Z</time>
      </trkpt>
      <trkpt lat="42.51848" lon="2.48762">
        <ele>1669.3</ele>
        <time>2020-08-31T12:42:25.404Z</time>
      </trkpt>
      <trkpt lat="42.51842" lon="2.48764">
        <ele>1670.6</ele>
        <time>2020-08-31T12:42:56.241Z</time>
      </trkpt>
      <trkpt lat="42.51836" lon="2.48767">
        <ele>1670.5</ele>
        <time>2020-08-31T12:42:58.627Z</time>
      </trkpt>
      <trkpt lat="42.51834" lon="2.48767">
        <ele>1670.7</ele>
        <time>2020-08-31T12:43:05.357Z</time>
      </trkpt>
      <trkpt lat="42.5183" lon="2.4877">
        <ele>1686.7</ele>
        <time>2020-08-31T12:43:28.169Z</time>
      </trkpt>
      <trkpt lat="42.51825" lon="2.48773">
        <ele>1687.3</ele>
        <time>2020-08-31T12:43:48.497Z</time>
      </trkpt>
      <trkpt lat="42.51821" lon="2.48778">
        <ele>1687.9</ele>
        <time>2020-08-31T12:44:08.845Z</time>
      </trkpt>
      <trkpt lat="42.51816" lon="2.48786">
        <ele>1688.4</ele>
        <time>2020-08-31T12:44:28.198Z</time>
      </trkpt>
      <trkpt lat="42.51813" lon="2.48792">
        <ele>1688.5</ele>
        <time>2020-08-31T12:44:36.544Z</time>
      </trkpt>
      <trkpt lat="42.51809" lon="2.48796">
        <ele>1688.8</ele>
        <time>2020-08-31T12:44:48.607Z</time>
      </trkpt>
      <trkpt lat="42.51806" lon="2.488">
        <ele>1688.9</ele>
        <time>2020-08-31T12:44:55.565Z</time>
      </trkpt>
      <trkpt lat="42.51806" lon="2.48808">
        <ele>1688.1</ele>
        <time>2020-08-31T12:44:57.038Z</time>
      </trkpt>
      <trkpt lat="42.51807" lon="2.48819">
        <ele>1686.3</ele>
        <time>2020-08-31T12:44:59.079Z</time>
      </trkpt>
      <trkpt lat="42.51808" lon="2.48829">
        <ele>1684.4</ele>
        <time>2020-08-31T12:45:00.937Z</time>
      </trkpt>
      <trkpt lat="42.51813" lon="2.48835">
        <ele>1680.9</ele>
        <time>2020-08-31T12:45:02.604Z</time>
      </trkpt>
      <trkpt lat="42.51817" lon="2.48839">
        <ele>1679</ele>
        <time>2020-08-31T12:45:03.845Z</time>
      </trkpt>
      <trkpt lat="42.51822" lon="2.48845">
        <ele>1678</ele>
        <time>2020-08-31T12:45:05.513Z</time>
      </trkpt>
      <trkpt lat="42.51826" lon="2.4885">
        <ele>1678.7</ele>
        <time>2020-08-31T12:45:30.922Z</time>
      </trkpt>
      <trkpt lat="42.51829" lon="2.48858">
        <ele>1680.9</ele>
        <time>2020-08-31T12:46:03.942Z</time>
      </trkpt>
      <trkpt lat="42.51831" lon="2.48865">
        <ele>1682.1</ele>
        <time>2020-08-31T12:46:31.561Z</time>
      </trkpt>
      <trkpt lat="42.51836" lon="2.48872">
        <ele>1654.2</ele>
        <time>2020-08-31T12:46:33.356Z</time>
      </trkpt>
      <trkpt lat="42.51841" lon="2.48875">
        <ele>1653.7</ele>
        <time>2020-08-31T12:46:34.721Z</time>
      </trkpt>
      <trkpt lat="42.51844" lon="2.48884">
        <ele>1653.9</ele>
        <time>2020-08-31T12:46:47.310Z</time>
      </trkpt>
      <trkpt lat="42.51844" lon="2.48893">
        <ele>1655.5</ele>
        <time>2020-08-31T12:47:20.419Z</time>
      </trkpt>
      <trkpt lat="42.51844" lon="2.489">
        <ele>1657.4</ele>
        <time>2020-08-31T12:47:46.170Z</time>
      </trkpt>
      <trkpt lat="42.51843" lon="2.48906">
        <ele>1659.9</ele>
        <time>2020-08-31T12:48:08.800Z</time>
      </trkpt>
      <trkpt lat="42.51839" lon="2.48913">
        <ele>1664.4</ele>
        <time>2020-08-31T12:48:41.384Z</time>
      </trkpt>
      <trkpt lat="42.51837" lon="2.48916">
        <ele>1667.2</ele>
        <time>2020-08-31T12:48:56.265Z</time>
      </trkpt>
      <trkpt lat="42.51836" lon="2.48921">
        <ele>1666.5</ele>
        <time>2020-08-31T12:48:57.219Z</time>
      </trkpt>
      <trkpt lat="42.51834" lon="2.48933">
        <ele>1658.8</ele>
        <time>2020-08-31T12:48:59.484Z</time>
      </trkpt>
      <trkpt lat="42.51836" lon="2.48963">
        <ele>1653.5</ele>
        <time>2020-08-31T12:49:05.030Z</time>
      </trkpt>
      <trkpt lat="42.51834" lon="2.48972">
        <ele>1654.7</ele>
        <time>2020-08-31T12:49:39.612Z</time>
      </trkpt>
      <trkpt lat="42.51828" lon="2.4898">
        <ele>1681.5</ele>
        <time>2020-08-31T12:50:21.599Z</time>
      </trkpt>
      <trkpt lat="42.51819" lon="2.48988">
        <ele>1681.4</ele>
        <time>2020-08-31T12:50:25.956Z</time>
      </trkpt>
      <trkpt lat="42.51817" lon="2.48999">
        <ele>1681</ele>
        <time>2020-08-31T12:50:28.184Z</time>
      </trkpt>
      <trkpt lat="42.51816" lon="2.49018">
        <ele>1680.6</ele>
        <time>2020-08-31T12:50:32.705Z</time>
      </trkpt>
      <trkpt lat="42.51819" lon="2.49073">
        <ele>1676.1</ele>
        <time>2020-08-31T12:50:42.859Z</time>
      </trkpt>
      <trkpt lat="42.51819" lon="2.49084">
        <ele>1672.1</ele>
        <time>2020-08-31T12:50:44.885Z</time>
      </trkpt>
      <trkpt lat="42.51816" lon="2.49122">
        <ele>1676.3</ele>
        <time>2020-08-31T12:53:05.478Z</time>
      </trkpt>
      <trkpt lat="42.51818" lon="2.49135">
        <ele>1675.5</ele>
        <time>2020-08-31T12:53:07.924Z</time>
      </trkpt>
      <trkpt lat="42.51823" lon="2.4915">
        <ele>1672.6</ele>
        <time>2020-08-31T12:53:10.955Z</time>
      </trkpt>
      <trkpt lat="42.51824" lon="2.49164">
        <ele>1669.3</ele>
        <time>2020-08-31T12:53:13.544Z</time>
      </trkpt>
      <trkpt lat="42.51823" lon="2.49229">
        <ele>1667.8</ele>
        <time>2020-08-31T12:53:28.526Z</time>
      </trkpt>
      <trkpt lat="42.51823" lon="2.49249">
        <ele>1665.8</ele>
        <time>2020-08-31T12:53:32.208Z</time>
      </trkpt>
      <trkpt lat="42.51819" lon="2.49254">
        <ele>1659.7</ele>
        <time>2020-08-31T12:53:33.567Z</time>
      </trkpt>
      <trkpt lat="42.51813" lon="2.49255">
        <ele>1659.1</ele>
        <time>2020-08-31T12:53:35.077Z</time>
      </trkpt>
      <trkpt lat="42.51709" lon="2.49215">
        <ele>1679.7</ele>
        <time>2020-08-31T13:02:34.612Z</time>
      </trkpt>
      <trkpt lat="42.51706" lon="2.4922">
        <ele>1679.1</ele>
        <time>2020-08-31T13:02:35.800Z</time>
      </trkpt>
      <trkpt lat="42.51703" lon="2.49224">
        <ele>1678.7</ele>
        <time>2020-08-31T13:02:36.850Z</time>
      </trkpt>
      <trkpt lat="42.51699" lon="2.49228">
        <ele>1678.3</ele>
        <time>2020-08-31T13:02:38.092Z</time>
      </trkpt>
      <trkpt lat="42.51693" lon="2.49234">
        <ele>1677.5</ele>
        <time>2020-08-31T13:02:39.953Z</time>
      </trkpt>
      <trkpt lat="42.51689" lon="2.4924">
        <ele>1676.8</ele>
        <time>2020-08-31T13:02:41.443Z</time>
      </trkpt>
      <trkpt lat="42.51687" lon="2.49244">
        <ele>1676.2</ele>
        <time>2020-08-31T13:02:42.333Z</time>
      </trkpt>
      <trkpt lat="42.51685" lon="2.4925">
        <ele>1675.7</ele>
        <time>2020-08-31T13:02:43.545Z</time>
      </trkpt>
      <trkpt lat="42.51682" lon="2.49254">
        <ele>1668</ele>
        <time>2020-08-31T13:02:44.596Z</time>
      </trkpt>
      <trkpt lat="42.51678" lon="2.49257">
        <ele>1668.2</ele>
        <time>2020-08-31T13:02:54.467Z</time>
      </trkpt>
      <trkpt lat="42.51677" lon="2.49264">
        <ele>1667.5</ele>
        <time>2020-08-31T13:02:55.780Z</time>
      </trkpt>
      <trkpt lat="42.51675" lon="2.49272">
        <ele>1666.4</ele>
        <time>2020-08-31T13:02:57.335Z</time>
      </trkpt>
      <trkpt lat="42.51673" lon="2.49277">
        <ele>1665.8</ele>
        <time>2020-08-31T13:02:58.382Z</time>
      </trkpt>
      <trkpt lat="42.51672" lon="2.49284">
        <ele>1665</ele>
        <time>2020-08-31T13:02:59.695Z</time>
      </trkpt>
      <trkpt lat="42.51671" lon="2.4929">
        <ele>1664.2</ele>
        <time>2020-08-31T13:03:00.828Z</time>
      </trkpt>
      <trkpt lat="42.51672" lon="2.49298">
        <ele>1663.5</ele>
        <time>2020-08-31T13:03:02.322Z</time>
      </trkpt>
      <trkpt lat="42.51672" lon="2.49308">
        <ele>1662.8</ele>
        <time>2020-08-31T13:03:04.163Z</time>
      </trkpt>
      <trkpt lat="42.51672" lon="2.49316">
        <ele>1662.4</ele>
        <time>2020-08-31T13:03:05.636Z</time>
      </trkpt>
      <trkpt lat="42.51672" lon="2.49322">
        <ele>1662.1</ele>
        <time>2020-08-31T13:03:06.741Z</time>
      </trkpt>
      <trkpt lat="42.51671" lon="2.49329">
        <ele>1662</ele>
        <time>2020-08-31T13:03:08.623Z</time>
      </trkpt>
      <trkpt lat="42.51668" lon="2.49336">
        <ele>1660</ele>
        <time>2020-08-31T13:03:10.114Z</time>
      </trkpt>
      <trkpt lat="42.51665" lon="2.49341">
        <ele>1662.5</ele>
        <time>2020-08-31T13:03:33.832Z</time>
      </trkpt>
      <trkpt lat="42.51662" lon="2.49345">
        <ele>1662.8</ele>
        <time>2020-08-31T13:03:44.895Z</time>
      </trkpt>
      <trkpt lat="42.51659" lon="2.49347">
        <ele>1662.9</ele>
        <time>2020-08-31T13:03:50.853Z</time>
      </trkpt>
      <trkpt lat="42.51655" lon="2.49347">
        <ele>1663.1</ele>
        <time>2020-08-31T13:03:59.904Z</time>
      </trkpt>
      <trkpt lat="42.5165" lon="2.49345">
        <ele>1663.6</ele>
        <time>2020-08-31T13:04:16.774Z</time>
      </trkpt>
      <trkpt lat="42.51644" lon="2.49341">
        <ele>1664.4</ele>
        <time>2020-08-31T13:04:44.603Z</time>
      </trkpt>
      <trkpt lat="42.51639" lon="2.49339">
        <ele>1665</ele>
        <time>2020-08-31T13:05:05.171Z</time>
      </trkpt>
      <trkpt lat="42.51636" lon="2.49339">
        <ele>1665.4</ele>
        <time>2020-08-31T13:05:20.123Z</time>
      </trkpt>
      <trkpt lat="42.51635" lon="2.49342">
        <ele>1665.5</ele>
        <time>2020-08-31T13:05:25.167Z</time>
      </trkpt>
      <trkpt lat="42.51635" lon="2.49346">
        <ele>1665.3</ele>
        <time>2020-08-31T13:05:25.904Z</time>
      </trkpt>
      <trkpt lat="42.51636" lon="2.49351">
        <ele>1665</ele>
        <time>2020-08-31T13:05:26.858Z</time>
      </trkpt>
      <trkpt lat="42.51633" lon="2.49353">
        <ele>1665.2</ele>
        <time>2020-08-31T13:05:34.942Z</time>
      </trkpt>
      <trkpt lat="42.51629" lon="2.49354">
        <ele>1665.8</ele>
        <time>2020-08-31T13:05:55.243Z</time>
      </trkpt>
      <trkpt lat="42.51626" lon="2.49355">
        <ele>1666.1</ele>
        <time>2020-08-31T13:06:05.353Z</time>
      </trkpt>
      <trkpt lat="42.51622" lon="2.49356">
        <ele>1666.6</ele>
        <time>2020-08-31T13:06:22.978Z</time>
      </trkpt>
      <trkpt lat="42.5162" lon="2.49356">
        <ele>1667</ele>
        <time>2020-08-31T13:06:32.961Z</time>
      </trkpt>
      <trkpt lat="42.51618" lon="2.49358">
        <ele>1667.1</ele>
        <time>2020-08-31T13:06:38.053Z</time>
      </trkpt>
      <trkpt lat="42.51617" lon="2.4936">
        <ele>1667.1</ele>
        <time>2020-08-31T13:06:40.358Z</time>
      </trkpt>
      <trkpt lat="42.51615" lon="2.49371">
        <ele>1666.4</ele>
        <time>2020-08-31T13:06:42.444Z</time>
      </trkpt>
      <trkpt lat="42.51618" lon="2.49376">
        <ele>1665.7</ele>
        <time>2020-08-31T13:06:43.631Z</time>
      </trkpt>
      <trkpt lat="42.51624" lon="2.49378">
        <ele>1664.7</ele>
        <time>2020-08-31T13:06:45.175Z</time>
      </trkpt>
      <trkpt lat="42.51628" lon="2.4938">
        <ele>1663.9</ele>
        <time>2020-08-31T13:06:46.240Z</time>
      </trkpt>
      <trkpt lat="42.5163" lon="2.49385">
        <ele>1663.2</ele>
        <time>2020-08-31T13:06:47.287Z</time>
      </trkpt>
      <trkpt lat="42.5163" lon="2.49391">
        <ele>1662.6</ele>
        <time>2020-08-31T13:06:48.392Z</time>
      </trkpt>
      <trkpt lat="42.51628" lon="2.49398">
        <ele>1662.5</ele>
        <time>2020-08-31T13:06:50.397Z</time>
      </trkpt>
      <trkpt lat="42.51625" lon="2.49405">
        <ele>1662.7</ele>
        <time>2020-08-31T13:07:01.540Z</time>
      </trkpt>
      <trkpt lat="42.51622" lon="2.4941">
        <ele>1663.1</ele>
        <time>2020-08-31T13:07:15.394Z</time>
      </trkpt>
      <trkpt lat="42.51617" lon="2.49413">
        <ele>1664</ele>
        <time>2020-08-31T13:07:42.682Z</time>
      </trkpt>
      <trkpt lat="42.51615" lon="2.49418">
        <ele>1659</ele>
        <time>2020-08-31T13:07:43.729Z</time>
      </trkpt>
      <trkpt lat="42.51613" lon="2.49426">
        <ele>1659.1</ele>
        <time>2020-08-31T13:07:53.176Z</time>
      </trkpt>
      <trkpt lat="42.51611" lon="2.49434">
        <ele>1659.1</ele>
        <time>2020-08-31T13:08:01.234Z</time>
      </trkpt>
      <trkpt lat="42.51607" lon="2.49441">
        <ele>1659.2</ele>
        <time>2020-08-31T13:08:11.060Z</time>
      </trkpt>
      <trkpt lat="42.51604" lon="2.49449">
        <ele>1659</ele>
        <time>2020-08-31T13:08:13.152Z</time>
      </trkpt>
      <trkpt lat="42.51601" lon="2.49456">
        <ele>1658.9</ele>
        <time>2020-08-31T13:08:15.349Z</time>
      </trkpt>
      <trkpt lat="42.51598" lon="2.49463">
        <ele>1658.9</ele>
        <time>2020-08-31T13:08:23.072Z</time>
      </trkpt>
      <trkpt lat="42.51596" lon="2.49471">
        <ele>1659.1</ele>
        <time>2020-08-31T13:08:34.488Z</time>
      </trkpt>
      <trkpt lat="42.51597" lon="2.49478">
        <ele>1659.4</ele>
        <time>2020-08-31T13:08:46.958Z</time>
      </trkpt>
      <trkpt lat="42.51597" lon="2.49483">
        <ele>1659.7</ele>
        <time>2020-08-31T13:08:57.457Z</time>
      </trkpt>
      <trkpt lat="42.51596" lon="2.49488">
        <ele>1660.3</ele>
        <time>2020-08-31T13:09:16.517Z</time>
      </trkpt>
      <trkpt lat="42.51596" lon="2.4949">
        <ele>1660.5</ele>
        <time>2020-08-31T13:09:23.875Z</time>
      </trkpt>
      <trkpt lat="42.51595" lon="2.49495">
        <ele>1661.2</ele>
        <time>2020-08-31T13:09:42.935Z</time>
      </trkpt>
      <trkpt lat="42.51595" lon="2.49501">
        <ele>1662.6</ele>
        <time>2020-08-31T13:10:05.008Z</time>
      </trkpt>
      <trkpt lat="42.51597" lon="2.49508">
        <ele>1662.2</ele>
        <time>2020-08-31T13:10:06.390Z</time>
      </trkpt>
      <trkpt lat="42.51597" lon="2.49515">
        <ele>1662</ele>
        <time>2020-08-31T13:10:07.888Z</time>
      </trkpt>
      <trkpt lat="42.51595" lon="2.49532">
        <ele>1662.7</ele>
        <time>2020-08-31T13:10:37.604Z</time>
      </trkpt>
      <trkpt lat="42.51594" lon="2.49535">
        <ele>1663.1</ele>
        <time>2020-08-31T13:10:49.717Z</time>
      </trkpt>
      <trkpt lat="42.51593" lon="2.49539">
        <ele>1663.6</ele>
        <time>2020-08-31T13:11:05.256Z</time>
      </trkpt>
      <trkpt lat="42.51594" lon="2.49545">
        <ele>1664.3</ele>
        <time>2020-08-31T13:11:27.887Z</time>
      </trkpt>
      <trkpt lat="42.51597" lon="2.4955">
        <ele>1664.8</ele>
        <time>2020-08-31T13:11:44.735Z</time>
      </trkpt>
      <trkpt lat="42.516" lon="2.49555">
        <ele>1665.2</ele>
        <time>2020-08-31T13:11:58.589Z</time>
      </trkpt>
      <trkpt lat="42.51602" lon="2.49558">
        <ele>1665.6</ele>
        <time>2020-08-31T13:12:13.471Z</time>
      </trkpt>
      <trkpt lat="42.51604" lon="2.49561">
        <ele>1665.6</ele>
        <time>2020-08-31T13:12:17.329Z</time>
      </trkpt>
      <trkpt lat="42.5161" lon="2.49567">
        <ele>1664.9</ele>
        <time>2020-08-31T13:12:19.191Z</time>
      </trkpt>
      <trkpt lat="42.51613" lon="2.49571">
        <ele>1664.5</ele>
        <time>2020-08-31T13:12:20.241Z</time>
      </trkpt>
      <trkpt lat="42.51617" lon="2.49584">
        <ele>1674.7</ele>
        <time>2020-08-31T13:13:12.067Z</time>
      </trkpt>
      <trkpt lat="42.51627" lon="2.49593">
        <ele>1672.2</ele>
        <time>2020-08-31T13:13:15.065Z</time>
      </trkpt>
      <trkpt lat="42.51633" lon="2.49612">
        <ele>1672.6</ele>
        <time>2020-08-31T13:13:41.022Z</time>
      </trkpt>
      <trkpt lat="42.51638" lon="2.49623">
        <ele>1673.2</ele>
        <time>2020-08-31T13:14:04.580Z</time>
      </trkpt>
      <trkpt lat="42.51642" lon="2.49628">
        <ele>1672.8</ele>
        <time>2020-08-31T13:14:05.939Z</time>
      </trkpt>
      <trkpt lat="42.51646" lon="2.49632">
        <ele>1672.4</ele>
        <time>2020-08-31T13:14:07.180Z</time>
      </trkpt>
      <trkpt lat="42.51649" lon="2.49637">
        <ele>1672</ele>
        <time>2020-08-31T13:14:08.367Z</time>
      </trkpt>
      <trkpt lat="42.51653" lon="2.49643">
        <ele>1671.4</ele>
        <time>2020-08-31T13:14:09.857Z</time>
      </trkpt>
      <trkpt lat="42.51656" lon="2.49651">
        <ele>1670.2</ele>
        <time>2020-08-31T13:14:11.509Z</time>
      </trkpt>
      <trkpt lat="42.51659" lon="2.49659">
        <ele>1668.2</ele>
        <time>2020-08-31T13:14:13.162Z</time>
      </trkpt>
      <trkpt lat="42.51661" lon="2.49666">
        <ele>1666</ele>
        <time>2020-08-31T13:14:14.544Z</time>
      </trkpt>
      <trkpt lat="42.51664" lon="2.49675">
        <ele>1672.3</ele>
        <time>2020-08-31T13:14:50.883Z</time>
      </trkpt>
      <trkpt lat="42.51667" lon="2.49682">
        <ele>1656.8</ele>
        <time>2020-08-31T13:14:52.373Z</time>
      </trkpt>
      <trkpt lat="42.51668" lon="2.49687">
        <ele>1655.6</ele>
        <time>2020-08-31T13:14:53.327Z</time>
      </trkpt>
      <trkpt lat="42.51668" lon="2.497">
        <ele>1654.9</ele>
        <time>2020-08-31T13:14:55.721Z</time>
      </trkpt>
      <trkpt lat="42.51667" lon="2.49706">
        <ele>1655.3</ele>
        <time>2020-08-31T13:15:09.407Z</time>
      </trkpt>
      <trkpt lat="42.51665" lon="2.49713">
        <ele>1686.6</ele>
        <time>2020-08-31T13:15:37.027Z</time>
      </trkpt>
      <trkpt lat="42.51663" lon="2.49719">
        <ele>1687</ele>
        <time>2020-08-31T13:15:50.970Z</time>
      </trkpt>
      <trkpt lat="42.51662" lon="2.49726">
        <ele>1686.7</ele>
        <time>2020-08-31T13:15:52.267Z</time>
      </trkpt>
      <trkpt lat="42.51664" lon="2.49736">
        <ele>1684.2</ele>
        <time>2020-08-31T13:15:54.174Z</time>
      </trkpt>
      <trkpt lat="42.51669" lon="2.49741">
        <ele>1667.1</ele>
        <time>2020-08-31T13:15:55.726Z</time>
      </trkpt>
      <trkpt lat="42.51676" lon="2.49745">
        <ele>1665.6</ele>
        <time>2020-08-31T13:15:57.623Z</time>
      </trkpt>
      <trkpt lat="42.51687" lon="2.49752">
        <ele>1665.5</ele>
        <time>2020-08-31T13:16:02.614Z</time>
      </trkpt>
      <trkpt lat="42.5169" lon="2.49755">
        <ele>1663.9</ele>
        <time>2020-08-31T13:16:03.545Z</time>
      </trkpt>
      <trkpt lat="42.51693" lon="2.4976">
        <ele>1662.9</ele>
        <time>2020-08-31T13:16:04.733Z</time>
      </trkpt>
      <trkpt lat="42.51694" lon="2.49766">
        <ele>1662.1</ele>
        <time>2020-08-31T13:16:05.865Z</time>
      </trkpt>
      <trkpt lat="42.51695" lon="2.49773">
        <ele>1661.8</ele>
        <time>2020-08-31T13:16:07.162Z</time>
      </trkpt>
      <trkpt lat="42.51695" lon="2.4978">
        <ele>1662.1</ele>
        <time>2020-08-31T13:16:19.494Z</time>
      </trkpt>
      <trkpt lat="42.51694" lon="2.49788">
        <ele>1662.8</ele>
        <time>2020-08-31T13:16:43.628Z</time>
      </trkpt>
      <trkpt lat="42.51694" lon="2.49794">
        <ele>1663.1</ele>
        <time>2020-08-31T13:16:54.958Z</time>
      </trkpt>
      <trkpt lat="42.51695" lon="2.49802">
        <ele>1663.7</ele>
        <time>2020-08-31T13:17:15.147Z</time>
      </trkpt>
      <trkpt lat="42.51697" lon="2.49808">
        <ele>1663.9</ele>
        <time>2020-08-31T13:17:25.235Z</time>
      </trkpt>
      <trkpt lat="42.517" lon="2.49814">
        <ele>1663.8</ele>
        <time>2020-08-31T13:17:27.157Z</time>
      </trkpt>
      <trkpt lat="42.51704" lon="2.49825">
        <ele>1662.6</ele>
        <time>2020-08-31T13:17:29.415Z</time>
      </trkpt>
      <trkpt lat="42.51708" lon="2.4983">
        <ele>1660.8</ele>
        <time>2020-08-31T13:17:30.774Z</time>
      </trkpt>
      <trkpt lat="42.51711" lon="2.49834">
        <ele>1668.3</ele>
        <time>2020-08-31T13:17:51.768Z</time>
      </trkpt>
      <trkpt lat="42.51714" lon="2.49839">
        <ele>1667.2</ele>
        <time>2020-08-31T13:17:52.955Z</time>
      </trkpt>
      <trkpt lat="42.51716" lon="2.49844">
        <ele>1666.8</ele>
        <time>2020-08-31T13:17:54.002Z</time>
      </trkpt>
      <trkpt lat="42.51717" lon="2.4985">
        <ele>1667</ele>
        <time>2020-08-31T13:18:03.847Z</time>
      </trkpt>
      <trkpt lat="42.51718" lon="2.49857">
        <ele>1667.5</ele>
        <time>2020-08-31T13:18:20.732Z</time>
      </trkpt>
      <trkpt lat="42.5172" lon="2.49863">
        <ele>1667.6</ele>
        <time>2020-08-31T13:18:28.474Z</time>
      </trkpt>
      <trkpt lat="42.51723" lon="2.49872">
        <ele>1668</ele>
        <time>2020-08-31T13:18:45.498Z</time>
      </trkpt>
      <trkpt lat="42.51725" lon="2.49878">
        <ele>1668.1</ele>
        <time>2020-08-31T13:18:53.240Z</time>
      </trkpt>
      <trkpt lat="42.51728" lon="2.49884">
        <ele>1667.6</ele>
        <time>2020-08-31T13:18:54.575Z</time>
      </trkpt>
      <trkpt lat="42.51732" lon="2.49891">
        <ele>1666.7</ele>
        <time>2020-08-31T13:18:56.205Z</time>
      </trkpt>
      <trkpt lat="42.51736" lon="2.49898">
        <ele>1665.2</ele>
        <time>2020-08-31T13:18:57.836Z</time>
      </trkpt>
      <trkpt lat="42.51738" lon="2.49904">
        <ele>1663.4</ele>
        <time>2020-08-31T13:18:59.049Z</time>
      </trkpt>
      <trkpt lat="42.51742" lon="2.4991">
        <ele>1660.7</ele>
        <time>2020-08-31T13:19:00.538Z</time>
      </trkpt>
      <trkpt lat="42.51744" lon="2.49917">
        <ele>1658.2</ele>
        <time>2020-08-31T13:19:01.920Z</time>
      </trkpt>
      <trkpt lat="42.51744" lon="2.49923">
        <ele>1663.8</ele>
        <time>2020-08-31T13:19:23.993Z</time>
      </trkpt>
      <trkpt lat="42.51744" lon="2.4993">
        <ele>1668.4</ele>
        <time>2020-08-31T13:19:49.745Z</time>
      </trkpt>
      <trkpt lat="42.51745" lon="2.49937">
        <ele>1672</ele>
        <time>2020-08-31T13:20:15.976Z</time>
      </trkpt>
      <trkpt lat="42.51747" lon="2.49946">
        <ele>1675.2</ele>
        <time>2020-08-31T13:20:50.558Z</time>
      </trkpt>
      <trkpt lat="42.51749" lon="2.49952">
        <ele>1676.6</ele>
        <time>2020-08-31T13:21:14.783Z</time>
      </trkpt>
      <trkpt lat="42.51751" lon="2.49959">
        <ele>1644.8</ele>
        <time>2020-08-31T13:21:16.166Z</time>
      </trkpt>
      <trkpt lat="42.51765" lon="2.49995">
        <ele>1653.9</ele>
        <time>2020-08-31T13:23:45.907Z</time>
      </trkpt>
      <trkpt lat="42.5177" lon="2.50001">
        <ele>1655.4</ele>
        <time>2020-08-31T13:24:19.224Z</time>
      </trkpt>
      <trkpt lat="42.51774" lon="2.50016">
        <ele>1651.8</ele>
        <time>2020-08-31T13:24:22.161Z</time>
      </trkpt>
      <trkpt lat="42.51772" lon="2.50033">
        <ele>1650.7</ele>
        <time>2020-08-31T13:24:25.330Z</time>
      </trkpt>
      <trkpt lat="42.51765" lon="2.50046">
        <ele>1652</ele>
        <time>2020-08-31T13:25:09.360Z</time>
      </trkpt>
      <trkpt lat="42.51753" lon="2.50057">
        <ele>1655.4</ele>
        <time>2020-08-31T13:26:21.643Z</time>
      </trkpt>
      <trkpt lat="42.51749" lon="2.5006">
        <ele>1680.8</ele>
        <time>2020-08-31T13:26:44.456Z</time>
      </trkpt>
      <trkpt lat="42.51744" lon="2.50063">
        <ele>1680.6</ele>
        <time>2020-08-31T13:26:46.076Z</time>
      </trkpt>
      <trkpt lat="42.51742" lon="2.50067">
        <ele>1679.6</ele>
        <time>2020-08-31T13:26:46.966Z</time>
      </trkpt>
      <trkpt lat="42.51742" lon="2.50073">
        <ele>1677.7</ele>
        <time>2020-08-31T13:26:48.071Z</time>
      </trkpt>
      <trkpt lat="42.51743" lon="2.50078">
        <ele>1675.2</ele>
        <time>2020-08-31T13:26:49.025Z</time>
      </trkpt>
      <trkpt lat="42.51743" lon="2.50082">
        <ele>1674.3</ele>
        <time>2020-08-31T13:26:49.761Z</time>
      </trkpt>
      <trkpt lat="42.5174" lon="2.50085">
        <ele>1677.1</ele>
        <time>2020-08-31T13:27:08.363Z</time>
      </trkpt>
      <trkpt lat="42.51736" lon="2.50088">
        <ele>1680.4</ele>
        <time>2020-08-31T13:27:31.175Z</time>
      </trkpt>
      <trkpt lat="42.51733" lon="2.50092">
        <ele>1682.7</ele>
        <time>2020-08-31T13:27:52.169Z</time>
      </trkpt>
      <trkpt lat="42.51728" lon="2.50097">
        <ele>1685.4</ele>
        <time>2020-08-31T13:28:23.171Z</time>
      </trkpt>
      <trkpt lat="42.51726" lon="2.501">
        <ele>1686.7</ele>
        <time>2020-08-31T13:28:38.052Z</time>
      </trkpt>
      <trkpt lat="42.51725" lon="2.50104">
        <ele>1687.6</ele>
        <time>2020-08-31T13:28:53.591Z</time>
      </trkpt>
      <trkpt lat="42.51728" lon="2.50107">
        <ele>1687.3</ele>
        <time>2020-08-31T13:28:54.522Z</time>
      </trkpt>
      <trkpt lat="42.51733" lon="2.50111">
        <ele>1686.7</ele>
        <time>2020-08-31T13:28:55.972Z</time>
      </trkpt>
      <trkpt lat="42.51739" lon="2.50115">
        <ele>1686.3</ele>
        <time>2020-08-31T13:28:57.585Z</time>
      </trkpt>
      <trkpt lat="42.51744" lon="2.5012">
        <ele>1686.4</ele>
        <time>2020-08-31T13:29:07.013Z</time>
      </trkpt>
      <trkpt lat="42.51749" lon="2.50125">
        <ele>1686.5</ele>
        <time>2020-08-31T13:29:16.441Z</time>
      </trkpt>
      <trkpt lat="42.51754" lon="2.5013">
        <ele>1661.7</ele>
        <time>2020-08-31T13:29:17.993Z</time>
      </trkpt>
      <trkpt lat="42.5176" lon="2.50135">
        <ele>1661.8</ele>
        <time>2020-08-31T13:29:28.467Z</time>
      </trkpt>
      <trkpt lat="42.51766" lon="2.50141">
        <ele>1661.9</ele>
        <time>2020-08-31T13:29:39.463Z</time>
      </trkpt>
      <trkpt lat="42.51771" lon="2.50146">
        <ele>1661.5</ele>
        <time>2020-08-31T13:29:40.910Z</time>
      </trkpt>
      <trkpt lat="42.51776" lon="2.50149">
        <ele>1660.4</ele>
        <time>2020-08-31T13:29:42.275Z</time>
      </trkpt>
      <trkpt lat="42.51779" lon="2.50152">
        <ele>1659.6</ele>
        <time>2020-08-31T13:29:43.206Z</time>
      </trkpt>
      <trkpt lat="42.51782" lon="2.50156">
        <ele>1659</ele>
        <time>2020-08-31T13:29:44.257Z</time>
      </trkpt>
      <trkpt lat="42.51786" lon="2.50162">
        <ele>1658.2</ele>
        <time>2020-08-31T13:29:45.747Z</time>
      </trkpt>
      <trkpt lat="42.51793" lon="2.5017">
        <ele>1667</ele>
        <time>2020-08-31T13:30:31.428Z</time>
      </trkpt>
      <trkpt lat="42.518" lon="2.50184">
        <ele>1665.7</ele>
        <time>2020-08-31T13:30:34.543Z</time>
      </trkpt>
      <trkpt lat="42.51805" lon="2.50192">
        <ele>1665.7</ele>
        <time>2020-08-31T13:30:44.547Z</time>
      </trkpt>
      <trkpt lat="42.5181" lon="2.50202">
        <ele>1665.9</ele>
        <time>2020-08-31T13:30:59.057Z</time>
      </trkpt>
      <trkpt lat="42.51813" lon="2.50214">
        <ele>1667.2</ele>
        <time>2020-08-31T13:31:45.672Z</time>
      </trkpt>
      <trkpt lat="42.51814" lon="2.5022">
        <ele>1667.4</ele>
        <time>2020-08-31T13:31:55.517Z</time>
      </trkpt>
      <trkpt lat="42.51817" lon="2.50226">
        <ele>1666.9</ele>
        <time>2020-08-31T13:31:56.852Z</time>
      </trkpt>
      <trkpt lat="42.51821" lon="2.50232">
        <ele>1665.8</ele>
        <time>2020-08-31T13:31:58.342Z</time>
      </trkpt>
      <trkpt lat="42.51824" lon="2.50238">
        <ele>1664.3</ele>
        <time>2020-08-31T13:31:59.677Z</time>
      </trkpt>
      <trkpt lat="42.51826" lon="2.50247">
        <ele>1662.1</ele>
        <time>2020-08-31T13:32:01.407Z</time>
      </trkpt>
      <trkpt lat="42.51826" lon="2.50256">
        <ele>1668</ele>
        <time>2020-08-31T13:32:34.516Z</time>
      </trkpt>
      <trkpt lat="42.51827" lon="2.50266">
        <ele>1673.2</ele>
        <time>2020-08-31T13:33:11.641Z</time>
      </trkpt>
      <trkpt lat="42.51831" lon="2.50286">
        <ele>1679.2</ele>
        <time>2020-08-31T13:34:27.878Z</time>
      </trkpt>
      <trkpt lat="42.51832" lon="2.50295">
        <ele>1679.9</ele>
        <time>2020-08-31T13:34:51.450Z</time>
      </trkpt>
      <trkpt lat="42.51834" lon="2.50304">
        <ele>1647.7</ele>
        <time>2020-08-31T13:34:53.181Z</time>
      </trkpt>
      <trkpt lat="42.51836" lon="2.50307">
        <ele>1648.5</ele>
        <time>2020-08-31T13:35:08.062Z</time>
      </trkpt>
      <trkpt lat="42.51839" lon="2.50312">
        <ele>1649.5</ele>
        <time>2020-08-31T13:35:31.780Z</time>
      </trkpt>
      <trkpt lat="42.51842" lon="2.50315">
        <ele>1650</ele>
        <time>2020-08-31T13:35:50.381Z</time>
      </trkpt>
      <trkpt lat="42.51845" lon="2.50319">
        <ele>1650.5</ele>
        <time>2020-08-31T13:36:07.725Z</time>
      </trkpt>
      <trkpt lat="42.51846" lon="2.50323">
        <ele>1651.9</ele>
        <time>2020-08-31T13:36:23.263Z</time>
      </trkpt>
      <trkpt lat="42.51845" lon="2.50328">
        <ele>1653.6</ele>
        <time>2020-08-31T13:36:42.323Z</time>
      </trkpt>
      <trkpt lat="42.51847" lon="2.50335">
        <ele>1658</ele>
        <time>2020-08-31T13:37:09.941Z</time>
      </trkpt>
      <trkpt lat="42.51848" lon="2.50342">
        <ele>1656.9</ele>
        <time>2020-08-31T13:37:11.254Z</time>
      </trkpt>
      <trkpt lat="42.51848" lon="2.50347">
        <ele>1656.4</ele>
        <time>2020-08-31T13:37:12.174Z</time>
      </trkpt>
      <trkpt lat="42.51847" lon="2.50353">
        <ele>1656</ele>
        <time>2020-08-31T13:37:13.307Z</time>
      </trkpt>
      <trkpt lat="42.51848" lon="2.50361">
        <ele>1655.2</ele>
        <time>2020-08-31T13:37:14.801Z</time>
      </trkpt>
      <trkpt lat="42.51849" lon="2.50368">
        <ele>1655.1</ele>
        <time>2020-08-31T13:37:16.683Z</time>
      </trkpt>
      <trkpt lat="42.51851" lon="2.50377">
        <ele>1655.5</ele>
        <time>2020-08-31T13:37:33.197Z</time>
      </trkpt>
      <trkpt lat="42.51853" lon="2.50383">
        <ele>1656</ele>
        <time>2020-08-31T13:37:50.024Z</time>
      </trkpt>
      <trkpt lat="42.51856" lon="2.50392">
        <ele>1656.9</ele>
        <time>2020-08-31T13:38:21.847Z</time>
      </trkpt>
      <trkpt lat="42.51858" lon="2.50401">
        <ele>1657.8</ele>
        <time>2020-08-31T13:38:54.747Z</time>
      </trkpt>
      <trkpt lat="42.5186" lon="2.50411">
        <ele>1658.4</ele>
        <time>2020-08-31T13:39:16.006Z</time>
      </trkpt>
      <trkpt lat="42.51862" lon="2.50418">
        <ele>1666.8</ele>
        <time>2020-08-31T13:39:43.625Z</time>
      </trkpt>
      <trkpt lat="42.51863" lon="2.50427">
        <ele>1666.4</ele>
        <time>2020-08-31T13:39:45.246Z</time>
      </trkpt>
      <trkpt lat="42.51866" lon="2.50433">
        <ele>1665</ele>
        <time>2020-08-31T13:39:46.581Z</time>
      </trkpt>
      <trkpt lat="42.519" lon="2.50532">
        <ele>1672.2</ele>
        <time>2020-08-31T13:43:52.197Z</time>
      </trkpt>
      <trkpt lat="42.51933" lon="2.50594">
        <ele>1651.6</ele>
        <time>2020-08-31T13:44:06.277Z</time>
      </trkpt>
      <trkpt lat="42.51936" lon="2.50605">
        <ele>1648.7</ele>
        <time>2020-08-31T13:44:08.436Z</time>
      </trkpt>
      <trkpt lat="42.51938" lon="2.5061">
        <ele>1647.6</ele>
        <time>2020-08-31T13:44:09.484Z</time>
      </trkpt>
      <trkpt lat="42.5194" lon="2.50615">
        <ele>1647</ele>
        <time>2020-08-31T13:44:10.531Z</time>
      </trkpt>
      <trkpt lat="42.51941" lon="2.5062">
        <ele>1647.1</ele>
        <time>2020-08-31T13:44:17.032Z</time>
      </trkpt>
      <trkpt lat="42.51942" lon="2.50625">
        <ele>1647.1</ele>
        <time>2020-08-31T13:44:21.973Z</time>
      </trkpt>
      <trkpt lat="42.51943" lon="2.50631">
        <ele>1647.2</ele>
        <time>2020-08-31T13:44:29.325Z</time>
      </trkpt>
      <trkpt lat="42.51944" lon="2.50636">
        <ele>1647.8</ele>
        <time>2020-08-31T13:44:48.384Z</time>
      </trkpt>
      <trkpt lat="42.51944" lon="2.50649">
        <ele>1649.7</ele>
        <time>2020-08-31T13:45:36.207Z</time>
      </trkpt>
      <trkpt lat="42.51944" lon="2.50655">
        <ele>1650.7</ele>
        <time>2020-08-31T13:45:58.280Z</time>
      </trkpt>
      <trkpt lat="42.51944" lon="2.50664">
        <ele>1652</ele>
        <time>2020-08-31T13:46:31.388Z</time>
      </trkpt>
      <trkpt lat="42.51943" lon="2.50676">
        <ele>1654.2</ele>
        <time>2020-08-31T13:47:15.814Z</time>
      </trkpt>
      <trkpt lat="42.51941" lon="2.50691">
        <ele>1652.6</ele>
        <time>2020-08-31T13:47:18.621Z</time>
      </trkpt>
      <trkpt lat="42.51941" lon="2.50699">
        <ele>1651.8</ele>
        <time>2020-08-31T13:47:20.094Z</time>
      </trkpt>
      <trkpt lat="42.5194" lon="2.50708">
        <ele>1651.4</ele>
        <time>2020-08-31T13:47:21.715Z</time>
      </trkpt>
      <trkpt lat="42.51937" lon="2.50723">
        <ele>1652.4</ele>
        <time>2020-08-31T13:47:56.017Z</time>
      </trkpt>
      <trkpt lat="42.51936" lon="2.50731">
        <ele>1653.8</ele>
        <time>2020-08-31T13:48:25.867Z</time>
      </trkpt>
      <trkpt lat="42.51934" lon="2.50739">
        <ele>1656.1</ele>
        <time>2020-08-31T13:48:56.943Z</time>
      </trkpt>
      <trkpt lat="42.51931" lon="2.50759">
        <ele>1654.9</ele>
        <time>2020-08-31T13:49:00.701Z</time>
      </trkpt>
      <trkpt lat="42.51929" lon="2.50768">
        <ele>1652.5</ele>
        <time>2020-08-31T13:49:02.432Z</time>
      </trkpt>
      <trkpt lat="42.51925" lon="2.50784">
        <ele>1649</ele>
        <time>2020-08-31T13:49:05.543Z</time>
      </trkpt>
      <trkpt lat="42.51924" lon="2.50796">
        <ele>1648.1</ele>
        <time>2020-08-31T13:49:07.766Z</time>
      </trkpt>
      <trkpt lat="42.51922" lon="2.50804">
        <ele>1648.6</ele>
        <time>2020-08-31T13:49:25.344Z</time>
      </trkpt>
      <trkpt lat="42.5192" lon="2.50813">
        <ele>1650.3</ele>
        <time>2020-08-31T13:49:59.925Z</time>
      </trkpt>
      <trkpt lat="42.51918" lon="2.50821">
        <ele>1653</ele>
        <time>2020-08-31T13:50:31.002Z</time>
      </trkpt>
      <trkpt lat="42.51915" lon="2.50828">
        <ele>1667</ele>
        <time>2020-08-31T13:51:00.790Z</time>
      </trkpt>
      <trkpt lat="42.51913" lon="2.50835">
        <ele>1662.1</ele>
        <time>2020-08-31T13:51:02.172Z</time>
      </trkpt>
      <trkpt lat="42.51913" lon="2.50842">
        <ele>1663.2</ele>
        <time>2020-08-31T13:51:27.923Z</time>
      </trkpt>
      <trkpt lat="42.51912" lon="2.5085">
        <ele>1664</ele>
        <time>2020-08-31T13:51:57.773Z</time>
      </trkpt>
      <trkpt lat="42.5191" lon="2.50857">
        <ele>1664.2</ele>
        <time>2020-08-31T13:52:08.478Z</time>
      </trkpt>
      <trkpt lat="42.5191" lon="2.50865">
        <ele>1663.9</ele>
        <time>2020-08-31T13:52:10.010Z</time>
      </trkpt>
      <trkpt lat="42.5191" lon="2.5087">
        <ele>1663.4</ele>
        <time>2020-08-31T13:52:10.931Z</time>
      </trkpt>
      <trkpt lat="42.51909" lon="2.50877">
        <ele>1662.4</ele>
        <time>2020-08-31T13:52:12.244Z</time>
      </trkpt>
      <trkpt lat="42.51907" lon="2.50882">
        <ele>1661.7</ele>
        <time>2020-08-31T13:52:13.291Z</time>
      </trkpt>
      <trkpt lat="42.51903" lon="2.50887">
        <ele>1661.1</ele>
        <time>2020-08-31T13:52:14.650Z</time>
      </trkpt>
      <trkpt lat="42.51898" lon="2.50893">
        <ele>1660.5</ele>
        <time>2020-08-31T13:52:16.317Z</time>
      </trkpt>
      <trkpt lat="42.51894" lon="2.50899">
        <ele>1660.3</ele>
        <time>2020-08-31T13:52:18.139Z</time>
      </trkpt>
      <trkpt lat="42.51889" lon="2.50905">
        <ele>1660.4</ele>
        <time>2020-08-31T13:52:28.151Z</time>
      </trkpt>
      <trkpt lat="42.51885" lon="2.50909">
        <ele>1660.8</ele>
        <time>2020-08-31T13:52:42.202Z</time>
      </trkpt>
      <trkpt lat="42.51881" lon="2.50911">
        <ele>1661.4</ele>
        <time>2020-08-31T13:53:03.479Z</time>
      </trkpt>
      <trkpt lat="42.51876" lon="2.50911">
        <ele>1662.4</ele>
        <time>2020-08-31T13:53:28.435Z</time>
      </trkpt>
      <trkpt lat="42.51871" lon="2.50911">
        <ele>1663.2</ele>
        <time>2020-08-31T13:53:53.390Z</time>
      </trkpt>
      <trkpt lat="42.51866" lon="2.50911">
        <ele>1663.7</ele>
        <time>2020-08-31T13:54:10.216Z</time>
      </trkpt>
      <trkpt lat="42.51859" lon="2.5091">
        <ele>1664.3</ele>
        <time>2020-08-31T13:54:30.923Z</time>
      </trkpt>
      <trkpt lat="42.51853" lon="2.50909">
        <ele>1664.4</ele>
        <time>2020-08-31T13:54:40.143Z</time>
      </trkpt>
      <trkpt lat="42.51847" lon="2.50908">
        <ele>1664.3</ele>
        <time>2020-08-31T13:54:42.374Z</time>
      </trkpt>
      <trkpt lat="42.5184" lon="2.50906">
        <ele>1664.1</ele>
        <time>2020-08-31T13:54:44.690Z</time>
      </trkpt>
      <trkpt lat="42.51832" lon="2.50907">
        <ele>1671</ele>
        <time>2020-08-31T13:55:24.789Z</time>
      </trkpt>
      <trkpt lat="42.51826" lon="2.50909">
        <ele>1672</ele>
        <time>2020-08-31T13:55:55.626Z</time>
      </trkpt>
      <trkpt lat="42.5182" lon="2.50911">
        <ele>1674.4</ele>
        <time>2020-08-31T13:56:26.464Z</time>
      </trkpt>
      <trkpt lat="42.51815" lon="2.50914">
        <ele>1677.2</ele>
        <time>2020-08-31T13:56:53.751Z</time>
      </trkpt>
      <trkpt lat="42.51809" lon="2.50917">
        <ele>1659.7</ele>
        <time>2020-08-31T13:56:55.348Z</time>
      </trkpt>
      <trkpt lat="42.51804" lon="2.50921">
        <ele>1659.8</ele>
        <time>2020-08-31T13:57:04.267Z</time>
      </trkpt>
      <trkpt lat="42.51797" lon="2.50924">
        <ele>1660.4</ele>
        <time>2020-08-31T13:57:25.237Z</time>
      </trkpt>
      <trkpt lat="42.5179" lon="2.50927">
        <ele>1661.3</ele>
        <time>2020-08-31T13:57:56.916Z</time>
      </trkpt>
      <trkpt lat="42.51785" lon="2.50929">
        <ele>1662.3</ele>
        <time>2020-08-31T13:58:22.934Z</time>
      </trkpt>
      <trkpt lat="42.51779" lon="2.5093">
        <ele>1663.4</ele>
        <time>2020-08-31T13:58:53.106Z</time>
      </trkpt>
      <trkpt lat="42.51771" lon="2.50932">
        <ele>1665.3</ele>
        <time>2020-08-31T13:59:33.707Z</time>
      </trkpt>
      <trkpt lat="42.51764" lon="2.50935">
        <ele>1666.7</ele>
        <time>2020-08-31T14:00:10.347Z</time>
      </trkpt>
      <trkpt lat="42.51755" lon="2.50937">
        <ele>1667.5</ele>
        <time>2020-08-31T14:00:37.756Z</time>
      </trkpt>
      <trkpt lat="42.51748" lon="2.50938">
        <ele>1683.7</ele>
        <time>2020-08-31T14:01:12.888Z</time>
      </trkpt>
      <trkpt lat="42.51741" lon="2.5094">
        <ele>1684.1</ele>
        <time>2020-08-31T14:01:29.726Z</time>
      </trkpt>
      <trkpt lat="42.51734" lon="2.50943">
        <ele>1684.8</ele>
        <time>2020-08-31T14:01:53.359Z</time>
      </trkpt>
      <trkpt lat="42.51728" lon="2.50946">
        <ele>1685.6</ele>
        <time>2020-08-31T14:02:21.847Z</time>
      </trkpt>
      <trkpt lat="42.51724" lon="2.50947">
        <ele>1686.2</ele>
        <time>2020-08-31T14:02:42.148Z</time>
      </trkpt>
      <trkpt lat="42.51722" lon="2.5095">
        <ele>1686.4</ele>
        <time>2020-08-31T14:02:49.744Z</time>
      </trkpt>
      <trkpt lat="42.51721" lon="2.50955">
        <ele>1685.9</ele>
        <time>2020-08-31T14:02:50.698Z</time>
      </trkpt>
      <trkpt lat="42.51722" lon="2.5096">
        <ele>1684.9</ele>
        <time>2020-08-31T14:02:51.652Z</time>
      </trkpt>
      <trkpt lat="42.51725" lon="2.50967">
        <ele>1683.1</ele>
        <time>2020-08-31T14:02:53.143Z</time>
      </trkpt>
      <trkpt lat="42.51728" lon="2.50972">
        <ele>1681</ele>
        <time>2020-08-31T14:02:54.330Z</time>
      </trkpt>
      <trkpt lat="42.51731" lon="2.50979">
        <ele>1678.2</ele>
        <time>2020-08-31T14:02:55.821Z</time>
      </trkpt>
      <trkpt lat="42.51734" lon="2.50988">
        <ele>1673.6</ele>
        <time>2020-08-31T14:02:57.639Z</time>
      </trkpt>
      <trkpt lat="42.51739" lon="2.50998">
        <ele>1667.2</ele>
        <time>2020-08-31T14:02:59.864Z</time>
      </trkpt>
      <trkpt lat="42.51741" lon="2.51005">
        <ele>1663.5</ele>
        <time>2020-08-31T14:03:01.246Z</time>
      </trkpt>
      <trkpt lat="42.51742" lon="2.51012">
        <ele>1665.4</ele>
        <time>2020-08-31T14:03:27.477Z</time>
      </trkpt>
      <trkpt lat="42.51743" lon="2.51019">
        <ele>1668</ele>
        <time>2020-08-31T14:03:53.709Z</time>
      </trkpt>
      <trkpt lat="42.51743" lon="2.51027">
        <ele>1670.2</ele>
        <time>2020-08-31T14:04:23.139Z</time>
      </trkpt>
      <trkpt lat="42.51741" lon="2.51037">
        <ele>1671.8</ele>
        <time>2020-08-31T14:05:01.258Z</time>
      </trkpt>
      <trkpt lat="42.51741" lon="2.51048">
        <ele>1671.9</ele>
        <time>2020-08-31T14:05:13.086Z</time>
      </trkpt>
      <trkpt lat="42.5174" lon="2.51057">
        <ele>1670.7</ele>
        <time>2020-08-31T14:05:14.761Z</time>
      </trkpt>
      <trkpt lat="42.5174" lon="2.51068">
        <ele>1667.6</ele>
        <time>2020-08-31T14:05:16.787Z</time>
      </trkpt>
      <trkpt lat="42.5174" lon="2.51084">
        <ele>1662.3</ele>
        <time>2020-08-31T14:05:19.733Z</time>
      </trkpt>
      <trkpt lat="42.5174" lon="2.51094">
        <ele>1664.7</ele>
        <time>2020-08-31T14:05:56.521Z</time>
      </trkpt>
      <trkpt lat="42.5174" lon="2.51106">
        <ele>1668.1</ele>
        <time>2020-08-31T14:06:40.667Z</time>
      </trkpt>
      <trkpt lat="42.5174" lon="2.51115">
        <ele>1669.5</ele>
        <time>2020-08-31T14:07:13.777Z</time>
      </trkpt>
      <trkpt lat="42.5174" lon="2.51137">
        <ele>1668.6</ele>
        <time>2020-08-31T14:07:17.831Z</time>
      </trkpt>
      <trkpt lat="42.51741" lon="2.51148">
        <ele>1665.8</ele>
        <time>2020-08-31T14:07:19.871Z</time>
      </trkpt>
      <trkpt lat="42.5174" lon="2.51158">
        <ele>1662.5</ele>
        <time>2020-08-31T14:07:21.729Z</time>
      </trkpt>
      <trkpt lat="42.5174" lon="2.51165">
        <ele>1661</ele>
        <time>2020-08-31T14:07:23.018Z</time>
      </trkpt>
      <trkpt lat="42.51737" lon="2.51172">
        <ele>1658.5</ele>
        <time>2020-08-31T14:07:24.509Z</time>
      </trkpt>
      <trkpt lat="42.51707" lon="2.51202">
        <ele>1666.7</ele>
        <time>2020-08-31T14:10:30.523Z</time>
      </trkpt>
      <trkpt lat="42.517" lon="2.51224">
        <ele>1666.6</ele>
        <time>2020-08-31T14:10:51.553Z</time>
      </trkpt>
      <trkpt lat="42.51695" lon="2.51256">
        <ele>1656.9</ele>
        <time>2020-08-31T14:10:57.576Z</time>
      </trkpt>
      <trkpt lat="42.51683" lon="2.51283">
        <ele>1654.9</ele>
        <time>2020-08-31T14:11:03.381Z</time>
      </trkpt>
      <trkpt lat="42.51671" lon="2.513">
        <ele>1653.3</ele>
        <time>2020-08-31T14:11:07.715Z</time>
      </trkpt>
      <trkpt lat="42.51655" lon="2.5131">
        <ele>1666</ele>
        <time>2020-08-31T14:12:35.640Z</time>
      </trkpt>
      <trkpt lat="42.51621" lon="2.51313">
        <ele>1668.9</ele>
        <time>2020-08-31T14:14:15.769Z</time>
      </trkpt>
      <trkpt lat="42.51575" lon="2.51306">
        <ele>1681.6</ele>
        <time>2020-08-31T14:18:06.802Z</time>
      </trkpt>
      <trkpt lat="42.51564" lon="2.5131">
        <ele>1682.6</ele>
        <time>2020-08-31T14:18:41.055Z</time>
      </trkpt>
      <trkpt lat="42.51541" lon="2.51337">
        <ele>1657.5</ele>
        <time>2020-08-31T14:18:48.653Z</time>
      </trkpt>
      <trkpt lat="42.51519" lon="2.51357">
        <ele>1659.2</ele>
        <time>2020-08-31T14:19:54.717Z</time>
      </trkpt>
      <trkpt lat="42.51497" lon="2.51363">
        <ele>1674</ele>
        <time>2020-08-31T14:21:46.719Z</time>
      </trkpt>
      <trkpt lat="42.51484" lon="2.51365">
        <ele>1674.3</ele>
        <time>2020-08-31T14:22:08.150Z</time>
      </trkpt>
      <trkpt lat="42.51474" lon="2.51372">
        <ele>1673.5</ele>
        <time>2020-08-31T14:22:10.961Z</time>
      </trkpt>
      <trkpt lat="42.51465" lon="2.51382">
        <ele>1672.2</ele>
        <time>2020-08-31T14:22:13.867Z</time>
      </trkpt>
      <trkpt lat="42.51446" lon="2.51409">
        <ele>1670.9</ele>
        <time>2020-08-31T14:22:21.251Z</time>
      </trkpt>
      <trkpt lat="42.51432" lon="2.51421">
        <ele>1661.4</ele>
        <time>2020-08-31T14:22:25.387Z</time>
      </trkpt>
      <trkpt lat="42.51417" lon="2.51433">
        <ele>1662.1</ele>
        <time>2020-08-31T14:23:01.053Z</time>
      </trkpt>
      <trkpt lat="42.51397" lon="2.51445">
        <ele>1686.2</ele>
        <time>2020-08-31T14:24:50.203Z</time>
      </trkpt>
      <trkpt lat="42.51382" lon="2.51461">
        <ele>1690.4</ele>
        <time>2020-08-31T14:26:25.441Z</time>
      </trkpt>
      <trkpt lat="42.5138" lon="2.51478">
        <ele>1690.7</ele>
        <time>2020-08-31T14:26:46.400Z</time>
      </trkpt>
      <trkpt lat="42.51387" lon="2.51495">
        <ele>1686.9</ele>
        <time>2020-08-31T14:26:49.985Z</time>
      </trkpt>
      <trkpt lat="42.51403" lon="2.51512">
        <ele>1684.3</ele>
        <time>2020-08-31T14:26:55.062Z</time>
      </trkpt>
      <trkpt lat="42.51412" lon="2.51521">
        <ele>1685.1</ele>
        <time>2020-08-31T14:27:24.520Z</time>
      </trkpt>
      <trkpt lat="42.51428" lon="2.51522">
        <ele>1658.8</ele>
        <time>2020-08-31T14:27:28.521Z</time>
      </trkpt>
      <trkpt lat="42.51441" lon="2.51524">
        <ele>1656.1</ele>
        <time>2020-08-31T14:27:31.789Z</time>
      </trkpt>
      <trkpt lat="42.5145" lon="2.51529">
        <ele>1654</ele>
        <time>2020-08-31T14:27:34.218Z</time>
      </trkpt>
      <trkpt lat="42.51458" lon="2.51543">
        <ele>1653</ele>
        <time>2020-08-31T14:27:37.480Z</time>
      </trkpt>
      <trkpt lat="42.51456" lon="2.51556">
        <ele>1654.4</ele>
        <time>2020-08-31T14:28:26.338Z</time>
      </trkpt>
      <trkpt lat="42.51454" lon="2.51573">
        <ele>1656.7</ele>
        <time>2020-08-31T14:29:29.672Z</time>
      </trkpt>
      <trkpt lat="42.51453" lon="2.51585">
        <ele>1667.4</ele>
        <time>2020-08-31T14:30:14.102Z</time>
      </trkpt>
      <trkpt lat="42.51456" lon="2.51591">
        <ele>1666.2</ele>
        <time>2020-08-31T14:30:15.437Z</time>
      </trkpt>
      <trkpt lat="42.51467" lon="2.51598">
        <ele>1662.6</ele>
        <time>2020-08-31T14:30:18.472Z</time>
      </trkpt>
      <trkpt lat="42.51473" lon="2.51604">
        <ele>1661</ele>
        <time>2020-08-31T14:30:20.334Z</time>
      </trkpt>
      <trkpt lat="42.51476" lon="2.51616">
        <ele>1662.4</ele>
        <time>2020-08-31T14:31:06.952Z</time>
      </trkpt>
      <trkpt lat="42.51477" lon="2.51631">
        <ele>1664.2</ele>
        <time>2020-08-31T14:32:02.362Z</time>
      </trkpt>
      <trkpt lat="42.51479" lon="2.51643">
        <ele>1664.1</ele>
        <time>2020-08-31T14:32:05.951Z</time>
      </trkpt>
      <trkpt lat="42.51486" lon="2.51653">
        <ele>1661.6</ele>
        <time>2020-08-31T14:32:08.490Z</time>
      </trkpt>
      <trkpt lat="42.51503" lon="2.5166">
        <ele>1645</ele>
        <time>2020-08-31T14:32:12.928Z</time>
      </trkpt>
      <trkpt lat="42.51536" lon="2.51704">
        <ele>1642.6</ele>
        <time>2020-08-31T14:32:24.854Z</time>
      </trkpt>
      <trkpt lat="42.51545" lon="2.51717">
        <ele>1641.6</ele>
        <time>2020-08-31T14:32:28.138Z</time>
      </trkpt>
      <trkpt lat="42.51555" lon="2.51734">
        <ele>1639.1</ele>
        <time>2020-08-31T14:32:32.142Z</time>
      </trkpt>
      <trkpt lat="42.5156" lon="2.51753">
        <ele>1642.4</ele>
        <time>2020-08-31T14:33:46.364Z</time>
      </trkpt>
      <trkpt lat="42.51563" lon="2.51774">
        <ele>1644.1</ele>
        <time>2020-08-31T14:34:43.797Z</time>
      </trkpt>
      <trkpt lat="42.51563" lon="2.51807">
        <ele>1643.5</ele>
        <time>2020-08-31T14:34:51.963Z</time>
      </trkpt>
      <trkpt lat="42.51561" lon="2.51862">
        <ele>1645.8</ele>
        <time>2020-08-31T14:36:27.996Z</time>
      </trkpt>
      <trkpt lat="42.51559" lon="2.51881">
        <ele>1647.4</ele>
        <time>2020-08-31T14:37:22.566Z</time>
      </trkpt>
      <trkpt lat="42.51561" lon="2.51903">
        <ele>1644.7</ele>
        <time>2020-08-31T14:37:26.648Z</time>
      </trkpt>
      <trkpt lat="42.51566" lon="2.51913">
        <ele>1639.9</ele>
        <time>2020-08-31T14:37:28.873Z</time>
      </trkpt>
      <trkpt lat="42.5158" lon="2.51929">
        <ele>1639.8</ele>
        <time>2020-08-31T14:37:50.730Z</time>
      </trkpt>
      <trkpt lat="42.516" lon="2.51952">
        <ele>1614.8</ele>
        <time>2020-08-31T14:37:57.280Z</time>
      </trkpt>
      <trkpt lat="42.51623" lon="2.51969">
        <ele>1610.7</ele>
        <time>2020-08-31T14:38:03.822Z</time>
      </trkpt>
      <trkpt lat="42.51653" lon="2.51996">
        <ele>1602.6</ele>
        <time>2020-08-31T14:38:12.815Z</time>
      </trkpt>
      <trkpt lat="42.51669" lon="2.52021">
        <ele>1590.3</ele>
        <time>2020-08-31T14:38:18.911Z</time>
      </trkpt>
      <trkpt lat="42.51685" lon="2.52055">
        <ele>1591</ele>
        <time>2020-08-31T14:39:07.964Z</time>
      </trkpt>
      <trkpt lat="42.51694" lon="2.52098">
        <ele>1594</ele>
        <time>2020-08-31T14:40:49.944Z</time>
      </trkpt>
      <trkpt lat="42.51701" lon="2.52142">
        <ele>1588.8</ele>
        <time>2020-08-31T14:40:58.232Z</time>
      </trkpt>
      <trkpt lat="42.51705" lon="2.52187">
        <ele>1581.5</ele>
        <time>2020-08-31T14:41:06.577Z</time>
      </trkpt>
      <trkpt lat="42.51706" lon="2.5224">
        <ele>1578.6</ele>
        <time>2020-08-31T14:41:16.339Z</time>
      </trkpt>
      <trkpt lat="42.51705" lon="2.52293">
        <ele>1571.7</ele>
        <time>2020-08-31T14:41:26.100Z</time>
      </trkpt>
      <trkpt lat="42.517" lon="2.52362">
        <ele>1563.2</ele>
        <time>2020-08-31T14:41:38.866Z</time>
      </trkpt>
      <trkpt lat="42.51692" lon="2.52491">
        <ele>1544.4</ele>
        <time>2020-08-31T14:42:02.701Z</time>
      </trkpt>
      <trkpt lat="42.51693" lon="2.52503">
        <ele>1530.1</ele>
        <time>2020-08-31T14:42:04.925Z</time>
      </trkpt>
      <trkpt lat="42.51696" lon="2.52503">
        <ele>1528.3</ele>
        <time>2020-08-31T14:42:05.674Z</time>
      </trkpt>
      <trkpt lat="42.51706" lon="2.52488">
        <ele>1539.3</ele>
        <time>2020-08-31T14:43:20.081Z</time>
      </trkpt>
      <trkpt lat="42.51718" lon="2.52464">
        <ele>1538.2</ele>
        <time>2020-08-31T14:43:25.610Z</time>
      </trkpt>
      <trkpt lat="42.51732" lon="2.52418">
        <ele>1535.7</ele>
        <time>2020-08-31T14:43:34.773Z</time>
      </trkpt>
      <trkpt lat="42.51746" lon="2.52369">
        <ele>1550.2</ele>
        <time>2020-08-31T14:46:48.105Z</time>
      </trkpt>
      <trkpt lat="42.51762" lon="2.52314">
        <ele>1527.1</ele>
        <time>2020-08-31T14:46:58.992Z</time>
      </trkpt>
      <trkpt lat="42.5178" lon="2.52267">
        <ele>1524.1</ele>
        <time>2020-08-31T14:47:08.744Z</time>
      </trkpt>
      <trkpt lat="42.51787" lon="2.52257">
        <ele>1521.8</ele>
        <time>2020-08-31T14:47:11.283Z</time>
      </trkpt>
      <trkpt lat="42.51791" lon="2.52257">
        <ele>1520.4</ele>
        <time>2020-08-31T14:47:12.283Z</time>
      </trkpt>
      <trkpt lat="42.51792" lon="2.52263">
        <ele>1519.4</ele>
        <time>2020-08-31T14:47:13.415Z</time>
      </trkpt>
      <trkpt lat="42.51797" lon="2.52306">
        <ele>1515.2</ele>
        <time>2020-08-31T14:47:21.430Z</time>
      </trkpt>
      <trkpt lat="42.51798" lon="2.52337">
        <ele>1505.7</ele>
        <time>2020-08-31T14:47:27.143Z</time>
      </trkpt>
      <trkpt lat="42.51797" lon="2.52384">
        <ele>1503.8</ele>
        <time>2020-08-31T14:47:35.856Z</time>
      </trkpt>
      <trkpt lat="42.518" lon="2.52411">
        <ele>1500</ele>
        <time>2020-08-31T14:47:40.884Z</time>
      </trkpt>
    </trkseg>
  </trk>
  <trk>
    <name><![CDATA[Pic et tour du Canigou _3]]></name>
    <extensions>
      <line xmlns="http://www.topografix.com/GPX/gpx_style/0/2">
        <color>00ff11</color>
        <opacity>1</opacity>
        <width>4</width>
      </line>
    </extensions>
    <trkseg>
      <trkpt lat="42.51806" lon="2.52448">
        <ele>1490.7</ele>
        <time>2020-09-01T05:00:00.000Z</time>
      </trkpt>
      <trkpt lat="42.51803" lon="2.52449">
        <ele>1491.6</ele>
        <time>2020-09-01T05:00:31.040Z</time>
      </trkpt>
      <trkpt lat="42.51803" lon="2.5246">
        <ele>1491</ele>
        <time>2020-09-01T05:00:33.944Z</time>
      </trkpt>
      <trkpt lat="42.51802" lon="2.52526">
        <ele>1483.5</ele>
        <time>2020-09-01T05:00:51.372Z</time>
      </trkpt>
      <trkpt lat="42.518" lon="2.52536">
        <ele>1483.9</ele>
        <time>2020-09-01T05:01:26.710Z</time>
      </trkpt>
      <trkpt lat="42.51799" lon="2.52546">
        <ele>1484</ele>
        <time>2020-09-01T05:01:48.808Z</time>
      </trkpt>
      <trkpt lat="42.51795" lon="2.52566">
        <ele>1483.8</ele>
        <time>2020-09-01T05:01:57.247Z</time>
      </trkpt>
      <trkpt lat="42.51793" lon="2.52575">
        <ele>1484</ele>
        <time>2020-09-01T05:02:21.783Z</time>
      </trkpt>
      <trkpt lat="42.5179" lon="2.52582">
        <ele>1484.3</ele>
        <time>2020-09-01T05:02:49.017Z</time>
      </trkpt>
      <trkpt lat="42.51787" lon="2.52588">
        <ele>1480.3</ele>
        <time>2020-09-01T05:02:50.931Z</time>
      </trkpt>
      <trkpt lat="42.51784" lon="2.52594">
        <ele>1480.6</ele>
        <time>2020-09-01T05:03:16.293Z</time>
      </trkpt>
      <trkpt lat="42.51784" lon="2.52594">
        <ele>1480.6</ele>
        <time>2020-09-01T05:03:16.293Z</time>
      </trkpt>
      <trkpt lat="42.51776" lon="2.52594">
        <ele>1481.7</ele>
        <time>2020-09-01T05:04:36.677Z</time>
      </trkpt>
      <trkpt lat="42.51768" lon="2.526">
        <ele>1482.3</ele>
        <time>2020-09-01T05:05:23.068Z</time>
      </trkpt>
      <trkpt lat="42.51754" lon="2.5261">
        <ele>1481.9</ele>
        <time>2020-09-01T05:05:30.632Z</time>
      </trkpt>
      <trkpt lat="42.51742" lon="2.52614">
        <ele>1488.8</ele>
        <time>2020-09-01T05:07:34.794Z</time>
      </trkpt>
      <trkpt lat="42.5173" lon="2.52616">
        <ele>1489.3</ele>
        <time>2020-09-01T05:08:25.496Z</time>
      </trkpt>
      <trkpt lat="42.51719" lon="2.52618">
        <ele>1490.2</ele>
        <time>2020-09-01T05:09:28.983Z</time>
      </trkpt>
      <trkpt lat="42.51708" lon="2.52624">
        <ele>1490.4</ele>
        <time>2020-09-01T05:10:05.512Z</time>
      </trkpt>
      <trkpt lat="42.51697" lon="2.52629">
        <ele>1490.6</ele>
        <time>2020-09-01T05:10:41.401Z</time>
      </trkpt>
      <trkpt lat="42.51685" lon="2.52634">
        <ele>1490.4</ele>
        <time>2020-09-01T05:10:48.093Z</time>
      </trkpt>
      <trkpt lat="42.51669" lon="2.52631">
        <ele>1491.7</ele>
        <time>2020-09-01T05:12:20.031Z</time>
      </trkpt>
      <trkpt lat="42.51649" lon="2.52635">
        <ele>1505.7</ele>
        <time>2020-09-01T05:15:43.162Z</time>
      </trkpt>
      <trkpt lat="42.51632" lon="2.52642">
        <ele>1507.1</ele>
        <time>2020-09-01T05:17:22.911Z</time>
      </trkpt>
      <trkpt lat="42.51622" lon="2.52651">
        <ele>1507.2</ele>
        <time>2020-09-01T05:17:56.756Z</time>
      </trkpt>
      <trkpt lat="42.51613" lon="2.52659">
        <ele>1507.1</ele>
        <time>2020-09-01T05:18:03.003Z</time>
      </trkpt>
      <trkpt lat="42.51603" lon="2.52662">
        <ele>1507.1</ele>
        <time>2020-09-01T05:18:29.683Z</time>
      </trkpt>
      <trkpt lat="42.51593" lon="2.52667">
        <ele>1492.2</ele>
        <time>2020-09-01T05:18:33.500Z</time>
      </trkpt>
      <trkpt lat="42.51584" lon="2.52671">
        <ele>1497.5</ele>
        <time>2020-09-01T05:20:08.661Z</time>
      </trkpt>
      <trkpt lat="42.51575" lon="2.5268">
        <ele>1499</ele>
        <time>2020-09-01T05:22:01.004Z</time>
      </trkpt>
      <trkpt lat="42.51567" lon="2.52684">
        <ele>1498</ele>
        <time>2020-09-01T05:22:04.058Z</time>
      </trkpt>
      <trkpt lat="42.51554" lon="2.52685">
        <ele>1498.8</ele>
        <time>2020-09-01T05:23:08.175Z</time>
      </trkpt>
      <trkpt lat="42.51539" lon="2.52694">
        <ele>1499.4</ele>
        <time>2020-09-01T05:24:12.433Z</time>
      </trkpt>
      <trkpt lat="42.5153" lon="2.527">
        <ele>1499.7</ele>
        <time>2020-09-01T05:24:48.417Z</time>
      </trkpt>
      <trkpt lat="42.51509" lon="2.52713">
        <ele>1499.4</ele>
        <time>2020-09-01T05:25:01.185Z</time>
      </trkpt>
      <trkpt lat="42.5149" lon="2.52724">
        <ele>1505.6</ele>
        <time>2020-09-01T05:28:28.754Z</time>
      </trkpt>
      <trkpt lat="42.51471" lon="2.5273">
        <ele>1505.3</ele>
        <time>2020-09-01T05:28:39.226Z</time>
      </trkpt>
      <trkpt lat="42.51459" lon="2.52737">
        <ele>1504.5</ele>
        <time>2020-09-01T05:28:43.696Z</time>
      </trkpt>
      <trkpt lat="42.51451" lon="2.52734">
        <ele>1504.5</ele>
        <time>2020-09-01T05:29:05.317Z</time>
      </trkpt>
      <trkpt lat="42.51448" lon="2.52727">
        <ele>1505.4</ele>
        <time>2020-09-01T05:30:05.289Z</time>
      </trkpt>
      <trkpt lat="42.51441" lon="2.52715">
        <ele>1507.6</ele>
        <time>2020-09-01T05:31:58.631Z</time>
      </trkpt>
      <trkpt lat="42.51432" lon="2.52694">
        <ele>1512.4</ele>
        <time>2020-09-01T05:34:58.545Z</time>
      </trkpt>
      <trkpt lat="42.51425" lon="2.52683">
        <ele>1516.2</ele>
        <time>2020-09-01T05:36:46.177Z</time>
      </trkpt>
      <trkpt lat="42.51414" lon="2.5266">
        <ele>1526</ele>
        <time>2020-09-01T05:40:09.242Z</time>
      </trkpt>
      <trkpt lat="42.51406" lon="2.52643">
        <ele>1530</ele>
        <time>2020-09-01T05:42:38.624Z</time>
        <extensions>
          <visugpx:TrkExtension xmlns:visugpx="https://www.visugpx.com/editgpx/">
            <visugpx:node>1</visugpx:node>
            </visugpx:TrkExtension>
        </extensions>
      </trkpt>
      <trkpt lat="42.51403" lon="2.52637">
        <ele>1531.3</ele>
        <time>2020-09-01T05:43:32.322Z</time>
      </trkpt>
      <trkpt lat="42.51392" lon="2.52617">
        <ele>1535.5</ele>
        <time>2020-09-01T05:46:37.143Z</time>
      </trkpt>
      <trkpt lat="42.51382" lon="2.52612">
        <ele>1535.1</ele>
        <time>2020-09-01T05:46:41.632Z</time>
      </trkpt>
      <trkpt lat="42.51364" lon="2.52609">
        <ele>1533.4</ele>
        <time>2020-09-01T05:46:48.127Z</time>
      </trkpt>
      <trkpt lat="42.51358" lon="2.52611">
        <ele>1532.8</ele>
        <time>2020-09-01T05:46:50.340Z</time>
      </trkpt>
      <trkpt lat="42.51351" lon="2.52608">
        <ele>1532.9</ele>
        <time>2020-09-01T05:47:12.190Z</time>
      </trkpt>
      <trkpt lat="42.51345" lon="2.52601">
        <ele>1534.4</ele>
        <time>2020-09-01T05:48:31.705Z</time>
      </trkpt>
      <trkpt lat="42.51341" lon="2.5259">
        <ele>1536.5</ele>
        <time>2020-09-01T05:50:02.552Z</time>
      </trkpt>
      <trkpt lat="42.51333" lon="2.52577">
        <ele>1543.3</ele>
        <time>2020-09-01T05:52:07.981Z</time>
      </trkpt>
      <trkpt lat="42.51321" lon="2.52568">
        <ele>1549</ele>
        <time>2020-09-01T05:54:25.756Z</time>
      </trkpt>
      <trkpt lat="42.51312" lon="2.52556">
        <ele>1553.6</ele>
        <time>2020-09-01T05:56:32.553Z</time>
      </trkpt>
      <trkpt lat="42.51303" lon="2.5255">
        <ele>1555.6</ele>
        <time>2020-09-01T05:58:13.315Z</time>
      </trkpt>
      <trkpt lat="42.51291" lon="2.52549">
        <ele>1555.9</ele>
        <time>2020-09-01T05:58:53.913Z</time>
      </trkpt>
      <trkpt lat="42.5128" lon="2.52548">
        <ele>1556</ele>
        <time>2020-09-01T05:59:25.235Z</time>
      </trkpt>
      <trkpt lat="42.51273" lon="2.52549">
        <ele>1555.6</ele>
        <time>2020-09-01T05:59:27.731Z</time>
      </trkpt>
      <trkpt lat="42.51269" lon="2.52544">
        <ele>1556.7</ele>
        <time>2020-09-01T06:00:22.383Z</time>
      </trkpt>
      <trkpt lat="42.51267" lon="2.52529">
        <ele>1561.5</ele>
        <time>2020-09-01T06:02:15.286Z</time>
      </trkpt>
      <trkpt lat="42.51263" lon="2.52523">
        <ele>1563.9</ele>
        <time>2020-09-01T06:03:15.205Z</time>
      </trkpt>
      <trkpt lat="42.51243" lon="2.52523">
        <ele>1564.9</ele>
        <time>2020-09-01T06:04:46.306Z</time>
      </trkpt>
      <trkpt lat="42.51238" lon="2.52515">
        <ele>1567.1</ele>
        <time>2020-09-01T06:06:03.992Z</time>
      </trkpt>
      <trkpt lat="42.51238" lon="2.525">
        <ele>1585.3</ele>
        <time>2020-09-01T06:07:55.092Z</time>
      </trkpt>
      <trkpt lat="42.51231" lon="2.52498">
        <ele>1588.1</ele>
        <time>2020-09-01T06:09:06.971Z</time>
      </trkpt>
      <trkpt lat="42.51221" lon="2.52493">
        <ele>1591</ele>
        <time>2020-09-01T06:10:54.058Z</time>
      </trkpt>
      <trkpt lat="42.51222" lon="2.52481">
        <ele>1593.2</ele>
        <time>2020-09-01T06:12:23.505Z</time>
      </trkpt>
      <trkpt lat="42.5121" lon="2.5248">
        <ele>1594.1</ele>
        <time>2020-09-01T06:13:28.924Z</time>
      </trkpt>
      <trkpt lat="42.512" lon="2.52481">
        <ele>1593.7</ele>
        <time>2020-09-01T06:13:33.052Z</time>
      </trkpt>
      <trkpt lat="42.51203" lon="2.52472">
        <ele>1595.6</ele>
        <time>2020-09-01T06:14:46.211Z</time>
      </trkpt>
      <trkpt lat="42.51206" lon="2.52463">
        <ele>1598</ele>
        <time>2020-09-01T06:15:59.371Z</time>
      </trkpt>
      <trkpt lat="42.51202" lon="2.52462">
        <ele>1598.1</ele>
        <time>2020-09-01T06:16:13.046Z</time>
      </trkpt>
      <trkpt lat="42.51198" lon="2.52467">
        <ele>1597</ele>
        <time>2020-09-01T06:16:14.994Z</time>
      </trkpt>
      <trkpt lat="42.51193" lon="2.52466">
        <ele>1597.1</ele>
        <time>2020-09-01T06:16:31.075Z</time>
      </trkpt>
      <trkpt lat="42.51184" lon="2.52463">
        <ele>1597.7</ele>
        <time>2020-09-01T06:17:17.803Z</time>
      </trkpt>
      <trkpt lat="42.51173" lon="2.52456">
        <ele>1600.2</ele>
        <time>2020-09-01T06:19:19.887Z</time>
      </trkpt>
      <trkpt lat="42.5117" lon="2.52451">
        <ele>1602</ele>
        <time>2020-09-01T06:20:07.638Z</time>
      </trkpt>
      <trkpt lat="42.51167" lon="2.52446">
        <ele>1603.7</ele>
        <time>2020-09-01T06:20:55.389Z</time>
      </trkpt>
      <trkpt lat="42.51165" lon="2.52445">
        <ele>1605.7</ele>
        <time>2020-09-01T06:21:16.807Z</time>
      </trkpt>
      <trkpt lat="42.51163" lon="2.52441">
        <ele>1606.8</ele>
        <time>2020-09-01T06:21:52.606Z</time>
      </trkpt>
      <trkpt lat="42.51162" lon="2.52437">
        <ele>1608.3</ele>
        <time>2020-09-01T06:22:23.891Z</time>
      </trkpt>
      <trkpt lat="42.5116" lon="2.52433">
        <ele>1609.7</ele>
        <time>2020-09-01T06:22:59.691Z</time>
      </trkpt>
      <trkpt lat="42.51158" lon="2.52429">
        <ele>1611</ele>
        <time>2020-09-01T06:23:35.490Z</time>
      </trkpt>
      <trkpt lat="42.51156" lon="2.52425">
        <ele>1611.7</ele>
        <time>2020-09-01T06:24:11.290Z</time>
      </trkpt>
      <trkpt lat="42.51154" lon="2.52422">
        <ele>1611.9</ele>
        <time>2020-09-01T06:24:26.583Z</time>
      </trkpt>
      <trkpt lat="42.51151" lon="2.5242">
        <ele>1611.2</ele>
        <time>2020-09-01T06:24:27.780Z</time>
      </trkpt>
      <trkpt lat="42.51147" lon="2.52418">
        <ele>1610.2</ele>
        <time>2020-09-01T06:24:29.307Z</time>
      </trkpt>
      <trkpt lat="42.51144" lon="2.52416">
        <ele>1628.3</ele>
        <time>2020-09-01T06:25:02.894Z</time>
      </trkpt>
      <trkpt lat="42.51141" lon="2.52413">
        <ele>1628.9</ele>
        <time>2020-09-01T06:25:40.343Z</time>
      </trkpt>
      <trkpt lat="42.51138" lon="2.52411">
        <ele>1629.3</ele>
        <time>2020-09-01T06:26:08.355Z</time>
      </trkpt>
      <trkpt lat="42.51135" lon="2.52408">
        <ele>1629.8</ele>
        <time>2020-09-01T06:26:45.804Z</time>
      </trkpt>
      <trkpt lat="42.51132" lon="2.52405">
        <ele>1630.2</ele>
        <time>2020-09-01T06:27:12.993Z</time>
      </trkpt>
      <trkpt lat="42.51129" lon="2.52403">
        <ele>1630.5</ele>
        <time>2020-09-01T06:27:33.581Z</time>
      </trkpt>
      <trkpt lat="42.51125" lon="2.52402">
        <ele>1630.4</ele>
        <time>2020-09-01T06:27:35.540Z</time>
      </trkpt>
      <trkpt lat="42.51122" lon="2.524">
        <ele>1630.3</ele>
        <time>2020-09-01T06:27:37.061Z</time>
      </trkpt>
      <trkpt lat="42.51118" lon="2.524">
        <ele>1629.9</ele>
        <time>2020-09-01T06:27:38.494Z</time>
      </trkpt>
      <trkpt lat="42.51111" lon="2.524">
        <ele>1628.6</ele>
        <time>2020-09-01T06:27:41.001Z</time>
      </trkpt>
      <trkpt lat="42.51107" lon="2.52401">
        <ele>1627.4</ele>
        <time>2020-09-01T06:27:42.458Z</time>
      </trkpt>
      <trkpt lat="42.51103" lon="2.52399">
        <ele>1626.9</ele>
        <time>2020-09-01T06:27:43.985Z</time>
      </trkpt>
      <trkpt lat="42.511" lon="2.52399">
        <ele>1626.1</ele>
        <time>2020-09-01T06:27:45.059Z</time>
      </trkpt>
      <trkpt lat="42.51095" lon="2.52398">
        <ele>1625.3</ele>
        <time>2020-09-01T06:27:46.869Z</time>
      </trkpt>
      <trkpt lat="42.51093" lon="2.52396">
        <ele>1625.7</ele>
        <time>2020-09-01T06:28:11.835Z</time>
      </trkpt>
      <trkpt lat="42.51091" lon="2.52394">
        <ele>1626.3</ele>
        <time>2020-09-01T06:28:36.801Z</time>
      </trkpt>
      <trkpt lat="42.51089" lon="2.52394">
        <ele>1626.3</ele>
        <time>2020-09-01T06:28:42.011Z</time>
      </trkpt>
      <trkpt lat="42.51086" lon="2.52394">
        <ele>1626</ele>
        <time>2020-09-01T06:28:43.086Z</time>
      </trkpt>
      <trkpt lat="42.51082" lon="2.52392">
        <ele>1630.1</ele>
        <time>2020-09-01T06:29:25.921Z</time>
      </trkpt>
      <trkpt lat="42.51078" lon="2.52388">
        <ele>1632.3</ele>
        <time>2020-09-01T06:30:15.853Z</time>
      </trkpt>
      <trkpt lat="42.51075" lon="2.52385">
        <ele>1634.3</ele>
        <time>2020-09-01T06:30:53.302Z</time>
      </trkpt>
      <trkpt lat="42.51071" lon="2.52382">
        <ele>1636</ele>
        <time>2020-09-01T06:31:39.227Z</time>
      </trkpt>
      <trkpt lat="42.51068" lon="2.52382">
        <ele>1636.5</ele>
        <time>2020-09-01T06:32:09.371Z</time>
      </trkpt>
      <trkpt lat="42.51065" lon="2.52383">
        <ele>1636.7</ele>
        <time>2020-09-01T06:32:24.947Z</time>
      </trkpt>
      <trkpt lat="42.51062" lon="2.52386">
        <ele>1636.1</ele>
        <time>2020-09-01T06:32:26.282Z</time>
      </trkpt>
      <trkpt lat="42.5106" lon="2.52389">
        <ele>1635.8</ele>
        <time>2020-09-01T06:32:27.350Z</time>
      </trkpt>
      <trkpt lat="42.51057" lon="2.52392">
        <ele>1635.5</ele>
        <time>2020-09-01T06:32:28.685Z</time>
      </trkpt>
      <trkpt lat="42.51054" lon="2.52396">
        <ele>1635.3</ele>
        <time>2020-09-01T06:32:30.299Z</time>
      </trkpt>
      <trkpt lat="42.51053" lon="2.52405">
        <ele>1633.7</ele>
        <time>2020-09-01T06:32:32.702Z</time>
      </trkpt>
      <trkpt lat="42.51054" lon="2.52409">
        <ele>1632.4</ele>
        <time>2020-09-01T06:32:33.818Z</time>
      </trkpt>
      <trkpt lat="42.5106" lon="2.52414">
        <ele>1629.1</ele>
        <time>2020-09-01T06:32:36.340Z</time>
      </trkpt>
      <trkpt lat="42.5107" lon="2.52419">
        <ele>1616.7</ele>
        <time>2020-09-01T06:32:40.157Z</time>
      </trkpt>
      <trkpt lat="42.51076" lon="2.52428">
        <ele>1616.5</ele>
        <time>2020-09-01T06:32:44.577Z</time>
      </trkpt>
      <trkpt lat="42.5108" lon="2.52441">
        <ele>1619.1</ele>
        <time>2020-09-01T06:34:28.918Z</time>
      </trkpt>
      <trkpt lat="42.51081" lon="2.52451">
        <ele>1620.2</ele>
        <time>2020-09-01T06:35:43.665Z</time>
      </trkpt>
      <trkpt lat="42.51081" lon="2.52459">
        <ele>1620.2</ele>
        <time>2020-09-01T06:35:59.027Z</time>
      </trkpt>
      <trkpt lat="42.51077" lon="2.52459">
        <ele>1620.7</ele>
        <time>2020-09-01T06:36:34.852Z</time>
      </trkpt>
      <trkpt lat="42.51072" lon="2.52453">
        <ele>1621.6</ele>
        <time>2020-09-01T06:37:41.928Z</time>
      </trkpt>
      <trkpt lat="42.51064" lon="2.52447">
        <ele>1623.1</ele>
        <time>2020-09-01T06:39:13.779Z</time>
      </trkpt>
      <trkpt lat="42.51062" lon="2.52442">
        <ele>1623.1</ele>
        <time>2020-09-01T06:39:24.703Z</time>
      </trkpt>
      <trkpt lat="42.51059" lon="2.5244">
        <ele>1624</ele>
        <time>2020-09-01T06:39:58.290Z</time>
      </trkpt>
      <trkpt lat="42.51057" lon="2.52442">
        <ele>1624.6</ele>
        <time>2020-09-01T06:40:23.256Z</time>
      </trkpt>
      <trkpt lat="42.51056" lon="2.52449">
        <ele>1625.1</ele>
        <time>2020-09-01T06:40:57.249Z</time>
      </trkpt>
      <trkpt lat="42.51056" lon="2.52457">
        <ele>1625.5</ele>
        <time>2020-09-01T06:41:27.664Z</time>
      </trkpt>
      <trkpt lat="42.51056" lon="2.52464">
        <ele>1625.3</ele>
        <time>2020-09-01T06:41:29.811Z</time>
      </trkpt>
      <trkpt lat="42.51055" lon="2.52472">
        <ele>1625.2</ele>
        <time>2020-09-01T06:41:32.970Z</time>
      </trkpt>
      <trkpt lat="42.51051" lon="2.52475">
        <ele>1626.6</ele>
        <time>2020-09-01T06:42:18.895Z</time>
      </trkpt>
      <trkpt lat="42.51049" lon="2.52473">
        <ele>1627.6</ele>
        <time>2020-09-01T06:42:43.861Z</time>
      </trkpt>
      <trkpt lat="42.51048" lon="2.5246">
        <ele>1628</ele>
        <time>2020-09-01T06:43:24.362Z</time>
      </trkpt>
      <trkpt lat="42.51046" lon="2.5245">
        <ele>1628.1</ele>
        <time>2020-09-01T06:43:46.971Z</time>
      </trkpt>
      <trkpt lat="42.51044" lon="2.52444">
        <ele>1628.5</ele>
        <time>2020-09-01T06:44:15.041Z</time>
      </trkpt>
      <trkpt lat="42.5104" lon="2.52443">
        <ele>1629.5</ele>
        <time>2020-09-01T06:44:55.910Z</time>
      </trkpt>
      <trkpt lat="42.5104" lon="2.52453">
        <ele>1630</ele>
        <time>2020-09-01T06:45:33.929Z</time>
      </trkpt>
      <trkpt lat="42.51041" lon="2.52466">
        <ele>1630.3</ele>
        <time>2020-09-01T06:46:09.043Z</time>
      </trkpt>
      <trkpt lat="42.5104" lon="2.52475">
        <ele>1631.2</ele>
        <time>2020-09-01T06:47:16.459Z</time>
      </trkpt>
      <trkpt lat="42.51036" lon="2.52486">
        <ele>1633.4</ele>
        <time>2020-09-01T06:48:47.309Z</time>
      </trkpt>
      <trkpt lat="42.51032" lon="2.52493">
        <ele>1636.2</ele>
        <time>2020-09-01T06:49:52.911Z</time>
      </trkpt>
      <trkpt lat="42.51025" lon="2.52507">
        <ele>1642.8</ele>
        <time>2020-09-01T06:51:58.212Z</time>
      </trkpt>
      <trkpt lat="42.51025" lon="2.52522">
        <ele>1640.9</ele>
        <time>2020-09-01T06:52:02.172Z</time>
      </trkpt>
      <trkpt lat="42.51024" lon="2.5253">
        <ele>1640.4</ele>
        <time>2020-09-01T06:52:04.315Z</time>
      </trkpt>
      <trkpt lat="42.51019" lon="2.52537">
        <ele>1641.8</ele>
        <time>2020-09-01T06:53:16.511Z</time>
      </trkpt>
      <trkpt lat="42.51013" lon="2.52555">
        <ele>1645.3</ele>
        <time>2020-09-01T06:55:42.834Z</time>
      </trkpt>
      <trkpt lat="42.51009" lon="2.52563">
        <ele>1649</ele>
        <time>2020-09-01T06:56:54.434Z</time>
      </trkpt>
      <trkpt lat="42.51008" lon="2.52572">
        <ele>1654.6</ele>
        <time>2020-09-01T06:58:01.850Z</time>
      </trkpt>
      <trkpt lat="42.51008" lon="2.52605">
        <ele>1649.5</ele>
        <time>2020-09-01T06:58:10.563Z</time>
      </trkpt>
      <trkpt lat="42.51003" lon="2.52632">
        <ele>1647.2</ele>
        <time>2020-09-01T06:58:17.914Z</time>
      </trkpt>
      <trkpt lat="42.50996" lon="2.52657">
        <ele>1680.6</ele>
        <time>2020-09-01T07:01:35.996Z</time>
      </trkpt>
      <trkpt lat="42.50993" lon="2.52675">
        <ele>1679.5</ele>
        <time>2020-09-01T07:01:40.869Z</time>
      </trkpt>
      <trkpt lat="42.50988" lon="2.52678">
        <ele>1684</ele>
        <time>2020-09-01T07:02:35.804Z</time>
      </trkpt>
      <trkpt lat="42.50984" lon="2.52703">
        <ele>1690.7</ele>
        <time>2020-09-01T07:05:45.290Z</time>
      </trkpt>
      <trkpt lat="42.50989" lon="2.52711">
        <ele>1689.6</ele>
        <time>2020-09-01T07:05:48.059Z</time>
      </trkpt>
      <trkpt lat="42.50992" lon="2.52723">
        <ele>1687.2</ele>
        <time>2020-09-01T07:05:51.405Z</time>
      </trkpt>
      <trkpt lat="42.50992" lon="2.52734">
        <ele>1683.2</ele>
        <time>2020-09-01T07:05:54.310Z</time>
      </trkpt>
      <trkpt lat="42.50992" lon="2.52748">
        <ele>1676.8</ele>
        <time>2020-09-01T07:05:58.006Z</time>
      </trkpt>
      <trkpt lat="42.50989" lon="2.5276">
        <ele>1675.5</ele>
        <time>2020-09-01T07:06:01.352Z</time>
      </trkpt>
      <trkpt lat="42.50987" lon="2.52771">
        <ele>1677.5</ele>
        <time>2020-09-01T07:07:25.270Z</time>
      </trkpt>
      <trkpt lat="42.50981" lon="2.52784">
        <ele>1678.9</ele>
        <time>2020-09-01T07:09:05.021Z</time>
      </trkpt>
      <trkpt lat="42.50971" lon="2.52793">
        <ele>1680.2</ele>
        <time>2020-09-01T07:10:33.498Z</time>
      </trkpt>
      <trkpt lat="42.50959" lon="2.52802">
        <ele>1682.2</ele>
        <time>2020-09-01T07:12:51.275Z</time>
      </trkpt>
      <trkpt lat="42.5094" lon="2.52808">
        <ele>1685.9</ele>
        <time>2020-09-01T07:16:07.292Z</time>
      </trkpt>
      <trkpt lat="42.50914" lon="2.52816">
        <ele>1706.5</ele>
        <time>2020-09-01T07:20:35.176Z</time>
      </trkpt>
      <trkpt lat="42.50896" lon="2.52821">
        <ele>1711.1</ele>
        <time>2020-09-01T07:23:39.792Z</time>
      </trkpt>
      <trkpt lat="42.50877" lon="2.52831">
        <ele>1717.4</ele>
        <time>2020-09-01T07:27:04.570Z</time>
      </trkpt>
      <trkpt lat="42.50866" lon="2.52835">
        <ele>1696.7</ele>
        <time>2020-09-01T07:27:08.649Z</time>
      </trkpt>
      <trkpt lat="42.50855" lon="2.52838">
        <ele>1702</ele>
        <time>2020-09-01T07:29:01.389Z</time>
      </trkpt>
      <trkpt lat="42.50845" lon="2.52843">
        <ele>1706.3</ele>
        <time>2020-09-01T07:30:48.477Z</time>
      </trkpt>
      <trkpt lat="42.50842" lon="2.52847">
        <ele>1705.4</ele>
        <time>2020-09-01T07:30:49.984Z</time>
      </trkpt>
      <trkpt lat="42.50836" lon="2.52856">
        <ele>1701</ele>
        <time>2020-09-01T07:30:53.188Z</time>
      </trkpt>
      <trkpt lat="42.50826" lon="2.52866">
        <ele>1718.7</ele>
        <time>2020-09-01T07:32:58.019Z</time>
      </trkpt>
      <trkpt lat="42.50803" lon="2.52886">
        <ele>1717.4</ele>
        <time>2020-09-01T07:33:08.499Z</time>
      </trkpt>
      <trkpt lat="42.50791" lon="2.52897">
        <ele>1718.9</ele>
        <time>2020-09-01T07:34:50.149Z</time>
      </trkpt>
      <trkpt lat="42.50781" lon="2.52903">
        <ele>1721.1</ele>
        <time>2020-09-01T07:36:40.019Z</time>
      </trkpt>
      <trkpt lat="42.50773" lon="2.52908">
        <ele>1722.8</ele>
        <time>2020-09-01T07:38:08.525Z</time>
      </trkpt>
      <trkpt lat="42.50765" lon="2.52923">
        <ele>1708.9</ele>
        <time>2020-09-01T07:38:13.413Z</time>
      </trkpt>
      <trkpt lat="42.50751" lon="2.52932">
        <ele>1709.5</ele>
        <time>2020-09-01T07:39:15.960Z</time>
      </trkpt>
      <trkpt lat="42.50733" lon="2.52941">
        <ele>1726.9</ele>
        <time>2020-09-01T07:42:28.719Z</time>
      </trkpt>
      <trkpt lat="42.50728" lon="2.52943">
        <ele>1727.4</ele>
        <time>2020-09-01T07:43:02.681Z</time>
      </trkpt>
      <trkpt lat="42.50723" lon="2.52944">
        <ele>1728.1</ele>
        <time>2020-09-01T07:43:53.464Z</time>
      </trkpt>
      <trkpt lat="42.50718" lon="2.52947">
        <ele>1728.7</ele>
        <time>2020-09-01T07:44:34.387Z</time>
      </trkpt>
      <trkpt lat="42.50711" lon="2.52952">
        <ele>1729.1</ele>
        <time>2020-09-01T07:45:10.556Z</time>
      </trkpt>
      <trkpt lat="42.50706" lon="2.52956">
        <ele>1729.6</ele>
        <time>2020-09-01T07:45:45.200Z</time>
      </trkpt>
      <trkpt lat="42.50701" lon="2.52961">
        <ele>1729.9</ele>
        <time>2020-09-01T07:46:13.182Z</time>
      </trkpt>
      <trkpt lat="42.50699" lon="2.52966">
        <ele>1729.3</ele>
        <time>2020-09-01T07:46:14.684Z</time>
      </trkpt>
      <trkpt lat="42.50695" lon="2.5297">
        <ele>1729.5</ele>
        <time>2020-09-01T07:46:35.189Z</time>
      </trkpt>
      <trkpt lat="42.50689" lon="2.52974">
        <ele>1730.1</ele>
        <time>2020-09-01T07:47:16.365Z</time>
      </trkpt>
      <trkpt lat="42.50686" lon="2.52978">
        <ele>1730.3</ele>
        <time>2020-09-01T07:47:35.222Z</time>
      </trkpt>
      <trkpt lat="42.50683" lon="2.52983">
        <ele>1730.5</ele>
        <time>2020-09-01T07:47:55.369Z</time>
      </trkpt>
      <trkpt lat="42.50679" lon="2.52991">
        <ele>1731</ele>
        <time>2020-09-01T07:48:32.770Z</time>
      </trkpt>
      <trkpt lat="42.50676" lon="2.52995">
        <ele>1731.7</ele>
        <time>2020-09-01T07:49:15.038Z</time>
      </trkpt>
      <trkpt lat="42.50674" lon="2.52999">
        <ele>1732.3</ele>
        <time>2020-09-01T07:49:50.839Z</time>
      </trkpt>
      <trkpt lat="42.5067" lon="2.53005">
        <ele>1726.1</ele>
        <time>2020-09-01T07:49:52.975Z</time>
      </trkpt>
      <trkpt lat="42.50667" lon="2.53008">
        <ele>1723.8</ele>
        <time>2020-09-01T07:49:54.310Z</time>
      </trkpt>
      <trkpt lat="42.50665" lon="2.53012">
        <ele>1736.6</ele>
        <time>2020-09-01T07:50:30.112Z</time>
      </trkpt>
      <trkpt lat="42.50665" lon="2.53015">
        <ele>1736.9</ele>
        <time>2020-09-01T07:50:52.334Z</time>
      </trkpt>
      <trkpt lat="42.50665" lon="2.53021">
        <ele>1737.1</ele>
        <time>2020-09-01T07:51:11.870Z</time>
      </trkpt>
      <trkpt lat="42.50665" lon="2.53029">
        <ele>1736.6</ele>
        <time>2020-09-01T07:51:13.982Z</time>
      </trkpt>
      <trkpt lat="42.50665" lon="2.53035">
        <ele>1735.8</ele>
        <time>2020-09-01T07:51:15.566Z</time>
      </trkpt>
      <trkpt lat="42.50663" lon="2.53041">
        <ele>1734.8</ele>
        <time>2020-09-01T07:51:17.305Z</time>
      </trkpt>
      <trkpt lat="42.50661" lon="2.53045">
        <ele>1734.2</ele>
        <time>2020-09-01T07:51:18.581Z</time>
      </trkpt>
      <trkpt lat="42.50657" lon="2.53047">
        <ele>1733.9</ele>
        <time>2020-09-01T07:51:20.108Z</time>
      </trkpt>
      <trkpt lat="42.50654" lon="2.53051">
        <ele>1733.6</ele>
        <time>2020-09-01T07:51:21.615Z</time>
      </trkpt>
      <trkpt lat="42.50649" lon="2.53053">
        <ele>1733.9</ele>
        <time>2020-09-01T07:51:46.596Z</time>
      </trkpt>
      <trkpt lat="42.50643" lon="2.53056">
        <ele>1734.9</ele>
        <time>2020-09-01T07:52:50.849Z</time>
      </trkpt>
      <trkpt lat="42.5064" lon="2.53058">
        <ele>1735.3</ele>
        <time>2020-09-01T07:53:18.861Z</time>
      </trkpt>
      <trkpt lat="42.50638" lon="2.53061">
        <ele>1735.2</ele>
        <time>2020-09-01T07:53:20.167Z</time>
      </trkpt>
      <trkpt lat="42.50637" lon="2.53066">
        <ele>1734.7</ele>
        <time>2020-09-01T07:53:21.535Z</time>
      </trkpt>
      <trkpt lat="42.50636" lon="2.5307">
        <ele>1734.6</ele>
        <time>2020-09-01T07:53:22.920Z</time>
      </trkpt>
      <trkpt lat="42.50634" lon="2.53075">
        <ele>1734.5</ele>
        <time>2020-09-01T07:53:24.957Z</time>
      </trkpt>
      <trkpt lat="42.50633" lon="2.5308">
        <ele>1734.6</ele>
        <time>2020-09-01T07:53:38.045Z</time>
      </trkpt>
      <trkpt lat="42.5063" lon="2.53083">
        <ele>1735.4</ele>
        <time>2020-09-01T07:54:15.495Z</time>
      </trkpt>
      <trkpt lat="42.50627" lon="2.53087">
        <ele>1726.5</ele>
        <time>2020-09-01T07:54:17.002Z</time>
      </trkpt>
      <trkpt lat="42.50625" lon="2.53089">
        <ele>1727.1</ele>
        <time>2020-09-01T07:54:41.968Z</time>
      </trkpt>
      <trkpt lat="42.50625" lon="2.53091">
        <ele>1727.1</ele>
        <time>2020-09-01T07:54:45.809Z</time>
      </trkpt>
      <trkpt lat="42.50625" lon="2.53095">
        <ele>1727</ele>
        <time>2020-09-01T07:54:47.096Z</time>
      </trkpt>
      <trkpt lat="42.50625" lon="2.53099">
        <ele>1726.9</ele>
        <time>2020-09-01T07:54:48.383Z</time>
      </trkpt>
      <trkpt lat="42.50624" lon="2.53104">
        <ele>1727.3</ele>
        <time>2020-09-01T07:55:15.507Z</time>
      </trkpt>
      <trkpt lat="42.50621" lon="2.53107">
        <ele>1728.1</ele>
        <time>2020-09-01T07:55:52.957Z</time>
      </trkpt>
      <trkpt lat="42.50616" lon="2.5311">
        <ele>1729.3</ele>
        <time>2020-09-01T07:56:47.892Z</time>
      </trkpt>
      <trkpt lat="42.50613" lon="2.53111">
        <ele>1730.3</ele>
        <time>2020-09-01T07:57:18.933Z</time>
      </trkpt>
      <trkpt lat="42.50612" lon="2.53112">
        <ele>1730.6</ele>
        <time>2020-09-01T07:57:31.416Z</time>
      </trkpt>
      <trkpt lat="42.50611" lon="2.53113">
        <ele>1730.6</ele>
        <time>2020-09-01T07:57:34.653Z</time>
      </trkpt>
      <trkpt lat="42.50611" lon="2.53116">
        <ele>1730.3</ele>
        <time>2020-09-01T07:57:35.445Z</time>
      </trkpt>
      <trkpt lat="42.50611" lon="2.53118">
        <ele>1730.1</ele>
        <time>2020-09-01T07:57:35.973Z</time>
      </trkpt>
      <trkpt lat="42.50611" lon="2.53123">
        <ele>1729.9</ele>
        <time>2020-09-01T07:57:37.308Z</time>
      </trkpt>
      <trkpt lat="42.50612" lon="2.53132">
        <ele>1729.5</ele>
        <time>2020-09-01T07:57:39.634Z</time>
      </trkpt>
      <trkpt lat="42.50615" lon="2.53172">
        <ele>1733.2</ele>
        <time>2020-09-01T08:02:04.519Z</time>
      </trkpt>
      <trkpt lat="42.50621" lon="2.53198">
        <ele>1732.1</ele>
        <time>2020-09-01T08:02:11.763Z</time>
      </trkpt>
      <trkpt lat="42.50629" lon="2.5322">
        <ele>1732</ele>
        <time>2020-09-01T08:02:55.193Z</time>
      </trkpt>
      <trkpt lat="42.50636" lon="2.53237">
        <ele>1730.6</ele>
        <time>2020-09-01T08:03:00.335Z</time>
      </trkpt>
      <trkpt lat="42.5065" lon="2.53252">
        <ele>1735.4</ele>
        <time>2020-09-01T08:05:59.595Z</time>
      </trkpt>
      <trkpt lat="42.50683" lon="2.53287">
        <ele>1713.6</ele>
        <time>2020-09-01T08:06:14.600Z</time>
      </trkpt>
      <trkpt lat="42.50695" lon="2.53299">
        <ele>1712.8</ele>
        <time>2020-09-01T08:06:20.026Z</time>
      </trkpt>
      <trkpt lat="42.50706" lon="2.53311">
        <ele>1711.6</ele>
        <time>2020-09-01T08:06:25.082Z</time>
      </trkpt>
      <trkpt lat="42.5071" lon="2.53321">
        <ele>1711.1</ele>
        <time>2020-09-01T08:06:27.990Z</time>
      </trkpt>
      <trkpt lat="42.50714" lon="2.53332">
        <ele>1710.5</ele>
        <time>2020-09-01T08:06:30.964Z</time>
      </trkpt>
      <trkpt lat="42.50715" lon="2.53345">
        <ele>1723.7</ele>
        <time>2020-09-01T08:08:07.782Z</time>
      </trkpt>
      <trkpt lat="42.50713" lon="2.53355">
        <ele>1725.5</ele>
        <time>2020-09-01T08:09:24.533Z</time>
      </trkpt>
      <trkpt lat="42.50715" lon="2.53362">
        <ele>1725.5</ele>
        <time>2020-09-01T08:09:38.950Z</time>
      </trkpt>
      <trkpt lat="42.5072" lon="2.53377">
        <ele>1725.8</ele>
        <time>2020-09-01T08:10:19.818Z</time>
      </trkpt>
      <trkpt lat="42.50724" lon="2.53391">
        <ele>1726</ele>
        <time>2020-09-01T08:10:54.371Z</time>
      </trkpt>
      <trkpt lat="42.50731" lon="2.53415">
        <ele>1723.3</ele>
        <time>2020-09-01T08:11:01.186Z</time>
      </trkpt>
      <trkpt lat="42.50736" lon="2.53433">
        <ele>1730.9</ele>
        <time>2020-09-01T08:13:23.669Z</time>
      </trkpt>
      <trkpt lat="42.50745" lon="2.53456">
        <ele>1735.4</ele>
        <time>2020-09-01T08:16:36.550Z</time>
      </trkpt>
      <trkpt lat="42.50761" lon="2.53498">
        <ele>1721.1</ele>
        <time>2020-09-01T08:16:49.033Z</time>
      </trkpt>
      <trkpt lat="42.5077" lon="2.53526">
        <ele>1721</ele>
        <time>2020-09-01T08:17:43.956Z</time>
      </trkpt>
      <trkpt lat="42.50779" lon="2.53571">
        <ele>1721.6</ele>
        <time>2020-09-01T08:19:30.539Z</time>
      </trkpt>
      <trkpt lat="42.50779" lon="2.53581">
        <ele>1722.1</ele>
        <time>2020-09-01T08:20:08.559Z</time>
      </trkpt>
      <trkpt lat="42.50773" lon="2.53621">
        <ele>1721.7</ele>
        <time>2020-09-01T08:20:25.142Z</time>
      </trkpt>
      <trkpt lat="42.5077" lon="2.53633">
        <ele>1722.1</ele>
        <time>2020-09-01T08:21:05.180Z</time>
      </trkpt>
      <trkpt lat="42.50764" lon="2.53645">
        <ele>1723.7</ele>
        <time>2020-09-01T08:22:52.584Z</time>
      </trkpt>
      <trkpt lat="42.50761" lon="2.5366">
        <ele>1726.9</ele>
        <time>2020-09-01T08:24:47.709Z</time>
      </trkpt>
      <trkpt lat="42.50754" lon="2.53689">
        <ele>1719.1</ele>
        <time>2020-09-01T08:24:55.766Z</time>
      </trkpt>
      <trkpt lat="42.50742" lon="2.5372">
        <ele>1735.4</ele>
        <time>2020-09-01T08:29:15.124Z</time>
      </trkpt>
      <trkpt lat="42.50735" lon="2.53735">
        <ele>1733</ele>
        <time>2020-09-01T08:29:19.812Z</time>
      </trkpt>
      <trkpt lat="42.50726" lon="2.53757">
        <ele>1727.5</ele>
        <time>2020-09-01T08:29:26.455Z</time>
      </trkpt>
      <trkpt lat="42.50723" lon="2.5377">
        <ele>1728.4</ele>
        <time>2020-09-01T08:30:28.237Z</time>
      </trkpt>
      <trkpt lat="42.5072" lon="2.53792">
        <ele>1728.1</ele>
        <time>2020-09-01T08:30:36.793Z</time>
      </trkpt>
      <trkpt lat="42.50717" lon="2.53806">
        <ele>1727.7</ele>
        <time>2020-09-01T08:30:41.333Z</time>
      </trkpt>
      <trkpt lat="42.50693" lon="2.53868">
        <ele>1724.3</ele>
        <time>2020-09-01T08:30:58.376Z</time>
      </trkpt>
      <trkpt lat="42.50684" lon="2.53885">
        <ele>1724</ele>
        <time>2020-09-01T08:31:06.261Z</time>
      </trkpt>
      <trkpt lat="42.50674" lon="2.53903">
        <ele>1724.5</ele>
        <time>2020-09-01T08:32:06.017Z</time>
      </trkpt>
      <trkpt lat="42.50665" lon="2.53926">
        <ele>1722.8</ele>
        <time>2020-09-01T08:32:12.892Z</time>
      </trkpt>
      <trkpt lat="42.50656" lon="2.53957">
        <ele>1718.6</ele>
        <time>2020-09-01T08:32:21.690Z</time>
      </trkpt>
      <trkpt lat="42.50653" lon="2.53964">
        <ele>1718.5</ele>
        <time>2020-09-01T08:32:24.840Z</time>
      </trkpt>
      <trkpt lat="42.50646" lon="2.53976">
        <ele>1718.4</ele>
        <time>2020-09-01T08:32:31.428Z</time>
      </trkpt>
      <trkpt lat="42.5064" lon="2.53997">
        <ele>1718.2</ele>
        <time>2020-09-01T08:32:40.725Z</time>
      </trkpt>
      <trkpt lat="42.50628" lon="2.54011">
        <ele>1719</ele>
        <time>2020-09-01T08:33:53.080Z</time>
      </trkpt>
      <trkpt lat="42.50623" lon="2.54019">
        <ele>1717.9</ele>
        <time>2020-09-01T08:33:55.849Z</time>
      </trkpt>
      <trkpt lat="42.50607" lon="2.54032">
        <ele>1715.7</ele>
        <time>2020-09-01T08:34:02.530Z</time>
      </trkpt>
      <trkpt lat="42.50601" lon="2.54036">
        <ele>1715.1</ele>
        <time>2020-09-01T08:34:04.924Z</time>
      </trkpt>
      <trkpt lat="42.50589" lon="2.54046">
        <ele>1714.4</ele>
        <time>2020-09-01T08:34:10.227Z</time>
      </trkpt>
      <trkpt lat="42.50574" lon="2.54057">
        <ele>1689.2</ele>
        <time>2020-09-01T08:34:16.335Z</time>
      </trkpt>
      <trkpt lat="42.50564" lon="2.5407">
        <ele>1689</ele>
        <time>2020-09-01T08:34:23.858Z</time>
      </trkpt>
      <trkpt lat="42.50559" lon="2.5408">
        <ele>1688.1</ele>
        <time>2020-09-01T08:34:27.049Z</time>
        <extensions>
          <visugpx:TrkExtension xmlns:visugpx="https://www.visugpx.com/editgpx/">
            <visugpx:node>2</visugpx:node>
            </visugpx:TrkExtension>
        </extensions>
      </trkpt>
      <trkpt lat="42.50558" lon="2.54084">
        <ele>1691</ele>
        <time>2020-09-01T08:34:58.336Z</time>
      </trkpt>
      <trkpt lat="42.50556" lon="2.54097">
        <ele>1689.6</ele>
        <time>2020-09-01T08:35:01.843Z</time>
      </trkpt>
      <trkpt lat="42.50552" lon="2.54104">
        <ele>1687.9</ele>
        <time>2020-09-01T08:35:04.181Z</time>
      </trkpt>
      <trkpt lat="42.50549" lon="2.54116">
        <ele>1686.8</ele>
        <time>2020-09-01T08:35:07.527Z</time>
      </trkpt>
      <trkpt lat="42.50541" lon="2.54127">
        <ele>1684.9</ele>
        <time>2020-09-01T08:35:11.607Z</time>
      </trkpt>
      <trkpt lat="42.50528" lon="2.54138">
        <ele>1681.3</ele>
        <time>2020-09-01T08:35:17.095Z</time>
      </trkpt>
      <trkpt lat="42.50525" lon="2.54141">
        <ele>1680.6</ele>
        <time>2020-09-01T08:35:18.430Z</time>
      </trkpt>
      <trkpt lat="42.50521" lon="2.54155">
        <ele>1678.6</ele>
        <time>2020-09-01T08:35:22.395Z</time>
      </trkpt>
      <trkpt lat="42.50515" lon="2.54167">
        <ele>1678.8</ele>
        <time>2020-09-01T08:35:56.001Z</time>
      </trkpt>
      <trkpt lat="42.50511" lon="2.54182">
        <ele>1680.5</ele>
        <time>2020-09-01T08:37:54.160Z</time>
      </trkpt>
      <trkpt lat="42.50508" lon="2.54189">
        <ele>1682.1</ele>
        <time>2020-09-01T08:38:54.138Z</time>
      </trkpt>
      <trkpt lat="42.50493" lon="2.54201">
        <ele>1657.5</ele>
        <time>2020-09-01T08:39:00.375Z</time>
      </trkpt>
      <trkpt lat="42.50485" lon="2.54209">
        <ele>1656.8</ele>
        <time>2020-09-01T08:39:03.935Z</time>
      </trkpt>
      <trkpt lat="42.5048" lon="2.54211">
        <ele>1656.1</ele>
        <time>2020-09-01T08:39:05.803Z</time>
      </trkpt>
      <trkpt lat="42.50472" lon="2.54213">
        <ele>1654.5</ele>
        <time>2020-09-01T08:39:08.716Z</time>
      </trkpt>
      <trkpt lat="42.5046" lon="2.54219">
        <ele>1652.1</ele>
        <time>2020-09-01T08:39:13.297Z</time>
      </trkpt>
      <trkpt lat="42.50452" lon="2.54225">
        <ele>1650.4</ele>
        <time>2020-09-01T08:39:16.572Z</time>
      </trkpt>
      <trkpt lat="42.50448" lon="2.5423">
        <ele>1649.6</ele>
        <time>2020-09-01T08:39:18.520Z</time>
      </trkpt>
      <trkpt lat="42.50443" lon="2.5424">
        <ele>1648.7</ele>
        <time>2020-09-01T08:39:21.710Z</time>
      </trkpt>
      <trkpt lat="42.50435" lon="2.54285">
        <ele>1658.4</ele>
        <time>2020-09-01T08:45:04.609Z</time>
      </trkpt>
      <trkpt lat="42.50425" lon="2.54302">
        <ele>1658</ele>
        <time>2020-09-01T08:45:12.303Z</time>
      </trkpt>
      <trkpt lat="42.50422" lon="2.54307">
        <ele>1657.6</ele>
        <time>2020-09-01T08:45:14.006Z</time>
      </trkpt>
      <trkpt lat="42.50421" lon="2.54314">
        <ele>1656.8</ele>
        <time>2020-09-01T08:45:15.889Z</time>
      </trkpt>
      <trkpt lat="42.5042" lon="2.54325">
        <ele>1654.6</ele>
        <time>2020-09-01T08:45:18.815Z</time>
      </trkpt>
      <trkpt lat="42.50414" lon="2.54336">
        <ele>1647.4</ele>
        <time>2020-09-01T08:45:22.429Z</time>
      </trkpt>
      <trkpt lat="42.50412" lon="2.54344">
        <ele>1641.9</ele>
        <time>2020-09-01T08:45:24.659Z</time>
      </trkpt>
      <trkpt lat="42.50409" lon="2.54363">
        <ele>1635.5</ele>
        <time>2020-09-01T08:45:29.790Z</time>
      </trkpt>
      <trkpt lat="42.50409" lon="2.54379">
        <ele>1634.5</ele>
        <time>2020-09-01T08:45:34.015Z</time>
      </trkpt>
      <trkpt lat="42.50411" lon="2.54395">
        <ele>1637</ele>
        <time>2020-09-01T08:47:34.230Z</time>
      </trkpt>
      <trkpt lat="42.50417" lon="2.54437">
        <ele>1653.8</ele>
        <time>2020-09-01T08:52:51.139Z</time>
      </trkpt>
      <trkpt lat="42.50422" lon="2.54472">
        <ele>1651.6</ele>
        <time>2020-09-01T08:53:00.553Z</time>
      </trkpt>
      <trkpt lat="42.50426" lon="2.54489">
        <ele>1647.5</ele>
        <time>2020-09-01T08:53:05.265Z</time>
      </trkpt>
      <trkpt lat="42.50429" lon="2.54507">
        <ele>1640.9</ele>
        <time>2020-09-01T08:53:10.138Z</time>
      </trkpt>
      <trkpt lat="42.50431" lon="2.54519">
        <ele>1641.5</ele>
        <time>2020-09-01T08:53:56.342Z</time>
      </trkpt>
      <trkpt lat="42.50434" lon="2.54528">
        <ele>1641.5</ele>
        <time>2020-09-01T08:54:15.312Z</time>
      </trkpt>
      <trkpt lat="42.50432" lon="2.54549">
        <ele>1638.4</ele>
        <time>2020-09-01T08:54:20.903Z</time>
      </trkpt>
      <trkpt lat="42.50433" lon="2.54567">
        <ele>1633.8</ele>
        <time>2020-09-01T08:54:25.670Z</time>
      </trkpt>
      <trkpt lat="42.50433" lon="2.5459">
        <ele>1623</ele>
        <time>2020-09-01T08:54:31.743Z</time>
      </trkpt>
      <trkpt lat="42.50434" lon="2.54614">
        <ele>1623.8</ele>
        <time>2020-09-01T08:55:49.976Z</time>
      </trkpt>
      <trkpt lat="42.50435" lon="2.54633">
        <ele>1622.1</ele>
        <time>2020-09-01T08:55:55.006Z</time>
      </trkpt>
      <trkpt lat="42.50435" lon="2.54686">
        <ele>1611.1</ele>
        <time>2020-09-01T08:56:09.001Z</time>
      </trkpt>
      <trkpt lat="42.50437" lon="2.54703">
        <ele>1611.7</ele>
        <time>2020-09-01T08:57:05.798Z</time>
      </trkpt>
      <trkpt lat="42.50438" lon="2.54722">
        <ele>1610.4</ele>
        <time>2020-09-01T08:57:10.828Z</time>
      </trkpt>
      <trkpt lat="42.50438" lon="2.54725">
        <ele>1610</ele>
        <time>2020-09-01T08:57:11.620Z</time>
      </trkpt>
      <trkpt lat="42.50438" lon="2.54728">
        <ele>1609.7</ele>
        <time>2020-09-01T08:57:12.412Z</time>
      </trkpt>
      <trkpt lat="42.50438" lon="2.5473">
        <ele>1609.3</ele>
        <time>2020-09-01T08:57:12.940Z</time>
      </trkpt>
      <trkpt lat="42.50439" lon="2.54733">
        <ele>1609</ele>
        <time>2020-09-01T08:57:13.810Z</time>
      </trkpt>
      <trkpt lat="42.50439" lon="2.54736">
        <ele>1608.7</ele>
        <time>2020-09-01T08:57:14.602Z</time>
      </trkpt>
      <trkpt lat="42.50439" lon="2.54739">
        <ele>1608.4</ele>
        <time>2020-09-01T08:57:15.394Z</time>
      </trkpt>
      <trkpt lat="42.50439" lon="2.54742">
        <ele>1608.2</ele>
        <time>2020-09-01T08:57:16.186Z</time>
      </trkpt>
      <trkpt lat="42.50439" lon="2.54745">
        <ele>1607.9</ele>
        <time>2020-09-01T08:57:16.978Z</time>
      </trkpt>
      <trkpt lat="42.50439" lon="2.54748">
        <ele>1607.7</ele>
        <time>2020-09-01T08:57:17.771Z</time>
      </trkpt>
      <trkpt lat="42.50439" lon="2.5475">
        <ele>1601.1</ele>
        <time>2020-09-01T08:57:18.299Z</time>
      </trkpt>
      <trkpt lat="42.50439" lon="2.54753">
        <ele>1601</ele>
        <time>2020-09-01T08:57:19.165Z</time>
      </trkpt>
      <trkpt lat="42.50439" lon="2.54756">
        <ele>1601</ele>
        <time>2020-09-01T08:57:24.927Z</time>
      </trkpt>
      <trkpt lat="42.50439" lon="2.54758">
        <ele>1601</ele>
        <time>2020-09-01T08:57:28.768Z</time>
      </trkpt>
      <trkpt lat="42.50439" lon="2.54761">
        <ele>1601</ele>
        <time>2020-09-01T08:57:34.529Z</time>
      </trkpt>
      <trkpt lat="42.5044" lon="2.54764">
        <ele>1601</ele>
        <time>2020-09-01T08:57:40.852Z</time>
      </trkpt>
      <trkpt lat="42.5044" lon="2.54767">
        <ele>1601</ele>
        <time>2020-09-01T08:57:46.614Z</time>
      </trkpt>
      <trkpt lat="42.5044" lon="2.5477">
        <ele>1601</ele>
        <time>2020-09-01T08:57:52.375Z</time>
      </trkpt>
      <trkpt lat="42.50441" lon="2.54773">
        <ele>1601</ele>
        <time>2020-09-01T08:57:58.698Z</time>
      </trkpt>
      <trkpt lat="42.50442" lon="2.54775">
        <ele>1601</ele>
        <time>2020-09-01T08:58:03.340Z</time>
      </trkpt>
      <trkpt lat="42.50443" lon="2.54778">
        <ele>1601</ele>
        <time>2020-09-01T08:58:09.663Z</time>
      </trkpt>
      <trkpt lat="42.50443" lon="2.54782">
        <ele>1600.8</ele>
        <time>2020-09-01T08:58:10.719Z</time>
      </trkpt>
      <trkpt lat="42.50442" lon="2.54785">
        <ele>1600.5</ele>
        <time>2020-09-01T08:58:11.588Z</time>
      </trkpt>
      <trkpt lat="42.50441" lon="2.54787">
        <ele>1600.2</ele>
        <time>2020-09-01T08:58:12.226Z</time>
      </trkpt>
      <trkpt lat="42.50441" lon="2.54791">
        <ele>1600</ele>
        <time>2020-09-01T08:58:13.283Z</time>
      </trkpt>
      <trkpt lat="42.50442" lon="2.54794">
        <ele>1599.7</ele>
        <time>2020-09-01T08:58:14.152Z</time>
      </trkpt>
      <trkpt lat="42.50441" lon="2.54797">
        <ele>1599.3</ele>
        <time>2020-09-01T08:58:15.021Z</time>
      </trkpt>
      <trkpt lat="42.50441" lon="2.548">
        <ele>1598.9</ele>
        <time>2020-09-01T08:58:15.814Z</time>
      </trkpt>
      <trkpt lat="42.5044" lon="2.54803">
        <ele>1598.4</ele>
        <time>2020-09-01T08:58:16.683Z</time>
      </trkpt>
      <trkpt lat="42.50439" lon="2.54806">
        <ele>1597.9</ele>
        <time>2020-09-01T08:58:17.552Z</time>
      </trkpt>
      <trkpt lat="42.50438" lon="2.54809">
        <ele>1597.4</ele>
        <time>2020-09-01T08:58:18.422Z</time>
      </trkpt>
      <trkpt lat="42.50437" lon="2.54812">
        <ele>1596.8</ele>
        <time>2020-09-01T08:58:19.291Z</time>
      </trkpt>
      <trkpt lat="42.50437" lon="2.54815">
        <ele>1596.3</ele>
        <time>2020-09-01T08:58:20.083Z</time>
      </trkpt>
      <trkpt lat="42.50437" lon="2.54818">
        <ele>1595.8</ele>
        <time>2020-09-01T08:58:20.876Z</time>
      </trkpt>
      <trkpt lat="42.50437" lon="2.54821">
        <ele>1595.4</ele>
        <time>2020-09-01T08:58:21.668Z</time>
      </trkpt>
      <trkpt lat="42.50437" lon="2.54825">
        <ele>1595</ele>
        <time>2020-09-01T08:58:22.724Z</time>
      </trkpt>
      <trkpt lat="42.50438" lon="2.54828">
        <ele>1594.8</ele>
        <time>2020-09-01T08:58:23.593Z</time>
      </trkpt>
      <trkpt lat="42.50438" lon="2.54832">
        <ele>1594.6</ele>
        <time>2020-09-01T08:58:24.650Z</time>
      </trkpt>
      <trkpt lat="42.50438" lon="2.54835">
        <ele>1585.1</ele>
        <time>2020-09-01T08:58:25.442Z</time>
      </trkpt>
      <trkpt lat="42.50438" lon="2.54838">
        <ele>1585</ele>
        <time>2020-09-01T08:58:26.308Z</time>
      </trkpt>
      <trkpt lat="42.50438" lon="2.54841">
        <ele>1584.9</ele>
        <time>2020-09-01T08:58:27.175Z</time>
      </trkpt>
      <trkpt lat="42.50438" lon="2.54844">
        <ele>1584.7</ele>
        <time>2020-09-01T08:58:27.967Z</time>
      </trkpt>
      <trkpt lat="42.50438" lon="2.54848">
        <ele>1584.4</ele>
        <time>2020-09-01T08:58:29.024Z</time>
      </trkpt>
      <trkpt lat="42.50437" lon="2.54851">
        <ele>1584.2</ele>
        <time>2020-09-01T08:58:29.893Z</time>
      </trkpt>
      <trkpt lat="42.50435" lon="2.54854">
        <ele>1583.8</ele>
        <time>2020-09-01T08:58:30.961Z</time>
      </trkpt>
      <trkpt lat="42.50435" lon="2.54856">
        <ele>1583.6</ele>
        <time>2020-09-01T08:58:31.489Z</time>
      </trkpt>
      <trkpt lat="42.50433" lon="2.54859">
        <ele>1583.2</ele>
        <time>2020-09-01T08:58:32.557Z</time>
      </trkpt>
      <trkpt lat="42.50432" lon="2.54862">
        <ele>1582.8</ele>
        <time>2020-09-01T08:58:33.427Z</time>
      </trkpt>
      <trkpt lat="42.50431" lon="2.54865">
        <ele>1582.4</ele>
        <time>2020-09-01T08:58:34.296Z</time>
      </trkpt>
      <trkpt lat="42.5043" lon="2.54868">
        <ele>1581.9</ele>
        <time>2020-09-01T08:58:35.165Z</time>
      </trkpt>
      <trkpt lat="42.50428" lon="2.5487">
        <ele>1581.4</ele>
        <time>2020-09-01T08:58:36.055Z</time>
      </trkpt>
      <trkpt lat="42.50427" lon="2.54873">
        <ele>1580.9</ele>
        <time>2020-09-01T08:58:36.925Z</time>
      </trkpt>
      <trkpt lat="42.50426" lon="2.54876">
        <ele>1580.3</ele>
        <time>2020-09-01T08:58:37.794Z</time>
      </trkpt>
      <trkpt lat="42.50425" lon="2.54879">
        <ele>1579.7</ele>
        <time>2020-09-01T08:58:38.664Z</time>
      </trkpt>
      <trkpt lat="42.50424" lon="2.54882">
        <ele>1579.1</ele>
        <time>2020-09-01T08:58:39.533Z</time>
      </trkpt>
      <trkpt lat="42.50423" lon="2.54885">
        <ele>1578.3</ele>
        <time>2020-09-01T08:58:40.402Z</time>
      </trkpt>
      <trkpt lat="42.50422" lon="2.54888">
        <ele>1577.5</ele>
        <time>2020-09-01T08:58:41.272Z</time>
      </trkpt>
      <trkpt lat="42.50421" lon="2.54891">
        <ele>1576.6</ele>
        <time>2020-09-01T08:58:42.141Z</time>
      </trkpt>
      <trkpt lat="42.5042" lon="2.54894">
        <ele>1575.7</ele>
        <time>2020-09-01T08:58:43.011Z</time>
      </trkpt>
      <trkpt lat="42.50419" lon="2.54897">
        <ele>1574.7</ele>
        <time>2020-09-01T08:58:43.880Z</time>
      </trkpt>
      <trkpt lat="42.50418" lon="2.549">
        <ele>1573.7</ele>
        <time>2020-09-01T08:58:44.749Z</time>
      </trkpt>
      <trkpt lat="42.50416" lon="2.54903">
        <ele>1564.1</ele>
        <time>2020-09-01T08:58:45.817Z</time>
      </trkpt>
      <trkpt lat="42.50415" lon="2.54906">
        <ele>1564.1</ele>
        <time>2020-09-01T08:58:52.141Z</time>
      </trkpt>
      <trkpt lat="42.50414" lon="2.54909">
        <ele>1564.2</ele>
        <time>2020-09-01T08:59:02.296Z</time>
      </trkpt>
      <trkpt lat="42.50413" lon="2.54912">
        <ele>1564.3</ele>
        <time>2020-09-01T08:59:12.451Z</time>
      </trkpt>
      <trkpt lat="42.50412" lon="2.54914">
        <ele>1564.4</ele>
        <time>2020-09-01T08:59:20.906Z</time>
      </trkpt>
      <trkpt lat="42.50412" lon="2.54917">
        <ele>1562</ele>
        <time>2020-09-01T08:59:21.698Z</time>
      </trkpt>
      <trkpt lat="42.50411" lon="2.5492">
        <ele>1561.2</ele>
        <time>2020-09-01T08:59:22.568Z</time>
      </trkpt>
      <trkpt lat="42.5041" lon="2.54922">
        <ele>1560.1</ele>
        <time>2020-09-01T08:59:23.206Z</time>
      </trkpt>
      <trkpt lat="42.5041" lon="2.54925">
        <ele>1559.2</ele>
        <time>2020-09-01T08:59:23.998Z</time>
      </trkpt>
      <trkpt lat="42.50409" lon="2.54928">
        <ele>1558.2</ele>
        <time>2020-09-01T08:59:24.868Z</time>
      </trkpt>
      <trkpt lat="42.50412" lon="2.5493">
        <ele>1557.9</ele>
        <time>2020-09-01T08:59:26.065Z</time>
      </trkpt>
      <trkpt lat="42.50414" lon="2.5493">
        <ele>1558.3</ele>
        <time>2020-09-01T08:59:46.161Z</time>
      </trkpt>
      <trkpt lat="42.50416" lon="2.54931">
        <ele>1558.2</ele>
        <time>2020-09-01T08:59:46.983Z</time>
      </trkpt>
      <trkpt lat="42.50419" lon="2.54932">
        <ele>1563.3</ele>
        <time>2020-09-01T09:00:18.024Z</time>
      </trkpt>
      <trkpt lat="42.50421" lon="2.54933">
        <ele>1563.1</ele>
        <time>2020-09-01T09:00:18.788Z</time>
      </trkpt>
      <trkpt lat="42.50424" lon="2.54935">
        <ele>1563</ele>
        <time>2020-09-01T09:00:20.308Z</time>
      </trkpt>
      <trkpt lat="42.50427" lon="2.54936">
        <ele>1562.9</ele>
        <time>2020-09-01T09:00:21.678Z</time>
      </trkpt>
      <trkpt lat="42.50429" lon="2.54937">
        <ele>1562.8</ele>
        <time>2020-09-01T09:00:22.500Z</time>
      </trkpt>
      <trkpt lat="42.50432" lon="2.54939">
        <ele>1562.7</ele>
        <time>2020-09-01T09:00:24.021Z</time>
      </trkpt>
      <trkpt lat="42.50434" lon="2.5494">
        <ele>1562.5</ele>
        <time>2020-09-01T09:00:24.784Z</time>
      </trkpt>
      <trkpt lat="42.50437" lon="2.54942">
        <ele>1562.4</ele>
        <time>2020-09-01T09:00:26.305Z</time>
      </trkpt>
      <trkpt lat="42.50439" lon="2.54943">
        <ele>1562.3</ele>
        <time>2020-09-01T09:00:27.127Z</time>
      </trkpt>
      <trkpt lat="42.50441" lon="2.54945">
        <ele>1562.2</ele>
        <time>2020-09-01T09:00:28.147Z</time>
      </trkpt>
      <trkpt lat="42.50444" lon="2.54947">
        <ele>1562.1</ele>
        <time>2020-09-01T09:00:29.667Z</time>
      </trkpt>
      <trkpt lat="42.50446" lon="2.54949">
        <ele>1562</ele>
        <time>2020-09-01T09:00:30.687Z</time>
      </trkpt>
      <trkpt lat="42.50448" lon="2.54951">
        <ele>1561.8</ele>
        <time>2020-09-01T09:00:31.577Z</time>
      </trkpt>
      <trkpt lat="42.5045" lon="2.54953">
        <ele>1561.7</ele>
        <time>2020-09-01T09:00:32.596Z</time>
      </trkpt>
      <trkpt lat="42.50452" lon="2.54955">
        <ele>1561.6</ele>
        <time>2020-09-01T09:00:33.616Z</time>
      </trkpt>
      <trkpt lat="42.50454" lon="2.54956">
        <ele>1561.6</ele>
        <time>2020-09-01T09:00:39.168Z</time>
      </trkpt>
      <trkpt lat="42.50457" lon="2.54956">
        <ele>1561.7</ele>
        <time>2020-09-01T09:00:50.418Z</time>
      </trkpt>
      <trkpt lat="42.50459" lon="2.54957">
        <ele>1561.7</ele>
        <time>2020-09-01T09:00:55.971Z</time>
      </trkpt>
      <trkpt lat="42.50461" lon="2.54958">
        <ele>1561.7</ele>
        <time>2020-09-01T09:01:01.524Z</time>
      </trkpt>
      <trkpt lat="42.50464" lon="2.54959">
        <ele>1561.7</ele>
        <time>2020-09-01T09:01:09.572Z</time>
      </trkpt>
      <trkpt lat="42.50466" lon="2.54959">
        <ele>1561.8</ele>
        <time>2020-09-01T09:01:18.682Z</time>
      </trkpt>
      <trkpt lat="42.50468" lon="2.5496">
        <ele>1561.7</ele>
        <time>2020-09-01T09:01:19.504Z</time>
      </trkpt>
      <trkpt lat="42.5047" lon="2.54962">
        <ele>1561.6</ele>
        <time>2020-09-01T09:01:20.524Z</time>
      </trkpt>
      <trkpt lat="42.50472" lon="2.54963">
        <ele>1561.4</ele>
        <time>2020-09-01T09:01:21.287Z</time>
      </trkpt>
      <trkpt lat="42.50474" lon="2.54965">
        <ele>1561.2</ele>
        <time>2020-09-01T09:01:22.177Z</time>
      </trkpt>
      <trkpt lat="42.50476" lon="2.54967">
        <ele>1560.9</ele>
        <time>2020-09-01T09:01:23.067Z</time>
      </trkpt>
      <trkpt lat="42.50473" lon="2.54968">
        <ele>1560.7</ele>
        <time>2020-09-01T09:01:24.096Z</time>
      </trkpt>
      <trkpt lat="42.50471" lon="2.54969">
        <ele>1560.5</ele>
        <time>2020-09-01T09:01:24.859Z</time>
      </trkpt>
      <trkpt lat="42.50469" lon="2.5497">
        <ele>1560.3</ele>
        <time>2020-09-01T09:01:25.623Z</time>
      </trkpt>
      <trkpt lat="42.50467" lon="2.54971">
        <ele>1560.2</ele>
        <time>2020-09-01T09:01:26.445Z</time>
      </trkpt>
      <trkpt lat="42.50463" lon="2.54973">
        <ele>1559.8</ele>
        <time>2020-09-01T09:01:27.972Z</time>
      </trkpt>
      <trkpt lat="42.50461" lon="2.54975">
        <ele>1559.5</ele>
        <time>2020-09-01T09:01:28.862Z</time>
      </trkpt>
      <trkpt lat="42.50459" lon="2.54977">
        <ele>1559.3</ele>
        <time>2020-09-01T09:01:29.752Z</time>
      </trkpt>
      <trkpt lat="42.50455" lon="2.54979">
        <ele>1558.9</ele>
        <time>2020-09-01T09:01:31.279Z</time>
      </trkpt>
      <trkpt lat="42.5045" lon="2.54981">
        <ele>1558.5</ele>
        <time>2020-09-01T09:01:33.147Z</time>
      </trkpt>
      <trkpt lat="42.50421" lon="2.54997">
        <ele>1552.3</ele>
        <time>2020-09-01T09:01:44.360Z</time>
      </trkpt>
      <trkpt lat="42.50405" lon="2.55004">
        <ele>1545.3</ele>
        <time>2020-09-01T09:01:50.382Z</time>
      </trkpt>
      <trkpt lat="42.50379" lon="2.5501">
        <ele>1540.2</ele>
        <time>2020-09-01T09:01:59.829Z</time>
      </trkpt>
      <trkpt lat="42.50373" lon="2.55013">
        <ele>1539.5</ele>
        <time>2020-09-01T09:02:02.119Z</time>
      </trkpt>
      <trkpt lat="42.50369" lon="2.55017">
        <ele>1539</ele>
        <time>2020-09-01T09:02:03.899Z</time>
      </trkpt>
      <trkpt lat="42.50364" lon="2.55021">
        <ele>1538.4</ele>
        <time>2020-09-01T09:02:05.978Z</time>
      </trkpt>
      <trkpt lat="42.5036" lon="2.55029">
        <ele>1537.9</ele>
        <time>2020-09-01T09:02:08.531Z</time>
      </trkpt>
      <trkpt lat="42.50358" lon="2.55032">
        <ele>1537.5</ele>
        <time>2020-09-01T09:02:09.599Z</time>
      </trkpt>
      <trkpt lat="42.50352" lon="2.55048">
        <ele>1536.1</ele>
        <time>2020-09-01T09:02:14.339Z</time>
      </trkpt>
      <trkpt lat="42.50348" lon="2.55053">
        <ele>1535.5</ele>
        <time>2020-09-01T09:02:16.287Z</time>
      </trkpt>
      <trkpt lat="42.50345" lon="2.55057">
        <ele>1534.9</ele>
        <time>2020-09-01T09:02:17.794Z</time>
      </trkpt>
      <trkpt lat="42.5033" lon="2.55077">
        <ele>1527.3</ele>
        <time>2020-09-01T09:02:25.328Z</time>
      </trkpt>
      <trkpt lat="42.5032" lon="2.55092">
        <ele>1522.3</ele>
        <time>2020-09-01T09:02:30.668Z</time>
      </trkpt>
      <trkpt lat="42.50309" lon="2.55104">
        <ele>1518.3</ele>
        <time>2020-09-01T09:02:35.724Z</time>
      </trkpt>
      <trkpt lat="42.50292" lon="2.5512">
        <ele>1515.1</ele>
        <time>2020-09-01T09:02:43.136Z</time>
      </trkpt>
      <trkpt lat="42.50288" lon="2.55122">
        <ele>1514.6</ele>
        <time>2020-09-01T09:02:44.663Z</time>
      </trkpt>
      <trkpt lat="42.50284" lon="2.55123">
        <ele>1514.2</ele>
        <time>2020-09-01T09:02:46.120Z</time>
      </trkpt>
      <trkpt lat="42.50281" lon="2.55123">
        <ele>1513.9</ele>
        <time>2020-09-01T09:02:47.194Z</time>
      </trkpt>
      <trkpt lat="42.50277" lon="2.55122">
        <ele>1513.6</ele>
        <time>2020-09-01T09:02:48.651Z</time>
      </trkpt>
      <trkpt lat="42.50275" lon="2.55121">
        <ele>1513.5</ele>
        <time>2020-09-01T09:02:49.474Z</time>
      </trkpt>
      <trkpt lat="42.50273" lon="2.55118">
        <ele>1513.4</ele>
        <time>2020-09-01T09:02:50.780Z</time>
      </trkpt>
      <trkpt lat="42.50271" lon="2.55116">
        <ele>1513.3</ele>
        <time>2020-09-01T09:02:51.800Z</time>
      </trkpt>
      <trkpt lat="42.5027" lon="2.55111">
        <ele>1513.3</ele>
        <time>2020-09-01T09:03:01.750Z</time>
      </trkpt>
      <trkpt lat="42.50269" lon="2.55107">
        <ele>1513.4</ele>
        <time>2020-09-01T09:03:13.242Z</time>
      </trkpt>
      <trkpt lat="42.50266" lon="2.55084">
        <ele>1512.8</ele>
        <time>2020-09-01T09:03:20.689Z</time>
      </trkpt>
      <trkpt lat="42.5026" lon="2.55036">
        <ele>1517.9</ele>
        <time>2020-09-01T09:09:21.340Z</time>
      </trkpt>
      <trkpt lat="42.50256" lon="2.55016">
        <ele>1515.6</ele>
        <time>2020-09-01T09:09:26.812Z</time>
      </trkpt>
      <trkpt lat="42.50255" lon="2.55005">
        <ele>1513.1</ele>
        <time>2020-09-01T09:09:29.739Z</time>
      </trkpt>
      <trkpt lat="42.50256" lon="2.54992">
        <ele>1514.5</ele>
        <time>2020-09-01T09:11:06.564Z</time>
      </trkpt>
      <trkpt lat="42.50259" lon="2.54971">
        <ele>1518.7</ele>
        <time>2020-09-01T09:13:45.023Z</time>
      </trkpt>
      <trkpt lat="42.5026" lon="2.54955">
        <ele>1519.1</ele>
        <time>2020-09-01T09:14:29.684Z</time>
      </trkpt>
      <trkpt lat="42.50259" lon="2.5494">
        <ele>1517.6</ele>
        <time>2020-09-01T09:14:33.662Z</time>
      </trkpt>
      <trkpt lat="42.50257" lon="2.54923">
        <ele>1512.8</ele>
        <time>2020-09-01T09:14:38.208Z</time>
      </trkpt>
      <trkpt lat="42.50255" lon="2.54909">
        <ele>1513.5</ele>
        <time>2020-09-01T09:15:31.934Z</time>
      </trkpt>
      <trkpt lat="42.50251" lon="2.54888">
        <ele>1519.8</ele>
        <time>2020-09-01T09:18:12.607Z</time>
      </trkpt>
      <trkpt lat="42.50247" lon="2.54868">
        <ele>1495.8</ele>
        <time>2020-09-01T09:18:18.079Z</time>
      </trkpt>
      <trkpt lat="42.50246" lon="2.54851">
        <ele>1499.7</ele>
        <time>2020-09-01T09:20:24.413Z</time>
      </trkpt>
      <trkpt lat="42.50246" lon="2.54839">
        <ele>1506.2</ele>
        <time>2020-09-01T09:21:53.308Z</time>
      </trkpt>
      <trkpt lat="42.50246" lon="2.54834">
        <ele>1507.9</ele>
        <time>2020-09-01T09:22:30.347Z</time>
      </trkpt>
      <trkpt lat="42.50245" lon="2.54832">
        <ele>1507.7</ele>
        <time>2020-09-01T09:22:30.985Z</time>
      </trkpt>
      <trkpt lat="42.50244" lon="2.5483">
        <ele>1506.5</ele>
        <time>2020-09-01T09:22:31.623Z</time>
      </trkpt>
      <trkpt lat="42.50242" lon="2.54829">
        <ele>1505.6</ele>
        <time>2020-09-01T09:22:32.387Z</time>
      </trkpt>
      <trkpt lat="42.50241" lon="2.54829">
        <ele>1504.9</ele>
        <time>2020-09-01T09:22:32.745Z</time>
      </trkpt>
      <trkpt lat="42.5024" lon="2.54829">
        <ele>1504.3</ele>
        <time>2020-09-01T09:22:33.103Z</time>
      </trkpt>
      <trkpt lat="42.50239" lon="2.54831">
        <ele>1503.8</ele>
        <time>2020-09-01T09:22:33.741Z</time>
      </trkpt>
      <trkpt lat="42.50238" lon="2.54833">
        <ele>1503.5</ele>
        <time>2020-09-01T09:22:34.379Z</time>
      </trkpt>
      <trkpt lat="42.50238" lon="2.54836">
        <ele>1501.9</ele>
        <time>2020-09-01T09:22:35.172Z</time>
      </trkpt>
      <trkpt lat="42.50238" lon="2.54843">
        <ele>1500.1</ele>
        <time>2020-09-01T09:22:37.020Z</time>
      </trkpt>
      <trkpt lat="42.50238" lon="2.54888">
        <ele>1494.2</ele>
        <time>2020-09-01T09:22:48.903Z</time>
      </trkpt>
      <trkpt lat="42.50237" lon="2.54912">
        <ele>1498.2</ele>
        <time>2020-09-01T09:25:46.976Z</time>
      </trkpt>
      <trkpt lat="42.50236" lon="2.54928">
        <ele>1496.1</ele>
        <time>2020-09-01T09:25:51.216Z</time>
      </trkpt>
      <trkpt lat="42.50235" lon="2.54936">
        <ele>1494.2</ele>
        <time>2020-09-01T09:25:53.359Z</time>
      </trkpt>
      <trkpt lat="42.50232" lon="2.54935">
        <ele>1493.8</ele>
        <time>2020-09-01T09:25:54.466Z</time>
      </trkpt>
      <trkpt lat="42.50231" lon="2.54933">
        <ele>1493.4</ele>
        <time>2020-09-01T09:25:55.104Z</time>
      </trkpt>
      <trkpt lat="42.50229" lon="2.5493">
        <ele>1493.3</ele>
        <time>2020-09-01T09:25:56.410Z</time>
      </trkpt>
      <trkpt lat="42.50228" lon="2.54928">
        <ele>1493.2</ele>
        <time>2020-09-01T09:25:57.046Z</time>
      </trkpt>
      <trkpt lat="42.50227" lon="2.54925">
        <ele>1493</ele>
        <time>2020-09-01T09:25:57.915Z</time>
      </trkpt>
      <trkpt lat="42.50225" lon="2.54923">
        <ele>1492.4</ele>
        <time>2020-09-01T09:25:58.805Z</time>
      </trkpt>
      <trkpt lat="42.50224" lon="2.54921">
        <ele>1492</ele>
        <time>2020-09-01T09:25:59.443Z</time>
      </trkpt>
      <trkpt lat="42.50222" lon="2.54917">
        <ele>1491.2</ele>
        <time>2020-09-01T09:26:00.720Z</time>
      </trkpt>
      <trkpt lat="42.50219" lon="2.54915">
        <ele>1490.4</ele>
        <time>2020-09-01T09:26:01.917Z</time>
      </trkpt>
      <trkpt lat="42.50217" lon="2.54915">
        <ele>1489.5</ele>
        <time>2020-09-01T09:26:02.633Z</time>
      </trkpt>
      <trkpt lat="42.50215" lon="2.54915">
        <ele>1488.7</ele>
        <time>2020-09-01T09:26:03.350Z</time>
      </trkpt>
      <trkpt lat="42.50213" lon="2.54915">
        <ele>1488</ele>
        <time>2020-09-01T09:26:04.066Z</time>
      </trkpt>
      <trkpt lat="42.50211" lon="2.54915">
        <ele>1487</ele>
        <time>2020-09-01T09:26:04.782Z</time>
      </trkpt>
      <trkpt lat="42.5021" lon="2.54914">
        <ele>1486.4</ele>
        <time>2020-09-01T09:26:05.227Z</time>
      </trkpt>
      <trkpt lat="42.50209" lon="2.54912">
        <ele>1486.3</ele>
        <time>2020-09-01T09:26:05.863Z</time>
      </trkpt>
      <trkpt lat="42.50208" lon="2.54911">
        <ele>1485.6</ele>
        <time>2020-09-01T09:26:06.308Z</time>
      </trkpt>
      <trkpt lat="42.50206" lon="2.54911">
        <ele>1485.1</ele>
        <time>2020-09-01T09:26:07.024Z</time>
      </trkpt>
      <trkpt lat="42.50206" lon="2.54907">
        <ele>1484.9</ele>
        <time>2020-09-01T09:26:08.080Z</time>
      </trkpt>
      <trkpt lat="42.50204" lon="2.54898">
        <ele>1484.6</ele>
        <time>2020-09-01T09:26:10.844Z</time>
      </trkpt>
      <trkpt lat="42.50197" lon="2.54865">
        <ele>1483.7</ele>
        <time>2020-09-01T09:26:21.715Z</time>
      </trkpt>
      <trkpt lat="42.50192" lon="2.54836">
        <ele>1480.8</ele>
        <time>2020-09-01T09:26:29.580Z</time>
      </trkpt>
      <trkpt lat="42.5019" lon="2.54813">
        <ele>1484.1</ele>
        <time>2020-09-01T09:29:21.143Z</time>
      </trkpt>
      <trkpt lat="42.50188" lon="2.54789">
        <ele>1485.8</ele>
        <time>2020-09-01T09:31:16.673Z</time>
      </trkpt>
      <trkpt lat="42.50187" lon="2.54766">
        <ele>1484.3</ele>
        <time>2020-09-01T09:31:22.757Z</time>
      </trkpt>
      <trkpt lat="42.50186" lon="2.54752">
        <ele>1482.6</ele>
        <time>2020-09-01T09:31:26.471Z</time>
      </trkpt>
      <trkpt lat="42.50185" lon="2.54745">
        <ele>1485.2</ele>
        <time>2020-09-01T09:32:19.291Z</time>
      </trkpt>
      <trkpt lat="42.50184" lon="2.54741">
        <ele>1485.3</ele>
        <time>2020-09-01T09:32:30.784Z</time>
      </trkpt>
      <trkpt lat="42.50183" lon="2.54739">
        <ele>1485.3</ele>
        <time>2020-09-01T09:32:35.425Z</time>
      </trkpt>
      <trkpt lat="42.50182" lon="2.54738">
        <ele>1485.2</ele>
        <time>2020-09-01T09:32:35.870Z</time>
      </trkpt>
      <trkpt lat="42.5018" lon="2.54737">
        <ele>1484.9</ele>
        <time>2020-09-01T09:32:36.634Z</time>
      </trkpt>
      <trkpt lat="42.50178" lon="2.54736">
        <ele>1484.4</ele>
        <time>2020-09-01T09:32:37.397Z</time>
      </trkpt>
      <trkpt lat="42.50176" lon="2.54737">
        <ele>1483.4</ele>
        <time>2020-09-01T09:32:38.161Z</time>
      </trkpt>
      <trkpt lat="42.50172" lon="2.5472">
        <ele>1487.6</ele>
        <time>2020-09-01T09:34:50.354Z</time>
      </trkpt>
      <trkpt lat="42.50169" lon="2.54709">
        <ele>1488.6</ele>
        <time>2020-09-01T09:35:59.471Z</time>
      </trkpt>
      <trkpt lat="42.50167" lon="2.54704">
        <ele>1488.7</ele>
        <time>2020-09-01T09:36:13.449Z</time>
      </trkpt>
      <trkpt lat="42.50169" lon="2.54701">
        <ele>1488.9</ele>
        <time>2020-09-01T09:36:28.742Z</time>
      </trkpt>
      <trkpt lat="42.5017" lon="2.54698">
        <ele>1488.9</ele>
        <time>2020-09-01T09:36:35.066Z</time>
      </trkpt>
      <trkpt lat="42.50169" lon="2.54695">
        <ele>1488.7</ele>
        <time>2020-09-01T09:36:35.935Z</time>
      </trkpt>
      <trkpt lat="42.50169" lon="2.54692">
        <ele>1488.2</ele>
        <time>2020-09-01T09:36:36.727Z</time>
      </trkpt>
      <trkpt lat="42.50168" lon="2.54687">
        <ele>1487.4</ele>
        <time>2020-09-01T09:36:38.095Z</time>
      </trkpt>
      <trkpt lat="42.50166" lon="2.54684">
        <ele>1466.7</ele>
        <time>2020-09-01T09:36:39.163Z</time>
      </trkpt>
      <trkpt lat="42.50164" lon="2.54682">
        <ele>1467.6</ele>
        <time>2020-09-01T09:37:04.131Z</time>
      </trkpt>
      <trkpt lat="42.50163" lon="2.54678">
        <ele>1469.1</ele>
        <time>2020-09-01T09:37:35.420Z</time>
      </trkpt>
      <trkpt lat="42.50161" lon="2.54674">
        <ele>1470.8</ele>
        <time>2020-09-01T09:38:11.223Z</time>
      </trkpt>
      <trkpt lat="42.5016" lon="2.5467">
        <ele>1472</ele>
        <time>2020-09-01T09:38:42.512Z</time>
      </trkpt>
      <trkpt lat="42.50159" lon="2.54666">
        <ele>1475.3</ele>
        <time>2020-09-01T09:39:13.802Z</time>
      </trkpt>
      <trkpt lat="42.50159" lon="2.54661">
        <ele>1474.5</ele>
        <time>2020-09-01T09:39:15.122Z</time>
      </trkpt>
      <trkpt lat="42.50158" lon="2.54657">
        <ele>1473.7</ele>
        <time>2020-09-01T09:39:16.237Z</time>
      </trkpt>
      <trkpt lat="42.50158" lon="2.54653">
        <ele>1472.8</ele>
        <time>2020-09-01T09:39:17.294Z</time>
      </trkpt>
      <trkpt lat="42.50157" lon="2.54649">
        <ele>1472.2</ele>
        <time>2020-09-01T09:39:18.409Z</time>
      </trkpt>
      <trkpt lat="42.50156" lon="2.54644">
        <ele>1471.7</ele>
        <time>2020-09-01T09:39:19.777Z</time>
      </trkpt>
      <trkpt lat="42.50156" lon="2.54641">
        <ele>1471.5</ele>
        <time>2020-09-01T09:39:20.569Z</time>
      </trkpt>
      <trkpt lat="42.50154" lon="2.54637">
        <ele>1471.3</ele>
        <time>2020-09-01T09:39:21.840Z</time>
      </trkpt>
      <trkpt lat="42.50153" lon="2.54632">
        <ele>1471.3</ele>
        <time>2020-09-01T09:39:31.790Z</time>
      </trkpt>
      <trkpt lat="42.50152" lon="2.54628">
        <ele>1471.5</ele>
        <time>2020-09-01T09:39:47.432Z</time>
      </trkpt>
      <trkpt lat="42.50152" lon="2.54624">
        <ele>1471.9</ele>
        <time>2020-09-01T09:40:17.064Z</time>
      </trkpt>
      <trkpt lat="42.50151" lon="2.54621">
        <ele>1472.3</ele>
        <time>2020-09-01T09:40:41.454Z</time>
      </trkpt>
      <trkpt lat="42.50149" lon="2.54618">
        <ele>1472.5</ele>
        <time>2020-09-01T09:40:56.748Z</time>
      </trkpt>
      <trkpt lat="42.50148" lon="2.54614">
        <ele>1473</ele>
        <time>2020-09-01T09:41:28.037Z</time>
      </trkpt>
      <trkpt lat="42.50148" lon="2.5461">
        <ele>1473.9</ele>
        <time>2020-09-01T09:41:57.669Z</time>
      </trkpt>
      <trkpt lat="42.50147" lon="2.54607">
        <ele>1474.3</ele>
        <time>2020-09-01T09:42:22.059Z</time>
      </trkpt>
      <trkpt lat="42.50146" lon="2.54603">
        <ele>1475</ele>
        <time>2020-09-01T09:42:53.348Z</time>
      </trkpt>
      <trkpt lat="42.50145" lon="2.546">
        <ele>1475.2</ele>
        <time>2020-09-01T09:43:07.384Z</time>
      </trkpt>
      <trkpt lat="42.50142" lon="2.54597">
        <ele>1474.9</ele>
        <time>2020-09-01T09:43:08.719Z</time>
      </trkpt>
      <trkpt lat="42.5014" lon="2.54594">
        <ele>1474.5</ele>
        <time>2020-09-01T09:43:09.787Z</time>
      </trkpt>
      <trkpt lat="42.50138" lon="2.54592">
        <ele>1473.6</ele>
        <time>2020-09-01T09:43:10.677Z</time>
      </trkpt>
      <trkpt lat="42.50135" lon="2.54589">
        <ele>1472.8</ele>
        <time>2020-09-01T09:43:12.012Z</time>
      </trkpt>
      <trkpt lat="42.50133" lon="2.54585">
        <ele>1472.1</ele>
        <time>2020-09-01T09:43:13.288Z</time>
      </trkpt>
      <trkpt lat="42.5013" lon="2.54582">
        <ele>1481.8</ele>
        <time>2020-09-01T09:43:50.739Z</time>
      </trkpt>
      <trkpt lat="42.50128" lon="2.54579">
        <ele>1481.1</ele>
        <time>2020-09-01T09:43:51.807Z</time>
      </trkpt>
      <trkpt lat="42.50126" lon="2.54576">
        <ele>1480.4</ele>
        <time>2020-09-01T09:43:52.875Z</time>
      </trkpt>
      <trkpt lat="42.50124" lon="2.54572">
        <ele>1480</ele>
        <time>2020-09-01T09:43:54.151Z</time>
      </trkpt>
      <trkpt lat="42.50124" lon="2.54568">
        <ele>1480.1</ele>
        <time>2020-09-01T09:44:05.295Z</time>
      </trkpt>
      <trkpt lat="42.50123" lon="2.54565">
        <ele>1480.2</ele>
        <time>2020-09-01T09:44:15.451Z</time>
      </trkpt>
      <trkpt lat="42.50122" lon="2.54562">
        <ele>1480.1</ele>
        <time>2020-09-01T09:44:16.438Z</time>
      </trkpt>
      <trkpt lat="42.5012" lon="2.54559">
        <ele>1479.8</ele>
        <time>2020-09-01T09:44:17.506Z</time>
      </trkpt>
      <trkpt lat="42.50118" lon="2.54556">
        <ele>1479.6</ele>
        <time>2020-09-01T09:44:18.574Z</time>
      </trkpt>
      <trkpt lat="42.50116" lon="2.54553">
        <ele>1479.4</ele>
        <time>2020-09-01T09:44:19.642Z</time>
      </trkpt>
      <trkpt lat="42.50114" lon="2.5455">
        <ele>1479.2</ele>
        <time>2020-09-01T09:44:20.710Z</time>
      </trkpt>
      <trkpt lat="42.50112" lon="2.54547">
        <ele>1479.2</ele>
        <time>2020-09-01T09:44:28.478Z</time>
      </trkpt>
      <trkpt lat="42.50112" lon="2.54544">
        <ele>1479.4</ele>
        <time>2020-09-01T09:44:42.183Z</time>
      </trkpt>
      <trkpt lat="42.50111" lon="2.54541">
        <ele>1479.3</ele>
        <time>2020-09-01T09:44:43.170Z</time>
      </trkpt>
      <trkpt lat="42.50109" lon="2.54538">
        <ele>1479.3</ele>
        <time>2020-09-01T09:44:50.938Z</time>
      </trkpt>
      <trkpt lat="42.50108" lon="2.54534">
        <ele>1479.5</ele>
        <time>2020-09-01T09:45:06.580Z</time>
      </trkpt>
      <trkpt lat="42.50107" lon="2.54531">
        <ele>1479.4</ele>
        <time>2020-09-01T09:45:07.567Z</time>
      </trkpt>
      <trkpt lat="42.50106" lon="2.54527">
        <ele>1479.2</ele>
        <time>2020-09-01T09:45:08.609Z</time>
      </trkpt>
      <trkpt lat="42.50105" lon="2.54524">
        <ele>1479</ele>
        <time>2020-09-01T09:45:09.478Z</time>
      </trkpt>
      <trkpt lat="42.50104" lon="2.5452">
        <ele>1478.8</ele>
        <time>2020-09-01T09:45:10.519Z</time>
      </trkpt>
      <trkpt lat="42.50103" lon="2.54517">
        <ele>1478.3</ele>
        <time>2020-09-01T09:45:11.388Z</time>
      </trkpt>
      <trkpt lat="42.50101" lon="2.54513">
        <ele>1477.7</ele>
        <time>2020-09-01T09:45:12.665Z</time>
      </trkpt>
      <trkpt lat="42.501" lon="2.54509">
        <ele>1477.1</ele>
        <time>2020-09-01T09:45:13.780Z</time>
      </trkpt>
      <trkpt lat="42.50099" lon="2.54506">
        <ele>1476.3</ele>
        <time>2020-09-01T09:45:14.650Z</time>
      </trkpt>
      <trkpt lat="42.50098" lon="2.54502">
        <ele>1475.9</ele>
        <time>2020-09-01T09:45:15.765Z</time>
      </trkpt>
      <trkpt lat="42.50097" lon="2.54498">
        <ele>1481.6</ele>
        <time>2020-09-01T09:45:47.054Z</time>
      </trkpt>
      <trkpt lat="42.50095" lon="2.54495">
        <ele>1481.1</ele>
        <time>2020-09-01T09:45:48.122Z</time>
      </trkpt>
      <trkpt lat="42.50093" lon="2.54492">
        <ele>1480.7</ele>
        <time>2020-09-01T09:45:49.191Z</time>
      </trkpt>
      <trkpt lat="42.50092" lon="2.54488">
        <ele>1481.9</ele>
        <time>2020-09-01T09:46:20.480Z</time>
      </trkpt>
      <trkpt lat="42.5009" lon="2.54485">
        <ele>1483</ele>
        <time>2020-09-01T09:46:50.443Z</time>
      </trkpt>
      <trkpt lat="42.50089" lon="2.54481">
        <ele>1484.3</ele>
        <time>2020-09-01T09:47:21.732Z</time>
      </trkpt>
      <trkpt lat="42.50088" lon="2.54478">
        <ele>1485.5</ele>
        <time>2020-09-01T09:47:46.122Z</time>
      </trkpt>
      <trkpt lat="42.50087" lon="2.54474">
        <ele>1486.7</ele>
        <time>2020-09-01T09:48:17.412Z</time>
      </trkpt>
      <trkpt lat="42.50087" lon="2.5447">
        <ele>1487.8</ele>
        <time>2020-09-01T09:48:47.044Z</time>
      </trkpt>
      <trkpt lat="42.50086" lon="2.54467">
        <ele>1488.5</ele>
        <time>2020-09-01T09:49:11.434Z</time>
      </trkpt>
      <trkpt lat="42.50084" lon="2.54464">
        <ele>1488.9</ele>
        <time>2020-09-01T09:49:41.397Z</time>
      </trkpt>
      <trkpt lat="42.50082" lon="2.54462">
        <ele>1463.8</ele>
        <time>2020-09-01T09:49:42.287Z</time>
      </trkpt>
      <trkpt lat="42.5008" lon="2.54458">
        <ele>1464</ele>
        <time>2020-09-01T09:49:59.197Z</time>
      </trkpt>
      <trkpt lat="42.50078" lon="2.54455">
        <ele>1464.3</ele>
        <time>2020-09-01T09:50:19.517Z</time>
      </trkpt>
      <trkpt lat="42.50076" lon="2.54451">
        <ele>1464.8</ele>
        <time>2020-09-01T09:50:55.321Z</time>
      </trkpt>
      <trkpt lat="42.50074" lon="2.54449">
        <ele>1464.9</ele>
        <time>2020-09-01T09:51:05.574Z</time>
      </trkpt>
      <trkpt lat="42.50072" lon="2.54445">
        <ele>1465.4</ele>
        <time>2020-09-01T09:51:41.378Z</time>
      </trkpt>
      <trkpt lat="42.50071" lon="2.54442">
        <ele>1465.9</ele>
        <time>2020-09-01T09:52:05.768Z</time>
      </trkpt>
      <trkpt lat="42.50069" lon="2.54438">
        <ele>1466.6</ele>
        <time>2020-09-01T09:52:41.572Z</time>
      </trkpt>
      <trkpt lat="42.50066" lon="2.54435">
        <ele>1466.6</ele>
        <time>2020-09-01T09:52:51.281Z</time>
      </trkpt>
      <trkpt lat="42.50064" lon="2.54434">
        <ele>1466.2</ele>
        <time>2020-09-01T09:52:52.045Z</time>
      </trkpt>
      <trkpt lat="42.50062" lon="2.54429">
        <ele>1466.6</ele>
        <time>2020-09-01T09:53:19.231Z</time>
      </trkpt>
      <trkpt lat="42.50061" lon="2.54426">
        <ele>1466.6</ele>
        <time>2020-09-01T09:53:25.554Z</time>
      </trkpt>
      <trkpt lat="42.5006" lon="2.54425">
        <ele>1466.4</ele>
        <time>2020-09-01T09:53:25.999Z</time>
        <extensions>
          <visugpx:TrkExtension xmlns:visugpx="https://www.visugpx.com/editgpx/">
            <visugpx:node>3</visugpx:node>
            </visugpx:TrkExtension>
        </extensions>
      </trkpt>
      <trkpt lat="42.50059" lon="2.54423">
        <ele>1466.2</ele>
        <time>2020-09-01T09:53:26.638Z</time>
      </trkpt>
      <trkpt lat="42.50057" lon="2.5442">
        <ele>1465.7</ele>
        <time>2020-09-01T09:53:27.706Z</time>
      </trkpt>
      <trkpt lat="42.50056" lon="2.54418">
        <ele>1465.4</ele>
        <time>2020-09-01T09:53:28.344Z</time>
      </trkpt>
      <trkpt lat="42.50055" lon="2.54414">
        <ele>1470</ele>
        <time>2020-09-01T09:53:59.633Z</time>
      </trkpt>
      <trkpt lat="42.50054" lon="2.54413">
        <ele>1469.7</ele>
        <time>2020-09-01T09:54:00.078Z</time>
      </trkpt>
      <trkpt lat="42.50053" lon="2.54409">
        <ele>1469.1</ele>
        <time>2020-09-01T09:54:01.194Z</time>
      </trkpt>
      <trkpt lat="42.50052" lon="2.54405">
        <ele>1468.6</ele>
        <time>2020-09-01T09:54:02.309Z</time>
      </trkpt>
      <trkpt lat="42.5005" lon="2.54401">
        <ele>1467.9</ele>
        <time>2020-09-01T09:54:03.585Z</time>
      </trkpt>
      <trkpt lat="42.50049" lon="2.54397">
        <ele>1467.5</ele>
        <time>2020-09-01T09:54:04.701Z</time>
      </trkpt>
      <trkpt lat="42.50047" lon="2.54393">
        <ele>1467.1</ele>
        <time>2020-09-01T09:54:05.977Z</time>
      </trkpt>
      <trkpt lat="42.50046" lon="2.54389">
        <ele>1466.8</ele>
        <time>2020-09-01T09:54:07.093Z</time>
      </trkpt>
      <trkpt lat="42.50046" lon="2.54385">
        <ele>1466.7</ele>
        <time>2020-09-01T09:54:08.380Z</time>
      </trkpt>
      <trkpt lat="42.50045" lon="2.54381">
        <ele>1466.5</ele>
        <time>2020-09-01T09:54:09.421Z</time>
      </trkpt>
      <trkpt lat="42.50044" lon="2.54378">
        <ele>1466.3</ele>
        <time>2020-09-01T09:54:10.290Z</time>
      </trkpt>
      <trkpt lat="42.50042" lon="2.54374">
        <ele>1466.1</ele>
        <time>2020-09-01T09:54:11.561Z</time>
      </trkpt>
      <trkpt lat="42.50041" lon="2.54371">
        <ele>1465.9</ele>
        <time>2020-09-01T09:54:12.431Z</time>
      </trkpt>
      <trkpt lat="42.5004" lon="2.54367">
        <ele>1465.7</ele>
        <time>2020-09-01T09:54:13.472Z</time>
      </trkpt>
      <trkpt lat="42.50039" lon="2.54364">
        <ele>1465.7</ele>
        <time>2020-09-01T09:54:19.795Z</time>
      </trkpt>
      <trkpt lat="42.5004" lon="2.5436">
        <ele>1465.7</ele>
        <time>2020-09-01T09:54:27.907Z</time>
      </trkpt>
      <trkpt lat="42.5004" lon="2.54357">
        <ele>1465.7</ele>
        <time>2020-09-01T09:54:33.669Z</time>
      </trkpt>
      <trkpt lat="42.5004" lon="2.54354">
        <ele>1465.8</ele>
        <time>2020-09-01T09:54:43.438Z</time>
      </trkpt>
      <trkpt lat="42.5004" lon="2.5435">
        <ele>1465.7</ele>
        <time>2020-09-01T09:54:44.725Z</time>
      </trkpt>
      <trkpt lat="42.50039" lon="2.54347">
        <ele>1465.5</ele>
        <time>2020-09-01T09:54:45.594Z</time>
      </trkpt>
      <trkpt lat="42.50038" lon="2.54345">
        <ele>1465.2</ele>
        <time>2020-09-01T09:54:46.232Z</time>
      </trkpt>
      <trkpt lat="42.50036" lon="2.54343">
        <ele>1464.7</ele>
        <time>2020-09-01T09:54:47.122Z</time>
      </trkpt>
      <trkpt lat="42.50033" lon="2.54342">
        <ele>1463.9</ele>
        <time>2020-09-01T09:54:48.229Z</time>
      </trkpt>
      <trkpt lat="42.5003" lon="2.54343">
        <ele>1463.2</ele>
        <time>2020-09-01T09:54:49.336Z</time>
      </trkpt>
      <trkpt lat="42.50028" lon="2.54345">
        <ele>1462.7</ele>
        <time>2020-09-01T09:54:50.226Z</time>
      </trkpt>
      <trkpt lat="42.50027" lon="2.54348">
        <ele>1462.4</ele>
        <time>2020-09-01T09:54:51.095Z</time>
      </trkpt>
      <trkpt lat="42.50025" lon="2.54351">
        <ele>1462.2</ele>
        <time>2020-09-01T09:54:52.163Z</time>
      </trkpt>
      <trkpt lat="42.50024" lon="2.54353">
        <ele>1462.1</ele>
        <time>2020-09-01T09:54:52.798Z</time>
      </trkpt>
      <trkpt lat="42.50022" lon="2.54356">
        <ele>1461.9</ele>
        <time>2020-09-01T09:54:53.867Z</time>
      </trkpt>
      <trkpt lat="42.50021" lon="2.54359">
        <ele>1461.6</ele>
        <time>2020-09-01T09:54:54.736Z</time>
      </trkpt>
      <trkpt lat="42.50018" lon="2.5436">
        <ele>1461.3</ele>
        <time>2020-09-01T09:54:55.843Z</time>
      </trkpt>
      <trkpt lat="42.50016" lon="2.54361">
        <ele>1461</ele>
        <time>2020-09-01T09:54:56.606Z</time>
      </trkpt>
      <trkpt lat="42.50014" lon="2.54364">
        <ele>1460.8</ele>
        <time>2020-09-01T09:54:57.674Z</time>
      </trkpt>
      <trkpt lat="42.50013" lon="2.54368">
        <ele>1460.8</ele>
        <time>2020-09-01T09:55:05.786Z</time>
      </trkpt>
      <trkpt lat="42.50012" lon="2.54371">
        <ele>1460.8</ele>
        <time>2020-09-01T09:55:12.110Z</time>
      </trkpt>
      <trkpt lat="42.50013" lon="2.54375">
        <ele>1460.9</ele>
        <time>2020-09-01T09:55:23.602Z</time>
      </trkpt>
      <trkpt lat="42.50012" lon="2.54378">
        <ele>1460.6</ele>
        <time>2020-09-01T09:55:24.472Z</time>
      </trkpt>
      <trkpt lat="42.50011" lon="2.54382">
        <ele>1460.3</ele>
        <time>2020-09-01T09:55:25.587Z</time>
      </trkpt>
      <trkpt lat="42.5001" lon="2.54385">
        <ele>1459.8</ele>
        <time>2020-09-01T09:55:26.457Z</time>
      </trkpt>
      <trkpt lat="42.50008" lon="2.54388">
        <ele>1459.1</ele>
        <time>2020-09-01T09:55:27.525Z</time>
      </trkpt>
      <trkpt lat="42.50008" lon="2.54392">
        <ele>1458.4</ele>
        <time>2020-09-01T09:55:28.581Z</time>
      </trkpt>
      <trkpt lat="42.50007" lon="2.54395">
        <ele>1457.7</ele>
        <time>2020-09-01T09:55:29.451Z</time>
      </trkpt>
      <trkpt lat="42.50005" lon="2.54398">
        <ele>1456.5</ele>
        <time>2020-09-01T09:55:30.519Z</time>
      </trkpt>
      <trkpt lat="42.50003" lon="2.54401">
        <ele>1455.5</ele>
        <time>2020-09-01T09:55:31.587Z</time>
      </trkpt>
      <trkpt lat="42.50001" lon="2.54403">
        <ele>1454.5</ele>
        <time>2020-09-01T09:55:32.477Z</time>
      </trkpt>
      <trkpt lat="42.49999" lon="2.54403">
        <ele>1439.9</ele>
        <time>2020-09-01T09:55:33.193Z</time>
      </trkpt>
      <trkpt lat="42.49998" lon="2.54406">
        <ele>1440.6</ele>
        <time>2020-09-01T09:55:57.583Z</time>
      </trkpt>
      <trkpt lat="42.49997" lon="2.54408">
        <ele>1441.4</ele>
        <time>2020-09-01T09:56:15.486Z</time>
      </trkpt>
      <trkpt lat="42.49995" lon="2.54411">
        <ele>1441.9</ele>
        <time>2020-09-01T09:56:45.449Z</time>
      </trkpt>
      <trkpt lat="42.49993" lon="2.54412">
        <ele>1441.6</ele>
        <time>2020-09-01T09:56:46.212Z</time>
      </trkpt>
      <trkpt lat="42.49991" lon="2.54413">
        <ele>1441</ele>
        <time>2020-09-01T09:56:46.976Z</time>
      </trkpt>
      <trkpt lat="42.49989" lon="2.54412">
        <ele>1439.8</ele>
        <time>2020-09-01T09:56:47.739Z</time>
      </trkpt>
      <trkpt lat="42.49987" lon="2.54412">
        <ele>1438.5</ele>
        <time>2020-09-01T09:56:48.455Z</time>
      </trkpt>
      <trkpt lat="42.49984" lon="2.54411">
        <ele>1437.5</ele>
        <time>2020-09-01T09:56:49.562Z</time>
      </trkpt>
      <trkpt lat="42.49982" lon="2.5441">
        <ele>1436.5</ele>
        <time>2020-09-01T09:56:50.325Z</time>
      </trkpt>
      <trkpt lat="42.49981" lon="2.5441">
        <ele>1435.8</ele>
        <time>2020-09-01T09:56:50.684Z</time>
      </trkpt>
      <trkpt lat="42.49978" lon="2.54409">
        <ele>1434.8</ele>
        <time>2020-09-01T09:56:51.790Z</time>
      </trkpt>
      <trkpt lat="42.49976" lon="2.54409">
        <ele>1433.9</ele>
        <time>2020-09-01T09:56:52.506Z</time>
      </trkpt>
      <trkpt lat="42.49973" lon="2.54411">
        <ele>1433</ele>
        <time>2020-09-01T09:56:53.704Z</time>
      </trkpt>
      <trkpt lat="42.49971" lon="2.54412">
        <ele>1432.1</ele>
        <time>2020-09-01T09:56:54.467Z</time>
      </trkpt>
      <trkpt lat="42.49968" lon="2.54413">
        <ele>1431</ele>
        <time>2020-09-01T09:56:55.574Z</time>
      </trkpt>
      <trkpt lat="42.49966" lon="2.54413">
        <ele>1430.3</ele>
        <time>2020-09-01T09:56:56.290Z</time>
      </trkpt>
      <trkpt lat="42.49963" lon="2.54416">
        <ele>1429.5</ele>
        <time>2020-09-01T09:56:57.625Z</time>
      </trkpt>
      <trkpt lat="42.49962" lon="2.54419">
        <ele>1424</ele>
        <time>2020-09-01T09:56:58.495Z</time>
      </trkpt>
      <trkpt lat="42.4996" lon="2.54422">
        <ele>1423.1</ele>
        <time>2020-09-01T09:56:59.563Z</time>
      </trkpt>
      <trkpt lat="42.49958" lon="2.54424">
        <ele>1422.4</ele>
        <time>2020-09-01T09:57:00.453Z</time>
      </trkpt>
      <trkpt lat="42.49956" lon="2.54426">
        <ele>1421.5</ele>
        <time>2020-09-01T09:57:01.343Z</time>
      </trkpt>
      <trkpt lat="42.49955" lon="2.54429">
        <ele>1421</ele>
        <time>2020-09-01T09:57:02.212Z</time>
      </trkpt>
      <trkpt lat="42.49953" lon="2.54431">
        <ele>1420.4</ele>
        <time>2020-09-01T09:57:03.102Z</time>
      </trkpt>
      <trkpt lat="42.49951" lon="2.54432">
        <ele>1419.8</ele>
        <time>2020-09-01T09:57:03.866Z</time>
      </trkpt>
      <trkpt lat="42.49949" lon="2.54434">
        <ele>1419.2</ele>
        <time>2020-09-01T09:57:04.756Z</time>
      </trkpt>
      <trkpt lat="42.49947" lon="2.54435">
        <ele>1418.5</ele>
        <time>2020-09-01T09:57:05.519Z</time>
      </trkpt>
      <trkpt lat="42.49944" lon="2.54435">
        <ele>1417.9</ele>
        <time>2020-09-01T09:57:06.594Z</time>
      </trkpt>
      <trkpt lat="42.49943" lon="2.54436">
        <ele>1417.7</ele>
        <time>2020-09-01T09:57:07.039Z</time>
      </trkpt>
      <trkpt lat="42.49942" lon="2.54439">
        <ele>1417.4</ele>
        <time>2020-09-01T09:57:07.908Z</time>
      </trkpt>
      <trkpt lat="42.49939" lon="2.54441">
        <ele>1416.7</ele>
        <time>2020-09-01T09:57:09.106Z</time>
      </trkpt>
      <trkpt lat="42.49936" lon="2.54443">
        <ele>1416.2</ele>
        <time>2020-09-01T09:57:10.303Z</time>
      </trkpt>
      <trkpt lat="42.49934" lon="2.54445">
        <ele>1415.8</ele>
        <time>2020-09-01T09:57:11.193Z</time>
      </trkpt>
      <trkpt lat="42.49932" lon="2.54445">
        <ele>1415.4</ele>
        <time>2020-09-01T09:57:11.909Z</time>
      </trkpt>
      <trkpt lat="42.49931" lon="2.54449">
        <ele>1415.2</ele>
        <time>2020-09-01T09:57:12.950Z</time>
      </trkpt>
      <trkpt lat="42.49929" lon="2.5445">
        <ele>1414.9</ele>
        <time>2020-09-01T09:57:13.714Z</time>
      </trkpt>
      <trkpt lat="42.49927" lon="2.54451">
        <ele>1414.6</ele>
        <time>2020-09-01T09:57:14.477Z</time>
      </trkpt>
      <trkpt lat="42.49925" lon="2.54453">
        <ele>1414.3</ele>
        <time>2020-09-01T09:57:15.367Z</time>
      </trkpt>
      <trkpt lat="42.49923" lon="2.54454">
        <ele>1414</ele>
        <time>2020-09-01T09:57:16.131Z</time>
      </trkpt>
      <trkpt lat="42.4992" lon="2.54455">
        <ele>1413.7</ele>
        <time>2020-09-01T09:57:17.238Z</time>
      </trkpt>
      <trkpt lat="42.49917" lon="2.54454">
        <ele>1413.5</ele>
        <time>2020-09-01T09:57:18.266Z</time>
      </trkpt>
      <trkpt lat="42.49915" lon="2.54455">
        <ele>1389.2</ele>
        <time>2020-09-01T09:57:19.030Z</time>
      </trkpt>
      <trkpt lat="42.49914" lon="2.54458">
        <ele>1388.8</ele>
        <time>2020-09-01T09:57:19.899Z</time>
      </trkpt>
      <trkpt lat="42.49913" lon="2.54461">
        <ele>1388.5</ele>
        <time>2020-09-01T09:57:20.769Z</time>
      </trkpt>
      <trkpt lat="42.49912" lon="2.54464">
        <ele>1388.3</ele>
        <time>2020-09-01T09:57:21.638Z</time>
      </trkpt>
      <trkpt lat="42.49911" lon="2.54467">
        <ele>1388.1</ele>
        <time>2020-09-01T09:57:22.508Z</time>
      </trkpt>
      <trkpt lat="42.49909" lon="2.54469">
        <ele>1387.9</ele>
        <time>2020-09-01T09:57:23.398Z</time>
      </trkpt>
      <trkpt lat="42.49907" lon="2.5447">
        <ele>1387.7</ele>
        <time>2020-09-01T09:57:24.161Z</time>
      </trkpt>
      <trkpt lat="42.49904" lon="2.54472">
        <ele>1387.3</ele>
        <time>2020-09-01T09:57:25.358Z</time>
      </trkpt>
      <trkpt lat="42.49902" lon="2.54473">
        <ele>1387</ele>
        <time>2020-09-01T09:57:26.122Z</time>
      </trkpt>
      <trkpt lat="42.49901" lon="2.54475">
        <ele>1386.9</ele>
        <time>2020-09-01T09:57:26.757Z</time>
      </trkpt>
      <trkpt lat="42.499" lon="2.54478">
        <ele>1386.8</ele>
        <time>2020-09-01T09:57:27.744Z</time>
      </trkpt>
      <trkpt lat="42.49897" lon="2.54477">
        <ele>1386.2</ele>
        <time>2020-09-01T09:57:28.851Z</time>
      </trkpt>
      <trkpt lat="42.49895" lon="2.54476">
        <ele>1385.6</ele>
        <time>2020-09-01T09:57:29.614Z</time>
      </trkpt>
      <trkpt lat="42.49892" lon="2.54477">
        <ele>1384.9</ele>
        <time>2020-09-01T09:57:30.721Z</time>
      </trkpt>
      <trkpt lat="42.4989" lon="2.54477">
        <ele>1384.4</ele>
        <time>2020-09-01T09:57:31.437Z</time>
      </trkpt>
      <trkpt lat="42.49888" lon="2.54476">
        <ele>1384</ele>
        <time>2020-09-01T09:57:32.201Z</time>
      </trkpt>
      <trkpt lat="42.49887" lon="2.54478">
        <ele>1383.7</ele>
        <time>2020-09-01T09:57:32.839Z</time>
      </trkpt>
      <trkpt lat="42.49886" lon="2.54481">
        <ele>1383.4</ele>
        <time>2020-09-01T09:57:33.708Z</time>
      </trkpt>
      <trkpt lat="42.49885" lon="2.54484">
        <ele>1383.1</ele>
        <time>2020-09-01T09:57:34.578Z</time>
      </trkpt>
      <trkpt lat="42.49883" lon="2.54489">
        <ele>1382.6</ele>
        <time>2020-09-01T09:57:36.080Z</time>
      </trkpt>
      <trkpt lat="42.49881" lon="2.5449">
        <ele>1382</ele>
        <time>2020-09-01T09:57:36.844Z</time>
      </trkpt>
      <trkpt lat="42.4988" lon="2.54493">
        <ele>1381.7</ele>
        <time>2020-09-01T09:57:37.713Z</time>
      </trkpt>
      <trkpt lat="42.4988" lon="2.54496">
        <ele>1381.6</ele>
        <time>2020-09-01T09:57:38.580Z</time>
      </trkpt>
      <trkpt lat="42.49879" lon="2.54499">
        <ele>1381.3</ele>
        <time>2020-09-01T09:57:39.449Z</time>
      </trkpt>
      <trkpt lat="42.49879" lon="2.54502">
        <ele>1374.1</ele>
        <time>2020-09-01T09:57:40.242Z</time>
      </trkpt>
      <trkpt lat="42.49879" lon="2.54505">
        <ele>1373.9</ele>
        <time>2020-09-01T09:57:41.034Z</time>
      </trkpt>
      <trkpt lat="42.49877" lon="2.54505">
        <ele>1373.2</ele>
        <time>2020-09-01T09:57:41.750Z</time>
      </trkpt>
      <trkpt lat="42.49874" lon="2.54504">
        <ele>1372.6</ele>
        <time>2020-09-01T09:57:42.857Z</time>
      </trkpt>
      <trkpt lat="42.49873" lon="2.54503">
        <ele>1372</ele>
        <time>2020-09-01T09:57:43.302Z</time>
      </trkpt>
      <trkpt lat="42.4987" lon="2.54503">
        <ele>1371.3</ele>
        <time>2020-09-01T09:57:44.376Z</time>
      </trkpt>
      <trkpt lat="42.49868" lon="2.54504">
        <ele>1370.6</ele>
        <time>2020-09-01T09:57:45.140Z</time>
      </trkpt>
      <trkpt lat="42.49867" lon="2.54507">
        <ele>1370.4</ele>
        <time>2020-09-01T09:57:46.009Z</time>
      </trkpt>
      <trkpt lat="42.49866" lon="2.5451">
        <ele>1369.9</ele>
        <time>2020-09-01T09:57:46.879Z</time>
      </trkpt>
      <trkpt lat="42.49864" lon="2.54511">
        <ele>1369.4</ele>
        <time>2020-09-01T09:57:47.642Z</time>
      </trkpt>
      <trkpt lat="42.49863" lon="2.54514">
        <ele>1369</ele>
        <time>2020-09-01T09:57:48.512Z</time>
      </trkpt>
      <trkpt lat="42.49862" lon="2.54517">
        <ele>1368.6</ele>
        <time>2020-09-01T09:57:49.381Z</time>
      </trkpt>
      <trkpt lat="42.4986" lon="2.5452">
        <ele>1368.3</ele>
        <time>2020-09-01T09:57:50.449Z</time>
      </trkpt>
      <trkpt lat="42.49859" lon="2.54522">
        <ele>1368</ele>
        <time>2020-09-01T09:57:51.087Z</time>
      </trkpt>
      <trkpt lat="42.49858" lon="2.54524">
        <ele>1367.7</ele>
        <time>2020-09-01T09:57:51.726Z</time>
      </trkpt>
      <trkpt lat="42.49857" lon="2.54527">
        <ele>1367.6</ele>
        <time>2020-09-01T09:57:52.713Z</time>
      </trkpt>
      <trkpt lat="42.49856" lon="2.54529">
        <ele>1367.3</ele>
        <time>2020-09-01T09:57:53.351Z</time>
      </trkpt>
      <trkpt lat="42.49854" lon="2.54532">
        <ele>1366.9</ele>
        <time>2020-09-01T09:57:54.419Z</time>
      </trkpt>
      <trkpt lat="42.49854" lon="2.54535">
        <ele>1366.7</ele>
        <time>2020-09-01T09:57:55.211Z</time>
      </trkpt>
      <trkpt lat="42.49853" lon="2.54539">
        <ele>1366.4</ele>
        <time>2020-09-01T09:57:56.327Z</time>
      </trkpt>
      <trkpt lat="42.49853" lon="2.54543">
        <ele>1365.9</ele>
        <time>2020-09-01T09:57:57.383Z</time>
      </trkpt>
      <trkpt lat="42.4985" lon="2.54547">
        <ele>1365.2</ele>
        <time>2020-09-01T09:57:58.890Z</time>
      </trkpt>
      <trkpt lat="42.49849" lon="2.54548">
        <ele>1364.9</ele>
        <time>2020-09-01T09:57:59.335Z</time>
      </trkpt>
      <trkpt lat="42.49848" lon="2.54551">
        <ele>1364.3</ele>
        <time>2020-09-01T09:58:00.204Z</time>
      </trkpt>
      <trkpt lat="42.49846" lon="2.54552">
        <ele>1364</ele>
        <time>2020-09-01T09:58:00.968Z</time>
      </trkpt>
      <trkpt lat="42.49847" lon="2.54555">
        <ele>1363.5</ele>
        <time>2020-09-01T09:58:01.837Z</time>
      </trkpt>
      <trkpt lat="42.49845" lon="2.54556">
        <ele>1363.1</ele>
        <time>2020-09-01T09:58:02.601Z</time>
      </trkpt>
      <trkpt lat="42.49843" lon="2.54559">
        <ele>1362.3</ele>
        <time>2020-09-01T09:58:03.669Z</time>
      </trkpt>
      <trkpt lat="42.49842" lon="2.54562">
        <ele>1361.4</ele>
        <time>2020-09-01T09:58:04.538Z</time>
      </trkpt>
      <trkpt lat="42.4984" lon="2.54565">
        <ele>1360.3</ele>
        <time>2020-09-01T09:58:05.606Z</time>
      </trkpt>
      <trkpt lat="42.49838" lon="2.54568">
        <ele>1359.3</ele>
        <time>2020-09-01T09:58:06.674Z</time>
      </trkpt>
      <trkpt lat="42.49835" lon="2.54569">
        <ele>1358.4</ele>
        <time>2020-09-01T09:58:07.781Z</time>
      </trkpt>
      <trkpt lat="42.49834" lon="2.54572">
        <ele>1357.2</ele>
        <time>2020-09-01T09:58:08.650Z</time>
      </trkpt>
      <trkpt lat="42.49832" lon="2.54575">
        <ele>1346.5</ele>
        <time>2020-09-01T09:58:09.719Z</time>
      </trkpt>
      <trkpt lat="42.49831" lon="2.54579">
        <ele>1347.8</ele>
        <time>2020-09-01T09:58:41.009Z</time>
      </trkpt>
      <trkpt lat="42.4983" lon="2.54581">
        <ele>1348.1</ele>
        <time>2020-09-01T09:58:58.912Z</time>
      </trkpt>
      <trkpt lat="42.49828" lon="2.54583">
        <ele>1347.5</ele>
        <time>2020-09-01T09:58:59.802Z</time>
      </trkpt>
      <trkpt lat="42.49826" lon="2.54586">
        <ele>1344.2</ele>
        <time>2020-09-01T09:59:00.870Z</time>
      </trkpt>
      <trkpt lat="42.49824" lon="2.54589">
        <ele>1342.3</ele>
        <time>2020-09-01T09:59:01.938Z</time>
      </trkpt>
      <trkpt lat="42.49822" lon="2.54592">
        <ele>1340.6</ele>
        <time>2020-09-01T09:59:03.006Z</time>
      </trkpt>
      <trkpt lat="42.49821" lon="2.54595">
        <ele>1339</ele>
        <time>2020-09-01T09:59:03.875Z</time>
      </trkpt>
      <trkpt lat="42.49818" lon="2.54596">
        <ele>1337.8</ele>
        <time>2020-09-01T09:59:04.982Z</time>
      </trkpt>
      <trkpt lat="42.49815" lon="2.54596">
        <ele>1336.8</ele>
        <time>2020-09-01T09:59:06.057Z</time>
      </trkpt>
      <trkpt lat="42.49813" lon="2.54596">
        <ele>1336.2</ele>
        <time>2020-09-01T09:59:06.773Z</time>
      </trkpt>
      <trkpt lat="42.4981" lon="2.54596">
        <ele>1335.1</ele>
        <time>2020-09-01T09:59:07.847Z</time>
      </trkpt>
      <trkpt lat="42.49808" lon="2.54595">
        <ele>1334.4</ele>
        <time>2020-09-01T09:59:08.611Z</time>
      </trkpt>
      <trkpt lat="42.49805" lon="2.54594">
        <ele>1333.7</ele>
        <time>2020-09-01T09:59:09.718Z</time>
      </trkpt>
      <trkpt lat="42.49803" lon="2.54592">
        <ele>1333.1</ele>
        <time>2020-09-01T09:59:10.608Z</time>
      </trkpt>
      <trkpt lat="42.498" lon="2.54592">
        <ele>1332.3</ele>
        <time>2020-09-01T09:59:11.682Z</time>
      </trkpt>
      <trkpt lat="42.49797" lon="2.54592">
        <ele>1331.5</ele>
        <time>2020-09-01T09:59:12.757Z</time>
      </trkpt>
      <trkpt lat="42.49795" lon="2.54595">
        <ele>1330.7</ele>
        <time>2020-09-01T09:59:13.825Z</time>
      </trkpt>
      <trkpt lat="42.49793" lon="2.54596">
        <ele>1330</ele>
        <time>2020-09-01T09:59:14.588Z</time>
      </trkpt>
      <trkpt lat="42.4979" lon="2.54597">
        <ele>1329.2</ele>
        <time>2020-09-01T09:59:15.695Z</time>
      </trkpt>
      <trkpt lat="42.49788" lon="2.54598">
        <ele>1328.6</ele>
        <time>2020-09-01T09:59:16.458Z</time>
      </trkpt>
      <trkpt lat="42.49787" lon="2.546">
        <ele>1328.4</ele>
        <time>2020-09-01T09:59:17.096Z</time>
      </trkpt>
      <trkpt lat="42.49786" lon="2.54604">
        <ele>1328.2</ele>
        <time>2020-09-01T09:59:18.138Z</time>
      </trkpt>
      <trkpt lat="42.49785" lon="2.54607">
        <ele>1328</ele>
        <time>2020-09-01T09:59:19.007Z</time>
      </trkpt>
      <trkpt lat="42.49785" lon="2.54611">
        <ele>1327.8</ele>
        <time>2020-09-01T09:59:20.063Z</time>
      </trkpt>
      <trkpt lat="42.49784" lon="2.54615">
        <ele>1327.5</ele>
        <time>2020-09-01T09:59:21.179Z</time>
      </trkpt>
      <trkpt lat="42.49782" lon="2.54617">
        <ele>1327.2</ele>
        <time>2020-09-01T09:59:22.069Z</time>
      </trkpt>
      <trkpt lat="42.49781" lon="2.54619">
        <ele>1327</ele>
        <time>2020-09-01T09:59:22.707Z</time>
      </trkpt>
      <trkpt lat="42.4978" lon="2.54623">
        <ele>1326.8</ele>
        <time>2020-09-01T09:59:23.748Z</time>
      </trkpt>
      <trkpt lat="42.49778" lon="2.54626">
        <ele>1326.6</ele>
        <time>2020-09-01T09:59:24.816Z</time>
      </trkpt>
      <trkpt lat="42.49777" lon="2.54629">
        <ele>1326.3</ele>
        <time>2020-09-01T09:59:25.686Z</time>
      </trkpt>
      <trkpt lat="42.49776" lon="2.54632">
        <ele>1326.1</ele>
        <time>2020-09-01T09:59:26.555Z</time>
      </trkpt>
      <trkpt lat="42.49774" lon="2.54634">
        <ele>1325.9</ele>
        <time>2020-09-01T09:59:27.445Z</time>
      </trkpt>
      <trkpt lat="42.49774" lon="2.54635">
        <ele>1325.9</ele>
        <time>2020-09-01T09:59:29.366Z</time>
      </trkpt>
      <trkpt lat="42.49773" lon="2.54636">
        <ele>1325.7</ele>
        <time>2020-09-01T09:59:29.811Z</time>
      </trkpt>
      <trkpt lat="42.49771" lon="2.54637">
        <ele>1325.5</ele>
        <time>2020-09-01T09:59:30.574Z</time>
      </trkpt>
      <trkpt lat="42.4977" lon="2.54638">
        <ele>1325.4</ele>
        <time>2020-09-01T09:59:31.020Z</time>
      </trkpt>
      <trkpt lat="42.49768" lon="2.54641">
        <ele>1325.1</ele>
        <time>2020-09-01T09:59:32.088Z</time>
      </trkpt>
      <trkpt lat="42.49768" lon="2.54644">
        <ele>1324.9</ele>
        <time>2020-09-01T09:59:32.880Z</time>
      </trkpt>
      <trkpt lat="42.49766" lon="2.54647">
        <ele>1324.5</ele>
        <time>2020-09-01T09:59:33.948Z</time>
      </trkpt>
      <trkpt lat="42.49764" lon="2.5465">
        <ele>1324.1</ele>
        <time>2020-09-01T09:59:35.016Z</time>
      </trkpt>
      <trkpt lat="42.49762" lon="2.54653">
        <ele>1323.6</ele>
        <time>2020-09-01T09:59:36.084Z</time>
      </trkpt>
      <trkpt lat="42.49759" lon="2.54654">
        <ele>1323.2</ele>
        <time>2020-09-01T09:59:37.191Z</time>
      </trkpt>
      <trkpt lat="42.49757" lon="2.54657">
        <ele>1322.7</ele>
        <time>2020-09-01T09:59:38.259Z</time>
      </trkpt>
      <trkpt lat="42.49755" lon="2.54659">
        <ele>1322.2</ele>
        <time>2020-09-01T09:59:39.149Z</time>
      </trkpt>
      <trkpt lat="42.49753" lon="2.5466">
        <ele>1321.7</ele>
        <time>2020-09-01T09:59:39.912Z</time>
      </trkpt>
      <trkpt lat="42.4975" lon="2.54661">
        <ele>1321.4</ele>
        <time>2020-09-01T09:59:41.019Z</time>
      </trkpt>
      <trkpt lat="42.49747" lon="2.54662">
        <ele>1315.3</ele>
        <time>2020-09-01T09:59:42.125Z</time>
      </trkpt>
      <trkpt lat="42.49745" lon="2.54664">
        <ele>1315.1</ele>
        <time>2020-09-01T09:59:43.016Z</time>
      </trkpt>
      <trkpt lat="42.49743" lon="2.54668">
        <ele>1314.5</ele>
        <time>2020-09-01T09:59:44.292Z</time>
      </trkpt>
      <trkpt lat="42.49742" lon="2.54671">
        <ele>1312.7</ele>
        <time>2020-09-01T09:59:45.161Z</time>
      </trkpt>
      <trkpt lat="42.4974" lon="2.54675">
        <ele>1310.8</ele>
        <time>2020-09-01T09:59:46.438Z</time>
      </trkpt>
      <trkpt lat="42.49737" lon="2.54677">
        <ele>1309</ele>
        <time>2020-09-01T09:59:47.635Z</time>
      </trkpt>
      <trkpt lat="42.49734" lon="2.54678">
        <ele>1307.7</ele>
        <time>2020-09-01T09:59:48.742Z</time>
      </trkpt>
      <trkpt lat="42.49731" lon="2.5468">
        <ele>1306.4</ele>
        <time>2020-09-01T09:59:49.939Z</time>
      </trkpt>
      <trkpt lat="42.49729" lon="2.54683">
        <ele>1305.2</ele>
        <time>2020-09-01T09:59:51.007Z</time>
      </trkpt>
      <trkpt lat="42.49727" lon="2.54687">
        <ele>1304</ele>
        <time>2020-09-01T09:59:52.283Z</time>
      </trkpt>
      <trkpt lat="42.49725" lon="2.54689">
        <ele>1303</ele>
        <time>2020-09-01T09:59:53.173Z</time>
      </trkpt>
      <trkpt lat="42.49722" lon="2.54691">
        <ele>1302.1</ele>
        <time>2020-09-01T09:59:54.371Z</time>
      </trkpt>
      <trkpt lat="42.49719" lon="2.54693">
        <ele>1301.4</ele>
        <time>2020-09-01T09:59:55.568Z</time>
      </trkpt>
      <trkpt lat="42.49717" lon="2.54695">
        <ele>1300.7</ele>
        <time>2020-09-01T09:59:56.458Z</time>
      </trkpt>
      <trkpt lat="42.49714" lon="2.54695">
        <ele>1300.1</ele>
        <time>2020-09-01T09:59:57.533Z</time>
      </trkpt>
      <trkpt lat="42.49711" lon="2.54695">
        <ele>1299.6</ele>
        <time>2020-09-01T09:59:58.607Z</time>
      </trkpt>
      <trkpt lat="42.49708" lon="2.54694">
        <ele>1299.3</ele>
        <time>2020-09-01T09:59:59.714Z</time>
      </trkpt>
      <trkpt lat="42.49708" lon="2.54697">
        <ele>1299</ele>
        <time>2020-09-01T10:00:00.506Z</time>
      </trkpt>
      <trkpt lat="42.49709" lon="2.547">
        <ele>1299</ele>
        <time>2020-09-01T10:00:06.830Z</time>
      </trkpt>
      <trkpt lat="42.49712" lon="2.54702">
        <ele>1299.2</ele>
        <time>2020-09-01T10:00:23.105Z</time>
      </trkpt>
      <trkpt lat="42.49713" lon="2.54705">
        <ele>1299.2</ele>
        <time>2020-09-01T10:00:29.428Z</time>
      </trkpt>
      <trkpt lat="42.49711" lon="2.54706">
        <ele>1298.7</ele>
        <time>2020-09-01T10:00:30.192Z</time>
      </trkpt>
      <trkpt lat="42.49708" lon="2.54705">
        <ele>1298.4</ele>
        <time>2020-09-01T10:00:31.298Z</time>
      </trkpt>
      <trkpt lat="42.49706" lon="2.54704">
        <ele>1298.2</ele>
        <time>2020-09-01T10:00:32.062Z</time>
      </trkpt>
      <trkpt lat="42.49703" lon="2.54702">
        <ele>1298</ele>
        <time>2020-09-01T10:00:33.219Z</time>
      </trkpt>
      <trkpt lat="42.497" lon="2.54702">
        <ele>1297.6</ele>
        <time>2020-09-01T10:00:34.293Z</time>
      </trkpt>
      <trkpt lat="42.49698" lon="2.54702">
        <ele>1297.2</ele>
        <time>2020-09-01T10:00:35.010Z</time>
      </trkpt>
      <trkpt lat="42.49698" lon="2.54705">
        <ele>1297</ele>
        <time>2020-09-01T10:00:35.802Z</time>
      </trkpt>
      <trkpt lat="42.49696" lon="2.54707">
        <ele>1296.8</ele>
        <time>2020-09-01T10:00:36.692Z</time>
      </trkpt>
      <trkpt lat="42.49694" lon="2.54708">
        <ele>1296.5</ele>
        <time>2020-09-01T10:00:37.455Z</time>
      </trkpt>
      <trkpt lat="42.49691" lon="2.54708">
        <ele>1296.1</ele>
        <time>2020-09-01T10:00:38.530Z</time>
      </trkpt>
      <trkpt lat="42.49688" lon="2.54709">
        <ele>1295.8</ele>
        <time>2020-09-01T10:00:39.637Z</time>
      </trkpt>
      <trkpt lat="42.49685" lon="2.54708">
        <ele>1295.5</ele>
        <time>2020-09-01T10:00:40.743Z</time>
      </trkpt>
      <trkpt lat="42.49683" lon="2.54706">
        <ele>1295.3</ele>
        <time>2020-09-01T10:00:41.633Z</time>
      </trkpt>
      <trkpt lat="42.4968" lon="2.54704">
        <ele>1295.2</ele>
        <time>2020-09-01T10:00:43.154Z</time>
      </trkpt>
      <trkpt lat="42.49679" lon="2.54707">
        <ele>1294.9</ele>
        <time>2020-09-01T10:00:44.023Z</time>
      </trkpt>
      <trkpt lat="42.49679" lon="2.54711">
        <ele>1294.8</ele>
        <time>2020-09-01T10:00:45.310Z</time>
      </trkpt>
      <trkpt lat="42.4968" lon="2.54715">
        <ele>1294.7</ele>
        <time>2020-09-01T10:00:46.695Z</time>
      </trkpt>
      <trkpt lat="42.49681" lon="2.54718">
        <ele>1294.4</ele>
        <time>2020-09-01T10:00:47.564Z</time>
      </trkpt>
      <trkpt lat="42.49681" lon="2.54722">
        <ele>1294.1</ele>
        <time>2020-09-01T10:00:48.621Z</time>
      </trkpt>
      <trkpt lat="42.49682" lon="2.54726">
        <ele>1293.8</ele>
        <time>2020-09-01T10:00:49.736Z</time>
      </trkpt>
      <trkpt lat="42.49683" lon="2.54729">
        <ele>1293.5</ele>
        <time>2020-09-01T10:00:50.606Z</time>
      </trkpt>
      <trkpt lat="42.49683" lon="2.54734">
        <ele>1293</ele>
        <time>2020-09-01T10:00:51.926Z</time>
      </trkpt>
      <trkpt lat="42.49682" lon="2.54736">
        <ele>1292.5</ele>
        <time>2020-09-01T10:00:52.564Z</time>
      </trkpt>
      <trkpt lat="42.49679" lon="2.54735">
        <ele>1292.2</ele>
        <time>2020-09-01T10:00:53.671Z</time>
      </trkpt>
      <trkpt lat="42.49676" lon="2.54733">
        <ele>1292</ele>
        <time>2020-09-01T10:00:54.828Z</time>
      </trkpt>
      <trkpt lat="42.49673" lon="2.54733">
        <ele>1291.7</ele>
        <time>2020-09-01T10:00:55.902Z</time>
      </trkpt>
      <trkpt lat="42.4967" lon="2.54731">
        <ele>1291.8</ele>
        <time>2020-09-01T10:01:07.897Z</time>
      </trkpt>
      <trkpt lat="42.49667" lon="2.54732">
        <ele>1291.6</ele>
        <time>2020-09-01T10:01:08.926Z</time>
      </trkpt>
      <trkpt lat="42.49664" lon="2.54732">
        <ele>1278.6</ele>
        <time>2020-09-01T10:01:10.000Z</time>
      </trkpt>
      <trkpt lat="42.49662" lon="2.54733">
        <ele>1278.6</ele>
        <time>2020-09-01T10:01:15.553Z</time>
      </trkpt>
      <trkpt lat="42.4966" lon="2.54735">
        <ele>1278.6</ele>
        <time>2020-09-01T10:01:22.026Z</time>
      </trkpt>
      <trkpt lat="42.49657" lon="2.54735">
        <ele>1278.3</ele>
        <time>2020-09-01T10:01:23.101Z</time>
      </trkpt>
      <trkpt lat="42.49655" lon="2.54735">
        <ele>1277.7</ele>
        <time>2020-09-01T10:01:23.817Z</time>
      </trkpt>
      <trkpt lat="42.49653" lon="2.54735">
        <ele>1277.1</ele>
        <time>2020-09-01T10:01:24.534Z</time>
      </trkpt>
      <trkpt lat="42.49651" lon="2.54738">
        <ele>1277.3</ele>
        <time>2020-09-01T10:01:39.828Z</time>
      </trkpt>
      <trkpt lat="42.49649" lon="2.5474">
        <ele>1276.9</ele>
        <time>2020-09-01T10:01:40.718Z</time>
      </trkpt>
      <trkpt lat="42.49646" lon="2.5474">
        <ele>1276</ele>
        <time>2020-09-01T10:01:41.792Z</time>
      </trkpt>
      <trkpt lat="42.49643" lon="2.54741">
        <ele>1275.4</ele>
        <time>2020-09-01T10:01:42.899Z</time>
      </trkpt>
      <trkpt lat="42.49641" lon="2.54742">
        <ele>1274.7</ele>
        <time>2020-09-01T10:01:43.662Z</time>
      </trkpt>
      <trkpt lat="42.49637" lon="2.54743">
        <ele>1273.9</ele>
        <time>2020-09-01T10:01:45.119Z</time>
      </trkpt>
      <trkpt lat="42.49634" lon="2.54744">
        <ele>1273</ele>
        <time>2020-09-01T10:01:46.226Z</time>
      </trkpt>
      <trkpt lat="42.49631" lon="2.54745">
        <ele>1272.2</ele>
        <time>2020-09-01T10:01:47.332Z</time>
      </trkpt>
      <trkpt lat="42.49628" lon="2.54747">
        <ele>1271.6</ele>
        <time>2020-09-01T10:01:48.529Z</time>
      </trkpt>
      <trkpt lat="42.49626" lon="2.54749">
        <ele>1271.1</ele>
        <time>2020-09-01T10:01:49.419Z</time>
      </trkpt>
      <trkpt lat="42.49624" lon="2.54752">
        <ele>1267.6</ele>
        <time>2020-09-01T10:01:50.488Z</time>
      </trkpt>
      <trkpt lat="42.49621" lon="2.54753">
        <ele>1267</ele>
        <time>2020-09-01T10:01:51.594Z</time>
      </trkpt>
      <trkpt lat="42.49618" lon="2.54753">
        <ele>1266.4</ele>
        <time>2020-09-01T10:01:52.669Z</time>
      </trkpt>
      <trkpt lat="42.49615" lon="2.54753">
        <ele>1266</ele>
        <time>2020-09-01T10:01:53.743Z</time>
      </trkpt>
      <trkpt lat="42.49614" lon="2.54755">
        <ele>1265.7</ele>
        <time>2020-09-01T10:01:54.381Z</time>
      </trkpt>
      <trkpt lat="42.49613" lon="2.54757">
        <ele>1265.4</ele>
        <time>2020-09-01T10:01:55.020Z</time>
      </trkpt>
      <trkpt lat="42.4961" lon="2.54758">
        <ele>1265</ele>
        <time>2020-09-01T10:01:56.126Z</time>
      </trkpt>
      <trkpt lat="42.49608" lon="2.54759">
        <ele>1264.6</ele>
        <time>2020-09-01T10:01:56.890Z</time>
      </trkpt>
      <trkpt lat="42.49605" lon="2.54761">
        <ele>1264.2</ele>
        <time>2020-09-01T10:01:58.087Z</time>
      </trkpt>
      <trkpt lat="42.49603" lon="2.54764">
        <ele>1264</ele>
        <time>2020-09-01T10:01:59.155Z</time>
      </trkpt>
      <trkpt lat="42.49601" lon="2.54766">
        <ele>1263.7</ele>
        <time>2020-09-01T10:02:00.045Z</time>
      </trkpt>
      <trkpt lat="42.49598" lon="2.54767">
        <ele>1263.5</ele>
        <time>2020-09-01T10:02:01.074Z</time>
      </trkpt>
      <trkpt lat="42.49595" lon="2.54769">
        <ele>1263.2</ele>
        <time>2020-09-01T10:02:02.271Z</time>
      </trkpt>
      <trkpt lat="42.49592" lon="2.5477">
        <ele>1263</ele>
        <time>2020-09-01T10:02:03.300Z</time>
      </trkpt>
      <trkpt lat="42.4959" lon="2.54769">
        <ele>1262.8</ele>
        <time>2020-09-01T10:02:04.063Z</time>
      </trkpt>
      <trkpt lat="42.49588" lon="2.54771">
        <ele>1262.8</ele>
        <time>2020-09-01T10:02:10.537Z</time>
      </trkpt>
      <trkpt lat="42.49586" lon="2.54772">
        <ele>1262.7</ele>
        <time>2020-09-01T10:02:11.359Z</time>
      </trkpt>
      <trkpt lat="42.49583" lon="2.54775">
        <ele>1252.3</ele>
        <time>2020-09-01T10:02:12.694Z</time>
      </trkpt>
      <trkpt lat="42.49581" lon="2.54775">
        <ele>1252</ele>
        <time>2020-09-01T10:02:13.411Z</time>
      </trkpt>
      <trkpt lat="42.49578" lon="2.54777">
        <ele>1251.6</ele>
        <time>2020-09-01T10:02:14.608Z</time>
      </trkpt>
      <trkpt lat="42.49577" lon="2.54777">
        <ele>1251.4</ele>
        <time>2020-09-01T10:02:14.966Z</time>
      </trkpt>
      <trkpt lat="42.49575" lon="2.54779">
        <ele>1250.9</ele>
        <time>2020-09-01T10:02:15.856Z</time>
      </trkpt>
      <trkpt lat="42.49573" lon="2.54781">
        <ele>1250.6</ele>
        <time>2020-09-01T10:02:16.746Z</time>
      </trkpt>
      <trkpt lat="42.49572" lon="2.54782">
        <ele>1250.4</ele>
        <time>2020-09-01T10:02:17.191Z</time>
      </trkpt>
      <trkpt lat="42.4957" lon="2.54782">
        <ele>1250.1</ele>
        <time>2020-09-01T10:02:17.908Z</time>
      </trkpt>
      <trkpt lat="42.49568" lon="2.54781">
        <ele>1250</ele>
        <time>2020-09-01T10:02:18.730Z</time>
      </trkpt>
      <trkpt lat="42.49566" lon="2.5478">
        <ele>1249.9</ele>
        <time>2020-09-01T10:02:19.553Z</time>
      </trkpt>
      <trkpt lat="42.49565" lon="2.54782">
        <ele>1249.6</ele>
        <time>2020-09-01T10:02:20.191Z</time>
      </trkpt>
      <trkpt lat="42.49564" lon="2.54785">
        <ele>1249.3</ele>
        <time>2020-09-01T10:02:21.061Z</time>
      </trkpt>
      <trkpt lat="42.49562" lon="2.54786">
        <ele>1249</ele>
        <time>2020-09-01T10:02:21.824Z</time>
      </trkpt>
      <trkpt lat="42.4956" lon="2.54785">
        <ele>1248.8</ele>
        <time>2020-09-01T10:02:22.588Z</time>
      </trkpt>
      <trkpt lat="42.49558" lon="2.54786">
        <ele>1248.5</ele>
        <time>2020-09-01T10:02:23.351Z</time>
      </trkpt>
      <trkpt lat="42.49557" lon="2.54788">
        <ele>1248.3</ele>
        <time>2020-09-01T10:02:23.989Z</time>
      </trkpt>
      <trkpt lat="42.49556" lon="2.54791">
        <ele>1248.2</ele>
        <time>2020-09-01T10:02:24.976Z</time>
      </trkpt>
      <trkpt lat="42.49554" lon="2.54791">
        <ele>1248</ele>
        <time>2020-09-01T10:02:25.693Z</time>
      </trkpt>
      <trkpt lat="42.49551" lon="2.5479">
        <ele>1247.7</ele>
        <time>2020-09-01T10:02:26.799Z</time>
      </trkpt>
      <trkpt lat="42.4955" lon="2.54791">
        <ele>1247.5</ele>
        <time>2020-09-01T10:02:27.244Z</time>
      </trkpt>
      <trkpt lat="42.49548" lon="2.54793">
        <ele>1247.3</ele>
        <time>2020-09-01T10:02:28.134Z</time>
      </trkpt>
      <trkpt lat="42.49547" lon="2.54796">
        <ele>1247.3</ele>
        <time>2020-09-01T10:02:34.458Z</time>
      </trkpt>
      <trkpt lat="42.49547" lon="2.54799">
        <ele>1247.4</ele>
        <time>2020-09-01T10:02:44.227Z</time>
      </trkpt>
      <trkpt lat="42.49546" lon="2.54802">
        <ele>1247.5</ele>
        <time>2020-09-01T10:02:54.383Z</time>
      </trkpt>
      <trkpt lat="42.49546" lon="2.54805">
        <ele>1247.5</ele>
        <time>2020-09-01T10:03:00.145Z</time>
      </trkpt>
      <trkpt lat="42.49545" lon="2.54808">
        <ele>1247.5</ele>
        <time>2020-09-01T10:03:06.469Z</time>
      </trkpt>
      <trkpt lat="42.49543" lon="2.5481">
        <ele>1247.5</ele>
        <time>2020-09-01T10:03:12.942Z</time>
      </trkpt>
      <trkpt lat="42.49541" lon="2.54812">
        <ele>1247.4</ele>
        <time>2020-09-01T10:03:13.962Z</time>
      </trkpt>
      <trkpt lat="42.49539" lon="2.54814">
        <ele>1247.3</ele>
        <time>2020-09-01T10:03:14.982Z</time>
      </trkpt>
      <trkpt lat="42.49537" lon="2.54817">
        <ele>1247.3</ele>
        <time>2020-09-01T10:03:22.750Z</time>
      </trkpt>
      <trkpt lat="42.49535" lon="2.54819">
        <ele>1247.2</ele>
        <time>2020-09-01T10:03:23.770Z</time>
      </trkpt>
      <trkpt lat="42.49533" lon="2.54821">
        <ele>1247.1</ele>
        <time>2020-09-01T10:03:24.789Z</time>
      </trkpt>
      <trkpt lat="42.4953" lon="2.54822">
        <ele>1247</ele>
        <time>2020-09-01T10:03:26.159Z</time>
      </trkpt>
      <trkpt lat="42.49528" lon="2.54824">
        <ele>1247.1</ele>
        <time>2020-09-01T10:03:36.411Z</time>
      </trkpt>
      <trkpt lat="42.49526" lon="2.54827">
        <ele>1247.1</ele>
        <time>2020-09-01T10:03:44.180Z</time>
      </trkpt>
      <trkpt lat="42.49524" lon="2.54829">
        <ele>1247.1</ele>
        <time>2020-09-01T10:03:50.653Z</time>
      </trkpt>
      <trkpt lat="42.49521" lon="2.54829">
        <ele>1247</ele>
        <time>2020-09-01T10:03:51.970Z</time>
      </trkpt>
      <trkpt lat="42.49519" lon="2.54831">
        <ele>1247</ele>
        <time>2020-09-01T10:03:58.443Z</time>
      </trkpt>
      <trkpt lat="42.49517" lon="2.54831">
        <ele>1247.1</ele>
        <time>2020-09-01T10:04:07.554Z</time>
      </trkpt>
      <trkpt lat="42.49515" lon="2.54831">
        <ele>1247.1</ele>
        <time>2020-09-01T10:04:12.764Z</time>
      </trkpt>
      <trkpt lat="42.49512" lon="2.54832">
        <ele>1247.1</ele>
        <time>2020-09-01T10:04:20.811Z</time>
      </trkpt>
      <trkpt lat="42.49511" lon="2.54833">
        <ele>1247.2</ele>
        <time>2020-09-01T10:04:27.883Z</time>
      </trkpt>
      <trkpt lat="42.4951" lon="2.54835">
        <ele>1244.1</ele>
        <time>2020-09-01T10:04:28.522Z</time>
      </trkpt>
      <trkpt lat="42.49509" lon="2.54833">
        <ele>1247.3</ele>
        <time>2020-09-01T10:04:46.425Z</time>
      </trkpt>
      <trkpt lat="42.49508" lon="2.54831">
        <ele>1247.2</ele>
        <time>2020-09-01T10:04:47.060Z</time>
      </trkpt>
      <trkpt lat="42.49507" lon="2.54829">
        <ele>1247.2</ele>
        <time>2020-09-01T10:04:51.702Z</time>
      </trkpt>
      <trkpt lat="42.49506" lon="2.54826">
        <ele>1247.1</ele>
        <time>2020-09-01T10:04:52.689Z</time>
      </trkpt>
      <trkpt lat="42.49508" lon="2.54823">
        <ele>1246.8</ele>
        <time>2020-09-01T10:04:53.757Z</time>
      </trkpt>
      <trkpt lat="42.49509" lon="2.5482">
        <ele>1246.5</ele>
        <time>2020-09-01T10:04:54.626Z</time>
      </trkpt>
      <trkpt lat="42.49508" lon="2.54817">
        <ele>1246.2</ele>
        <time>2020-09-01T10:04:55.496Z</time>
      </trkpt>
      <trkpt lat="42.49508" lon="2.54813">
        <ele>1245.8</ele>
        <time>2020-09-01T10:04:56.552Z</time>
      </trkpt>
      <trkpt lat="42.4951" lon="2.54809">
        <ele>1245.4</ele>
        <time>2020-09-01T10:04:57.829Z</time>
      </trkpt>
      <trkpt lat="42.4951" lon="2.54804">
        <ele>1244.9</ele>
        <time>2020-09-01T10:04:59.149Z</time>
      </trkpt>
      <trkpt lat="42.49512" lon="2.54801">
        <ele>1244.6</ele>
        <time>2020-09-01T10:05:00.217Z</time>
      </trkpt>
      <trkpt lat="42.49513" lon="2.54797">
        <ele>1244.2</ele>
        <time>2020-09-01T10:05:01.333Z</time>
      </trkpt>
      <trkpt lat="42.49515" lon="2.54795">
        <ele>1243.9</ele>
        <time>2020-09-01T10:05:02.223Z</time>
      </trkpt>
      <trkpt lat="42.49515" lon="2.54791">
        <ele>1243.4</ele>
        <time>2020-09-01T10:05:03.279Z</time>
      </trkpt>
      <trkpt lat="42.49516" lon="2.54787">
        <ele>1242.8</ele>
        <time>2020-09-01T10:05:04.395Z</time>
      </trkpt>
      <trkpt lat="42.49515" lon="2.54781">
        <ele>1241.6</ele>
        <time>2020-09-01T10:05:06.019Z</time>
      </trkpt>
      <trkpt lat="42.49514" lon="2.54776">
        <ele>1240.4</ele>
        <time>2020-09-01T10:05:07.388Z</time>
      </trkpt>
      <trkpt lat="42.49515" lon="2.54773">
        <ele>1239.6</ele>
        <time>2020-09-01T10:05:08.257Z</time>
      </trkpt>
      <trkpt lat="42.49516" lon="2.5477">
        <ele>1239.2</ele>
        <time>2020-09-01T10:05:09.127Z</time>
      </trkpt>
      <trkpt lat="42.49517" lon="2.54766">
        <ele>1238.6</ele>
        <time>2020-09-01T10:05:10.242Z</time>
      </trkpt>
      <trkpt lat="42.49517" lon="2.54763">
        <ele>1237.7</ele>
        <time>2020-09-01T10:05:11.034Z</time>
      </trkpt>
      <trkpt lat="42.49518" lon="2.54758">
        <ele>1237.2</ele>
        <time>2020-09-01T10:05:12.403Z</time>
      </trkpt>
      <trkpt lat="42.4952" lon="2.54755">
        <ele>1237.3</ele>
        <time>2020-09-01T10:05:23.615Z</time>
      </trkpt>
      <trkpt lat="42.49521" lon="2.54752">
        <ele>1237.6</ele>
        <time>2020-09-01T10:05:44.967Z</time>
      </trkpt>
      <trkpt lat="42.49523" lon="2.5475">
        <ele>1228.7</ele>
        <time>2020-09-01T10:05:45.857Z</time>
      </trkpt>
      <trkpt lat="42.49525" lon="2.54747">
        <ele>1229</ele>
        <time>2020-09-01T10:06:06.177Z</time>
      </trkpt>
      <trkpt lat="42.49526" lon="2.54744">
        <ele>1229.2</ele>
        <time>2020-09-01T10:06:20.214Z</time>
      </trkpt>
      <trkpt lat="42.49527" lon="2.5474">
        <ele>1229.2</ele>
        <time>2020-09-01T10:06:28.326Z</time>
      </trkpt>
      <trkpt lat="42.49528" lon="2.54736">
        <ele>1229.3</ele>
        <time>2020-09-01T10:06:39.820Z</time>
      </trkpt>
      <trkpt lat="42.4953" lon="2.54732">
        <ele>1229.3</ele>
        <time>2020-09-01T10:06:49.103Z</time>
      </trkpt>
      <trkpt lat="42.4953" lon="2.54729">
        <ele>1229</ele>
        <time>2020-09-01T10:06:49.895Z</time>
      </trkpt>
      <trkpt lat="42.4953" lon="2.54725">
        <ele>1228.6</ele>
        <time>2020-09-01T10:06:50.951Z</time>
      </trkpt>
      <trkpt lat="42.49532" lon="2.54722">
        <ele>1228.6</ele>
        <time>2020-09-01T10:06:58.720Z</time>
      </trkpt>
      <trkpt lat="42.49534" lon="2.54719">
        <ele>1228.7</ele>
        <time>2020-09-01T10:07:09.932Z</time>
      </trkpt>
      <trkpt lat="42.49536" lon="2.54716">
        <ele>1228.9</ele>
        <time>2020-09-01T10:07:25.226Z</time>
      </trkpt>
      <trkpt lat="42.49539" lon="2.54714">
        <ele>1229.1</ele>
        <time>2020-09-01T10:07:41.501Z</time>
      </trkpt>
      <trkpt lat="42.49541" lon="2.5471">
        <ele>1229</ele>
        <time>2020-09-01T10:07:43.154Z</time>
      </trkpt>
      <trkpt lat="42.49543" lon="2.54707">
        <ele>1229.1</ele>
        <time>2020-09-01T10:07:54.367Z</time>
      </trkpt>
      <trkpt lat="42.49544" lon="2.54706">
        <ele>1229.2</ele>
        <time>2020-09-01T10:08:01.439Z</time>
      </trkpt>
      <trkpt lat="42.49546" lon="2.54704">
        <ele>1229.4</ele>
        <time>2020-09-01T10:08:15.583Z</time>
      </trkpt>
      <trkpt lat="42.49549" lon="2.547">
        <ele>1229.6</ele>
        <time>2020-09-01T10:08:34.442Z</time>
      </trkpt>
      <trkpt lat="42.49551" lon="2.54699">
        <ele>1230</ele>
        <time>2020-09-01T10:08:55.860Z</time>
      </trkpt>
      <trkpt lat="42.49553" lon="2.54696">
        <ele>1230.4</ele>
        <time>2020-09-01T10:09:25.824Z</time>
      </trkpt>
      <trkpt lat="42.49555" lon="2.54693">
        <ele>1230.7</ele>
        <time>2020-09-01T10:09:46.145Z</time>
      </trkpt>
      <trkpt lat="42.49558" lon="2.54689">
        <ele>1231</ele>
        <time>2020-09-01T10:10:08.417Z</time>
      </trkpt>
      <trkpt lat="42.49559" lon="2.54688">
        <ele>1231.3</ele>
        <time>2020-09-01T10:10:20.901Z</time>
      </trkpt>
      <trkpt lat="42.4956" lon="2.54685">
        <ele>1231.5</ele>
        <time>2020-09-01T10:10:34.938Z</time>
      </trkpt>
      <trkpt lat="42.49562" lon="2.54681">
        <ele>1231.9</ele>
        <time>2020-09-01T10:11:02.350Z</time>
      </trkpt>
      <trkpt lat="42.49562" lon="2.54679">
        <ele>1232.1</ele>
        <time>2020-09-01T10:11:17.168Z</time>
      </trkpt>
      <trkpt lat="42.49562" lon="2.54676">
        <ele>1232.3</ele>
        <time>2020-09-01T10:11:30.873Z</time>
      </trkpt>
      <trkpt lat="42.49564" lon="2.54673">
        <ele>1232.7</ele>
        <time>2020-09-01T10:12:00.837Z</time>
      </trkpt>
      <trkpt lat="42.49565" lon="2.5467">
        <ele>1233.4</ele>
        <time>2020-09-01T10:12:25.228Z</time>
      </trkpt>
      <trkpt lat="42.49567" lon="2.54667">
        <ele>1234</ele>
        <time>2020-09-01T10:12:55.192Z</time>
      </trkpt>
      <trkpt lat="42.49568" lon="2.54663">
        <ele>1222.8</ele>
        <time>2020-09-01T10:12:56.308Z</time>
      </trkpt>
      <trkpt lat="42.49569" lon="2.5466">
        <ele>1222.8</ele>
        <time>2020-09-01T10:13:02.632Z</time>
      </trkpt>
      <trkpt lat="42.4957" lon="2.54657">
        <ele>1222.4</ele>
        <time>2020-09-01T10:13:03.501Z</time>
      </trkpt>
      <trkpt lat="42.49571" lon="2.54654">
        <ele>1221.7</ele>
        <time>2020-09-01T10:13:04.371Z</time>
      </trkpt>
      <trkpt lat="42.49573" lon="2.54652">
        <ele>1221.5</ele>
        <time>2020-09-01T10:13:05.261Z</time>
      </trkpt>
      <trkpt lat="42.49573" lon="2.54649">
        <ele>1220.1</ele>
        <time>2020-09-01T10:13:06.053Z</time>
      </trkpt>
      <trkpt lat="42.49575" lon="2.54645">
        <ele>1218.1</ele>
        <time>2020-09-01T10:13:07.329Z</time>
      </trkpt>
      <trkpt lat="42.49575" lon="2.54642">
        <ele>1217</ele>
        <time>2020-09-01T10:13:08.122Z</time>
      </trkpt>
      <trkpt lat="42.49575" lon="2.5464">
        <ele>1216.1</ele>
        <time>2020-09-01T10:13:08.650Z</time>
      </trkpt>
      <trkpt lat="42.49576" lon="2.54636">
        <ele>1214.5</ele>
        <time>2020-09-01T10:13:09.765Z</time>
      </trkpt>
      <trkpt lat="42.49577" lon="2.54632">
        <ele>1213.3</ele>
        <time>2020-09-01T10:13:10.881Z</time>
      </trkpt>
      <trkpt lat="42.49576" lon="2.54628">
        <ele>1212.2</ele>
        <time>2020-09-01T10:13:11.996Z</time>
      </trkpt>
      <trkpt lat="42.49576" lon="2.54623">
        <ele>1211.1</ele>
        <time>2020-09-01T10:13:13.317Z</time>
      </trkpt>
      <trkpt lat="42.49577" lon="2.5462">
        <ele>1210.5</ele>
        <time>2020-09-01T10:13:14.186Z</time>
      </trkpt>
      <trkpt lat="42.49577" lon="2.54615">
        <ele>1210</ele>
        <time>2020-09-01T10:13:15.507Z</time>
      </trkpt>
      <trkpt lat="42.49577" lon="2.54613">
        <ele>1209.8</ele>
        <time>2020-09-01T10:13:16.035Z</time>
      </trkpt>
      <trkpt lat="42.49578" lon="2.54609">
        <ele>1209.8</ele>
        <time>2020-09-01T10:13:24.148Z</time>
      </trkpt>
      <trkpt lat="42.49578" lon="2.54605">
        <ele>1209.8</ele>
        <time>2020-09-01T10:13:31.831Z</time>
      </trkpt>
      <trkpt lat="42.49578" lon="2.54602">
        <ele>1209.9</ele>
        <time>2020-09-01T10:13:41.600Z</time>
      </trkpt>
      <trkpt lat="42.49578" lon="2.54598">
        <ele>1210.4</ele>
        <time>2020-09-01T10:14:11.234Z</time>
      </trkpt>
      <trkpt lat="42.49578" lon="2.54596">
        <ele>1210.9</ele>
        <time>2020-09-01T10:14:26.052Z</time>
      </trkpt>
      <trkpt lat="42.4958" lon="2.54592">
        <ele>1212.2</ele>
        <time>2020-09-01T10:15:01.858Z</time>
      </trkpt>
      <trkpt lat="42.49582" lon="2.54589">
        <ele>1213.3</ele>
        <time>2020-09-01T10:15:31.822Z</time>
      </trkpt>
      <trkpt lat="42.49583" lon="2.54584">
        <ele>1215.4</ele>
        <time>2020-09-01T10:16:10.203Z</time>
      </trkpt>
      <trkpt lat="42.49583" lon="2.54581">
        <ele>1212.5</ele>
        <time>2020-09-01T10:16:10.996Z</time>
      </trkpt>
      <trkpt lat="42.49584" lon="2.54578">
        <ele>1218.2</ele>
        <time>2020-09-01T10:16:35.387Z</time>
      </trkpt>
      <trkpt lat="42.49585" lon="2.54576">
        <ele>1219</ele>
        <time>2020-09-01T10:16:53.290Z</time>
      </trkpt>
      <trkpt lat="42.49586" lon="2.54574">
        <ele>1219.7</ele>
        <time>2020-09-01T10:17:11.193Z</time>
      </trkpt>
      <trkpt lat="42.49588" lon="2.5457">
        <ele>1220.7</ele>
        <time>2020-09-01T10:17:46.999Z</time>
      </trkpt>
      <trkpt lat="42.4959" lon="2.54567">
        <ele>1221.4</ele>
        <time>2020-09-01T10:18:16.963Z</time>
      </trkpt>
      <trkpt lat="42.49591" lon="2.54563">
        <ele>1221.9</ele>
        <time>2020-09-01T10:18:48.255Z</time>
      </trkpt>
      <trkpt lat="42.49594" lon="2.5456">
        <ele>1222.4</ele>
        <time>2020-09-01T10:19:25.707Z</time>
      </trkpt>
      <trkpt lat="42.49596" lon="2.54558">
        <ele>1222.7</ele>
        <time>2020-09-01T10:19:46.802Z</time>
      </trkpt>
      <trkpt lat="42.49599" lon="2.54556">
        <ele>1223.2</ele>
        <time>2020-09-01T10:20:20.391Z</time>
      </trkpt>
      <trkpt lat="42.49601" lon="2.54554">
        <ele>1223.6</ele>
        <time>2020-09-01T10:20:45.358Z</time>
      </trkpt>
      <trkpt lat="42.49603" lon="2.54551">
        <ele>1223.8</ele>
        <time>2020-09-01T10:21:00.652Z</time>
      </trkpt>
      <trkpt lat="42.49605" lon="2.54548">
        <ele>1223.9</ele>
        <time>2020-09-01T10:21:11.865Z</time>
      </trkpt>
      <trkpt lat="42.49607" lon="2.54545">
        <ele>1224</ele>
        <time>2020-09-01T10:21:23.077Z</time>
      </trkpt>
      <trkpt lat="42.4961" lon="2.54544">
        <ele>1224.7</ele>
        <time>2020-09-01T10:21:54.118Z</time>
      </trkpt>
      <trkpt lat="42.49613" lon="2.54543">
        <ele>1225.3</ele>
        <time>2020-09-01T10:22:25.159Z</time>
      </trkpt>
      <trkpt lat="42.49615" lon="2.5454">
        <ele>1225.7</ele>
        <time>2020-09-01T10:22:55.123Z</time>
      </trkpt>
      <trkpt lat="42.49617" lon="2.54537">
        <ele>1225.6</ele>
        <time>2020-09-01T10:22:56.430Z</time>
      </trkpt>
      <trkpt lat="42.49617" lon="2.54535">
        <ele>1225.4</ele>
        <time>2020-09-01T10:22:56.958Z</time>
      </trkpt>
      <trkpt lat="42.49619" lon="2.54532">
        <ele>1225.5</ele>
        <time>2020-09-01T10:23:08.171Z</time>
      </trkpt>
      <trkpt lat="42.4962" lon="2.54529">
        <ele>1225.7</ele>
        <time>2020-09-01T10:23:22.207Z</time>
      </trkpt>
      <trkpt lat="42.49622" lon="2.54526">
        <ele>1225.8</ele>
        <time>2020-09-01T10:23:33.419Z</time>
      </trkpt>
      <trkpt lat="42.49621" lon="2.54523">
        <ele>1225.1</ele>
        <time>2020-09-01T10:23:34.289Z</time>
      </trkpt>
      <trkpt lat="42.49621" lon="2.5452">
        <ele>1224.6</ele>
        <time>2020-09-01T10:23:35.081Z</time>
      </trkpt>
      <trkpt lat="42.4962" lon="2.54517">
        <ele>1223.5</ele>
        <time>2020-09-01T10:23:35.950Z</time>
      </trkpt>
      <trkpt lat="42.49619" lon="2.54511">
        <ele>1222.7</ele>
        <time>2020-09-01T10:23:37.575Z</time>
      </trkpt>
      <trkpt lat="42.49621" lon="2.54506">
        <ele>1222.9</ele>
        <time>2020-09-01T10:23:56.394Z</time>
      </trkpt>
      <trkpt lat="42.49621" lon="2.54502">
        <ele>1222.8</ele>
        <time>2020-09-01T10:23:57.682Z</time>
      </trkpt>
      <trkpt lat="42.49622" lon="2.54498">
        <ele>1213</ele>
        <time>2020-09-01T10:23:58.797Z</time>
      </trkpt>
      <trkpt lat="42.49622" lon="2.54495">
        <ele>1213</ele>
        <time>2020-09-01T10:24:04.559Z</time>
      </trkpt>
      <trkpt lat="42.49621" lon="2.54493">
        <ele>1212.8</ele>
        <time>2020-09-01T10:24:05.198Z</time>
      </trkpt>
      <trkpt lat="42.4962" lon="2.5449">
        <ele>1212.3</ele>
        <time>2020-09-01T10:24:06.067Z</time>
      </trkpt>
      <trkpt lat="42.49619" lon="2.54486">
        <ele>1211.7</ele>
        <time>2020-09-01T10:24:07.182Z</time>
      </trkpt>
      <trkpt lat="42.49618" lon="2.54483">
        <ele>1211</ele>
        <time>2020-09-01T10:24:08.052Z</time>
      </trkpt>
      <trkpt lat="42.49617" lon="2.54481">
        <ele>1210.5</ele>
        <time>2020-09-01T10:24:08.690Z</time>
      </trkpt>
      <trkpt lat="42.49617" lon="2.54476">
        <ele>1210.6</ele>
        <time>2020-09-01T10:24:21.469Z</time>
      </trkpt>
      <trkpt lat="42.49617" lon="2.54472">
        <ele>1210.5</ele>
        <time>2020-09-01T10:24:22.756Z</time>
      </trkpt>
      <trkpt lat="42.49618" lon="2.5447">
        <ele>1210.9</ele>
        <time>2020-09-01T10:24:40.659Z</time>
      </trkpt>
      <trkpt lat="42.49619" lon="2.54467">
        <ele>1211.4</ele>
        <time>2020-09-01T10:25:05.051Z</time>
      </trkpt>
      <trkpt lat="42.49622" lon="2.54464">
        <ele>1212</ele>
        <time>2020-09-01T10:25:42.503Z</time>
      </trkpt>
      <trkpt lat="42.49623" lon="2.54461">
        <ele>1212.2</ele>
        <time>2020-09-01T10:25:56.539Z</time>
      </trkpt>
      <trkpt lat="42.49623" lon="2.54457">
        <ele>1212.1</ele>
        <time>2020-09-01T10:25:57.826Z</time>
      </trkpt>
      <trkpt lat="42.49622" lon="2.54452">
        <ele>1211.5</ele>
        <time>2020-09-01T10:25:59.195Z</time>
      </trkpt>
      <trkpt lat="42.49622" lon="2.54448">
        <ele>1211.3</ele>
        <time>2020-09-01T10:26:00.251Z</time>
      </trkpt>
      <trkpt lat="42.49622" lon="2.54444">
        <ele>1211</ele>
        <time>2020-09-01T10:26:01.307Z</time>
      </trkpt>
      <trkpt lat="42.49622" lon="2.54441">
        <ele>1210.8</ele>
        <time>2020-09-01T10:26:02.100Z</time>
      </trkpt>
      <trkpt lat="42.49621" lon="2.54438">
        <ele>1210.1</ele>
        <time>2020-09-01T10:26:02.969Z</time>
      </trkpt>
      <trkpt lat="42.49621" lon="2.54435">
        <ele>1209.8</ele>
        <time>2020-09-01T10:26:03.761Z</time>
      </trkpt>
      <trkpt lat="42.49621" lon="2.54431">
        <ele>1209.4</ele>
        <time>2020-09-01T10:26:04.818Z</time>
      </trkpt>
      <trkpt lat="42.49621" lon="2.54428">
        <ele>1209.1</ele>
        <time>2020-09-01T10:26:05.610Z</time>
      </trkpt>
      <trkpt lat="42.49622" lon="2.54425">
        <ele>1209.4</ele>
        <time>2020-09-01T10:26:26.962Z</time>
      </trkpt>
      <trkpt lat="42.49622" lon="2.54423">
        <ele>1209.5</ele>
        <time>2020-09-01T10:26:34.566Z</time>
      </trkpt>
      <trkpt lat="42.49622" lon="2.5442">
        <ele>1209.5</ele>
        <time>2020-09-01T10:26:40.329Z</time>
      </trkpt>
      <trkpt lat="42.49622" lon="2.54417">
        <ele>1209.1</ele>
        <time>2020-09-01T10:26:41.121Z</time>
      </trkpt>
      <trkpt lat="42.49622" lon="2.54414">
        <ele>1204.1</ele>
        <time>2020-09-01T10:26:41.913Z</time>
      </trkpt>
      <trkpt lat="42.49623" lon="2.5441">
        <ele>1204.5</ele>
        <time>2020-09-01T10:27:11.100Z</time>
      </trkpt>
      <trkpt lat="42.49624" lon="2.54406">
        <ele>1205.3</ele>
        <time>2020-09-01T10:27:42.391Z</time>
      </trkpt>
      <trkpt lat="42.49625" lon="2.54402">
        <ele>1205.6</ele>
        <time>2020-09-01T10:28:02.760Z</time>
      </trkpt>
      <trkpt lat="42.49626" lon="2.54398">
        <ele>1206.2</ele>
        <time>2020-09-01T10:28:34.052Z</time>
      </trkpt>
      <trkpt lat="42.49627" lon="2.54395">
        <ele>1206.2</ele>
        <time>2020-09-01T10:28:40.375Z</time>
      </trkpt>
      <trkpt lat="42.49626" lon="2.54392">
        <ele>1205.6</ele>
        <time>2020-09-01T10:28:41.245Z</time>
      </trkpt>
      <trkpt lat="42.49625" lon="2.54389">
        <ele>1205.1</ele>
        <time>2020-09-01T10:28:42.114Z</time>
      </trkpt>
      <trkpt lat="42.49624" lon="2.54386">
        <ele>1204.8</ele>
        <time>2020-09-01T10:28:42.984Z</time>
      </trkpt>
      <trkpt lat="42.49624" lon="2.54381">
        <ele>1204.5</ele>
        <time>2020-09-01T10:28:44.304Z</time>
      </trkpt>
      <trkpt lat="42.49624" lon="2.54379">
        <ele>1204.5</ele>
        <time>2020-09-01T10:28:48.146Z</time>
      </trkpt>
      <trkpt lat="42.49623" lon="2.54376">
        <ele>1204</ele>
        <time>2020-09-01T10:28:49.015Z</time>
      </trkpt>
      <trkpt lat="42.49623" lon="2.54374">
        <ele>1203.8</ele>
        <time>2020-09-01T10:28:49.544Z</time>
      </trkpt>
      <trkpt lat="42.49622" lon="2.54371">
        <ele>1203.6</ele>
        <time>2020-09-01T10:28:50.413Z</time>
      </trkpt>
      <trkpt lat="42.49621" lon="2.54368">
        <ele>1203</ele>
        <time>2020-09-01T10:28:51.283Z</time>
      </trkpt>
      <trkpt lat="42.49621" lon="2.54365">
        <ele>1202.7</ele>
        <time>2020-09-01T10:28:52.075Z</time>
      </trkpt>
      <trkpt lat="42.4962" lon="2.54361">
        <ele>1202.4</ele>
        <time>2020-09-01T10:28:53.190Z</time>
      </trkpt>
      <trkpt lat="42.4962" lon="2.54357">
        <ele>1202.1</ele>
        <time>2020-09-01T10:28:54.247Z</time>
      </trkpt>
      <trkpt lat="42.49619" lon="2.54353">
        <ele>1201.6</ele>
        <time>2020-09-01T10:28:55.362Z</time>
      </trkpt>
      <trkpt lat="42.4962" lon="2.54349">
        <ele>1201.7</ele>
        <time>2020-09-01T10:29:06.855Z</time>
      </trkpt>
      <trkpt lat="42.49621" lon="2.54346">
        <ele>1202</ele>
        <time>2020-09-01T10:29:28.207Z</time>
      </trkpt>
      <trkpt lat="42.49621" lon="2.54342">
        <ele>1201.8</ele>
        <time>2020-09-01T10:29:29.263Z</time>
      </trkpt>
      <trkpt lat="42.4962" lon="2.54339">
        <ele>1201.3</ele>
        <time>2020-09-01T10:29:30.133Z</time>
      </trkpt>
      <trkpt lat="42.4962" lon="2.54336">
        <ele>1201</ele>
        <time>2020-09-01T10:29:30.925Z</time>
      </trkpt>
      <trkpt lat="42.4962" lon="2.54332">
        <ele>1201.6</ele>
        <time>2020-09-01T10:30:00.560Z</time>
      </trkpt>
      <trkpt lat="42.49621" lon="2.54329">
        <ele>1202</ele>
        <time>2020-09-01T10:30:24.951Z</time>
      </trkpt>
      <trkpt lat="42.49621" lon="2.54327">
        <ele>1202.3</ele>
        <time>2020-09-01T10:30:39.768Z</time>
      </trkpt>
      <trkpt lat="42.49621" lon="2.54325">
        <ele>1202.2</ele>
        <time>2020-09-01T10:30:40.297Z</time>
      </trkpt>
      <trkpt lat="42.49619" lon="2.54323">
        <ele>1201.8</ele>
        <time>2020-09-01T10:30:41.187Z</time>
      </trkpt>
      <trkpt lat="42.49617" lon="2.54324">
        <ele>1200.7</ele>
        <time>2020-09-01T10:30:41.950Z</time>
      </trkpt>
      <trkpt lat="42.49615" lon="2.54324">
        <ele>1199.6</ele>
        <time>2020-09-01T10:30:42.666Z</time>
      </trkpt>
      <trkpt lat="42.49614" lon="2.54321">
        <ele>1199.6</ele>
        <time>2020-09-01T10:30:48.990Z</time>
      </trkpt>
      <trkpt lat="42.49615" lon="2.54317">
        <ele>1200.1</ele>
        <time>2020-09-01T10:31:20.282Z</time>
      </trkpt>
      <trkpt lat="42.49614" lon="2.54314">
        <ele>1200.2</ele>
        <time>2020-09-01T10:31:30.438Z</time>
      </trkpt>
      <trkpt lat="42.49615" lon="2.5431">
        <ele>1200.9</ele>
        <time>2020-09-01T10:32:01.729Z</time>
      </trkpt>
      <trkpt lat="42.49615" lon="2.54307">
        <ele>1201.5</ele>
        <time>2020-09-01T10:32:23.955Z</time>
      </trkpt>
      <trkpt lat="42.49614" lon="2.54304">
        <ele>1201.6</ele>
        <time>2020-09-01T10:32:34.111Z</time>
      </trkpt>
      <trkpt lat="42.49613" lon="2.54302">
        <ele>1201.5</ele>
        <time>2020-09-01T10:32:34.746Z</time>
      </trkpt>
      <trkpt lat="42.49611" lon="2.54298">
        <ele>1201.2</ele>
        <time>2020-09-01T10:32:36.023Z</time>
      </trkpt>
      <trkpt lat="42.49609" lon="2.54296">
        <ele>1201.1</ele>
        <time>2020-09-01T10:32:37.042Z</time>
      </trkpt>
      <trkpt lat="42.49608" lon="2.54293">
        <ele>1201.1</ele>
        <time>2020-09-01T10:32:43.366Z</time>
      </trkpt>
      <trkpt lat="42.49607" lon="2.5429">
        <ele>1201</ele>
        <time>2020-09-01T10:32:44.353Z</time>
      </trkpt>
      <trkpt lat="42.49606" lon="2.54288">
        <ele>1200.9</ele>
        <time>2020-09-01T10:32:44.989Z</time>
      </trkpt>
      <trkpt lat="42.49604" lon="2.54284">
        <ele>1200.8</ele>
        <time>2020-09-01T10:32:46.642Z</time>
      </trkpt>
      <trkpt lat="42.49603" lon="2.5428">
        <ele>1200.5</ele>
        <time>2020-09-01T10:32:47.757Z</time>
      </trkpt>
      <trkpt lat="42.49602" lon="2.54278">
        <ele>1200.4</ele>
        <time>2020-09-01T10:32:48.392Z</time>
      </trkpt>
      <trkpt lat="42.49601" lon="2.54274">
        <ele>1200.1</ele>
        <time>2020-09-01T10:32:49.508Z</time>
      </trkpt>
      <trkpt lat="42.496" lon="2.54271">
        <ele>1199.7</ele>
        <time>2020-09-01T10:32:50.377Z</time>
      </trkpt>
      <trkpt lat="42.49598" lon="2.54267">
        <ele>1199.1</ele>
        <time>2020-09-01T10:32:51.654Z</time>
      </trkpt>
      <trkpt lat="42.49599" lon="2.54264">
        <ele>1198.9</ele>
        <time>2020-09-01T10:32:52.523Z</time>
      </trkpt>
      <trkpt lat="42.49598" lon="2.54261">
        <ele>1198.4</ele>
        <time>2020-09-01T10:32:53.393Z</time>
      </trkpt>
      <trkpt lat="42.49597" lon="2.54259">
        <ele>1197.9</ele>
        <time>2020-09-01T10:32:54.031Z</time>
      </trkpt>
      <trkpt lat="42.49595" lon="2.54257">
        <ele>1196.9</ele>
        <time>2020-09-01T10:32:54.921Z</time>
      </trkpt>
      <trkpt lat="42.49595" lon="2.54252">
        <ele>1196.5</ele>
        <time>2020-09-01T10:32:56.242Z</time>
      </trkpt>
      <trkpt lat="42.49594" lon="2.54251">
        <ele>1196</ele>
        <time>2020-09-01T10:32:56.687Z</time>
      </trkpt>
      <trkpt lat="42.49593" lon="2.54249">
        <ele>1198.7</ele>
        <time>2020-09-01T10:33:14.589Z</time>
      </trkpt>
      <trkpt lat="42.49592" lon="2.54248">
        <ele>1198.1</ele>
        <time>2020-09-01T10:33:15.034Z</time>
      </trkpt>
      <trkpt lat="42.4959" lon="2.54247">
        <ele>1197.1</ele>
        <time>2020-09-01T10:33:15.798Z</time>
      </trkpt>
      <trkpt lat="42.49591" lon="2.54243">
        <ele>1199</ele>
        <time>2020-09-01T10:33:47.090Z</time>
      </trkpt>
      <trkpt lat="42.49591" lon="2.54241">
        <ele>1200.2</ele>
        <time>2020-09-01T10:34:01.907Z</time>
      </trkpt>
      <trkpt lat="42.49592" lon="2.54236">
        <ele>1202.5</ele>
        <time>2020-09-01T10:34:40.289Z</time>
      </trkpt>
      <trkpt lat="42.4959" lon="2.54239">
        <ele>1200.7</ele>
        <time>2020-09-01T10:34:41.357Z</time>
      </trkpt>
      <trkpt lat="42.49588" lon="2.54241">
        <ele>1198.9</ele>
        <time>2020-09-01T10:34:42.247Z</time>
      </trkpt>
      <trkpt lat="42.49585" lon="2.54243">
        <ele>1197.1</ele>
        <time>2020-09-01T10:34:43.444Z</time>
      </trkpt>
      <trkpt lat="42.49584" lon="2.54245">
        <ele>1195.5</ele>
        <time>2020-09-01T10:34:44.082Z</time>
      </trkpt>
      <trkpt lat="42.49583" lon="2.54247">
        <ele>1194.3</ele>
        <time>2020-09-01T10:34:44.721Z</time>
      </trkpt>
      <trkpt lat="42.49581" lon="2.54248">
        <ele>1194.1</ele>
        <time>2020-09-01T10:34:45.484Z</time>
      </trkpt>
      <trkpt lat="42.4958" lon="2.5425">
        <ele>1194.6</ele>
        <time>2020-09-01T10:35:03.387Z</time>
      </trkpt>
      <trkpt lat="42.49577" lon="2.54252">
        <ele>1191.4</ele>
        <time>2020-09-01T10:35:04.584Z</time>
      </trkpt>
      <trkpt lat="42.49575" lon="2.54255">
        <ele>1191.6</ele>
        <time>2020-09-01T10:35:19.878Z</time>
      </trkpt>
      <trkpt lat="42.49573" lon="2.54256">
        <ele>1191.7</ele>
        <time>2020-09-01T10:35:29.395Z</time>
      </trkpt>
      <trkpt lat="42.49572" lon="2.54258">
        <ele>1191.8</ele>
        <time>2020-09-01T10:35:37.850Z</time>
      </trkpt>
      <trkpt lat="42.49568" lon="2.5426">
        <ele>1192</ele>
        <time>2020-09-01T10:35:56.885Z</time>
      </trkpt>
      <trkpt lat="42.49567" lon="2.54261">
        <ele>1192.1</ele>
        <time>2020-09-01T10:36:03.957Z</time>
      </trkpt>
      <trkpt lat="42.49566" lon="2.54264">
        <ele>1192</ele>
        <time>2020-09-01T10:36:04.944Z</time>
      </trkpt>
      <trkpt lat="42.49564" lon="2.54266">
        <ele>1192.1</ele>
        <time>2020-09-01T10:36:15.196Z</time>
      </trkpt>
      <trkpt lat="42.49563" lon="2.54269">
        <ele>1192.1</ele>
        <time>2020-09-01T10:36:21.520Z</time>
      </trkpt>
      <trkpt lat="42.49563" lon="2.54275">
        <ele>1191.6</ele>
        <time>2020-09-01T10:36:23.105Z</time>
      </trkpt>
      <trkpt lat="42.49561" lon="2.54279">
        <ele>1191.4</ele>
        <time>2020-09-01T10:36:24.375Z</time>
      </trkpt>
      <trkpt lat="42.4956" lon="2.54281">
        <ele>1191.3</ele>
        <time>2020-09-01T10:36:25.011Z</time>
      </trkpt>
      <trkpt lat="42.49558" lon="2.54283">
        <ele>1191.1</ele>
        <time>2020-09-01T10:36:25.901Z</time>
      </trkpt>
      <trkpt lat="42.49557" lon="2.54287">
        <ele>1190.8</ele>
        <time>2020-09-01T10:36:27.016Z</time>
      </trkpt>
      <trkpt lat="42.49556" lon="2.5429">
        <ele>1190.4</ele>
        <time>2020-09-01T10:36:27.886Z</time>
      </trkpt>
      <trkpt lat="42.49556" lon="2.54292">
        <ele>1190.3</ele>
        <time>2020-09-01T10:36:28.414Z</time>
      </trkpt>
      <trkpt lat="42.49554" lon="2.54296">
        <ele>1189.9</ele>
        <time>2020-09-01T10:36:29.690Z</time>
      </trkpt>
      <trkpt lat="42.49552" lon="2.54298">
        <ele>1189.8</ele>
        <time>2020-09-01T10:36:30.710Z</time>
      </trkpt>
      <trkpt lat="42.4955" lon="2.54299">
        <ele>1189.9</ele>
        <time>2020-09-01T10:36:40.227Z</time>
      </trkpt>
      <trkpt lat="42.49547" lon="2.54301">
        <ele>1189.9</ele>
        <time>2020-09-01T10:36:48.935Z</time>
      </trkpt>
      <trkpt lat="42.49545" lon="2.54303">
        <ele>1189.8</ele>
        <time>2020-09-01T10:36:49.955Z</time>
      </trkpt>
      <trkpt lat="42.49544" lon="2.54308">
        <ele>1189.2</ele>
        <time>2020-09-01T10:36:51.323Z</time>
      </trkpt>
      <trkpt lat="42.49542" lon="2.5431">
        <ele>1189.1</ele>
        <time>2020-09-01T10:36:52.343Z</time>
      </trkpt>
      <trkpt lat="42.49539" lon="2.54314">
        <ele>1188.9</ele>
        <time>2020-09-01T10:36:53.957Z</time>
      </trkpt>
      <trkpt lat="42.49539" lon="2.54316">
        <ele>1188.8</ele>
        <time>2020-09-01T10:36:54.485Z</time>
      </trkpt>
      <trkpt lat="42.49536" lon="2.54318">
        <ele>1188.7</ele>
        <time>2020-09-01T10:36:56.006Z</time>
      </trkpt>
      <trkpt lat="42.49535" lon="2.54322">
        <ele>1188.4</ele>
        <time>2020-09-01T10:36:57.121Z</time>
      </trkpt>
      <trkpt lat="42.49533" lon="2.54326">
        <ele>1188.1</ele>
        <time>2020-09-01T10:36:58.398Z</time>
      </trkpt>
      <trkpt lat="42.49533" lon="2.5433">
        <ele>1187.9</ele>
        <time>2020-09-01T10:36:59.454Z</time>
      </trkpt>
      <trkpt lat="42.49531" lon="2.54333">
        <ele>1187.7</ele>
        <time>2020-09-01T10:37:00.522Z</time>
      </trkpt>
      <trkpt lat="42.4953" lon="2.54334">
        <ele>1175.8</ele>
        <time>2020-09-01T10:37:00.967Z</time>
      </trkpt>
      <trkpt lat="42.49528" lon="2.54337">
        <ele>1176</ele>
        <time>2020-09-01T10:37:16.261Z</time>
      </trkpt>
      <trkpt lat="42.49525" lon="2.54339">
        <ele>1176.1</ele>
        <time>2020-09-01T10:37:28.256Z</time>
      </trkpt>
      <trkpt lat="42.49523" lon="2.54341">
        <ele>1176.3</ele>
        <time>2020-09-01T10:37:42.400Z</time>
      </trkpt>
      <trkpt lat="42.49521" lon="2.54346">
        <ele>1176</ele>
        <time>2020-09-01T10:37:43.902Z</time>
      </trkpt>
      <trkpt lat="42.49519" lon="2.54349">
        <ele>1175.8</ele>
        <time>2020-09-01T10:37:44.970Z</time>
      </trkpt>
      <trkpt lat="42.49517" lon="2.54352">
        <ele>1175.4</ele>
        <time>2020-09-01T10:37:46.039Z</time>
      </trkpt>
      <trkpt lat="42.49517" lon="2.54354">
        <ele>1175.1</ele>
        <time>2020-09-01T10:37:46.567Z</time>
      </trkpt>
      <trkpt lat="42.49517" lon="2.54358">
        <ele>1174.4</ele>
        <time>2020-09-01T10:37:47.623Z</time>
      </trkpt>
      <trkpt lat="42.49516" lon="2.54362">
        <ele>1173.6</ele>
        <time>2020-09-01T10:37:48.739Z</time>
      </trkpt>
      <trkpt lat="42.49516" lon="2.54364">
        <ele>1173.3</ele>
        <time>2020-09-01T10:37:49.267Z</time>
      </trkpt>
      <trkpt lat="42.49518" lon="2.54366">
        <ele>1172.8</ele>
        <time>2020-09-01T10:37:50.157Z</time>
      </trkpt>
      <trkpt lat="42.4952" lon="2.54368">
        <ele>1172.4</ele>
        <time>2020-09-01T10:37:51.047Z</time>
      </trkpt>
      <trkpt lat="42.4952" lon="2.54371">
        <ele>1171.9</ele>
        <time>2020-09-01T10:37:51.839Z</time>
      </trkpt>
      <trkpt lat="42.49519" lon="2.54375">
        <ele>1171.2</ele>
        <time>2020-09-01T10:37:52.955Z</time>
      </trkpt>
      <trkpt lat="42.49518" lon="2.54378">
        <ele>1170.5</ele>
        <time>2020-09-01T10:37:53.824Z</time>
      </trkpt>
      <trkpt lat="42.49517" lon="2.54382">
        <ele>1169.6</ele>
        <time>2020-09-01T10:37:54.940Z</time>
      </trkpt>
      <trkpt lat="42.49515" lon="2.54386">
        <ele>1168.7</ele>
        <time>2020-09-01T10:37:56.216Z</time>
      </trkpt>
      <trkpt lat="42.49514" lon="2.54388">
        <ele>1167.9</ele>
        <time>2020-09-01T10:37:56.854Z</time>
      </trkpt>
      <trkpt lat="42.49512" lon="2.54391">
        <ele>1167</ele>
        <time>2020-09-01T10:37:57.922Z</time>
      </trkpt>
      <trkpt lat="42.49511" lon="2.54395">
        <ele>1165.6</ele>
        <time>2020-09-01T10:37:59.038Z</time>
      </trkpt>
      <trkpt lat="42.49509" lon="2.54399">
        <ele>1164.4</ele>
        <time>2020-09-01T10:38:00.314Z</time>
      </trkpt>
      <trkpt lat="42.49508" lon="2.54401">
        <ele>1163.5</ele>
        <time>2020-09-01T10:38:00.953Z</time>
      </trkpt>
      <trkpt lat="42.49507" lon="2.54402">
        <ele>1162.6</ele>
        <time>2020-09-01T10:38:01.398Z</time>
      </trkpt>
      <trkpt lat="42.49504" lon="2.54404">
        <ele>1161.4</ele>
        <time>2020-09-01T10:38:02.595Z</time>
      </trkpt>
      <trkpt lat="42.49504" lon="2.54405">
        <ele>1160.7</ele>
        <time>2020-09-01T10:38:02.859Z</time>
      </trkpt>
      <trkpt lat="42.49504" lon="2.54409">
        <ele>1158.7</ele>
        <time>2020-09-01T10:38:03.915Z</time>
      </trkpt>
      <trkpt lat="42.49504" lon="2.54414">
        <ele>1156.4</ele>
        <time>2020-09-01T10:38:05.236Z</time>
      </trkpt>
      <trkpt lat="42.49503" lon="2.54418">
        <ele>1154.1</ele>
        <time>2020-09-01T10:38:06.351Z</time>
      </trkpt>
      <trkpt lat="42.49501" lon="2.54421">
        <ele>1154.4</ele>
        <time>2020-09-01T10:38:26.672Z</time>
      </trkpt>
      <trkpt lat="42.49501" lon="2.54422">
        <ele>1154.7</ele>
        <time>2020-09-01T10:38:34.081Z</time>
      </trkpt>
      <trkpt lat="42.495" lon="2.54427">
        <ele>1150.4</ele>
        <time>2020-09-01T10:38:35.449Z</time>
      </trkpt>
      <trkpt lat="42.49499" lon="2.54431">
        <ele>1149.4</ele>
        <time>2020-09-01T10:38:36.565Z</time>
      </trkpt>
      <trkpt lat="42.49498" lon="2.54433">
        <ele>1149</ele>
        <time>2020-09-01T10:38:37.203Z</time>
      </trkpt>
      <trkpt lat="42.49496" lon="2.54437">
        <ele>1148.3</ele>
        <time>2020-09-01T10:38:38.479Z</time>
      </trkpt>
      <trkpt lat="42.49494" lon="2.54441">
        <ele>1147.5</ele>
        <time>2020-09-01T10:38:39.756Z</time>
      </trkpt>
      <trkpt lat="42.49492" lon="2.54445">
        <ele>1146.7</ele>
        <time>2020-09-01T10:38:41.032Z</time>
      </trkpt>
      <trkpt lat="42.4949" lon="2.54447">
        <ele>1146.4</ele>
        <time>2020-09-01T10:38:41.922Z</time>
      </trkpt>
      <trkpt lat="42.49488" lon="2.5445">
        <ele>1145.9</ele>
        <time>2020-09-01T10:38:42.990Z</time>
      </trkpt>
      <trkpt lat="42.49487" lon="2.54452">
        <ele>1145.5</ele>
        <time>2020-09-01T10:38:43.628Z</time>
      </trkpt>
      <trkpt lat="42.49484" lon="2.54455">
        <ele>1145.1</ele>
        <time>2020-09-01T10:38:44.963Z</time>
      </trkpt>
      <trkpt lat="42.49481" lon="2.54458">
        <ele>1144.7</ele>
        <time>2020-09-01T10:38:46.299Z</time>
      </trkpt>
      <trkpt lat="42.49479" lon="2.54461">
        <ele>1144.3</ele>
        <time>2020-09-01T10:38:47.367Z</time>
      </trkpt>
      <trkpt lat="42.49476" lon="2.54462">
        <ele>1144</ele>
        <time>2020-09-01T10:38:48.473Z</time>
      </trkpt>
      <trkpt lat="42.49474" lon="2.54464">
        <ele>1143.8</ele>
        <time>2020-09-01T10:38:49.363Z</time>
      </trkpt>
      <trkpt lat="42.49473" lon="2.54466">
        <ele>1143.6</ele>
        <time>2020-09-01T10:38:50.001Z</time>
      </trkpt>
      <trkpt lat="42.49471" lon="2.54469">
        <ele>1143.1</ele>
        <time>2020-09-01T10:38:51.070Z</time>
      </trkpt>
      <trkpt lat="42.49469" lon="2.54472">
        <ele>1142.8</ele>
        <time>2020-09-01T10:38:52.138Z</time>
      </trkpt>
      <trkpt lat="42.49466" lon="2.54473">
        <ele>1142.5</ele>
        <time>2020-09-01T10:38:53.244Z</time>
      </trkpt>
      <trkpt lat="42.49465" lon="2.54478">
        <ele>1142</ele>
        <time>2020-09-01T10:38:54.612Z</time>
      </trkpt>
      <trkpt lat="42.49463" lon="2.54481">
        <ele>1141.6</ele>
        <time>2020-09-01T10:38:55.681Z</time>
      </trkpt>
      <trkpt lat="42.4946" lon="2.54483">
        <ele>1141.2</ele>
        <time>2020-09-01T10:38:56.878Z</time>
      </trkpt>
      <trkpt lat="42.49457" lon="2.54484">
        <ele>1141</ele>
        <time>2020-09-01T10:38:57.907Z</time>
      </trkpt>
      <trkpt lat="42.49455" lon="2.54486">
        <ele>1140.6</ele>
        <time>2020-09-01T10:38:58.797Z</time>
      </trkpt>
      <trkpt lat="42.49452" lon="2.54487">
        <ele>1140.2</ele>
        <time>2020-09-01T10:38:59.903Z</time>
      </trkpt>
      <trkpt lat="42.49449" lon="2.54487">
        <ele>1139.9</ele>
        <time>2020-09-01T10:39:00.978Z</time>
      </trkpt>
      <trkpt lat="42.49448" lon="2.54487">
        <ele>1139.8</ele>
        <time>2020-09-01T10:39:01.336Z</time>
      </trkpt>
      <trkpt lat="42.49444" lon="2.54489">
        <ele>1139</ele>
        <time>2020-09-01T10:39:02.863Z</time>
      </trkpt>
      <trkpt lat="42.49443" lon="2.54492">
        <ele>1138.3</ele>
        <time>2020-09-01T10:39:03.733Z</time>
      </trkpt>
      <trkpt lat="42.49441" lon="2.54494">
        <ele>1137.9</ele>
        <time>2020-09-01T10:39:04.623Z</time>
      </trkpt>
      <trkpt lat="42.49439" lon="2.54498">
        <ele>1137</ele>
        <time>2020-09-01T10:39:05.899Z</time>
      </trkpt>
      <trkpt lat="42.49437" lon="2.54502">
        <ele>1131.9</ele>
        <time>2020-09-01T10:39:07.175Z</time>
      </trkpt>
      <trkpt lat="42.49434" lon="2.54505">
        <ele>1131.4</ele>
        <time>2020-09-01T10:39:08.510Z</time>
      </trkpt>
      <trkpt lat="42.49432" lon="2.54508">
        <ele>1131.3</ele>
        <time>2020-09-01T10:39:09.817Z</time>
      </trkpt>
      <trkpt lat="42.49429" lon="2.54509">
        <ele>1131</ele>
        <time>2020-09-01T10:39:10.924Z</time>
      </trkpt>
      <trkpt lat="42.49427" lon="2.5451">
        <ele>1130.6</ele>
        <time>2020-09-01T10:39:11.687Z</time>
      </trkpt>
      <trkpt lat="42.49425" lon="2.54511">
        <ele>1130.4</ele>
        <time>2020-09-01T10:39:12.451Z</time>
      </trkpt>
      <trkpt lat="42.49422" lon="2.54512">
        <ele>1130.2</ele>
        <time>2020-09-01T10:39:13.479Z</time>
      </trkpt>
      <trkpt lat="42.4942" lon="2.54513">
        <ele>1130.4</ele>
        <time>2020-09-01T10:39:27.100Z</time>
      </trkpt>
      <trkpt lat="42.49419" lon="2.54515">
        <ele>1130.4</ele>
        <time>2020-09-01T10:39:31.742Z</time>
      </trkpt>
      <trkpt lat="42.49416" lon="2.54517">
        <ele>1122</ele>
        <time>2020-09-01T10:39:32.939Z</time>
      </trkpt>
      <trkpt lat="42.49414" lon="2.54517">
        <ele>1122</ele>
        <time>2020-09-01T10:39:38.149Z</time>
      </trkpt>
      <trkpt lat="42.49412" lon="2.54517">
        <ele>1121.8</ele>
        <time>2020-09-01T10:39:38.866Z</time>
      </trkpt>
      <trkpt lat="42.4941" lon="2.54518">
        <ele>1121.4</ele>
        <time>2020-09-01T10:39:39.629Z</time>
      </trkpt>
      <trkpt lat="42.49406" lon="2.5452">
        <ele>1120.8</ele>
        <time>2020-09-01T10:39:41.156Z</time>
      </trkpt>
      <trkpt lat="42.49404" lon="2.54522">
        <ele>1120.2</ele>
        <time>2020-09-01T10:39:42.046Z</time>
      </trkpt>
      <trkpt lat="42.49401" lon="2.54525">
        <ele>1119.6</ele>
        <time>2020-09-01T10:39:43.381Z</time>
      </trkpt>
      <trkpt lat="42.49398" lon="2.54528">
        <ele>1119</ele>
        <time>2020-09-01T10:39:44.716Z</time>
      </trkpt>
      <trkpt lat="42.49396" lon="2.54529">
        <ele>1118.8</ele>
        <time>2020-09-01T10:39:45.480Z</time>
      </trkpt>
      <trkpt lat="42.49394" lon="2.54531">
        <ele>1118.4</ele>
        <time>2020-09-01T10:39:46.370Z</time>
      </trkpt>
      <trkpt lat="42.49392" lon="2.54531">
        <ele>1118.2</ele>
        <time>2020-09-01T10:39:47.086Z</time>
      </trkpt>
      <trkpt lat="42.4939" lon="2.54532">
        <ele>1117.9</ele>
        <time>2020-09-01T10:39:47.850Z</time>
      </trkpt>
      <trkpt lat="42.49388" lon="2.54532">
        <ele>1117.7</ele>
        <time>2020-09-01T10:39:48.566Z</time>
      </trkpt>
      <trkpt lat="42.49385" lon="2.54533">
        <ele>1117.4</ele>
        <time>2020-09-01T10:39:49.673Z</time>
      </trkpt>
      <trkpt lat="42.49383" lon="2.54535">
        <ele>1117.1</ele>
        <time>2020-09-01T10:39:50.563Z</time>
      </trkpt>
      <trkpt lat="42.49381" lon="2.54536">
        <ele>1116.7</ele>
        <time>2020-09-01T10:39:51.326Z</time>
      </trkpt>
      <trkpt lat="42.49378" lon="2.54536">
        <ele>1116.5</ele>
        <time>2020-09-01T10:39:52.311Z</time>
      </trkpt>
      <trkpt lat="42.49376" lon="2.54537">
        <ele>1116.3</ele>
        <time>2020-09-01T10:39:53.074Z</time>
      </trkpt>
      <trkpt lat="42.49373" lon="2.54538">
        <ele>1115.9</ele>
        <time>2020-09-01T10:39:54.181Z</time>
      </trkpt>
      <trkpt lat="42.4937" lon="2.5454">
        <ele>1115.5</ele>
        <time>2020-09-01T10:39:55.378Z</time>
      </trkpt>
      <trkpt lat="42.49367" lon="2.54541">
        <ele>1115.1</ele>
        <time>2020-09-01T10:39:56.484Z</time>
      </trkpt>
      <trkpt lat="42.49364" lon="2.54542">
        <ele>1114.7</ele>
        <time>2020-09-01T10:39:57.591Z</time>
      </trkpt>
      <trkpt lat="42.49361" lon="2.54543">
        <ele>1114.3</ele>
        <time>2020-09-01T10:39:58.698Z</time>
      </trkpt>
      <trkpt lat="42.49358" lon="2.54543">
        <ele>1114</ele>
        <time>2020-09-01T10:39:59.772Z</time>
      </trkpt>
      <trkpt lat="42.49356" lon="2.54543">
        <ele>1113.8</ele>
        <time>2020-09-01T10:40:00.488Z</time>
      </trkpt>
      <trkpt lat="42.49353" lon="2.54544">
        <ele>1113.4</ele>
        <time>2020-09-01T10:40:01.595Z</time>
      </trkpt>
      <trkpt lat="42.4935" lon="2.54544">
        <ele>1113.2</ele>
        <time>2020-09-01T10:40:02.579Z</time>
      </trkpt>
      <trkpt lat="42.49348" lon="2.54544">
        <ele>1113</ele>
        <time>2020-09-01T10:40:03.296Z</time>
      </trkpt>
      <trkpt lat="42.49345" lon="2.54543">
        <ele>1113</ele>
        <time>2020-09-01T10:40:11.343Z</time>
      </trkpt>
      <trkpt lat="42.49342" lon="2.54543">
        <ele>1112.9</ele>
        <time>2020-09-01T10:40:12.661Z</time>
      </trkpt>
      <trkpt lat="42.49339" lon="2.54543">
        <ele>1112.8</ele>
        <time>2020-09-01T10:40:13.978Z</time>
      </trkpt>
      <trkpt lat="42.49337" lon="2.54543">
        <ele>1112.7</ele>
        <time>2020-09-01T10:40:14.729Z</time>
      </trkpt>
      <trkpt lat="42.49334" lon="2.54544">
        <ele>1112.4</ele>
        <time>2020-09-01T10:40:15.836Z</time>
      </trkpt>
      <trkpt lat="42.49331" lon="2.54544">
        <ele>1106.1</ele>
        <time>2020-09-01T10:40:16.910Z</time>
      </trkpt>
      <trkpt lat="42.49329" lon="2.54544">
        <ele>1106</ele>
        <time>2020-09-01T10:40:17.661Z</time>
      </trkpt>
      <trkpt lat="42.49326" lon="2.54544">
        <ele>1106</ele>
        <time>2020-09-01T10:40:25.476Z</time>
      </trkpt>
      <trkpt lat="42.49324" lon="2.54544">
        <ele>1105.9</ele>
        <time>2020-09-01T10:40:26.227Z</time>
      </trkpt>
      <trkpt lat="42.49322" lon="2.54545">
        <ele>1105.8</ele>
        <time>2020-09-01T10:40:27.050Z</time>
      </trkpt>
      <trkpt lat="42.4932" lon="2.54546">
        <ele>1105.5</ele>
        <time>2020-09-01T10:40:27.814Z</time>
      </trkpt>
      <trkpt lat="42.49317" lon="2.54547">
        <ele>1105.3</ele>
        <time>2020-09-01T10:40:28.842Z</time>
      </trkpt>
      <trkpt lat="42.49314" lon="2.54549">
        <ele>1105</ele>
        <time>2020-09-01T10:40:30.040Z</time>
      </trkpt>
      <trkpt lat="42.49311" lon="2.5455">
        <ele>1104.8</ele>
        <time>2020-09-01T10:40:31.068Z</time>
      </trkpt>
      <trkpt lat="42.49308" lon="2.54551">
        <ele>1104.6</ele>
        <time>2020-09-01T10:40:32.097Z</time>
      </trkpt>
      <trkpt lat="42.49305" lon="2.54552">
        <ele>1104.4</ele>
        <time>2020-09-01T10:40:33.126Z</time>
      </trkpt>
      <trkpt lat="42.49303" lon="2.54553">
        <ele>1104.1</ele>
        <time>2020-09-01T10:40:33.889Z</time>
      </trkpt>
      <trkpt lat="42.49299" lon="2.54555">
        <ele>1103.7</ele>
        <time>2020-09-01T10:40:35.416Z</time>
      </trkpt>
      <trkpt lat="42.49298" lon="2.54556">
        <ele>1103.6</ele>
        <time>2020-09-01T10:40:35.861Z</time>
      </trkpt>
      <trkpt lat="42.49296" lon="2.54557">
        <ele>1103.3</ele>
        <time>2020-09-01T10:40:36.625Z</time>
      </trkpt>
      <trkpt lat="42.49293" lon="2.54559">
        <ele>1102.8</ele>
        <time>2020-09-01T10:40:37.822Z</time>
      </trkpt>
      <trkpt lat="42.4929" lon="2.54561">
        <ele>1102.4</ele>
        <time>2020-09-01T10:40:39.020Z</time>
      </trkpt>
      <trkpt lat="42.49289" lon="2.54563">
        <ele>1102.1</ele>
        <time>2020-09-01T10:40:39.658Z</time>
      </trkpt>
      <trkpt lat="42.49286" lon="2.54564">
        <ele>1101.7</ele>
        <time>2020-09-01T10:40:40.764Z</time>
      </trkpt>
      <trkpt lat="42.49283" lon="2.54566">
        <ele>1101</ele>
        <time>2020-09-01T10:40:41.962Z</time>
      </trkpt>
      <trkpt lat="42.49282" lon="2.54567">
        <ele>1100.7</ele>
        <time>2020-09-01T10:40:42.407Z</time>
      </trkpt>
      <trkpt lat="42.49278" lon="2.54568">
        <ele>1100</ele>
        <time>2020-09-01T10:40:43.864Z</time>
      </trkpt>
      <trkpt lat="42.49275" lon="2.5457">
        <ele>1099.3</ele>
        <time>2020-09-01T10:40:45.061Z</time>
      </trkpt>
      <trkpt lat="42.49273" lon="2.54572">
        <ele>1098.5</ele>
        <time>2020-09-01T10:40:45.951Z</time>
      </trkpt>
      <trkpt lat="42.49271" lon="2.54574">
        <ele>1097.6</ele>
        <time>2020-09-01T10:40:46.841Z</time>
      </trkpt>
      <trkpt lat="42.49269" lon="2.54577">
        <ele>1096.7</ele>
        <time>2020-09-01T10:40:47.909Z</time>
      </trkpt>
      <trkpt lat="42.49268" lon="2.54579">
        <ele>1096.1</ele>
        <time>2020-09-01T10:40:48.547Z</time>
      </trkpt>
      <trkpt lat="42.49266" lon="2.5458">
        <ele>1095.1</ele>
        <time>2020-09-01T10:40:49.311Z</time>
      </trkpt>
      <trkpt lat="42.49263" lon="2.54581">
        <ele>1093.9</ele>
        <time>2020-09-01T10:40:50.417Z</time>
      </trkpt>
      <trkpt lat="42.4926" lon="2.54583">
        <ele>1092.6</ele>
        <time>2020-09-01T10:40:51.615Z</time>
      </trkpt>
      <trkpt lat="42.49259" lon="2.54584">
        <ele>1087.2</ele>
        <time>2020-09-01T10:40:52.060Z</time>
      </trkpt>
      <trkpt lat="42.49257" lon="2.54585">
        <ele>1087</ele>
        <time>2020-09-01T10:40:52.823Z</time>
      </trkpt>
      <trkpt lat="42.49253" lon="2.54586">
        <ele>1086.6</ele>
        <time>2020-09-01T10:40:54.280Z</time>
      </trkpt>
      <trkpt lat="42.4925" lon="2.54586">
        <ele>1086.4</ele>
        <time>2020-09-01T10:40:55.265Z</time>
      </trkpt>
      <trkpt lat="42.49247" lon="2.54587">
        <ele>1085.2</ele>
        <time>2020-09-01T10:40:56.371Z</time>
      </trkpt>
      <trkpt lat="42.49245" lon="2.54587">
        <ele>1085</ele>
        <time>2020-09-01T10:40:57.088Z</time>
      </trkpt>
      <trkpt lat="42.49242" lon="2.54589">
        <ele>1084.6</ele>
        <time>2020-09-01T10:40:58.285Z</time>
      </trkpt>
      <trkpt lat="42.4924" lon="2.54592">
        <ele>1084.2</ele>
        <time>2020-09-01T10:40:59.353Z</time>
      </trkpt>
      <trkpt lat="42.49238" lon="2.54595">
        <ele>1083.8</ele>
        <time>2020-09-01T10:41:00.421Z</time>
      </trkpt>
      <trkpt lat="42.49237" lon="2.54597">
        <ele>1083.6</ele>
        <time>2020-09-01T10:41:01.059Z</time>
      </trkpt>
      <trkpt lat="42.49235" lon="2.54598">
        <ele>1083.4</ele>
        <time>2020-09-01T10:41:01.823Z</time>
      </trkpt>
      <trkpt lat="42.4923" lon="2.54596">
        <ele>1083.5</ele>
        <time>2020-09-01T10:41:18.298Z</time>
      </trkpt>
      <trkpt lat="42.49229" lon="2.54595">
        <ele>1083.6</ele>
        <time>2020-09-01T10:41:25.370Z</time>
      </trkpt>
      <trkpt lat="42.49227" lon="2.54594">
        <ele>1083.7</ele>
        <time>2020-09-01T10:41:34.887Z</time>
      </trkpt>
      <trkpt lat="42.49225" lon="2.54593">
        <ele>1083.7</ele>
        <time>2020-09-01T10:41:40.440Z</time>
      </trkpt>
      <trkpt lat="42.49222" lon="2.54592">
        <ele>1083.9</ele>
        <time>2020-09-01T10:41:56.016Z</time>
      </trkpt>
      <trkpt lat="42.4922" lon="2.54592">
        <ele>1083.9</ele>
        <time>2020-09-01T10:42:01.226Z</time>
      </trkpt>
      <trkpt lat="42.49217" lon="2.54592">
        <ele>1084</ele>
        <time>2020-09-01T10:42:12.476Z</time>
      </trkpt>
      <trkpt lat="42.49216" lon="2.54594">
        <ele>1084</ele>
        <time>2020-09-01T10:42:17.118Z</time>
      </trkpt>
      <trkpt lat="42.49214" lon="2.54596">
        <ele>1083.9</ele>
        <time>2020-09-01T10:42:18.137Z</time>
      </trkpt>
      <trkpt lat="42.4921" lon="2.54596">
        <ele>1084.1</ele>
        <time>2020-09-01T10:42:36.357Z</time>
      </trkpt>
      <trkpt lat="42.49206" lon="2.54596">
        <ele>1084.5</ele>
        <time>2020-09-01T10:43:03.455Z</time>
      </trkpt>
      <trkpt lat="42.49204" lon="2.54595">
        <ele>1084.8</ele>
        <time>2020-09-01T10:43:24.873Z</time>
      </trkpt>
      <trkpt lat="42.49201" lon="2.54595">
        <ele>1085.3</ele>
        <time>2020-09-01T10:43:55.017Z</time>
      </trkpt>
      <trkpt lat="42.49199" lon="2.54595">
        <ele>1085.6</ele>
        <time>2020-09-01T10:44:15.113Z</time>
      </trkpt>
      <trkpt lat="42.49197" lon="2.54594">
        <ele>1086</ele>
        <time>2020-09-01T10:44:36.532Z</time>
      </trkpt>
      <trkpt lat="42.49195" lon="2.54593">
        <ele>1086.5</ele>
        <time>2020-09-01T10:44:57.950Z</time>
      </trkpt>
      <trkpt lat="42.49193" lon="2.54593">
        <ele>1087.1</ele>
        <time>2020-09-01T10:45:18.046Z</time>
      </trkpt>
      <trkpt lat="42.4919" lon="2.54593">
        <ele>1087.6</ele>
        <time>2020-09-01T10:45:48.190Z</time>
      </trkpt>
      <trkpt lat="42.49187" lon="2.54594">
        <ele>1088.1</ele>
        <time>2020-09-01T10:46:19.231Z</time>
      </trkpt>
      <trkpt lat="42.49185" lon="2.54594">
        <ele>1088.7</ele>
        <time>2020-09-01T10:46:39.327Z</time>
      </trkpt>
      <trkpt lat="42.49184" lon="2.54593">
        <ele>1089.3</ele>
        <time>2020-09-01T10:46:51.811Z</time>
      </trkpt>
      <trkpt lat="42.49177" lon="2.54592">
        <ele>1092.2</ele>
        <time>2020-09-01T10:48:02.536Z</time>
      </trkpt>
      <trkpt lat="42.49126" lon="2.54591">
        <ele>1088.8</ele>
        <time>2020-09-01T10:48:19.274Z</time>
      </trkpt>
      <trkpt lat="42.49086" lon="2.54591">
        <ele>1099.9</ele>
        <time>2020-09-01T10:55:01.194Z</time>
      </trkpt>
      <trkpt lat="42.49027" lon="2.54583">
        <ele>1125.2</ele>
        <time>2020-09-01T11:04:56.981Z</time>
      </trkpt>
      <trkpt lat="42.48976" lon="2.54565">
        <ele>1127.9</ele>
        <time>2020-09-01T11:08:58.985Z</time>
      </trkpt>
      <trkpt lat="42.4894" lon="2.54552">
        <ele>1128.5</ele>
        <time>2020-09-01T11:10:52.829Z</time>
      </trkpt>
      <trkpt lat="42.48912" lon="2.54536">
        <ele>1123.5</ele>
        <time>2020-09-01T11:11:03.712Z</time>
      </trkpt>
      <trkpt lat="42.48899" lon="2.54524">
        <ele>1126</ele>
        <time>2020-09-01T11:13:41.725Z</time>
        <extensions>
          <visugpx:TrkExtension xmlns:visugpx="https://www.visugpx.com/editgpx/">
            <visugpx:node>4</visugpx:node>
            </visugpx:TrkExtension>
        </extensions>
      </trkpt>
      <trkpt lat="42.48892" lon="2.54518">
        <ele>1126.2</ele>
        <time>2020-09-01T11:14:09.425Z</time>
      </trkpt>
      <trkpt lat="42.48874" lon="2.5449">
        <ele>1145.3</ele>
        <time>2020-09-01T11:18:44.659Z</time>
      </trkpt>
      <trkpt lat="42.48859" lon="2.54464">
        <ele>1147.6</ele>
        <time>2020-09-01T11:21:21.155Z</time>
      </trkpt>
      <trkpt lat="42.48841" lon="2.54421">
        <ele>1154.7</ele>
        <time>2020-09-01T11:27:27.521Z</time>
      </trkpt>
      <trkpt lat="42.48831" lon="2.54405">
        <ele>1162.1</ele>
        <time>2020-09-01T11:30:02.927Z</time>
      </trkpt>
      <trkpt lat="42.48814" lon="2.54395">
        <ele>1167</ele>
        <time>2020-09-01T11:33:09.121Z</time>
      </trkpt>
      <trkpt lat="42.488" lon="2.5439">
        <ele>1168.8</ele>
        <time>2020-09-01T11:35:17.677Z</time>
      </trkpt>
      <trkpt lat="42.4877" lon="2.54385">
        <ele>1169.3</ele>
        <time>2020-09-01T11:36:50.477Z</time>
      </trkpt>
      <trkpt lat="42.48732" lon="2.54383">
        <ele>1161.1</ele>
        <time>2020-09-01T11:37:04.099Z</time>
      </trkpt>
      <trkpt lat="42.48718" lon="2.54378">
        <ele>1160.2</ele>
        <time>2020-09-01T11:37:09.017Z</time>
      </trkpt>
      <trkpt lat="42.48707" lon="2.54365">
        <ele>1160</ele>
        <time>2020-09-01T11:37:17.016Z</time>
      </trkpt>
      <trkpt lat="42.48697" lon="2.54343">
        <ele>1159.7</ele>
        <time>2020-09-01T11:37:27.200Z</time>
      </trkpt>
      <trkpt lat="42.48688" lon="2.54317">
        <ele>1171.9</ele>
        <time>2020-09-01T11:41:00.021Z</time>
      </trkpt>
      <trkpt lat="42.48682" lon="2.5429">
        <ele>1177.3</ele>
        <time>2020-09-01T11:44:28.970Z</time>
      </trkpt>
      <trkpt lat="42.48675" lon="2.54248">
        <ele>1187.1</ele>
        <time>2020-09-01T11:49:48.028Z</time>
      </trkpt>
      <trkpt lat="42.4867" lon="2.54189">
        <ele>1207.2</ele>
        <time>2020-09-01T11:57:08.080Z</time>
      </trkpt>
      <trkpt lat="42.48668" lon="2.54171">
        <ele>1208.2</ele>
        <time>2020-09-01T11:58:20.915Z</time>
      </trkpt>
      <trkpt lat="42.48664" lon="2.5416">
        <ele>1211.8</ele>
        <time>2020-09-01T11:59:51.793Z</time>
      </trkpt>
      <trkpt lat="42.48651" lon="2.54148">
        <ele>1217.3</ele>
        <time>2020-09-01T12:02:29.808Z</time>
      </trkpt>
      <trkpt lat="42.48594" lon="2.54107">
        <ele>1226.3</ele>
        <time>2020-09-01T12:13:18.130Z</time>
      </trkpt>
      <trkpt lat="42.48564" lon="2.54092">
        <ele>1218.7</ele>
        <time>2020-09-01T12:13:29.583Z</time>
      </trkpt>
      <trkpt lat="42.48537" lon="2.54084">
        <ele>1210.6</ele>
        <time>2020-09-01T12:13:39.482Z</time>
      </trkpt>
      <trkpt lat="42.48525" lon="2.54074">
        <ele>1222.1</ele>
        <time>2020-09-01T12:16:01.007Z</time>
      </trkpt>
      <trkpt lat="42.48515" lon="2.54066">
        <ele>1220.7</ele>
        <time>2020-09-01T12:16:05.165Z</time>
      </trkpt>
      <trkpt lat="42.48511" lon="2.54056">
        <ele>1222.6</ele>
        <time>2020-09-01T12:17:29.463Z</time>
      </trkpt>
      <trkpt lat="42.48511" lon="2.54042">
        <ele>1225.3</ele>
        <time>2020-09-01T12:19:13.202Z</time>
      </trkpt>
      <trkpt lat="42.48512" lon="2.54027">
        <ele>1226.9</ele>
        <time>2020-09-01T12:21:04.804Z</time>
      </trkpt>
      <trkpt lat="42.48514" lon="2.54002">
        <ele>1226.7</ele>
        <time>2020-09-01T12:21:15.360Z</time>
      </trkpt>
      <trkpt lat="42.48519" lon="2.53964">
        <ele>1246</ele>
        <time>2020-09-01T12:26:01.384Z</time>
      </trkpt>
      <trkpt lat="42.48526" lon="2.53946">
        <ele>1250</ele>
        <time>2020-09-01T12:28:32.172Z</time>
      </trkpt>
      <trkpt lat="42.48531" lon="2.53936">
        <ele>1251.7</ele>
        <time>2020-09-01T12:30:01.697Z</time>
      </trkpt>
      <trkpt lat="42.48531" lon="2.53926">
        <ele>1252.4</ele>
        <time>2020-09-01T12:30:49.299Z</time>
      </trkpt>
      <trkpt lat="42.48522" lon="2.53914">
        <ele>1267</ele>
        <time>2020-09-01T12:32:56.124Z</time>
      </trkpt>
      <trkpt lat="42.48503" lon="2.53908">
        <ele>1260.2</ele>
        <time>2020-09-01T12:33:03.111Z</time>
      </trkpt>
      <trkpt lat="42.48478" lon="2.53906">
        <ele>1263.8</ele>
        <time>2020-09-01T12:37:14.748Z</time>
      </trkpt>
      <trkpt lat="42.48456" lon="2.53907">
        <ele>1265.8</ele>
        <time>2020-09-01T12:39:31.670Z</time>
      </trkpt>
      <trkpt lat="42.48424" lon="2.53912">
        <ele>1258.9</ele>
        <time>2020-09-01T12:39:43.208Z</time>
      </trkpt>
      <trkpt lat="42.48386" lon="2.53921">
        <ele>1249.3</ele>
        <time>2020-09-01T12:39:57.025Z</time>
      </trkpt>
      <trkpt lat="42.4836" lon="2.53928">
        <ele>1252.7</ele>
        <time>2020-09-01T12:44:04.859Z</time>
      </trkpt>
      <trkpt lat="42.48321" lon="2.53941">
        <ele>1260.8</ele>
        <time>2020-09-01T12:50:48.398Z</time>
      </trkpt>
      <trkpt lat="42.48273" lon="2.53957">
        <ele>1258.7</ele>
        <time>2020-09-01T12:51:08.257Z</time>
      </trkpt>
      <trkpt lat="42.48257" lon="2.53961">
        <ele>1258.4</ele>
        <time>2020-09-01T12:51:16.671Z</time>
      </trkpt>
      <trkpt lat="42.48239" lon="2.53963">
        <ele>1263.2</ele>
        <time>2020-09-01T12:54:18.141Z</time>
      </trkpt>
      <trkpt lat="42.48214" lon="2.53961">
        <ele>1264.3</ele>
        <time>2020-09-01T12:56:07.297Z</time>
      </trkpt>
      <trkpt lat="42.48187" lon="2.53967">
        <ele>1264.9</ele>
        <time>2020-09-01T12:57:36.487Z</time>
        <extensions>
          <visugpx:TrkExtension xmlns:visugpx="https://www.visugpx.com/editgpx/">
            <visugpx:node>5</visugpx:node>
            </visugpx:TrkExtension>
        </extensions>
      </trkpt>
      <trkpt lat="42.48179" lon="2.53969">
        <ele>1265.1</ele>
        <time>2020-09-01T12:58:03.838Z</time>
      </trkpt>
      <trkpt lat="42.48173" lon="2.53939">
        <ele>1266.4</ele>
        <time>2020-09-01T12:59:53.059Z</time>
      </trkpt>
      <trkpt lat="42.48157" lon="2.53849">
        <ele>1272.7</ele>
        <time>2020-09-01T13:07:03.197Z</time>
      </trkpt>
      <trkpt lat="42.4815" lon="2.53819">
        <ele>1280.1</ele>
        <time>2020-09-01T13:10:56.369Z</time>
      </trkpt>
      <trkpt lat="42.48139" lon="2.53778">
        <ele>1282.1</ele>
        <time>2020-09-01T13:13:35.618Z</time>
      </trkpt>
      <trkpt lat="42.48128" lon="2.53741">
        <ele>1294.7</ele>
        <time>2020-09-01T13:18:31.242Z</time>
      </trkpt>
      <trkpt lat="42.48109" lon="2.53714">
        <ele>1293.1</ele>
        <time>2020-09-01T13:18:40.897Z</time>
      </trkpt>
      <trkpt lat="42.48094" lon="2.53682">
        <ele>1293.5</ele>
        <time>2020-09-01T13:20:04.727Z</time>
      </trkpt>
      <trkpt lat="42.4808" lon="2.53662">
        <ele>1289.1</ele>
        <time>2020-09-01T13:20:12.011Z</time>
      </trkpt>
      <trkpt lat="42.48074" lon="2.5365">
        <ele>1288.2</ele>
        <time>2020-09-01T13:20:15.841Z</time>
      </trkpt>
      <trkpt lat="42.48059" lon="2.53606">
        <ele>1292.5</ele>
        <time>2020-09-01T13:25:17.674Z</time>
        <extensions>
          <visugpx:TrkExtension xmlns:visugpx="https://www.visugpx.com/editgpx/">
            <visugpx:node>6</visugpx:node>
            </visugpx:TrkExtension>
        </extensions>
      </trkpt>
      <trkpt lat="42.48052" lon="2.53587">
        <ele>1293.1</ele>
        <time>2020-09-01T13:26:20.534Z</time>
      </trkpt>
      <trkpt lat="42.48039" lon="2.53558">
        <ele>1300.7</ele>
        <time>2020-09-01T13:30:32.022Z</time>
      </trkpt>
      <trkpt lat="42.48029" lon="2.53539">
        <ele>1299.7</ele>
        <time>2020-09-01T13:30:38.064Z</time>
      </trkpt>
      <trkpt lat="42.48024" lon="2.53522">
        <ele>1298.5</ele>
        <time>2020-09-01T13:30:42.899Z</time>
      </trkpt>
      <trkpt lat="42.48021" lon="2.53503">
        <ele>1296.4</ele>
        <time>2020-09-01T13:30:48.032Z</time>
      </trkpt>
      <trkpt lat="42.48021" lon="2.53483">
        <ele>1299</ele>
        <time>2020-09-01T13:33:16.242Z</time>
      </trkpt>
      <trkpt lat="42.48028" lon="2.53459">
        <ele>1301.5</ele>
        <time>2020-09-01T13:36:21.886Z</time>
      </trkpt>
      <trkpt lat="42.48044" lon="2.53425">
        <ele>1305.7</ele>
        <time>2020-09-01T13:41:20.765Z</time>
      </trkpt>
      <trkpt lat="42.48064" lon="2.5338">
        <ele>1302</ele>
        <time>2020-09-01T13:41:34.644Z</time>
      </trkpt>
      <trkpt lat="42.48069" lon="2.53367">
        <ele>1302.1</ele>
        <time>2020-09-01T13:42:05.419Z</time>
      </trkpt>
      <trkpt lat="42.48074" lon="2.53357">
        <ele>1303.3</ele>
        <time>2020-09-01T13:43:34.948Z</time>
      </trkpt>
      <trkpt lat="42.48083" lon="2.53326">
        <ele>1319.9</ele>
        <time>2020-09-01T13:47:41.831Z</time>
      </trkpt>
      <trkpt lat="42.48093" lon="2.533">
        <ele>1326.1</ele>
        <time>2020-09-01T13:51:19.129Z</time>
      </trkpt>
      <trkpt lat="42.48097" lon="2.53294">
        <ele>1326.4</ele>
        <time>2020-09-01T13:51:46.352Z</time>
      </trkpt>
      <trkpt lat="42.48101" lon="2.53287">
        <ele>1326.1</ele>
        <time>2020-09-01T13:51:48.894Z</time>
      </trkpt>
      <trkpt lat="42.48117" lon="2.53266">
        <ele>1328.1</ele>
        <time>2020-09-01T13:54:06.126Z</time>
      </trkpt>
      <trkpt lat="42.48123" lon="2.53257">
        <ele>1330.2</ele>
        <time>2020-09-01T13:55:36.030Z</time>
      </trkpt>
      <trkpt lat="42.48138" lon="2.53228">
        <ele>1326.1</ele>
        <time>2020-09-01T13:55:45.387Z</time>
      </trkpt>
      <trkpt lat="42.48152" lon="2.53187">
        <ele>1328</ele>
        <time>2020-09-01T13:58:24.485Z</time>
      </trkpt>
      <trkpt lat="42.48156" lon="2.53173">
        <ele>1332.2</ele>
        <time>2020-09-01T14:00:15.743Z</time>
      </trkpt>
      <trkpt lat="42.48161" lon="2.53136">
        <ele>1323.9</ele>
        <time>2020-09-01T14:00:25.680Z</time>
      </trkpt>
      <trkpt lat="42.48164" lon="2.53111">
        <ele>1325.2</ele>
        <time>2020-09-01T14:02:03.300Z</time>
      </trkpt>
      <trkpt lat="42.48163" lon="2.53094">
        <ele>1332.5</ele>
        <time>2020-09-01T14:04:09.676Z</time>
      </trkpt>
      <trkpt lat="42.4816" lon="2.5306">
        <ele>1324.8</ele>
        <time>2020-09-01T14:04:18.721Z</time>
      </trkpt>
      <trkpt lat="42.48159" lon="2.53024">
        <ele>1323.2</ele>
        <time>2020-09-01T14:04:27.887Z</time>
      </trkpt>
      <trkpt lat="42.48161" lon="2.52995">
        <ele>1330.2</ele>
        <time>2020-09-01T14:08:03.724Z</time>
      </trkpt>
      <trkpt lat="42.48167" lon="2.52974">
        <ele>1348.5</ele>
        <time>2020-09-01T14:10:50.611Z</time>
      </trkpt>
      <trkpt lat="42.48175" lon="2.52955">
        <ele>1348.7</ele>
        <time>2020-09-01T14:11:38.028Z</time>
      </trkpt>
      <trkpt lat="42.48202" lon="2.5291">
        <ele>1343.9</ele>
        <time>2020-09-01T14:11:53.352Z</time>
      </trkpt>
      <trkpt lat="42.48215" lon="2.52887">
        <ele>1347</ele>
        <time>2020-09-01T14:15:28.087Z</time>
      </trkpt>
      <trkpt lat="42.48224" lon="2.52866">
        <ele>1347.6</ele>
        <time>2020-09-01T14:16:35.403Z</time>
      </trkpt>
      <trkpt lat="42.48232" lon="2.5284">
        <ele>1350.2</ele>
        <time>2020-09-01T14:19:41.822Z</time>
      </trkpt>
      <trkpt lat="42.48236" lon="2.52831">
        <ele>1350.1</ele>
        <time>2020-09-01T14:19:46.114Z</time>
      </trkpt>
      <trkpt lat="42.48244" lon="2.52823">
        <ele>1351.7</ele>
        <time>2020-09-01T14:21:25.993Z</time>
      </trkpt>
      <trkpt lat="42.48257" lon="2.52816">
        <ele>1370.7</ele>
        <time>2020-09-01T14:23:46.540Z</time>
      </trkpt>
      <trkpt lat="42.48263" lon="2.5281">
        <ele>1373.7</ele>
        <time>2020-09-01T14:25:01.449Z</time>
      </trkpt>
      <trkpt lat="42.48268" lon="2.52803">
        <ele>1376.1</ele>
        <time>2020-09-01T14:26:13.662Z</time>
      </trkpt>
      <trkpt lat="42.4827" lon="2.52797">
        <ele>1377.2</ele>
        <time>2020-09-01T14:27:02.454Z</time>
      </trkpt>
      <trkpt lat="42.4827" lon="2.52784">
        <ele>1377.3</ele>
        <time>2020-09-01T14:27:30.067Z</time>
      </trkpt>
      <trkpt lat="42.48266" lon="2.52775">
        <ele>1375.7</ele>
        <time>2020-09-01T14:27:32.843Z</time>
      </trkpt>
      <trkpt lat="42.48239" lon="2.52743">
        <ele>1354.6</ele>
        <time>2020-09-01T14:27:45.688Z</time>
      </trkpt>
      <trkpt lat="42.48231" lon="2.52728">
        <ele>1349.8</ele>
        <time>2020-09-01T14:27:50.577Z</time>
      </trkpt>
      <trkpt lat="42.48225" lon="2.52707">
        <ele>1347.9</ele>
        <time>2020-09-01T14:27:56.526Z</time>
      </trkpt>
      <trkpt lat="42.48223" lon="2.52694">
        <ele>1348.3</ele>
        <time>2020-09-01T14:28:37.289Z</time>
      </trkpt>
      <trkpt lat="42.48223" lon="2.52679">
        <ele>1349.9</ele>
        <time>2020-09-01T14:30:28.443Z</time>
      </trkpt>
      <trkpt lat="42.48226" lon="2.52668">
        <ele>1351.6</ele>
        <time>2020-09-01T14:31:55.351Z</time>
      </trkpt>
      <trkpt lat="42.4823" lon="2.52659">
        <ele>1346.9</ele>
        <time>2020-09-01T14:31:58.127Z</time>
      </trkpt>
      <trkpt lat="42.48247" lon="2.52634">
        <ele>1343.6</ele>
        <time>2020-09-01T14:32:07.109Z</time>
      </trkpt>
      <trkpt lat="42.48255" lon="2.52617">
        <ele>1371.1</ele>
        <time>2020-09-01T14:34:36.545Z</time>
      </trkpt>
      <trkpt lat="42.48261" lon="2.52604">
        <ele>1367.8</ele>
        <time>2020-09-01T14:34:40.596Z</time>
      </trkpt>
      <trkpt lat="42.48268" lon="2.52578">
        <ele>1353.3</ele>
        <time>2020-09-01T14:34:47.907Z</time>
      </trkpt>
      <trkpt lat="42.48274" lon="2.52564">
        <ele>1354.7</ele>
        <time>2020-09-01T14:36:25.136Z</time>
      </trkpt>
      <trkpt lat="42.48281" lon="2.52556">
        <ele>1355.9</ele>
        <time>2020-09-01T14:37:54.096Z</time>
      </trkpt>
      <trkpt lat="42.48314" lon="2.52532">
        <ele>1361.5</ele>
        <time>2020-09-01T14:44:10.363Z</time>
      </trkpt>
      <trkpt lat="42.48322" lon="2.52522">
        <ele>1362.5</ele>
        <time>2020-09-01T14:45:18.684Z</time>
      </trkpt>
      <trkpt lat="42.48343" lon="2.52495">
        <ele>1372.8</ele>
        <time>2020-09-01T14:50:09.465Z</time>
      </trkpt>
      <trkpt lat="42.48362" lon="2.52467">
        <ele>1377.8</ele>
        <time>2020-09-01T14:54:51.417Z</time>
      </trkpt>
      <trkpt lat="42.48376" lon="2.52447">
        <ele>1379.1</ele>
        <time>2020-09-01T14:56:33.348Z</time>
      </trkpt>
      <trkpt lat="42.48381" lon="2.52438">
        <ele>1379.4</ele>
        <time>2020-09-01T14:57:05.691Z</time>
      </trkpt>
      <trkpt lat="42.48392" lon="2.52402">
        <ele>1369.3</ele>
        <time>2020-09-01T14:57:15.984Z</time>
      </trkpt>
      <trkpt lat="42.48393" lon="2.52374">
        <ele>1365.5</ele>
        <time>2020-09-01T14:57:23.389Z</time>
      </trkpt>
      <trkpt lat="42.48391" lon="2.52342">
        <ele>1365.6</ele>
        <time>2020-09-01T14:58:27.568Z</time>
      </trkpt>
      <trkpt lat="42.48398" lon="2.52313">
        <ele>1362.1</ele>
        <time>2020-09-01T14:58:35.628Z</time>
      </trkpt>
      <trkpt lat="42.48405" lon="2.52275">
        <ele>1362.4</ele>
        <time>2020-09-01T14:59:58.785Z</time>
      </trkpt>
      <trkpt lat="42.48408" lon="2.52265">
        <ele>1366.4</ele>
        <time>2020-09-01T15:01:18.782Z</time>
      </trkpt>
      <trkpt lat="42.48414" lon="2.52252">
        <ele>1376.7</ele>
        <time>2020-09-01T15:03:12.423Z</time>
      </trkpt>
      <trkpt lat="42.48416" lon="2.52249">
        <ele>1379.5</ele>
        <time>2020-09-01T15:03:42.390Z</time>
      </trkpt>
      <trkpt lat="42.48424" lon="2.52245">
        <ele>1391.3</ele>
        <time>2020-09-01T15:05:08.064Z</time>
      </trkpt>
      <trkpt lat="42.48428" lon="2.5224">
        <ele>1396</ele>
        <time>2020-09-01T15:06:02.728Z</time>
      </trkpt>
      <trkpt lat="42.48435" lon="2.52221">
        <ele>1405</ele>
        <time>2020-09-01T15:08:40.110Z</time>
      </trkpt>
      <trkpt lat="42.48441" lon="2.52201">
        <ele>1407.7</ele>
        <time>2020-09-01T15:11:20.103Z</time>
      </trkpt>
      <trkpt lat="42.48441" lon="2.52194">
        <ele>1407.2</ele>
        <time>2020-09-01T15:11:21.952Z</time>
      </trkpt>
      <trkpt lat="42.48439" lon="2.5219">
        <ele>1406</ele>
        <time>2020-09-01T15:11:23.229Z</time>
      </trkpt>
      <trkpt lat="42.48417" lon="2.52143">
        <ele>1403.9</ele>
        <time>2020-09-01T15:11:38.495Z</time>
      </trkpt>
      <trkpt lat="42.48413" lon="2.5213">
        <ele>1369.7</ele>
        <time>2020-09-01T15:11:42.216Z</time>
      </trkpt>
      <trkpt lat="42.48399" lon="2.52069">
        <ele>1383.9</ele>
        <time>2020-09-01T15:19:35.612Z</time>
      </trkpt>
      <trkpt lat="42.48386" lon="2.51986">
        <ele>1398.6</ele>
        <time>2020-09-01T15:30:04.366Z</time>
      </trkpt>
      <trkpt lat="42.48379" lon="2.51973">
        <ele>1397.2</ele>
        <time>2020-09-01T15:30:08.618Z</time>
      </trkpt>
      <trkpt lat="42.48363" lon="2.51955">
        <ele>1394.9</ele>
        <time>2020-09-01T15:30:16.064Z</time>
      </trkpt>
      <trkpt lat="42.48348" lon="2.51933">
        <ele>1392.5</ele>
        <time>2020-09-01T15:30:23.978Z</time>
      </trkpt>
      <trkpt lat="42.48333" lon="2.51905">
        <ele>1379.5</ele>
        <time>2020-09-01T15:30:33.120Z</time>
      </trkpt>
      <trkpt lat="42.48325" lon="2.51881">
        <ele>1374.9</ele>
        <time>2020-09-01T15:30:40.077Z</time>
      </trkpt>
      <trkpt lat="42.4832" lon="2.51848">
        <ele>1380.9</ele>
        <time>2020-09-01T15:34:49.720Z</time>
      </trkpt>
      <trkpt lat="42.4832" lon="2.51827">
        <ele>1383.3</ele>
        <time>2020-09-01T15:37:25.333Z</time>
      </trkpt>
      <trkpt lat="42.48322" lon="2.51789">
        <ele>1373.4</ele>
        <time>2020-09-01T15:37:35.396Z</time>
      </trkpt>
      <trkpt lat="42.48324" lon="2.51779">
        <ele>1373.5</ele>
        <time>2020-09-01T15:37:58.013Z</time>
      </trkpt>
      <trkpt lat="42.48329" lon="2.51764">
        <ele>1376.5</ele>
        <time>2020-09-01T15:39:59.992Z</time>
      </trkpt>
      <trkpt lat="42.48333" lon="2.51752">
        <ele>1382.3</ele>
        <time>2020-09-01T15:41:37.575Z</time>
      </trkpt>
      <trkpt lat="42.48343" lon="2.51734">
        <ele>1390.6</ele>
        <time>2020-09-01T15:44:24.569Z</time>
      </trkpt>
      <trkpt lat="42.48352" lon="2.51722">
        <ele>1392.7</ele>
        <time>2020-09-01T15:46:31.395Z</time>
      </trkpt>
      <trkpt lat="42.4836" lon="2.51706">
        <ele>1392.8</ele>
        <time>2020-09-01T15:47:11.082Z</time>
      </trkpt>
      <trkpt lat="42.48383" lon="2.51669">
        <ele>1396.8</ele>
        <time>2020-09-01T15:51:45.112Z</time>
      </trkpt>
      <trkpt lat="42.48388" lon="2.51661">
        <ele>1382.5</ele>
        <time>2020-09-01T15:51:47.882Z</time>
      </trkpt>
      <trkpt lat="42.48397" lon="2.51644">
        <ele>1382.8</ele>
        <time>2020-09-01T15:52:36.795Z</time>
      </trkpt>
      <trkpt lat="42.48407" lon="2.51632">
        <ele>1381.1</ele>
        <time>2020-09-01T15:52:41.578Z</time>
      </trkpt>
      <trkpt lat="42.48444" lon="2.5158">
        <ele>1388</ele>
        <time>2020-09-01T16:01:08.108Z</time>
      </trkpt>
      <trkpt lat="42.48461" lon="2.51556">
        <ele>1390.3</ele>
        <time>2020-09-01T16:03:44.772Z</time>
      </trkpt>
      <trkpt lat="42.4847" lon="2.51549">
        <ele>1391.4</ele>
        <time>2020-09-01T16:04:59.439Z</time>
      </trkpt>
      <trkpt lat="42.48477" lon="2.51545">
        <ele>1392.4</ele>
        <time>2020-09-01T16:06:13.843Z</time>
      </trkpt>
      <trkpt lat="42.48495" lon="2.51532">
        <ele>1392.2</ele>
        <time>2020-09-01T16:06:25.603Z</time>
      </trkpt>
      <trkpt lat="42.48507" lon="2.51518">
        <ele>1413.8</ele>
        <time>2020-09-01T16:09:04.664Z</time>
      </trkpt>
      <trkpt lat="42.48516" lon="2.51507">
        <ele>1412.9</ele>
        <time>2020-09-01T16:09:09.003Z</time>
      </trkpt>
      <trkpt lat="42.48528" lon="2.51493">
        <ele>1400.3</ele>
        <time>2020-09-01T16:09:14.674Z</time>
      </trkpt>
      <trkpt lat="42.48537" lon="2.51481">
        <ele>1402.2</ele>
        <time>2020-09-01T16:11:21.498Z</time>
      </trkpt>
      <trkpt lat="42.48545" lon="2.51469">
        <ele>1402.9</ele>
        <time>2020-09-01T16:12:19.113Z</time>
      </trkpt>
      <trkpt lat="42.48551" lon="2.51461">
        <ele>1403.1</ele>
        <time>2020-09-01T16:12:47.134Z</time>
      </trkpt>
      <trkpt lat="42.48557" lon="2.51455">
        <ele>1404</ele>
        <time>2020-09-01T16:13:50.417Z</time>
      </trkpt>
      <trkpt lat="42.48564" lon="2.51449">
        <ele>1404.5</ele>
        <time>2020-09-01T16:14:30.890Z</time>
      </trkpt>
      <trkpt lat="42.48571" lon="2.51437">
        <ele>1405.4</ele>
        <time>2020-09-01T16:15:34.737Z</time>
      </trkpt>
      <trkpt lat="42.48576" lon="2.51425">
        <ele>1407.5</ele>
        <time>2020-09-01T16:17:16.867Z</time>
      </trkpt>
      <trkpt lat="42.48579" lon="2.51413">
        <ele>1404.7</ele>
        <time>2020-09-01T16:17:20.214Z</time>
      </trkpt>
      <trkpt lat="42.48582" lon="2.51399">
        <ele>1394.2</ele>
        <time>2020-09-01T16:17:24.065Z</time>
      </trkpt>
      <trkpt lat="42.48586" lon="2.51382">
        <ele>1420.1</ele>
        <time>2020-09-01T16:19:36.289Z</time>
      </trkpt>
      <trkpt lat="42.4859" lon="2.51356">
        <ele>1414.1</ele>
        <time>2020-09-01T16:19:43.304Z</time>
      </trkpt>
      <trkpt lat="42.48594" lon="2.51335">
        <ele>1405.8</ele>
        <time>2020-09-01T16:19:49.033Z</time>
      </trkpt>
      <trkpt lat="42.48597" lon="2.51322">
        <ele>1400.5</ele>
        <time>2020-09-01T16:19:52.631Z</time>
      </trkpt>
      <trkpt lat="42.48599" lon="2.51313">
        <ele>1401.8</ele>
        <time>2020-09-01T16:21:02.282Z</time>
      </trkpt>
      <trkpt lat="42.48604" lon="2.51303">
        <ele>1402.6</ele>
        <time>2020-09-01T16:21:57.178Z</time>
      </trkpt>
      <trkpt lat="42.4861" lon="2.51295">
        <ele>1403.3</ele>
        <time>2020-09-01T16:22:46.158Z</time>
      </trkpt>
      <trkpt lat="42.48625" lon="2.51285">
        <ele>1405.8</ele>
        <time>2020-09-01T16:25:34.107Z</time>
      </trkpt>
      <trkpt lat="42.48643" lon="2.51279">
        <ele>1409.2</ele>
        <time>2020-09-01T16:28:40.355Z</time>
      </trkpt>
      <trkpt lat="42.48658" lon="2.51276">
        <ele>1411.7</ele>
        <time>2020-09-01T16:31:12.705Z</time>
      </trkpt>
      <trkpt lat="42.48673" lon="2.51276">
        <ele>1433.6</ele>
        <time>2020-09-01T16:33:43.425Z</time>
      </trkpt>
      <trkpt lat="42.48679" lon="2.51276">
        <ele>1434.4</ele>
        <time>2020-09-01T16:34:43.626Z</time>
      </trkpt>
      <trkpt lat="42.48682" lon="2.51274">
        <ele>1434.7</ele>
        <time>2020-09-01T16:35:04.214Z</time>
      </trkpt>
      <trkpt lat="42.48686" lon="2.51269">
        <ele>1434.2</ele>
        <time>2020-09-01T16:35:06.163Z</time>
      </trkpt>
      <trkpt lat="42.48687" lon="2.51262">
        <ele>1432.9</ele>
        <time>2020-09-01T16:35:08.046Z</time>
      </trkpt>
      <trkpt lat="42.48687" lon="2.51254">
        <ele>1431.6</ele>
        <time>2020-09-01T16:35:10.159Z</time>
      </trkpt>
      <trkpt lat="42.48685" lon="2.51248">
        <ele>1430.1</ele>
        <time>2020-09-01T16:35:11.898Z</time>
      </trkpt>
      <trkpt lat="42.48679" lon="2.5124">
        <ele>1428.9</ele>
        <time>2020-09-01T16:35:14.912Z</time>
      </trkpt>
      <trkpt lat="42.48673" lon="2.5123">
        <ele>1430.8</ele>
        <time>2020-09-01T16:36:50.437Z</time>
      </trkpt>
      <trkpt lat="42.48666" lon="2.5122">
        <ele>1411.4</ele>
        <time>2020-09-01T16:36:54.079Z</time>
      </trkpt>
      <trkpt lat="42.48664" lon="2.51211">
        <ele>1411.9</ele>
        <time>2020-09-01T16:37:31.009Z</time>
      </trkpt>
      <trkpt lat="42.48662" lon="2.51199">
        <ele>1414.1</ele>
        <time>2020-09-01T16:39:02.168Z</time>
      </trkpt>
      <trkpt lat="42.48662" lon="2.51188">
        <ele>1417.8</ele>
        <time>2020-09-01T16:40:23.676Z</time>
      </trkpt>
      <trkpt lat="42.48662" lon="2.5118">
        <ele>1421.8</ele>
        <time>2020-09-01T16:41:22.954Z</time>
      </trkpt>
      <trkpt lat="42.48659" lon="2.51172">
        <ele>1424.9</ele>
        <time>2020-09-01T16:42:29.456Z</time>
      </trkpt>
      <trkpt lat="42.48655" lon="2.51166">
        <ele>1430.2</ele>
        <time>2020-09-01T16:43:29.389Z</time>
      </trkpt>
      <trkpt lat="42.48651" lon="2.51156">
        <ele>1428.9</ele>
        <time>2020-09-01T16:43:32.394Z</time>
      </trkpt>
      <trkpt lat="42.48649" lon="2.51147">
        <ele>1428.5</ele>
        <time>2020-09-01T16:43:34.834Z</time>
      </trkpt>
      <trkpt lat="42.48646" lon="2.51138">
        <ele>1428.4</ele>
        <time>2020-09-01T16:43:38.825Z</time>
      </trkpt>
      <trkpt lat="42.48641" lon="2.51132">
        <ele>1428.2</ele>
        <time>2020-09-01T16:43:41.861Z</time>
      </trkpt>
      <trkpt lat="42.48634" lon="2.51125">
        <ele>1427.6</ele>
        <time>2020-09-01T16:43:44.976Z</time>
      </trkpt>
      <trkpt lat="42.48625" lon="2.5112">
        <ele>1426.2</ele>
        <time>2020-09-01T16:43:48.460Z</time>
      </trkpt>
      <trkpt lat="42.48616" lon="2.51115">
        <ele>1424.8</ele>
        <time>2020-09-01T16:43:51.943Z</time>
      </trkpt>
      <trkpt lat="42.48607" lon="2.5111">
        <ele>1423.7</ele>
        <time>2020-09-01T16:43:55.427Z</time>
      </trkpt>
      <trkpt lat="42.48598" lon="2.51104">
        <ele>1422.7</ele>
        <time>2020-09-01T16:43:59.019Z</time>
      </trkpt>
      <trkpt lat="42.48592" lon="2.511">
        <ele>1422.2</ele>
        <time>2020-09-01T16:44:01.414Z</time>
      </trkpt>
      <trkpt lat="42.48588" lon="2.51092">
        <ele>1421.5</ele>
        <time>2020-09-01T16:44:03.967Z</time>
      </trkpt>
      <trkpt lat="42.48584" lon="2.5108">
        <ele>1423.4</ele>
        <time>2020-09-01T16:45:41.547Z</time>
      </trkpt>
      <trkpt lat="42.48583" lon="2.51069">
        <ele>1418.1</ele>
        <time>2020-09-01T16:45:44.474Z</time>
      </trkpt>
      <trkpt lat="42.48583" lon="2.51059">
        <ele>1418.2</ele>
        <time>2020-09-01T16:46:06.410Z</time>
      </trkpt>
      <trkpt lat="42.48586" lon="2.51047">
        <ele>1438.5</ele>
        <time>2020-09-01T16:47:40.298Z</time>
      </trkpt>
      <trkpt lat="42.4859" lon="2.51038">
        <ele>1440.4</ele>
        <time>2020-09-01T16:48:58.162Z</time>
      </trkpt>
      <trkpt lat="42.48598" lon="2.51018">
        <ele>1442.7</ele>
        <time>2020-09-01T16:51:46.756Z</time>
      </trkpt>
      <trkpt lat="42.48603" lon="2.51005">
        <ele>1443.4</ele>
        <time>2020-09-01T16:52:41.272Z</time>
      </trkpt>
      <trkpt lat="42.48608" lon="2.50994">
        <ele>1456</ele>
        <time>2020-09-01T16:54:17.019Z</time>
      </trkpt>
      <trkpt lat="42.4861" lon="2.50986">
        <ele>1458.2</ele>
        <time>2020-09-01T16:55:19.611Z</time>
      </trkpt>
      <trkpt lat="42.4861" lon="2.50978">
        <ele>1459.7</ele>
        <time>2020-09-01T16:56:18.890Z</time>
      </trkpt>
      <trkpt lat="42.48607" lon="2.50972">
        <ele>1460.3</ele>
        <time>2020-09-01T16:57:00.008Z</time>
      </trkpt>
      <trkpt lat="42.48598" lon="2.50969">
        <ele>1459.8</ele>
        <time>2020-09-01T16:57:03.373Z</time>
      </trkpt>
      <trkpt lat="42.48593" lon="2.50969">
        <ele>1459.1</ele>
        <time>2020-09-01T16:57:05.164Z</time>
      </trkpt>
      <trkpt lat="42.48587" lon="2.5097">
        <ele>1458.2</ele>
        <time>2020-09-01T16:57:07.329Z</time>
      </trkpt>
      <trkpt lat="42.4858" lon="2.50973">
        <ele>1442.5</ele>
        <time>2020-09-01T16:57:09.959Z</time>
      </trkpt>
      <trkpt lat="42.48571" lon="2.50973">
        <ele>1441.8</ele>
        <time>2020-09-01T16:57:13.183Z</time>
      </trkpt>
      <trkpt lat="42.48558" lon="2.50973">
        <ele>1440.7</ele>
        <time>2020-09-01T16:57:17.839Z</time>
      </trkpt>
      <trkpt lat="42.48551" lon="2.5097">
        <ele>1440</ele>
        <time>2020-09-01T16:57:20.468Z</time>
      </trkpt>
      <trkpt lat="42.48542" lon="2.50966">
        <ele>1439.1</ele>
        <time>2020-09-01T16:57:23.861Z</time>
      </trkpt>
      <trkpt lat="42.48532" lon="2.50955">
        <ele>1439.5</ele>
        <time>2020-09-01T16:58:10.745Z</time>
      </trkpt>
      <trkpt lat="42.48524" lon="2.50944">
        <ele>1440.3</ele>
        <time>2020-09-01T16:59:10.566Z</time>
      </trkpt>
      <trkpt lat="42.48516" lon="2.50927">
        <ele>1441.6</ele>
        <time>2020-09-01T17:00:40.307Z</time>
      </trkpt>
      <trkpt lat="42.48502" lon="2.50896">
        <ele>1456.2</ele>
        <time>2020-09-01T17:05:09.666Z</time>
      </trkpt>
      <trkpt lat="42.48478" lon="2.5084">
        <ele>1449.1</ele>
        <time>2020-09-01T17:05:26.774Z</time>
      </trkpt>
      <trkpt lat="42.48474" lon="2.50832">
        <ele>1460</ele>
        <time>2020-09-01T17:06:38.395Z</time>
      </trkpt>
      <trkpt lat="42.48462" lon="2.5081">
        <ele>1458.3</ele>
        <time>2020-09-01T17:06:45.623Z</time>
      </trkpt>
      <trkpt lat="42.48462" lon="2.50809">
        <ele>1458.2</ele>
        <time>2020-09-01T17:06:45.887Z</time>
        <extensions>
          <visugpx:TrkExtension xmlns:visugpx="https://www.visugpx.com/editgpx/">
            <visugpx:node>7</visugpx:node>
            </visugpx:TrkExtension>
        </extensions>
      </trkpt>
      <trkpt lat="42.48454" lon="2.50797">
        <ele>1457.8</ele>
        <time>2020-09-01T17:06:51.114Z</time>
      </trkpt>
      <trkpt lat="42.48442" lon="2.50781">
        <ele>1456.8</ele>
        <time>2020-09-01T17:06:56.957Z</time>
      </trkpt>
      <trkpt lat="42.48435" lon="2.50771">
        <ele>1455.9</ele>
        <time>2020-09-01T17:07:00.599Z</time>
      </trkpt>
      <trkpt lat="42.48431" lon="2.50762">
        <ele>1454.6</ele>
        <time>2020-09-01T17:07:03.375Z</time>
      </trkpt>
      <trkpt lat="42.48427" lon="2.50752">
        <ele>1453</ele>
        <time>2020-09-01T17:07:06.380Z</time>
      </trkpt>
      <trkpt lat="42.48426" lon="2.50738">
        <ele>1458.9</ele>
        <time>2020-09-01T17:08:50.606Z</time>
      </trkpt>
      <trkpt lat="42.48425" lon="2.50725">
        <ele>1462.3</ele>
        <time>2020-09-01T17:10:27.459Z</time>
      </trkpt>
      <trkpt lat="42.48423" lon="2.50716">
        <ele>1463.5</ele>
        <time>2020-09-01T17:11:37.111Z</time>
      </trkpt>
      <trkpt lat="42.48418" lon="2.50702">
        <ele>1464.1</ele>
        <time>2020-09-01T17:12:30.165Z</time>
      </trkpt>
      <trkpt lat="42.48414" lon="2.50689">
        <ele>1455.1</ele>
        <time>2020-09-01T17:12:33.886Z</time>
      </trkpt>
      <trkpt lat="42.48413" lon="2.5067">
        <ele>1456.5</ele>
        <time>2020-09-01T17:14:08.736Z</time>
      </trkpt>
      <trkpt lat="42.48416" lon="2.50656">
        <ele>1460.5</ele>
        <time>2020-09-01T17:15:56.768Z</time>
      </trkpt>
      <trkpt lat="42.4842" lon="2.50646">
        <ele>1467.1</ele>
        <time>2020-09-01T17:17:21.066Z</time>
      </trkpt>
      <trkpt lat="42.48433" lon="2.50626">
        <ele>1471.8</ele>
        <time>2020-09-01T17:20:38.616Z</time>
      </trkpt>
      <trkpt lat="42.48443" lon="2.50614">
        <ele>1473.5</ele>
        <time>2020-09-01T17:22:41.878Z</time>
      </trkpt>
      <trkpt lat="42.48451" lon="2.5061">
        <ele>1474.7</ele>
        <time>2020-09-01T17:24:07.552Z</time>
      </trkpt>
      <trkpt lat="42.48487" lon="2.50604">
        <ele>1479.9</ele>
        <time>2020-09-01T17:30:12.002Z</time>
      </trkpt>
      <trkpt lat="42.48492" lon="2.50601">
        <ele>1480.9</ele>
        <time>2020-09-01T17:31:06.941Z</time>
      </trkpt>
      <trkpt lat="42.48497" lon="2.50596">
        <ele>1482</ele>
        <time>2020-09-01T17:32:09.364Z</time>
      </trkpt>
      <trkpt lat="42.48497" lon="2.50591">
        <ele>1483.1</ele>
        <time>2020-09-01T17:32:46.414Z</time>
      </trkpt>
      <trkpt lat="42.48451" lon="2.5055">
        <ele>1487.6</ele>
        <time>2020-09-01T17:38:03.016Z</time>
      </trkpt>
      <trkpt lat="42.48439" lon="2.50545">
        <ele>1487.6</ele>
        <time>2020-09-01T17:38:35.719Z</time>
      </trkpt>
      <trkpt lat="42.48423" lon="2.50547">
        <ele>1486.3</ele>
        <time>2020-09-01T17:38:41.474Z</time>
      </trkpt>
      <trkpt lat="42.483" lon="2.50645">
        <ele>1483.7</ele>
        <time>2020-09-01T17:39:55.446Z</time>
      </trkpt>
      <trkpt lat="42.48289" lon="2.50657">
        <ele>1486.2</ele>
        <time>2020-09-01T17:42:17.303Z</time>
      </trkpt>
      <trkpt lat="42.48289" lon="2.50668">
        <ele>1479.4</ele>
        <time>2020-09-01T17:42:20.209Z</time>
        <extensions>
          <visugpx:TrkExtension xmlns:visugpx="https://www.visugpx.com/editgpx/">
            <visugpx:node>8</visugpx:node>
            </visugpx:TrkExtension>
        </extensions>
      </trkpt>
      <trkpt lat="42.48289" lon="2.50672">
        <ele>1479.3</ele>
        <time>2020-09-01T17:42:21.497Z</time>
      </trkpt>
      <trkpt lat="42.48292" lon="2.50683">
        <ele>1478</ele>
        <time>2020-09-01T17:42:24.595Z</time>
      </trkpt>
      <trkpt lat="42.48291" lon="2.5069">
        <ele>1478.3</ele>
        <time>2020-09-01T17:42:49.707Z</time>
      </trkpt>
      <trkpt lat="42.48284" lon="2.50704">
        <ele>1479.8</ele>
        <time>2020-09-01T17:44:34.985Z</time>
      </trkpt>
      <trkpt lat="42.48276" lon="2.50717">
        <ele>1481.5</ele>
        <time>2020-09-01T17:46:40.451Z</time>
      </trkpt>
      <trkpt lat="42.48271" lon="2.50725">
        <ele>1483.1</ele>
        <time>2020-09-01T17:47:58.157Z</time>
      </trkpt>
      <trkpt lat="42.48273" lon="2.50742">
        <ele>1483.9</ele>
        <time>2020-09-01T17:49:01.378Z</time>
      </trkpt>
      <trkpt lat="42.48281" lon="2.50764">
        <ele>1475.5</ele>
        <time>2020-09-01T17:49:07.857Z</time>
      </trkpt>
      <trkpt lat="42.48276" lon="2.50773">
        <ele>1476.5</ele>
        <time>2020-09-01T17:50:18.066Z</time>
      </trkpt>
      <trkpt lat="42.4826" lon="2.50776">
        <ele>1480.2</ele>
        <time>2020-09-01T17:53:00.364Z</time>
      </trkpt>
      <trkpt lat="42.48247" lon="2.50784">
        <ele>1507.5</ele>
        <time>2020-09-01T17:55:23.810Z</time>
      </trkpt>
      <trkpt lat="42.48276" lon="2.50782">
        <ele>1475</ele>
        <time>2020-09-01T17:55:34.211Z</time>
      </trkpt>
      <trkpt lat="42.48282" lon="2.50782">
        <ele>1473.5</ele>
        <time>2020-09-01T17:55:36.360Z</time>
      </trkpt>
      <trkpt lat="42.48283" lon="2.50785">
        <ele>1472.9</ele>
        <time>2020-09-01T17:55:37.230Z</time>
      </trkpt>
      <trkpt lat="42.48282" lon="2.5079">
        <ele>1472.9</ele>
        <time>2020-09-01T17:55:47.183Z</time>
      </trkpt>
      <trkpt lat="42.48266" lon="2.50809">
        <ele>1476.6</ele>
        <time>2020-09-01T17:59:20.886Z</time>
      </trkpt>
      <trkpt lat="42.48262" lon="2.50814">
        <ele>1478.3</ele>
        <time>2020-09-01T18:00:15.551Z</time>
      </trkpt>
      <trkpt lat="42.48261" lon="2.50818">
        <ele>1479.3</ele>
        <time>2020-09-01T18:00:46.848Z</time>
      </trkpt>
      <trkpt lat="42.48268" lon="2.50824">
        <ele>1477.7</ele>
        <time>2020-09-01T18:00:49.814Z</time>
      </trkpt>
      <trkpt lat="42.4828" lon="2.50831">
        <ele>1473.3</ele>
        <time>2020-09-01T18:00:54.494Z</time>
      </trkpt>
      <trkpt lat="42.48281" lon="2.50837">
        <ele>1469.5</ele>
        <time>2020-09-01T18:00:56.118Z</time>
      </trkpt>
      <trkpt lat="42.48277" lon="2.50845">
        <ele>1470.9</ele>
        <time>2020-09-01T18:02:07.740Z</time>
      </trkpt>
      <trkpt lat="42.48278" lon="2.50849">
        <ele>1470.2</ele>
        <time>2020-09-01T18:02:08.856Z</time>
      </trkpt>
      <trkpt lat="42.4829" lon="2.50855">
        <ele>1465.5</ele>
        <time>2020-09-01T18:02:13.437Z</time>
      </trkpt>
      <trkpt lat="42.48296" lon="2.50861">
        <ele>1463.5</ele>
        <time>2020-09-01T18:02:16.107Z</time>
      </trkpt>
      <trkpt lat="42.48307" lon="2.50887">
        <ele>1459.6</ele>
        <time>2020-09-01T18:02:24.025Z</time>
      </trkpt>
      <trkpt lat="42.48311" lon="2.50903">
        <ele>1456.1</ele>
        <time>2020-09-01T18:02:28.488Z</time>
      </trkpt>
      <trkpt lat="42.48316" lon="2.50951">
        <ele>1458.4</ele>
        <time>2020-09-01T18:05:28.213Z</time>
      </trkpt>
      <trkpt lat="42.48321" lon="2.50968">
        <ele>1457.4</ele>
        <time>2020-09-01T18:05:33.048Z</time>
      </trkpt>
      <trkpt lat="42.48334" lon="2.50997">
        <ele>1439</ele>
        <time>2020-09-01T18:05:42.012Z</time>
      </trkpt>
      <trkpt lat="42.48341" lon="2.51015">
        <ele>1433.2</ele>
        <time>2020-09-01T18:05:47.387Z</time>
      </trkpt>
      <trkpt lat="42.48344" lon="2.51034">
        <ele>1430.6</ele>
        <time>2020-09-01T18:05:52.520Z</time>
      </trkpt>
      <trkpt lat="42.48344" lon="2.51055">
        <ele>1432.4</ele>
        <time>2020-09-01T18:07:57.140Z</time>
      </trkpt>
      <trkpt lat="42.4834" lon="2.51071">
        <ele>1437.9</ele>
        <time>2020-09-01T18:10:02.329Z</time>
      </trkpt>
      <trkpt lat="42.48332" lon="2.51091">
        <ele>1451.7</ele>
        <time>2020-09-01T18:12:50.928Z</time>
      </trkpt>
      <trkpt lat="42.48318" lon="2.51111">
        <ele>1457.8</ele>
        <time>2020-09-01T18:16:15.263Z</time>
      </trkpt>
      <trkpt lat="42.48287" lon="2.51142">
        <ele>1463</ele>
        <time>2020-09-01T18:22:42.295Z</time>
      </trkpt>
      <trkpt lat="42.48281" lon="2.51152">
        <ele>1464.4</ele>
        <time>2020-09-01T18:24:17.824Z</time>
      </trkpt>
      <trkpt lat="42.48262" lon="2.51189">
        <ele>1451.1</ele>
        <time>2020-09-01T18:24:29.733Z</time>
      </trkpt>
      <trkpt lat="42.48255" lon="2.51203">
        <ele>1446.2</ele>
        <time>2020-09-01T18:24:34.201Z</time>
      </trkpt>
      <trkpt lat="42.48247" lon="2.51213">
        <ele>1462.9</ele>
        <time>2020-09-01T18:26:23.530Z</time>
      </trkpt>
      <trkpt lat="42.48215" lon="2.51241">
        <ele>1461</ele>
        <time>2020-09-01T18:26:37.847Z</time>
      </trkpt>
      <trkpt lat="42.48192" lon="2.51264">
        <ele>1440.7</ele>
        <time>2020-09-01T18:26:48.083Z</time>
      </trkpt>
      <trkpt lat="42.48185" lon="2.51265">
        <ele>1442.5</ele>
        <time>2020-09-01T18:27:58.809Z</time>
      </trkpt>
      <trkpt lat="42.48175" lon="2.51266">
        <ele>1446</ele>
        <time>2020-09-01T18:29:39.561Z</time>
      </trkpt>
      <trkpt lat="42.4816" lon="2.5127">
        <ele>1457.7</ele>
        <time>2020-09-01T18:32:13.168Z</time>
      </trkpt>
      <trkpt lat="42.48147" lon="2.51289">
        <ele>1453.2</ele>
        <time>2020-09-01T18:32:20.015Z</time>
      </trkpt>
      <trkpt lat="42.48135" lon="2.51299">
        <ele>1452.1</ele>
        <time>2020-09-01T18:32:25.060Z</time>
      </trkpt>
      <trkpt lat="42.48128" lon="2.51299">
        <ele>1453.2</ele>
        <time>2020-09-01T18:33:35.396Z</time>
      </trkpt>
      <trkpt lat="42.48124" lon="2.51303">
        <ele>1452.9</ele>
        <time>2020-09-01T18:33:37.109Z</time>
      </trkpt>
      <trkpt lat="42.48091" lon="2.51362">
        <ele>1426.1</ele>
        <time>2020-09-01T18:33:56.669Z</time>
      </trkpt>
      <trkpt lat="42.4808" lon="2.51373">
        <ele>1435.8</ele>
        <time>2020-09-01T18:36:14.005Z</time>
      </trkpt>
      <trkpt lat="42.48064" lon="2.51378">
        <ele>1435.2</ele>
        <time>2020-09-01T18:36:20.987Z</time>
      </trkpt>
      <trkpt lat="42.48034" lon="2.51393">
        <ele>1435.2</ele>
        <time>2020-09-01T18:37:44.282Z</time>
      </trkpt>
      <trkpt lat="42.48002" lon="2.51409">
        <ele>1431</ele>
        <time>2020-09-01T18:37:56.498Z</time>
      </trkpt>
      <trkpt lat="42.47989" lon="2.51416">
        <ele>1440.7</ele>
        <time>2020-09-01T18:40:17.046Z</time>
      </trkpt>
      <trkpt lat="42.47975" lon="2.51427">
        <ele>1431.3</ele>
        <time>2020-09-01T18:40:22.841Z</time>
      </trkpt>
      <trkpt lat="42.47954" lon="2.51453">
        <ele>1432.7</ele>
        <time>2020-09-01T18:42:31.726Z</time>
      </trkpt>
      <trkpt lat="42.47941" lon="2.51463">
        <ele>1433.8</ele>
        <time>2020-09-01T18:43:52.259Z</time>
      </trkpt>
      <trkpt lat="42.47925" lon="2.51485">
        <ele>1435.3</ele>
        <time>2020-09-01T18:45:48.065Z</time>
      </trkpt>
      <trkpt lat="42.479" lon="2.51524">
        <ele>1441.3</ele>
        <time>2020-09-01T18:52:10.989Z</time>
      </trkpt>
      <trkpt lat="42.47886" lon="2.51542">
        <ele>1441</ele>
        <time>2020-09-01T18:52:21.324Z</time>
      </trkpt>
      <trkpt lat="42.47867" lon="2.51561">
        <ele>1442.4</ele>
        <time>2020-09-01T18:54:15.841Z</time>
      </trkpt>
      <trkpt lat="42.47831" lon="2.51584">
        <ele>1449</ele>
        <time>2020-09-01T19:00:55.714Z</time>
      </trkpt>
      <trkpt lat="42.47805" lon="2.51599">
        <ele>1457.4</ele>
        <time>2020-09-01T19:05:39.628Z</time>
      </trkpt>
      <trkpt lat="42.4778" lon="2.51611">
        <ele>1463.7</ele>
        <time>2020-09-01T19:10:06.105Z</time>
      </trkpt>
      <trkpt lat="42.47769" lon="2.51621">
        <ele>1465</ele>
        <time>2020-09-01T19:11:34.243Z</time>
      </trkpt>
      <trkpt lat="42.47761" lon="2.51638">
        <ele>1464.8</ele>
        <time>2020-09-01T19:11:42.423Z</time>
      </trkpt>
      <trkpt lat="42.47754" lon="2.51661">
        <ele>1469.5</ele>
        <time>2020-09-01T19:14:46.813Z</time>
      </trkpt>
      <trkpt lat="42.47748" lon="2.51678">
        <ele>1478.3</ele>
        <time>2020-09-01T19:17:06.479Z</time>
      </trkpt>
      <trkpt lat="42.47738" lon="2.51709">
        <ele>1481.9</ele>
        <time>2020-09-01T19:21:17.228Z</time>
      </trkpt>
      <trkpt lat="42.47729" lon="2.5173">
        <ele>1480.1</ele>
        <time>2020-09-01T19:21:23.644Z</time>
      </trkpt>
      <trkpt lat="42.47715" lon="2.51752">
        <ele>1474.8</ele>
        <time>2020-09-01T19:21:31.320Z</time>
      </trkpt>
      <trkpt lat="42.47695" lon="2.51779">
        <ele>1479.9</ele>
        <time>2020-09-01T19:26:14.909Z</time>
      </trkpt>
      <trkpt lat="42.47687" lon="2.51792">
        <ele>1480.1</ele>
        <time>2020-09-01T19:26:53.031Z</time>
      </trkpt>
      <trkpt lat="42.47678" lon="2.51819">
        <ele>1481.5</ele>
        <time>2020-09-01T19:28:42.677Z</time>
      </trkpt>
      <trkpt lat="42.47674" lon="2.51826">
        <ele>1483.5</ele>
        <time>2020-09-01T19:29:48.302Z</time>
      </trkpt>
      <trkpt lat="42.47669" lon="2.51828">
        <ele>1485.6</ele>
        <time>2020-09-01T19:30:40.683Z</time>
      </trkpt>
      <trkpt lat="42.47659" lon="2.51828">
        <ele>1492.9</ele>
        <time>2020-09-01T19:32:21.162Z</time>
      </trkpt>
      <trkpt lat="42.47635" lon="2.51817">
        <ele>1500.4</ele>
        <time>2020-09-01T19:36:35.721Z</time>
      </trkpt>
      <trkpt lat="42.47589" lon="2.51792">
        <ele>1507.7</ele>
        <time>2020-09-01T19:44:53.679Z</time>
      </trkpt>
      <trkpt lat="42.47555" lon="2.51771">
        <ele>1518.6</ele>
        <time>2020-09-01T19:51:09.090Z</time>
      </trkpt>
      <trkpt lat="42.47535" lon="2.51762">
        <ele>1520.4</ele>
        <time>2020-09-01T19:53:14.085Z</time>
      </trkpt>
      <trkpt lat="42.47513" lon="2.51758">
        <ele>1525.8</ele>
        <time>2020-09-01T19:56:57.120Z</time>
      </trkpt>
      <trkpt lat="42.47488" lon="2.51756">
        <ele>1526.6</ele>
        <time>2020-09-01T19:58:29.344Z</time>
      </trkpt>
      <trkpt lat="42.47475" lon="2.51753">
        <ele>1523</ele>
        <time>2020-09-01T19:58:34.067Z</time>
      </trkpt>
      <trkpt lat="42.47434" lon="2.51725">
        <ele>1543.8</ele>
        <time>2020-09-01T20:06:15.347Z</time>
      </trkpt>
      <trkpt lat="42.47404" lon="2.51702">
        <ele>1538.7</ele>
        <time>2020-09-01T20:06:27.692Z</time>
      </trkpt>
      <trkpt lat="42.47375" lon="2.51677">
        <ele>1537.2</ele>
        <time>2020-09-01T20:06:41.352Z</time>
      </trkpt>
      <trkpt lat="42.47371" lon="2.5167">
        <ele>1536.6</ele>
        <time>2020-09-01T20:06:43.691Z</time>
      </trkpt>
      <trkpt lat="42.47371" lon="2.51661">
        <ele>1551.4</ele>
        <time>2020-09-01T20:07:50.392Z</time>
      </trkpt>
      <trkpt lat="42.47369" lon="2.51622">
        <ele>1556</ele>
        <time>2020-09-01T20:12:40.130Z</time>
      </trkpt>
      <trkpt lat="42.47363" lon="2.51599">
        <ele>1557.5</ele>
        <time>2020-09-01T20:14:25.022Z</time>
      </trkpt>
      <trkpt lat="42.47353" lon="2.5157">
        <ele>1569.6</ele>
        <time>2020-09-01T20:18:22.277Z</time>
      </trkpt>
      <trkpt lat="42.47343" lon="2.51545">
        <ele>1574</ele>
        <time>2020-09-01T20:21:53.051Z</time>
      </trkpt>
      <trkpt lat="42.47327" lon="2.51521">
        <ele>1563.6</ele>
        <time>2020-09-01T20:22:01.598Z</time>
      </trkpt>
      <trkpt lat="42.47305" lon="2.51494">
        <ele>1571.8</ele>
        <time>2020-09-01T20:26:59.773Z</time>
      </trkpt>
      <trkpt lat="42.47295" lon="2.51477">
        <ele>1570.4</ele>
        <time>2020-09-01T20:27:05.518Z</time>
      </trkpt>
      <trkpt lat="42.47287" lon="2.51442">
        <ele>1571.6</ele>
        <time>2020-09-01T20:29:04.185Z</time>
      </trkpt>
      <trkpt lat="42.47286" lon="2.51413">
        <ele>1578.5</ele>
        <time>2020-09-01T20:32:39.350Z</time>
      </trkpt>
      <trkpt lat="42.47291" lon="2.51378">
        <ele>1581.3</ele>
        <time>2020-09-01T20:35:49.496Z</time>
      </trkpt>
      <trkpt lat="42.47303" lon="2.51342">
        <ele>1585.8</ele>
        <time>2020-09-01T20:40:42.286Z</time>
      </trkpt>
      <trkpt lat="42.4732" lon="2.51297">
        <ele>1593.2</ele>
        <time>2020-09-01T20:46:56.995Z</time>
      </trkpt>
      <trkpt lat="42.4733" lon="2.51258">
        <ele>1601.1</ele>
        <time>2020-09-01T20:52:03.004Z</time>
      </trkpt>
      <trkpt lat="42.4734" lon="2.51217">
        <ele>1621.1</ele>
        <time>2020-09-01T20:57:23.050Z</time>
      </trkpt>
      <trkpt lat="42.47344" lon="2.51189">
        <ele>1623.4</ele>
        <time>2020-09-01T20:59:59.818Z</time>
      </trkpt>
      <trkpt lat="42.47341" lon="2.51168">
        <ele>1620.9</ele>
        <time>2020-09-01T21:00:05.470Z</time>
      </trkpt>
      <trkpt lat="42.47335" lon="2.5113">
        <ele>1637.4</ele>
        <time>2020-09-01T21:04:53.480Z</time>
      </trkpt>
      <trkpt lat="42.4733" lon="2.51111">
        <ele>1625.1</ele>
        <time>2020-09-01T21:04:58.810Z</time>
      </trkpt>
      <trkpt lat="42.47322" lon="2.51073">
        <ele>1637.9</ele>
        <time>2020-09-01T21:09:51.687Z</time>
      </trkpt>
      <trkpt lat="42.47311" lon="2.51061">
        <ele>1637.4</ele>
        <time>2020-09-01T21:09:57.758Z</time>
      </trkpt>
      <trkpt lat="42.47309" lon="2.51046">
        <ele>1638.3</ele>
        <time>2020-09-01T21:11:01.526Z</time>
      </trkpt>
      <trkpt lat="42.47309" lon="2.51024">
        <ele>1641.1</ele>
        <time>2020-09-01T21:13:44.576Z</time>
      </trkpt>
      <trkpt lat="42.47316" lon="2.51013">
        <ele>1644.6</ele>
        <time>2020-09-01T21:15:32.249Z</time>
      </trkpt>
      <trkpt lat="42.47305" lon="2.50985">
        <ele>1652.1</ele>
        <time>2020-09-01T21:19:27.366Z</time>
      </trkpt>
      <trkpt lat="42.47297" lon="2.5097">
        <ele>1652.2</ele>
        <time>2020-09-01T21:20:05.491Z</time>
      </trkpt>
      <trkpt lat="42.47292" lon="2.5095">
        <ele>1653.2</ele>
        <time>2020-09-01T21:21:23.720Z</time>
      </trkpt>
      <trkpt lat="42.47288" lon="2.50934">
        <ele>1654</ele>
        <time>2020-09-01T21:22:26.303Z</time>
      </trkpt>
      <trkpt lat="42.47284" lon="2.5092">
        <ele>1654</ele>
        <time>2020-09-01T21:22:55.152Z</time>
      </trkpt>
      <trkpt lat="42.47277" lon="2.50907">
        <ele>1664</ele>
        <time>2020-09-01T21:24:54.441Z</time>
      </trkpt>
      <trkpt lat="42.4727" lon="2.50896">
        <ele>1664.1</ele>
        <time>2020-09-01T21:25:24.966Z</time>
      </trkpt>
      <trkpt lat="42.47262" lon="2.50886">
        <ele>1664.8</ele>
        <time>2020-09-01T21:26:19.667Z</time>
      </trkpt>
      <trkpt lat="42.47252" lon="2.50874">
        <ele>1666</ele>
        <time>2020-09-01T21:27:41.999Z</time>
      </trkpt>
      <trkpt lat="42.47243" lon="2.50864">
        <ele>1655.8</ele>
        <time>2020-09-01T21:27:46.167Z</time>
      </trkpt>
      <trkpt lat="42.47234" lon="2.50855">
        <ele>1656.5</ele>
        <time>2020-09-01T21:28:41.689Z</time>
      </trkpt>
      <trkpt lat="42.47225" lon="2.50848">
        <ele>1656.1</ele>
        <time>2020-09-01T21:28:46.015Z</time>
      </trkpt>
      <trkpt lat="42.47215" lon="2.5084">
        <ele>1655.2</ele>
        <time>2020-09-01T21:28:50.174Z</time>
      </trkpt>
      <trkpt lat="42.47207" lon="2.50832">
        <ele>1666.9</ele>
        <time>2020-09-01T21:30:30.060Z</time>
      </trkpt>
      <trkpt lat="42.472" lon="2.50826">
        <ele>1666.3</ele>
        <time>2020-09-01T21:30:33.026Z</time>
      </trkpt>
      <trkpt lat="42.47192" lon="2.50819">
        <ele>1665.6</ele>
        <time>2020-09-01T21:30:36.437Z</time>
      </trkpt>
      <trkpt lat="42.47185" lon="2.50813">
        <ele>1665.3</ele>
        <time>2020-09-01T21:30:39.969Z</time>
      </trkpt>
      <trkpt lat="42.47183" lon="2.50812">
        <ele>1665.1</ele>
        <time>2020-09-01T21:30:40.733Z</time>
        <extensions>
          <visugpx:TrkExtension xmlns:visugpx="https://www.visugpx.com/editgpx/">
            <visugpx:node>9</visugpx:node>
            </visugpx:TrkExtension>
        </extensions>
      </trkpt>
      <trkpt lat="42.47177" lon="2.5081">
        <ele>1664.8</ele>
        <time>2020-09-01T21:30:43.083Z</time>
      </trkpt>
      <trkpt lat="42.47169" lon="2.50814">
        <ele>1662.7</ele>
        <time>2020-09-01T21:30:46.137Z</time>
      </trkpt>
      <trkpt lat="42.47159" lon="2.50815">
        <ele>1661.8</ele>
        <time>2020-09-01T21:30:49.728Z</time>
      </trkpt>
      <trkpt lat="42.47151" lon="2.50812">
        <ele>1663.6</ele>
        <time>2020-09-01T21:32:13.131Z</time>
      </trkpt>
      <trkpt lat="42.47146" lon="2.50806">
        <ele>1665.8</ele>
        <time>2020-09-01T21:33:20.225Z</time>
      </trkpt>
      <trkpt lat="42.47143" lon="2.50799">
        <ele>1667.6</ele>
        <time>2020-09-01T21:34:20.227Z</time>
      </trkpt>
      <trkpt lat="42.47139" lon="2.50791">
        <ele>1669.2</ele>
        <time>2020-09-01T21:35:31.858Z</time>
      </trkpt>
      <trkpt lat="42.47137" lon="2.50785">
        <ele>1670.4</ele>
        <time>2020-09-01T21:36:20.657Z</time>
      </trkpt>
      <trkpt lat="42.47134" lon="2.50782">
        <ele>1670.9</ele>
        <time>2020-09-01T21:36:58.114Z</time>
      </trkpt>
      <trkpt lat="42.4713" lon="2.50783">
        <ele>1671</ele>
        <time>2020-09-01T21:37:11.790Z</time>
      </trkpt>
      <trkpt lat="42.47125" lon="2.50788">
        <ele>1670.6</ele>
        <time>2020-09-01T21:37:13.864Z</time>
      </trkpt>
      <trkpt lat="42.47119" lon="2.50797">
        <ele>1669.6</ele>
        <time>2020-09-01T21:37:17.069Z</time>
      </trkpt>
      <trkpt lat="42.47114" lon="2.50803">
        <ele>1669</ele>
        <time>2020-09-01T21:37:19.461Z</time>
      </trkpt>
      <trkpt lat="42.47108" lon="2.50804">
        <ele>1669.1</ele>
        <time>2020-09-01T21:37:38.021Z</time>
      </trkpt>
      <trkpt lat="42.471" lon="2.50805">
        <ele>1669.2</ele>
        <time>2020-09-01T21:38:01.643Z</time>
      </trkpt>
      <trkpt lat="42.47092" lon="2.50808">
        <ele>1668.9</ele>
        <time>2020-09-01T21:38:05.187Z</time>
      </trkpt>
      <trkpt lat="42.47083" lon="2.50809">
        <ele>1677.1</ele>
        <time>2020-09-01T21:39:35.922Z</time>
      </trkpt>
      <trkpt lat="42.47074" lon="2.50811">
        <ele>1677.2</ele>
        <time>2020-09-01T21:40:02.333Z</time>
      </trkpt>
      <trkpt lat="42.47066" lon="2.50818">
        <ele>1677.1</ele>
        <time>2020-09-01T21:40:07.773Z</time>
      </trkpt>
      <trkpt lat="42.47053" lon="2.50829">
        <ele>1679.3</ele>
        <time>2020-09-01T21:42:41.752Z</time>
      </trkpt>
      <trkpt lat="42.4704" lon="2.50839">
        <ele>1668.4</ele>
        <time>2020-09-01T21:42:47.105Z</time>
      </trkpt>
      <trkpt lat="42.47032" lon="2.5085">
        <ele>1669.2</ele>
        <time>2020-09-01T21:43:46.929Z</time>
      </trkpt>
      <trkpt lat="42.47024" lon="2.50861">
        <ele>1668.9</ele>
        <time>2020-09-01T21:43:52.315Z</time>
      </trkpt>
      <trkpt lat="42.47014" lon="2.50871">
        <ele>1668.1</ele>
        <time>2020-09-01T21:43:56.464Z</time>
      </trkpt>
      <trkpt lat="42.47004" lon="2.50879">
        <ele>1667.4</ele>
        <time>2020-09-01T21:44:00.468Z</time>
      </trkpt>
      <trkpt lat="42.46995" lon="2.50887">
        <ele>1677.4</ele>
        <time>2020-09-01T21:45:48.605Z</time>
      </trkpt>
      <trkpt lat="42.46985" lon="2.50897">
        <ele>1675.9</ele>
        <time>2020-09-01T21:45:53.056Z</time>
      </trkpt>
      <trkpt lat="42.46978" lon="2.50902">
        <ele>1675.9</ele>
        <time>2020-09-01T21:46:13.668Z</time>
      </trkpt>
      <trkpt lat="42.46974" lon="2.50906">
        <ele>1676.2</ele>
        <time>2020-09-01T21:46:37.957Z</time>
      </trkpt>
      <trkpt lat="42.46969" lon="2.50905">
        <ele>1677.2</ele>
        <time>2020-09-01T21:47:28.740Z</time>
      </trkpt>
      <trkpt lat="42.46961" lon="2.50903">
        <ele>1678.5</ele>
        <time>2020-09-01T21:48:50.480Z</time>
      </trkpt>
      <trkpt lat="42.46953" lon="2.50901">
        <ele>1679.4</ele>
        <time>2020-09-01T21:49:51.960Z</time>
      </trkpt>
      <trkpt lat="42.46949" lon="2.50901">
        <ele>1679.7</ele>
        <time>2020-09-01T21:50:13.749Z</time>
      </trkpt>
      <trkpt lat="42.46943" lon="2.50902">
        <ele>1679.8</ele>
        <time>2020-09-01T21:50:32.309Z</time>
      </trkpt>
      <trkpt lat="42.46935" lon="2.50903">
        <ele>1679.5</ele>
        <time>2020-09-01T21:50:35.699Z</time>
      </trkpt>
      <trkpt lat="42.46928" lon="2.50904">
        <ele>1678.9</ele>
        <time>2020-09-01T21:50:38.220Z</time>
      </trkpt>
      <trkpt lat="42.4692" lon="2.50905">
        <ele>1678.4</ele>
        <time>2020-09-01T21:50:40.948Z</time>
      </trkpt>
      <trkpt lat="42.46914" lon="2.50903">
        <ele>1685.6</ele>
        <time>2020-09-01T21:51:43.031Z</time>
      </trkpt>
      <trkpt lat="42.46907" lon="2.50903">
        <ele>1687.6</ele>
        <time>2020-09-01T21:52:53.367Z</time>
      </trkpt>
      <trkpt lat="42.46901" lon="2.50902">
        <ele>1689.9</ele>
        <time>2020-09-01T21:53:54.109Z</time>
      </trkpt>
      <trkpt lat="42.46892" lon="2.50902">
        <ele>1692.3</ele>
        <time>2020-09-01T21:55:24.541Z</time>
      </trkpt>
      <trkpt lat="42.46884" lon="2.50901">
        <ele>1694.6</ele>
        <time>2020-09-01T21:56:45.266Z</time>
      </trkpt>
      <trkpt lat="42.46878" lon="2.50898">
        <ele>1696.3</ele>
        <time>2020-09-01T21:57:49.524Z</time>
      </trkpt>
      <trkpt lat="42.46873" lon="2.50898">
        <ele>1697</ele>
        <time>2020-09-01T21:58:39.764Z</time>
      </trkpt>
      <trkpt lat="42.46865" lon="2.509">
        <ele>1697.7</ele>
        <time>2020-09-01T21:59:28.278Z</time>
      </trkpt>
      <trkpt lat="42.4686" lon="2.50902">
        <ele>1698</ele>
        <time>2020-09-01T21:59:53.259Z</time>
      </trkpt>
      <trkpt lat="42.46854" lon="2.50901">
        <ele>1698.3</ele>
        <time>2020-09-01T22:00:20.728Z</time>
      </trkpt>
      <trkpt lat="42.4685" lon="2.50903">
        <ele>1698.2</ele>
        <time>2020-09-01T22:00:22.808Z</time>
      </trkpt>
      <trkpt lat="42.46845" lon="2.50908">
        <ele>1697.5</ele>
        <time>2020-09-01T22:00:25.033Z</time>
      </trkpt>
      <trkpt lat="42.46841" lon="2.50917">
        <ele>1696.4</ele>
        <time>2020-09-01T22:00:27.810Z</time>
      </trkpt>
      <trkpt lat="42.46837" lon="2.50927">
        <ele>1686.5</ele>
        <time>2020-09-01T22:00:30.815Z</time>
      </trkpt>
      <trkpt lat="42.46831" lon="2.50933">
        <ele>1689.7</ele>
        <time>2020-09-01T22:01:45.731Z</time>
      </trkpt>
      <trkpt lat="42.46824" lon="2.50939">
        <ele>1688.1</ele>
        <time>2020-09-01T22:01:48.697Z</time>
      </trkpt>
      <trkpt lat="42.46817" lon="2.50946">
        <ele>1686.7</ele>
        <time>2020-09-01T22:01:51.813Z</time>
      </trkpt>
      <trkpt lat="42.46808" lon="2.50953">
        <ele>1685.5</ele>
        <time>2020-09-01T22:01:55.529Z</time>
      </trkpt>
      <trkpt lat="42.468" lon="2.50959">
        <ele>1684.7</ele>
        <time>2020-09-01T22:01:58.804Z</time>
      </trkpt>
      <trkpt lat="42.4679" lon="2.50966">
        <ele>1684.2</ele>
        <time>2020-09-01T22:02:03.246Z</time>
      </trkpt>
      <trkpt lat="42.46781" lon="2.50972">
        <ele>1683.7</ele>
        <time>2020-09-01T22:02:07.018Z</time>
      </trkpt>
      <trkpt lat="42.46771" lon="2.50979">
        <ele>1682.7</ele>
        <time>2020-09-01T22:02:11.049Z</time>
      </trkpt>
      <trkpt lat="42.4676" lon="2.50983">
        <ele>1681.7</ele>
        <time>2020-09-01T22:02:15.128Z</time>
      </trkpt>
      <trkpt lat="42.46749" lon="2.50985">
        <ele>1681.2</ele>
        <time>2020-09-01T22:02:19.483Z</time>
      </trkpt>
      <trkpt lat="42.46739" lon="2.50987">
        <ele>1681.3</ele>
        <time>2020-09-01T22:02:48.440Z</time>
      </trkpt>
      <trkpt lat="42.46728" lon="2.50987">
        <ele>1682.2</ele>
        <time>2020-09-01T22:03:51.742Z</time>
      </trkpt>
      <trkpt lat="42.46716" lon="2.50987">
        <ele>1682.3</ele>
        <time>2020-09-01T22:04:25.586Z</time>
      </trkpt>
      <trkpt lat="42.46707" lon="2.50987">
        <ele>1681.9</ele>
        <time>2020-09-01T22:04:29.137Z</time>
      </trkpt>
      <trkpt lat="42.46698" lon="2.50986">
        <ele>1681.3</ele>
        <time>2020-09-01T22:04:32.106Z</time>
      </trkpt>
      <trkpt lat="42.46692" lon="2.50982">
        <ele>1681.1</ele>
        <time>2020-09-01T22:04:35.147Z</time>
      </trkpt>
      <trkpt lat="42.46685" lon="2.50976">
        <ele>1681.2</ele>
        <time>2020-09-01T22:04:59.404Z</time>
      </trkpt>
      <trkpt lat="42.46676" lon="2.50968">
        <ele>1682.2</ele>
        <time>2020-09-01T22:06:07.605Z</time>
      </trkpt>
      <trkpt lat="42.46668" lon="2.50957">
        <ele>1684.1</ele>
        <time>2020-09-01T22:08:02.100Z</time>
      </trkpt>
      <trkpt lat="42.46662" lon="2.50949">
        <ele>1680.2</ele>
        <time>2020-09-01T22:08:05.115Z</time>
      </trkpt>
      <trkpt lat="42.46651" lon="2.50932">
        <ele>1682.8</ele>
        <time>2020-09-01T22:10:52.727Z</time>
      </trkpt>
      <trkpt lat="42.46641" lon="2.50912">
        <ele>1696</ele>
        <time>2020-09-01T22:13:51.814Z</time>
      </trkpt>
      <trkpt lat="42.46636" lon="2.50904">
        <ele>1697.1</ele>
        <time>2020-09-01T22:15:09.533Z</time>
      </trkpt>
      <trkpt lat="42.46631" lon="2.50896">
        <ele>1698</ele>
        <time>2020-09-01T22:16:11.867Z</time>
      </trkpt>
      <trkpt lat="42.46623" lon="2.5089">
        <ele>1698.5</ele>
        <time>2020-09-01T22:16:54.833Z</time>
      </trkpt>
      <trkpt lat="42.46616" lon="2.50885">
        <ele>1698.8</ele>
        <time>2020-09-01T22:17:26.412Z</time>
      </trkpt>
      <trkpt lat="42.46611" lon="2.5088">
        <ele>1699.1</ele>
        <time>2020-09-01T22:17:54.399Z</time>
      </trkpt>
      <trkpt lat="42.46605" lon="2.50878">
        <ele>1699.2</ele>
        <time>2020-09-01T22:18:13.296Z</time>
      </trkpt>
      <trkpt lat="42.46601" lon="2.50877">
        <ele>1699</ele>
        <time>2020-09-01T22:18:14.835Z</time>
      </trkpt>
      <trkpt lat="42.46596" lon="2.50881">
        <ele>1698.1</ele>
        <time>2020-09-01T22:18:16.914Z</time>
      </trkpt>
      <trkpt lat="42.4659" lon="2.50887">
        <ele>1696.2</ele>
        <time>2020-09-01T22:18:19.585Z</time>
      </trkpt>
      <trkpt lat="42.46585" lon="2.50894">
        <ele>1694</ele>
        <time>2020-09-01T22:18:22.159Z</time>
      </trkpt>
      <trkpt lat="42.46583" lon="2.50902">
        <ele>1693.2</ele>
        <time>2020-09-01T22:18:24.391Z</time>
      </trkpt>
      <trkpt lat="42.46586" lon="2.50912">
        <ele>1687</ele>
        <time>2020-09-01T22:18:27.244Z</time>
      </trkpt>
      <trkpt lat="42.46586" lon="2.50921">
        <ele>1682.7</ele>
        <time>2020-09-01T22:18:29.622Z</time>
      </trkpt>
      <trkpt lat="42.46586" lon="2.50928">
        <ele>1681.4</ele>
        <time>2020-09-01T22:18:31.471Z</time>
      </trkpt>
      <trkpt lat="42.46585" lon="2.50935">
        <ele>1680.3</ele>
        <time>2020-09-01T22:18:33.355Z</time>
      </trkpt>
      <trkpt lat="42.46583" lon="2.50941">
        <ele>1683.7</ele>
        <time>2020-09-01T22:19:22.158Z</time>
      </trkpt>
      <trkpt lat="42.46581" lon="2.50947">
        <ele>1683.3</ele>
        <time>2020-09-01T22:19:23.898Z</time>
      </trkpt>
      <trkpt lat="42.46578" lon="2.50951">
        <ele>1682.9</ele>
        <time>2020-09-01T22:19:25.405Z</time>
      </trkpt>
      <trkpt lat="42.46573" lon="2.50957">
        <ele>1682.6</ele>
        <time>2020-09-01T22:19:28.028Z</time>
      </trkpt>
      <trkpt lat="42.46567" lon="2.50962">
        <ele>1682.3</ele>
        <time>2020-09-01T22:19:30.855Z</time>
      </trkpt>
      <trkpt lat="42.46561" lon="2.50968">
        <ele>1682.1</ele>
        <time>2020-09-01T22:19:34.360Z</time>
      </trkpt>
      <trkpt lat="42.46559" lon="2.50969">
        <ele>1682.1</ele>
        <time>2020-09-01T22:19:39.913Z</time>
      </trkpt>
      <trkpt lat="42.46553" lon="2.50977">
        <ele>1682.1</ele>
        <time>2020-09-01T22:20:01.837Z</time>
      </trkpt>
      <trkpt lat="42.46543" lon="2.50988">
        <ele>1682.7</ele>
        <time>2020-09-01T22:20:59.216Z</time>
      </trkpt>
      <trkpt lat="42.46535" lon="2.50998">
        <ele>1683.7</ele>
        <time>2020-09-01T22:22:07.539Z</time>
      </trkpt>
      <trkpt lat="42.46528" lon="2.51006">
        <ele>1675.2</ele>
        <time>2020-09-01T22:22:10.818Z</time>
      </trkpt>
      <trkpt lat="42.46522" lon="2.51017">
        <ele>1675.6</ele>
        <time>2020-09-01T22:22:52.093Z</time>
      </trkpt>
      <trkpt lat="42.46517" lon="2.51026">
        <ele>1675</ele>
        <time>2020-09-01T22:22:55.070Z</time>
      </trkpt>
      <trkpt lat="42.46512" lon="2.51037">
        <ele>1674.2</ele>
        <time>2020-09-01T22:22:58.484Z</time>
      </trkpt>
      <trkpt lat="42.46506" lon="2.51046">
        <ele>1673.6</ele>
        <time>2020-09-01T22:23:01.689Z</time>
      </trkpt>
      <trkpt lat="42.46498" lon="2.5106">
        <ele>1687.4</ele>
        <time>2020-09-01T22:25:12.953Z</time>
      </trkpt>
      <trkpt lat="42.4649" lon="2.51074">
        <ele>1684.6</ele>
        <time>2020-09-01T22:25:17.632Z</time>
      </trkpt>
      <trkpt lat="42.4648" lon="2.5109">
        <ele>1679.2</ele>
        <time>2020-09-01T22:25:23.173Z</time>
      </trkpt>
      <trkpt lat="42.46469" lon="2.51106">
        <ele>1679.9</ele>
        <time>2020-09-01T22:26:32.922Z</time>
      </trkpt>
      <trkpt lat="42.46462" lon="2.51117">
        <ele>1679.8</ele>
        <time>2020-09-01T22:26:39.141Z</time>
      </trkpt>
      <trkpt lat="42.46457" lon="2.51126">
        <ele>1679.6</ele>
        <time>2020-09-01T22:26:43.169Z</time>
      </trkpt>
      <trkpt lat="42.46452" lon="2.51136">
        <ele>1679.2</ele>
        <time>2020-09-01T22:26:46.672Z</time>
      </trkpt>
      <trkpt lat="42.46448" lon="2.51144">
        <ele>1679</ele>
        <time>2020-09-01T22:26:49.979Z</time>
      </trkpt>
      <trkpt lat="42.46443" lon="2.51156">
        <ele>1679.1</ele>
        <time>2020-09-01T22:27:19.086Z</time>
      </trkpt>
      <trkpt lat="42.46437" lon="2.51168">
        <ele>1671.6</ele>
        <time>2020-09-01T22:27:22.917Z</time>
      </trkpt>
      <trkpt lat="42.46431" lon="2.51182">
        <ele>1671.4</ele>
        <time>2020-09-01T22:27:29.222Z</time>
      </trkpt>
      <trkpt lat="42.46426" lon="2.51194">
        <ele>1669.5</ele>
        <time>2020-09-01T22:27:32.863Z</time>
      </trkpt>
      <trkpt lat="42.46422" lon="2.51205">
        <ele>1668</ele>
        <time>2020-09-01T22:27:36.104Z</time>
      </trkpt>
      <trkpt lat="42.46415" lon="2.51219">
        <ele>1679.2</ele>
        <time>2020-09-01T22:29:41.468Z</time>
      </trkpt>
      <trkpt lat="42.46412" lon="2.51227">
        <ele>1677.6</ele>
        <time>2020-09-01T22:29:43.839Z</time>
      </trkpt>
      <trkpt lat="42.46411" lon="2.51236">
        <ele>1675.3</ele>
        <time>2020-09-01T22:29:46.244Z</time>
      </trkpt>
      <trkpt lat="42.46411" lon="2.51245">
        <ele>1672.6</ele>
        <time>2020-09-01T22:29:48.622Z</time>
      </trkpt>
      <trkpt lat="42.46411" lon="2.51253">
        <ele>1669.9</ele>
        <time>2020-09-01T22:29:50.736Z</time>
      </trkpt>
      <trkpt lat="42.4641" lon="2.51264">
        <ele>1671.4</ele>
        <time>2020-09-01T22:31:12.889Z</time>
      </trkpt>
      <trkpt lat="42.4641" lon="2.51275">
        <ele>1672.3</ele>
        <time>2020-09-01T22:32:14.401Z</time>
      </trkpt>
      <trkpt lat="42.46409" lon="2.51285">
        <ele>1672.5</ele>
        <time>2020-09-01T22:32:40.124Z</time>
      </trkpt>
      <trkpt lat="42.46409" lon="2.51298">
        <ele>1672.2</ele>
        <time>2020-09-01T22:32:44.424Z</time>
      </trkpt>
      <trkpt lat="42.46408" lon="2.5131">
        <ele>1671.2</ele>
        <time>2020-09-01T22:32:47.615Z</time>
      </trkpt>
      <trkpt lat="42.46407" lon="2.51322">
        <ele>1669.7</ele>
        <time>2020-09-01T22:32:50.806Z</time>
      </trkpt>
      <trkpt lat="42.46405" lon="2.5133">
        <ele>1669</ele>
        <time>2020-09-01T22:32:53.038Z</time>
      </trkpt>
      <trkpt lat="42.46403" lon="2.51337">
        <ele>1667.4</ele>
        <time>2020-09-01T22:32:55.021Z</time>
      </trkpt>
      <trkpt lat="42.46401" lon="2.51345">
        <ele>1667.9</ele>
        <time>2020-09-01T22:33:30.419Z</time>
      </trkpt>
      <trkpt lat="42.46401" lon="2.51354">
        <ele>1668.3</ele>
        <time>2020-09-01T22:34:02.838Z</time>
      </trkpt>
      <trkpt lat="42.46399" lon="2.51362">
        <ele>1668.6</ele>
        <time>2020-09-01T22:34:30.881Z</time>
      </trkpt>
      <trkpt lat="42.46395" lon="2.5137">
        <ele>1668.8</ele>
        <time>2020-09-01T22:34:55.876Z</time>
      </trkpt>
      <trkpt lat="42.46391" lon="2.51376">
        <ele>1669</ele>
        <time>2020-09-01T22:35:18.304Z</time>
      </trkpt>
      <trkpt lat="42.46384" lon="2.51384">
        <ele>1669.2</ele>
        <time>2020-09-01T22:35:48.121Z</time>
      </trkpt>
      <trkpt lat="42.46376" lon="2.51392">
        <ele>1669.5</ele>
        <time>2020-09-01T22:36:23.912Z</time>
      </trkpt>
      <trkpt lat="42.4637" lon="2.51398">
        <ele>1669.7</ele>
        <time>2020-09-01T22:36:49.662Z</time>
      </trkpt>
      <trkpt lat="42.46363" lon="2.51404">
        <ele>1669.9</ele>
        <time>2020-09-01T22:37:17.364Z</time>
      </trkpt>
      <trkpt lat="42.46357" lon="2.5141">
        <ele>1670.2</ele>
        <time>2020-09-01T22:37:48.124Z</time>
      </trkpt>
      <trkpt lat="42.4635" lon="2.51416">
        <ele>1670.4</ele>
        <time>2020-09-01T22:38:15.827Z</time>
      </trkpt>
      <trkpt lat="42.46344" lon="2.51423">
        <ele>1668.4</ele>
        <time>2020-09-01T22:38:18.662Z</time>
      </trkpt>
      <trkpt lat="42.46339" lon="2.5143">
        <ele>1668.1</ele>
        <time>2020-09-01T22:38:21.570Z</time>
      </trkpt>
      <trkpt lat="42.46334" lon="2.51438">
        <ele>1667.2</ele>
        <time>2020-09-01T22:38:24.341Z</time>
      </trkpt>
      <trkpt lat="42.4633" lon="2.51447">
        <ele>1665.3</ele>
        <time>2020-09-01T22:38:27.117Z</time>
      </trkpt>
      <trkpt lat="42.46326" lon="2.51455">
        <ele>1664.3</ele>
        <time>2020-09-01T22:38:29.671Z</time>
      </trkpt>
      <trkpt lat="42.46322" lon="2.51465">
        <ele>1663.2</ele>
        <time>2020-09-01T22:38:32.677Z</time>
      </trkpt>
      <trkpt lat="42.46319" lon="2.51472">
        <ele>1662.4</ele>
        <time>2020-09-01T22:38:34.816Z</time>
      </trkpt>
      <trkpt lat="42.46316" lon="2.51478">
        <ele>1661.9</ele>
        <time>2020-09-01T22:38:36.731Z</time>
      </trkpt>
      <trkpt lat="42.46312" lon="2.51487">
        <ele>1661.3</ele>
        <time>2020-09-01T22:38:39.507Z</time>
      </trkpt>
      <trkpt lat="42.46313" lon="2.51478">
        <ele>1662</ele>
        <time>2020-09-01T22:39:26.960Z</time>
      </trkpt>
      <trkpt lat="42.46315" lon="2.5147">
        <ele>1662.6</ele>
        <time>2020-09-01T22:40:07.700Z</time>
      </trkpt>
      <trkpt lat="42.46317" lon="2.51464">
        <ele>1663.2</ele>
        <time>2020-09-01T22:40:50.393Z</time>
      </trkpt>
      <trkpt lat="42.4632" lon="2.51458">
        <ele>1663.8</ele>
        <time>2020-09-01T22:41:31.508Z</time>
      </trkpt>
      <trkpt lat="42.46331" lon="2.51433">
        <ele>1667.3</ele>
        <time>2020-09-01T22:45:07.280Z</time>
      </trkpt>
      <trkpt lat="42.46339" lon="2.51416">
        <ele>1670.8</ele>
        <time>2020-09-01T22:47:36.748Z</time>
      </trkpt>
      <trkpt lat="42.4635" lon="2.51392">
        <ele>1670.8</ele>
        <time>2020-09-01T22:48:31.047Z</time>
      </trkpt>
      <trkpt lat="42.46357" lon="2.51373">
        <ele>1671.2</ele>
        <time>2020-09-01T22:49:24.318Z</time>
      </trkpt>
      <trkpt lat="42.46363" lon="2.51355">
        <ele>1671.7</ele>
        <time>2020-09-01T22:50:19.677Z</time>
      </trkpt>
      <trkpt lat="42.46373" lon="2.51327">
        <ele>1674.8</ele>
        <time>2020-09-01T22:54:10.269Z</time>
      </trkpt>
      <trkpt lat="42.46374" lon="2.51321">
        <ele>1674.7</ele>
        <time>2020-09-01T22:54:12.519Z</time>
      </trkpt>
      <trkpt lat="42.46374" lon="2.51318">
        <ele>1674.7</ele>
        <time>2020-09-01T22:54:18.284Z</time>
      </trkpt>
      <trkpt lat="42.46374" lon="2.51316">
        <ele>1674.8</ele>
        <time>2020-09-01T22:54:25.891Z</time>
      </trkpt>
      <trkpt lat="42.46373" lon="2.51313">
        <ele>1675</ele>
        <time>2020-09-01T22:54:39.929Z</time>
      </trkpt>
      <trkpt lat="42.46372" lon="2.51311">
        <ele>1675.2</ele>
        <time>2020-09-01T22:54:53.634Z</time>
      </trkpt>
      <trkpt lat="42.4637" lon="2.51309">
        <ele>1675.5</ele>
        <time>2020-09-01T22:55:14.727Z</time>
      </trkpt>
      <trkpt lat="42.46366" lon="2.51307">
        <ele>1675.9</ele>
        <time>2020-09-01T22:55:41.969Z</time>
      </trkpt>
      <trkpt lat="42.46362" lon="2.51305">
        <ele>1676.4</ele>
        <time>2020-09-01T22:56:16.698Z</time>
      </trkpt>
      <trkpt lat="42.46357" lon="2.51302">
        <ele>1677</ele>
        <time>2020-09-01T22:56:57.620Z</time>
      </trkpt>
      <trkpt lat="42.46352" lon="2.51298">
        <ele>1677.5</ele>
        <time>2020-09-01T22:57:32.265Z</time>
      </trkpt>
      <trkpt lat="42.46347" lon="2.51294">
        <ele>1678</ele>
        <time>2020-09-01T22:58:06.910Z</time>
      </trkpt>
      <trkpt lat="42.46343" lon="2.51288">
        <ele>1678.8</ele>
        <time>2020-09-01T22:59:06.855Z</time>
      </trkpt>
      <trkpt lat="42.46339" lon="2.51281">
        <ele>1679.7</ele>
        <time>2020-09-01T23:00:12.488Z</time>
      </trkpt>
      <trkpt lat="42.46336" lon="2.51274">
        <ele>1681</ele>
        <time>2020-09-01T23:01:12.497Z</time>
      </trkpt>
      <trkpt lat="42.46333" lon="2.51267">
        <ele>1684.1</ele>
        <time>2020-09-01T23:02:12.505Z</time>
      </trkpt>
      <trkpt lat="42.4633" lon="2.51259">
        <ele>1685.7</ele>
        <time>2020-09-01T23:03:19.026Z</time>
      </trkpt>
      <trkpt lat="42.46328" lon="2.51252">
        <ele>1686.8</ele>
        <time>2020-09-01T23:04:14.670Z</time>
      </trkpt>
      <trkpt lat="42.46325" lon="2.51245">
        <ele>1688.6</ele>
        <time>2020-09-01T23:05:14.678Z</time>
      </trkpt>
      <trkpt lat="42.46322" lon="2.51239">
        <ele>1688.5</ele>
        <time>2020-09-01T23:05:17.435Z</time>
      </trkpt>
      <trkpt lat="42.46319" lon="2.51233">
        <ele>1688.5</ele>
        <time>2020-09-01T23:05:31.364Z</time>
      </trkpt>
      <trkpt lat="42.46315" lon="2.51228">
        <ele>1688.5</ele>
        <time>2020-09-01T23:05:45.538Z</time>
      </trkpt>
      <trkpt lat="42.46312" lon="2.51224">
        <ele>1688.5</ele>
        <time>2020-09-01T23:05:56.500Z</time>
      </trkpt>
      <trkpt lat="42.46311" lon="2.51219">
        <ele>1688.7</ele>
        <time>2020-09-01T23:06:14.179Z</time>
      </trkpt>
      <trkpt lat="42.4631" lon="2.51214">
        <ele>1689</ele>
        <time>2020-09-01T23:06:35.584Z</time>
      </trkpt>
      <trkpt lat="42.46309" lon="2.51206">
        <ele>1689.4</ele>
        <time>2020-09-01T23:07:06.228Z</time>
      </trkpt>
      <trkpt lat="42.46307" lon="2.512">
        <ele>1689.8</ele>
        <time>2020-09-01T23:07:34.304Z</time>
      </trkpt>
      <trkpt lat="42.46304" lon="2.51193">
        <ele>1690.1</ele>
        <time>2020-09-01T23:08:01.549Z</time>
      </trkpt>
      <trkpt lat="42.46301" lon="2.51187">
        <ele>1690.3</ele>
        <time>2020-09-01T23:08:22.738Z</time>
      </trkpt>
      <trkpt lat="42.46297" lon="2.5118">
        <ele>1690.4</ele>
        <time>2020-09-01T23:08:42.529Z</time>
      </trkpt>
      <trkpt lat="42.46291" lon="2.5117">
        <ele>1690.3</ele>
        <time>2020-09-01T23:08:47.961Z</time>
      </trkpt>
      <trkpt lat="42.46286" lon="2.51161">
        <ele>1698</ele>
        <time>2020-09-01T23:10:11.476Z</time>
      </trkpt>
      <trkpt lat="42.46281" lon="2.51152">
        <ele>1698.1</ele>
        <time>2020-09-01T23:10:35.809Z</time>
      </trkpt>
      <trkpt lat="42.46276" lon="2.51142">
        <ele>1698.4</ele>
        <time>2020-09-01T23:11:09.375Z</time>
      </trkpt>
      <trkpt lat="42.46272" lon="2.51133">
        <ele>1699</ele>
        <time>2020-09-01T23:11:52.410Z</time>
      </trkpt>
      <trkpt lat="42.46269" lon="2.51126">
        <ele>1699.5</ele>
        <time>2020-09-01T23:12:27.329Z</time>
      </trkpt>
      <trkpt lat="42.46266" lon="2.51117">
        <ele>1700.1</ele>
        <time>2020-09-01T23:13:09.444Z</time>
      </trkpt>
      <trkpt lat="42.46262" lon="2.51107">
        <ele>1700.7</ele>
        <time>2020-09-01T23:13:53.936Z</time>
      </trkpt>
      <trkpt lat="42.4626" lon="2.51097">
        <ele>1701</ele>
        <time>2020-09-01T23:14:25.024Z</time>
      </trkpt>
      <trkpt lat="42.46259" lon="2.51087">
        <ele>1701.2</ele>
        <time>2020-09-01T23:14:50.748Z</time>
      </trkpt>
      <trkpt lat="42.46258" lon="2.51076">
        <ele>1706</ele>
        <time>2020-09-01T23:16:12.903Z</time>
      </trkpt>
      <trkpt lat="42.46257" lon="2.51068">
        <ele>1707.9</ele>
        <time>2020-09-01T23:17:13.049Z</time>
      </trkpt>
      <trkpt lat="42.46257" lon="2.51059">
        <ele>1710</ele>
        <time>2020-09-01T23:18:19.762Z</time>
      </trkpt>
      <trkpt lat="42.46256" lon="2.51048">
        <ele>1711.7</ele>
        <time>2020-09-01T23:19:41.917Z</time>
      </trkpt>
      <trkpt lat="42.46255" lon="2.51039">
        <ele>1712.8</ele>
        <time>2020-09-01T23:20:49.383Z</time>
      </trkpt>
      <trkpt lat="42.46254" lon="2.5103">
        <ele>1713.6</ele>
        <time>2020-09-01T23:21:45.303Z</time>
      </trkpt>
      <trkpt lat="42.46251" lon="2.51021">
        <ele>1714</ele>
        <time>2020-09-01T23:22:19.591Z</time>
      </trkpt>
      <trkpt lat="42.46249" lon="2.51012">
        <ele>1708</ele>
        <time>2020-09-01T23:22:22.075Z</time>
      </trkpt>
      <trkpt lat="42.46246" lon="2.51001">
        <ele>1711.3</ele>
        <time>2020-09-01T23:23:49.007Z</time>
      </trkpt>
      <trkpt lat="42.46243" lon="2.50993">
        <ele>1715.1</ele>
        <time>2020-09-01T23:24:55.529Z</time>
      </trkpt>
      <trkpt lat="42.4624" lon="2.50985">
        <ele>1715.9</ele>
        <time>2020-09-01T23:25:51.806Z</time>
      </trkpt>
      <trkpt lat="42.46237" lon="2.50977">
        <ele>1716.8</ele>
        <time>2020-09-01T23:26:58.328Z</time>
      </trkpt>
      <trkpt lat="42.46232" lon="2.50969">
        <ele>1717.7</ele>
        <time>2020-09-01T23:28:00.662Z</time>
      </trkpt>
      <trkpt lat="42.46228" lon="2.50962">
        <ele>1718.5</ele>
        <time>2020-09-01T23:28:57.320Z</time>
      </trkpt>
      <trkpt lat="42.46224" lon="2.50955">
        <ele>1719.2</ele>
        <time>2020-09-01T23:29:44.892Z</time>
      </trkpt>
      <trkpt lat="42.46219" lon="2.50947">
        <ele>1720</ele>
        <time>2020-09-01T23:30:39.101Z</time>
      </trkpt>
      <trkpt lat="42.46215" lon="2.50941">
        <ele>1720.5</ele>
        <time>2020-09-01T23:31:14.009Z</time>
      </trkpt>
      <trkpt lat="42.46211" lon="2.50934">
        <ele>1720.7</ele>
        <time>2020-09-01T23:31:37.658Z</time>
      </trkpt>
      <trkpt lat="42.46207" lon="2.50928">
        <ele>1720.9</ele>
        <time>2020-09-01T23:32:00.087Z</time>
      </trkpt>
      <trkpt lat="42.46204" lon="2.50921">
        <ele>1720.9</ele>
        <time>2020-09-01T23:32:15.645Z</time>
      </trkpt>
      <trkpt lat="42.462" lon="2.50916">
        <ele>1735.1</ele>
        <time>2020-09-01T23:33:10.317Z</time>
      </trkpt>
      <trkpt lat="42.46195" lon="2.5091">
        <ele>1734.5</ele>
        <time>2020-09-01T23:33:12.709Z</time>
      </trkpt>
      <trkpt lat="42.46192" lon="2.50906">
        <ele>1734.2</ele>
        <time>2020-09-01T23:33:14.216Z</time>
      </trkpt>
      <trkpt lat="42.46186" lon="2.50901">
        <ele>1733.6</ele>
        <time>2020-09-01T23:33:16.739Z</time>
      </trkpt>
      <trkpt lat="42.46181" lon="2.50898">
        <ele>1733.2</ele>
        <time>2020-09-01T23:33:18.697Z</time>
      </trkpt>
      <trkpt lat="42.46177" lon="2.50896">
        <ele>1733.1</ele>
        <time>2020-09-01T23:33:20.778Z</time>
      </trkpt>
      <trkpt lat="42.46171" lon="2.50891">
        <ele>1733.7</ele>
        <time>2020-09-01T23:34:02.473Z</time>
      </trkpt>
      <trkpt lat="42.46166" lon="2.50887">
        <ele>1723.2</ele>
        <time>2020-09-01T23:34:04.553Z</time>
      </trkpt>
      <trkpt lat="42.46161" lon="2.50881">
        <ele>1723.8</ele>
        <time>2020-09-01T23:34:45.719Z</time>
      </trkpt>
      <trkpt lat="42.46156" lon="2.50874">
        <ele>1724.7</ele>
        <time>2020-09-01T23:35:50.270Z</time>
      </trkpt>
      <trkpt lat="42.46153" lon="2.50867">
        <ele>1725.6</ele>
        <time>2020-09-01T23:36:50.279Z</time>
      </trkpt>
      <trkpt lat="42.46149" lon="2.50857">
        <ele>1726.9</ele>
        <time>2020-09-01T23:38:14.601Z</time>
      </trkpt>
      <trkpt lat="42.46147" lon="2.5085">
        <ele>1727.9</ele>
        <time>2020-09-01T23:39:10.246Z</time>
      </trkpt>
      <trkpt lat="42.46144" lon="2.50839">
        <ele>1728.6</ele>
        <time>2020-09-01T23:39:59.663Z</time>
      </trkpt>
      <trkpt lat="42.46141" lon="2.50828">
        <ele>1734.6</ele>
        <time>2020-09-01T23:41:26.597Z</time>
      </trkpt>
      <trkpt lat="42.46138" lon="2.50818">
        <ele>1734.2</ele>
        <time>2020-09-01T23:41:29.582Z</time>
      </trkpt>
      <trkpt lat="42.46136" lon="2.50806">
        <ele>1734</ele>
        <time>2020-09-01T23:41:34.082Z</time>
      </trkpt>
      <trkpt lat="42.46134" lon="2.50796">
        <ele>1734.1</ele>
        <time>2020-09-01T23:41:56.705Z</time>
      </trkpt>
      <trkpt lat="42.46132" lon="2.50785">
        <ele>1734.5</ele>
        <time>2020-09-01T23:42:34.249Z</time>
      </trkpt>
      <trkpt lat="42.46131" lon="2.50774">
        <ele>1735</ele>
        <time>2020-09-01T23:43:14.429Z</time>
      </trkpt>
      <trkpt lat="42.4613" lon="2.50762">
        <ele>1735.5</ele>
        <time>2020-09-01T23:43:56.706Z</time>
      </trkpt>
      <trkpt lat="42.4613" lon="2.50749">
        <ele>1739.2</ele>
        <time>2020-09-01T23:45:33.072Z</time>
      </trkpt>
      <trkpt lat="42.4613" lon="2.50739">
        <ele>1739.2</ele>
        <time>2020-09-01T23:45:52.290Z</time>
      </trkpt>
      <trkpt lat="42.4613" lon="2.50728">
        <ele>1739.2</ele>
        <time>2020-09-01T23:46:13.430Z</time>
      </trkpt>
      <trkpt lat="42.46131" lon="2.50717">
        <ele>1739.3</ele>
        <time>2020-09-01T23:46:37.417Z</time>
      </trkpt>
      <trkpt lat="42.46132" lon="2.50707">
        <ele>1739.6</ele>
        <time>2020-09-01T23:47:08.158Z</time>
      </trkpt>
      <trkpt lat="42.46133" lon="2.50697">
        <ele>1740.2</ele>
        <time>2020-09-01T23:47:50.571Z</time>
      </trkpt>
      <trkpt lat="42.46135" lon="2.50689">
        <ele>1741.1</ele>
        <time>2020-09-01T23:48:53.186Z</time>
      </trkpt>
      <trkpt lat="42.46137" lon="2.50679">
        <ele>1742.3</ele>
        <time>2020-09-01T23:50:09.989Z</time>
      </trkpt>
      <trkpt lat="42.46139" lon="2.50669">
        <ele>1743.6</ele>
        <time>2020-09-01T23:51:26.792Z</time>
      </trkpt>
      <trkpt lat="42.4614" lon="2.50659">
        <ele>1748</ele>
        <time>2020-09-01T23:52:41.597Z</time>
      </trkpt>
      <trkpt lat="42.46141" lon="2.5065">
        <ele>1748.2</ele>
        <time>2020-09-01T23:53:05.651Z</time>
      </trkpt>
      <trkpt lat="42.46142" lon="2.5064">
        <ele>1748.3</ele>
        <time>2020-09-01T23:53:27.766Z</time>
      </trkpt>
      <trkpt lat="42.46143" lon="2.50632">
        <ele>1748.7</ele>
        <time>2020-09-01T23:53:58.410Z</time>
      </trkpt>
      <trkpt lat="42.46143" lon="2.50622">
        <ele>1749.7</ele>
        <time>2020-09-01T23:55:12.538Z</time>
      </trkpt>
      <trkpt lat="42.46143" lon="2.50615">
        <ele>1750.6</ele>
        <time>2020-09-01T23:56:04.427Z</time>
      </trkpt>
      <trkpt lat="42.46144" lon="2.50608">
        <ele>1752</ele>
        <time>2020-09-01T23:56:57.280Z</time>
      </trkpt>
      <trkpt lat="42.46143" lon="2.50601">
        <ele>1753.3</ele>
        <time>2020-09-01T23:57:50.133Z</time>
      </trkpt>
      <trkpt lat="42.46141" lon="2.50593">
        <ele>1753.9</ele>
        <time>2020-09-01T23:58:30.873Z</time>
      </trkpt>
      <trkpt lat="42.4614" lon="2.50587">
        <ele>1753.7</ele>
        <time>2020-09-01T23:58:32.669Z</time>
      </trkpt>
      <trkpt lat="42.46138" lon="2.50578">
        <ele>1760</ele>
        <time>2020-09-01T23:59:42.345Z</time>
      </trkpt>
      <trkpt lat="42.46136" lon="2.50564">
        <ele>1759.1</ele>
        <time>2020-09-01T23:59:46.113Z</time>
      </trkpt>
      <trkpt lat="42.46134" lon="2.5055">
        <ele>1758.8</ele>
        <time>2020-09-01T23:59:50.969Z</time>
      </trkpt>
      <trkpt lat="42.46132" lon="2.5054">
        <ele>1759.1</ele>
        <time>2020-09-02T00:00:22.058Z</time>
      </trkpt>
      <trkpt lat="42.46131" lon="2.50531">
        <ele>1759.7</ele>
        <time>2020-09-02T00:01:03.271Z</time>
      </trkpt>
      <trkpt lat="42.4613" lon="2.50522">
        <ele>1760.2</ele>
        <time>2020-09-02T00:01:39.694Z</time>
      </trkpt>
      <trkpt lat="42.46128" lon="2.50515">
        <ele>1760</ele>
        <time>2020-09-02T00:01:42.059Z</time>
      </trkpt>
      <trkpt lat="42.46126" lon="2.50509">
        <ele>1759.5</ele>
        <time>2020-09-02T00:01:43.799Z</time>
      </trkpt>
      <trkpt lat="42.46124" lon="2.50502">
        <ele>1758.6</ele>
        <time>2020-09-02T00:01:45.782Z</time>
      </trkpt>
      <trkpt lat="42.46121" lon="2.50493">
        <ele>1762.2</ele>
        <time>2020-09-02T00:02:58.991Z</time>
      </trkpt>
      <trkpt lat="42.46118" lon="2.50488">
        <ele>1761.5</ele>
        <time>2020-09-02T00:03:00.694Z</time>
      </trkpt>
      <trkpt lat="42.46116" lon="2.50482">
        <ele>1761</ele>
        <time>2020-09-02T00:03:02.434Z</time>
      </trkpt>
      <trkpt lat="42.46115" lon="2.50475">
        <ele>1761</ele>
        <time>2020-09-02T00:03:16.137Z</time>
      </trkpt>
      <trkpt lat="42.46115" lon="2.50468">
        <ele>1761.5</ele>
        <time>2020-09-02T00:03:50.070Z</time>
      </trkpt>
      <trkpt lat="42.46117" lon="2.5046">
        <ele>1762.3</ele>
        <time>2020-09-02T00:04:48.421Z</time>
      </trkpt>
      <trkpt lat="42.46119" lon="2.50453">
        <ele>1762.9</ele>
        <time>2020-09-02T00:05:29.257Z</time>
      </trkpt>
      <trkpt lat="42.46123" lon="2.50438">
        <ele>1764</ele>
        <time>2020-09-02T00:06:44.211Z</time>
      </trkpt>
      <trkpt lat="42.46125" lon="2.50426">
        <ele>1764.8</ele>
        <time>2020-09-02T00:07:39.327Z</time>
      </trkpt>
      <trkpt lat="42.46126" lon="2.50421">
        <ele>1765</ele>
        <time>2020-09-02T00:07:57.006Z</time>
      </trkpt>
      <trkpt lat="42.46127" lon="2.50418">
        <ele>1765.6</ele>
        <time>2020-09-02T00:08:21.409Z</time>
      </trkpt>
      <trkpt lat="42.46129" lon="2.50415">
        <ele>1760.2</ele>
        <time>2020-09-02T00:08:22.477Z</time>
      </trkpt>
      <trkpt lat="42.4613" lon="2.50412">
        <ele>1760.5</ele>
        <time>2020-09-02T00:08:43.823Z</time>
      </trkpt>
      <trkpt lat="42.46131" lon="2.50409">
        <ele>1760.5</ele>
        <time>2020-09-02T00:08:50.150Z</time>
      </trkpt>
      <trkpt lat="42.46132" lon="2.50401">
        <ele>1760</ele>
        <time>2020-09-02T00:08:52.294Z</time>
      </trkpt>
      <trkpt lat="42.4613" lon="2.50403">
        <ele>1759.6</ele>
        <time>2020-09-02T00:08:53.184Z</time>
      </trkpt>
      <trkpt lat="42.46129" lon="2.50404">
        <ele>1759.3</ele>
        <time>2020-09-02T00:08:53.630Z</time>
      </trkpt>
      <trkpt lat="42.46128" lon="2.50405">
        <ele>1759.1</ele>
        <time>2020-09-02T00:08:54.075Z</time>
      </trkpt>
      <trkpt lat="42.46126" lon="2.50406">
        <ele>1758.6</ele>
        <time>2020-09-02T00:08:54.838Z</time>
      </trkpt>
      <trkpt lat="42.46125" lon="2.50405">
        <ele>1758.2</ele>
        <time>2020-09-02T00:08:55.283Z</time>
      </trkpt>
      <trkpt lat="42.46125" lon="2.50403">
        <ele>1757.8</ele>
        <time>2020-09-02T00:08:55.812Z</time>
      </trkpt>
      <trkpt lat="42.46123" lon="2.50402">
        <ele>1757.4</ele>
        <time>2020-09-02T00:08:56.575Z</time>
      </trkpt>
      <trkpt lat="42.46123" lon="2.50404">
        <ele>1757.3</ele>
        <time>2020-09-02T00:08:57.104Z</time>
      </trkpt>
      <trkpt lat="42.46122" lon="2.50405">
        <ele>1757.2</ele>
        <time>2020-09-02T00:08:57.549Z</time>
      </trkpt>
      <trkpt lat="42.46121" lon="2.50407">
        <ele>1757.1</ele>
        <time>2020-09-02T00:08:58.185Z</time>
      </trkpt>
      <trkpt lat="42.46121" lon="2.50408">
        <ele>1757</ele>
        <time>2020-09-02T00:08:58.449Z</time>
      </trkpt>
      <trkpt lat="42.4612" lon="2.5041">
        <ele>1756.9</ele>
        <time>2020-09-02T00:08:59.085Z</time>
      </trkpt>
      <trkpt lat="42.4612" lon="2.50411">
        <ele>1756.7</ele>
        <time>2020-09-02T00:08:59.349Z</time>
      </trkpt>
      <trkpt lat="42.46118" lon="2.50412">
        <ele>1756.3</ele>
        <time>2020-09-02T00:09:00.112Z</time>
      </trkpt>
      <trkpt lat="42.46118" lon="2.5041">
        <ele>1756.1</ele>
        <time>2020-09-02T00:09:00.641Z</time>
      </trkpt>
      <trkpt lat="42.46117" lon="2.50406">
        <ele>1755.9</ele>
        <time>2020-09-02T00:09:01.683Z</time>
      </trkpt>
      <trkpt lat="42.46118" lon="2.50401">
        <ele>1755.7</ele>
        <time>2020-09-02T00:09:03.090Z</time>
      </trkpt>
      <trkpt lat="42.46119" lon="2.50397">
        <ele>1755.8</ele>
        <time>2020-09-02T00:09:14.586Z</time>
      </trkpt>
      <trkpt lat="42.4612" lon="2.50395">
        <ele>1755.8</ele>
        <time>2020-09-02T00:09:19.230Z</time>
      </trkpt>
      <trkpt lat="42.46119" lon="2.50394">
        <ele>1755.4</ele>
        <time>2020-09-02T00:09:19.675Z</time>
      </trkpt>
      <trkpt lat="42.46117" lon="2.50397">
        <ele>1755.3</ele>
        <time>2020-09-02T00:09:20.982Z</time>
      </trkpt>
      <trkpt lat="42.46116" lon="2.50402">
        <ele>1755.2</ele>
        <time>2020-09-02T00:09:22.791Z</time>
      </trkpt>
      <trkpt lat="42.46114" lon="2.50408">
        <ele>1755</ele>
        <time>2020-09-02T00:09:24.767Z</time>
      </trkpt>
      <trkpt lat="42.46113" lon="2.50414">
        <ele>1754.9</ele>
        <time>2020-09-02T00:09:27.017Z</time>
      </trkpt>
      <trkpt lat="42.46112" lon="2.50419">
        <ele>1760.1</ele>
        <time>2020-09-02T00:10:05.419Z</time>
      </trkpt>
      <trkpt lat="42.46111" lon="2.50423">
        <ele>1759.8</ele>
        <time>2020-09-02T00:10:06.535Z</time>
      </trkpt>
      <trkpt lat="42.4611" lon="2.50427">
        <ele>1759.6</ele>
        <time>2020-09-02T00:10:07.577Z</time>
      </trkpt>
      <trkpt lat="42.46106" lon="2.50435">
        <ele>1759</ele>
        <time>2020-09-02T00:10:10.131Z</time>
      </trkpt>
      <trkpt lat="42.46106" lon="2.50429">
        <ele>1758.3</ele>
        <time>2020-09-02T00:10:11.716Z</time>
      </trkpt>
      <trkpt lat="42.46104" lon="2.50402">
        <ele>1752.2</ele>
        <time>2020-09-02T00:10:18.887Z</time>
      </trkpt>
      <trkpt lat="42.46103" lon="2.504">
        <ele>1752.2</ele>
        <time>2020-09-02T00:10:23.530Z</time>
      </trkpt>
      <trkpt lat="42.46103" lon="2.50398">
        <ele>1752.1</ele>
        <time>2020-09-02T00:10:24.058Z</time>
      </trkpt>
      <trkpt lat="42.46101" lon="2.504">
        <ele>1751.7</ele>
        <time>2020-09-02T00:10:24.949Z</time>
      </trkpt>
      <trkpt lat="42.46099" lon="2.50406">
        <ele>1751.2</ele>
        <time>2020-09-02T00:10:26.688Z</time>
      </trkpt>
      <trkpt lat="42.46097" lon="2.50414">
        <ele>1750.3</ele>
        <time>2020-09-02T00:10:28.920Z</time>
      </trkpt>
      <trkpt lat="42.46094" lon="2.50422">
        <ele>1753</ele>
        <time>2020-09-02T00:11:35.444Z</time>
      </trkpt>
      <trkpt lat="42.46091" lon="2.5043">
        <ele>1754</ele>
        <time>2020-09-02T00:12:41.968Z</time>
      </trkpt>
      <trkpt lat="42.46089" lon="2.50438">
        <ele>1755.5</ele>
        <time>2020-09-02T00:13:44.583Z</time>
      </trkpt>
      <trkpt lat="42.46087" lon="2.50447">
        <ele>1756.3</ele>
        <time>2020-09-02T00:14:39.833Z</time>
      </trkpt>
      <trkpt lat="42.46085" lon="2.50458">
        <ele>1756.1</ele>
        <time>2020-09-02T00:14:43.889Z</time>
      </trkpt>
      <trkpt lat="42.46083" lon="2.50467">
        <ele>1727.9</ele>
        <time>2020-09-02T00:14:46.373Z</time>
      </trkpt>
      <trkpt lat="42.46081" lon="2.50474">
        <ele>1728.2</ele>
        <time>2020-09-02T00:15:12.307Z</time>
      </trkpt>
      <trkpt lat="42.46081" lon="2.50479">
        <ele>1729</ele>
        <time>2020-09-02T00:15:49.371Z</time>
      </trkpt>
      <trkpt lat="42.4608" lon="2.50482">
        <ele>1729.5</ele>
        <time>2020-09-02T00:16:13.774Z</time>
      </trkpt>
      <trkpt lat="42.46078" lon="2.50482">
        <ele>1729.3</ele>
        <time>2020-09-02T00:16:14.491Z</time>
      </trkpt>
      <trkpt lat="42.46077" lon="2.50479">
        <ele>1728.4</ele>
        <time>2020-09-02T00:16:15.361Z</time>
      </trkpt>
      <trkpt lat="42.46075" lon="2.50471">
        <ele>1727.3</ele>
        <time>2020-09-02T00:16:17.593Z</time>
      </trkpt>
      <trkpt lat="42.46074" lon="2.50464">
        <ele>1726.7</ele>
        <time>2020-09-02T00:16:19.477Z</time>
      </trkpt>
      <trkpt lat="42.46072" lon="2.50456">
        <ele>1726.8</ele>
        <time>2020-09-02T00:16:38.508Z</time>
      </trkpt>
      <trkpt lat="42.4607" lon="2.50447">
        <ele>1727.7</ele>
        <time>2020-09-02T00:17:44.697Z</time>
      </trkpt>
      <trkpt lat="42.46069" lon="2.50438">
        <ele>1729.2</ele>
        <time>2020-09-02T00:18:52.165Z</time>
      </trkpt>
      <trkpt lat="42.46067" lon="2.50428">
        <ele>1731.1</ele>
        <time>2020-09-02T00:20:08.968Z</time>
      </trkpt>
      <trkpt lat="42.46066" lon="2.50417">
        <ele>1732</ele>
        <time>2020-09-02T00:21:10.387Z</time>
      </trkpt>
      <trkpt lat="42.46065" lon="2.50405">
        <ele>1727.2</ele>
        <time>2020-09-02T00:21:13.578Z</time>
      </trkpt>
      <trkpt lat="42.46065" lon="2.50393">
        <ele>1723.6</ele>
        <time>2020-09-02T00:21:16.749Z</time>
      </trkpt>
      <trkpt lat="42.46064" lon="2.50384">
        <ele>1721.1</ele>
        <time>2020-09-02T00:21:19.154Z</time>
      </trkpt>
      <trkpt lat="42.46064" lon="2.50373">
        <ele>1719.4</ele>
        <time>2020-09-02T00:21:22.061Z</time>
      </trkpt>
      <trkpt lat="42.46064" lon="2.50363">
        <ele>1718.8</ele>
        <time>2020-09-02T00:21:24.703Z</time>
      </trkpt>
      <trkpt lat="42.46066" lon="2.50355">
        <ele>1719</ele>
        <time>2020-09-02T00:21:47.696Z</time>
      </trkpt>
      <trkpt lat="42.46067" lon="2.50348">
        <ele>1719.6</ele>
        <time>2020-09-02T00:22:28.990Z</time>
      </trkpt>
      <trkpt lat="42.46068" lon="2.50341">
        <ele>1720.3</ele>
        <time>2020-09-02T00:23:21.573Z</time>
      </trkpt>
      <trkpt lat="42.46069" lon="2.50337">
        <ele>1721</ele>
        <time>2020-09-02T00:23:52.880Z</time>
      </trkpt>
      <trkpt lat="42.4607" lon="2.50333">
        <ele>1712.7</ele>
        <time>2020-09-02T00:23:53.996Z</time>
      </trkpt>
      <trkpt lat="42.4607" lon="2.50331">
        <ele>1712.6</ele>
        <time>2020-09-02T00:23:54.525Z</time>
      </trkpt>
      <trkpt lat="42.4607" lon="2.50329">
        <ele>1711.8</ele>
        <time>2020-09-02T00:23:55.053Z</time>
      </trkpt>
      <trkpt lat="42.46068" lon="2.50329">
        <ele>1710.5</ele>
        <time>2020-09-02T00:23:55.769Z</time>
      </trkpt>
      <trkpt lat="42.46066" lon="2.5033">
        <ele>1709.3</ele>
        <time>2020-09-02T00:23:56.533Z</time>
      </trkpt>
      <trkpt lat="42.46062" lon="2.50334">
        <ele>1718.7</ele>
        <time>2020-09-02T00:24:46.479Z</time>
      </trkpt>
      <trkpt lat="42.46055" lon="2.50342">
        <ele>1716.2</ele>
        <time>2020-09-02T00:24:49.758Z</time>
      </trkpt>
      <trkpt lat="42.46048" lon="2.50351">
        <ele>1714.4</ele>
        <time>2020-09-02T00:24:53.214Z</time>
      </trkpt>
      <trkpt lat="42.46043" lon="2.50359">
        <ele>1713.4</ele>
        <time>2020-09-02T00:24:55.985Z</time>
      </trkpt>
      <trkpt lat="42.46039" lon="2.50369">
        <ele>1713</ele>
        <time>2020-09-02T00:24:59.202Z</time>
      </trkpt>
      <trkpt lat="42.46034" lon="2.50379">
        <ele>1712.6</ele>
        <time>2020-09-02T00:25:02.705Z</time>
      </trkpt>
      <trkpt lat="42.46031" lon="2.50388">
        <ele>1712.2</ele>
        <time>2020-09-02T00:25:05.329Z</time>
      </trkpt>
      <trkpt lat="42.46027" lon="2.50398">
        <ele>1711.2</ele>
        <time>2020-09-02T00:25:08.335Z</time>
      </trkpt>
      <trkpt lat="42.46024" lon="2.50409">
        <ele>1709.7</ele>
        <time>2020-09-02T00:25:11.434Z</time>
      </trkpt>
      <trkpt lat="42.4602" lon="2.5042">
        <ele>1710.6</ele>
        <time>2020-09-02T00:26:12.414Z</time>
      </trkpt>
      <trkpt lat="42.46017" lon="2.50429">
        <ele>1710.4</ele>
        <time>2020-09-02T00:26:15.816Z</time>
      </trkpt>
      <trkpt lat="42.46014" lon="2.50439">
        <ele>1711.2</ele>
        <time>2020-09-02T00:27:10.006Z</time>
      </trkpt>
      <trkpt lat="42.46011" lon="2.5045">
        <ele>1712.1</ele>
        <time>2020-09-02T00:28:11.009Z</time>
      </trkpt>
      <trkpt lat="42.46009" lon="2.50461">
        <ele>1712</ele>
        <time>2020-09-02T00:28:15.694Z</time>
      </trkpt>
      <trkpt lat="42.46008" lon="2.50477">
        <ele>1709.8</ele>
        <time>2020-09-02T00:28:19.937Z</time>
      </trkpt>
      <trkpt lat="42.46008" lon="2.50491">
        <ele>1705.2</ele>
        <time>2020-09-02T00:28:23.636Z</time>
      </trkpt>
      <trkpt lat="42.46008" lon="2.50504">
        <ele>1701</ele>
        <time>2020-09-02T00:28:27.071Z</time>
      </trkpt>
      <trkpt lat="42.46009" lon="2.50516">
        <ele>1703.2</ele>
        <time>2020-09-02T00:29:56.592Z</time>
      </trkpt>
      <trkpt lat="42.4601" lon="2.50528">
        <ele>1704</ele>
        <time>2020-09-02T00:30:51.487Z</time>
      </trkpt>
      <trkpt lat="42.4601" lon="2.50538">
        <ele>1703.6</ele>
        <time>2020-09-02T00:30:54.160Z</time>
      </trkpt>
      <trkpt lat="42.46012" lon="2.50551">
        <ele>1701.7</ele>
        <time>2020-09-02T00:30:57.669Z</time>
      </trkpt>
      <trkpt lat="42.46013" lon="2.50562">
        <ele>1699.2</ele>
        <time>2020-09-02T00:31:00.598Z</time>
      </trkpt>
      <trkpt lat="42.46016" lon="2.50571">
        <ele>1697.3</ele>
        <time>2020-09-02T00:31:03.208Z</time>
      </trkpt>
      <trkpt lat="42.46018" lon="2.50577">
        <ele>1696.8</ele>
        <time>2020-09-02T00:31:04.948Z</time>
      </trkpt>
      <trkpt lat="42.46021" lon="2.50583">
        <ele>1697.5</ele>
        <time>2020-09-02T00:31:56.784Z</time>
      </trkpt>
      <trkpt lat="42.46024" lon="2.50589">
        <ele>1693.7</ele>
        <time>2020-09-02T00:31:58.699Z</time>
      </trkpt>
      <trkpt lat="42.46026" lon="2.50596">
        <ele>1694.8</ele>
        <time>2020-09-02T00:32:54.345Z</time>
      </trkpt>
      <trkpt lat="42.46026" lon="2.50603">
        <ele>1695.5</ele>
        <time>2020-09-02T00:33:46.235Z</time>
      </trkpt>
      <trkpt lat="42.46027" lon="2.50609">
        <ele>1695.8</ele>
        <time>2020-09-02T00:34:09.345Z</time>
      </trkpt>
      <trkpt lat="42.46027" lon="2.50617">
        <ele>1695.9</ele>
        <time>2020-09-02T00:34:27.544Z</time>
      </trkpt>
      <trkpt lat="42.46028" lon="2.50622">
        <ele>1696</ele>
        <time>2020-09-02T00:34:40.639Z</time>
      </trkpt>
      <trkpt lat="42.4603" lon="2.50627">
        <ele>1696.4</ele>
        <time>2020-09-02T00:35:07.827Z</time>
      </trkpt>
      <trkpt lat="42.46031" lon="2.50631">
        <ele>1696.5</ele>
        <time>2020-09-02T00:35:19.323Z</time>
      </trkpt>
      <trkpt lat="42.46031" lon="2.50636">
        <ele>1696.1</ele>
        <time>2020-09-02T00:35:20.644Z</time>
      </trkpt>
      <trkpt lat="42.46029" lon="2.5064">
        <ele>1695.2</ele>
        <time>2020-09-02T00:35:21.921Z</time>
      </trkpt>
      <trkpt lat="42.46025" lon="2.50645">
        <ele>1693.5</ele>
        <time>2020-09-02T00:35:23.870Z</time>
      </trkpt>
      <trkpt lat="42.46018" lon="2.50652">
        <ele>1689.8</ele>
        <time>2020-09-02T00:35:26.986Z</time>
      </trkpt>
      <trkpt lat="42.46013" lon="2.50658">
        <ele>1686.4</ele>
        <time>2020-09-02T00:35:29.378Z</time>
      </trkpt>
      <trkpt lat="42.46008" lon="2.50664">
        <ele>1681.9</ele>
        <time>2020-09-02T00:35:31.770Z</time>
      </trkpt>
      <trkpt lat="42.46003" lon="2.50671">
        <ele>1679.9</ele>
        <time>2020-09-02T00:35:34.344Z</time>
      </trkpt>
      <trkpt lat="42.46" lon="2.50677">
        <ele>1683.2</ele>
        <time>2020-09-02T00:36:28.074Z</time>
      </trkpt>
      <trkpt lat="42.45997" lon="2.50683">
        <ele>1671.7</ele>
        <time>2020-09-02T00:36:29.990Z</time>
      </trkpt>
      <trkpt lat="42.45992" lon="2.50688">
        <ele>1671.1</ele>
        <time>2020-09-02T00:36:32.215Z</time>
      </trkpt>
      <trkpt lat="42.45986" lon="2.50692">
        <ele>1670.4</ele>
        <time>2020-09-02T00:36:34.610Z</time>
      </trkpt>
      <trkpt lat="42.45977" lon="2.50695">
        <ele>1669.3</ele>
        <time>2020-09-02T00:36:37.930Z</time>
      </trkpt>
      <trkpt lat="42.45968" lon="2.50697">
        <ele>1667.8</ele>
        <time>2020-09-02T00:36:41.197Z</time>
      </trkpt>
      <trkpt lat="42.45954" lon="2.50702">
        <ele>1665.5</ele>
        <time>2020-09-02T00:36:46.382Z</time>
      </trkpt>
      <trkpt lat="42.45942" lon="2.50707">
        <ele>1664.2</ele>
        <time>2020-09-02T00:36:50.879Z</time>
      </trkpt>
      <trkpt lat="42.45932" lon="2.50712">
        <ele>1663.6</ele>
        <time>2020-09-02T00:36:54.675Z</time>
      </trkpt>
      <trkpt lat="42.45921" lon="2.50717">
        <ele>1663.5</ele>
        <time>2020-09-02T00:37:01.473Z</time>
      </trkpt>
      <trkpt lat="42.45912" lon="2.50721">
        <ele>1648.9</ele>
        <time>2020-09-02T00:37:04.865Z</time>
      </trkpt>
      <trkpt lat="42.45903" lon="2.50724">
        <ele>1648.8</ele>
        <time>2020-09-02T00:37:10.141Z</time>
      </trkpt>
      <trkpt lat="42.45894" lon="2.50726">
        <ele>1647.9</ele>
        <time>2020-09-02T00:37:13.407Z</time>
      </trkpt>
      <trkpt lat="42.45884" lon="2.50729">
        <ele>1646.4</ele>
        <time>2020-09-02T00:37:17.076Z</time>
      </trkpt>
      <trkpt lat="42.45875" lon="2.5073">
        <ele>1645.2</ele>
        <time>2020-09-02T00:37:20.310Z</time>
      </trkpt>
      <trkpt lat="42.45866" lon="2.50731">
        <ele>1644.1</ele>
        <time>2020-09-02T00:37:23.545Z</time>
      </trkpt>
      <trkpt lat="42.45857" lon="2.50732">
        <ele>1643.6</ele>
        <time>2020-09-02T00:37:26.785Z</time>
      </trkpt>
      <trkpt lat="42.45848" lon="2.50733">
        <ele>1643.4</ele>
        <time>2020-09-02T00:37:31.258Z</time>
      </trkpt>
      <trkpt lat="42.45838" lon="2.50733">
        <ele>1643.4</ele>
        <time>2020-09-02T00:37:57.308Z</time>
      </trkpt>
      <trkpt lat="42.45829" lon="2.50734">
        <ele>1633.3</ele>
        <time>2020-09-02T00:38:00.542Z</time>
      </trkpt>
      <trkpt lat="42.45821" lon="2.50736">
        <ele>1632</ele>
        <time>2020-09-02T00:38:03.456Z</time>
      </trkpt>
      <trkpt lat="42.45813" lon="2.50739">
        <ele>1629.9</ele>
        <time>2020-09-02T00:38:06.429Z</time>
      </trkpt>
      <trkpt lat="42.45806" lon="2.50742">
        <ele>1627.9</ele>
        <time>2020-09-02T00:38:09.059Z</time>
      </trkpt>
      <trkpt lat="42.45798" lon="2.50746">
        <ele>1625.8</ele>
        <time>2020-09-02T00:38:12.113Z</time>
      </trkpt>
      <trkpt lat="42.4579" lon="2.50752">
        <ele>1638.5</ele>
        <time>2020-09-02T00:39:43.982Z</time>
      </trkpt>
      <trkpt lat="42.45782" lon="2.50759">
        <ele>1636.7</ele>
        <time>2020-09-02T00:39:47.393Z</time>
      </trkpt>
      <trkpt lat="42.45775" lon="2.50765">
        <ele>1635.5</ele>
        <time>2020-09-02T00:39:50.360Z</time>
      </trkpt>
      <trkpt lat="42.45767" lon="2.50771">
        <ele>1634.9</ele>
        <time>2020-09-02T00:39:53.384Z</time>
      </trkpt>
      <trkpt lat="42.4576" lon="2.50777">
        <ele>1635</ele>
        <time>2020-09-02T00:40:17.642Z</time>
      </trkpt>
      <trkpt lat="42.45753" lon="2.50784">
        <ele>1635.7</ele>
        <time>2020-09-02T00:41:07.150Z</time>
      </trkpt>
      <trkpt lat="42.45746" lon="2.50789">
        <ele>1621.2</ele>
        <time>2020-09-02T00:41:09.984Z</time>
      </trkpt>
      <trkpt lat="42.45738" lon="2.50794">
        <ele>1621.2</ele>
        <time>2020-09-02T00:41:32.933Z</time>
      </trkpt>
      <trkpt lat="42.4573" lon="2.50798">
        <ele>1621</ele>
        <time>2020-09-02T00:41:37.094Z</time>
      </trkpt>
      <trkpt lat="42.45723" lon="2.50801">
        <ele>1620.4</ele>
        <time>2020-09-02T00:41:39.724Z</time>
      </trkpt>
      <trkpt lat="42.45716" lon="2.50804">
        <ele>1619.7</ele>
        <time>2020-09-02T00:41:42.353Z</time>
      </trkpt>
      <trkpt lat="42.45708" lon="2.50807">
        <ele>1618.9</ele>
        <time>2020-09-02T00:41:45.326Z</time>
      </trkpt>
      <trkpt lat="42.45701" lon="2.50809">
        <ele>1618</ele>
        <time>2020-09-02T00:41:47.889Z</time>
      </trkpt>
      <trkpt lat="42.45691" lon="2.50812">
        <ele>1617.1</ele>
        <time>2020-09-02T00:41:51.557Z</time>
      </trkpt>
      <trkpt lat="42.45678" lon="2.50818">
        <ele>1616.3</ele>
        <time>2020-09-02T00:41:56.370Z</time>
      </trkpt>
      <trkpt lat="42.45671" lon="2.50822">
        <ele>1616.2</ele>
        <time>2020-09-02T00:42:00.564Z</time>
      </trkpt>
      <trkpt lat="42.45665" lon="2.50825">
        <ele>1609.3</ele>
        <time>2020-09-02T00:42:02.854Z</time>
      </trkpt>
      <trkpt lat="42.4566" lon="2.50828">
        <ele>1609.1</ele>
        <time>2020-09-02T00:42:05.179Z</time>
      </trkpt>
      <trkpt lat="42.45656" lon="2.5083">
        <ele>1607.4</ele>
        <time>2020-09-02T00:42:06.706Z</time>
      </trkpt>
      <trkpt lat="42.45645" lon="2.50835">
        <ele>1611</ele>
        <time>2020-09-02T00:44:03.283Z</time>
      </trkpt>
      <trkpt lat="42.45636" lon="2.5084">
        <ele>1609.1</ele>
        <time>2020-09-02T00:44:06.767Z</time>
      </trkpt>
      <trkpt lat="42.45627" lon="2.50844">
        <ele>1607.3</ele>
        <time>2020-09-02T00:44:10.160Z</time>
      </trkpt>
      <trkpt lat="42.45621" lon="2.50848">
        <ele>1606.1</ele>
        <time>2020-09-02T00:44:12.555Z</time>
      </trkpt>
      <trkpt lat="42.45614" lon="2.50853">
        <ele>1604.8</ele>
        <time>2020-09-02T00:44:15.389Z</time>
      </trkpt>
      <trkpt lat="42.45606" lon="2.50857">
        <ele>1603.6</ele>
        <time>2020-09-02T00:44:18.443Z</time>
      </trkpt>
      <trkpt lat="42.45597" lon="2.5086">
        <ele>1602.6</ele>
        <time>2020-09-02T00:44:21.763Z</time>
      </trkpt>
      <trkpt lat="42.4559" lon="2.50863">
        <ele>1602.1</ele>
        <time>2020-09-02T00:44:24.393Z</time>
      </trkpt>
      <trkpt lat="42.45584" lon="2.50866">
        <ele>1602.3</ele>
        <time>2020-09-02T00:44:47.741Z</time>
      </trkpt>
      <trkpt lat="42.45577" lon="2.50872">
        <ele>1581.7</ele>
        <time>2020-09-02T00:44:50.707Z</time>
      </trkpt>
      <trkpt lat="42.45571" lon="2.50878">
        <ele>1581.7</ele>
        <time>2020-09-02T00:45:10.131Z</time>
      </trkpt>
      <trkpt lat="42.45567" lon="2.50881">
        <ele>1581.6</ele>
        <time>2020-09-02T00:45:12.402Z</time>
      </trkpt>
      <trkpt lat="42.45563" lon="2.50885">
        <ele>1581.2</ele>
        <time>2020-09-02T00:45:14.183Z</time>
      </trkpt>
      <trkpt lat="42.45559" lon="2.5089">
        <ele>1581</ele>
        <time>2020-09-02T00:45:16.492Z</time>
      </trkpt>
      <trkpt lat="42.45562" lon="2.50878">
        <ele>1580</ele>
        <time>2020-09-02T00:45:19.840Z</time>
      </trkpt>
      <trkpt lat="42.45564" lon="2.50868">
        <ele>1579.5</ele>
        <time>2020-09-02T00:45:22.373Z</time>
      </trkpt>
      <trkpt lat="42.45567" lon="2.5086">
        <ele>1579.6</ele>
        <time>2020-09-02T00:45:42.390Z</time>
      </trkpt>
      <trkpt lat="42.45569" lon="2.50851">
        <ele>1580.3</ele>
        <time>2020-09-02T00:46:29.803Z</time>
      </trkpt>
      <trkpt lat="42.45571" lon="2.50844">
        <ele>1581.3</ele>
        <time>2020-09-02T00:47:25.452Z</time>
      </trkpt>
      <trkpt lat="42.45574" lon="2.50836">
        <ele>1582.9</ele>
        <time>2020-09-02T00:48:31.981Z</time>
      </trkpt>
      <trkpt lat="42.45577" lon="2.50829">
        <ele>1580.3</ele>
        <time>2020-09-02T00:48:34.120Z</time>
      </trkpt>
      <trkpt lat="42.45579" lon="2.50822">
        <ele>1578.3</ele>
        <time>2020-09-02T00:48:36.104Z</time>
      </trkpt>
      <trkpt lat="42.45582" lon="2.50814">
        <ele>1575</ele>
        <time>2020-09-02T00:48:38.475Z</time>
      </trkpt>
      <trkpt lat="42.45584" lon="2.50807">
        <ele>1588.7</ele>
        <time>2020-09-02T00:49:34.124Z</time>
      </trkpt>
      <trkpt lat="42.45585" lon="2.50799">
        <ele>1588.2</ele>
        <time>2020-09-02T00:49:36.268Z</time>
      </trkpt>
      <trkpt lat="42.45586" lon="2.5079">
        <ele>1587.1</ele>
        <time>2020-09-02T00:49:38.674Z</time>
      </trkpt>
      <trkpt lat="42.45587" lon="2.50785">
        <ele>1586.2</ele>
        <time>2020-09-02T00:49:40.043Z</time>
      </trkpt>
      <trkpt lat="42.45589" lon="2.5078">
        <ele>1585.3</ele>
        <time>2020-09-02T00:49:41.546Z</time>
      </trkpt>
      <trkpt lat="42.45591" lon="2.50776">
        <ele>1584.6</ele>
        <time>2020-09-02T00:49:42.823Z</time>
      </trkpt>
      <trkpt lat="42.45594" lon="2.5077">
        <ele>1583.2</ele>
        <time>2020-09-02T00:49:44.738Z</time>
      </trkpt>
      <trkpt lat="42.45594" lon="2.50764">
        <ele>1581.5</ele>
        <time>2020-09-02T00:49:46.324Z</time>
      </trkpt>
      <trkpt lat="42.45594" lon="2.50758">
        <ele>1579.8</ele>
        <time>2020-09-02T00:49:47.909Z</time>
      </trkpt>
      <trkpt lat="42.45594" lon="2.50751">
        <ele>1578.4</ele>
        <time>2020-09-02T00:49:49.759Z</time>
      </trkpt>
      <trkpt lat="42.45595" lon="2.50745">
        <ele>1571.4</ele>
        <time>2020-09-02T00:49:51.385Z</time>
      </trkpt>
      <trkpt lat="42.45596" lon="2.50739">
        <ele>1571.3</ele>
        <time>2020-09-02T00:49:53.635Z</time>
      </trkpt>
      <trkpt lat="42.45597" lon="2.50735">
        <ele>1571.2</ele>
        <time>2020-09-02T00:49:55.021Z</time>
      </trkpt>
      <trkpt lat="42.45599" lon="2.50731">
        <ele>1571.1</ele>
        <time>2020-09-02T00:49:56.675Z</time>
      </trkpt>
      <trkpt lat="42.45601" lon="2.50728">
        <ele>1570.9</ele>
        <time>2020-09-02T00:49:57.743Z</time>
      </trkpt>
      <trkpt lat="42.45603" lon="2.50719">
        <ele>1570.3</ele>
        <time>2020-09-02T00:50:00.227Z</time>
      </trkpt>
      <trkpt lat="42.45602" lon="2.5071">
        <ele>1569</ele>
        <time>2020-09-02T00:50:02.632Z</time>
      </trkpt>
      <trkpt lat="42.45601" lon="2.50706">
        <ele>1568.2</ele>
        <time>2020-09-02T00:50:03.748Z</time>
      </trkpt>
      <trkpt lat="42.45599" lon="2.50702">
        <ele>1567.5</ele>
        <time>2020-09-02T00:50:05.025Z</time>
      </trkpt>
      <trkpt lat="42.45597" lon="2.50699">
        <ele>1566.7</ele>
        <time>2020-09-02T00:50:06.094Z</time>
      </trkpt>
      <trkpt lat="42.45594" lon="2.50696">
        <ele>1565.7</ele>
        <time>2020-09-02T00:50:07.429Z</time>
      </trkpt>
      <trkpt lat="42.45591" lon="2.50693">
        <ele>1564.9</ele>
        <time>2020-09-02T00:50:08.765Z</time>
      </trkpt>
      <trkpt lat="42.45587" lon="2.50693">
        <ele>1564.4</ele>
        <time>2020-09-02T00:50:10.197Z</time>
      </trkpt>
      <trkpt lat="42.45584" lon="2.50693">
        <ele>1564.3</ele>
        <time>2020-09-02T00:50:11.514Z</time>
      </trkpt>
      <trkpt lat="42.4558" lon="2.50695">
        <ele>1554.7</ele>
        <time>2020-09-02T00:50:13.042Z</time>
      </trkpt>
      <trkpt lat="42.45576" lon="2.50699">
        <ele>1555</ele>
        <time>2020-09-02T00:50:37.332Z</time>
      </trkpt>
      <trkpt lat="42.45573" lon="2.50704">
        <ele>1555.3</ele>
        <time>2020-09-02T00:51:01.023Z</time>
      </trkpt>
      <trkpt lat="42.4557" lon="2.50709">
        <ele>1555.8</ele>
        <time>2020-09-02T00:51:34.938Z</time>
      </trkpt>
      <trkpt lat="42.45566" lon="2.50715">
        <ele>1556.4</ele>
        <time>2020-09-02T00:52:15.580Z</time>
      </trkpt>
      <trkpt lat="42.45562" lon="2.50722">
        <ele>1556.9</ele>
        <time>2020-09-02T00:52:51.599Z</time>
      </trkpt>
      <trkpt lat="42.45558" lon="2.50728">
        <ele>1557</ele>
        <time>2020-09-02T00:53:09.960Z</time>
      </trkpt>
      <trkpt lat="42.45554" lon="2.50733">
        <ele>1556.7</ele>
        <time>2020-09-02T00:53:11.917Z</time>
      </trkpt>
      <trkpt lat="42.45549" lon="2.50738">
        <ele>1556.1</ele>
        <time>2020-09-02T00:53:14.142Z</time>
      </trkpt>
      <trkpt lat="42.45543" lon="2.50744">
        <ele>1555.2</ele>
        <time>2020-09-02T00:53:16.813Z</time>
      </trkpt>
      <trkpt lat="42.45538" lon="2.50752">
        <ele>1560.9</ele>
        <time>2020-09-02T00:54:34.540Z</time>
      </trkpt>
      <trkpt lat="42.45534" lon="2.5076">
        <ele>1560.2</ele>
        <time>2020-09-02T00:54:37.094Z</time>
      </trkpt>
      <trkpt lat="42.4553" lon="2.50768">
        <ele>1559.8</ele>
        <time>2020-09-02T00:54:39.637Z</time>
      </trkpt>
      <trkpt lat="42.45524" lon="2.50777">
        <ele>1559.5</ele>
        <time>2020-09-02T00:54:43.559Z</time>
      </trkpt>
      <trkpt lat="42.45519" lon="2.50784">
        <ele>1559.4</ele>
        <time>2020-09-02T00:54:47.489Z</time>
      </trkpt>
      <trkpt lat="42.45513" lon="2.50792">
        <ele>1559.1</ele>
        <time>2020-09-02T00:54:51.100Z</time>
      </trkpt>
      <trkpt lat="42.45506" lon="2.50801">
        <ele>1558.6</ele>
        <time>2020-09-02T00:54:54.667Z</time>
      </trkpt>
      <trkpt lat="42.455" lon="2.50809">
        <ele>1557.6</ele>
        <time>2020-09-02T00:54:57.682Z</time>
      </trkpt>
      <trkpt lat="42.45495" lon="2.50816">
        <ele>1540.3</ele>
        <time>2020-09-02T00:55:00.257Z</time>
      </trkpt>
      <trkpt lat="42.4549" lon="2.50823">
        <ele>1541.4</ele>
        <time>2020-09-02T00:56:12.486Z</time>
      </trkpt>
      <trkpt lat="42.45486" lon="2.50828">
        <ele>1540.8</ele>
        <time>2020-09-02T00:56:14.435Z</time>
      </trkpt>
      <trkpt lat="42.45482" lon="2.50833">
        <ele>1541.5</ele>
        <time>2020-09-02T00:57:05.570Z</time>
      </trkpt>
      <trkpt lat="42.45475" lon="2.50844">
        <ele>1538.3</ele>
        <time>2020-09-02T00:57:09.409Z</time>
      </trkpt>
      <trkpt lat="42.45473" lon="2.50846">
        <ele>1537.5</ele>
        <time>2020-09-02T00:57:10.299Z</time>
      </trkpt>
      <trkpt lat="42.45472" lon="2.50845">
        <ele>1537.2</ele>
        <time>2020-09-02T00:57:10.744Z</time>
      </trkpt>
      <trkpt lat="42.45472" lon="2.5084">
        <ele>1537.6</ele>
        <time>2020-09-02T00:57:37.972Z</time>
      </trkpt>
      <trkpt lat="42.45472" lon="2.50832">
        <ele>1535.3</ele>
        <time>2020-09-02T00:57:40.086Z</time>
      </trkpt>
      <trkpt lat="42.45473" lon="2.50824">
        <ele>1535.1</ele>
        <time>2020-09-02T00:57:42.712Z</time>
      </trkpt>
      <trkpt lat="42.45474" lon="2.50806">
        <ele>1533.5</ele>
        <time>2020-09-02T00:57:47.483Z</time>
      </trkpt>
      <trkpt lat="42.45474" lon="2.50799">
        <ele>1533</ele>
        <time>2020-09-02T00:57:49.332Z</time>
      </trkpt>
      <trkpt lat="42.45474" lon="2.50793">
        <ele>1532.7</ele>
        <time>2020-09-02T00:57:50.918Z</time>
      </trkpt>
      <trkpt lat="42.45473" lon="2.50788">
        <ele>1532.4</ele>
        <time>2020-09-02T00:57:52.287Z</time>
      </trkpt>
      <trkpt lat="42.45472" lon="2.50783">
        <ele>1532.2</ele>
        <time>2020-09-02T00:57:53.694Z</time>
      </trkpt>
      <trkpt lat="42.45472" lon="2.50777">
        <ele>1532.2</ele>
        <time>2020-09-02T00:58:05.226Z</time>
      </trkpt>
      <trkpt lat="42.45472" lon="2.50771">
        <ele>1532.4</ele>
        <time>2020-09-02T00:58:24.774Z</time>
      </trkpt>
      <trkpt lat="42.45472" lon="2.50764">
        <ele>1532.9</ele>
        <time>2020-09-02T00:58:58.707Z</time>
      </trkpt>
      <trkpt lat="42.45472" lon="2.50759">
        <ele>1533.1</ele>
        <time>2020-09-02T00:59:15.988Z</time>
      </trkpt>
      <trkpt lat="42.45472" lon="2.50747">
        <ele>1531.2</ele>
        <time>2020-09-02T00:59:19.159Z</time>
      </trkpt>
      <trkpt lat="42.45472" lon="2.50736">
        <ele>1530.2</ele>
        <time>2020-09-02T00:59:22.066Z</time>
      </trkpt>
      <trkpt lat="42.45471" lon="2.50725">
        <ele>1529.3</ele>
        <time>2020-09-02T00:59:24.995Z</time>
      </trkpt>
      <trkpt lat="42.4547" lon="2.50716">
        <ele>1528.5</ele>
        <time>2020-09-02T00:59:27.400Z</time>
      </trkpt>
      <trkpt lat="42.45469" lon="2.50706">
        <ele>1528</ele>
        <time>2020-09-02T00:59:30.067Z</time>
      </trkpt>
      <trkpt lat="42.45467" lon="2.50696">
        <ele>1527.6</ele>
        <time>2020-09-02T00:59:32.881Z</time>
      </trkpt>
      <trkpt lat="42.45465" lon="2.50687">
        <ele>1527.3</ele>
        <time>2020-09-02T00:59:35.648Z</time>
      </trkpt>
      <trkpt lat="42.45464" lon="2.50681">
        <ele>1527</ele>
        <time>2020-09-02T00:59:37.143Z</time>
      </trkpt>
      <trkpt lat="42.45462" lon="2.50672">
        <ele>1526.5</ele>
        <time>2020-09-02T00:59:39.627Z</time>
      </trkpt>
      <trkpt lat="42.45457" lon="2.5067">
        <ele>1524.9</ele>
        <time>2020-09-02T00:59:41.495Z</time>
      </trkpt>
      <trkpt lat="42.45454" lon="2.50669">
        <ele>1523.9</ele>
        <time>2020-09-02T00:59:42.601Z</time>
      </trkpt>
      <trkpt lat="42.45452" lon="2.50669">
        <ele>1523.1</ele>
        <time>2020-09-02T00:59:43.318Z</time>
      </trkpt>
      <trkpt lat="42.45449" lon="2.50669">
        <ele>1522.1</ele>
        <time>2020-09-02T00:59:44.392Z</time>
      </trkpt>
      <trkpt lat="42.45445" lon="2.50669">
        <ele>1520.9</ele>
        <time>2020-09-02T00:59:45.825Z</time>
      </trkpt>
      <trkpt lat="42.45442" lon="2.50669">
        <ele>1519.9</ele>
        <time>2020-09-02T00:59:46.899Z</time>
      </trkpt>
      <trkpt lat="42.45439" lon="2.50669">
        <ele>1518.7</ele>
        <time>2020-09-02T00:59:47.974Z</time>
      </trkpt>
      <trkpt lat="42.45436" lon="2.50667">
        <ele>1517.6</ele>
        <time>2020-09-02T00:59:49.171Z</time>
      </trkpt>
      <trkpt lat="42.45434" lon="2.50664">
        <ele>1512</ele>
        <time>2020-09-02T00:59:50.240Z</time>
      </trkpt>
      <trkpt lat="42.45431" lon="2.50659">
        <ele>1511.5</ele>
        <time>2020-09-02T00:59:51.943Z</time>
      </trkpt>
      <trkpt lat="42.45429" lon="2.50651">
        <ele>1511.5</ele>
        <time>2020-09-02T01:00:08.178Z</time>
      </trkpt>
      <trkpt lat="42.45427" lon="2.50644">
        <ele>1511.5</ele>
        <time>2020-09-02T01:00:22.606Z</time>
      </trkpt>
      <trkpt lat="42.45426" lon="2.50636">
        <ele>1511.3</ele>
        <time>2020-09-02T01:00:25.232Z</time>
      </trkpt>
      <trkpt lat="42.45425" lon="2.50627">
        <ele>1510.5</ele>
        <time>2020-09-02T01:00:27.638Z</time>
      </trkpt>
      <trkpt lat="42.45424" lon="2.50618">
        <ele>1509.2</ele>
        <time>2020-09-02T01:00:30.043Z</time>
      </trkpt>
      <trkpt lat="42.45423" lon="2.5061">
        <ele>1507.5</ele>
        <time>2020-09-02T01:00:32.187Z</time>
      </trkpt>
      <trkpt lat="42.45422" lon="2.50602">
        <ele>1505.1</ele>
        <time>2020-09-02T01:00:34.332Z</time>
      </trkpt>
      <trkpt lat="42.45423" lon="2.50596">
        <ele>1503</ele>
        <time>2020-09-02T01:00:35.957Z</time>
      </trkpt>
      <trkpt lat="42.45424" lon="2.5059">
        <ele>1501.3</ele>
        <time>2020-09-02T01:00:37.583Z</time>
      </trkpt>
      <trkpt lat="42.45425" lon="2.50585">
        <ele>1500.8</ele>
        <time>2020-09-02T01:00:38.952Z</time>
      </trkpt>
      <trkpt lat="42.45429" lon="2.5058">
        <ele>1492.1</ele>
        <time>2020-09-02T01:00:40.901Z</time>
      </trkpt>
      <trkpt lat="42.45434" lon="2.50574">
        <ele>1491.2</ele>
        <time>2020-09-02T01:00:43.293Z</time>
      </trkpt>
      <trkpt lat="42.45438" lon="2.50569">
        <ele>1490.4</ele>
        <time>2020-09-02T01:00:45.242Z</time>
      </trkpt>
      <trkpt lat="42.45443" lon="2.50564">
        <ele>1489.7</ele>
        <time>2020-09-02T01:00:47.468Z</time>
      </trkpt>
      <trkpt lat="42.45448" lon="2.5056">
        <ele>1489.2</ele>
        <time>2020-09-02T01:00:49.547Z</time>
      </trkpt>
      <trkpt lat="42.45454" lon="2.50555">
        <ele>1488.7</ele>
        <time>2020-09-02T01:00:52.070Z</time>
      </trkpt>
      <trkpt lat="42.45459" lon="2.50549">
        <ele>1488</ele>
        <time>2020-09-02T01:00:54.462Z</time>
      </trkpt>
      <trkpt lat="42.45464" lon="2.50543">
        <ele>1487.1</ele>
        <time>2020-09-02T01:00:56.854Z</time>
      </trkpt>
      <trkpt lat="42.4547" lon="2.50537">
        <ele>1486</ele>
        <time>2020-09-02T01:00:59.525Z</time>
      </trkpt>
      <trkpt lat="42.45476" lon="2.50533">
        <ele>1485.3</ele>
        <time>2020-09-02T01:01:01.920Z</time>
      </trkpt>
      <trkpt lat="42.45483" lon="2.5053">
        <ele>1484.4</ele>
        <time>2020-09-02T01:01:04.549Z</time>
      </trkpt>
      <trkpt lat="42.4549" lon="2.50527">
        <ele>1483.5</ele>
        <time>2020-09-02T01:01:07.179Z</time>
      </trkpt>
      <trkpt lat="42.45497" lon="2.50525">
        <ele>1482.5</ele>
        <time>2020-09-02T01:01:09.741Z</time>
      </trkpt>
      <trkpt lat="42.45505" lon="2.50523">
        <ele>1486.3</ele>
        <time>2020-09-02T01:02:31.481Z</time>
      </trkpt>
      <trkpt lat="42.45512" lon="2.50522">
        <ele>1486.7</ele>
        <time>2020-09-02T01:03:05.045Z</time>
      </trkpt>
      <trkpt lat="42.45521" lon="2.50521">
        <ele>1487.6</ele>
        <time>2020-09-02T01:04:06.020Z</time>
      </trkpt>
      <trkpt lat="42.45528" lon="2.5052">
        <ele>1488.3</ele>
        <time>2020-09-02T01:04:53.449Z</time>
      </trkpt>
      <trkpt lat="42.45534" lon="2.50519">
        <ele>1488.7</ele>
        <time>2020-09-02T01:05:24.248Z</time>
      </trkpt>
      <trkpt lat="42.45542" lon="2.50518">
        <ele>1488.9</ele>
        <time>2020-09-02T01:05:51.359Z</time>
      </trkpt>
      <trkpt lat="42.4555" lon="2.50517">
        <ele>1488.5</ele>
        <time>2020-09-02T01:05:54.382Z</time>
      </trkpt>
      <trkpt lat="42.45558" lon="2.50515">
        <ele>1487.5</ele>
        <time>2020-09-02T01:05:57.295Z</time>
      </trkpt>
      <trkpt lat="42.45564" lon="2.50512">
        <ele>1486.1</ele>
        <time>2020-09-02T01:05:59.586Z</time>
      </trkpt>
      <trkpt lat="42.45571" lon="2.5051">
        <ele>1484</ele>
        <time>2020-09-02T01:06:02.148Z</time>
      </trkpt>
      <trkpt lat="42.45578" lon="2.50508">
        <ele>1481.4</ele>
        <time>2020-09-02T01:06:04.711Z</time>
      </trkpt>
      <trkpt lat="42.45583" lon="2.50506">
        <ele>1481.6</ele>
        <time>2020-09-02T01:06:25.649Z</time>
      </trkpt>
      <trkpt lat="42.456" lon="2.5049">
        <ele>1475.2</ele>
        <time>2020-09-02T01:06:33.063Z</time>
      </trkpt>
      <trkpt lat="42.45618" lon="2.50472">
        <ele>1475.8</ele>
        <time>2020-09-02T01:07:50.314Z</time>
      </trkpt>
      <trkpt lat="42.45646" lon="2.50446">
        <ele>1478.4</ele>
        <time>2020-09-02T01:10:57.555Z</time>
      </trkpt>
      <trkpt lat="42.4562" lon="2.50433">
        <ele>1471.2</ele>
        <time>2020-09-02T01:11:07.481Z</time>
      </trkpt>
      <trkpt lat="42.45603" lon="2.50432">
        <ele>1464.7</ele>
        <time>2020-09-02T01:11:13.576Z</time>
      </trkpt>
      <trkpt lat="42.45586" lon="2.50439">
        <ele>1462.5</ele>
        <time>2020-09-02T01:11:19.940Z</time>
      </trkpt>
      <trkpt lat="42.45571" lon="2.50444">
        <ele>1452.8</ele>
        <time>2020-09-02T01:11:25.473Z</time>
      </trkpt>
      <trkpt lat="42.45559" lon="2.50438">
        <ele>1451.6</ele>
        <time>2020-09-02T01:11:30.054Z</time>
      </trkpt>
      <trkpt lat="42.45545" lon="2.50435">
        <ele>1450.6</ele>
        <time>2020-09-02T01:11:35.131Z</time>
      </trkpt>
      <trkpt lat="42.45509" lon="2.50437">
        <ele>1445.2</ele>
        <time>2020-09-02T01:11:48.036Z</time>
      </trkpt>
      <trkpt lat="42.45471" lon="2.5044">
        <ele>1441</ele>
        <time>2020-09-02T01:12:01.670Z</time>
      </trkpt>
      <trkpt lat="42.45437" lon="2.50443">
        <ele>1438.3</ele>
        <time>2020-09-02T01:12:13.874Z</time>
      </trkpt>
      <trkpt lat="42.4541" lon="2.50441">
        <ele>1431.8</ele>
        <time>2020-09-02T01:12:23.560Z</time>
      </trkpt>
      <trkpt lat="42.45392" lon="2.50438">
        <ele>1432.8</ele>
        <time>2020-09-02T01:13:49.047Z</time>
      </trkpt>
      <trkpt lat="42.45364" lon="2.50431">
        <ele>1432.4</ele>
        <time>2020-09-02T01:14:04.588Z</time>
      </trkpt>
      <trkpt lat="42.45368" lon="2.50426">
        <ele>1431.8</ele>
        <time>2020-09-02T01:14:06.537Z</time>
      </trkpt>
      <trkpt lat="42.45399" lon="2.50418">
        <ele>1426.7</ele>
        <time>2020-09-02T01:14:17.840Z</time>
      </trkpt>
      <trkpt lat="42.45427" lon="2.50408">
        <ele>1411.8</ele>
        <time>2020-09-02T01:14:28.212Z</time>
      </trkpt>
      <trkpt lat="42.45455" lon="2.50394">
        <ele>1409.7</ele>
        <time>2020-09-02T01:14:38.902Z</time>
      </trkpt>
      <trkpt lat="42.45501" lon="2.50372">
        <ele>1426.6</ele>
        <time>2020-09-02T01:22:49.041Z</time>
      </trkpt>
      <trkpt lat="42.45517" lon="2.50361">
        <ele>1426.2</ele>
        <time>2020-09-02T01:22:57.911Z</time>
      </trkpt>
      <trkpt lat="42.45535" lon="2.50352">
        <ele>1429.9</ele>
        <time>2020-09-02T01:26:10.689Z</time>
      </trkpt>
      <trkpt lat="42.45536" lon="2.50345">
        <ele>1429.9</ele>
        <time>2020-09-02T01:26:24.393Z</time>
      </trkpt>
      <trkpt lat="42.45533" lon="2.50321">
        <ele>1430</ele>
        <time>2020-09-02T01:27:13.693Z</time>
      </trkpt>
      <trkpt lat="42.45523" lon="2.50291">
        <ele>1430.3</ele>
        <time>2020-09-02T01:28:25.037Z</time>
      </trkpt>
      <trkpt lat="42.45508" lon="2.50268">
        <ele>1424.8</ele>
        <time>2020-09-02T01:28:33.149Z</time>
      </trkpt>
      <trkpt lat="42.4549" lon="2.50238">
        <ele>1399.6</ele>
        <time>2020-09-02T01:28:43.368Z</time>
      </trkpt>
      <trkpt lat="42.45479" lon="2.50212">
        <ele>1391</ele>
        <time>2020-09-02T01:28:51.288Z</time>
      </trkpt>
      <trkpt lat="42.45471" lon="2.50192">
        <ele>1389.1</ele>
        <time>2020-09-02T01:28:57.301Z</time>
      </trkpt>
      <trkpt lat="42.45466" lon="2.50173">
        <ele>1388</ele>
        <time>2020-09-02T01:29:02.632Z</time>
      </trkpt>
      <trkpt lat="42.45465" lon="2.50145">
        <ele>1389.3</ele>
        <time>2020-09-02T01:30:45.507Z</time>
      </trkpt>
      <trkpt lat="42.45468" lon="2.50131">
        <ele>1390.7</ele>
        <time>2020-09-02T01:32:28.699Z</time>
      </trkpt>
      <trkpt lat="42.45463" lon="2.50119">
        <ele>1389.2</ele>
        <time>2020-09-02T01:32:32.341Z</time>
      </trkpt>
      <trkpt lat="42.45455" lon="2.50087">
        <ele>1386</ele>
        <time>2020-09-02T01:32:41.270Z</time>
      </trkpt>
      <trkpt lat="42.45451" lon="2.50063">
        <ele>1385.8</ele>
        <time>2020-09-02T01:32:51.572Z</time>
      </trkpt>
      <trkpt lat="42.45447" lon="2.50033">
        <ele>1385.1</ele>
        <time>2020-09-02T01:33:01.675Z</time>
      </trkpt>
      <trkpt lat="42.45446" lon="2.50006">
        <ele>1382.7</ele>
        <time>2020-09-02T01:33:08.819Z</time>
      </trkpt>
      <trkpt lat="42.45444" lon="2.49979">
        <ele>1380.7</ele>
        <time>2020-09-02T01:33:15.991Z</time>
      </trkpt>
      <trkpt lat="42.45439" lon="2.49946">
        <ele>1378.9</ele>
        <time>2020-09-02T01:33:24.894Z</time>
      </trkpt>
      <trkpt lat="42.45426" lon="2.49891">
        <ele>1372.5</ele>
        <time>2020-09-02T01:33:40.156Z</time>
      </trkpt>
      <trkpt lat="42.45416" lon="2.49856">
        <ele>1352.3</ele>
        <time>2020-09-02T01:33:50.075Z</time>
      </trkpt>
      <trkpt lat="42.45398" lon="2.4982">
        <ele>1349.2</ele>
        <time>2020-09-02T01:34:01.568Z</time>
      </trkpt>
      <trkpt lat="42.45394" lon="2.49799">
        <ele>1344.6</ele>
        <time>2020-09-02T01:34:07.299Z</time>
      </trkpt>
      <trkpt lat="42.4539" lon="2.4977">
        <ele>1342.5</ele>
        <time>2020-09-02T01:34:15.096Z</time>
      </trkpt>
      <trkpt lat="42.45389" lon="2.49745">
        <ele>1336.2</ele>
        <time>2020-09-02T01:34:21.713Z</time>
      </trkpt>
      <trkpt lat="42.45389" lon="2.49725">
        <ele>1334.1</ele>
        <time>2020-09-02T01:34:26.998Z</time>
      </trkpt>
      <trkpt lat="42.45388" lon="2.49712">
        <ele>1332.3</ele>
        <time>2020-09-02T01:34:30.453Z</time>
      </trkpt>
      <trkpt lat="42.45386" lon="2.49703">
        <ele>1331.2</ele>
        <time>2020-09-02T01:34:32.937Z</time>
      </trkpt>
      <trkpt lat="42.45378" lon="2.49685">
        <ele>1329.2</ele>
        <time>2020-09-02T01:34:38.490Z</time>
      </trkpt>
      <trkpt lat="42.45382" lon="2.4968">
        <ele>1329.3</ele>
        <time>2020-09-02T01:34:55.534Z</time>
      </trkpt>
      <trkpt lat="42.45382" lon="2.4968">
        <ele>1329.3</ele>
        <time>2020-09-02T01:34:55.534Z</time>
      </trkpt>
    </trkseg>
  </trk>
  <trk>
    <name><![CDATA[Pic et tour du Canigou _4]]></name>
    <extensions>
      <line xmlns="http://www.topografix.com/GPX/gpx_style/0/2">
        <color>ffbb00</color>
        <opacity>1</opacity>
        <width>4</width>
      </line>
    </extensions>
    <trkseg>
      <trkpt lat="42.45392" lon="2.49675">
        <ele>1329.6</ele>
        <time>2020-09-02T06:00:00.000Z</time>
      </trkpt>
      <trkpt lat="42.45392" lon="2.49676">
        <ele>1329.7</ele>
        <time>2020-09-02T06:00:03.350Z</time>
      </trkpt>
      <trkpt lat="42.45395" lon="2.49676">
        <ele>1329.8</ele>
        <time>2020-09-02T06:00:08.432Z</time>
      </trkpt>
      <trkpt lat="42.454" lon="2.49677">
        <ele>1329.9</ele>
        <time>2020-09-02T06:00:15.698Z</time>
      </trkpt>
      <trkpt lat="42.45418" lon="2.49681">
        <ele>1334.2</ele>
        <time>2020-09-02T06:01:38.504Z</time>
      </trkpt>
      <trkpt lat="42.45423" lon="2.49682">
        <ele>1334.8</ele>
        <time>2020-09-02T06:01:57.423Z</time>
      </trkpt>
      <trkpt lat="42.4543" lon="2.49685">
        <ele>1336</ele>
        <time>2020-09-02T06:02:30.752Z</time>
      </trkpt>
      <trkpt lat="42.45435" lon="2.49689">
        <ele>1337.1</ele>
        <time>2020-09-02T06:02:57.110Z</time>
      </trkpt>
      <trkpt lat="42.4544" lon="2.49693">
        <ele>1338.1</ele>
        <time>2020-09-02T06:03:23.468Z</time>
      </trkpt>
      <trkpt lat="42.45446" lon="2.49696">
        <ele>1338.9</ele>
        <time>2020-09-02T06:03:49.377Z</time>
      </trkpt>
      <trkpt lat="42.45453" lon="2.497">
        <ele>1339.6</ele>
        <time>2020-09-02T06:04:10.975Z</time>
      </trkpt>
      <trkpt lat="42.45459" lon="2.49704">
        <ele>1340.2</ele>
        <time>2020-09-02T06:04:29.579Z</time>
      </trkpt>
      <trkpt lat="42.45466" lon="2.49707">
        <ele>1340.8</ele>
        <time>2020-09-02T06:04:48.653Z</time>
      </trkpt>
      <trkpt lat="42.45472" lon="2.49709">
        <ele>1341.4</ele>
        <time>2020-09-02T06:05:07.046Z</time>
      </trkpt>
      <trkpt lat="42.45477" lon="2.49711">
        <ele>1342</ele>
        <time>2020-09-02T06:05:25.753Z</time>
      </trkpt>
      <trkpt lat="42.45483" lon="2.49713">
        <ele>1342.7</ele>
        <time>2020-09-02T06:05:47.478Z</time>
      </trkpt>
      <trkpt lat="42.45488" lon="2.49715">
        <ele>1343.3</ele>
        <time>2020-09-02T06:06:06.185Z</time>
      </trkpt>
      <trkpt lat="42.45495" lon="2.49716">
        <ele>1343.8</ele>
        <time>2020-09-02T06:06:22.987Z</time>
      </trkpt>
      <trkpt lat="42.455" lon="2.49716">
        <ele>1343.9</ele>
        <time>2020-09-02T06:06:30.191Z</time>
      </trkpt>
      <trkpt lat="42.45507" lon="2.49714">
        <ele>1348.3</ele>
        <time>2020-09-02T06:07:02.668Z</time>
      </trkpt>
      <trkpt lat="42.45514" lon="2.49713">
        <ele>1347.9</ele>
        <time>2020-09-02T06:07:04.310Z</time>
      </trkpt>
      <trkpt lat="42.45521" lon="2.49711">
        <ele>1347.7</ele>
        <time>2020-09-02T06:07:06.495Z</time>
      </trkpt>
      <trkpt lat="42.45529" lon="2.49708">
        <ele>1347.4</ele>
        <time>2020-09-02T06:07:08.826Z</time>
      </trkpt>
      <trkpt lat="42.45535" lon="2.49704">
        <ele>1347.2</ele>
        <time>2020-09-02T06:07:10.827Z</time>
      </trkpt>
      <trkpt lat="42.45543" lon="2.49701">
        <ele>1346.9</ele>
        <time>2020-09-02T06:07:13.158Z</time>
      </trkpt>
      <trkpt lat="42.4555" lon="2.49697">
        <ele>1346.6</ele>
        <time>2020-09-02T06:07:15.223Z</time>
      </trkpt>
      <trkpt lat="42.45557" lon="2.49693">
        <ele>1346</ele>
        <time>2020-09-02T06:07:17.013Z</time>
      </trkpt>
      <trkpt lat="42.45565" lon="2.49689">
        <ele>1345</ele>
        <time>2020-09-02T06:07:19.023Z</time>
      </trkpt>
      <trkpt lat="42.45572" lon="2.49684">
        <ele>1343.4</ele>
        <time>2020-09-02T06:07:20.887Z</time>
      </trkpt>
      <trkpt lat="42.4558" lon="2.49678">
        <ele>1340.9</ele>
        <time>2020-09-02T06:07:23.041Z</time>
      </trkpt>
      <trkpt lat="42.45587" lon="2.49672">
        <ele>1342.2</ele>
        <time>2020-09-02T06:08:00.641Z</time>
      </trkpt>
      <trkpt lat="42.45595" lon="2.49666">
        <ele>1335</ele>
        <time>2020-09-02T06:08:02.795Z</time>
      </trkpt>
      <trkpt lat="42.45602" lon="2.49661">
        <ele>1334.7</ele>
        <time>2020-09-02T06:08:04.979Z</time>
      </trkpt>
      <trkpt lat="42.45608" lon="2.49655">
        <ele>1334.6</ele>
        <time>2020-09-02T06:08:07.678Z</time>
      </trkpt>
      <trkpt lat="42.45616" lon="2.49648">
        <ele>1334.5</ele>
        <time>2020-09-02T06:08:11.257Z</time>
      </trkpt>
      <trkpt lat="42.45622" lon="2.49642">
        <ele>1334.4</ele>
        <time>2020-09-02T06:08:13.956Z</time>
      </trkpt>
      <trkpt lat="42.45627" lon="2.49635">
        <ele>1334</ele>
        <time>2020-09-02T06:08:15.649Z</time>
      </trkpt>
      <trkpt lat="42.45631" lon="2.49628">
        <ele>1333.3</ele>
        <time>2020-09-02T06:08:17.189Z</time>
      </trkpt>
      <trkpt lat="42.45635" lon="2.4962">
        <ele>1332.6</ele>
        <time>2020-09-02T06:08:18.869Z</time>
      </trkpt>
      <trkpt lat="42.45638" lon="2.49614">
        <ele>1331.9</ele>
        <time>2020-09-02T06:08:20.129Z</time>
      </trkpt>
      <trkpt lat="42.45642" lon="2.49609">
        <ele>1331.4</ele>
        <time>2020-09-02T06:08:21.411Z</time>
      </trkpt>
      <trkpt lat="42.45645" lon="2.49605">
        <ele>1331.1</ele>
        <time>2020-09-02T06:08:22.402Z</time>
      </trkpt>
      <trkpt lat="42.4565" lon="2.49602">
        <ele>1330.8</ele>
        <time>2020-09-02T06:08:23.699Z</time>
      </trkpt>
      <trkpt lat="42.45655" lon="2.49599">
        <ele>1330.5</ele>
        <time>2020-09-02T06:08:24.995Z</time>
      </trkpt>
      <trkpt lat="42.45661" lon="2.49597">
        <ele>1330.2</ele>
        <time>2020-09-02T06:08:26.541Z</time>
      </trkpt>
      <trkpt lat="42.45667" lon="2.49595">
        <ele>1337.4</ele>
        <time>2020-09-02T06:08:54.591Z</time>
      </trkpt>
      <trkpt lat="42.45676" lon="2.49592">
        <ele>1338.3</ele>
        <time>2020-09-02T06:09:22.180Z</time>
      </trkpt>
      <trkpt lat="42.45682" lon="2.49589">
        <ele>1340.5</ele>
        <time>2020-09-02T06:09:51.213Z</time>
      </trkpt>
      <trkpt lat="42.45688" lon="2.49585">
        <ele>1342.8</ele>
        <time>2020-09-02T06:10:21.568Z</time>
      </trkpt>
      <trkpt lat="42.45695" lon="2.49581">
        <ele>1335.5</ele>
        <time>2020-09-02T06:10:23.358Z</time>
      </trkpt>
      <trkpt lat="42.45701" lon="2.49577">
        <ele>1336.7</ele>
        <time>2020-09-02T06:10:53.713Z</time>
      </trkpt>
      <trkpt lat="42.45709" lon="2.49571">
        <ele>1338.3</ele>
        <time>2020-09-02T06:11:35.220Z</time>
      </trkpt>
      <trkpt lat="42.45729" lon="2.4956">
        <ele>1341.5</ele>
        <time>2020-09-02T06:13:13.204Z</time>
      </trkpt>
      <trkpt lat="42.45738" lon="2.49552">
        <ele>1341.6</ele>
        <time>2020-09-02T06:13:27.050Z</time>
      </trkpt>
      <trkpt lat="42.45741" lon="2.49549">
        <ele>1341.2</ele>
        <time>2020-09-02T06:13:27.929Z</time>
      </trkpt>
      <trkpt lat="42.45743" lon="2.49544">
        <ele>1340.7</ele>
        <time>2020-09-02T06:13:28.917Z</time>
      </trkpt>
      <trkpt lat="42.45746" lon="2.49538">
        <ele>1339.9</ele>
        <time>2020-09-02T06:13:30.177Z</time>
      </trkpt>
      <trkpt lat="42.45749" lon="2.4953">
        <ele>1339.3</ele>
        <time>2020-09-02T06:13:31.737Z</time>
      </trkpt>
      <trkpt lat="42.45752" lon="2.49521">
        <ele>1355.9</ele>
        <time>2020-09-02T06:14:04.815Z</time>
      </trkpt>
      <trkpt lat="42.45756" lon="2.49512">
        <ele>1351.7</ele>
        <time>2020-09-02T06:14:06.642Z</time>
      </trkpt>
      <trkpt lat="42.45759" lon="2.49503">
        <ele>1348.9</ele>
        <time>2020-09-02T06:14:08.359Z</time>
      </trkpt>
      <trkpt lat="42.45763" lon="2.49497">
        <ele>1348.7</ele>
        <time>2020-09-02T06:14:10.078Z</time>
      </trkpt>
      <trkpt lat="42.45769" lon="2.49492">
        <ele>1352.2</ele>
        <time>2020-09-02T06:14:42.053Z</time>
      </trkpt>
      <trkpt lat="42.45773" lon="2.49485">
        <ele>1354.5</ele>
        <time>2020-09-02T06:15:11.708Z</time>
      </trkpt>
      <trkpt lat="42.45774" lon="2.49478">
        <ele>1355.7</ele>
        <time>2020-09-02T06:15:35.589Z</time>
      </trkpt>
      <trkpt lat="42.45774" lon="2.49474">
        <ele>1356.1</ele>
        <time>2020-09-02T06:15:48.986Z</time>
      </trkpt>
      <trkpt lat="42.45773" lon="2.49465">
        <ele>1356.5</ele>
        <time>2020-09-02T06:16:03.729Z</time>
      </trkpt>
      <trkpt lat="42.45772" lon="2.49461">
        <ele>1356.6</ele>
        <time>2020-09-02T06:16:08.924Z</time>
      </trkpt>
      <trkpt lat="42.45772" lon="2.49458">
        <ele>1356.6</ele>
        <time>2020-09-02T06:16:11.529Z</time>
      </trkpt>
      <trkpt lat="42.45771" lon="2.49454">
        <ele>1356.6</ele>
        <time>2020-09-02T06:16:15.196Z</time>
      </trkpt>
      <trkpt lat="42.4577" lon="2.49452">
        <ele>1356.4</ele>
        <time>2020-09-02T06:16:15.616Z</time>
      </trkpt>
      <trkpt lat="42.45768" lon="2.4945">
        <ele>1356.1</ele>
        <time>2020-09-02T06:16:16.202Z</time>
      </trkpt>
      <trkpt lat="42.45765" lon="2.4945">
        <ele>1355.7</ele>
        <time>2020-09-02T06:16:16.909Z</time>
      </trkpt>
      <trkpt lat="42.45762" lon="2.4945">
        <ele>1355.4</ele>
        <time>2020-09-02T06:16:17.615Z</time>
      </trkpt>
      <trkpt lat="42.45758" lon="2.49451">
        <ele>1355</ele>
        <time>2020-09-02T06:16:18.574Z</time>
      </trkpt>
      <trkpt lat="42.45753" lon="2.49451">
        <ele>1354.5</ele>
        <time>2020-09-02T06:16:19.752Z</time>
      </trkpt>
      <trkpt lat="42.45748" lon="2.4945">
        <ele>1343.7</ele>
        <time>2020-09-02T06:16:20.943Z</time>
      </trkpt>
      <trkpt lat="42.45741" lon="2.49449">
        <ele>1343.7</ele>
        <time>2020-09-02T06:16:29.227Z</time>
      </trkpt>
      <trkpt lat="42.45732" lon="2.49448">
        <ele>1343.7</ele>
        <time>2020-09-02T06:16:39.856Z</time>
      </trkpt>
      <trkpt lat="42.45724" lon="2.49446">
        <ele>1343.7</ele>
        <time>2020-09-02T06:16:49.430Z</time>
      </trkpt>
      <trkpt lat="42.45717" lon="2.49445">
        <ele>1343.7</ele>
        <time>2020-09-02T06:16:57.714Z</time>
      </trkpt>
      <trkpt lat="42.45711" lon="2.49443">
        <ele>1343.9</ele>
        <time>2020-09-02T06:17:08.052Z</time>
      </trkpt>
      <trkpt lat="42.45705" lon="2.4944">
        <ele>1344.4</ele>
        <time>2020-09-02T06:17:24.194Z</time>
      </trkpt>
      <trkpt lat="42.45698" lon="2.49438">
        <ele>1344.9</ele>
        <time>2020-09-02T06:17:41.123Z</time>
      </trkpt>
      <trkpt lat="42.45692" lon="2.49438">
        <ele>1345.4</ele>
        <time>2020-09-02T06:17:56.921Z</time>
      </trkpt>
      <trkpt lat="42.45685" lon="2.49438">
        <ele>1346.1</ele>
        <time>2020-09-02T06:18:18.346Z</time>
      </trkpt>
      <trkpt lat="42.45677" lon="2.49437">
        <ele>1347.2</ele>
        <time>2020-09-02T06:18:54.818Z</time>
      </trkpt>
      <trkpt lat="42.45669" lon="2.49436">
        <ele>1348.1</ele>
        <time>2020-09-02T06:19:22.671Z</time>
      </trkpt>
      <trkpt lat="42.45662" lon="2.49435">
        <ele>1346.9</ele>
        <time>2020-09-02T06:19:24.330Z</time>
      </trkpt>
      <trkpt lat="42.45655" lon="2.49435">
        <ele>1346</ele>
        <time>2020-09-02T06:19:25.979Z</time>
      </trkpt>
      <trkpt lat="42.45649" lon="2.49435">
        <ele>1345.2</ele>
        <time>2020-09-02T06:19:27.393Z</time>
      </trkpt>
      <trkpt lat="42.45643" lon="2.49435">
        <ele>1344.3</ele>
        <time>2020-09-02T06:19:28.807Z</time>
      </trkpt>
      <trkpt lat="42.45638" lon="2.49437">
        <ele>1343.4</ele>
        <time>2020-09-02T06:19:30.035Z</time>
      </trkpt>
      <trkpt lat="42.45633" lon="2.49439">
        <ele>1342.8</ele>
        <time>2020-09-02T06:19:31.263Z</time>
      </trkpt>
      <trkpt lat="42.45628" lon="2.4944">
        <ele>1342.3</ele>
        <time>2020-09-02T06:19:32.454Z</time>
      </trkpt>
      <trkpt lat="42.45622" lon="2.49441">
        <ele>1342</ele>
        <time>2020-09-02T06:19:33.953Z</time>
      </trkpt>
      <trkpt lat="42.45612" lon="2.49442">
        <ele>1342</ele>
        <time>2020-09-02T06:19:45.754Z</time>
      </trkpt>
      <trkpt lat="42.45601" lon="2.49442">
        <ele>1342.7</ele>
        <time>2020-09-02T06:20:10.613Z</time>
      </trkpt>
      <trkpt lat="42.45595" lon="2.49441">
        <ele>1343.5</ele>
        <time>2020-09-02T06:20:37.628Z</time>
      </trkpt>
      <trkpt lat="42.45588" lon="2.49438">
        <ele>1344.9</ele>
        <time>2020-09-02T06:21:10.957Z</time>
      </trkpt>
      <trkpt lat="42.45581" lon="2.49435">
        <ele>1340.8</ele>
        <time>2020-09-02T06:21:12.687Z</time>
      </trkpt>
      <trkpt lat="42.45574" lon="2.49431">
        <ele>1341.4</ele>
        <time>2020-09-02T06:21:31.986Z</time>
      </trkpt>
      <trkpt lat="42.45569" lon="2.49427">
        <ele>1340.9</ele>
        <time>2020-09-02T06:21:33.354Z</time>
      </trkpt>
      <trkpt lat="42.45563" lon="2.49421">
        <ele>1339.8</ele>
        <time>2020-09-02T06:21:35.111Z</time>
      </trkpt>
      <trkpt lat="42.45558" lon="2.49415">
        <ele>1349.4</ele>
        <time>2020-09-02T06:22:05.427Z</time>
      </trkpt>
      <trkpt lat="42.45554" lon="2.4941">
        <ele>1348.6</ele>
        <time>2020-09-02T06:22:06.710Z</time>
      </trkpt>
      <trkpt lat="42.45551" lon="2.49404">
        <ele>1347.9</ele>
        <time>2020-09-02T06:22:07.970Z</time>
      </trkpt>
      <trkpt lat="42.45548" lon="2.49396">
        <ele>1347.5</ele>
        <time>2020-09-02T06:22:09.470Z</time>
      </trkpt>
      <trkpt lat="42.45547" lon="2.49387">
        <ele>1347.8</ele>
        <time>2020-09-02T06:22:22.824Z</time>
      </trkpt>
      <trkpt lat="42.45546" lon="2.49371">
        <ele>1348.9</ele>
        <time>2020-09-02T06:22:56.722Z</time>
      </trkpt>
      <trkpt lat="42.4555" lon="2.49356">
        <ele>1351.3</ele>
        <time>2020-09-02T06:23:50.144Z</time>
      </trkpt>
      <trkpt lat="42.45552" lon="2.49351">
        <ele>1352.3</ele>
        <time>2020-09-02T06:24:09.194Z</time>
      </trkpt>
      <trkpt lat="42.45553" lon="2.49344">
        <ele>1353.5</ele>
        <time>2020-09-02T06:24:33.076Z</time>
      </trkpt>
      <trkpt lat="42.45554" lon="2.49337">
        <ele>1354.4</ele>
        <time>2020-09-02T06:24:56.957Z</time>
      </trkpt>
      <trkpt lat="42.45555" lon="2.49329">
        <ele>1360.6</ele>
        <time>2020-09-02T06:25:24.134Z</time>
      </trkpt>
      <trkpt lat="42.45555" lon="2.4932">
        <ele>1360.5</ele>
        <time>2020-09-02T06:25:26.489Z</time>
      </trkpt>
      <trkpt lat="42.45554" lon="2.49312">
        <ele>1360.1</ele>
        <time>2020-09-02T06:25:27.899Z</time>
      </trkpt>
      <trkpt lat="42.45552" lon="2.49303">
        <ele>1359.6</ele>
        <time>2020-09-02T06:25:29.533Z</time>
      </trkpt>
      <trkpt lat="42.4555" lon="2.49294">
        <ele>1359.4</ele>
        <time>2020-09-02T06:25:31.632Z</time>
      </trkpt>
      <trkpt lat="42.45548" lon="2.49284">
        <ele>1359.5</ele>
        <time>2020-09-02T06:25:41.854Z</time>
      </trkpt>
      <trkpt lat="42.45547" lon="2.49274">
        <ele>1359.8</ele>
        <time>2020-09-02T06:25:55.743Z</time>
      </trkpt>
      <trkpt lat="42.45547" lon="2.49264">
        <ele>1360.3</ele>
        <time>2020-09-02T06:26:12.928Z</time>
      </trkpt>
      <trkpt lat="42.45547" lon="2.49254">
        <ele>1361</ele>
        <time>2020-09-02T06:26:34.436Z</time>
      </trkpt>
      <trkpt lat="42.45549" lon="2.49244">
        <ele>1363</ele>
        <time>2020-09-02T06:27:09.139Z</time>
      </trkpt>
      <trkpt lat="42.45551" lon="2.49234">
        <ele>1363.3</ele>
        <time>2020-09-02T06:27:23.185Z</time>
      </trkpt>
      <trkpt lat="42.45553" lon="2.49224">
        <ele>1363.5</ele>
        <time>2020-09-02T06:27:35.018Z</time>
      </trkpt>
      <trkpt lat="42.45556" lon="2.49213">
        <ele>1363.7</ele>
        <time>2020-09-02T06:27:47.937Z</time>
      </trkpt>
      <trkpt lat="42.45559" lon="2.49201">
        <ele>1364.7</ele>
        <time>2020-09-02T06:28:18.635Z</time>
      </trkpt>
      <trkpt lat="42.45563" lon="2.49189">
        <ele>1367</ele>
        <time>2020-09-02T06:29:02.739Z</time>
      </trkpt>
      <trkpt lat="42.45568" lon="2.49176">
        <ele>1371.1</ele>
        <time>2020-09-02T06:29:51.843Z</time>
      </trkpt>
      <trkpt lat="42.45573" lon="2.49162">
        <ele>1374.6</ele>
        <time>2020-09-02T06:30:43.940Z</time>
      </trkpt>
      <trkpt lat="42.45577" lon="2.49149">
        <ele>1371.9</ele>
        <time>2020-09-02T06:30:46.388Z</time>
      </trkpt>
      <trkpt lat="42.45581" lon="2.49138">
        <ele>1369.6</ele>
        <time>2020-09-02T06:30:48.520Z</time>
      </trkpt>
      <trkpt lat="42.45586" lon="2.49126">
        <ele>1396.7</ele>
        <time>2020-09-02T06:31:34.680Z</time>
      </trkpt>
      <trkpt lat="42.45591" lon="2.49113">
        <ele>1396.4</ele>
        <time>2020-09-02T06:31:37.992Z</time>
      </trkpt>
      <trkpt lat="42.45594" lon="2.49102">
        <ele>1394.7</ele>
        <time>2020-09-02T06:31:40.031Z</time>
      </trkpt>
      <trkpt lat="42.45595" lon="2.49093">
        <ele>1392.6</ele>
        <time>2020-09-02T06:31:41.613Z</time>
      </trkpt>
      <trkpt lat="42.45596" lon="2.49083">
        <ele>1392.8</ele>
        <time>2020-09-02T06:31:53.236Z</time>
      </trkpt>
      <trkpt lat="42.45597" lon="2.49074">
        <ele>1394.8</ele>
        <time>2020-09-02T06:32:23.720Z</time>
      </trkpt>
      <trkpt lat="42.45596" lon="2.49064">
        <ele>1397.7</ele>
        <time>2020-09-02T06:32:57.520Z</time>
      </trkpt>
      <trkpt lat="42.45594" lon="2.49055">
        <ele>1399.5</ele>
        <time>2020-09-02T06:33:29.003Z</time>
      </trkpt>
      <trkpt lat="42.45592" lon="2.49047">
        <ele>1400.5</ele>
        <time>2020-09-02T06:33:57.294Z</time>
      </trkpt>
      <trkpt lat="42.4559" lon="2.4904">
        <ele>1400.9</ele>
        <time>2020-09-02T06:34:10.635Z</time>
      </trkpt>
      <trkpt lat="42.45587" lon="2.49031">
        <ele>1400.8</ele>
        <time>2020-09-02T06:34:13.262Z</time>
      </trkpt>
      <trkpt lat="42.45585" lon="2.49024">
        <ele>1400.1</ele>
        <time>2020-09-02T06:34:14.567Z</time>
      </trkpt>
      <trkpt lat="42.45582" lon="2.49017">
        <ele>1379.2</ele>
        <time>2020-09-02T06:34:15.974Z</time>
      </trkpt>
      <trkpt lat="42.4558" lon="2.49008">
        <ele>1384</ele>
        <time>2020-09-02T06:34:47.456Z</time>
      </trkpt>
      <trkpt lat="42.4558" lon="2.49">
        <ele>1388.5</ele>
        <time>2020-09-02T06:35:14.251Z</time>
      </trkpt>
      <trkpt lat="42.45581" lon="2.48984">
        <ele>1379.5</ele>
        <time>2020-09-02T06:35:17.043Z</time>
      </trkpt>
      <trkpt lat="42.45581" lon="2.48976">
        <ele>1376.3</ele>
        <time>2020-09-02T06:35:18.434Z</time>
      </trkpt>
      <trkpt lat="42.45582" lon="2.48966">
        <ele>1373.9</ele>
        <time>2020-09-02T06:35:20.188Z</time>
      </trkpt>
      <trkpt lat="42.45585" lon="2.48957">
        <ele>1397.6</ele>
        <time>2020-09-02T06:35:53.267Z</time>
      </trkpt>
      <trkpt lat="42.45589" lon="2.48947">
        <ele>1396.4</ele>
        <time>2020-09-02T06:35:55.244Z</time>
      </trkpt>
      <trkpt lat="42.45594" lon="2.48936">
        <ele>1394.2</ele>
        <time>2020-09-02T06:35:57.490Z</time>
      </trkpt>
      <trkpt lat="42.45599" lon="2.48924">
        <ele>1392.6</ele>
        <time>2020-09-02T06:35:59.886Z</time>
      </trkpt>
      <trkpt lat="42.45603" lon="2.48914">
        <ele>1388.8</ele>
        <time>2020-09-02T06:36:01.864Z</time>
      </trkpt>
      <trkpt lat="42.45606" lon="2.48907">
        <ele>1390</ele>
        <time>2020-09-02T06:36:28.978Z</time>
      </trkpt>
      <trkpt lat="42.45609" lon="2.48899">
        <ele>1391.1</ele>
        <time>2020-09-02T06:36:59.035Z</time>
      </trkpt>
      <trkpt lat="42.45612" lon="2.48895">
        <ele>1392</ele>
        <time>2020-09-02T06:37:18.140Z</time>
      </trkpt>
      <trkpt lat="42.45615" lon="2.48894">
        <ele>1392.6</ele>
        <time>2020-09-02T06:37:32.165Z</time>
      </trkpt>
      <trkpt lat="42.45618" lon="2.48895">
        <ele>1393.2</ele>
        <time>2020-09-02T06:37:46.190Z</time>
      </trkpt>
      <trkpt lat="42.45619" lon="2.48896">
        <ele>1393.6</ele>
        <time>2020-09-02T06:37:51.831Z</time>
      </trkpt>
      <trkpt lat="42.4562" lon="2.48899">
        <ele>1393.9</ele>
        <time>2020-09-02T06:38:01.475Z</time>
      </trkpt>
      <trkpt lat="42.4562" lon="2.48904">
        <ele>1393.9</ele>
        <time>2020-09-02T06:38:05.817Z</time>
      </trkpt>
      <trkpt lat="42.45619" lon="2.48913">
        <ele>1393.6</ele>
        <time>2020-09-02T06:38:07.557Z</time>
      </trkpt>
      <trkpt lat="42.45618" lon="2.48932">
        <ele>1400.5</ele>
        <time>2020-09-02T06:39:11.357Z</time>
      </trkpt>
      <trkpt lat="42.45618" lon="2.4894">
        <ele>1401.3</ele>
        <time>2020-09-02T06:39:38.152Z</time>
      </trkpt>
      <trkpt lat="42.45619" lon="2.48949">
        <ele>1402.4</ele>
        <time>2020-09-02T06:40:08.636Z</time>
      </trkpt>
      <trkpt lat="42.4562" lon="2.48957">
        <ele>1403.4</ele>
        <time>2020-09-02T06:40:35.813Z</time>
      </trkpt>
      <trkpt lat="42.45622" lon="2.48965">
        <ele>1404.3</ele>
        <time>2020-09-02T06:41:04.104Z</time>
      </trkpt>
      <trkpt lat="42.45624" lon="2.48972">
        <ele>1405.5</ele>
        <time>2020-09-02T06:41:29.247Z</time>
      </trkpt>
      <trkpt lat="42.45628" lon="2.4898">
        <ele>1406.9</ele>
        <time>2020-09-02T06:42:01.615Z</time>
      </trkpt>
      <trkpt lat="42.45631" lon="2.48987">
        <ele>1408.6</ele>
        <time>2020-09-02T06:42:28.729Z</time>
      </trkpt>
      <trkpt lat="42.45635" lon="2.48993">
        <ele>1410.3</ele>
        <time>2020-09-02T06:42:55.815Z</time>
      </trkpt>
      <trkpt lat="42.45639" lon="2.48999">
        <ele>1412.3</ele>
        <time>2020-09-02T06:43:22.900Z</time>
      </trkpt>
      <trkpt lat="42.45644" lon="2.49008">
        <ele>1416.3</ele>
        <time>2020-09-02T06:44:00.634Z</time>
      </trkpt>
      <trkpt lat="42.45648" lon="2.49015">
        <ele>1416.9</ele>
        <time>2020-09-02T06:44:19.157Z</time>
      </trkpt>
      <trkpt lat="42.45653" lon="2.49026">
        <ele>1416.3</ele>
        <time>2020-09-02T06:44:21.274Z</time>
      </trkpt>
      <trkpt lat="42.45657" lon="2.49037">
        <ele>1415.5</ele>
        <time>2020-09-02T06:44:23.406Z</time>
      </trkpt>
      <trkpt lat="42.45661" lon="2.49047">
        <ele>1415.7</ele>
        <time>2020-09-02T06:44:36.042Z</time>
      </trkpt>
      <trkpt lat="42.45664" lon="2.4906">
        <ele>1417.4</ele>
        <time>2020-09-02T06:45:21.664Z</time>
      </trkpt>
      <trkpt lat="42.45666" lon="2.49073">
        <ele>1421.6</ele>
        <time>2020-09-02T06:46:06.142Z</time>
      </trkpt>
      <trkpt lat="42.45668" lon="2.49087">
        <ele>1428.5</ele>
        <time>2020-09-02T06:46:53.904Z</time>
      </trkpt>
      <trkpt lat="42.4567" lon="2.49103">
        <ele>1429.5</ele>
        <time>2020-09-02T06:47:25.480Z</time>
      </trkpt>
      <trkpt lat="42.45672" lon="2.49115">
        <ele>1429.6</ele>
        <time>2020-09-02T06:47:37.361Z</time>
      </trkpt>
      <trkpt lat="42.45673" lon="2.49128">
        <ele>1429.2</ele>
        <time>2020-09-02T06:47:39.934Z</time>
      </trkpt>
      <trkpt lat="42.45674" lon="2.49141">
        <ele>1428.3</ele>
        <time>2020-09-02T06:47:42.206Z</time>
      </trkpt>
      <trkpt lat="42.45676" lon="2.49156">
        <ele>1427.1</ele>
        <time>2020-09-02T06:47:44.856Z</time>
      </trkpt>
      <trkpt lat="42.45677" lon="2.49168">
        <ele>1422.1</ele>
        <time>2020-09-02T06:47:46.956Z</time>
      </trkpt>
      <trkpt lat="42.45679" lon="2.4918">
        <ele>1420.6</ele>
        <time>2020-09-02T06:47:49.094Z</time>
      </trkpt>
      <trkpt lat="42.45681" lon="2.4919">
        <ele>1419</ele>
        <time>2020-09-02T06:47:50.896Z</time>
      </trkpt>
      <trkpt lat="42.45684" lon="2.49197">
        <ele>1418.2</ele>
        <time>2020-09-02T06:47:52.303Z</time>
      </trkpt>
      <trkpt lat="42.45687" lon="2.49204">
        <ele>1417.3</ele>
        <time>2020-09-02T06:47:53.710Z</time>
      </trkpt>
      <trkpt lat="42.4569" lon="2.49209">
        <ele>1416.7</ele>
        <time>2020-09-02T06:47:54.831Z</time>
      </trkpt>
      <trkpt lat="42.45692" lon="2.49212">
        <ele>1416.4</ele>
        <time>2020-09-02T06:47:55.534Z</time>
      </trkpt>
      <trkpt lat="42.45694" lon="2.49213">
        <ele>1416.2</ele>
        <time>2020-09-02T06:47:56.036Z</time>
      </trkpt>
      <trkpt lat="42.45696" lon="2.49213">
        <ele>1416.1</ele>
        <time>2020-09-02T06:47:56.530Z</time>
      </trkpt>
      <trkpt lat="42.45696" lon="2.49211">
        <ele>1416.2</ele>
        <time>2020-09-02T06:47:59.967Z</time>
      </trkpt>
      <trkpt lat="42.45694" lon="2.49198">
        <ele>1417.6</ele>
        <time>2020-09-02T06:48:44.445Z</time>
      </trkpt>
      <trkpt lat="42.45692" lon="2.4919">
        <ele>1418.4</ele>
        <time>2020-09-02T06:49:10.807Z</time>
      </trkpt>
      <trkpt lat="42.45691" lon="2.49184">
        <ele>1419.1</ele>
        <time>2020-09-02T06:49:31.410Z</time>
      </trkpt>
      <trkpt lat="42.4569" lon="2.49177">
        <ele>1419.7</ele>
        <time>2020-09-02T06:49:50.066Z</time>
      </trkpt>
      <trkpt lat="42.45692" lon="2.4917">
        <ele>1419.9</ele>
        <time>2020-09-02T06:49:59.806Z</time>
      </trkpt>
      <trkpt lat="42.45694" lon="2.49161">
        <ele>1428</ele>
        <time>2020-09-02T06:50:31.288Z</time>
      </trkpt>
      <trkpt lat="42.45696" lon="2.49154">
        <ele>1428.4</ele>
        <time>2020-09-02T06:50:44.628Z</time>
      </trkpt>
      <trkpt lat="42.45699" lon="2.49143">
        <ele>1429.1</ele>
        <time>2020-09-02T06:51:06.956Z</time>
      </trkpt>
      <trkpt lat="42.45701" lon="2.49133">
        <ele>1429.9</ele>
        <time>2020-09-02T06:51:31.464Z</time>
      </trkpt>
      <trkpt lat="42.45708" lon="2.49104">
        <ele>1432.3</ele>
        <time>2020-09-02T06:52:45.110Z</time>
      </trkpt>
      <trkpt lat="42.45711" lon="2.49093">
        <ele>1433.3</ele>
        <time>2020-09-02T06:53:16.331Z</time>
      </trkpt>
      <trkpt lat="42.45713" lon="2.49083">
        <ele>1440.5</ele>
        <time>2020-09-02T06:53:51.033Z</time>
      </trkpt>
      <trkpt lat="42.45715" lon="2.49074">
        <ele>1440.9</ele>
        <time>2020-09-02T06:54:06.061Z</time>
      </trkpt>
      <trkpt lat="42.45715" lon="2.49064">
        <ele>1441.2</ele>
        <time>2020-09-02T06:54:19.898Z</time>
      </trkpt>
      <trkpt lat="42.45717" lon="2.49055">
        <ele>1441.6</ele>
        <time>2020-09-02T06:54:34.926Z</time>
      </trkpt>
      <trkpt lat="42.45719" lon="2.49045">
        <ele>1442.3</ele>
        <time>2020-09-02T06:54:56.547Z</time>
      </trkpt>
      <trkpt lat="42.4572" lon="2.49037">
        <ele>1442.9</ele>
        <time>2020-09-02T06:55:14.910Z</time>
      </trkpt>
      <trkpt lat="42.45722" lon="2.49027">
        <ele>1443.8</ele>
        <time>2020-09-02T06:55:43.195Z</time>
      </trkpt>
      <trkpt lat="42.45722" lon="2.49018">
        <ele>1444.6</ele>
        <time>2020-09-02T06:56:08.586Z</time>
      </trkpt>
      <trkpt lat="42.45722" lon="2.49009">
        <ele>1445.4</ele>
        <time>2020-09-02T06:56:33.976Z</time>
      </trkpt>
      <trkpt lat="42.45722" lon="2.48999">
        <ele>1443.7</ele>
        <time>2020-09-02T06:56:35.715Z</time>
      </trkpt>
      <trkpt lat="42.45723" lon="2.4899">
        <ele>1443.4</ele>
        <time>2020-09-02T06:56:37.454Z</time>
      </trkpt>
      <trkpt lat="42.45726" lon="2.48983">
        <ele>1443.1</ele>
        <time>2020-09-02T06:56:38.927Z</time>
      </trkpt>
      <trkpt lat="42.45728" lon="2.48974">
        <ele>1442.3</ele>
        <time>2020-09-02T06:56:40.561Z</time>
      </trkpt>
      <trkpt lat="42.45731" lon="2.48967">
        <ele>1441.7</ele>
        <time>2020-09-02T06:56:41.968Z</time>
      </trkpt>
      <trkpt lat="42.45733" lon="2.48962">
        <ele>1441.4</ele>
        <time>2020-09-02T06:56:42.957Z</time>
      </trkpt>
      <trkpt lat="42.45737" lon="2.48958">
        <ele>1441.4</ele>
        <time>2020-09-02T06:56:48.808Z</time>
      </trkpt>
      <trkpt lat="42.45741" lon="2.48956">
        <ele>1441.5</ele>
        <time>2020-09-02T06:56:55.199Z</time>
      </trkpt>
      <trkpt lat="42.45745" lon="2.48955">
        <ele>1441.8</ele>
        <time>2020-09-02T06:57:05.113Z</time>
      </trkpt>
      <trkpt lat="42.4576" lon="2.48955">
        <ele>1453.5</ele>
        <time>2020-09-02T06:58:13.209Z</time>
      </trkpt>
      <trkpt lat="42.45767" lon="2.48955">
        <ele>1453.8</ele>
        <time>2020-09-02T06:58:26.772Z</time>
      </trkpt>
      <trkpt lat="42.45775" lon="2.48955">
        <ele>1454.2</ele>
        <time>2020-09-02T06:58:43.236Z</time>
      </trkpt>
      <trkpt lat="42.45785" lon="2.48955">
        <ele>1454.7</ele>
        <time>2020-09-02T06:59:03.816Z</time>
      </trkpt>
      <trkpt lat="42.45794" lon="2.48954">
        <ele>1455.1</ele>
        <time>2020-09-02T06:59:21.700Z</time>
      </trkpt>
      <trkpt lat="42.45799" lon="2.48951">
        <ele>1455.5</ele>
        <time>2020-09-02T06:59:34.966Z</time>
      </trkpt>
      <trkpt lat="42.45804" lon="2.48947">
        <ele>1455.9</ele>
        <time>2020-09-02T06:59:48.603Z</time>
      </trkpt>
      <trkpt lat="42.45808" lon="2.48942">
        <ele>1456.5</ele>
        <time>2020-09-02T07:00:07.108Z</time>
      </trkpt>
      <trkpt lat="42.45812" lon="2.48936">
        <ele>1457.3</ele>
        <time>2020-09-02T07:00:34.193Z</time>
      </trkpt>
      <trkpt lat="42.45816" lon="2.4893">
        <ele>1458.5</ele>
        <time>2020-09-02T07:01:01.278Z</time>
      </trkpt>
      <trkpt lat="42.45821" lon="2.48924">
        <ele>1460.1</ele>
        <time>2020-09-02T07:01:31.594Z</time>
      </trkpt>
      <trkpt lat="42.45826" lon="2.48919">
        <ele>1461.9</ele>
        <time>2020-09-02T07:01:59.801Z</time>
      </trkpt>
      <trkpt lat="42.45831" lon="2.48916">
        <ele>1464.2</ele>
        <time>2020-09-02T07:02:24.625Z</time>
      </trkpt>
      <trkpt lat="42.45837" lon="2.48914">
        <ele>1464.9</ele>
        <time>2020-09-02T07:02:46.350Z</time>
      </trkpt>
      <trkpt lat="42.45843" lon="2.48912">
        <ele>1464.7</ele>
        <time>2020-09-02T07:02:48.152Z</time>
      </trkpt>
      <trkpt lat="42.45847" lon="2.48908">
        <ele>1464.6</ele>
        <time>2020-09-02T07:02:49.810Z</time>
      </trkpt>
      <trkpt lat="42.45851" lon="2.48902">
        <ele>1464.6</ele>
        <time>2020-09-02T07:02:56.832Z</time>
      </trkpt>
      <trkpt lat="42.45855" lon="2.48896">
        <ele>1464.7</ele>
        <time>2020-09-02T07:03:05.127Z</time>
      </trkpt>
      <trkpt lat="42.45859" lon="2.48888">
        <ele>1464.9</ele>
        <time>2020-09-02T07:03:16.421Z</time>
      </trkpt>
      <trkpt lat="42.45863" lon="2.48881">
        <ele>1465.3</ele>
        <time>2020-09-02T07:03:30.932Z</time>
      </trkpt>
      <trkpt lat="42.45867" lon="2.48875">
        <ele>1465.6</ele>
        <time>2020-09-02T07:03:43.233Z</time>
      </trkpt>
      <trkpt lat="42.45872" lon="2.4887">
        <ele>1465.8</ele>
        <time>2020-09-02T07:03:53.604Z</time>
      </trkpt>
      <trkpt lat="42.45878" lon="2.48867">
        <ele>1466</ele>
        <time>2020-09-02T07:04:04.153Z</time>
      </trkpt>
      <trkpt lat="42.45875" lon="2.48853">
        <ele>1467.3</ele>
        <time>2020-09-02T07:04:45.475Z</time>
      </trkpt>
      <trkpt lat="42.45869" lon="2.4883">
        <ele>1482.1</ele>
        <time>2020-09-02T07:06:07.182Z</time>
      </trkpt>
      <trkpt lat="42.45865" lon="2.48806">
        <ele>1484.7</ele>
        <time>2020-09-02T07:07:29.589Z</time>
      </trkpt>
      <trkpt lat="42.45865" lon="2.48788">
        <ele>1487.8</ele>
        <time>2020-09-02T07:08:29.876Z</time>
      </trkpt>
      <trkpt lat="42.45866" lon="2.48757">
        <ele>1491.6</ele>
        <time>2020-09-02T07:10:13.802Z</time>
      </trkpt>
      <trkpt lat="42.45865" lon="2.48717">
        <ele>1510.4</ele>
        <time>2020-09-02T07:12:27.848Z</time>
      </trkpt>
      <trkpt lat="42.45862" lon="2.48685">
        <ele>1513.5</ele>
        <time>2020-09-02T07:14:11.149Z</time>
      </trkpt>
      <trkpt lat="42.45859" lon="2.4866">
        <ele>1525.5</ele>
        <time>2020-09-02T07:15:35.981Z</time>
      </trkpt>
      <trkpt lat="42.45851" lon="2.48633">
        <ele>1528.7</ele>
        <time>2020-09-02T07:17:13.431Z</time>
      </trkpt>
      <trkpt lat="42.45838" lon="2.48609">
        <ele>1530.5</ele>
        <time>2020-09-02T07:18:10.604Z</time>
      </trkpt>
      <trkpt lat="42.45828" lon="2.48582">
        <ele>1531.8</ele>
        <time>2020-09-02T07:18:59.121Z</time>
      </trkpt>
      <trkpt lat="42.45823" lon="2.48579">
        <ele>1533.9</ele>
        <time>2020-09-02T07:19:23.944Z</time>
      </trkpt>
      <trkpt lat="42.45815" lon="2.48584">
        <ele>1523.4</ele>
        <time>2020-09-02T07:19:26.020Z</time>
      </trkpt>
      <trkpt lat="42.458" lon="2.48592">
        <ele>1521.1</ele>
        <time>2020-09-02T07:19:29.818Z</time>
      </trkpt>
      <trkpt lat="42.45785" lon="2.48599">
        <ele>1520.3</ele>
        <time>2020-09-02T07:19:33.723Z</time>
      </trkpt>
      <trkpt lat="42.45772" lon="2.48601">
        <ele>1520.7</ele>
        <time>2020-09-02T07:19:55.112Z</time>
      </trkpt>
      <trkpt lat="42.45751" lon="2.48594">
        <ele>1524.4</ele>
        <time>2020-09-02T07:21:33.286Z</time>
      </trkpt>
      <trkpt lat="42.45727" lon="2.48584">
        <ele>1514.9</ele>
        <time>2020-09-02T07:21:39.203Z</time>
      </trkpt>
      <trkpt lat="42.45702" lon="2.48571">
        <ele>1530.6</ele>
        <time>2020-09-02T07:23:40.761Z</time>
      </trkpt>
      <trkpt lat="42.45676" lon="2.48554">
        <ele>1530.3</ele>
        <time>2020-09-02T07:23:51.628Z</time>
      </trkpt>
      <trkpt lat="42.4566" lon="2.48542">
        <ele>1518.8</ele>
        <time>2020-09-02T07:23:55.936Z</time>
      </trkpt>
      <trkpt lat="42.4564" lon="2.48521">
        <ele>1520.9</ele>
        <time>2020-09-02T07:25:02.369Z</time>
      </trkpt>
      <trkpt lat="42.45626" lon="2.48503">
        <ele>1519.2</ele>
        <time>2020-09-02T07:25:06.916Z</time>
      </trkpt>
      <trkpt lat="42.45609" lon="2.48478">
        <ele>1535.3</ele>
        <time>2020-09-02T07:27:00.791Z</time>
      </trkpt>
      <trkpt lat="42.45605" lon="2.48471">
        <ele>1536.1</ele>
        <time>2020-09-02T07:27:26.388Z</time>
        <extensions>
          <visugpx:TrkExtension xmlns:visugpx="https://www.visugpx.com/editgpx/">
            <visugpx:node>1</visugpx:node>
            </visugpx:TrkExtension>
        </extensions>
      </trkpt>
      <trkpt lat="42.45598" lon="2.48456">
        <ele>1538.7</ele>
        <time>2020-09-02T07:28:25.836Z</time>
      </trkpt>
      <trkpt lat="42.45585" lon="2.4842">
        <ele>1540.5</ele>
        <time>2020-09-02T07:29:31.360Z</time>
      </trkpt>
      <trkpt lat="42.45578" lon="2.48395">
        <ele>1539.8</ele>
        <time>2020-09-02T07:29:36.937Z</time>
      </trkpt>
      <trkpt lat="42.4557" lon="2.48366">
        <ele>1546.1</ele>
        <time>2020-09-02T07:31:20.637Z</time>
      </trkpt>
      <trkpt lat="42.45564" lon="2.48346">
        <ele>1552.2</ele>
        <time>2020-09-02T07:32:32.951Z</time>
      </trkpt>
      <trkpt lat="42.45554" lon="2.48331">
        <ele>1571.3</ele>
        <time>2020-09-02T07:33:40.665Z</time>
      </trkpt>
      <trkpt lat="42.45545" lon="2.48321">
        <ele>1569.9</ele>
        <time>2020-09-02T07:33:43.407Z</time>
      </trkpt>
      <trkpt lat="42.45534" lon="2.48314">
        <ele>1567.5</ele>
        <time>2020-09-02T07:33:46.270Z</time>
      </trkpt>
      <trkpt lat="42.45517" lon="2.48304">
        <ele>1565.3</ele>
        <time>2020-09-02T07:33:50.637Z</time>
      </trkpt>
      <trkpt lat="42.45502" lon="2.48292">
        <ele>1567.9</ele>
        <time>2020-09-02T07:35:09.710Z</time>
      </trkpt>
      <trkpt lat="42.45486" lon="2.4828">
        <ele>1550</ele>
        <time>2020-09-02T07:35:14.019Z</time>
      </trkpt>
      <trkpt lat="42.45473" lon="2.48264">
        <ele>1552.2</ele>
        <time>2020-09-02T07:36:25.336Z</time>
      </trkpt>
      <trkpt lat="42.45459" lon="2.48253">
        <ele>1548.7</ele>
        <time>2020-09-02T07:36:29.149Z</time>
      </trkpt>
      <trkpt lat="42.45447" lon="2.48226">
        <ele>1571.9</ele>
        <time>2020-09-02T07:38:14.725Z</time>
      </trkpt>
      <trkpt lat="42.45438" lon="2.48211">
        <ele>1573.8</ele>
        <time>2020-09-02T07:39:19.261Z</time>
      </trkpt>
      <trkpt lat="42.45426" lon="2.48198">
        <ele>1575.5</ele>
        <time>2020-09-02T07:40:11.731Z</time>
      </trkpt>
      <trkpt lat="42.45418" lon="2.48188">
        <ele>1576.7</ele>
        <time>2020-09-02T07:40:48.742Z</time>
      </trkpt>
      <trkpt lat="42.45416" lon="2.48176">
        <ele>1569.2</ele>
        <time>2020-09-02T07:40:50.881Z</time>
      </trkpt>
      <trkpt lat="42.45413" lon="2.48151">
        <ele>1581.7</ele>
        <time>2020-09-02T07:42:15.719Z</time>
      </trkpt>
      <trkpt lat="42.45411" lon="2.48139">
        <ele>1584.4</ele>
        <time>2020-09-02T07:42:56.925Z</time>
      </trkpt>
      <trkpt lat="42.45407" lon="2.48134">
        <ele>1585.5</ele>
        <time>2020-09-02T07:43:21.628Z</time>
      </trkpt>
      <trkpt lat="42.45397" lon="2.48134">
        <ele>1584.8</ele>
        <time>2020-09-02T07:43:23.984Z</time>
      </trkpt>
      <trkpt lat="42.45387" lon="2.4813">
        <ele>1584.6</ele>
        <time>2020-09-02T07:43:27.501Z</time>
      </trkpt>
      <trkpt lat="42.45376" lon="2.48124">
        <ele>1584.5</ele>
        <time>2020-09-02T07:43:32.083Z</time>
      </trkpt>
      <trkpt lat="42.45365" lon="2.48115">
        <ele>1584.6</ele>
        <time>2020-09-02T07:43:48.366Z</time>
      </trkpt>
      <trkpt lat="42.45347" lon="2.48105">
        <ele>1585.1</ele>
        <time>2020-09-02T07:44:18.312Z</time>
      </trkpt>
      <trkpt lat="42.45337" lon="2.4809">
        <ele>1587.6</ele>
        <time>2020-09-02T07:45:26.027Z</time>
      </trkpt>
      <trkpt lat="42.4533" lon="2.48075">
        <ele>1593</ele>
        <time>2020-09-02T07:46:25.476Z</time>
      </trkpt>
      <trkpt lat="42.45325" lon="2.48064">
        <ele>1596.5</ele>
        <time>2020-09-02T07:47:08.752Z</time>
      </trkpt>
      <trkpt lat="42.45318" lon="2.4806">
        <ele>1598.1</ele>
        <time>2020-09-02T07:47:43.239Z</time>
      </trkpt>
      <trkpt lat="42.45296" lon="2.48051">
        <ele>1599.6</ele>
        <time>2020-09-02T07:48:35.791Z</time>
      </trkpt>
      <trkpt lat="42.45276" lon="2.48041">
        <ele>1600.5</ele>
        <time>2020-09-02T07:49:16.702Z</time>
      </trkpt>
      <trkpt lat="42.45253" lon="2.48024">
        <ele>1604.5</ele>
        <time>2020-09-02T07:51:15.634Z</time>
      </trkpt>
      <trkpt lat="42.45234" lon="2.48007">
        <ele>1607.5</ele>
        <time>2020-09-02T07:52:56.562Z</time>
      </trkpt>
      <trkpt lat="42.4522" lon="2.47987">
        <ele>1628.2</ele>
        <time>2020-09-02T07:54:28.905Z</time>
      </trkpt>
      <trkpt lat="42.45208" lon="2.47975">
        <ele>1631.4</ele>
        <time>2020-09-02T07:55:36.606Z</time>
      </trkpt>
      <trkpt lat="42.45189" lon="2.47967">
        <ele>1633.2</ele>
        <time>2020-09-02T07:56:32.327Z</time>
      </trkpt>
      <trkpt lat="42.45178" lon="2.47967">
        <ele>1633</ele>
        <time>2020-09-02T07:56:36.081Z</time>
      </trkpt>
      <trkpt lat="42.45172" lon="2.47968">
        <ele>1632.5</ele>
        <time>2020-09-02T07:56:37.506Z</time>
      </trkpt>
      <trkpt lat="42.45165" lon="2.47973">
        <ele>1641.3</ele>
        <time>2020-09-02T07:57:13.427Z</time>
      </trkpt>
      <trkpt lat="42.45158" lon="2.47987">
        <ele>1635.3</ele>
        <time>2020-09-02T07:57:16.367Z</time>
      </trkpt>
      <trkpt lat="42.4515" lon="2.48002">
        <ele>1623.7</ele>
        <time>2020-09-02T07:57:19.585Z</time>
      </trkpt>
      <trkpt lat="42.45138" lon="2.4802">
        <ele>1626.3</ele>
        <time>2020-09-02T07:58:40.844Z</time>
      </trkpt>
      <trkpt lat="42.45123" lon="2.48036">
        <ele>1628.2</ele>
        <time>2020-09-02T07:59:39.005Z</time>
      </trkpt>
      <trkpt lat="42.451" lon="2.48058">
        <ele>1630.7</ele>
        <time>2020-09-02T08:00:56.694Z</time>
      </trkpt>
      <trkpt lat="42.45073" lon="2.48081">
        <ele>1643.9</ele>
        <time>2020-09-02T08:03:21.468Z</time>
      </trkpt>
      <trkpt lat="42.45047" lon="2.48103">
        <ele>1638.2</ele>
        <time>2020-09-02T08:03:28.690Z</time>
      </trkpt>
      <trkpt lat="42.45025" lon="2.48117">
        <ele>1639.9</ele>
        <time>2020-09-02T08:04:26.228Z</time>
      </trkpt>
      <trkpt lat="42.4501" lon="2.48122">
        <ele>1640.7</ele>
        <time>2020-09-02T08:04:58.395Z</time>
      </trkpt>
      <trkpt lat="42.44995" lon="2.48123">
        <ele>1651.9</ele>
        <time>2020-09-02T08:06:06.574Z</time>
      </trkpt>
      <trkpt lat="42.44977" lon="2.4812">
        <ele>1653.3</ele>
        <time>2020-09-02T08:06:51.989Z</time>
      </trkpt>
      <trkpt lat="42.44948" lon="2.48106">
        <ele>1658</ele>
        <time>2020-09-02T08:09:11.745Z</time>
      </trkpt>
      <trkpt lat="42.44905" lon="2.48088">
        <ele>1669.6</ele>
        <time>2020-09-02T08:12:36.053Z</time>
      </trkpt>
      <trkpt lat="42.44859" lon="2.48069">
        <ele>1685.9</ele>
        <time>2020-09-02T08:16:14.364Z</time>
      </trkpt>
      <trkpt lat="42.44827" lon="2.48054">
        <ele>1689.8</ele>
        <time>2020-09-02T08:18:15.990Z</time>
      </trkpt>
      <trkpt lat="42.44808" lon="2.48045">
        <ele>1692.3</ele>
        <time>2020-09-02T08:19:36.614Z</time>
      </trkpt>
      <trkpt lat="42.44772" lon="2.48035">
        <ele>1695.1</ele>
        <time>2020-09-02T08:21:07.911Z</time>
      </trkpt>
      <trkpt lat="42.44731" lon="2.48022">
        <ele>1702.8</ele>
        <time>2020-09-02T08:24:19.066Z</time>
      </trkpt>
      <trkpt lat="42.44723" lon="2.48018">
        <ele>1703.2</ele>
        <time>2020-09-02T08:24:36.266Z</time>
      </trkpt>
      <trkpt lat="42.44728" lon="2.4801">
        <ele>1704.9</ele>
        <time>2020-09-02T08:25:11.386Z</time>
      </trkpt>
      <trkpt lat="42.44742" lon="2.48005">
        <ele>1708</ele>
        <time>2020-09-02T08:26:17.112Z</time>
      </trkpt>
      <trkpt lat="42.44766" lon="2.48002">
        <ele>1703.7</ele>
        <time>2020-09-02T08:26:22.791Z</time>
      </trkpt>
      <trkpt lat="42.44787" lon="2.47997">
        <ele>1720</ele>
        <time>2020-09-02T08:27:59.586Z</time>
      </trkpt>
      <trkpt lat="42.44802" lon="2.4799">
        <ele>1719.4</ele>
        <time>2020-09-02T08:28:03.969Z</time>
      </trkpt>
      <trkpt lat="42.44817" lon="2.47983">
        <ele>1717.8</ele>
        <time>2020-09-02T08:28:07.707Z</time>
      </trkpt>
      <trkpt lat="42.44838" lon="2.47966">
        <ele>1715.5</ele>
        <time>2020-09-02T08:28:13.471Z</time>
      </trkpt>
      <trkpt lat="42.44855" lon="2.47953">
        <ele>1718.2</ele>
        <time>2020-09-02T08:29:42.084Z</time>
      </trkpt>
      <trkpt lat="42.44877" lon="2.47935">
        <ele>1719.8</ele>
        <time>2020-09-02T08:30:39.591Z</time>
      </trkpt>
      <trkpt lat="42.44895" lon="2.47919">
        <ele>1721</ele>
        <time>2020-09-02T08:31:25.625Z</time>
      </trkpt>
      <trkpt lat="42.44915" lon="2.47899">
        <ele>1734.3</ele>
        <time>2020-09-02T08:33:18.462Z</time>
      </trkpt>
      <trkpt lat="42.44929" lon="2.47882">
        <ele>1729.4</ele>
        <time>2020-09-02T08:33:22.891Z</time>
      </trkpt>
      <trkpt lat="42.44942" lon="2.47861">
        <ele>1732.3</ele>
        <time>2020-09-02T08:34:54.713Z</time>
      </trkpt>
      <trkpt lat="42.44951" lon="2.47841">
        <ele>1733.4</ele>
        <time>2020-09-02T08:35:33.777Z</time>
      </trkpt>
      <trkpt lat="42.44967" lon="2.4781">
        <ele>1748</ele>
        <time>2020-09-02T08:37:40.501Z</time>
      </trkpt>
      <trkpt lat="42.44986" lon="2.47785">
        <ele>1750.8</ele>
        <time>2020-09-02T08:39:06.350Z</time>
      </trkpt>
      <trkpt lat="42.45003" lon="2.47758">
        <ele>1751.1</ele>
        <time>2020-09-02T08:39:40.788Z</time>
      </trkpt>
      <trkpt lat="42.45024" lon="2.47725">
        <ele>1760.2</ele>
        <time>2020-09-02T08:42:06.759Z</time>
      </trkpt>
      <trkpt lat="42.45043" lon="2.47698">
        <ele>1762.1</ele>
        <time>2020-09-02T08:43:11.479Z</time>
      </trkpt>
      <trkpt lat="42.45058" lon="2.47676">
        <ele>1763</ele>
        <time>2020-09-02T08:43:52.967Z</time>
      </trkpt>
      <trkpt lat="42.45074" lon="2.47659">
        <ele>1769.6</ele>
        <time>2020-09-02T08:45:25.264Z</time>
      </trkpt>
      <trkpt lat="42.45088" lon="2.47636">
        <ele>1771.6</ele>
        <time>2020-09-02T08:46:27.119Z</time>
      </trkpt>
      <trkpt lat="42.45097" lon="2.47625">
        <ele>1773.7</ele>
        <time>2020-09-02T08:47:22.138Z</time>
        <extensions>
          <visugpx:TrkExtension xmlns:visugpx="https://www.visugpx.com/editgpx/">
            <visugpx:node>2</visugpx:node>
            </visugpx:TrkExtension>
        </extensions>
      </trkpt>
      <trkpt lat="42.45099" lon="2.47622">
        <ele>1774.1</ele>
        <time>2020-09-02T08:47:35.681Z</time>
      </trkpt>
      <trkpt lat="42.45111" lon="2.47616">
        <ele>1774.8</ele>
        <time>2020-09-02T08:48:02.845Z</time>
      </trkpt>
      <trkpt lat="42.45127" lon="2.47609">
        <ele>1775.3</ele>
        <time>2020-09-02T08:48:30.042Z</time>
      </trkpt>
      <trkpt lat="42.45155" lon="2.47602">
        <ele>1777.6</ele>
        <time>2020-09-02T08:49:43.440Z</time>
      </trkpt>
      <trkpt lat="42.45173" lon="2.47599">
        <ele>1778.7</ele>
        <time>2020-09-02T08:50:23.564Z</time>
      </trkpt>
      <trkpt lat="42.45189" lon="2.47592">
        <ele>1778</ele>
        <time>2020-09-02T08:50:28.043Z</time>
      </trkpt>
      <trkpt lat="42.45204" lon="2.47565">
        <ele>1791.8</ele>
        <time>2020-09-02T08:52:21.253Z</time>
      </trkpt>
      <trkpt lat="42.45217" lon="2.47543">
        <ele>1793.6</ele>
        <time>2020-09-02T08:53:17.530Z</time>
      </trkpt>
      <trkpt lat="42.45229" lon="2.47523">
        <ele>1795.3</ele>
        <time>2020-09-02T08:54:10.285Z</time>
      </trkpt>
      <trkpt lat="42.45235" lon="2.47503">
        <ele>1797</ele>
        <time>2020-09-02T08:55:02.457Z</time>
      </trkpt>
      <trkpt lat="42.45238" lon="2.47488">
        <ele>1795.6</ele>
        <time>2020-09-02T08:55:05.159Z</time>
      </trkpt>
      <trkpt lat="42.45245" lon="2.47461">
        <ele>1792.7</ele>
        <time>2020-09-02T08:55:10.134Z</time>
      </trkpt>
      <trkpt lat="42.4526" lon="2.47446">
        <ele>1798</ele>
        <time>2020-09-02T08:56:34.760Z</time>
      </trkpt>
      <trkpt lat="42.45273" lon="2.47439">
        <ele>1798.5</ele>
        <time>2020-09-02T08:56:59.238Z</time>
      </trkpt>
      <trkpt lat="42.45301" lon="2.47424">
        <ele>1801</ele>
        <time>2020-09-02T08:58:18.316Z</time>
      </trkpt>
      <trkpt lat="42.45322" lon="2.47413">
        <ele>1794.6</ele>
        <time>2020-09-02T08:58:23.621Z</time>
      </trkpt>
      <trkpt lat="42.45343" lon="2.47403">
        <ele>1796.4</ele>
        <time>2020-09-02T08:59:21.042Z</time>
      </trkpt>
      <trkpt lat="42.45367" lon="2.47391">
        <ele>1793</ele>
        <time>2020-09-02T08:59:27.070Z</time>
      </trkpt>
      <trkpt lat="42.45387" lon="2.47382">
        <ele>1792.7</ele>
        <time>2020-09-02T08:59:34.619Z</time>
      </trkpt>
      <trkpt lat="42.4542" lon="2.47367">
        <ele>1799.2</ele>
        <time>2020-09-02T09:02:12.630Z</time>
      </trkpt>
      <trkpt lat="42.4544" lon="2.47355">
        <ele>1797.8</ele>
        <time>2020-09-02T09:02:17.449Z</time>
        <extensions>
          <visugpx:TrkExtension xmlns:visugpx="https://www.visugpx.com/editgpx/">
            <visugpx:node>3</visugpx:node>
            </visugpx:TrkExtension>
        </extensions>
      </trkpt>
      <trkpt lat="42.45444" lon="2.47352">
        <ele>1798.1</ele>
        <time>2020-09-02T09:02:27.930Z</time>
      </trkpt>
      <trkpt lat="42.45467" lon="2.47339">
        <ele>1799.7</ele>
        <time>2020-09-02T09:03:24.478Z</time>
      </trkpt>
      <trkpt lat="42.4549" lon="2.47322">
        <ele>1782.3</ele>
        <time>2020-09-02T09:03:30.651Z</time>
      </trkpt>
      <trkpt lat="42.4551" lon="2.47314">
        <ele>1784</ele>
        <time>2020-09-02T09:04:24.738Z</time>
      </trkpt>
      <trkpt lat="42.45531" lon="2.47308">
        <ele>1780.9</ele>
        <time>2020-09-02T09:04:29.795Z</time>
      </trkpt>
      <trkpt lat="42.45547" lon="2.47303">
        <ele>1779.9</ele>
        <time>2020-09-02T09:04:33.501Z</time>
      </trkpt>
      <trkpt lat="42.45567" lon="2.47301">
        <ele>1780.7</ele>
        <time>2020-09-02T09:05:10.695Z</time>
      </trkpt>
      <trkpt lat="42.45591" lon="2.47306">
        <ele>1787.4</ele>
        <time>2020-09-02T09:07:00.928Z</time>
      </trkpt>
      <trkpt lat="42.45611" lon="2.47309">
        <ele>1787.5</ele>
        <time>2020-09-02T09:07:25.740Z</time>
      </trkpt>
      <trkpt lat="42.45633" lon="2.47306">
        <ele>1787.5</ele>
        <time>2020-09-02T09:07:51.764Z</time>
      </trkpt>
      <trkpt lat="42.45648" lon="2.47301">
        <ele>1787.4</ele>
        <time>2020-09-02T09:08:08.304Z</time>
      </trkpt>
      <trkpt lat="42.45663" lon="2.47288">
        <ele>1784</ele>
        <time>2020-09-02T09:08:12.499Z</time>
      </trkpt>
      <trkpt lat="42.45684" lon="2.47276">
        <ele>1795.8</ele>
        <time>2020-09-02T09:09:55.960Z</time>
      </trkpt>
      <trkpt lat="42.45705" lon="2.47264">
        <ele>1799.3</ele>
        <time>2020-09-02T09:11:39.420Z</time>
      </trkpt>
      <trkpt lat="42.45729" lon="2.47244">
        <ele>1784.7</ele>
        <time>2020-09-02T09:11:46.059Z</time>
      </trkpt>
      <trkpt lat="42.45748" lon="2.47227">
        <ele>1784.2</ele>
        <time>2020-09-02T09:11:53.492Z</time>
      </trkpt>
      <trkpt lat="42.45769" lon="2.47214">
        <ele>1803.8</ele>
        <time>2020-09-02T09:13:38.298Z</time>
      </trkpt>
      <trkpt lat="42.45777" lon="2.472">
        <ele>1802.1</ele>
        <time>2020-09-02T09:13:41.377Z</time>
      </trkpt>
      <trkpt lat="42.4578" lon="2.47191">
        <ele>1800.8</ele>
        <time>2020-09-02T09:13:43.093Z</time>
      </trkpt>
      <trkpt lat="42.45782" lon="2.47183">
        <ele>1799.8</ele>
        <time>2020-09-02T09:13:44.562Z</time>
      </trkpt>
      <trkpt lat="42.4579" lon="2.47164">
        <ele>1783.9</ele>
        <time>2020-09-02T09:13:48.365Z</time>
      </trkpt>
      <trkpt lat="42.45798" lon="2.47145">
        <ele>1785</ele>
        <time>2020-09-02T09:14:26.065Z</time>
      </trkpt>
      <trkpt lat="42.45807" lon="2.47122">
        <ele>1783.9</ele>
        <time>2020-09-02T09:14:30.529Z</time>
      </trkpt>
      <trkpt lat="42.45813" lon="2.47104">
        <ele>1784.3</ele>
        <time>2020-09-02T09:14:53.441Z</time>
      </trkpt>
      <trkpt lat="42.45817" lon="2.47089">
        <ele>1785.8</ele>
        <time>2020-09-02T09:15:42.624Z</time>
      </trkpt>
      <trkpt lat="42.45821" lon="2.47073">
        <ele>1778</ele>
        <time>2020-09-02T09:15:45.560Z</time>
      </trkpt>
      <trkpt lat="42.45824" lon="2.47059">
        <ele>1773.4</ele>
        <time>2020-09-02T09:15:48.095Z</time>
      </trkpt>
      <trkpt lat="42.45827" lon="2.47051">
        <ele>1771.6</ele>
        <time>2020-09-02T09:15:49.655Z</time>
      </trkpt>
      <trkpt lat="42.45833" lon="2.47043">
        <ele>1770.4</ele>
        <time>2020-09-02T09:15:51.638Z</time>
      </trkpt>
      <trkpt lat="42.45848" lon="2.47018">
        <ele>1788.2</ele>
        <time>2020-09-02T09:17:39.564Z</time>
      </trkpt>
      <trkpt lat="42.45861" lon="2.46992">
        <ele>1775</ele>
        <time>2020-09-02T09:17:45.024Z</time>
      </trkpt>
      <trkpt lat="42.45873" lon="2.46964">
        <ele>1773.5</ele>
        <time>2020-09-02T09:17:50.337Z</time>
      </trkpt>
      <trkpt lat="42.45888" lon="2.46933">
        <ele>1771.9</ele>
        <time>2020-09-02T09:17:56.631Z</time>
      </trkpt>
      <trkpt lat="42.45903" lon="2.46902">
        <ele>1760.1</ele>
        <time>2020-09-02T09:18:03.075Z</time>
      </trkpt>
      <trkpt lat="42.45913" lon="2.46878">
        <ele>1754.8</ele>
        <time>2020-09-02T09:18:07.867Z</time>
      </trkpt>
      <trkpt lat="42.45921" lon="2.46854">
        <ele>1762.8</ele>
        <time>2020-09-02T09:19:36.072Z</time>
      </trkpt>
      <trkpt lat="42.4593" lon="2.46844">
        <ele>1761.3</ele>
        <time>2020-09-02T09:19:38.814Z</time>
      </trkpt>
      <trkpt lat="42.45938" lon="2.46841">
        <ele>1762.6</ele>
        <time>2020-09-02T09:20:16.496Z</time>
      </trkpt>
      <trkpt lat="42.45958" lon="2.46844">
        <ele>1765.2</ele>
        <time>2020-09-02T09:21:42.591Z</time>
      </trkpt>
      <trkpt lat="42.45966" lon="2.46841">
        <ele>1765</ele>
        <time>2020-09-02T09:21:45.236Z</time>
      </trkpt>
      <trkpt lat="42.45977" lon="2.46829">
        <ele>1748.7</ele>
        <time>2020-09-02T09:21:48.563Z</time>
      </trkpt>
      <trkpt lat="42.45992" lon="2.46819">
        <ele>1750</ele>
        <time>2020-09-02T09:22:30.616Z</time>
      </trkpt>
      <trkpt lat="42.46011" lon="2.46818">
        <ele>1758.8</ele>
        <time>2020-09-02T09:23:56.936Z</time>
      </trkpt>
      <trkpt lat="42.46023" lon="2.46818">
        <ele>1760.1</ele>
        <time>2020-09-02T09:24:36.910Z</time>
        <extensions>
          <visugpx:TrkExtension xmlns:visugpx="https://www.visugpx.com/editgpx/">
            <visugpx:node>4</visugpx:node>
            </visugpx:TrkExtension>
        </extensions>
      </trkpt>
      <trkpt lat="42.46023" lon="2.46818">
        <ele>1760.1</ele>
        <time>2020-09-02T09:24:36.910Z</time>
      </trkpt>
      <trkpt lat="42.46028" lon="2.46818">
        <ele>1760.9</ele>
        <time>2020-09-02T09:24:59.609Z</time>
      </trkpt>
      <trkpt lat="42.46033" lon="2.46811">
        <ele>1761.1</ele>
        <time>2020-09-02T09:25:10.963Z</time>
      </trkpt>
      <trkpt lat="42.4603" lon="2.46796">
        <ele>1759.1</ele>
        <time>2020-09-02T09:25:13.664Z</time>
      </trkpt>
      <trkpt lat="42.46029" lon="2.46788">
        <ele>1757.8</ele>
        <time>2020-09-02T09:25:15.075Z</time>
      </trkpt>
      <trkpt lat="42.46029" lon="2.46785">
        <ele>1757.2</ele>
        <time>2020-09-02T09:25:15.596Z</time>
      </trkpt>
      <trkpt lat="42.46029" lon="2.46777">
        <ele>1755.9</ele>
        <time>2020-09-02T09:25:16.987Z</time>
      </trkpt>
      <trkpt lat="42.4603" lon="2.4677">
        <ele>1754.8</ele>
        <time>2020-09-02T09:25:18.227Z</time>
      </trkpt>
      <trkpt lat="42.46032" lon="2.46761">
        <ele>1754.4</ele>
        <time>2020-09-02T09:25:19.833Z</time>
      </trkpt>
      <trkpt lat="42.46039" lon="2.46745">
        <ele>1743.8</ele>
        <time>2020-09-02T09:25:23.066Z</time>
      </trkpt>
      <trkpt lat="42.46041" lon="2.46739">
        <ele>1744.2</ele>
        <time>2020-09-02T09:25:35.752Z</time>
      </trkpt>
      <trkpt lat="42.46043" lon="2.46733">
        <ele>1744.3</ele>
        <time>2020-09-02T09:25:42.797Z</time>
      </trkpt>
      <trkpt lat="42.46044" lon="2.4673">
        <ele>1744.2</ele>
        <time>2020-09-02T09:25:43.447Z</time>
      </trkpt>
      <trkpt lat="42.46044" lon="2.46726">
        <ele>1743.7</ele>
        <time>2020-09-02T09:25:44.142Z</time>
      </trkpt>
      <trkpt lat="42.46044" lon="2.46713">
        <ele>1742.4</ele>
        <time>2020-09-02T09:25:46.402Z</time>
      </trkpt>
      <trkpt lat="42.46045" lon="2.46705">
        <ele>1741.5</ele>
        <time>2020-09-02T09:25:47.813Z</time>
      </trkpt>
      <trkpt lat="42.4605" lon="2.46697">
        <ele>1742.1</ele>
        <time>2020-09-02T09:26:07.241Z</time>
      </trkpt>
      <trkpt lat="42.46062" lon="2.46687">
        <ele>1744.8</ele>
        <time>2020-09-02T09:27:11.189Z</time>
      </trkpt>
      <trkpt lat="42.46071" lon="2.4668">
        <ele>1747.4</ele>
        <time>2020-09-02T09:27:58.295Z</time>
      </trkpt>
      <trkpt lat="42.4608" lon="2.46663">
        <ele>1748.2</ele>
        <time>2020-09-02T09:28:30.448Z</time>
      </trkpt>
      <trkpt lat="42.46087" lon="2.46645">
        <ele>1762.8</ele>
        <time>2020-09-02T09:29:38.595Z</time>
      </trkpt>
      <trkpt lat="42.46091" lon="2.46628">
        <ele>1763.6</ele>
        <time>2020-09-02T09:30:07.744Z</time>
      </trkpt>
      <trkpt lat="42.46091" lon="2.46612">
        <ele>1760.6</ele>
        <time>2020-09-02T09:30:10.525Z</time>
      </trkpt>
      <trkpt lat="42.46087" lon="2.46605">
        <ele>1756.8</ele>
        <time>2020-09-02T09:30:12.064Z</time>
      </trkpt>
      <trkpt lat="42.46085" lon="2.46601">
        <ele>1754.6</ele>
        <time>2020-09-02T09:30:12.904Z</time>
      </trkpt>
      <trkpt lat="42.46083" lon="2.46595">
        <ele>1733.4</ele>
        <time>2020-09-02T09:30:14.049Z</time>
      </trkpt>
      <trkpt lat="42.46083" lon="2.4659">
        <ele>1734.9</ele>
        <time>2020-09-02T09:30:30.795Z</time>
      </trkpt>
      <trkpt lat="42.46082" lon="2.46583">
        <ele>1737.2</ele>
        <time>2020-09-02T09:30:54.674Z</time>
      </trkpt>
      <trkpt lat="42.46083" lon="2.46575">
        <ele>1733.3</ele>
        <time>2020-09-02T09:30:56.084Z</time>
      </trkpt>
      <trkpt lat="42.46086" lon="2.46563">
        <ele>1754</ele>
        <time>2020-09-02T09:31:38.519Z</time>
      </trkpt>
      <trkpt lat="42.46086" lon="2.46558">
        <ele>1755.8</ele>
        <time>2020-09-02T09:31:55.265Z</time>
      </trkpt>
      <trkpt lat="42.46085" lon="2.46555">
        <ele>1756.5</ele>
        <time>2020-09-02T09:32:06.290Z</time>
      </trkpt>
      <trkpt lat="42.46082" lon="2.46551">
        <ele>1728.9</ele>
        <time>2020-09-02T09:32:07.282Z</time>
      </trkpt>
      <trkpt lat="42.46082" lon="2.46546">
        <ele>1728.8</ele>
        <time>2020-09-02T09:32:08.419Z</time>
      </trkpt>
      <trkpt lat="42.46081" lon="2.4654">
        <ele>1729.1</ele>
        <time>2020-09-02T09:32:18.860Z</time>
      </trkpt>
      <trkpt lat="42.46082" lon="2.46529">
        <ele>1731</ele>
        <time>2020-09-02T09:32:55.979Z</time>
      </trkpt>
      <trkpt lat="42.46081" lon="2.46522">
        <ele>1732.5</ele>
        <time>2020-09-02T09:33:19.859Z</time>
      </trkpt>
      <trkpt lat="42.46076" lon="2.46517">
        <ele>1733.5</ele>
        <time>2020-09-02T09:33:48.066Z</time>
      </trkpt>
      <trkpt lat="42.46074" lon="2.46511">
        <ele>1735.3</ele>
        <time>2020-09-02T09:34:10.117Z</time>
      </trkpt>
      <trkpt lat="42.46065" lon="2.46499">
        <ele>1737.9</ele>
        <time>2020-09-02T09:35:07.428Z</time>
      </trkpt>
      <trkpt lat="42.46054" lon="2.46492">
        <ele>1734</ele>
        <time>2020-09-02T09:35:10.291Z</time>
      </trkpt>
      <trkpt lat="42.46048" lon="2.46489">
        <ele>1731.9</ele>
        <time>2020-09-02T09:35:11.798Z</time>
      </trkpt>
      <trkpt lat="42.4604" lon="2.46482">
        <ele>1729.8</ele>
        <time>2020-09-02T09:35:14.041Z</time>
      </trkpt>
      <trkpt lat="42.46032" lon="2.46475">
        <ele>1728.1</ele>
        <time>2020-09-02T09:35:16.285Z</time>
      </trkpt>
      <trkpt lat="42.46024" lon="2.46468">
        <ele>1726.8</ele>
        <time>2020-09-02T09:35:18.529Z</time>
      </trkpt>
      <trkpt lat="42.46018" lon="2.46462">
        <ele>1726.4</ele>
        <time>2020-09-02T09:35:20.315Z</time>
      </trkpt>
      <trkpt lat="42.46014" lon="2.46458">
        <ele>1726.2</ele>
        <time>2020-09-02T09:35:21.656Z</time>
      </trkpt>
      <trkpt lat="42.46008" lon="2.46445">
        <ele>1726.3</ele>
        <time>2020-09-02T09:35:36.144Z</time>
      </trkpt>
      <trkpt lat="42.46006" lon="2.46438">
        <ele>1725.8</ele>
        <time>2020-09-02T09:35:37.449Z</time>
      </trkpt>
      <trkpt lat="42.46004" lon="2.46433">
        <ele>1725</ele>
        <time>2020-09-02T09:35:38.438Z</time>
      </trkpt>
      <trkpt lat="42.45998" lon="2.46421">
        <ele>1715.2</ele>
        <time>2020-09-02T09:35:40.958Z</time>
      </trkpt>
      <trkpt lat="42.45989" lon="2.46401">
        <ele>1711.4</ele>
        <time>2020-09-02T09:35:45.030Z</time>
      </trkpt>
      <trkpt lat="42.45986" lon="2.46392">
        <ele>1709.1</ele>
        <time>2020-09-02T09:35:46.747Z</time>
      </trkpt>
      <trkpt lat="42.45978" lon="2.46378">
        <ele>1706.9</ele>
        <time>2020-09-02T09:35:49.826Z</time>
      </trkpt>
      <trkpt lat="42.45968" lon="2.46365">
        <ele>1705.3</ele>
        <time>2020-09-02T09:35:53.090Z</time>
      </trkpt>
      <trkpt lat="42.45963" lon="2.46357">
        <ele>1704.6</ele>
        <time>2020-09-02T09:35:54.913Z</time>
      </trkpt>
      <trkpt lat="42.45961" lon="2.46352">
        <ele>1704.3</ele>
        <time>2020-09-02T09:35:55.902Z</time>
      </trkpt>
      <trkpt lat="42.45956" lon="2.46349">
        <ele>1703.4</ele>
        <time>2020-09-02T09:35:57.190Z</time>
      </trkpt>
      <trkpt lat="42.45953" lon="2.46346">
        <ele>1702.8</ele>
        <time>2020-09-02T09:35:58.069Z</time>
      </trkpt>
      <trkpt lat="42.45946" lon="2.46346">
        <ele>1701.5</ele>
        <time>2020-09-02T09:35:59.718Z</time>
      </trkpt>
      <trkpt lat="42.45941" lon="2.46346">
        <ele>1700.4</ele>
        <time>2020-09-02T09:36:00.896Z</time>
      </trkpt>
      <trkpt lat="42.45933" lon="2.46343">
        <ele>1698.6</ele>
        <time>2020-09-02T09:36:02.852Z</time>
      </trkpt>
      <trkpt lat="42.45928" lon="2.4634">
        <ele>1697.3</ele>
        <time>2020-09-02T09:36:04.141Z</time>
      </trkpt>
      <trkpt lat="42.45924" lon="2.46338">
        <ele>1696.1</ele>
        <time>2020-09-02T09:36:05.145Z</time>
      </trkpt>
      <trkpt lat="42.45919" lon="2.46338">
        <ele>1694.8</ele>
        <time>2020-09-02T09:36:06.323Z</time>
      </trkpt>
      <trkpt lat="42.45911" lon="2.46339">
        <ele>1688.6</ele>
        <time>2020-09-02T09:36:08.216Z</time>
      </trkpt>
      <trkpt lat="42.45903" lon="2.46341">
        <ele>1685.3</ele>
        <time>2020-09-02T09:36:10.133Z</time>
      </trkpt>
      <trkpt lat="42.45898" lon="2.4634">
        <ele>1683.6</ele>
        <time>2020-09-02T09:36:11.324Z</time>
      </trkpt>
      <trkpt lat="42.45893" lon="2.46339">
        <ele>1682.3</ele>
        <time>2020-09-02T09:36:12.515Z</time>
      </trkpt>
      <trkpt lat="42.45886" lon="2.46339">
        <ele>1680.5</ele>
        <time>2020-09-02T09:36:14.164Z</time>
      </trkpt>
      <trkpt lat="42.45881" lon="2.4634">
        <ele>1679.3</ele>
        <time>2020-09-02T09:36:15.355Z</time>
      </trkpt>
      <trkpt lat="42.45875" lon="2.46342">
        <ele>1677.8</ele>
        <time>2020-09-02T09:36:16.811Z</time>
      </trkpt>
      <trkpt lat="42.45871" lon="2.46343">
        <ele>1677</ele>
        <time>2020-09-02T09:36:17.770Z</time>
      </trkpt>
      <trkpt lat="42.45867" lon="2.46342">
        <ele>1676.2</ele>
        <time>2020-09-02T09:36:18.728Z</time>
      </trkpt>
      <trkpt lat="42.45865" lon="2.46339">
        <ele>1675.9</ele>
        <time>2020-09-02T09:36:19.431Z</time>
      </trkpt>
      <trkpt lat="42.45866" lon="2.46331">
        <ele>1671.6</ele>
        <time>2020-09-02T09:36:20.842Z</time>
      </trkpt>
      <trkpt lat="42.45873" lon="2.46319">
        <ele>1671.9</ele>
        <time>2020-09-02T09:36:38.400Z</time>
      </trkpt>
      <trkpt lat="42.45888" lon="2.46302">
        <ele>1672.2</ele>
        <time>2020-09-02T09:37:05.176Z</time>
      </trkpt>
      <trkpt lat="42.4591" lon="2.4628">
        <ele>1670.2</ele>
        <time>2020-09-02T09:37:11.618Z</time>
      </trkpt>
      <trkpt lat="42.4594" lon="2.46254">
        <ele>1678.6</ele>
        <time>2020-09-02T09:39:53.269Z</time>
      </trkpt>
      <trkpt lat="42.45963" lon="2.46237">
        <ele>1661.2</ele>
        <time>2020-09-02T09:39:59.442Z</time>
      </trkpt>
      <trkpt lat="42.45981" lon="2.46216">
        <ele>1659.3</ele>
        <time>2020-09-02T09:40:05.038Z</time>
      </trkpt>
      <trkpt lat="42.45997" lon="2.46202">
        <ele>1656.4</ele>
        <time>2020-09-02T09:40:09.525Z</time>
      </trkpt>
      <trkpt lat="42.46007" lon="2.46193">
        <ele>1668.1</ele>
        <time>2020-09-02T09:41:04.018Z</time>
      </trkpt>
      <trkpt lat="42.46011" lon="2.46191">
        <ele>1668.2</ele>
        <time>2020-09-02T09:41:10.409Z</time>
      </trkpt>
      <trkpt lat="42.46015" lon="2.46192">
        <ele>1669.3</ele>
        <time>2020-09-02T09:41:28.874Z</time>
      </trkpt>
      <trkpt lat="42.46022" lon="2.46193">
        <ele>1671.4</ele>
        <time>2020-09-02T09:42:00.829Z</time>
      </trkpt>
      <trkpt lat="42.46029" lon="2.46196">
        <ele>1673.8</ele>
        <time>2020-09-02T09:42:34.157Z</time>
      </trkpt>
      <trkpt lat="42.46034" lon="2.46196">
        <ele>1675.1</ele>
        <time>2020-09-02T09:42:56.856Z</time>
      </trkpt>
      <trkpt lat="42.46036" lon="2.46195">
        <ele>1675.5</ele>
        <time>2020-09-02T09:43:06.533Z</time>
      </trkpt>
      <trkpt lat="42.46038" lon="2.46193">
        <ele>1675.7</ele>
        <time>2020-09-02T09:43:12.924Z</time>
      </trkpt>
      <trkpt lat="42.46041" lon="2.4619">
        <ele>1675.9</ele>
        <time>2020-09-02T09:43:20.784Z</time>
      </trkpt>
      <trkpt lat="42.46041" lon="2.46185">
        <ele>1675.4</ele>
        <time>2020-09-02T09:43:21.653Z</time>
      </trkpt>
      <trkpt lat="42.46038" lon="2.46178">
        <ele>1673.7</ele>
        <time>2020-09-02T09:43:23.061Z</time>
      </trkpt>
      <trkpt lat="42.46035" lon="2.46172">
        <ele>1671.9</ele>
        <time>2020-09-02T09:43:24.321Z</time>
      </trkpt>
      <trkpt lat="42.46032" lon="2.46166">
        <ele>1659.9</ele>
        <time>2020-09-02T09:43:25.581Z</time>
      </trkpt>
      <trkpt lat="42.46032" lon="2.4616">
        <ele>1659.9</ele>
        <time>2020-09-02T09:43:30.790Z</time>
      </trkpt>
      <trkpt lat="42.46031" lon="2.46154">
        <ele>1659.5</ele>
        <time>2020-09-02T09:43:31.860Z</time>
      </trkpt>
      <trkpt lat="42.46029" lon="2.46151">
        <ele>1658.9</ele>
        <time>2020-09-02T09:43:32.563Z</time>
      </trkpt>
      <trkpt lat="42.46028" lon="2.46148">
        <ele>1658.5</ele>
        <time>2020-09-02T09:43:33.135Z</time>
      </trkpt>
      <trkpt lat="42.46025" lon="2.46139">
        <ele>1657.8</ele>
        <time>2020-09-02T09:43:34.852Z</time>
      </trkpt>
      <trkpt lat="42.4602" lon="2.46129">
        <ele>1656.6</ele>
        <time>2020-09-02T09:43:36.952Z</time>
      </trkpt>
      <trkpt lat="42.46015" lon="2.46116">
        <ele>1654.1</ele>
        <time>2020-09-02T09:43:39.500Z</time>
      </trkpt>
      <trkpt lat="42.46013" lon="2.46106">
        <ele>1651.2</ele>
        <time>2020-09-02T09:43:41.301Z</time>
      </trkpt>
      <trkpt lat="42.46012" lon="2.46094">
        <ele>1647</ele>
        <time>2020-09-02T09:43:43.401Z</time>
      </trkpt>
      <trkpt lat="42.46005" lon="2.46059">
        <ele>1643.9</ele>
        <time>2020-09-02T09:43:49.705Z</time>
      </trkpt>
      <trkpt lat="42.46001" lon="2.4605">
        <ele>1644.5</ele>
        <time>2020-09-02T09:44:09.148Z</time>
      </trkpt>
      <trkpt lat="42.45995" lon="2.46026">
        <ele>1620.2</ele>
        <time>2020-09-02T09:44:13.553Z</time>
      </trkpt>
      <trkpt lat="42.45993" lon="2.46013">
        <ele>1622.5</ele>
        <time>2020-09-02T09:44:58.029Z</time>
      </trkpt>
      <trkpt lat="42.45993" lon="2.46004">
        <ele>1625.4</ele>
        <time>2020-09-02T09:45:28.172Z</time>
      </trkpt>
      <trkpt lat="42.45995" lon="2.45993">
        <ele>1621.8</ele>
        <time>2020-09-02T09:45:30.141Z</time>
      </trkpt>
      <trkpt lat="42.46" lon="2.45977">
        <ele>1631.7</ele>
        <time>2020-09-02T09:46:28.338Z</time>
      </trkpt>
      <trkpt lat="42.46008" lon="2.45956">
        <ele>1629.4</ele>
        <time>2020-09-02T09:46:32.446Z</time>
      </trkpt>
      <trkpt lat="42.46014" lon="2.45944">
        <ele>1627.4</ele>
        <time>2020-09-02T09:46:34.966Z</time>
      </trkpt>
      <trkpt lat="42.46022" lon="2.45936">
        <ele>1627.1</ele>
        <time>2020-09-02T09:46:37.932Z</time>
      </trkpt>
      <trkpt lat="42.46037" lon="2.45921">
        <ele>1628.8</ele>
        <time>2020-09-02T09:47:30.479Z</time>
      </trkpt>
      <trkpt lat="42.46045" lon="2.45914">
        <ele>1613.6</ele>
        <time>2020-09-02T09:47:32.723Z</time>
      </trkpt>
      <trkpt lat="42.46054" lon="2.45908">
        <ele>1615.3</ele>
        <time>2020-09-02T09:48:18.254Z</time>
      </trkpt>
      <trkpt lat="42.4606" lon="2.45903">
        <ele>1616</ele>
        <time>2020-09-02T09:48:39.683Z</time>
      </trkpt>
      <trkpt lat="42.46069" lon="2.45893">
        <ele>1615.5</ele>
        <time>2020-09-02T09:48:42.746Z</time>
      </trkpt>
      <trkpt lat="42.46085" lon="2.45883">
        <ele>1622.3</ele>
        <time>2020-09-02T09:50:02.731Z</time>
      </trkpt>
      <trkpt lat="42.46106" lon="2.45873">
        <ele>1620.6</ele>
        <time>2020-09-02T09:50:07.975Z</time>
      </trkpt>
      <trkpt lat="42.46113" lon="2.45871">
        <ele>1620.5</ele>
        <time>2020-09-02T09:50:10.546Z</time>
      </trkpt>
      <trkpt lat="42.46122" lon="2.45867">
        <ele>1620.2</ele>
        <time>2020-09-02T09:50:13.329Z</time>
      </trkpt>
      <trkpt lat="42.46124" lon="2.45863">
        <ele>1619.6</ele>
        <time>2020-09-02T09:50:14.169Z</time>
      </trkpt>
      <trkpt lat="42.46125" lon="2.45859">
        <ele>1618.9</ele>
        <time>2020-09-02T09:50:14.903Z</time>
      </trkpt>
      <trkpt lat="42.46125" lon="2.45853">
        <ele>1617.9</ele>
        <time>2020-09-02T09:50:15.946Z</time>
      </trkpt>
      <trkpt lat="42.46123" lon="2.45841">
        <ele>1616.2</ele>
        <time>2020-09-02T09:50:18.085Z</time>
      </trkpt>
      <trkpt lat="42.46122" lon="2.45825">
        <ele>1598.6</ele>
        <time>2020-09-02T09:50:20.876Z</time>
      </trkpt>
      <trkpt lat="42.46122" lon="2.45811">
        <ele>1597.4</ele>
        <time>2020-09-02T09:50:23.309Z</time>
      </trkpt>
      <trkpt lat="42.46122" lon="2.45805">
        <ele>1596.7</ele>
        <time>2020-09-02T09:50:24.352Z</time>
      </trkpt>
      <trkpt lat="42.46112" lon="2.45799">
        <ele>1595.6</ele>
        <time>2020-09-02T09:50:26.929Z</time>
      </trkpt>
      <trkpt lat="42.46107" lon="2.45795">
        <ele>1594.8</ele>
        <time>2020-09-02T09:50:28.297Z</time>
      </trkpt>
      <trkpt lat="42.46101" lon="2.4579">
        <ele>1593.6</ele>
        <time>2020-09-02T09:50:29.957Z</time>
      </trkpt>
      <trkpt lat="42.461" lon="2.45785">
        <ele>1592.7</ele>
        <time>2020-09-02T09:50:30.857Z</time>
      </trkpt>
      <trkpt lat="42.46104" lon="2.45782">
        <ele>1592.5</ele>
        <time>2020-09-02T09:50:32.052Z</time>
      </trkpt>
      <trkpt lat="42.46106" lon="2.45779">
        <ele>1592</ele>
        <time>2020-09-02T09:50:32.755Z</time>
      </trkpt>
      <trkpt lat="42.4611" lon="2.45777">
        <ele>1592.1</ele>
        <time>2020-09-02T09:50:39.146Z</time>
      </trkpt>
      <trkpt lat="42.46116" lon="2.45772">
        <ele>1592</ele>
        <time>2020-09-02T09:50:41.670Z</time>
      </trkpt>
      <trkpt lat="42.46123" lon="2.4577">
        <ele>1592.5</ele>
        <time>2020-09-02T09:50:58.599Z</time>
      </trkpt>
      <trkpt lat="42.46131" lon="2.45768">
        <ele>1593</ele>
        <time>2020-09-02T09:51:16.700Z</time>
      </trkpt>
      <trkpt lat="42.46135" lon="2.45768">
        <ele>1593.3</ele>
        <time>2020-09-02T09:51:26.545Z</time>
      </trkpt>
      <trkpt lat="42.46142" lon="2.45769">
        <ele>1593.8</ele>
        <time>2020-09-02T09:51:43.346Z</time>
      </trkpt>
      <trkpt lat="42.46148" lon="2.45768">
        <ele>1593.9</ele>
        <time>2020-09-02T09:51:51.731Z</time>
      </trkpt>
      <trkpt lat="42.46155" lon="2.45771">
        <ele>1594.2</ele>
        <time>2020-09-02T09:52:05.541Z</time>
      </trkpt>
      <trkpt lat="42.46162" lon="2.45775">
        <ele>1594.8</ele>
        <time>2020-09-02T09:52:24.840Z</time>
      </trkpt>
      <trkpt lat="42.46165" lon="2.45776">
        <ele>1594.9</ele>
        <time>2020-09-02T09:52:30.008Z</time>
      </trkpt>
      <trkpt lat="42.46172" lon="2.45783">
        <ele>1608.8</ele>
        <time>2020-09-02T09:53:09.498Z</time>
      </trkpt>
      <trkpt lat="42.46177" lon="2.45785">
        <ele>1609.8</ele>
        <time>2020-09-02T09:53:33.164Z</time>
      </trkpt>
      <trkpt lat="42.46186" lon="2.45783">
        <ele>1610.8</ele>
        <time>2020-09-02T09:54:03.975Z</time>
      </trkpt>
      <trkpt lat="42.46187" lon="2.45779">
        <ele>1610.4</ele>
        <time>2020-09-02T09:54:04.709Z</time>
      </trkpt>
      <trkpt lat="42.46187" lon="2.45773">
        <ele>1609.5</ele>
        <time>2020-09-02T09:54:05.752Z</time>
      </trkpt>
      <trkpt lat="42.46187" lon="2.45766">
        <ele>1608.2</ele>
        <time>2020-09-02T09:54:06.969Z</time>
      </trkpt>
      <trkpt lat="42.46186" lon="2.45757">
        <ele>1605.9</ele>
        <time>2020-09-02T09:54:08.551Z</time>
      </trkpt>
      <trkpt lat="42.4618" lon="2.4574">
        <ele>1604.8</ele>
        <time>2020-09-02T09:54:11.827Z</time>
      </trkpt>
      <trkpt lat="42.46176" lon="2.45728">
        <ele>1606.9</ele>
        <time>2020-09-02T09:54:55.928Z</time>
      </trkpt>
      <trkpt lat="42.46174" lon="2.4572">
        <ele>1608.4</ele>
        <time>2020-09-02T09:55:24.217Z</time>
      </trkpt>
      <trkpt lat="42.46175" lon="2.45716">
        <ele>1609.2</ele>
        <time>2020-09-02T09:55:38.362Z</time>
      </trkpt>
      <trkpt lat="42.46176" lon="2.45711">
        <ele>1609.9</ele>
        <time>2020-09-02T09:55:55.712Z</time>
      </trkpt>
      <trkpt lat="42.46181" lon="2.45705">
        <ele>1611.1</ele>
        <time>2020-09-02T09:56:26.027Z</time>
      </trkpt>
      <trkpt lat="42.46184" lon="2.457">
        <ele>1611.6</ele>
        <time>2020-09-02T09:56:41.350Z</time>
      </trkpt>
      <trkpt lat="42.46186" lon="2.45694">
        <ele>1611.7</ele>
        <time>2020-09-02T09:56:48.395Z</time>
      </trkpt>
      <trkpt lat="42.46186" lon="2.45689">
        <ele>1611.4</ele>
        <time>2020-09-02T09:56:49.265Z</time>
      </trkpt>
      <trkpt lat="42.46186" lon="2.45684">
        <ele>1610.6</ele>
        <time>2020-09-02T09:56:50.134Z</time>
      </trkpt>
      <trkpt lat="42.46183" lon="2.45676">
        <ele>1608.4</ele>
        <time>2020-09-02T09:56:51.694Z</time>
      </trkpt>
      <trkpt lat="42.46174" lon="2.45659">
        <ele>1608.1</ele>
        <time>2020-09-02T09:56:56.884Z</time>
      </trkpt>
      <trkpt lat="42.46168" lon="2.45649">
        <ele>1613.1</ele>
        <time>2020-09-02T09:57:40.053Z</time>
      </trkpt>
      <trkpt lat="42.46167" lon="2.45643">
        <ele>1615.6</ele>
        <time>2020-09-02T09:58:00.654Z</time>
      </trkpt>
      <trkpt lat="42.46167" lon="2.45639">
        <ele>1617.2</ele>
        <time>2020-09-02T09:58:14.050Z</time>
      </trkpt>
      <trkpt lat="42.46169" lon="2.45631">
        <ele>1619.7</ele>
        <time>2020-09-02T09:58:42.340Z</time>
      </trkpt>
      <trkpt lat="42.46177" lon="2.45615">
        <ele>1622.7</ele>
        <time>2020-09-02T09:59:47.073Z</time>
      </trkpt>
      <trkpt lat="42.46178" lon="2.45608">
        <ele>1622.8</ele>
        <time>2020-09-02T09:59:54.569Z</time>
      </trkpt>
      <trkpt lat="42.46178" lon="2.45601">
        <ele>1622.1</ele>
        <time>2020-09-02T09:59:55.786Z</time>
      </trkpt>
      <trkpt lat="42.46174" lon="2.45579">
        <ele>1623</ele>
        <time>2020-09-02T10:00:31.075Z</time>
      </trkpt>
      <trkpt lat="42.46174" lon="2.45573">
        <ele>1626.1</ele>
        <time>2020-09-02T10:00:51.169Z</time>
      </trkpt>
      <trkpt lat="42.46174" lon="2.45569">
        <ele>1629.1</ele>
        <time>2020-09-02T10:01:04.566Z</time>
      </trkpt>
      <trkpt lat="42.46176" lon="2.45567">
        <ele>1631</ele>
        <time>2020-09-02T10:01:15.848Z</time>
      </trkpt>
      <trkpt lat="42.46179" lon="2.45567">
        <ele>1632</ele>
        <time>2020-09-02T10:01:29.468Z</time>
      </trkpt>
      <trkpt lat="42.4618" lon="2.45569">
        <ele>1631.8</ele>
        <time>2020-09-02T10:01:29.888Z</time>
      </trkpt>
      <trkpt lat="42.46182" lon="2.45575">
        <ele>1630.1</ele>
        <time>2020-09-02T10:01:31.032Z</time>
      </trkpt>
      <trkpt lat="42.46185" lon="2.45586">
        <ele>1622.8</ele>
        <time>2020-09-02T10:01:33.071Z</time>
      </trkpt>
      <trkpt lat="42.46188" lon="2.45598">
        <ele>1624.7</ele>
        <time>2020-09-02T10:02:15.505Z</time>
      </trkpt>
      <trkpt lat="42.46189" lon="2.45605">
        <ele>1625.5</ele>
        <time>2020-09-02T10:02:39.384Z</time>
      </trkpt>
      <trkpt lat="42.46192" lon="2.45612">
        <ele>1626.1</ele>
        <time>2020-09-02T10:02:57.746Z</time>
      </trkpt>
      <trkpt lat="42.46192" lon="2.45613">
        <ele>1626.2</ele>
        <time>2020-09-02T10:03:01.095Z</time>
      </trkpt>
      <trkpt lat="42.46203" lon="2.4563">
        <ele>1627.7</ele>
        <time>2020-09-02T10:03:47.586Z</time>
      </trkpt>
      <trkpt lat="42.46216" lon="2.45652">
        <ele>1630.5</ele>
        <time>2020-09-02T10:05:21.987Z</time>
      </trkpt>
      <trkpt lat="42.46228" lon="2.45672">
        <ele>1628.8</ele>
        <time>2020-09-02T10:05:26.468Z</time>
      </trkpt>
      <trkpt lat="42.46233" lon="2.45682">
        <ele>1629.3</ele>
        <time>2020-09-02T10:05:45.573Z</time>
      </trkpt>
      <trkpt lat="42.46237" lon="2.45686">
        <ele>1629.4</ele>
        <time>2020-09-02T10:05:52.745Z</time>
      </trkpt>
      <trkpt lat="42.46243" lon="2.45692">
        <ele>1629.1</ele>
        <time>2020-09-02T10:05:54.758Z</time>
      </trkpt>
      <trkpt lat="42.46248" lon="2.45699">
        <ele>1627.9</ele>
        <time>2020-09-02T10:05:56.452Z</time>
      </trkpt>
      <trkpt lat="42.46249" lon="2.45704">
        <ele>1627.1</ele>
        <time>2020-09-02T10:05:57.352Z</time>
      </trkpt>
      <trkpt lat="42.46248" lon="2.45708">
        <ele>1626.5</ele>
        <time>2020-09-02T10:05:58.086Z</time>
      </trkpt>
      <trkpt lat="42.46243" lon="2.45714">
        <ele>1625.4</ele>
        <time>2020-09-02T10:05:59.660Z</time>
      </trkpt>
      <trkpt lat="42.4624" lon="2.45719">
        <ele>1625</ele>
        <time>2020-09-02T10:06:00.780Z</time>
      </trkpt>
      <trkpt lat="42.4624" lon="2.45723">
        <ele>1625</ele>
        <time>2020-09-02T10:06:04.253Z</time>
      </trkpt>
      <trkpt lat="42.4624" lon="2.45727">
        <ele>1625.4</ele>
        <time>2020-09-02T10:06:17.649Z</time>
      </trkpt>
      <trkpt lat="42.4625" lon="2.45747">
        <ele>1637.9</ele>
        <time>2020-09-02T10:07:38.565Z</time>
      </trkpt>
      <trkpt lat="42.46261" lon="2.45767">
        <ele>1644.6</ele>
        <time>2020-09-02T10:09:02.112Z</time>
      </trkpt>
      <trkpt lat="42.46268" lon="2.45781">
        <ele>1647.7</ele>
        <time>2020-09-02T10:09:58.753Z</time>
      </trkpt>
      <trkpt lat="42.4627" lon="2.45789">
        <ele>1648</ele>
        <time>2020-09-02T10:10:11.423Z</time>
      </trkpt>
      <trkpt lat="42.4627" lon="2.45797">
        <ele>1647.6</ele>
        <time>2020-09-02T10:10:12.814Z</time>
      </trkpt>
      <trkpt lat="42.4627" lon="2.45802">
        <ele>1647.1</ele>
        <time>2020-09-02T10:10:13.683Z</time>
      </trkpt>
      <trkpt lat="42.46273" lon="2.45812">
        <ele>1646.5</ele>
        <time>2020-09-02T10:10:15.560Z</time>
      </trkpt>
      <trkpt lat="42.46282" lon="2.45832">
        <ele>1648.2</ele>
        <time>2020-09-02T10:11:07.627Z</time>
      </trkpt>
      <trkpt lat="42.46287" lon="2.45842">
        <ele>1650.6</ele>
        <time>2020-09-02T10:11:48.085Z</time>
      </trkpt>
      <trkpt lat="42.46291" lon="2.45845">
        <ele>1652.1</ele>
        <time>2020-09-02T10:12:08.838Z</time>
      </trkpt>
      <trkpt lat="42.46293" lon="2.45845">
        <ele>1653.1</ele>
        <time>2020-09-02T10:12:17.917Z</time>
      </trkpt>
      <trkpt lat="42.46296" lon="2.45843">
        <ele>1654.1</ele>
        <time>2020-09-02T10:12:33.094Z</time>
      </trkpt>
      <trkpt lat="42.46298" lon="2.45837">
        <ele>1654.8</ele>
        <time>2020-09-02T10:12:55.144Z</time>
      </trkpt>
      <trkpt lat="42.46298" lon="2.4583">
        <ele>1655.1</ele>
        <time>2020-09-02T10:13:06.367Z</time>
      </trkpt>
      <trkpt lat="42.46298" lon="2.45819">
        <ele>1654.8</ele>
        <time>2020-09-02T10:13:08.628Z</time>
      </trkpt>
      <trkpt lat="42.46297" lon="2.4581">
        <ele>1654.5</ele>
        <time>2020-09-02T10:13:10.367Z</time>
      </trkpt>
      <trkpt lat="42.46295" lon="2.45795">
        <ele>1653.9</ele>
        <time>2020-09-02T10:13:13.066Z</time>
      </trkpt>
      <trkpt lat="42.46289" lon="2.4577">
        <ele>1653</ele>
        <time>2020-09-02T10:13:18.012Z</time>
      </trkpt>
      <trkpt lat="42.46288" lon="2.45759">
        <ele>1652.5</ele>
        <time>2020-09-02T10:13:19.854Z</time>
      </trkpt>
      <trkpt lat="42.46288" lon="2.45756">
        <ele>1652.6</ele>
        <time>2020-09-02T10:13:24.270Z</time>
      </trkpt>
      <trkpt lat="42.4629" lon="2.45753">
        <ele>1653.5</ele>
        <time>2020-09-02T10:13:37.812Z</time>
      </trkpt>
      <trkpt lat="42.46295" lon="2.45751">
        <ele>1655.3</ele>
        <time>2020-09-02T10:14:01.478Z</time>
      </trkpt>
      <trkpt lat="42.46298" lon="2.45751">
        <ele>1656.5</ele>
        <time>2020-09-02T10:14:15.097Z</time>
      </trkpt>
      <trkpt lat="42.46301" lon="2.45751">
        <ele>1657.8</ele>
        <time>2020-09-02T10:14:28.716Z</time>
      </trkpt>
      <trkpt lat="42.46307" lon="2.45751">
        <ele>1659.9</ele>
        <time>2020-09-02T10:14:55.954Z</time>
      </trkpt>
      <trkpt lat="42.46311" lon="2.45752">
        <ele>1661.8</ele>
        <time>2020-09-02T10:15:14.420Z</time>
      </trkpt>
      <trkpt lat="42.46313" lon="2.45751">
        <ele>1662.9</ele>
        <time>2020-09-02T10:15:24.097Z</time>
      </trkpt>
      <trkpt lat="42.46317" lon="2.45748">
        <ele>1669</ele>
        <time>2020-09-02T10:15:44.850Z</time>
      </trkpt>
      <trkpt lat="42.4632" lon="2.45744">
        <ele>1669.8</ele>
        <time>2020-09-02T10:16:03.953Z</time>
      </trkpt>
      <trkpt lat="42.46321" lon="2.45736">
        <ele>1669.2</ele>
        <time>2020-09-02T10:16:05.364Z</time>
      </trkpt>
      <trkpt lat="42.4632" lon="2.45731">
        <ele>1668.5</ele>
        <time>2020-09-02T10:16:06.264Z</time>
      </trkpt>
      <trkpt lat="42.46317" lon="2.45722">
        <ele>1667.8</ele>
        <time>2020-09-02T10:16:07.981Z</time>
      </trkpt>
      <trkpt lat="42.46312" lon="2.45711">
        <ele>1667.3</ele>
        <time>2020-09-02T10:16:10.287Z</time>
      </trkpt>
      <trkpt lat="42.46302" lon="2.45693">
        <ele>1667.3</ele>
        <time>2020-09-02T10:16:29.852Z</time>
      </trkpt>
      <trkpt lat="42.46299" lon="2.45683">
        <ele>1667.5</ele>
        <time>2020-09-02T10:16:42.025Z</time>
      </trkpt>
      <trkpt lat="42.46299" lon="2.45676">
        <ele>1667.9</ele>
        <time>2020-09-02T10:16:54.984Z</time>
      </trkpt>
      <trkpt lat="42.46299" lon="2.4567">
        <ele>1668.4</ele>
        <time>2020-09-02T10:17:10.490Z</time>
      </trkpt>
      <trkpt lat="42.463" lon="2.45665">
        <ele>1677.3</ele>
        <time>2020-09-02T10:17:27.840Z</time>
      </trkpt>
      <trkpt lat="42.463" lon="2.4566">
        <ele>1677.4</ele>
        <time>2020-09-02T10:17:33.615Z</time>
      </trkpt>
      <trkpt lat="42.46298" lon="2.45652">
        <ele>1677</ele>
        <time>2020-09-02T10:17:34.986Z</time>
      </trkpt>
      <trkpt lat="42.46293" lon="2.45633">
        <ele>1676.3</ele>
        <time>2020-09-02T10:17:38.760Z</time>
      </trkpt>
      <trkpt lat="42.46292" lon="2.45626">
        <ele>1676.4</ele>
        <time>2020-09-02T10:17:46.256Z</time>
      </trkpt>
      <trkpt lat="42.46291" lon="2.4562">
        <ele>1676.6</ele>
        <time>2020-09-02T10:17:55.213Z</time>
      </trkpt>
      <trkpt lat="42.4629" lon="2.45612">
        <ele>1677</ele>
        <time>2020-09-02T10:18:09.058Z</time>
      </trkpt>
      <trkpt lat="42.4629" lon="2.45603">
        <ele>1677.7</ele>
        <time>2020-09-02T10:18:30.515Z</time>
      </trkpt>
      <trkpt lat="42.46293" lon="2.4559">
        <ele>1679.1</ele>
        <time>2020-09-02T10:19:16.132Z</time>
      </trkpt>
      <trkpt lat="42.46294" lon="2.45584">
        <ele>1679.8</ele>
        <time>2020-09-02T10:19:36.733Z</time>
      </trkpt>
      <trkpt lat="42.46294" lon="2.45578">
        <ele>1688.9</ele>
        <time>2020-09-02T10:19:56.827Z</time>
      </trkpt>
      <trkpt lat="42.46292" lon="2.45568">
        <ele>1688.9</ele>
        <time>2020-09-02T10:20:05.823Z</time>
      </trkpt>
      <trkpt lat="42.46291" lon="2.45551">
        <ele>1689.8</ele>
        <time>2020-09-02T10:20:35.969Z</time>
      </trkpt>
      <trkpt lat="42.46288" lon="2.45526">
        <ele>1691.3</ele>
        <time>2020-09-02T10:21:23.939Z</time>
      </trkpt>
      <trkpt lat="42.46288" lon="2.45515">
        <ele>1691.9</ele>
        <time>2020-09-02T10:21:43.746Z</time>
      </trkpt>
      <trkpt lat="42.46289" lon="2.45503">
        <ele>1693</ele>
        <time>2020-09-02T10:22:19.100Z</time>
      </trkpt>
      <trkpt lat="42.46291" lon="2.45494">
        <ele>1703.2</ele>
        <time>2020-09-02T10:22:50.579Z</time>
      </trkpt>
      <trkpt lat="42.46292" lon="2.45489">
        <ele>1703.6</ele>
        <time>2020-09-02T10:23:02.833Z</time>
      </trkpt>
      <trkpt lat="42.46291" lon="2.45485">
        <ele>1703.5</ele>
        <time>2020-09-02T10:23:03.744Z</time>
      </trkpt>
      <trkpt lat="42.46288" lon="2.45478">
        <ele>1703</ele>
        <time>2020-09-02T10:23:05.152Z</time>
      </trkpt>
      <trkpt lat="42.46286" lon="2.45468">
        <ele>1703.2</ele>
        <time>2020-09-02T10:23:16.983Z</time>
      </trkpt>
      <trkpt lat="42.46283" lon="2.45442">
        <ele>1704.4</ele>
        <time>2020-09-02T10:24:00.288Z</time>
      </trkpt>
      <trkpt lat="42.46282" lon="2.45426">
        <ele>1704.5</ele>
        <time>2020-09-02T10:24:15.399Z</time>
      </trkpt>
      <trkpt lat="42.4628" lon="2.45413">
        <ele>1712.5</ele>
        <time>2020-09-02T10:24:59.873Z</time>
      </trkpt>
      <trkpt lat="42.46279" lon="2.45395">
        <ele>1714.2</ele>
        <time>2020-09-02T10:25:55.671Z</time>
      </trkpt>
      <trkpt lat="42.46279" lon="2.45386">
        <ele>1715.5</ele>
        <time>2020-09-02T10:26:25.812Z</time>
      </trkpt>
      <trkpt lat="42.46279" lon="2.4537">
        <ele>1717.2</ele>
        <time>2020-09-02T10:27:19.396Z</time>
      </trkpt>
      <trkpt lat="42.4628" lon="2.45363">
        <ele>1717.8</ele>
        <time>2020-09-02T10:27:38.053Z</time>
      </trkpt>
      <trkpt lat="42.46284" lon="2.45348">
        <ele>1719.5</ele>
        <time>2020-09-02T10:28:31.470Z</time>
      </trkpt>
      <trkpt lat="42.4629" lon="2.45332">
        <ele>1731</ele>
        <time>2020-09-02T10:29:31.580Z</time>
      </trkpt>
      <trkpt lat="42.46291" lon="2.45325">
        <ele>1731.8</ele>
        <time>2020-09-02T10:29:55.459Z</time>
      </trkpt>
      <trkpt lat="42.4629" lon="2.45321">
        <ele>1731.7</ele>
        <time>2020-09-02T10:29:56.370Z</time>
      </trkpt>
      <trkpt lat="42.46288" lon="2.45316">
        <ele>1731.2</ele>
        <time>2020-09-02T10:29:57.359Z</time>
      </trkpt>
      <trkpt lat="42.46281" lon="2.45307">
        <ele>1729.9</ele>
        <time>2020-09-02T10:29:59.632Z</time>
      </trkpt>
      <trkpt lat="42.46273" lon="2.45295">
        <ele>1729.5</ele>
        <time>2020-09-02T10:30:03.072Z</time>
      </trkpt>
      <trkpt lat="42.4627" lon="2.45288">
        <ele>1729.5</ele>
        <time>2020-09-02T10:30:10.101Z</time>
      </trkpt>
      <trkpt lat="42.46268" lon="2.45282">
        <ele>1729.4</ele>
        <time>2020-09-02T10:30:11.712Z</time>
      </trkpt>
      <trkpt lat="42.46266" lon="2.45274">
        <ele>1729</ele>
        <time>2020-09-02T10:30:13.083Z</time>
      </trkpt>
      <trkpt lat="42.46264" lon="2.45264">
        <ele>1727.7</ele>
        <time>2020-09-02T10:30:14.884Z</time>
      </trkpt>
      <trkpt lat="42.46262" lon="2.45256">
        <ele>1726.3</ele>
        <time>2020-09-02T10:30:16.352Z</time>
      </trkpt>
      <trkpt lat="42.46258" lon="2.45246">
        <ele>1730.2</ele>
        <time>2020-09-02T10:30:54.449Z</time>
      </trkpt>
      <trkpt lat="42.46253" lon="2.45234">
        <ele>1735.2</ele>
        <time>2020-09-02T10:31:40.604Z</time>
      </trkpt>
      <trkpt lat="42.4625" lon="2.45227">
        <ele>1721.3</ele>
        <time>2020-09-02T10:31:42.012Z</time>
      </trkpt>
      <trkpt lat="42.46247" lon="2.45216">
        <ele>1722.6</ele>
        <time>2020-09-02T10:32:21.288Z</time>
      </trkpt>
      <trkpt lat="42.46247" lon="2.45207">
        <ele>1724.1</ele>
        <time>2020-09-02T10:32:51.429Z</time>
      </trkpt>
      <trkpt lat="42.46245" lon="2.45198">
        <ele>1726.1</ele>
        <time>2020-09-02T10:33:22.909Z</time>
      </trkpt>
      <trkpt lat="42.4624" lon="2.45166">
        <ele>1740.6</ele>
        <time>2020-09-02T10:35:12.456Z</time>
      </trkpt>
      <trkpt lat="42.46238" lon="2.45159">
        <ele>1740.6</ele>
        <time>2020-09-02T10:35:18.973Z</time>
      </trkpt>
      <trkpt lat="42.46235" lon="2.45154">
        <ele>1740.6</ele>
        <time>2020-09-02T10:35:24.569Z</time>
      </trkpt>
      <trkpt lat="42.46231" lon="2.45149">
        <ele>1740.5</ele>
        <time>2020-09-02T10:35:26.422Z</time>
      </trkpt>
      <trkpt lat="42.46225" lon="2.45145">
        <ele>1740.4</ele>
        <time>2020-09-02T10:35:28.796Z</time>
      </trkpt>
      <trkpt lat="42.46219" lon="2.4514">
        <ele>1740.1</ele>
        <time>2020-09-02T10:35:30.655Z</time>
      </trkpt>
      <trkpt lat="42.46213" lon="2.45133">
        <ele>1740.1</ele>
        <time>2020-09-02T10:35:39.973Z</time>
      </trkpt>
      <trkpt lat="42.46204" lon="2.45124">
        <ele>1740.2</ele>
        <time>2020-09-02T10:35:54.310Z</time>
      </trkpt>
      <trkpt lat="42.46201" lon="2.4512">
        <ele>1740.2</ele>
        <time>2020-09-02T10:35:59.263Z</time>
      </trkpt>
      <trkpt lat="42.46199" lon="2.45118">
        <ele>1740.2</ele>
        <time>2020-09-02T10:36:02.188Z</time>
        <extensions>
          <visugpx:TrkExtension xmlns:visugpx="https://www.visugpx.com/editgpx/">
            <visugpx:node>5</visugpx:node>
            </visugpx:TrkExtension>
        </extensions>
      </trkpt>
      <trkpt lat="42.46195" lon="2.45115">
        <ele>1740.1</ele>
        <time>2020-09-02T10:36:03.682Z</time>
      </trkpt>
      <trkpt lat="42.46186" lon="2.45107">
        <ele>1740</ele>
        <time>2020-09-02T10:36:07.793Z</time>
      </trkpt>
      <trkpt lat="42.46181" lon="2.45104">
        <ele>1739.9</ele>
        <time>2020-09-02T10:36:09.657Z</time>
      </trkpt>
      <trkpt lat="42.46172" lon="2.45102">
        <ele>1739.7</ele>
        <time>2020-09-02T10:36:12.635Z</time>
      </trkpt>
      <trkpt lat="42.46165" lon="2.45099">
        <ele>1732.4</ele>
        <time>2020-09-02T10:36:14.365Z</time>
      </trkpt>
      <trkpt lat="42.46159" lon="2.45096">
        <ele>1732.7</ele>
        <time>2020-09-02T10:36:27.265Z</time>
      </trkpt>
      <trkpt lat="42.46153" lon="2.45091">
        <ele>1732.5</ele>
        <time>2020-09-02T10:36:29.407Z</time>
      </trkpt>
      <trkpt lat="42.46145" lon="2.45085">
        <ele>1731.1</ele>
        <time>2020-09-02T10:36:31.561Z</time>
      </trkpt>
      <trkpt lat="42.46139" lon="2.45078">
        <ele>1738.9</ele>
        <time>2020-09-02T10:37:07.499Z</time>
      </trkpt>
      <trkpt lat="42.46137" lon="2.45073">
        <ele>1738.9</ele>
        <time>2020-09-02T10:37:12.438Z</time>
      </trkpt>
      <trkpt lat="42.46135" lon="2.45066">
        <ele>1739</ele>
        <time>2020-09-02T10:37:20.247Z</time>
      </trkpt>
      <trkpt lat="42.46132" lon="2.45057">
        <ele>1739.2</ele>
        <time>2020-09-02T10:37:31.703Z</time>
      </trkpt>
      <trkpt lat="42.46129" lon="2.45047">
        <ele>1739.5</ele>
        <time>2020-09-02T10:37:46.014Z</time>
      </trkpt>
      <trkpt lat="42.46125" lon="2.45036">
        <ele>1739.9</ele>
        <time>2020-09-02T10:38:03.910Z</time>
      </trkpt>
      <trkpt lat="42.46122" lon="2.45022">
        <ele>1740.3</ele>
        <time>2020-09-02T10:38:23.109Z</time>
      </trkpt>
      <trkpt lat="42.46118" lon="2.45005">
        <ele>1740.4</ele>
        <time>2020-09-02T10:38:39.761Z</time>
      </trkpt>
      <trkpt lat="42.46116" lon="2.45">
        <ele>1745.5</ele>
        <time>2020-09-02T10:38:58.810Z</time>
      </trkpt>
      <trkpt lat="42.46114" lon="2.44996">
        <ele>1745.2</ele>
        <time>2020-09-02T10:38:59.650Z</time>
      </trkpt>
      <trkpt lat="42.46108" lon="2.44993">
        <ele>1744.4</ele>
        <time>2020-09-02T10:39:01.157Z</time>
      </trkpt>
      <trkpt lat="42.46105" lon="2.44993">
        <ele>1743.9</ele>
        <time>2020-09-02T10:39:01.864Z</time>
      </trkpt>
      <trkpt lat="42.46101" lon="2.44994">
        <ele>1743</ele>
        <time>2020-09-02T10:39:02.822Z</time>
      </trkpt>
      <trkpt lat="42.46096" lon="2.44998">
        <ele>1741.6</ele>
        <time>2020-09-02T10:39:04.190Z</time>
      </trkpt>
      <trkpt lat="42.46087" lon="2.45005">
        <ele>1737.6</ele>
        <time>2020-09-02T10:39:06.635Z</time>
      </trkpt>
      <trkpt lat="42.46083" lon="2.45006">
        <ele>1734.1</ele>
        <time>2020-09-02T10:39:07.593Z</time>
      </trkpt>
      <trkpt lat="42.4608" lon="2.45006">
        <ele>1733.8</ele>
        <time>2020-09-02T10:39:08.300Z</time>
      </trkpt>
      <trkpt lat="42.46075" lon="2.45003">
        <ele>1733.2</ele>
        <time>2020-09-02T10:39:09.589Z</time>
      </trkpt>
      <trkpt lat="42.4607" lon="2.44996">
        <ele>1735.7</ele>
        <time>2020-09-02T10:39:42.221Z</time>
      </trkpt>
      <trkpt lat="42.46056" lon="2.44982">
        <ele>1734.6</ele>
        <time>2020-09-02T10:39:46.077Z</time>
      </trkpt>
      <trkpt lat="42.46054" lon="2.44979">
        <ele>1734.5</ele>
        <time>2020-09-02T10:39:46.937Z</time>
      </trkpt>
      <trkpt lat="42.46053" lon="2.44974">
        <ele>1734.6</ele>
        <time>2020-09-02T10:39:52.853Z</time>
      </trkpt>
      <trkpt lat="42.46051" lon="2.44969">
        <ele>1734.7</ele>
        <time>2020-09-02T10:39:59.170Z</time>
      </trkpt>
      <trkpt lat="42.46046" lon="2.44958">
        <ele>1735.1</ele>
        <time>2020-09-02T10:40:17.394Z</time>
      </trkpt>
      <trkpt lat="42.46044" lon="2.44952">
        <ele>1735.3</ele>
        <time>2020-09-02T10:40:26.573Z</time>
      </trkpt>
      <trkpt lat="42.46043" lon="2.44948">
        <ele>1735.6</ele>
        <time>2020-09-02T10:40:35.776Z</time>
      </trkpt>
      <trkpt lat="42.46043" lon="2.4494">
        <ele>1736.2</ele>
        <time>2020-09-02T10:40:54.137Z</time>
      </trkpt>
      <trkpt lat="42.46045" lon="2.44923">
        <ele>1737.2</ele>
        <time>2020-09-02T10:41:26.337Z</time>
      </trkpt>
      <trkpt lat="42.46045" lon="2.44917">
        <ele>1737.4</ele>
        <time>2020-09-02T10:41:35.168Z</time>
      </trkpt>
      <trkpt lat="42.46044" lon="2.44912">
        <ele>1744.9</ele>
        <time>2020-09-02T10:41:52.518Z</time>
      </trkpt>
      <trkpt lat="42.46042" lon="2.449">
        <ele>1745.2</ele>
        <time>2020-09-02T10:42:07.839Z</time>
      </trkpt>
      <trkpt lat="42.46035" lon="2.4488">
        <ele>1746</ele>
        <time>2020-09-02T10:42:41.227Z</time>
      </trkpt>
      <trkpt lat="42.46033" lon="2.44872">
        <ele>1746.5</ele>
        <time>2020-09-02T10:42:57.220Z</time>
      </trkpt>
      <trkpt lat="42.46033" lon="2.44868">
        <ele>1746.7</ele>
        <time>2020-09-02T10:43:04.093Z</time>
      </trkpt>
      <trkpt lat="42.46033" lon="2.44864">
        <ele>1747</ele>
        <time>2020-09-02T10:43:13.274Z</time>
      </trkpt>
      <trkpt lat="42.46035" lon="2.44861">
        <ele>1747.3</ele>
        <time>2020-09-02T10:43:22.455Z</time>
      </trkpt>
      <trkpt lat="42.46037" lon="2.44858">
        <ele>1747.5</ele>
        <time>2020-09-02T10:43:29.366Z</time>
      </trkpt>
      <trkpt lat="42.46043" lon="2.44854">
        <ele>1748.2</ele>
        <time>2020-09-02T10:43:50.811Z</time>
      </trkpt>
      <trkpt lat="42.46051" lon="2.44849">
        <ele>1749.2</ele>
        <time>2020-09-02T10:44:21.864Z</time>
      </trkpt>
      <trkpt lat="42.46055" lon="2.44846">
        <ele>1750</ele>
        <time>2020-09-02T10:44:42.617Z</time>
      </trkpt>
      <trkpt lat="42.46058" lon="2.44842">
        <ele>1750.6</ele>
        <time>2020-09-02T10:45:01.720Z</time>
      </trkpt>
      <trkpt lat="42.46058" lon="2.44838">
        <ele>1750.8</ele>
        <time>2020-09-02T10:45:08.594Z</time>
      </trkpt>
      <trkpt lat="42.46058" lon="2.44833">
        <ele>1756.2</ele>
        <time>2020-09-02T10:45:25.340Z</time>
      </trkpt>
      <trkpt lat="42.46057" lon="2.44823">
        <ele>1756.3</ele>
        <time>2020-09-02T10:45:35.331Z</time>
      </trkpt>
      <trkpt lat="42.46057" lon="2.44815">
        <ele>1756.4</ele>
        <time>2020-09-02T10:45:43.554Z</time>
      </trkpt>
      <trkpt lat="42.46058" lon="2.44811">
        <ele>1756.6</ele>
        <time>2020-09-02T10:45:50.624Z</time>
      </trkpt>
      <trkpt lat="42.4606" lon="2.44805">
        <ele>1757</ele>
        <time>2020-09-02T10:46:03.309Z</time>
      </trkpt>
      <trkpt lat="42.46065" lon="2.44796">
        <ele>1757.6</ele>
        <time>2020-09-02T10:46:23.324Z</time>
      </trkpt>
      <trkpt lat="42.46067" lon="2.44787">
        <ele>1758.3</ele>
        <time>2020-09-02T10:46:44.745Z</time>
      </trkpt>
      <trkpt lat="42.46064" lon="2.44785">
        <ele>1758.3</ele>
        <time>2020-09-02T10:46:48.680Z</time>
      </trkpt>
      <trkpt lat="42.46058" lon="2.44781">
        <ele>1758.1</ele>
        <time>2020-09-02T10:46:50.681Z</time>
      </trkpt>
      <trkpt lat="42.46045" lon="2.44772">
        <ele>1757.4</ele>
        <time>2020-09-02T10:46:54.353Z</time>
      </trkpt>
      <trkpt lat="42.46036" lon="2.44767">
        <ele>1756.6</ele>
        <time>2020-09-02T10:46:56.645Z</time>
      </trkpt>
      <trkpt lat="42.46033" lon="2.44764">
        <ele>1756.5</ele>
        <time>2020-09-02T10:46:57.797Z</time>
      </trkpt>
      <trkpt lat="42.46031" lon="2.4476">
        <ele>1756.4</ele>
        <time>2020-09-02T10:46:58.885Z</time>
      </trkpt>
      <trkpt lat="42.46029" lon="2.44751">
        <ele>1756.2</ele>
        <time>2020-09-02T10:47:00.984Z</time>
      </trkpt>
      <trkpt lat="42.46027" lon="2.4474">
        <ele>1761.6</ele>
        <time>2020-09-02T10:47:38.927Z</time>
      </trkpt>
      <trkpt lat="42.46026" lon="2.44734">
        <ele>1761.8</ele>
        <time>2020-09-02T10:47:47.884Z</time>
      </trkpt>
      <trkpt lat="42.46022" lon="2.4472">
        <ele>1762.7</ele>
        <time>2020-09-02T10:48:16.549Z</time>
      </trkpt>
      <trkpt lat="42.46019" lon="2.44709">
        <ele>1763.5</ele>
        <time>2020-09-02T10:48:41.218Z</time>
      </trkpt>
      <trkpt lat="42.46017" lon="2.44704">
        <ele>1763.8</ele>
        <time>2020-09-02T10:48:51.269Z</time>
      </trkpt>
      <trkpt lat="42.46014" lon="2.447">
        <ele>1763.9</ele>
        <time>2020-09-02T10:48:57.600Z</time>
      </trkpt>
      <trkpt lat="42.46009" lon="2.44695">
        <ele>1764</ele>
        <time>2020-09-02T10:49:06.178Z</time>
      </trkpt>
      <trkpt lat="42.46005" lon="2.44689">
        <ele>1764.1</ele>
        <time>2020-09-02T10:49:14.473Z</time>
      </trkpt>
      <trkpt lat="42.45999" lon="2.44676">
        <ele>1763.5</ele>
        <time>2020-09-02T10:49:17.197Z</time>
      </trkpt>
      <trkpt lat="42.45996" lon="2.44668">
        <ele>1763.8</ele>
        <time>2020-09-02T10:49:30.416Z</time>
      </trkpt>
      <trkpt lat="42.45994" lon="2.44656">
        <ele>1769.4</ele>
        <time>2020-09-02T10:50:11.619Z</time>
      </trkpt>
      <trkpt lat="42.45992" lon="2.44636">
        <ele>1773.9</ele>
        <time>2020-09-02T10:51:19.215Z</time>
      </trkpt>
      <trkpt lat="42.4599" lon="2.44632">
        <ele>1774.5</ele>
        <time>2020-09-02T10:51:35.399Z</time>
      </trkpt>
      <trkpt lat="42.45988" lon="2.4463">
        <ele>1775</ele>
        <time>2020-09-02T10:51:46.682Z</time>
      </trkpt>
      <trkpt lat="42.45982" lon="2.44629">
        <ele>1775.4</ele>
        <time>2020-09-02T10:52:00.597Z</time>
      </trkpt>
      <trkpt lat="42.45978" lon="2.44628">
        <ele>1775.9</ele>
        <time>2020-09-02T10:52:16.627Z</time>
      </trkpt>
      <trkpt lat="42.45971" lon="2.44628">
        <ele>1776.4</ele>
        <time>2020-09-02T10:52:33.386Z</time>
      </trkpt>
      <trkpt lat="42.45968" lon="2.44631">
        <ele>1776.4</ele>
        <time>2020-09-02T10:52:37.774Z</time>
      </trkpt>
      <trkpt lat="42.45965" lon="2.44636">
        <ele>1776.2</ele>
        <time>2020-09-02T10:52:39.036Z</time>
      </trkpt>
      <trkpt lat="42.45962" lon="2.44646">
        <ele>1775.7</ele>
        <time>2020-09-02T10:52:40.807Z</time>
      </trkpt>
      <trkpt lat="42.45957" lon="2.44658">
        <ele>1775.3</ele>
        <time>2020-09-02T10:52:43.575Z</time>
      </trkpt>
      <trkpt lat="42.45952" lon="2.4467">
        <ele>1765.8</ele>
        <time>2020-09-02T10:52:45.971Z</time>
      </trkpt>
      <trkpt lat="42.45947" lon="2.44678">
        <ele>1765.9</ele>
        <time>2020-09-02T10:52:56.298Z</time>
      </trkpt>
      <trkpt lat="42.45943" lon="2.44682">
        <ele>1766.1</ele>
        <time>2020-09-02T10:53:05.563Z</time>
      </trkpt>
      <trkpt lat="42.45936" lon="2.44688">
        <ele>1766.2</ele>
        <time>2020-09-02T10:53:16.523Z</time>
      </trkpt>
      <trkpt lat="42.4593" lon="2.44693">
        <ele>1766</ele>
        <time>2020-09-02T10:53:18.664Z</time>
      </trkpt>
      <trkpt lat="42.45922" lon="2.44701">
        <ele>1765.1</ele>
        <time>2020-09-02T10:53:21.007Z</time>
      </trkpt>
      <trkpt lat="42.45911" lon="2.44715">
        <ele>1772.7</ele>
        <time>2020-09-02T10:54:29.507Z</time>
      </trkpt>
      <trkpt lat="42.45903" lon="2.44724">
        <ele>1771.8</ele>
        <time>2020-09-02T10:54:31.957Z</time>
      </trkpt>
      <trkpt lat="42.45895" lon="2.4473">
        <ele>1771.8</ele>
        <time>2020-09-02T10:54:42.718Z</time>
      </trkpt>
      <trkpt lat="42.4588" lon="2.44743">
        <ele>1773.8</ele>
        <time>2020-09-02T10:55:44.655Z</time>
      </trkpt>
      <trkpt lat="42.45871" lon="2.44752">
        <ele>1765.2</ele>
        <time>2020-09-02T10:55:47.290Z</time>
      </trkpt>
      <trkpt lat="42.45864" lon="2.44761">
        <ele>1766.1</ele>
        <time>2020-09-02T10:56:15.006Z</time>
      </trkpt>
      <trkpt lat="42.45856" lon="2.44774">
        <ele>1766</ele>
        <time>2020-09-02T10:56:19.860Z</time>
      </trkpt>
      <trkpt lat="42.45852" lon="2.44782">
        <ele>1765.2</ele>
        <time>2020-09-02T10:56:21.540Z</time>
      </trkpt>
      <trkpt lat="42.45849" lon="2.44788">
        <ele>1764.7</ele>
        <time>2020-09-02T10:56:22.800Z</time>
      </trkpt>
      <trkpt lat="42.45844" lon="2.44794">
        <ele>1764</ele>
        <time>2020-09-02T10:56:24.374Z</time>
      </trkpt>
      <trkpt lat="42.45839" lon="2.44802">
        <ele>1763.2</ele>
        <time>2020-09-02T10:56:26.196Z</time>
      </trkpt>
      <trkpt lat="42.45835" lon="2.4481">
        <ele>1762.4</ele>
        <time>2020-09-02T10:56:27.876Z</time>
      </trkpt>
      <trkpt lat="42.45832" lon="2.44818">
        <ele>1770</ele>
        <time>2020-09-02T10:56:57.933Z</time>
      </trkpt>
      <trkpt lat="42.45831" lon="2.44829">
        <ele>1764.5</ele>
        <time>2020-09-02T10:56:59.860Z</time>
      </trkpt>
      <trkpt lat="42.45829" lon="2.44841">
        <ele>1762.1</ele>
        <time>2020-09-02T10:57:01.999Z</time>
      </trkpt>
      <trkpt lat="42.45826" lon="2.44849">
        <ele>1762.8</ele>
        <time>2020-09-02T10:57:23.461Z</time>
      </trkpt>
      <trkpt lat="42.45812" lon="2.4488">
        <ele>1762.5</ele>
        <time>2020-09-02T10:57:33.450Z</time>
      </trkpt>
      <trkpt lat="42.45801" lon="2.44902">
        <ele>1761.7</ele>
        <time>2020-09-02T10:57:38.714Z</time>
      </trkpt>
      <trkpt lat="42.45794" lon="2.44912">
        <ele>1761.8</ele>
        <time>2020-09-02T10:57:51.869Z</time>
      </trkpt>
      <trkpt lat="42.45788" lon="2.44919">
        <ele>1758.5</ele>
        <time>2020-09-02T10:57:53.734Z</time>
      </trkpt>
      <trkpt lat="42.45785" lon="2.44927">
        <ele>1758.7</ele>
        <time>2020-09-02T10:58:04.508Z</time>
      </trkpt>
      <trkpt lat="42.45781" lon="2.44938">
        <ele>1758.9</ele>
        <time>2020-09-02T10:58:17.860Z</time>
      </trkpt>
      <trkpt lat="42.4578" lon="2.44939">
        <ele>1758.9</ele>
        <time>2020-09-02T10:58:19.323Z</time>
        <extensions>
          <visugpx:TrkExtension xmlns:visugpx="https://www.visugpx.com/editgpx/">
            <visugpx:node>7</visugpx:node>
            </visugpx:TrkExtension>
        </extensions>
      </trkpt>
      <trkpt lat="42.45705" lon="2.448">
        <ele>1787.3</ele>
        <time>2020-09-02T11:07:56.096Z</time>
        <extensions>
          <visugpx:TrkExtension xmlns:visugpx="https://www.visugpx.com/editgpx/">
            <visugpx:node>8</visugpx:node>
            </visugpx:TrkExtension>
        </extensions>
      </trkpt>
      <trkpt lat="42.45705" lon="2.44801">
        <ele>1787.3</ele>
        <time>2020-09-02T11:07:56.965Z</time>
      </trkpt>
      <trkpt lat="42.45697" lon="2.44785">
        <ele>1789.7</ele>
        <time>2020-09-02T11:09:01.701Z</time>
      </trkpt>
      <trkpt lat="42.45682" lon="2.44748">
        <ele>1806.9</ele>
        <time>2020-09-02T11:11:23.103Z</time>
      </trkpt>
      <trkpt lat="42.45673" lon="2.44724">
        <ele>1810.5</ele>
        <time>2020-09-02T11:12:53.275Z</time>
      </trkpt>
      <trkpt lat="42.45664" lon="2.44705">
        <ele>1809.3</ele>
        <time>2020-09-02T11:12:57.201Z</time>
      </trkpt>
      <trkpt lat="42.45658" lon="2.44687">
        <ele>1814.4</ele>
        <time>2020-09-02T11:14:03.357Z</time>
      </trkpt>
      <trkpt lat="42.45646" lon="2.4466">
        <ele>1822.9</ele>
        <time>2020-09-02T11:15:48.930Z</time>
      </trkpt>
      <trkpt lat="42.45641" lon="2.44651">
        <ele>1821.9</ele>
        <time>2020-09-02T11:15:50.889Z</time>
      </trkpt>
      <trkpt lat="42.45639" lon="2.44642">
        <ele>1821.5</ele>
        <time>2020-09-02T11:15:52.495Z</time>
      </trkpt>
      <trkpt lat="42.45637" lon="2.44639">
        <ele>1821.2</ele>
        <time>2020-09-02T11:15:53.198Z</time>
      </trkpt>
      <trkpt lat="42.45636" lon="2.44635">
        <ele>1821</ele>
        <time>2020-09-02T11:15:53.884Z</time>
      </trkpt>
      <trkpt lat="42.45637" lon="2.44633">
        <ele>1821.3</ele>
        <time>2020-09-02T11:16:01.976Z</time>
      </trkpt>
      <trkpt lat="42.45641" lon="2.44627">
        <ele>1821.9</ele>
        <time>2020-09-02T11:16:20.338Z</time>
      </trkpt>
      <trkpt lat="42.45641" lon="2.44621">
        <ele>1822.2</ele>
        <time>2020-09-02T11:16:30.649Z</time>
      </trkpt>
      <trkpt lat="42.45644" lon="2.44618">
        <ele>1822.8</ele>
        <time>2020-09-02T11:16:47.573Z</time>
      </trkpt>
      <trkpt lat="42.45652" lon="2.44612">
        <ele>1824.8</ele>
        <time>2020-09-02T11:17:29.081Z</time>
      </trkpt>
      <trkpt lat="42.45659" lon="2.44608">
        <ele>1826.4</ele>
        <time>2020-09-02T11:18:03.567Z</time>
      </trkpt>
      <trkpt lat="42.45662" lon="2.44607">
        <ele>1827</ele>
        <time>2020-09-02T11:18:17.592Z</time>
      </trkpt>
      <trkpt lat="42.45666" lon="2.44608">
        <ele>1827</ele>
        <time>2020-09-02T11:18:22.380Z</time>
      </trkpt>
      <trkpt lat="42.45671" lon="2.44608">
        <ele>1835.6</ele>
        <time>2020-09-02T11:18:45.078Z</time>
      </trkpt>
      <trkpt lat="42.45677" lon="2.44604">
        <ele>1836</ele>
        <time>2020-09-02T11:18:59.785Z</time>
      </trkpt>
      <trkpt lat="42.45683" lon="2.44599">
        <ele>1836.3</ele>
        <time>2020-09-02T11:19:13.378Z</time>
        <extensions>
          <visugpx:TrkExtension xmlns:visugpx="https://www.visugpx.com/editgpx/">
            <visugpx:node>9</visugpx:node>
            </visugpx:TrkExtension>
        </extensions>
      </trkpt>
      <trkpt lat="42.45687" lon="2.44595">
        <ele>1836.5</ele>
        <time>2020-09-02T11:19:22.644Z</time>
      </trkpt>
      <trkpt lat="42.45697" lon="2.44582">
        <ele>1842.4</ele>
        <time>2020-09-02T11:20:25.546Z</time>
      </trkpt>
      <trkpt lat="42.45706" lon="2.4457">
        <ele>1843.6</ele>
        <time>2020-09-02T11:21:02.409Z</time>
      </trkpt>
      <trkpt lat="42.45714" lon="2.44559">
        <ele>1844.5</ele>
        <time>2020-09-02T11:21:31.358Z</time>
      </trkpt>
      <trkpt lat="42.45718" lon="2.44554">
        <ele>1845</ele>
        <time>2020-09-02T11:21:46.792Z</time>
      </trkpt>
      <trkpt lat="42.45721" lon="2.44547">
        <ele>1845.5</ele>
        <time>2020-09-02T11:22:02.569Z</time>
      </trkpt>
      <trkpt lat="42.45729" lon="2.44527">
        <ele>1847.7</ele>
        <time>2020-09-02T11:23:16.251Z</time>
      </trkpt>
      <trkpt lat="42.45735" lon="2.4451">
        <ele>1851.6</ele>
        <time>2020-09-02T11:24:19.369Z</time>
      </trkpt>
      <trkpt lat="42.45739" lon="2.445">
        <ele>1852.7</ele>
        <time>2020-09-02T11:24:56.211Z</time>
      </trkpt>
      <trkpt lat="42.45742" lon="2.4449">
        <ele>1851.6</ele>
        <time>2020-09-02T11:24:58.087Z</time>
      </trkpt>
      <trkpt lat="42.45747" lon="2.44474">
        <ele>1847.2</ele>
        <time>2020-09-02T11:25:01.108Z</time>
      </trkpt>
      <trkpt lat="42.45749" lon="2.4447">
        <ele>1846.4</ele>
        <time>2020-09-02T11:25:01.948Z</time>
      </trkpt>
      <trkpt lat="42.45753" lon="2.44464">
        <ele>1859.9</ele>
        <time>2020-09-02T11:25:29.033Z</time>
      </trkpt>
      <trkpt lat="42.45757" lon="2.44459">
        <ele>1859.8</ele>
        <time>2020-09-02T11:25:30.885Z</time>
      </trkpt>
      <trkpt lat="42.45764" lon="2.44454">
        <ele>1859.8</ele>
        <time>2020-09-02T11:25:40.198Z</time>
      </trkpt>
      <trkpt lat="42.4577" lon="2.4445">
        <ele>1860</ele>
        <time>2020-09-02T11:25:51.038Z</time>
      </trkpt>
      <trkpt lat="42.45773" lon="2.44447">
        <ele>1860.1</ele>
        <time>2020-09-02T11:25:56.855Z</time>
      </trkpt>
      <trkpt lat="42.45777" lon="2.44444">
        <ele>1860.4</ele>
        <time>2020-09-02T11:26:07.336Z</time>
      </trkpt>
      <trkpt lat="42.45788" lon="2.44438">
        <ele>1861.4</ele>
        <time>2020-09-02T11:26:38.822Z</time>
      </trkpt>
      <trkpt lat="42.45791" lon="2.44435">
        <ele>1861.8</ele>
        <time>2020-09-02T11:26:51.105Z</time>
      </trkpt>
      <trkpt lat="42.45794" lon="2.44431">
        <ele>1862.3</ele>
        <time>2020-09-02T11:27:06.877Z</time>
      </trkpt>
      <trkpt lat="42.45798" lon="2.44424">
        <ele>1863.3</ele>
        <time>2020-09-02T11:27:36.532Z</time>
      </trkpt>
      <trkpt lat="42.45803" lon="2.44415">
        <ele>1868.3</ele>
        <time>2020-09-02T11:28:14.266Z</time>
      </trkpt>
      <trkpt lat="42.45811" lon="2.44401">
        <ele>1869.6</ele>
        <time>2020-09-02T11:28:54.061Z</time>
      </trkpt>
      <trkpt lat="42.45813" lon="2.44395">
        <ele>1869.9</ele>
        <time>2020-09-02T11:29:04.892Z</time>
      </trkpt>
      <trkpt lat="42.45816" lon="2.4439">
        <ele>1870.2</ele>
        <time>2020-09-02T11:29:15.596Z</time>
      </trkpt>
      <trkpt lat="42.45822" lon="2.44382">
        <ele>1871.2</ele>
        <time>2020-09-02T11:29:47.139Z</time>
      </trkpt>
      <trkpt lat="42.45825" lon="2.44377">
        <ele>1871.9</ele>
        <time>2020-09-02T11:30:08.725Z</time>
      </trkpt>
      <trkpt lat="42.45829" lon="2.44372">
        <ele>1872.8</ele>
        <time>2020-09-02T11:30:33.427Z</time>
      </trkpt>
      <trkpt lat="42.45834" lon="2.44356">
        <ele>1882.3</ele>
        <time>2020-09-02T11:31:31.624Z</time>
      </trkpt>
      <trkpt lat="42.4584" lon="2.44338">
        <ele>1886.3</ele>
        <time>2020-09-02T11:32:37.779Z</time>
      </trkpt>
      <trkpt lat="42.45842" lon="2.44334">
        <ele>1886.3</ele>
        <time>2020-09-02T11:32:41.974Z</time>
      </trkpt>
      <trkpt lat="42.45844" lon="2.44326">
        <ele>1891</ele>
        <time>2020-09-02T11:33:10.265Z</time>
      </trkpt>
      <trkpt lat="42.45847" lon="2.44322">
        <ele>1891.2</ele>
        <time>2020-09-02T11:33:18.787Z</time>
      </trkpt>
      <trkpt lat="42.45851" lon="2.44317">
        <ele>1891.5</ele>
        <time>2020-09-02T11:33:30.375Z</time>
      </trkpt>
      <trkpt lat="42.45854" lon="2.44308">
        <ele>1892</ele>
        <time>2020-09-02T11:33:47.454Z</time>
      </trkpt>
      <trkpt lat="42.45864" lon="2.4428">
        <ele>1893.6</ele>
        <time>2020-09-02T11:34:41.692Z</time>
      </trkpt>
      <trkpt lat="42.45869" lon="2.44266">
        <ele>1894.5</ele>
        <time>2020-09-02T11:35:10.714Z</time>
      </trkpt>
      <trkpt lat="42.45869" lon="2.44259">
        <ele>1894.8</ele>
        <time>2020-09-02T11:35:21.938Z</time>
      </trkpt>
      <trkpt lat="42.4587" lon="2.44254">
        <ele>1895</ele>
        <time>2020-09-02T11:35:29.925Z</time>
      </trkpt>
      <trkpt lat="42.45871" lon="2.44248">
        <ele>1901.4</ele>
        <time>2020-09-02T11:35:50.527Z</time>
      </trkpt>
      <trkpt lat="42.45873" lon="2.4424">
        <ele>1902</ele>
        <time>2020-09-02T11:36:08.933Z</time>
        <extensions>
          <visugpx:TrkExtension xmlns:visugpx="https://www.visugpx.com/editgpx/">
            <visugpx:node>10</visugpx:node>
            </visugpx:TrkExtension>
        </extensions>
      </trkpt>
      <trkpt lat="42.4588" lon="2.44222">
        <ele>1903.4</ele>
        <time>2020-09-02T11:36:52.048Z</time>
      </trkpt>
      <trkpt lat="42.45882" lon="2.44214">
        <ele>1904.1</ele>
        <time>2020-09-02T11:37:13.726Z</time>
      </trkpt>
      <trkpt lat="42.45884" lon="2.44208">
        <ele>1904.7</ele>
        <time>2020-09-02T11:37:33.014Z</time>
      </trkpt>
      <trkpt lat="42.45888" lon="2.44193">
        <ele>1906.8</ele>
        <time>2020-09-02T11:38:26.434Z</time>
      </trkpt>
      <trkpt lat="42.45889" lon="2.44187">
        <ele>1907.7</ele>
        <time>2020-09-02T11:38:47.036Z</time>
      </trkpt>
      <trkpt lat="42.45894" lon="2.44181">
        <ele>1909.6</ele>
        <time>2020-09-02T11:39:17.352Z</time>
      </trkpt>
      <trkpt lat="42.45897" lon="2.44178">
        <ele>1911</ele>
        <time>2020-09-02T11:39:34.276Z</time>
      </trkpt>
      <trkpt lat="42.45902" lon="2.4417">
        <ele>1914.2</ele>
        <time>2020-09-02T11:40:09.392Z</time>
      </trkpt>
      <trkpt lat="42.45913" lon="2.44155">
        <ele>1920.2</ele>
        <time>2020-09-02T11:41:20.227Z</time>
      </trkpt>
      <trkpt lat="42.45922" lon="2.44141">
        <ele>1932.8</ele>
        <time>2020-09-02T11:42:22.420Z</time>
      </trkpt>
      <trkpt lat="42.45923" lon="2.44136">
        <ele>1933.8</ele>
        <time>2020-09-02T11:42:39.770Z</time>
      </trkpt>
      <trkpt lat="42.45926" lon="2.4413">
        <ele>1935.2</ele>
        <time>2020-09-02T11:43:04.046Z</time>
      </trkpt>
      <trkpt lat="42.45933" lon="2.44115">
        <ele>1937.8</ele>
        <time>2020-09-02T11:44:03.491Z</time>
      </trkpt>
      <trkpt lat="42.45941" lon="2.44101">
        <ele>1939.8</ele>
        <time>2020-09-02T11:45:02.800Z</time>
      </trkpt>
      <trkpt lat="42.45942" lon="2.44097">
        <ele>1940.2</ele>
        <time>2020-09-02T11:45:15.982Z</time>
      </trkpt>
      <trkpt lat="42.4594" lon="2.44089">
        <ele>1940.8</ele>
        <time>2020-09-02T11:45:34.388Z</time>
      </trkpt>
      <trkpt lat="42.45941" lon="2.44086">
        <ele>1941</ele>
        <time>2020-09-02T11:45:40.731Z</time>
      </trkpt>
      <trkpt lat="42.45951" lon="2.44072">
        <ele>1955.7</ele>
        <time>2020-09-02T11:46:45.995Z</time>
      </trkpt>
      <trkpt lat="42.45957" lon="2.44061">
        <ele>1957.5</ele>
        <time>2020-09-02T11:47:31.812Z</time>
      </trkpt>
      <trkpt lat="42.45955" lon="2.44059">
        <ele>1957.5</ele>
        <time>2020-09-02T11:47:34.738Z</time>
      </trkpt>
      <trkpt lat="42.45948" lon="2.44055">
        <ele>1957</ele>
        <time>2020-09-02T11:47:36.388Z</time>
      </trkpt>
      <trkpt lat="42.45947" lon="2.4405">
        <ele>1957.5</ele>
        <time>2020-09-02T11:47:53.108Z</time>
      </trkpt>
      <trkpt lat="42.4595" lon="2.44042">
        <ele>1958.6</ele>
        <time>2020-09-02T11:48:23.164Z</time>
      </trkpt>
      <trkpt lat="42.45953" lon="2.44035">
        <ele>1959.8</ele>
        <time>2020-09-02T11:48:50.277Z</time>
      </trkpt>
      <trkpt lat="42.45962" lon="2.44024">
        <ele>1962.2</ele>
        <time>2020-09-02T11:49:45.292Z</time>
      </trkpt>
      <trkpt lat="42.45965" lon="2.4402">
        <ele>1963.3</ele>
        <time>2020-09-02T11:50:04.396Z</time>
      </trkpt>
      <trkpt lat="42.45964" lon="2.44018">
        <ele>1963.3</ele>
        <time>2020-09-02T11:50:06.494Z</time>
      </trkpt>
      <trkpt lat="42.45961" lon="2.44013">
        <ele>1963.1</ele>
        <time>2020-09-02T11:50:07.755Z</time>
      </trkpt>
      <trkpt lat="42.45962" lon="2.44008">
        <ele>1963.8</ele>
        <time>2020-09-02T11:50:25.106Z</time>
      </trkpt>
      <trkpt lat="42.45966" lon="2.44">
        <ele>1974.1</ele>
        <time>2020-09-02T11:50:57.473Z</time>
      </trkpt>
      <trkpt lat="42.45967" lon="2.43988">
        <ele>1974.6</ele>
        <time>2020-09-02T11:51:16.574Z</time>
      </trkpt>
      <trkpt lat="42.45969" lon="2.43984">
        <ele>1975</ele>
        <time>2020-09-02T11:51:28.958Z</time>
      </trkpt>
      <trkpt lat="42.45968" lon="2.4398">
        <ele>1975</ele>
        <time>2020-09-02T11:51:32.626Z</time>
      </trkpt>
      <trkpt lat="42.45968" lon="2.43974">
        <ele>1975.2</ele>
        <time>2020-09-02T11:51:41.456Z</time>
      </trkpt>
      <trkpt lat="42.45971" lon="2.43964">
        <ele>1976.1</ele>
        <time>2020-09-02T11:52:09.370Z</time>
      </trkpt>
      <trkpt lat="42.45977" lon="2.43946">
        <ele>1978.7</ele>
        <time>2020-09-02T11:53:15.523Z</time>
      </trkpt>
      <trkpt lat="42.4598" lon="2.43945">
        <ele>1979.3</ele>
        <time>2020-09-02T11:53:29.548Z</time>
      </trkpt>
      <trkpt lat="42.45982" lon="2.43941">
        <ele>1980.3</ele>
        <time>2020-09-02T11:53:45.732Z</time>
      </trkpt>
      <trkpt lat="42.45985" lon="2.43929">
        <ele>1983.8</ele>
        <time>2020-09-02T11:54:28.167Z</time>
      </trkpt>
      <trkpt lat="42.4599" lon="2.43925">
        <ele>1986.7</ele>
        <time>2020-09-02T11:54:54.524Z</time>
      </trkpt>
      <trkpt lat="42.45995" lon="2.4392">
        <ele>1990.6</ele>
        <time>2020-09-02T11:55:22.732Z</time>
      </trkpt>
      <trkpt lat="42.45997" lon="2.43914">
        <ele>1991.3</ele>
        <time>2020-09-02T11:55:44.783Z</time>
      </trkpt>
      <trkpt lat="42.46002" lon="2.4391">
        <ele>1995.7</ele>
        <time>2020-09-02T11:56:11.140Z</time>
      </trkpt>
      <trkpt lat="42.46008" lon="2.43909">
        <ele>1996.1</ele>
        <time>2020-09-02T11:56:25.055Z</time>
      </trkpt>
      <trkpt lat="42.46013" lon="2.4391">
        <ele>1996.5</ele>
        <time>2020-09-02T11:56:37.911Z</time>
      </trkpt>
      <trkpt lat="42.46017" lon="2.4391">
        <ele>1996.9</ele>
        <time>2020-09-02T11:56:50.154Z</time>
      </trkpt>
      <trkpt lat="42.46024" lon="2.43906">
        <ele>1997.6</ele>
        <time>2020-09-02T11:57:11.752Z</time>
      </trkpt>
      <trkpt lat="42.46031" lon="2.43901">
        <ele>1998.2</ele>
        <time>2020-09-02T11:57:31.353Z</time>
      </trkpt>
      <trkpt lat="42.46039" lon="2.43887">
        <ele>1999</ele>
        <time>2020-09-02T11:58:00.376Z</time>
      </trkpt>
      <trkpt lat="42.46051" lon="2.43876">
        <ele>2000.4</ele>
        <time>2020-09-02T11:58:43.310Z</time>
      </trkpt>
      <trkpt lat="42.46063" lon="2.43867">
        <ele>2002.3</ele>
        <time>2020-09-02T11:59:45.569Z</time>
      </trkpt>
      <trkpt lat="42.46076" lon="2.43856">
        <ele>2005.6</ele>
        <time>2020-09-02T12:00:55.141Z</time>
      </trkpt>
      <trkpt lat="42.46082" lon="2.43848">
        <ele>2008.5</ele>
        <time>2020-09-02T12:01:33.348Z</time>
      </trkpt>
      <trkpt lat="42.46098" lon="2.4383">
        <ele>2021.3</ele>
        <time>2020-09-02T12:03:07.741Z</time>
      </trkpt>
      <trkpt lat="42.46101" lon="2.43824">
        <ele>2022.4</ele>
        <time>2020-09-02T12:03:32.017Z</time>
      </trkpt>
      <trkpt lat="42.4611" lon="2.43803">
        <ele>2025.4</ele>
        <time>2020-09-02T12:04:53.355Z</time>
      </trkpt>
      <trkpt lat="42.46122" lon="2.4378">
        <ele>2027.7</ele>
        <time>2020-09-02T12:06:04.345Z</time>
      </trkpt>
      <trkpt lat="42.46135" lon="2.43751">
        <ele>2032.3</ele>
        <time>2020-09-02T12:07:57.993Z</time>
      </trkpt>
      <trkpt lat="42.46139" lon="2.43744">
        <ele>2035.3</ele>
        <time>2020-09-02T12:08:27.647Z</time>
      </trkpt>
      <trkpt lat="42.4614" lon="2.43739">
        <ele>2035.4</ele>
        <time>2020-09-02T12:08:33.563Z</time>
      </trkpt>
      <trkpt lat="42.46143" lon="2.43724">
        <ele>2035.1</ele>
        <time>2020-09-02T12:08:37.135Z</time>
      </trkpt>
      <trkpt lat="42.46151" lon="2.43699">
        <ele>2037</ele>
        <time>2020-09-02T12:09:35.541Z</time>
      </trkpt>
      <trkpt lat="42.46162" lon="2.43667">
        <ele>2049.4</ele>
        <time>2020-09-02T12:11:33.776Z</time>
      </trkpt>
      <trkpt lat="42.4617" lon="2.4365">
        <ele>2059.5</ele>
        <time>2020-09-02T12:12:41.307Z</time>
      </trkpt>
      <trkpt lat="42.46176" lon="2.43639">
        <ele>2061.5</ele>
        <time>2020-09-02T12:13:27.123Z</time>
      </trkpt>
      <trkpt lat="42.4619" lon="2.43618">
        <ele>2063.4</ele>
        <time>2020-09-02T12:14:25.876Z</time>
      </trkpt>
      <trkpt lat="42.46202" lon="2.43598">
        <ele>2064.7</ele>
        <time>2020-09-02T12:15:10.366Z</time>
      </trkpt>
      <trkpt lat="42.46216" lon="2.43579">
        <ele>2064.9</ele>
        <time>2020-09-02T12:15:36.059Z</time>
      </trkpt>
      <trkpt lat="42.46229" lon="2.4356">
        <ele>2066.8</ele>
        <time>2020-09-02T12:16:34.223Z</time>
      </trkpt>
      <trkpt lat="42.46242" lon="2.43543">
        <ele>2067.3</ele>
        <time>2020-09-02T12:17:02.705Z</time>
      </trkpt>
      <trkpt lat="42.46253" lon="2.43529">
        <ele>2082.4</ele>
        <time>2020-09-02T12:18:11.203Z</time>
      </trkpt>
      <trkpt lat="42.46271" lon="2.43503">
        <ele>2082.6</ele>
        <time>2020-09-02T12:18:44.480Z</time>
      </trkpt>
      <trkpt lat="42.4629" lon="2.43478">
        <ele>2088.9</ele>
        <time>2020-09-02T12:20:44.687Z</time>
      </trkpt>
      <trkpt lat="42.46317" lon="2.4345">
        <ele>2094.1</ele>
        <time>2020-09-02T12:23:19.016Z</time>
      </trkpt>
      <trkpt lat="42.4632" lon="2.43446">
        <ele>2095.1</ele>
        <time>2020-09-02T12:23:38.119Z</time>
        <extensions>
          <visugpx:TrkExtension xmlns:visugpx="https://www.visugpx.com/editgpx/">
            <visugpx:node>11</visugpx:node>
            </visugpx:TrkExtension>
        </extensions>
      </trkpt>
      <trkpt lat="42.46337" lon="2.43426">
        <ele>2106.9</ele>
        <time>2020-09-02T12:25:20.307Z</time>
      </trkpt>
      <trkpt lat="42.46347" lon="2.43406">
        <ele>2112.3</ele>
        <time>2020-09-02T12:26:41.222Z</time>
      </trkpt>
      <trkpt lat="42.46354" lon="2.43379">
        <ele>2115.1</ele>
        <time>2020-09-02T12:28:15.957Z</time>
      </trkpt>
      <trkpt lat="42.46369" lon="2.43342">
        <ele>2117.6</ele>
        <time>2020-09-02T12:29:35.911Z</time>
      </trkpt>
      <trkpt lat="42.46379" lon="2.43308">
        <ele>2126.7</ele>
        <time>2020-09-02T12:31:38.492Z</time>
      </trkpt>
      <trkpt lat="42.4639" lon="2.43289">
        <ele>2128.8</ele>
        <time>2020-09-02T12:32:44.518Z</time>
      </trkpt>
      <trkpt lat="42.46398" lon="2.43273">
        <ele>2131.4</ele>
        <time>2020-09-02T12:33:49.250Z</time>
      </trkpt>
      <trkpt lat="42.46409" lon="2.43244">
        <ele>2141.8</ele>
        <time>2020-09-02T12:35:38.456Z</time>
      </trkpt>
      <trkpt lat="42.46422" lon="2.43229">
        <ele>2144.5</ele>
        <time>2020-09-02T12:36:55.957Z</time>
      </trkpt>
      <trkpt lat="42.46441" lon="2.43197">
        <ele>2148.9</ele>
        <time>2020-09-02T12:39:13.523Z</time>
      </trkpt>
      <trkpt lat="42.46466" lon="2.43165">
        <ele>2160.1</ele>
        <time>2020-09-02T12:41:49.617Z</time>
      </trkpt>
      <trkpt lat="42.46479" lon="2.43141">
        <ele>2160.5</ele>
        <time>2020-09-02T12:42:20.645Z</time>
      </trkpt>
      <trkpt lat="42.46497" lon="2.43102">
        <ele>2164</ele>
        <time>2020-09-02T12:44:07.786Z</time>
      </trkpt>
      <trkpt lat="42.46514" lon="2.43059">
        <ele>2169</ele>
        <time>2020-09-02T12:46:51.165Z</time>
      </trkpt>
      <trkpt lat="42.46533" lon="2.4302">
        <ele>2172</ele>
        <time>2020-09-02T12:48:24.837Z</time>
      </trkpt>
      <trkpt lat="42.46549" lon="2.42985">
        <ele>2178.3</ele>
        <time>2020-09-02T12:50:42.729Z</time>
      </trkpt>
      <trkpt lat="42.46568" lon="2.42941">
        <ele>2180.9</ele>
        <time>2020-09-02T12:52:11.223Z</time>
      </trkpt>
      <trkpt lat="42.46582" lon="2.42908">
        <ele>2184.7</ele>
        <time>2020-09-02T12:54:18.708Z</time>
      </trkpt>
      <trkpt lat="42.46604" lon="2.42867">
        <ele>2194.3</ele>
        <time>2020-09-02T12:57:08.493Z</time>
      </trkpt>
      <trkpt lat="42.46637" lon="2.42824">
        <ele>2200.2</ele>
        <time>2020-09-02T13:00:23.502Z</time>
      </trkpt>
      <trkpt lat="42.46662" lon="2.42793">
        <ele>2201.1</ele>
        <time>2020-09-02T13:01:16.202Z</time>
      </trkpt>
      <trkpt lat="42.46676" lon="2.42776">
        <ele>2209.2</ele>
        <time>2020-09-02T13:02:41.527Z</time>
      </trkpt>
      <trkpt lat="42.46699" lon="2.42763">
        <ele>2210.6</ele>
        <time>2020-09-02T13:03:34.976Z</time>
      </trkpt>
      <trkpt lat="42.46711" lon="2.42749">
        <ele>2214.5</ele>
        <time>2020-09-02T13:04:46.849Z</time>
      </trkpt>
      <trkpt lat="42.46724" lon="2.42726">
        <ele>2215.9</ele>
        <time>2020-09-02T13:05:35.809Z</time>
      </trkpt>
      <trkpt lat="42.46736" lon="2.42712">
        <ele>2216.8</ele>
        <time>2020-09-02T13:06:09.921Z</time>
      </trkpt>
      <trkpt lat="42.46751" lon="2.42696">
        <ele>2227.1</ele>
        <time>2020-09-02T13:07:36.569Z</time>
      </trkpt>
      <trkpt lat="42.46771" lon="2.42679">
        <ele>2228.1</ele>
        <time>2020-09-02T13:08:21.969Z</time>
      </trkpt>
      <trkpt lat="42.46801" lon="2.42655">
        <ele>2234.7</ele>
        <time>2020-09-02T13:11:00.107Z</time>
      </trkpt>
      <trkpt lat="42.46831" lon="2.42625">
        <ele>2236.5</ele>
        <time>2020-09-02T13:12:15.974Z</time>
      </trkpt>
      <trkpt lat="42.46859" lon="2.42595">
        <ele>2246.7</ele>
        <time>2020-09-02T13:14:57.993Z</time>
      </trkpt>
      <trkpt lat="42.46884" lon="2.42568">
        <ele>2249.3</ele>
        <time>2020-09-02T13:16:20.774Z</time>
      </trkpt>
      <trkpt lat="42.46896" lon="2.42548">
        <ele>2249.9</ele>
        <time>2020-09-02T13:16:52.254Z</time>
      </trkpt>
      <trkpt lat="42.46906" lon="2.42514">
        <ele>2251.8</ele>
        <time>2020-09-02T13:17:56.378Z</time>
      </trkpt>
      <trkpt lat="42.46919" lon="2.4245">
        <ele>2263.3</ele>
        <time>2020-09-02T13:21:38.672Z</time>
      </trkpt>
      <trkpt lat="42.46939" lon="2.42393">
        <ele>2265.6</ele>
        <time>2020-09-02T13:23:14.115Z</time>
      </trkpt>
      <trkpt lat="42.46954" lon="2.42356">
        <ele>2267</ele>
        <time>2020-09-02T13:24:16.156Z</time>
      </trkpt>
      <trkpt lat="42.46964" lon="2.42319">
        <ele>2267.5</ele>
        <time>2020-09-02T13:24:56.765Z</time>
      </trkpt>
      <trkpt lat="42.46976" lon="2.42282">
        <ele>2269.5</ele>
        <time>2020-09-02T13:26:05.855Z</time>
      </trkpt>
      <trkpt lat="42.46976" lon="2.42258">
        <ele>2271.5</ele>
        <time>2020-09-02T13:27:07.881Z</time>
      </trkpt>
      <trkpt lat="42.46984" lon="2.42238">
        <ele>2272.4</ele>
        <time>2020-09-02T13:27:43.260Z</time>
      </trkpt>
      <trkpt lat="42.46999" lon="2.42218">
        <ele>2271.8</ele>
        <time>2020-09-02T13:27:49.648Z</time>
      </trkpt>
      <trkpt lat="42.47004" lon="2.42194">
        <ele>2290.7</ele>
        <time>2020-09-02T13:29:13.160Z</time>
      </trkpt>
      <trkpt lat="42.47016" lon="2.4215">
        <ele>2289.9</ele>
        <time>2020-09-02T13:29:24.310Z</time>
      </trkpt>
      <trkpt lat="42.47017" lon="2.42146">
        <ele>2290.2</ele>
        <time>2020-09-02T13:29:33.513Z</time>
        <extensions>
          <visugpx:TrkExtension xmlns:visugpx="https://www.visugpx.com/editgpx/">
            <visugpx:node>12</visugpx:node>
            </visugpx:TrkExtension>
        </extensions>
      </trkpt>
      <trkpt lat="42.4702" lon="2.42136">
        <ele>2290.6</ele>
        <time>2020-09-02T13:29:49.925Z</time>
      </trkpt>
      <trkpt lat="42.47026" lon="2.4211">
        <ele>2290.5</ele>
        <time>2020-09-02T13:30:11.901Z</time>
      </trkpt>
      <trkpt lat="42.4703" lon="2.42066">
        <ele>2291.3</ele>
        <time>2020-09-02T13:31:01.504Z</time>
      </trkpt>
      <trkpt lat="42.4707" lon="2.42019">
        <ele>2295.4</ele>
        <time>2020-09-02T13:33:14.336Z</time>
      </trkpt>
      <trkpt lat="42.47103" lon="2.41944">
        <ele>2296.2</ele>
        <time>2020-09-02T13:34:39.884Z</time>
      </trkpt>
      <trkpt lat="42.47125" lon="2.41871">
        <ele>2291.9</ele>
        <time>2020-09-02T13:34:53.590Z</time>
      </trkpt>
      <trkpt lat="42.47143" lon="2.4183">
        <ele>2287.9</ele>
        <time>2020-09-02T13:35:01.882Z</time>
      </trkpt>
      <trkpt lat="42.47157" lon="2.41792">
        <ele>2287.9</ele>
        <time>2020-09-02T13:35:38.758Z</time>
      </trkpt>
      <trkpt lat="42.4719" lon="2.41765">
        <ele>2283.3</ele>
        <time>2020-09-02T13:35:47.840Z</time>
      </trkpt>
      <trkpt lat="42.47212" lon="2.41731">
        <ele>2283.4</ele>
        <time>2020-09-02T13:36:28.213Z</time>
      </trkpt>
      <trkpt lat="42.47249" lon="2.41701">
        <ele>2282.7</ele>
        <time>2020-09-02T13:36:43.278Z</time>
      </trkpt>
      <trkpt lat="42.47269" lon="2.41659">
        <ele>2279.5</ele>
        <time>2020-09-02T13:36:51.966Z</time>
      </trkpt>
      <trkpt lat="42.47287" lon="2.41611">
        <ele>2278.9</ele>
        <time>2020-09-02T13:37:06.040Z</time>
      </trkpt>
      <trkpt lat="42.47309" lon="2.416">
        <ele>2277.6</ele>
        <time>2020-09-02T13:37:11.572Z</time>
      </trkpt>
      <trkpt lat="42.47326" lon="2.41581">
        <ele>2276.5</ele>
        <time>2020-09-02T13:37:17.019Z</time>
      </trkpt>
      <trkpt lat="42.47341" lon="2.41559">
        <ele>2272.9</ele>
        <time>2020-09-02T13:37:22.226Z</time>
      </trkpt>
      <trkpt lat="42.47358" lon="2.41545">
        <ele>2272.1</ele>
        <time>2020-09-02T13:37:27.596Z</time>
      </trkpt>
      <trkpt lat="42.47371" lon="2.41531">
        <ele>2271.5</ele>
        <time>2020-09-02T13:37:32.259Z</time>
      </trkpt>
      <trkpt lat="42.47387" lon="2.41507">
        <ele>2270.4</ele>
        <time>2020-09-02T13:37:38.361Z</time>
      </trkpt>
      <trkpt lat="42.47399" lon="2.41477">
        <ele>2270.5</ele>
        <time>2020-09-02T13:38:09.106Z</time>
      </trkpt>
      <trkpt lat="42.47412" lon="2.41449">
        <ele>2270.9</ele>
        <time>2020-09-02T13:38:42.902Z</time>
      </trkpt>
      <trkpt lat="42.47429" lon="2.41422">
        <ele>2268.6</ele>
        <time>2020-09-02T13:38:49.072Z</time>
      </trkpt>
      <trkpt lat="42.47446" lon="2.41395">
        <ele>2269.7</ele>
        <time>2020-09-02T13:39:39.166Z</time>
      </trkpt>
      <trkpt lat="42.47461" lon="2.41374">
        <ele>2269.7</ele>
        <time>2020-09-02T13:40:04.543Z</time>
        <extensions>
          <visugpx:TrkExtension xmlns:visugpx="https://www.visugpx.com/editgpx/">
            <visugpx:node>13</visugpx:node>
            </visugpx:TrkExtension>
        </extensions>
      </trkpt>
      <trkpt lat="42.47465" lon="2.41367">
        <ele>2269.8</ele>
        <time>2020-09-02T13:40:13.484Z</time>
      </trkpt>
      <trkpt lat="42.47483" lon="2.41347">
        <ele>2269.8</ele>
        <time>2020-09-02T13:40:40.875Z</time>
      </trkpt>
      <trkpt lat="42.47497" lon="2.41332">
        <ele>2269.8</ele>
        <time>2020-09-02T13:41:01.877Z</time>
      </trkpt>
      <trkpt lat="42.47507" lon="2.41317">
        <ele>2269</ele>
        <time>2020-09-02T13:41:05.449Z</time>
      </trkpt>
      <trkpt lat="42.47514" lon="2.41291">
        <ele>2268</ele>
        <time>2020-09-02T13:41:10.537Z</time>
      </trkpt>
      <trkpt lat="42.47525" lon="2.41265">
        <ele>2267.2</ele>
        <time>2020-09-02T13:41:16.743Z</time>
      </trkpt>
      <trkpt lat="42.47537" lon="2.41242">
        <ele>2263.6</ele>
        <time>2020-09-02T13:41:21.639Z</time>
      </trkpt>
      <trkpt lat="42.4755" lon="2.41231">
        <ele>2263.5</ele>
        <time>2020-09-02T13:41:38.036Z</time>
      </trkpt>
      <trkpt lat="42.47568" lon="2.41227">
        <ele>2263.9</ele>
        <time>2020-09-02T13:42:04.900Z</time>
      </trkpt>
      <trkpt lat="42.47583" lon="2.41224">
        <ele>2264</ele>
        <time>2020-09-02T13:42:23.893Z</time>
      </trkpt>
      <trkpt lat="42.47595" lon="2.41214">
        <ele>2261.6</ele>
        <time>2020-09-02T13:42:27.212Z</time>
      </trkpt>
      <trkpt lat="42.47598" lon="2.41198">
        <ele>2260.8</ele>
        <time>2020-09-02T13:42:29.860Z</time>
      </trkpt>
      <trkpt lat="42.47597" lon="2.41182">
        <ele>2260.4</ele>
        <time>2020-09-02T13:42:33.265Z</time>
      </trkpt>
      <trkpt lat="42.47596" lon="2.41162">
        <ele>2258.1</ele>
        <time>2020-09-02T13:42:36.749Z</time>
      </trkpt>
      <trkpt lat="42.4759" lon="2.41144">
        <ele>2257</ele>
        <time>2020-09-02T13:42:40.182Z</time>
      </trkpt>
      <trkpt lat="42.47589" lon="2.41121">
        <ele>2255.2</ele>
        <time>2020-09-02T13:42:44.186Z</time>
      </trkpt>
      <trkpt lat="42.47589" lon="2.41101">
        <ele>2253.5</ele>
        <time>2020-09-02T13:42:47.662Z</time>
      </trkpt>
      <trkpt lat="42.47595" lon="2.41082">
        <ele>2249.4</ele>
        <time>2020-09-02T13:42:51.254Z</time>
      </trkpt>
      <trkpt lat="42.47606" lon="2.41065">
        <ele>2247.9</ele>
        <time>2020-09-02T13:42:55.184Z</time>
      </trkpt>
      <trkpt lat="42.47619" lon="2.41052">
        <ele>2247</ele>
        <time>2020-09-02T13:42:58.987Z</time>
      </trkpt>
      <trkpt lat="42.47634" lon="2.41041">
        <ele>2246.7</ele>
        <time>2020-09-02T13:43:04.848Z</time>
      </trkpt>
      <trkpt lat="42.47646" lon="2.41027">
        <ele>2246.2</ele>
        <time>2020-09-02T13:43:09.504Z</time>
      </trkpt>
      <trkpt lat="42.4766" lon="2.41007">
        <ele>2245.4</ele>
        <time>2020-09-02T13:43:15.040Z</time>
      </trkpt>
      <trkpt lat="42.47668" lon="2.40987">
        <ele>2244</ele>
        <time>2020-09-02T13:43:18.995Z</time>
      </trkpt>
      <trkpt lat="42.47687" lon="2.40973">
        <ele>2243.2</ele>
        <time>2020-09-02T13:43:25.017Z</time>
      </trkpt>
      <trkpt lat="42.47702" lon="2.4096">
        <ele>2242.9</ele>
        <time>2020-09-02T13:43:31.191Z</time>
      </trkpt>
      <trkpt lat="42.47714" lon="2.40946">
        <ele>2242.6</ele>
        <time>2020-09-02T13:43:36.544Z</time>
      </trkpt>
      <trkpt lat="42.47733" lon="2.40926">
        <ele>2242.4</ele>
        <time>2020-09-02T13:43:45.854Z</time>
      </trkpt>
      <trkpt lat="42.47745" lon="2.40914">
        <ele>2238.5</ele>
        <time>2020-09-02T13:43:49.368Z</time>
      </trkpt>
      <trkpt lat="42.47757" lon="2.409">
        <ele>2235.7</ele>
        <time>2020-09-02T13:43:53.098Z</time>
      </trkpt>
      <trkpt lat="42.47771" lon="2.40887">
        <ele>2232.3</ele>
        <time>2020-09-02T13:43:57.096Z</time>
      </trkpt>
      <trkpt lat="42.47786" lon="2.40878">
        <ele>2230.5</ele>
        <time>2020-09-02T13:44:00.961Z</time>
      </trkpt>
      <trkpt lat="42.47801" lon="2.40875">
        <ele>2230.1</ele>
        <time>2020-09-02T13:44:05.673Z</time>
      </trkpt>
      <trkpt lat="42.47809" lon="2.40869">
        <ele>2228.7</ele>
        <time>2020-09-02T13:44:07.827Z</time>
      </trkpt>
      <trkpt lat="42.47818" lon="2.40864">
        <ele>2227.5</ele>
        <time>2020-09-02T13:44:10.119Z</time>
      </trkpt>
      <trkpt lat="42.47827" lon="2.40859">
        <ele>2225.4</ele>
        <time>2020-09-02T13:44:12.411Z</time>
      </trkpt>
      <trkpt lat="42.47835" lon="2.40853">
        <ele>2219.1</ele>
        <time>2020-09-02T13:44:14.565Z</time>
      </trkpt>
      <trkpt lat="42.47843" lon="2.40849">
        <ele>2218.3</ele>
        <time>2020-09-02T13:44:16.574Z</time>
      </trkpt>
      <trkpt lat="42.47856" lon="2.40845">
        <ele>2218</ele>
        <time>2020-09-02T13:44:20.900Z</time>
      </trkpt>
      <trkpt lat="42.47872" lon="2.40844">
        <ele>2217.1</ele>
        <time>2020-09-02T13:44:24.655Z</time>
      </trkpt>
      <trkpt lat="42.4788" lon="2.4084">
        <ele>2215.8</ele>
        <time>2020-09-02T13:44:26.664Z</time>
      </trkpt>
      <trkpt lat="42.47889" lon="2.40839">
        <ele>2214.2</ele>
        <time>2020-09-02T13:44:28.792Z</time>
      </trkpt>
      <trkpt lat="42.47904" lon="2.4084">
        <ele>2210</ele>
        <time>2020-09-02T13:44:32.331Z</time>
      </trkpt>
      <trkpt lat="42.4792" lon="2.40848">
        <ele>2202.3</ele>
        <time>2020-09-02T13:44:36.349Z</time>
      </trkpt>
      <trkpt lat="42.47927" lon="2.40851">
        <ele>2202.3</ele>
        <time>2020-09-02T13:44:44.990Z</time>
      </trkpt>
      <trkpt lat="42.47932" lon="2.40852">
        <ele>2202.2</ele>
        <time>2020-09-02T13:44:46.682Z</time>
      </trkpt>
      <trkpt lat="42.47935" lon="2.40854">
        <ele>2202</ele>
        <time>2020-09-02T13:44:47.443Z</time>
      </trkpt>
      <trkpt lat="42.47939" lon="2.40855">
        <ele>2201.8</ele>
        <time>2020-09-02T13:44:48.455Z</time>
      </trkpt>
      <trkpt lat="42.47944" lon="2.40855">
        <ele>2201.4</ele>
        <time>2020-09-02T13:44:49.634Z</time>
      </trkpt>
      <trkpt lat="42.47949" lon="2.40854">
        <ele>2200.9</ele>
        <time>2020-09-02T13:44:50.824Z</time>
      </trkpt>
      <trkpt lat="42.47955" lon="2.40853">
        <ele>2200.2</ele>
        <time>2020-09-02T13:44:52.249Z</time>
      </trkpt>
      <trkpt lat="42.47963" lon="2.40853">
        <ele>2199.2</ele>
        <time>2020-09-02T13:44:54.134Z</time>
      </trkpt>
      <trkpt lat="42.47968" lon="2.40853">
        <ele>2198.5</ele>
        <time>2020-09-02T13:44:55.312Z</time>
      </trkpt>
      <trkpt lat="42.47973" lon="2.40852">
        <ele>2197.7</ele>
        <time>2020-09-02T13:44:56.503Z</time>
      </trkpt>
      <trkpt lat="42.47977" lon="2.4085">
        <ele>2196.7</ele>
        <time>2020-09-02T13:44:57.508Z</time>
      </trkpt>
      <trkpt lat="42.47987" lon="2.40845">
        <ele>2194.1</ele>
        <time>2020-09-02T13:45:00.019Z</time>
      </trkpt>
      <trkpt lat="42.47995" lon="2.40843">
        <ele>2192</ele>
        <time>2020-09-02T13:45:01.936Z</time>
      </trkpt>
      <trkpt lat="42.48" lon="2.40841">
        <ele>2185.4</ele>
        <time>2020-09-02T13:45:03.164Z</time>
      </trkpt>
      <trkpt lat="42.48002" lon="2.4084">
        <ele>2185.4</ele>
        <time>2020-09-02T13:45:05.673Z</time>
      </trkpt>
      <trkpt lat="42.48006" lon="2.40838">
        <ele>2185.2</ele>
        <time>2020-09-02T13:45:06.755Z</time>
      </trkpt>
      <trkpt lat="42.4801" lon="2.40837">
        <ele>2184.5</ele>
        <time>2020-09-02T13:45:07.714Z</time>
      </trkpt>
      <trkpt lat="42.48016" lon="2.40834">
        <ele>2183.4</ele>
        <time>2020-09-02T13:45:09.221Z</time>
      </trkpt>
      <trkpt lat="42.48022" lon="2.40831">
        <ele>2176</ele>
        <time>2020-09-02T13:45:10.727Z</time>
      </trkpt>
      <trkpt lat="42.48028" lon="2.40827">
        <ele>2174.3</ele>
        <time>2020-09-02T13:45:12.303Z</time>
      </trkpt>
      <trkpt lat="42.48033" lon="2.40824">
        <ele>2173</ele>
        <time>2020-09-02T13:45:13.591Z</time>
      </trkpt>
      <trkpt lat="42.48037" lon="2.40821">
        <ele>2172.1</ele>
        <time>2020-09-02T13:45:14.668Z</time>
      </trkpt>
      <trkpt lat="42.48042" lon="2.40818">
        <ele>2171.1</ele>
        <time>2020-09-02T13:45:15.957Z</time>
      </trkpt>
      <trkpt lat="42.48047" lon="2.40815">
        <ele>2170.3</ele>
        <time>2020-09-02T13:45:17.245Z</time>
      </trkpt>
      <trkpt lat="42.48053" lon="2.40812">
        <ele>2169.7</ele>
        <time>2020-09-02T13:45:18.752Z</time>
      </trkpt>
      <trkpt lat="42.48058" lon="2.40811">
        <ele>2169.3</ele>
        <time>2020-09-02T13:45:19.943Z</time>
      </trkpt>
      <trkpt lat="42.48062" lon="2.4081">
        <ele>2169</ele>
        <time>2020-09-02T13:45:20.901Z</time>
      </trkpt>
      <trkpt lat="42.48066" lon="2.40809">
        <ele>2168.8</ele>
        <time>2020-09-02T13:45:21.913Z</time>
      </trkpt>
      <trkpt lat="42.48071" lon="2.40807">
        <ele>2168.5</ele>
        <time>2020-09-02T13:45:23.122Z</time>
      </trkpt>
      <trkpt lat="42.48075" lon="2.40804">
        <ele>2168</ele>
        <time>2020-09-02T13:45:24.199Z</time>
      </trkpt>
      <trkpt lat="42.4808" lon="2.408">
        <ele>2167.5</ele>
        <time>2020-09-02T13:45:25.567Z</time>
      </trkpt>
      <trkpt lat="42.48085" lon="2.40795">
        <ele>2158.7</ele>
        <time>2020-09-02T13:45:27.031Z</time>
      </trkpt>
      <trkpt lat="42.48087" lon="2.40793">
        <ele>2158.2</ele>
        <time>2020-09-02T13:45:27.617Z</time>
      </trkpt>
      <trkpt lat="42.48092" lon="2.40789">
        <ele>2157.6</ele>
        <time>2020-09-02T13:45:28.985Z</time>
      </trkpt>
      <trkpt lat="42.48096" lon="2.40787">
        <ele>2157</ele>
        <time>2020-09-02T13:45:29.989Z</time>
      </trkpt>
      <trkpt lat="42.48101" lon="2.40786">
        <ele>2156.6</ele>
        <time>2020-09-02T13:45:31.180Z</time>
      </trkpt>
      <trkpt lat="42.48106" lon="2.40786">
        <ele>2156.3</ele>
        <time>2020-09-02T13:45:32.317Z</time>
      </trkpt>
      <trkpt lat="42.48112" lon="2.40788">
        <ele>2156</ele>
        <time>2020-09-02T13:45:33.863Z</time>
      </trkpt>
      <trkpt lat="42.48118" lon="2.40789">
        <ele>2155.6</ele>
        <time>2020-09-02T13:45:35.173Z</time>
      </trkpt>
      <trkpt lat="42.48124" lon="2.40791">
        <ele>2155.1</ele>
        <time>2020-09-02T13:45:36.629Z</time>
      </trkpt>
      <trkpt lat="42.48129" lon="2.40793">
        <ele>2154.7</ele>
        <time>2020-09-02T13:45:37.857Z</time>
      </trkpt>
      <trkpt lat="42.48135" lon="2.40796">
        <ele>2154.2</ele>
        <time>2020-09-02T13:45:39.364Z</time>
      </trkpt>
      <trkpt lat="42.4814" lon="2.40799">
        <ele>2153.9</ele>
        <time>2020-09-02T13:45:40.660Z</time>
      </trkpt>
      <trkpt lat="42.48142" lon="2.40802">
        <ele>2153.8</ele>
        <time>2020-09-02T13:45:41.520Z</time>
      </trkpt>
      <trkpt lat="42.48146" lon="2.40807">
        <ele>2153.7</ele>
        <time>2020-09-02T13:45:43.372Z</time>
      </trkpt>
      <trkpt lat="42.48149" lon="2.40811">
        <ele>2153.4</ele>
        <time>2020-09-02T13:45:44.363Z</time>
      </trkpt>
      <trkpt lat="42.48152" lon="2.40812">
        <ele>2153.1</ele>
        <time>2020-09-02T13:45:45.091Z</time>
      </trkpt>
      <trkpt lat="42.48157" lon="2.40812">
        <ele>2152.8</ele>
        <time>2020-09-02T13:45:46.228Z</time>
      </trkpt>
      <trkpt lat="42.48161" lon="2.40812">
        <ele>2152.5</ele>
        <time>2020-09-02T13:45:47.171Z</time>
      </trkpt>
      <trkpt lat="42.48165" lon="2.40811">
        <ele>2152.3</ele>
        <time>2020-09-02T13:45:48.183Z</time>
      </trkpt>
      <trkpt lat="42.48168" lon="2.40808">
        <ele>2138.9</ele>
        <time>2020-09-02T13:45:49.061Z</time>
      </trkpt>
      <trkpt lat="42.48169" lon="2.40804">
        <ele>2138</ele>
        <time>2020-09-02T13:45:49.795Z</time>
      </trkpt>
      <trkpt lat="42.4817" lon="2.408">
        <ele>2137.3</ele>
        <time>2020-09-02T13:45:50.529Z</time>
      </trkpt>
      <trkpt lat="42.4817" lon="2.40796">
        <ele>2136.8</ele>
        <time>2020-09-02T13:45:51.224Z</time>
      </trkpt>
      <trkpt lat="42.48174" lon="2.40792">
        <ele>2136.3</ele>
        <time>2020-09-02T13:45:52.395Z</time>
      </trkpt>
      <trkpt lat="42.48178" lon="2.40791">
        <ele>2135.7</ele>
        <time>2020-09-02T13:45:53.354Z</time>
      </trkpt>
      <trkpt lat="42.48183" lon="2.40789">
        <ele>2135</ele>
        <time>2020-09-02T13:45:54.582Z</time>
      </trkpt>
      <trkpt lat="42.48186" lon="2.40786">
        <ele>2134.5</ele>
        <time>2020-09-02T13:45:55.460Z</time>
      </trkpt>
      <trkpt lat="42.48188" lon="2.40783">
        <ele>2134.2</ele>
        <time>2020-09-02T13:45:56.163Z</time>
      </trkpt>
      <trkpt lat="42.48187" lon="2.4078">
        <ele>2134.3</ele>
        <time>2020-09-02T13:46:00.752Z</time>
      </trkpt>
      <trkpt lat="42.48186" lon="2.40776">
        <ele>2134.6</ele>
        <time>2020-09-02T13:46:09.955Z</time>
      </trkpt>
      <trkpt lat="42.48183" lon="2.40772">
        <ele>2135.3</ele>
        <time>2020-09-02T13:46:29.055Z</time>
      </trkpt>
      <trkpt lat="42.48177" lon="2.40763">
        <ele>2137.3</ele>
        <time>2020-09-02T13:47:09.674Z</time>
      </trkpt>
      <trkpt lat="42.48173" lon="2.40755">
        <ele>2139.5</ele>
        <time>2020-09-02T13:47:42.033Z</time>
      </trkpt>
      <trkpt lat="42.48172" lon="2.4075">
        <ele>2138.5</ele>
        <time>2020-09-02T13:47:42.934Z</time>
      </trkpt>
      <trkpt lat="42.4817" lon="2.40744">
        <ele>2136.7</ele>
        <time>2020-09-02T13:47:44.078Z</time>
      </trkpt>
      <trkpt lat="42.48169" lon="2.40738">
        <ele>2133</ele>
        <time>2020-09-02T13:47:45.147Z</time>
      </trkpt>
      <trkpt lat="42.48168" lon="2.40731">
        <ele>2129.9</ele>
        <time>2020-09-02T13:47:46.386Z</time>
      </trkpt>
      <trkpt lat="42.48166" lon="2.40726">
        <ele>2138</ele>
        <time>2020-09-02T13:48:05.430Z</time>
      </trkpt>
      <trkpt lat="42.48165" lon="2.40722">
        <ele>2137.2</ele>
        <time>2020-09-02T13:48:06.164Z</time>
      </trkpt>
      <trkpt lat="42.48167" lon="2.4072">
        <ele>2136.7</ele>
        <time>2020-09-02T13:48:06.749Z</time>
      </trkpt>
      <trkpt lat="42.4817" lon="2.4072">
        <ele>2125.5</ele>
        <time>2020-09-02T13:48:07.456Z</time>
      </trkpt>
      <trkpt lat="42.48175" lon="2.40722">
        <ele>2125.6</ele>
        <time>2020-09-02T13:48:14.900Z</time>
      </trkpt>
      <trkpt lat="42.48181" lon="2.40724">
        <ele>2125.4</ele>
        <time>2020-09-02T13:48:16.702Z</time>
      </trkpt>
      <trkpt lat="42.48189" lon="2.40728">
        <ele>2124.5</ele>
        <time>2020-09-02T13:48:18.711Z</time>
      </trkpt>
      <trkpt lat="42.48197" lon="2.40731">
        <ele>2123.1</ele>
        <time>2020-09-02T13:48:20.667Z</time>
      </trkpt>
      <trkpt lat="42.48205" lon="2.40733">
        <ele>2121.7</ele>
        <time>2020-09-02T13:48:22.584Z</time>
      </trkpt>
      <trkpt lat="42.48212" lon="2.40735">
        <ele>2120.3</ele>
        <time>2020-09-02T13:48:24.269Z</time>
      </trkpt>
      <trkpt lat="42.48219" lon="2.40737">
        <ele>2119</ele>
        <time>2020-09-02T13:48:25.955Z</time>
      </trkpt>
      <trkpt lat="42.48226" lon="2.40737">
        <ele>2117.8</ele>
        <time>2020-09-02T13:48:27.604Z</time>
      </trkpt>
      <trkpt lat="42.48232" lon="2.40737">
        <ele>2116.9</ele>
        <time>2020-09-02T13:48:29.018Z</time>
      </trkpt>
      <trkpt lat="42.48238" lon="2.40736">
        <ele>2116.2</ele>
        <time>2020-09-02T13:48:30.442Z</time>
      </trkpt>
      <trkpt lat="42.48243" lon="2.40734">
        <ele>2115.7</ele>
        <time>2020-09-02T13:48:31.671Z</time>
      </trkpt>
      <trkpt lat="42.48248" lon="2.40733">
        <ele>2115.4</ele>
        <time>2020-09-02T13:48:32.826Z</time>
      </trkpt>
      <trkpt lat="42.48253" lon="2.40733">
        <ele>2103.7</ele>
        <time>2020-09-02T13:48:34.004Z</time>
      </trkpt>
      <trkpt lat="42.48258" lon="2.40734">
        <ele>2103.3</ele>
        <time>2020-09-02T13:48:35.195Z</time>
      </trkpt>
      <trkpt lat="42.48262" lon="2.40736">
        <ele>2102.5</ele>
        <time>2020-09-02T13:48:36.199Z</time>
      </trkpt>
      <trkpt lat="42.48266" lon="2.40737">
        <ele>2101.6</ele>
        <time>2020-09-02T13:48:37.158Z</time>
      </trkpt>
      <trkpt lat="42.48271" lon="2.40737">
        <ele>2100</ele>
        <time>2020-09-02T13:48:38.336Z</time>
      </trkpt>
      <trkpt lat="42.48272" lon="2.40735">
        <ele>2099.5</ele>
        <time>2020-09-02T13:48:38.756Z</time>
      </trkpt>
      <trkpt lat="42.48271" lon="2.40731">
        <ele>2099.2</ele>
        <time>2020-09-02T13:48:39.490Z</time>
      </trkpt>
      <trkpt lat="42.48269" lon="2.40726">
        <ele>2098.6</ele>
        <time>2020-09-02T13:48:40.478Z</time>
      </trkpt>
      <trkpt lat="42.48266" lon="2.4072">
        <ele>2098</ele>
        <time>2020-09-02T13:48:41.738Z</time>
      </trkpt>
      <trkpt lat="42.48263" lon="2.40713">
        <ele>2097.4</ele>
        <time>2020-09-02T13:48:43.145Z</time>
      </trkpt>
      <trkpt lat="42.48257" lon="2.407">
        <ele>2096.4</ele>
        <time>2020-09-02T13:48:45.810Z</time>
      </trkpt>
      <trkpt lat="42.48259" lon="2.40699">
        <ele>2096.2</ele>
        <time>2020-09-02T13:48:46.312Z</time>
      </trkpt>
      <trkpt lat="42.48263" lon="2.40702">
        <ele>2096.2</ele>
        <time>2020-09-02T13:48:51.692Z</time>
      </trkpt>
      <trkpt lat="42.48266" lon="2.40705">
        <ele>2096.1</ele>
        <time>2020-09-02T13:48:52.845Z</time>
      </trkpt>
      <trkpt lat="42.48271" lon="2.40707">
        <ele>2095.8</ele>
        <time>2020-09-02T13:48:54.054Z</time>
      </trkpt>
      <trkpt lat="42.48276" lon="2.40708">
        <ele>2095.2</ele>
        <time>2020-09-02T13:48:55.245Z</time>
      </trkpt>
      <trkpt lat="42.48282" lon="2.40709">
        <ele>2094.5</ele>
        <time>2020-09-02T13:48:56.669Z</time>
      </trkpt>
      <trkpt lat="42.48287" lon="2.40709">
        <ele>2093.7</ele>
        <time>2020-09-02T13:48:57.847Z</time>
      </trkpt>
      <trkpt lat="42.48291" lon="2.40707">
        <ele>2093</ele>
        <time>2020-09-02T13:48:58.852Z</time>
      </trkpt>
      <trkpt lat="42.48295" lon="2.40704">
        <ele>2092.3</ele>
        <time>2020-09-02T13:48:59.929Z</time>
      </trkpt>
      <trkpt lat="42.483" lon="2.40702">
        <ele>2091.5</ele>
        <time>2020-09-02T13:49:01.157Z</time>
      </trkpt>
      <trkpt lat="42.48304" lon="2.40699">
        <ele>2090.8</ele>
        <time>2020-09-02T13:49:02.234Z</time>
      </trkpt>
      <trkpt lat="42.4831" lon="2.40697">
        <ele>2090</ele>
        <time>2020-09-02T13:49:03.690Z</time>
      </trkpt>
      <trkpt lat="42.48315" lon="2.40695">
        <ele>2089.3</ele>
        <time>2020-09-02T13:49:04.918Z</time>
      </trkpt>
      <trkpt lat="42.48319" lon="2.40693">
        <ele>2088.5</ele>
        <time>2020-09-02T13:49:05.923Z</time>
      </trkpt>
      <trkpt lat="42.48321" lon="2.4069">
        <ele>2088.1</ele>
        <time>2020-09-02T13:49:06.626Z</time>
      </trkpt>
      <trkpt lat="42.48327" lon="2.40683">
        <ele>2086.4</ele>
        <time>2020-09-02T13:49:08.491Z</time>
      </trkpt>
      <trkpt lat="42.48333" lon="2.40674">
        <ele>2083.8</ele>
        <time>2020-09-02T13:49:10.599Z</time>
      </trkpt>
      <trkpt lat="42.48343" lon="2.40667">
        <ele>2077.6</ele>
        <time>2020-09-02T13:49:13.251Z</time>
      </trkpt>
      <trkpt lat="42.48354" lon="2.40657">
        <ele>2078</ele>
        <time>2020-09-02T13:49:34.799Z</time>
      </trkpt>
      <trkpt lat="42.48367" lon="2.40651">
        <ele>2077.1</ele>
        <time>2020-09-02T13:49:37.789Z</time>
      </trkpt>
      <trkpt lat="42.48366" lon="2.40659">
        <ele>2077.3</ele>
        <time>2020-09-02T13:49:47.940Z</time>
      </trkpt>
      <trkpt lat="42.48368" lon="2.40664">
        <ele>2077.1</ele>
        <time>2020-09-02T13:49:48.997Z</time>
      </trkpt>
      <trkpt lat="42.48371" lon="2.40667">
        <ele>2072.4</ele>
        <time>2020-09-02T13:49:49.876Z</time>
      </trkpt>
      <trkpt lat="42.48377" lon="2.40667">
        <ele>2076.5</ele>
        <time>2020-09-02T13:50:17.114Z</time>
      </trkpt>
      <trkpt lat="42.48378" lon="2.40669">
        <ele>2071.6</ele>
        <time>2020-09-02T13:50:17.534Z</time>
      </trkpt>
      <trkpt lat="42.48381" lon="2.40667">
        <ele>2071.3</ele>
        <time>2020-09-02T13:50:18.322Z</time>
      </trkpt>
      <trkpt lat="42.48384" lon="2.40668">
        <ele>2071.1</ele>
        <time>2020-09-02T13:50:18.998Z</time>
      </trkpt>
      <trkpt lat="42.48386" lon="2.40672">
        <ele>2070.8</ele>
        <time>2020-09-02T13:50:19.838Z</time>
      </trkpt>
      <trkpt lat="42.48389" lon="2.40668">
        <ele>2070.7</ele>
        <time>2020-09-02T13:50:21.184Z</time>
      </trkpt>
      <trkpt lat="42.48395" lon="2.40668">
        <ele>2070.5</ele>
        <time>2020-09-02T13:50:22.917Z</time>
      </trkpt>
      <trkpt lat="42.48399" lon="2.4067">
        <ele>2070.3</ele>
        <time>2020-09-02T13:50:23.999Z</time>
      </trkpt>
      <trkpt lat="42.48401" lon="2.40675">
        <ele>2070</ele>
        <time>2020-09-02T13:50:24.988Z</time>
      </trkpt>
      <trkpt lat="42.484" lon="2.4068">
        <ele>2069.7</ele>
        <time>2020-09-02T13:50:25.888Z</time>
      </trkpt>
      <trkpt lat="42.48399" lon="2.40683">
        <ele>2069.6</ele>
        <time>2020-09-02T13:50:26.538Z</time>
      </trkpt>
      <trkpt lat="42.48403" lon="2.40685">
        <ele>2069.3</ele>
        <time>2020-09-02T13:50:27.542Z</time>
      </trkpt>
      <trkpt lat="42.48408" lon="2.40686">
        <ele>2069.1</ele>
        <time>2020-09-02T13:50:28.915Z</time>
      </trkpt>
      <trkpt lat="42.48411" lon="2.40689">
        <ele>2068.6</ele>
        <time>2020-09-02T13:50:29.793Z</time>
      </trkpt>
      <trkpt lat="42.48407" lon="2.40693">
        <ele>2068.2</ele>
        <time>2020-09-02T13:50:30.965Z</time>
      </trkpt>
      <trkpt lat="42.48405" lon="2.40698">
        <ele>2067.7</ele>
        <time>2020-09-02T13:50:31.953Z</time>
      </trkpt>
      <trkpt lat="42.48403" lon="2.40705">
        <ele>2066.8</ele>
        <time>2020-09-02T13:50:33.257Z</time>
      </trkpt>
      <trkpt lat="42.48401" lon="2.40712">
        <ele>2065.9</ele>
        <time>2020-09-02T13:50:34.562Z</time>
      </trkpt>
      <trkpt lat="42.48398" lon="2.40721">
        <ele>2064.5</ele>
        <time>2020-09-02T13:50:36.278Z</time>
      </trkpt>
      <trkpt lat="42.48397" lon="2.40729">
        <ele>2062.9</ele>
        <time>2020-09-02T13:50:37.688Z</time>
      </trkpt>
      <trkpt lat="42.48394" lon="2.40746">
        <ele>2060.9</ele>
        <time>2020-09-02T13:50:40.726Z</time>
      </trkpt>
      <trkpt lat="42.48394" lon="2.40756">
        <ele>2053</ele>
        <time>2020-09-02T13:50:42.463Z</time>
      </trkpt>
      <trkpt lat="42.484" lon="2.40766">
        <ele>2051.8</ele>
        <time>2020-09-02T13:50:44.704Z</time>
      </trkpt>
      <trkpt lat="42.484" lon="2.40767">
        <ele>2051.8</ele>
        <time>2020-09-02T13:50:45.571Z</time>
        <extensions>
          <visugpx:TrkExtension xmlns:visugpx="https://www.visugpx.com/editgpx/">
            <visugpx:node>14</visugpx:node>
            </visugpx:TrkExtension>
        </extensions>
      </trkpt>
      <trkpt lat="42.48401" lon="2.40774">
        <ele>2051.6</ele>
        <time>2020-09-02T13:50:47.021Z</time>
      </trkpt>
      <trkpt lat="42.48405" lon="2.40782">
        <ele>2050.7</ele>
        <time>2020-09-02T13:50:48.701Z</time>
      </trkpt>
      <trkpt lat="42.48408" lon="2.40794">
        <ele>2049</ele>
        <time>2020-09-02T13:50:50.902Z</time>
      </trkpt>
      <trkpt lat="42.48409" lon="2.40804">
        <ele>2046.3</ele>
        <time>2020-09-02T13:50:52.656Z</time>
      </trkpt>
      <trkpt lat="42.4841" lon="2.40817">
        <ele>2041.4</ele>
        <time>2020-09-02T13:50:54.927Z</time>
      </trkpt>
      <trkpt lat="42.48413" lon="2.40839">
        <ele>2030.3</ele>
        <time>2020-09-02T13:50:58.815Z</time>
      </trkpt>
      <trkpt lat="42.48423" lon="2.40855">
        <ele>2021.2</ele>
        <time>2020-09-02T13:51:02.460Z</time>
      </trkpt>
      <trkpt lat="42.48429" lon="2.40876">
        <ele>2017.9</ele>
        <time>2020-09-02T13:51:06.373Z</time>
      </trkpt>
      <trkpt lat="42.48431" lon="2.40895">
        <ele>2015.7</ele>
        <time>2020-09-02T13:51:09.708Z</time>
      </trkpt>
      <trkpt lat="42.4843" lon="2.40909">
        <ele>2014.5</ele>
        <time>2020-09-02T13:51:12.152Z</time>
      </trkpt>
      <trkpt lat="42.4843" lon="2.40929">
        <ele>2003.4</ele>
        <time>2020-09-02T13:51:15.628Z</time>
      </trkpt>
      <trkpt lat="42.48432" lon="2.40936">
        <ele>2001</ele>
        <time>2020-09-02T13:51:16.932Z</time>
      </trkpt>
      <trkpt lat="42.4843" lon="2.40954">
        <ele>1997.1</ele>
        <time>2020-09-02T13:51:20.095Z</time>
      </trkpt>
      <trkpt lat="42.48435" lon="2.40974">
        <ele>1993.8</ele>
        <time>2020-09-02T13:51:23.765Z</time>
      </trkpt>
      <trkpt lat="42.48434" lon="2.40989">
        <ele>1992.8</ele>
        <time>2020-09-02T13:51:26.382Z</time>
      </trkpt>
      <trkpt lat="42.48436" lon="2.40996">
        <ele>1992.4</ele>
        <time>2020-09-02T13:51:27.687Z</time>
      </trkpt>
      <trkpt lat="42.48433" lon="2.41009">
        <ele>1980.1</ele>
        <time>2020-09-02T13:51:30.054Z</time>
      </trkpt>
      <trkpt lat="42.48431" lon="2.41033">
        <ele>1973.9</ele>
        <time>2020-09-02T13:51:34.251Z</time>
      </trkpt>
      <trkpt lat="42.48428" lon="2.41053">
        <ele>1970.7</ele>
        <time>2020-09-02T13:51:37.797Z</time>
      </trkpt>
      <trkpt lat="42.48429" lon="2.41068">
        <ele>1969.6</ele>
        <time>2020-09-02T13:51:40.414Z</time>
      </trkpt>
      <trkpt lat="42.48427" lon="2.41074">
        <ele>1969.9</ele>
        <time>2020-09-02T13:51:51.243Z</time>
      </trkpt>
      <trkpt lat="42.48427" lon="2.4108">
        <ele>1970</ele>
        <time>2020-09-02T13:51:57.811Z</time>
      </trkpt>
      <trkpt lat="42.48428" lon="2.41082">
        <ele>1969.9</ele>
        <time>2020-09-02T13:51:58.229Z</time>
      </trkpt>
      <trkpt lat="42.4843" lon="2.41082">
        <ele>1969.5</ele>
        <time>2020-09-02T13:51:58.700Z</time>
      </trkpt>
      <trkpt lat="42.48431" lon="2.41085">
        <ele>1960.6</ele>
        <time>2020-09-02T13:51:59.272Z</time>
      </trkpt>
      <trkpt lat="42.48432" lon="2.41087">
        <ele>1959.5</ele>
        <time>2020-09-02T13:51:59.692Z</time>
      </trkpt>
      <trkpt lat="42.48435" lon="2.41088">
        <ele>1958</ele>
        <time>2020-09-02T13:52:00.420Z</time>
      </trkpt>
      <trkpt lat="42.48441" lon="2.41089">
        <ele>1954.7</ele>
        <time>2020-09-02T13:52:01.844Z</time>
      </trkpt>
      <trkpt lat="42.48444" lon="2.41083">
        <ele>1966.6</ele>
        <time>2020-09-02T13:52:26.113Z</time>
      </trkpt>
      <trkpt lat="42.48448" lon="2.41085">
        <ele>1952.3</ele>
        <time>2020-09-02T13:52:27.118Z</time>
      </trkpt>
      <trkpt lat="42.48451" lon="2.41087">
        <ele>1951.4</ele>
        <time>2020-09-02T13:52:27.906Z</time>
      </trkpt>
      <trkpt lat="42.48451" lon="2.41091">
        <ele>1951.2</ele>
        <time>2020-09-02T13:52:28.601Z</time>
      </trkpt>
      <trkpt lat="42.48452" lon="2.41092">
        <ele>1950.6</ele>
        <time>2020-09-02T13:52:28.893Z</time>
      </trkpt>
      <trkpt lat="42.48451" lon="2.41097">
        <ele>1950.3</ele>
        <time>2020-09-02T13:52:29.794Z</time>
      </trkpt>
      <trkpt lat="42.48453" lon="2.41097">
        <ele>1949.8</ele>
        <time>2020-09-02T13:52:30.265Z</time>
      </trkpt>
      <trkpt lat="42.48456" lon="2.41096">
        <ele>1949.2</ele>
        <time>2020-09-02T13:52:30.993Z</time>
      </trkpt>
      <trkpt lat="42.48457" lon="2.41095">
        <ele>1948.8</ele>
        <time>2020-09-02T13:52:31.286Z</time>
      </trkpt>
      <trkpt lat="42.48458" lon="2.41097">
        <ele>1948.4</ele>
        <time>2020-09-02T13:52:31.705Z</time>
      </trkpt>
      <trkpt lat="42.48458" lon="2.411">
        <ele>1948.3</ele>
        <time>2020-09-02T13:52:32.276Z</time>
      </trkpt>
      <trkpt lat="42.48458" lon="2.41104">
        <ele>1948</ele>
        <time>2020-09-02T13:52:32.971Z</time>
      </trkpt>
      <trkpt lat="42.48458" lon="2.41106">
        <ele>1947.7</ele>
        <time>2020-09-02T13:52:33.318Z</time>
      </trkpt>
      <trkpt lat="42.4846" lon="2.41108">
        <ele>1947.1</ele>
        <time>2020-09-02T13:52:33.904Z</time>
      </trkpt>
      <trkpt lat="42.48462" lon="2.4111">
        <ele>1946.4</ele>
        <time>2020-09-02T13:52:34.490Z</time>
      </trkpt>
      <trkpt lat="42.48463" lon="2.41114">
        <ele>1945.8</ele>
        <time>2020-09-02T13:52:35.223Z</time>
      </trkpt>
      <trkpt lat="42.48465" lon="2.41117">
        <ele>1945.1</ele>
        <time>2020-09-02T13:52:35.926Z</time>
      </trkpt>
      <trkpt lat="42.48467" lon="2.4112">
        <ele>1944.5</ele>
        <time>2020-09-02T13:52:36.629Z</time>
      </trkpt>
      <trkpt lat="42.48468" lon="2.41126">
        <ele>1943.8</ele>
        <time>2020-09-02T13:52:37.698Z</time>
      </trkpt>
      <trkpt lat="42.48468" lon="2.41132">
        <ele>1943</ele>
        <time>2020-09-02T13:52:38.740Z</time>
      </trkpt>
      <trkpt lat="42.48471" lon="2.41138">
        <ele>1941.6</ele>
        <time>2020-09-02T13:52:40.000Z</time>
      </trkpt>
      <trkpt lat="42.48472" lon="2.41143">
        <ele>1940.6</ele>
        <time>2020-09-02T13:52:40.900Z</time>
      </trkpt>
      <trkpt lat="42.48473" lon="2.41151">
        <ele>1939.2</ele>
        <time>2020-09-02T13:52:42.310Z</time>
      </trkpt>
      <trkpt lat="42.48473" lon="2.41155">
        <ele>1938.8</ele>
        <time>2020-09-02T13:52:43.005Z</time>
      </trkpt>
      <trkpt lat="42.48473" lon="2.41159">
        <ele>1938.2</ele>
        <time>2020-09-02T13:52:43.700Z</time>
      </trkpt>
      <trkpt lat="42.48473" lon="2.41162">
        <ele>1937.9</ele>
        <time>2020-09-02T13:52:44.222Z</time>
      </trkpt>
      <trkpt lat="42.48475" lon="2.41164">
        <ele>1937.3</ele>
        <time>2020-09-02T13:52:44.807Z</time>
      </trkpt>
      <trkpt lat="42.48477" lon="2.41165">
        <ele>1936.5</ele>
        <time>2020-09-02T13:52:45.310Z</time>
      </trkpt>
      <trkpt lat="42.4848" lon="2.41165">
        <ele>1935.2</ele>
        <time>2020-09-02T13:52:46.016Z</time>
      </trkpt>
      <trkpt lat="42.48482" lon="2.41165">
        <ele>1934.3</ele>
        <time>2020-09-02T13:52:46.488Z</time>
      </trkpt>
      <trkpt lat="42.48484" lon="2.41166">
        <ele>1933.5</ele>
        <time>2020-09-02T13:52:46.990Z</time>
      </trkpt>
      <trkpt lat="42.48485" lon="2.41167">
        <ele>1933.1</ele>
        <time>2020-09-02T13:52:47.283Z</time>
      </trkpt>
      <trkpt lat="42.48484" lon="2.41169">
        <ele>1925.8</ele>
        <time>2020-09-02T13:52:47.703Z</time>
      </trkpt>
      <trkpt lat="42.48485" lon="2.41172">
        <ele>1925.6</ele>
        <time>2020-09-02T13:52:48.275Z</time>
      </trkpt>
      <trkpt lat="42.48487" lon="2.41173">
        <ele>1925.3</ele>
        <time>2020-09-02T13:52:48.777Z</time>
      </trkpt>
      <trkpt lat="42.48488" lon="2.4118">
        <ele>1925.3</ele>
        <time>2020-09-02T13:52:54.966Z</time>
      </trkpt>
      <trkpt lat="42.48488" lon="2.41184">
        <ele>1925.3</ele>
        <time>2020-09-02T13:52:58.438Z</time>
      </trkpt>
      <trkpt lat="42.4849" lon="2.41185">
        <ele>1925</ele>
        <time>2020-09-02T13:52:58.940Z</time>
      </trkpt>
      <trkpt lat="42.48492" lon="2.41186">
        <ele>1924.9</ele>
        <time>2020-09-02T13:52:59.481Z</time>
      </trkpt>
      <trkpt lat="42.48493" lon="2.41187">
        <ele>1924.7</ele>
        <time>2020-09-02T13:52:59.774Z</time>
      </trkpt>
      <trkpt lat="42.48494" lon="2.4119">
        <ele>1924.6</ele>
        <time>2020-09-02T13:53:00.423Z</time>
      </trkpt>
      <trkpt lat="42.48495" lon="2.41196">
        <ele>1924.2</ele>
        <time>2020-09-02T13:53:01.492Z</time>
      </trkpt>
      <trkpt lat="42.48497" lon="2.41196">
        <ele>1924</ele>
        <time>2020-09-02T13:53:01.963Z</time>
      </trkpt>
      <trkpt lat="42.48499" lon="2.41201">
        <ele>1923.4</ele>
        <time>2020-09-02T13:53:02.952Z</time>
      </trkpt>
      <trkpt lat="42.485" lon="2.41204">
        <ele>1923</ele>
        <time>2020-09-02T13:53:03.524Z</time>
      </trkpt>
      <trkpt lat="42.48502" lon="2.41207">
        <ele>1907.6</ele>
        <time>2020-09-02T13:53:04.227Z</time>
      </trkpt>
      <trkpt lat="42.48503" lon="2.41209">
        <ele>1907.1</ele>
        <time>2020-09-02T13:53:04.647Z</time>
      </trkpt>
      <trkpt lat="42.48503" lon="2.41213">
        <ele>1906.5</ele>
        <time>2020-09-02T13:53:05.342Z</time>
      </trkpt>
      <trkpt lat="42.48503" lon="2.41216">
        <ele>1905.9</ele>
        <time>2020-09-02T13:53:05.863Z</time>
      </trkpt>
      <trkpt lat="42.48503" lon="2.41222">
        <ele>1905.3</ele>
        <time>2020-09-02T13:53:06.905Z</time>
      </trkpt>
      <trkpt lat="42.48502" lon="2.41223">
        <ele>1905.1</ele>
        <time>2020-09-02T13:53:07.198Z</time>
      </trkpt>
      <trkpt lat="42.48502" lon="2.41228">
        <ele>1904.7</ele>
        <time>2020-09-02T13:53:08.067Z</time>
      </trkpt>
      <trkpt lat="42.48502" lon="2.4123">
        <ele>1904.5</ele>
        <time>2020-09-02T13:53:08.415Z</time>
      </trkpt>
      <trkpt lat="42.48503" lon="2.41231">
        <ele>1904.4</ele>
        <time>2020-09-02T13:53:08.707Z</time>
      </trkpt>
      <trkpt lat="42.48505" lon="2.41231">
        <ele>1904.3</ele>
        <time>2020-09-02T13:53:09.202Z</time>
      </trkpt>
      <trkpt lat="42.48507" lon="2.41235">
        <ele>1904</ele>
        <time>2020-09-02T13:53:10.041Z</time>
      </trkpt>
      <trkpt lat="42.48509" lon="2.4124">
        <ele>1903.8</ele>
        <time>2020-09-02T13:53:11.099Z</time>
      </trkpt>
      <trkpt lat="42.48511" lon="2.41244">
        <ele>1903.6</ele>
        <time>2020-09-02T13:53:11.935Z</time>
      </trkpt>
      <trkpt lat="42.48509" lon="2.4125">
        <ele>1898.3</ele>
        <time>2020-09-02T13:53:13.079Z</time>
      </trkpt>
      <trkpt lat="42.48507" lon="2.41253">
        <ele>1899</ele>
        <time>2020-09-02T13:53:26.619Z</time>
      </trkpt>
      <trkpt lat="42.48506" lon="2.4126">
        <ele>1896.6</ele>
        <time>2020-09-02T13:53:27.857Z</time>
      </trkpt>
      <trkpt lat="42.48507" lon="2.41265">
        <ele>1894.4</ele>
        <time>2020-09-02T13:53:28.758Z</time>
      </trkpt>
      <trkpt lat="42.48509" lon="2.41268">
        <ele>1893.1</ele>
        <time>2020-09-02T13:53:29.460Z</time>
      </trkpt>
      <trkpt lat="42.48508" lon="2.41274">
        <ele>1891.6</ele>
        <time>2020-09-02T13:53:30.529Z</time>
      </trkpt>
      <trkpt lat="42.48507" lon="2.41278">
        <ele>1890.5</ele>
        <time>2020-09-02T13:53:31.263Z</time>
      </trkpt>
      <trkpt lat="42.48506" lon="2.4128">
        <ele>1890.2</ele>
        <time>2020-09-02T13:53:31.683Z</time>
      </trkpt>
      <trkpt lat="42.48505" lon="2.41286">
        <ele>1889</ele>
        <time>2020-09-02T13:53:32.752Z</time>
      </trkpt>
      <trkpt lat="42.48506" lon="2.41289">
        <ele>1888.3</ele>
        <time>2020-09-02T13:53:33.324Z</time>
      </trkpt>
      <trkpt lat="42.48528" lon="2.41275">
        <ele>1888.1</ele>
        <time>2020-09-02T13:53:42.741Z</time>
      </trkpt>
      <trkpt lat="42.48535" lon="2.4127">
        <ele>1887.5</ele>
        <time>2020-09-02T13:53:44.605Z</time>
      </trkpt>
      <trkpt lat="42.48542" lon="2.41266">
        <ele>1886.7</ele>
        <time>2020-09-02T13:53:46.395Z</time>
      </trkpt>
      <trkpt lat="42.48548" lon="2.41264">
        <ele>1885.8</ele>
        <time>2020-09-02T13:53:47.851Z</time>
      </trkpt>
      <trkpt lat="42.48559" lon="2.41257">
        <ele>1884.6</ele>
        <time>2020-09-02T13:53:50.714Z</time>
      </trkpt>
      <trkpt lat="42.48563" lon="2.41254">
        <ele>1884.1</ele>
        <time>2020-09-02T13:53:51.791Z</time>
      </trkpt>
      <trkpt lat="42.48568" lon="2.41249">
        <ele>1891.9</ele>
        <time>2020-09-02T13:54:19.995Z</time>
      </trkpt>
      <trkpt lat="42.48571" lon="2.41245">
        <ele>1890.9</ele>
        <time>2020-09-02T13:54:20.986Z</time>
      </trkpt>
      <trkpt lat="42.48574" lon="2.4124">
        <ele>1891.2</ele>
        <time>2020-09-02T13:54:31.688Z</time>
      </trkpt>
      <trkpt lat="42.48577" lon="2.41234">
        <ele>1892.8</ele>
        <time>2020-09-02T13:54:55.956Z</time>
      </trkpt>
      <trkpt lat="42.48579" lon="2.41228">
        <ele>1894.6</ele>
        <time>2020-09-02T13:55:18.000Z</time>
      </trkpt>
      <trkpt lat="42.48581" lon="2.41223">
        <ele>1896.1</ele>
        <time>2020-09-02T13:55:37.043Z</time>
      </trkpt>
      <trkpt lat="42.48583" lon="2.41219">
        <ele>1897.2</ele>
        <time>2020-09-02T13:55:53.222Z</time>
      </trkpt>
      <trkpt lat="42.48587" lon="2.41217">
        <ele>1893.9</ele>
        <time>2020-09-02T13:55:54.226Z</time>
      </trkpt>
      <trkpt lat="42.48592" lon="2.41218">
        <ele>1893.7</ele>
        <time>2020-09-02T13:55:55.599Z</time>
      </trkpt>
      <trkpt lat="42.48594" lon="2.4122">
        <ele>1893.4</ele>
        <time>2020-09-02T13:55:56.185Z</time>
      </trkpt>
      <trkpt lat="42.48596" lon="2.41222">
        <ele>1893.1</ele>
        <time>2020-09-02T13:55:56.770Z</time>
      </trkpt>
      <trkpt lat="42.486" lon="2.41225">
        <ele>1892.6</ele>
        <time>2020-09-02T13:55:57.847Z</time>
      </trkpt>
      <trkpt lat="42.48622" lon="2.41241">
        <ele>1892.5</ele>
        <time>2020-09-02T13:56:25.531Z</time>
      </trkpt>
      <trkpt lat="42.48628" lon="2.4124">
        <ele>1892.8</ele>
        <time>2020-09-02T13:56:37.941Z</time>
      </trkpt>
      <trkpt lat="42.48631" lon="2.41239">
        <ele>1893</ele>
        <time>2020-09-02T13:56:44.978Z</time>
      </trkpt>
      <trkpt lat="42.48638" lon="2.4124">
        <ele>1892.8</ele>
        <time>2020-09-02T13:56:47.118Z</time>
      </trkpt>
      <trkpt lat="42.4864" lon="2.41241">
        <ele>1892.5</ele>
        <time>2020-09-02T13:56:47.621Z</time>
      </trkpt>
      <trkpt lat="42.48641" lon="2.41244">
        <ele>1892.2</ele>
        <time>2020-09-02T13:56:48.193Z</time>
      </trkpt>
      <trkpt lat="42.48647" lon="2.41262">
        <ele>1877.7</ele>
        <time>2020-09-02T13:56:51.625Z</time>
      </trkpt>
      <trkpt lat="42.48652" lon="2.41266">
        <ele>1877.6</ele>
        <time>2020-09-02T13:56:53.629Z</time>
      </trkpt>
      <trkpt lat="42.48657" lon="2.41269">
        <ele>1877.5</ele>
        <time>2020-09-02T13:56:55.493Z</time>
      </trkpt>
      <trkpt lat="42.48662" lon="2.41272">
        <ele>1876.8</ele>
        <time>2020-09-02T13:56:56.781Z</time>
      </trkpt>
      <trkpt lat="42.48685" lon="2.41284">
        <ele>1874.5</ele>
        <time>2020-09-02T13:57:02.588Z</time>
      </trkpt>
      <trkpt lat="42.48694" lon="2.41287">
        <ele>1873.8</ele>
        <time>2020-09-02T13:57:04.772Z</time>
      </trkpt>
      <trkpt lat="42.48703" lon="2.41291">
        <ele>1873.3</ele>
        <time>2020-09-02T13:57:07.056Z</time>
      </trkpt>
      <trkpt lat="42.48712" lon="2.41294">
        <ele>1872.9</ele>
        <time>2020-09-02T13:57:09.491Z</time>
      </trkpt>
      <trkpt lat="42.48717" lon="2.41296">
        <ele>1872.5</ele>
        <time>2020-09-02T13:57:10.719Z</time>
      </trkpt>
      <trkpt lat="42.48724" lon="2.413">
        <ele>1871.5</ele>
        <time>2020-09-02T13:57:12.509Z</time>
      </trkpt>
      <trkpt lat="42.48731" lon="2.41304">
        <ele>1870.2</ele>
        <time>2020-09-02T13:57:14.299Z</time>
      </trkpt>
      <trkpt lat="42.48736" lon="2.41309">
        <ele>1868.6</ele>
        <time>2020-09-02T13:57:15.763Z</time>
      </trkpt>
      <trkpt lat="42.48741" lon="2.41313">
        <ele>1866.5</ele>
        <time>2020-09-02T13:57:17.131Z</time>
      </trkpt>
      <trkpt lat="42.48745" lon="2.41317">
        <ele>1864.7</ele>
        <time>2020-09-02T13:57:18.302Z</time>
      </trkpt>
      <trkpt lat="42.4875" lon="2.4132">
        <ele>1863.4</ele>
        <time>2020-09-02T13:57:19.590Z</time>
      </trkpt>
      <trkpt lat="42.48756" lon="2.41322">
        <ele>1862.9</ele>
        <time>2020-09-02T13:57:21.046Z</time>
      </trkpt>
      <trkpt lat="42.48761" lon="2.41324">
        <ele>1863.6</ele>
        <time>2020-09-02T13:57:44.711Z</time>
      </trkpt>
      <trkpt lat="42.48767" lon="2.41325">
        <ele>1864.7</ele>
        <time>2020-09-02T13:58:12.155Z</time>
      </trkpt>
      <trkpt lat="42.48775" lon="2.41329">
        <ele>1865.8</ele>
        <time>2020-09-02T13:58:48.536Z</time>
      </trkpt>
      <trkpt lat="42.48782" lon="2.41332">
        <ele>1866.2</ele>
        <time>2020-09-02T13:59:04.102Z</time>
      </trkpt>
      <trkpt lat="42.4879" lon="2.41337">
        <ele>1846.4</ele>
        <time>2020-09-02T13:59:06.178Z</time>
      </trkpt>
      <trkpt lat="42.48796" lon="2.4134">
        <ele>1846.1</ele>
        <time>2020-09-02T13:59:07.801Z</time>
      </trkpt>
      <trkpt lat="42.48802" lon="2.41342">
        <ele>1845.9</ele>
        <time>2020-09-02T13:59:09.603Z</time>
      </trkpt>
      <trkpt lat="42.48808" lon="2.41344">
        <ele>1846</ele>
        <time>2020-09-02T13:59:18.141Z</time>
      </trkpt>
      <trkpt lat="42.48818" lon="2.41347">
        <ele>1846.5</ele>
        <time>2020-09-02T13:59:39.057Z</time>
      </trkpt>
      <trkpt lat="42.4882" lon="2.41348">
        <ele>1846.5</ele>
        <time>2020-09-02T13:59:41.566Z</time>
        <extensions>
          <visugpx:TrkExtension xmlns:visugpx="https://www.visugpx.com/editgpx/">
            <visugpx:node>15</visugpx:node>
            </visugpx:TrkExtension>
        </extensions>
      </trkpt>
      <trkpt lat="42.48826" lon="2.41351">
        <ele>1846.2</ele>
        <time>2020-09-02T13:59:43.189Z</time>
      </trkpt>
      <trkpt lat="42.48832" lon="2.41355">
        <ele>1845.5</ele>
        <time>2020-09-02T13:59:44.765Z</time>
      </trkpt>
      <trkpt lat="42.48837" lon="2.41357">
        <ele>1838.5</ele>
        <time>2020-09-02T13:59:45.993Z</time>
      </trkpt>
      <trkpt lat="42.48842" lon="2.4136">
        <ele>1837</ele>
        <time>2020-09-02T13:59:47.281Z</time>
      </trkpt>
      <trkpt lat="42.48855" lon="2.4136">
        <ele>1835.3</ele>
        <time>2020-09-02T13:59:50.344Z</time>
      </trkpt>
      <trkpt lat="42.48861" lon="2.41358">
        <ele>1834.8</ele>
        <time>2020-09-02T13:59:51.800Z</time>
      </trkpt>
      <trkpt lat="42.48866" lon="2.41356">
        <ele>1834.4</ele>
        <time>2020-09-02T13:59:53.029Z</time>
      </trkpt>
      <trkpt lat="42.4887" lon="2.41354">
        <ele>1834.1</ele>
        <time>2020-09-02T13:59:54.033Z</time>
      </trkpt>
      <trkpt lat="42.48878" lon="2.4135">
        <ele>1833.4</ele>
        <time>2020-09-02T13:59:56.042Z</time>
      </trkpt>
      <trkpt lat="42.48885" lon="2.41345">
        <ele>1833</ele>
        <time>2020-09-02T13:59:57.988Z</time>
      </trkpt>
      <trkpt lat="42.48905" lon="2.41332">
        <ele>1843</ele>
        <time>2020-09-02T14:01:38.673Z</time>
      </trkpt>
      <trkpt lat="42.48923" lon="2.41322">
        <ele>1833.8</ele>
        <time>2020-09-02T14:01:43.257Z</time>
      </trkpt>
      <trkpt lat="42.48932" lon="2.41317">
        <ele>1833.8</ele>
        <time>2020-09-02T14:01:54.704Z</time>
      </trkpt>
      <trkpt lat="42.48941" lon="2.41312">
        <ele>1833.5</ele>
        <time>2020-09-02T14:01:57.586Z</time>
      </trkpt>
      <trkpt lat="42.48948" lon="2.41308">
        <ele>1833.2</ele>
        <time>2020-09-02T14:01:59.651Z</time>
      </trkpt>
      <trkpt lat="42.48954" lon="2.41302">
        <ele>1833.2</ele>
        <time>2020-09-02T14:02:08.425Z</time>
      </trkpt>
      <trkpt lat="42.4896" lon="2.41296">
        <ele>1833.1</ele>
        <time>2020-09-02T14:02:11.123Z</time>
      </trkpt>
      <trkpt lat="42.48968" lon="2.41289">
        <ele>1833</ele>
        <time>2020-09-02T14:02:14.702Z</time>
      </trkpt>
      <trkpt lat="42.48975" lon="2.41283">
        <ele>1833.2</ele>
        <time>2020-09-02T14:02:27.217Z</time>
      </trkpt>
      <trkpt lat="42.48982" lon="2.41277">
        <ele>1833.4</ele>
        <time>2020-09-02T14:02:39.732Z</time>
      </trkpt>
      <trkpt lat="42.48988" lon="2.41272">
        <ele>1833.8</ele>
        <time>2020-09-02T14:02:54.901Z</time>
      </trkpt>
      <trkpt lat="42.48994" lon="2.41267">
        <ele>1834.3</ele>
        <time>2020-09-02T14:03:11.706Z</time>
      </trkpt>
      <trkpt lat="42.49001" lon="2.41263">
        <ele>1822.2</ele>
        <time>2020-09-02T14:03:13.496Z</time>
      </trkpt>
      <trkpt lat="42.49008" lon="2.41259">
        <ele>1822.8</ele>
        <time>2020-09-02T14:03:32.794Z</time>
      </trkpt>
      <trkpt lat="42.49016" lon="2.41254">
        <ele>1819.3</ele>
        <time>2020-09-02T14:03:34.869Z</time>
      </trkpt>
      <trkpt lat="42.49024" lon="2.41249">
        <ele>1829.9</ele>
        <time>2020-09-02T14:04:14.859Z</time>
      </trkpt>
      <trkpt lat="42.49032" lon="2.41243">
        <ele>1828</ele>
        <time>2020-09-02T14:04:17.013Z</time>
      </trkpt>
      <trkpt lat="42.49038" lon="2.41237">
        <ele>1826.5</ele>
        <time>2020-09-02T14:04:18.769Z</time>
      </trkpt>
      <trkpt lat="42.49046" lon="2.41227">
        <ele>1825.2</ele>
        <time>2020-09-02T14:04:21.333Z</time>
      </trkpt>
      <trkpt lat="42.49051" lon="2.4122">
        <ele>1824.9</ele>
        <time>2020-09-02T14:04:23.245Z</time>
      </trkpt>
      <trkpt lat="42.49056" lon="2.41213">
        <ele>1825.1</ele>
        <time>2020-09-02T14:04:34.597Z</time>
      </trkpt>
      <trkpt lat="42.49061" lon="2.41206">
        <ele>1825.3</ele>
        <time>2020-09-02T14:04:45.949Z</time>
      </trkpt>
      <trkpt lat="42.49068" lon="2.41198">
        <ele>1825.4</ele>
        <time>2020-09-02T14:04:57.921Z</time>
      </trkpt>
      <trkpt lat="42.49073" lon="2.41192">
        <ele>1825.3</ele>
        <time>2020-09-02T14:05:00.291Z</time>
      </trkpt>
      <trkpt lat="42.49078" lon="2.41186">
        <ele>1824.9</ele>
        <time>2020-09-02T14:05:01.810Z</time>
      </trkpt>
      <trkpt lat="42.49083" lon="2.41181">
        <ele>1824.4</ele>
        <time>2020-09-02T14:05:03.274Z</time>
      </trkpt>
      <trkpt lat="42.49087" lon="2.41176">
        <ele>1812.6</ele>
        <time>2020-09-02T14:05:04.556Z</time>
      </trkpt>
      <trkpt lat="42.4909" lon="2.41171">
        <ele>1814.3</ele>
        <time>2020-09-02T14:05:26.134Z</time>
      </trkpt>
      <trkpt lat="42.49093" lon="2.41166">
        <ele>1823.7</ele>
        <time>2020-09-02T14:05:47.712Z</time>
      </trkpt>
      <trkpt lat="42.49112" lon="2.41162">
        <ele>1823.8</ele>
        <time>2020-09-02T14:06:11.475Z</time>
      </trkpt>
      <trkpt lat="42.49117" lon="2.41162">
        <ele>1823</ele>
        <time>2020-09-02T14:06:12.653Z</time>
      </trkpt>
      <trkpt lat="42.49126" lon="2.41163">
        <ele>1821.2</ele>
        <time>2020-09-02T14:06:14.781Z</time>
      </trkpt>
      <trkpt lat="42.49133" lon="2.41162">
        <ele>1819.1</ele>
        <time>2020-09-02T14:06:16.439Z</time>
      </trkpt>
      <trkpt lat="42.49141" lon="2.41161">
        <ele>1816.3</ele>
        <time>2020-09-02T14:06:18.332Z</time>
      </trkpt>
      <trkpt lat="42.49149" lon="2.41158">
        <ele>1813.3</ele>
        <time>2020-09-02T14:06:20.288Z</time>
      </trkpt>
      <trkpt lat="42.49157" lon="2.41155">
        <ele>1810.5</ele>
        <time>2020-09-02T14:06:22.244Z</time>
      </trkpt>
      <trkpt lat="42.49164" lon="2.41152">
        <ele>1810.3</ele>
        <time>2020-09-02T14:06:24.504Z</time>
      </trkpt>
      <trkpt lat="42.49173" lon="2.41147">
        <ele>1797.9</ele>
        <time>2020-09-02T14:06:26.795Z</time>
      </trkpt>
      <trkpt lat="42.49179" lon="2.41143">
        <ele>1798.3</ele>
        <time>2020-09-02T14:06:41.502Z</time>
      </trkpt>
      <trkpt lat="42.49188" lon="2.41138">
        <ele>1798.6</ele>
        <time>2020-09-02T14:06:57.457Z</time>
      </trkpt>
      <trkpt lat="42.49202" lon="2.41127">
        <ele>1798.6</ele>
        <time>2020-09-02T14:07:16.500Z</time>
      </trkpt>
      <trkpt lat="42.49217" lon="2.41119">
        <ele>1797.4</ele>
        <time>2020-09-02T14:07:20.298Z</time>
      </trkpt>
      <trkpt lat="42.49248" lon="2.41094">
        <ele>1796.9</ele>
        <time>2020-09-02T14:07:33.279Z</time>
      </trkpt>
      <trkpt lat="42.49254" lon="2.4109">
        <ele>1788.4</ele>
        <time>2020-09-02T14:07:34.854Z</time>
      </trkpt>
      <trkpt lat="42.4926" lon="2.41085">
        <ele>1786.1</ele>
        <time>2020-09-02T14:07:36.513Z</time>
      </trkpt>
      <trkpt lat="42.49266" lon="2.41082">
        <ele>1797.4</ele>
        <time>2020-09-02T14:08:05.544Z</time>
      </trkpt>
      <trkpt lat="42.49271" lon="2.41077">
        <ele>1797.3</ele>
        <time>2020-09-02T14:08:07.718Z</time>
      </trkpt>
      <trkpt lat="42.49276" lon="2.41072">
        <ele>1797.3</ele>
        <time>2020-09-02T14:08:15.030Z</time>
      </trkpt>
      <trkpt lat="42.49279" lon="2.41065">
        <ele>1797.6</ele>
        <time>2020-09-02T14:08:27.337Z</time>
      </trkpt>
      <trkpt lat="42.49282" lon="2.4106">
        <ele>1798.1</ele>
        <time>2020-09-02T14:08:42.660Z</time>
      </trkpt>
      <trkpt lat="42.49285" lon="2.41053">
        <ele>1798.9</ele>
        <time>2020-09-02T14:09:09.762Z</time>
      </trkpt>
      <trkpt lat="42.49287" lon="2.41047">
        <ele>1799.9</ele>
        <time>2020-09-02T14:09:31.804Z</time>
      </trkpt>
      <trkpt lat="42.49289" lon="2.41042">
        <ele>1800.9</ele>
        <time>2020-09-02T14:09:50.845Z</time>
      </trkpt>
      <trkpt lat="42.4929" lon="2.41037">
        <ele>1801.8</ele>
        <time>2020-09-02T14:10:08.187Z</time>
      </trkpt>
      <trkpt lat="42.49293" lon="2.41034">
        <ele>1802.2</ele>
        <time>2020-09-02T14:10:20.471Z</time>
      </trkpt>
      <trkpt lat="42.49295" lon="2.41032">
        <ele>1802.2</ele>
        <time>2020-09-02T14:10:23.395Z</time>
      </trkpt>
      <trkpt lat="42.49297" lon="2.41033">
        <ele>1801.9</ele>
        <time>2020-09-02T14:10:23.898Z</time>
      </trkpt>
      <trkpt lat="42.493" lon="2.41034">
        <ele>1801.4</ele>
        <time>2020-09-02T14:10:24.626Z</time>
      </trkpt>
      <trkpt lat="42.49301" lon="2.41036">
        <ele>1800.8</ele>
        <time>2020-09-02T14:10:25.045Z</time>
      </trkpt>
      <trkpt lat="42.49303" lon="2.41037">
        <ele>1800.2</ele>
        <time>2020-09-02T14:10:25.548Z</time>
      </trkpt>
      <trkpt lat="42.49305" lon="2.4104">
        <ele>1799.4</ele>
        <time>2020-09-02T14:10:26.250Z</time>
      </trkpt>
      <trkpt lat="42.49308" lon="2.41042">
        <ele>1798.3</ele>
        <time>2020-09-02T14:10:27.038Z</time>
      </trkpt>
      <trkpt lat="42.49313" lon="2.41044">
        <ele>1797</ele>
        <time>2020-09-02T14:10:28.266Z</time>
      </trkpt>
      <trkpt lat="42.49318" lon="2.41045">
        <ele>1796.1</ele>
        <time>2020-09-02T14:10:29.457Z</time>
      </trkpt>
      <trkpt lat="42.49324" lon="2.41046">
        <ele>1795</ele>
        <time>2020-09-02T14:10:30.882Z</time>
      </trkpt>
      <trkpt lat="42.49331" lon="2.41047">
        <ele>1794.1</ele>
        <time>2020-09-02T14:10:32.540Z</time>
      </trkpt>
      <trkpt lat="42.49339" lon="2.41047">
        <ele>1780.5</ele>
        <time>2020-09-02T14:10:34.425Z</time>
      </trkpt>
      <trkpt lat="42.49348" lon="2.41047">
        <ele>1780.1</ele>
        <time>2020-09-02T14:10:36.762Z</time>
      </trkpt>
      <trkpt lat="42.49356" lon="2.41047">
        <ele>1779.6</ele>
        <time>2020-09-02T14:10:38.545Z</time>
      </trkpt>
      <trkpt lat="42.49362" lon="2.41045">
        <ele>1779.6</ele>
        <time>2020-09-02T14:10:45.817Z</time>
      </trkpt>
      <trkpt lat="42.49368" lon="2.41043">
        <ele>1779.8</ele>
        <time>2020-09-02T14:10:56.154Z</time>
      </trkpt>
      <trkpt lat="42.49374" lon="2.4104">
        <ele>1780</ele>
        <time>2020-09-02T14:11:06.702Z</time>
      </trkpt>
      <trkpt lat="42.4938" lon="2.41037">
        <ele>1780.1</ele>
        <time>2020-09-02T14:11:15.487Z</time>
      </trkpt>
      <trkpt lat="42.49386" lon="2.41033">
        <ele>1780.5</ele>
        <time>2020-09-02T14:11:30.193Z</time>
      </trkpt>
      <trkpt lat="42.49392" lon="2.4103">
        <ele>1781.2</ele>
        <time>2020-09-02T14:11:51.754Z</time>
      </trkpt>
      <trkpt lat="42.49398" lon="2.41026">
        <ele>1782.2</ele>
        <time>2020-09-02T14:12:22.105Z</time>
      </trkpt>
      <trkpt lat="42.49402" lon="2.41023">
        <ele>1783</ele>
        <time>2020-09-02T14:12:42.856Z</time>
      </trkpt>
      <trkpt lat="42.49407" lon="2.41021">
        <ele>1784</ele>
        <time>2020-09-02T14:13:06.521Z</time>
      </trkpt>
      <trkpt lat="42.49414" lon="2.41019">
        <ele>1784.8</ele>
        <time>2020-09-02T14:13:31.269Z</time>
      </trkpt>
      <trkpt lat="42.49421" lon="2.41018">
        <ele>1771.7</ele>
        <time>2020-09-02T14:13:32.928Z</time>
      </trkpt>
      <trkpt lat="42.49429" lon="2.41017">
        <ele>1769.8</ele>
        <time>2020-09-02T14:13:34.821Z</time>
      </trkpt>
      <trkpt lat="42.49438" lon="2.41015">
        <ele>1766.4</ele>
        <time>2020-09-02T14:13:36.970Z</time>
      </trkpt>
      <trkpt lat="42.49447" lon="2.41011">
        <ele>1763.1</ele>
        <time>2020-09-02T14:13:39.202Z</time>
      </trkpt>
      <trkpt lat="42.49458" lon="2.41008">
        <ele>1759.1</ele>
        <time>2020-09-02T14:13:41.845Z</time>
      </trkpt>
      <trkpt lat="42.49468" lon="2.41005">
        <ele>1756.5</ele>
        <time>2020-09-02T14:13:44.259Z</time>
      </trkpt>
      <trkpt lat="42.49476" lon="2.41002">
        <ele>1754.8</ele>
        <time>2020-09-02T14:13:46.214Z</time>
      </trkpt>
      <trkpt lat="42.49486" lon="2.40999">
        <ele>1772.9</ele>
        <time>2020-09-02T14:14:32.709Z</time>
      </trkpt>
      <trkpt lat="42.49499" lon="2.40994">
        <ele>1762.9</ele>
        <time>2020-09-02T14:14:35.893Z</time>
      </trkpt>
      <trkpt lat="42.49512" lon="2.4099">
        <ele>1763.4</ele>
        <time>2020-09-02T14:14:59.794Z</time>
      </trkpt>
      <trkpt lat="42.49519" lon="2.40986">
        <ele>1766.5</ele>
        <time>2020-09-02T14:15:34.278Z</time>
      </trkpt>
      <trkpt lat="42.49524" lon="2.40982">
        <ele>1768.4</ele>
        <time>2020-09-02T14:16:00.631Z</time>
      </trkpt>
      <trkpt lat="42.49528" lon="2.40978">
        <ele>1769.8</ele>
        <time>2020-09-02T14:16:23.192Z</time>
      </trkpt>
      <trkpt lat="42.49533" lon="2.40975">
        <ele>1770.8</ele>
        <time>2020-09-02T14:16:48.013Z</time>
      </trkpt>
      <trkpt lat="42.49538" lon="2.40973">
        <ele>1771.2</ele>
        <time>2020-09-02T14:17:01.019Z</time>
      </trkpt>
      <trkpt lat="42.49542" lon="2.40973">
        <ele>1771.1</ele>
        <time>2020-09-02T14:17:02.281Z</time>
      </trkpt>
      <trkpt lat="42.49545" lon="2.40973">
        <ele>1770.9</ele>
        <time>2020-09-02T14:17:02.929Z</time>
      </trkpt>
      <trkpt lat="42.49549" lon="2.40973">
        <ele>1770.6</ele>
        <time>2020-09-02T14:17:03.871Z</time>
      </trkpt>
      <trkpt lat="42.49554" lon="2.40971">
        <ele>1770.7</ele>
        <time>2020-09-02T14:17:11.315Z</time>
      </trkpt>
      <trkpt lat="42.49558" lon="2.40969">
        <ele>1771</ele>
        <time>2020-09-02T14:17:21.440Z</time>
      </trkpt>
      <trkpt lat="42.49562" lon="2.40966">
        <ele>1771.3</ele>
        <time>2020-09-02T14:17:31.920Z</time>
      </trkpt>
      <trkpt lat="42.49567" lon="2.40965">
        <ele>1771.6</ele>
        <time>2020-09-02T14:17:43.001Z</time>
      </trkpt>
      <trkpt lat="42.4957" lon="2.40964">
        <ele>1771.7</ele>
        <time>2020-09-02T14:17:48.169Z</time>
      </trkpt>
      <trkpt lat="42.49574" lon="2.40964">
        <ele>1771.6</ele>
        <time>2020-09-02T14:17:49.431Z</time>
      </trkpt>
      <trkpt lat="42.49579" lon="2.40964">
        <ele>1771.2</ele>
        <time>2020-09-02T14:17:50.609Z</time>
      </trkpt>
      <trkpt lat="42.49584" lon="2.40965">
        <ele>1768.5</ele>
        <time>2020-09-02T14:17:51.800Z</time>
      </trkpt>
      <trkpt lat="42.49589" lon="2.40967">
        <ele>1767.9</ele>
        <time>2020-09-02T14:17:53.028Z</time>
      </trkpt>
      <trkpt lat="42.49595" lon="2.40969">
        <ele>1767.3</ele>
        <time>2020-09-02T14:17:54.484Z</time>
      </trkpt>
      <trkpt lat="42.49602" lon="2.40972">
        <ele>1766.8</ele>
        <time>2020-09-02T14:17:56.214Z</time>
      </trkpt>
      <trkpt lat="42.4961" lon="2.40976">
        <ele>1766.7</ele>
        <time>2020-09-02T14:17:59.368Z</time>
      </trkpt>
      <trkpt lat="42.4962" lon="2.40981">
        <ele>1766.7</ele>
        <time>2020-09-02T14:18:11.912Z</time>
      </trkpt>
      <trkpt lat="42.49629" lon="2.40985">
        <ele>1766.4</ele>
        <time>2020-09-02T14:18:14.694Z</time>
      </trkpt>
      <trkpt lat="42.49642" lon="2.40992">
        <ele>1765.2</ele>
        <time>2020-09-02T14:18:17.990Z</time>
      </trkpt>
      <trkpt lat="42.4965" lon="2.40995">
        <ele>1763.6</ele>
        <time>2020-09-02T14:18:19.946Z</time>
      </trkpt>
      <trkpt lat="42.49659" lon="2.41">
        <ele>1750.7</ele>
        <time>2020-09-02T14:18:22.237Z</time>
      </trkpt>
      <trkpt lat="42.49665" lon="2.41004">
        <ele>1753.1</ele>
        <time>2020-09-02T14:18:52.589Z</time>
      </trkpt>
      <trkpt lat="42.49672" lon="2.41009">
        <ele>1748.9</ele>
        <time>2020-09-02T14:18:54.453Z</time>
      </trkpt>
      <trkpt lat="42.49678" lon="2.41016">
        <ele>1744.4</ele>
        <time>2020-09-02T14:18:56.318Z</time>
      </trkpt>
      <trkpt lat="42.49683" lon="2.41021">
        <ele>1741.6</ele>
        <time>2020-09-02T14:18:57.781Z</time>
      </trkpt>
      <trkpt lat="42.49688" lon="2.41026">
        <ele>1739.7</ele>
        <time>2020-09-02T14:18:59.245Z</time>
      </trkpt>
      <trkpt lat="42.4969" lon="2.41027">
        <ele>1738.8</ele>
        <time>2020-09-02T14:18:59.747Z</time>
      </trkpt>
      <trkpt lat="42.49695" lon="2.41029">
        <ele>1737.9</ele>
        <time>2020-09-02T14:19:00.976Z</time>
      </trkpt>
      <trkpt lat="42.497" lon="2.4103">
        <ele>1737.3</ele>
        <time>2020-09-02T14:19:02.167Z</time>
      </trkpt>
      <trkpt lat="42.49705" lon="2.41029">
        <ele>1737.1</ele>
        <time>2020-09-02T14:19:03.540Z</time>
      </trkpt>
      <trkpt lat="42.49708" lon="2.41027">
        <ele>1737.1</ele>
        <time>2020-09-02T14:19:07.474Z</time>
      </trkpt>
      <trkpt lat="42.49715" lon="2.41022">
        <ele>1737.4</ele>
        <time>2020-09-02T14:19:21.741Z</time>
      </trkpt>
      <trkpt lat="42.49729" lon="2.41006">
        <ele>1738.7</ele>
        <time>2020-09-02T14:20:05.432Z</time>
      </trkpt>
      <trkpt lat="42.49745" lon="2.40986">
        <ele>1751.7</ele>
        <time>2020-09-02T14:21:44.211Z</time>
      </trkpt>
      <trkpt lat="42.49752" lon="2.40979">
        <ele>1742.8</ele>
        <time>2020-09-02T14:21:46.261Z</time>
      </trkpt>
      <trkpt lat="42.49759" lon="2.40972">
        <ele>1743.3</ele>
        <time>2020-09-02T14:22:05.083Z</time>
      </trkpt>
      <trkpt lat="42.49766" lon="2.40965">
        <ele>1743.8</ele>
        <time>2020-09-02T14:22:23.905Z</time>
      </trkpt>
      <trkpt lat="42.49774" lon="2.40957">
        <ele>1744.3</ele>
        <time>2020-09-02T14:22:44.401Z</time>
      </trkpt>
      <trkpt lat="42.49782" lon="2.40948">
        <ele>1744.6</ele>
        <time>2020-09-02T14:23:01.031Z</time>
      </trkpt>
      <trkpt lat="42.4979" lon="2.40941">
        <ele>1744.5</ele>
        <time>2020-09-02T14:23:04.609Z</time>
      </trkpt>
      <trkpt lat="42.49797" lon="2.40931">
        <ele>1744.4</ele>
        <time>2020-09-02T14:23:08.465Z</time>
      </trkpt>
      <trkpt lat="42.49803" lon="2.40925">
        <ele>1744</ele>
        <time>2020-09-02T14:23:10.250Z</time>
      </trkpt>
      <trkpt lat="42.49809" lon="2.40919">
        <ele>1743.6</ele>
        <time>2020-09-02T14:23:12.035Z</time>
      </trkpt>
      <trkpt lat="42.49816" lon="2.40914">
        <ele>1756.5</ele>
        <time>2020-09-02T14:23:47.950Z</time>
      </trkpt>
      <trkpt lat="42.49824" lon="2.4091">
        <ele>1752.7</ele>
        <time>2020-09-02T14:23:49.960Z</time>
      </trkpt>
      <trkpt lat="42.49832" lon="2.40907">
        <ele>1751.5</ele>
        <time>2020-09-02T14:23:51.915Z</time>
      </trkpt>
      <trkpt lat="42.49843" lon="2.40904">
        <ele>1744.7</ele>
        <time>2020-09-02T14:23:54.559Z</time>
      </trkpt>
      <trkpt lat="42.49852" lon="2.40901">
        <ele>1744.7</ele>
        <time>2020-09-02T14:24:05.467Z</time>
      </trkpt>
      <trkpt lat="42.49861" lon="2.40899">
        <ele>1744.2</ele>
        <time>2020-09-02T14:24:07.630Z</time>
      </trkpt>
      <trkpt lat="42.4987" lon="2.40897">
        <ele>1743.2</ele>
        <time>2020-09-02T14:24:09.779Z</time>
      </trkpt>
      <trkpt lat="42.49878" lon="2.40896">
        <ele>1741.9</ele>
        <time>2020-09-02T14:24:11.672Z</time>
      </trkpt>
      <trkpt lat="42.49887" lon="2.40896">
        <ele>1740.2</ele>
        <time>2020-09-02T14:24:13.793Z</time>
      </trkpt>
      <trkpt lat="42.49898" lon="2.40894">
        <ele>1738.1</ele>
        <time>2020-09-02T14:24:16.408Z</time>
      </trkpt>
      <trkpt lat="42.49909" lon="2.40892">
        <ele>1736.9</ele>
        <time>2020-09-02T14:24:19.023Z</time>
      </trkpt>
      <trkpt lat="42.49919" lon="2.40889">
        <ele>1726.5</ele>
        <time>2020-09-02T14:24:21.436Z</time>
      </trkpt>
      <trkpt lat="42.4993" lon="2.40885">
        <ele>1727</ele>
        <time>2020-09-02T14:24:43.856Z</time>
      </trkpt>
      <trkpt lat="42.4994" lon="2.40881">
        <ele>1727.2</ele>
        <time>2020-09-02T14:24:58.743Z</time>
      </trkpt>
      <trkpt lat="42.4995" lon="2.40879">
        <ele>1727</ele>
        <time>2020-09-02T14:25:02.127Z</time>
      </trkpt>
      <trkpt lat="42.49961" lon="2.40876">
        <ele>1726.4</ele>
        <time>2020-09-02T14:25:04.818Z</time>
      </trkpt>
      <trkpt lat="42.49971" lon="2.40875">
        <ele>1725.7</ele>
        <time>2020-09-02T14:25:07.181Z</time>
      </trkpt>
      <trkpt lat="42.49978" lon="2.40873">
        <ele>1725.3</ele>
        <time>2020-09-02T14:25:08.862Z</time>
      </trkpt>
      <trkpt lat="42.49986" lon="2.40871">
        <ele>1724.9</ele>
        <time>2020-09-02T14:25:10.887Z</time>
      </trkpt>
      <trkpt lat="42.49994" lon="2.40868">
        <ele>1724.6</ele>
        <time>2020-09-02T14:25:13.218Z</time>
      </trkpt>
      <trkpt lat="42.49995" lon="2.40868">
        <ele>1724.6</ele>
        <time>2020-09-02T14:25:14.395Z</time>
        <extensions>
          <visugpx:TrkExtension xmlns:visugpx="https://www.visugpx.com/editgpx/">
            <visugpx:node>16</visugpx:node>
            </visugpx:TrkExtension>
        </extensions>
      </trkpt>
      <trkpt lat="42.50036" lon="2.40948">
        <ele>1706.8</ele>
        <time>2020-09-02T14:25:31.321Z</time>
      </trkpt>
    </trkseg>
  </trk>
  <trk>
    <name><![CDATA[Pic et tour du Canigou _5]]></name>
    <extensions>
      <line xmlns="http://www.topografix.com/GPX/gpx_style/0/2">
        <color>0998c8</color>
        <opacity>1</opacity>
        <width>4</width>
      </line>
    </extensions>
    <trkseg>
      <trkpt lat="42.50036" lon="2.40934">
        <ele>1708.2</ele>
        <time>2020-09-03T06:00:00.000Z</time>
      </trkpt>
      <trkpt lat="42.50017" lon="2.40881">
        <ele>1716.4</ele>
        <time>2020-09-03T06:06:42.423Z</time>
        <extensions>
          <visugpx:TrkExtension xmlns:visugpx="https://www.visugpx.com/editgpx/">
            <visugpx:node>1</visugpx:node>
            </visugpx:TrkExtension>
        </extensions>
      </trkpt>
      <trkpt lat="42.50028" lon="2.40836">
        <ele>1717.5</ele>
        <time>2020-09-03T06:08:40.345Z</time>
        <extensions>
          <visugpx:TrkExtension xmlns:visugpx="https://www.visugpx.com/editgpx/">
            <visugpx:node>2</visugpx:node>
            </visugpx:TrkExtension>
        </extensions>
      </trkpt>
      <trkpt lat="42.50025" lon="2.40836">
        <ele>1717.8</ele>
        <time>2020-09-03T06:08:59.078Z</time>
      </trkpt>
      <trkpt lat="42.50025" lon="2.4083">
        <ele>1716.6</ele>
        <time>2020-09-03T06:09:00.728Z</time>
      </trkpt>
      <trkpt lat="42.50024" lon="2.40816">
        <ele>1716</ele>
        <time>2020-09-03T06:09:04.525Z</time>
      </trkpt>
      <trkpt lat="42.50024" lon="2.40803">
        <ele>1715.3</ele>
        <time>2020-09-03T06:09:08.100Z</time>
      </trkpt>
      <trkpt lat="42.50024" lon="2.40789">
        <ele>1714.8</ele>
        <time>2020-09-03T06:09:12.193Z</time>
      </trkpt>
      <trkpt lat="42.50024" lon="2.40776">
        <ele>1714.8</ele>
        <time>2020-09-03T06:09:35.207Z</time>
      </trkpt>
      <trkpt lat="42.50024" lon="2.40761">
        <ele>1715.3</ele>
        <time>2020-09-03T06:10:20.228Z</time>
      </trkpt>
      <trkpt lat="42.50025" lon="2.4075">
        <ele>1715.4</ele>
        <time>2020-09-03T06:10:42.326Z</time>
      </trkpt>
      <trkpt lat="42.50025" lon="2.40739">
        <ele>1711.2</ele>
        <time>2020-09-03T06:10:45.351Z</time>
      </trkpt>
      <trkpt lat="42.50025" lon="2.40728">
        <ele>1710.2</ele>
        <time>2020-09-03T06:10:48.376Z</time>
      </trkpt>
      <trkpt lat="42.50025" lon="2.40716">
        <ele>1709.3</ele>
        <time>2020-09-03T06:10:51.676Z</time>
      </trkpt>
      <trkpt lat="42.50025" lon="2.40704">
        <ele>1708.9</ele>
        <time>2020-09-03T06:10:55.287Z</time>
      </trkpt>
      <trkpt lat="42.50025" lon="2.40691">
        <ele>1709.1</ele>
        <time>2020-09-03T06:11:23.739Z</time>
      </trkpt>
      <trkpt lat="42.50024" lon="2.40673">
        <ele>1710.1</ele>
        <time>2020-09-03T06:12:30.636Z</time>
      </trkpt>
      <trkpt lat="42.50027" lon="2.40679">
        <ele>1709</ele>
        <time>2020-09-03T06:12:32.630Z</time>
      </trkpt>
      <trkpt lat="42.50035" lon="2.40699">
        <ele>1706.9</ele>
        <time>2020-09-03T06:12:38.887Z</time>
      </trkpt>
      <trkpt lat="42.50041" lon="2.40711">
        <ele>1706.2</ele>
        <time>2020-09-03T06:12:42.573Z</time>
      </trkpt>
      <trkpt lat="42.50048" lon="2.40725">
        <ele>1705.3</ele>
        <time>2020-09-03T06:12:47.225Z</time>
      </trkpt>
      <trkpt lat="42.50058" lon="2.40672">
        <ele>1699.7</ele>
        <time>2020-09-03T06:13:02.270Z</time>
        <extensions>
          <visugpx:TrkExtension xmlns:visugpx="https://www.visugpx.com/editgpx/">
            <visugpx:node>4</visugpx:node>
            </visugpx:TrkExtension>
        </extensions>
      </trkpt>
      <trkpt lat="42.50061" lon="2.40654">
        <ele>1695.5</ele>
        <time>2020-09-03T06:13:07.345Z</time>
      </trkpt>
      <trkpt lat="42.50085" lon="2.4049">
        <ele>1649.4</ele>
        <time>2020-09-03T06:13:53.326Z</time>
      </trkpt>
      <trkpt lat="42.50075" lon="2.40466">
        <ele>1654.8</ele>
        <time>2020-09-03T06:17:01.568Z</time>
      </trkpt>
      <trkpt lat="42.50055" lon="2.40441">
        <ele>1650.9</ele>
        <time>2020-09-03T06:17:11.713Z</time>
      </trkpt>
      <trkpt lat="42.50019" lon="2.40411">
        <ele>1646</ele>
        <time>2020-09-03T06:17:27.474Z</time>
      </trkpt>
      <trkpt lat="42.49987" lon="2.40382">
        <ele>1664</ele>
        <time>2020-09-03T06:23:23.919Z</time>
      </trkpt>
      <trkpt lat="42.5001" lon="2.4035">
        <ele>1644.4</ele>
        <time>2020-09-03T06:23:36.209Z</time>
      </trkpt>
      <trkpt lat="42.50023" lon="2.40334">
        <ele>1642.5</ele>
        <time>2020-09-03T06:23:42.757Z</time>
      </trkpt>
      <trkpt lat="42.5005" lon="2.4032">
        <ele>1643.3</ele>
        <time>2020-09-03T06:25:15.736Z</time>
      </trkpt>
      <trkpt lat="42.501" lon="2.40299">
        <ele>1620</ele>
        <time>2020-09-03T06:25:35.260Z</time>
      </trkpt>
      <trkpt lat="42.5015" lon="2.4026">
        <ele>1614.8</ele>
        <time>2020-09-03T06:25:56.774Z</time>
      </trkpt>
      <trkpt lat="42.50181" lon="2.40232">
        <ele>1608.1</ele>
        <time>2020-09-03T06:26:10.666Z</time>
      </trkpt>
      <trkpt lat="42.50195" lon="2.40207">
        <ele>1608.6</ele>
        <time>2020-09-03T06:27:19.953Z</time>
      </trkpt>
      <trkpt lat="42.50202" lon="2.40186">
        <ele>1610.4</ele>
        <time>2020-09-03T06:29:12.567Z</time>
      </trkpt>
      <trkpt lat="42.50231" lon="2.40168">
        <ele>1604.5</ele>
        <time>2020-09-03T06:29:24.463Z</time>
      </trkpt>
      <trkpt lat="42.50258" lon="2.40155">
        <ele>1598.3</ele>
        <time>2020-09-03T06:29:35.150Z</time>
      </trkpt>
      <trkpt lat="42.50279" lon="2.40135">
        <ele>1595.5</ele>
        <time>2020-09-03T06:29:44.721Z</time>
      </trkpt>
      <trkpt lat="42.50289" lon="2.40101">
        <ele>1597.1</ele>
        <time>2020-09-03T06:31:45.372Z</time>
      </trkpt>
      <trkpt lat="42.50305" lon="2.40084">
        <ele>1592.7</ele>
        <time>2020-09-03T06:31:52.953Z</time>
      </trkpt>
      <trkpt lat="42.5033" lon="2.40049">
        <ele>1600.7</ele>
        <time>2020-09-03T06:37:25.709Z</time>
      </trkpt>
      <trkpt lat="42.50362" lon="2.40022">
        <ele>1570.7</ele>
        <time>2020-09-03T06:37:39.766Z</time>
      </trkpt>
      <trkpt lat="42.50373" lon="2.39993">
        <ele>1570.3</ele>
        <time>2020-09-03T06:37:53.001Z</time>
      </trkpt>
      <trkpt lat="42.50379" lon="2.39962">
        <ele>1567.4</ele>
        <time>2020-09-03T06:38:01.814Z</time>
      </trkpt>
      <trkpt lat="42.50379" lon="2.39941">
        <ele>1566.5</ele>
        <time>2020-09-03T06:38:07.470Z</time>
      </trkpt>
      <trkpt lat="42.50374" lon="2.39902">
        <ele>1557.7</ele>
        <time>2020-09-03T06:38:18.356Z</time>
      </trkpt>
      <trkpt lat="42.50366" lon="2.39864">
        <ele>1555.2</ele>
        <time>2020-09-03T06:38:29.224Z</time>
      </trkpt>
      <trkpt lat="42.50353" lon="2.39828">
        <ele>1549.6</ele>
        <time>2020-09-03T06:38:40.247Z</time>
      </trkpt>
      <trkpt lat="42.50335" lon="2.39811">
        <ele>1550.1</ele>
        <time>2020-09-03T06:39:46.813Z</time>
      </trkpt>
      <trkpt lat="42.50311" lon="2.39804">
        <ele>1570.2</ele>
        <time>2020-09-03T06:43:34.176Z</time>
      </trkpt>
      <trkpt lat="42.5029" lon="2.39786">
        <ele>1572.5</ele>
        <time>2020-09-03T06:45:58.844Z</time>
      </trkpt>
      <trkpt lat="42.50286" lon="2.39771">
        <ele>1572.3</ele>
        <time>2020-09-03T06:46:05.288Z</time>
      </trkpt>
      <trkpt lat="42.50316" lon="2.39742">
        <ele>1564.6</ele>
        <time>2020-09-03T06:46:19.029Z</time>
      </trkpt>
      <trkpt lat="42.50372" lon="2.39704">
        <ele>1547.2</ele>
        <time>2020-09-03T06:46:42.385Z</time>
      </trkpt>
      <trkpt lat="42.50401" lon="2.39691">
        <ele>1543.5</ele>
        <time>2020-09-03T06:46:53.778Z</time>
      </trkpt>
      <trkpt lat="42.50432" lon="2.39658">
        <ele>1540.5</ele>
        <time>2020-09-03T06:47:08.477Z</time>
      </trkpt>
      <trkpt lat="42.50451" lon="2.39644">
        <ele>1539.1</ele>
        <time>2020-09-03T06:47:15.974Z</time>
      </trkpt>
      <trkpt lat="42.50472" lon="2.39636">
        <ele>1535.6</ele>
        <time>2020-09-03T06:47:24.111Z</time>
        <extensions>
          <visugpx:TrkExtension xmlns:visugpx="https://www.visugpx.com/editgpx/">
            <visugpx:node>5</visugpx:node>
            </visugpx:TrkExtension>
        </extensions>
      </trkpt>
      <trkpt lat="42.5048" lon="2.39633">
        <ele>1534.5</ele>
        <time>2020-09-03T06:47:27.207Z</time>
      </trkpt>
      <trkpt lat="42.50502" lon="2.39623">
        <ele>1514</ele>
        <time>2020-09-03T06:47:35.861Z</time>
      </trkpt>
      <trkpt lat="42.50514" lon="2.39616">
        <ele>1514.1</ele>
        <time>2020-09-03T06:48:09.592Z</time>
      </trkpt>
      <trkpt lat="42.50523" lon="2.39637">
        <ele>1510.7</ele>
        <time>2020-09-03T06:48:16.272Z</time>
      </trkpt>
      <trkpt lat="42.50526" lon="2.39651">
        <ele>1509.9</ele>
        <time>2020-09-03T06:48:20.281Z</time>
      </trkpt>
      <trkpt lat="42.5053" lon="2.39654">
        <ele>1509.3</ele>
        <time>2020-09-03T06:48:21.986Z</time>
      </trkpt>
      <trkpt lat="42.50538" lon="2.39646">
        <ele>1508.3</ele>
        <time>2020-09-03T06:48:25.693Z</time>
      </trkpt>
      <trkpt lat="42.5054" lon="2.39638">
        <ele>1508.3</ele>
        <time>2020-09-03T06:48:40.647Z</time>
      </trkpt>
      <trkpt lat="42.50539" lon="2.39634">
        <ele>1508.6</ele>
        <time>2020-09-03T06:48:59.422Z</time>
      </trkpt>
      <trkpt lat="42.50549" lon="2.39631">
        <ele>1507.1</ele>
        <time>2020-09-03T06:49:03.242Z</time>
      </trkpt>
      <trkpt lat="42.50563" lon="2.39638">
        <ele>1504.7</ele>
        <time>2020-09-03T06:49:08.808Z</time>
      </trkpt>
      <trkpt lat="42.50574" lon="2.39649">
        <ele>1502.1</ele>
        <time>2020-09-03T06:49:13.905Z</time>
      </trkpt>
      <trkpt lat="42.50593" lon="2.39671">
        <ele>1486.3</ele>
        <time>2020-09-03T06:49:23.223Z</time>
      </trkpt>
      <trkpt lat="42.506" lon="2.39679">
        <ele>1480.2</ele>
        <time>2020-09-03T06:49:26.637Z</time>
      </trkpt>
      <trkpt lat="42.50605" lon="2.39679">
        <ele>1478</ele>
        <time>2020-09-03T06:49:28.502Z</time>
      </trkpt>
      <trkpt lat="42.50608" lon="2.39669">
        <ele>1478.3</ele>
        <time>2020-09-03T06:49:57.691Z</time>
      </trkpt>
      <trkpt lat="42.50603" lon="2.39648">
        <ele>1485.7</ele>
        <time>2020-09-03T06:52:28.368Z</time>
      </trkpt>
      <trkpt lat="42.50601" lon="2.39642">
        <ele>1485.5</ele>
        <time>2020-09-03T06:52:30.424Z</time>
        <extensions>
          <visugpx:TrkExtension xmlns:visugpx="https://www.visugpx.com/editgpx/">
            <visugpx:node>6</visugpx:node>
            </visugpx:TrkExtension>
        </extensions>
      </trkpt>
      <trkpt lat="42.50595" lon="2.39616">
        <ele>1485.9</ele>
        <time>2020-09-03T06:53:29.412Z</time>
      </trkpt>
      <trkpt lat="42.50585" lon="2.39568">
        <ele>1494.8</ele>
        <time>2020-09-03T06:59:09.983Z</time>
      </trkpt>
      <trkpt lat="42.50585" lon="2.39559">
        <ele>1495.8</ele>
        <time>2020-09-03T07:00:11.434Z</time>
      </trkpt>
      <trkpt lat="42.50589" lon="2.39553">
        <ele>1496.5</ele>
        <time>2020-09-03T07:00:56.264Z</time>
      </trkpt>
      <trkpt lat="42.50594" lon="2.39554">
        <ele>1496.3</ele>
        <time>2020-09-03T07:00:58.437Z</time>
      </trkpt>
      <trkpt lat="42.50628" lon="2.39559">
        <ele>1494.6</ele>
        <time>2020-09-03T07:01:11.847Z</time>
      </trkpt>
      <trkpt lat="42.50665" lon="2.39564">
        <ele>1489.6</ele>
        <time>2020-09-03T07:01:25.717Z</time>
      </trkpt>
      <trkpt lat="42.50687" lon="2.39571">
        <ele>1485.2</ele>
        <time>2020-09-03T07:01:34.146Z</time>
      </trkpt>
      <trkpt lat="42.50714" lon="2.3957">
        <ele>1484.4</ele>
        <time>2020-09-03T07:01:46.979Z</time>
      </trkpt>
      <trkpt lat="42.50753" lon="2.39563">
        <ele>1475.7</ele>
        <time>2020-09-03T07:02:01.653Z</time>
      </trkpt>
      <trkpt lat="42.50787" lon="2.3956">
        <ele>1476.3</ele>
        <time>2020-09-03T07:03:39.201Z</time>
      </trkpt>
      <trkpt lat="42.50818" lon="2.3956">
        <ele>1472</ele>
        <time>2020-09-03T07:03:50.764Z</time>
      </trkpt>
      <trkpt lat="42.50837" lon="2.39556">
        <ele>1461.5</ele>
        <time>2020-09-03T07:03:57.936Z</time>
      </trkpt>
      <trkpt lat="42.50863" lon="2.39547">
        <ele>1461.9</ele>
        <time>2020-09-03T07:05:12.557Z</time>
      </trkpt>
      <trkpt lat="42.50885" lon="2.39544">
        <ele>1459.2</ele>
        <time>2020-09-03T07:05:20.804Z</time>
      </trkpt>
      <trkpt lat="42.50897" lon="2.39524">
        <ele>1459.7</ele>
        <time>2020-09-03T07:06:20.938Z</time>
      </trkpt>
      <trkpt lat="42.50925" lon="2.3947">
        <ele>1454.7</ele>
        <time>2020-09-03T07:06:39.091Z</time>
      </trkpt>
      <trkpt lat="42.50927" lon="2.39464">
        <ele>1455.2</ele>
        <time>2020-09-03T07:07:10.316Z</time>
        <extensions>
          <visugpx:TrkExtension xmlns:visugpx="https://www.visugpx.com/editgpx/">
            <visugpx:node>7</visugpx:node>
            </visugpx:TrkExtension>
        </extensions>
      </trkpt>
      <trkpt lat="42.50944" lon="2.39429">
        <ele>1459.2</ele>
        <time>2020-09-03T07:11:40.936Z</time>
      </trkpt>
      <trkpt lat="42.50956" lon="2.39406">
        <ele>1464.7</ele>
        <time>2020-09-03T07:14:53.319Z</time>
      </trkpt>
      <trkpt lat="42.50962" lon="2.39393">
        <ele>1463.4</ele>
        <time>2020-09-03T07:14:57.536Z</time>
      </trkpt>
      <trkpt lat="42.50961" lon="2.39379">
        <ele>1463.7</ele>
        <time>2020-09-03T07:15:31.411Z</time>
      </trkpt>
      <trkpt lat="42.50982" lon="2.39376">
        <ele>1459.7</ele>
        <time>2020-09-03T07:15:39.287Z</time>
      </trkpt>
      <trkpt lat="42.50993" lon="2.39371">
        <ele>1458.2</ele>
        <time>2020-09-03T07:15:43.614Z</time>
      </trkpt>
      <trkpt lat="42.51003" lon="2.39368">
        <ele>1441.3</ele>
        <time>2020-09-03T07:15:47.435Z</time>
      </trkpt>
      <trkpt lat="42.51015" lon="2.39369">
        <ele>1440.6</ele>
        <time>2020-09-03T07:15:51.824Z</time>
      </trkpt>
      <trkpt lat="42.51026" lon="2.39365">
        <ele>1439.6</ele>
        <time>2020-09-03T07:15:56.072Z</time>
      </trkpt>
      <trkpt lat="42.51037" lon="2.39359">
        <ele>1438.6</ele>
        <time>2020-09-03T07:16:00.494Z</time>
      </trkpt>
      <trkpt lat="42.51043" lon="2.39359">
        <ele>1438</ele>
        <time>2020-09-03T07:16:02.732Z</time>
      </trkpt>
      <trkpt lat="42.51045" lon="2.39355">
        <ele>1437.8</ele>
        <time>2020-09-03T07:16:04.055Z</time>
      </trkpt>
      <trkpt lat="42.5105" lon="2.39355">
        <ele>1437.3</ele>
        <time>2020-09-03T07:16:05.920Z</time>
      </trkpt>
      <trkpt lat="42.51057" lon="2.39355">
        <ele>1436.5</ele>
        <time>2020-09-03T07:16:08.531Z</time>
      </trkpt>
      <trkpt lat="42.51065" lon="2.39351">
        <ele>1435.6</ele>
        <time>2020-09-03T07:16:11.712Z</time>
      </trkpt>
      <trkpt lat="42.51071" lon="2.39347">
        <ele>1434.9</ele>
        <time>2020-09-03T07:16:14.205Z</time>
      </trkpt>
      <trkpt lat="42.51076" lon="2.39343">
        <ele>1434.1</ele>
        <time>2020-09-03T07:16:16.370Z</time>
      </trkpt>
      <trkpt lat="42.51083" lon="2.39345">
        <ele>1433.8</ele>
        <time>2020-09-03T07:16:19.379Z</time>
      </trkpt>
      <trkpt lat="42.5109" lon="2.39346">
        <ele>1426.7</ele>
        <time>2020-09-03T07:16:22.004Z</time>
      </trkpt>
      <trkpt lat="42.51098" lon="2.39343">
        <ele>1425.5</ele>
        <time>2020-09-03T07:16:25.100Z</time>
      </trkpt>
      <trkpt lat="42.51106" lon="2.3934">
        <ele>1423.8</ele>
        <time>2020-09-03T07:16:28.196Z</time>
      </trkpt>
      <trkpt lat="42.5111" lon="2.39338">
        <ele>1423.2</ele>
        <time>2020-09-03T07:16:29.786Z</time>
      </trkpt>
      <trkpt lat="42.51108" lon="2.39336">
        <ele>1423.8</ele>
        <time>2020-09-03T07:16:52.799Z</time>
      </trkpt>
      <trkpt lat="42.51103" lon="2.39334">
        <ele>1425</ele>
        <time>2020-09-03T07:17:41.079Z</time>
      </trkpt>
      <trkpt lat="42.51097" lon="2.39332">
        <ele>1422.6</ele>
        <time>2020-09-03T07:17:43.383Z</time>
      </trkpt>
      <trkpt lat="42.51096" lon="2.39327">
        <ele>1422</ele>
        <time>2020-09-03T07:17:44.808Z</time>
      </trkpt>
      <trkpt lat="42.51103" lon="2.39316">
        <ele>1416.9</ele>
        <time>2020-09-03T07:17:48.803Z</time>
      </trkpt>
      <trkpt lat="42.51111" lon="2.39312">
        <ele>1414.5</ele>
        <time>2020-09-03T07:17:51.984Z</time>
      </trkpt>
      <trkpt lat="42.51118" lon="2.39312">
        <ele>1413.3</ele>
        <time>2020-09-03T07:17:54.595Z</time>
      </trkpt>
      <trkpt lat="42.51132" lon="2.39311">
        <ele>1411.6</ele>
        <time>2020-09-03T07:17:59.824Z</time>
      </trkpt>
      <trkpt lat="42.5115" lon="2.39318">
        <ele>1411.4</ele>
        <time>2020-09-03T07:18:10.939Z</time>
      </trkpt>
      <trkpt lat="42.51161" lon="2.39321">
        <ele>1411.9</ele>
        <time>2020-09-03T07:18:56.428Z</time>
      </trkpt>
      <trkpt lat="42.51169" lon="2.39321">
        <ele>1410.9</ele>
        <time>2020-09-03T07:18:59.412Z</time>
      </trkpt>
      <trkpt lat="42.51175" lon="2.39314">
        <ele>1409.4</ele>
        <time>2020-09-03T07:19:02.364Z</time>
      </trkpt>
      <trkpt lat="42.51177" lon="2.39303">
        <ele>1407.5</ele>
        <time>2020-09-03T07:19:05.479Z</time>
      </trkpt>
      <trkpt lat="42.51174" lon="2.39293">
        <ele>1405.5</ele>
        <time>2020-09-03T07:19:08.447Z</time>
      </trkpt>
      <trkpt lat="42.5117" lon="2.39279">
        <ele>1402.4</ele>
        <time>2020-09-03T07:19:12.576Z</time>
      </trkpt>
      <trkpt lat="42.51167" lon="2.39269">
        <ele>1399.6</ele>
        <time>2020-09-03T07:19:15.544Z</time>
      </trkpt>
      <trkpt lat="42.51164" lon="2.39263">
        <ele>1398.2</ele>
        <time>2020-09-03T07:19:17.538Z</time>
      </trkpt>
      <trkpt lat="42.51152" lon="2.39249">
        <ele>1384.5</ele>
        <time>2020-09-03T07:19:23.442Z</time>
      </trkpt>
      <trkpt lat="42.51151" lon="2.39248">
        <ele>1384.4</ele>
        <time>2020-09-03T07:19:23.905Z</time>
        <extensions>
          <visugpx:TrkExtension xmlns:visugpx="https://www.visugpx.com/editgpx/">
            <visugpx:node>8</visugpx:node>
            </visugpx:TrkExtension>
        </extensions>
      </trkpt>
      <trkpt lat="42.5113" lon="2.39237">
        <ele>1381</ele>
        <time>2020-09-03T07:19:32.302Z</time>
      </trkpt>
      <trkpt lat="42.51114" lon="2.39233">
        <ele>1381.9</ele>
        <time>2020-09-03T07:20:43.077Z</time>
      </trkpt>
      <trkpt lat="42.51097" lon="2.39232">
        <ele>1385.1</ele>
        <time>2020-09-03T07:23:20.675Z</time>
      </trkpt>
      <trkpt lat="42.51091" lon="2.39224">
        <ele>1382.6</ele>
        <time>2020-09-03T07:23:23.813Z</time>
      </trkpt>
      <trkpt lat="42.51091" lon="2.39215">
        <ele>1379.2</ele>
        <time>2020-09-03T07:23:26.288Z</time>
      </trkpt>
      <trkpt lat="42.51103" lon="2.39211">
        <ele>1377.2</ele>
        <time>2020-09-03T07:23:30.897Z</time>
      </trkpt>
      <trkpt lat="42.51123" lon="2.39198">
        <ele>1372.5</ele>
        <time>2020-09-03T07:23:39.169Z</time>
      </trkpt>
      <trkpt lat="42.51127" lon="2.39189">
        <ele>1370.3</ele>
        <time>2020-09-03T07:23:42.059Z</time>
      </trkpt>
      <trkpt lat="42.51117" lon="2.39178">
        <ele>1369</ele>
        <time>2020-09-03T07:23:46.861Z</time>
      </trkpt>
      <trkpt lat="42.511" lon="2.39163">
        <ele>1351.3</ele>
        <time>2020-09-03T07:23:54.426Z</time>
      </trkpt>
      <trkpt lat="42.5109" lon="2.39144">
        <ele>1348.9</ele>
        <time>2020-09-03T07:24:00.845Z</time>
      </trkpt>
      <trkpt lat="42.5109" lon="2.39134">
        <ele>1346.4</ele>
        <time>2020-09-03T07:24:03.594Z</time>
      </trkpt>
      <trkpt lat="42.51099" lon="2.39129">
        <ele>1344.5</ele>
        <time>2020-09-03T07:24:07.222Z</time>
      </trkpt>
      <trkpt lat="42.51115" lon="2.39128">
        <ele>1342.3</ele>
        <time>2020-09-03T07:24:13.197Z</time>
      </trkpt>
      <trkpt lat="42.5114" lon="2.39111">
        <ele>1335.1</ele>
        <time>2020-09-03T07:24:23.628Z</time>
      </trkpt>
      <trkpt lat="42.51163" lon="2.39093">
        <ele>1320.1</ele>
        <time>2020-09-03T07:24:33.532Z</time>
      </trkpt>
      <trkpt lat="42.51163" lon="2.39085">
        <ele>1314.2</ele>
        <time>2020-09-03T07:24:35.732Z</time>
      </trkpt>
      <trkpt lat="42.51151" lon="2.39082">
        <ele>1318.2</ele>
        <time>2020-09-03T07:26:28.744Z</time>
      </trkpt>
      <trkpt lat="42.51139" lon="2.39079">
        <ele>1323</ele>
        <time>2020-09-03T07:28:21.757Z</time>
      </trkpt>
      <trkpt lat="42.5115" lon="2.39045">
        <ele>1321.9</ele>
        <time>2020-09-03T07:28:33.458Z</time>
      </trkpt>
      <trkpt lat="42.51157" lon="2.39007">
        <ele>1312.2</ele>
        <time>2020-09-03T07:28:44.228Z</time>
      </trkpt>
      <trkpt lat="42.51172" lon="2.38971">
        <ele>1295.1</ele>
        <time>2020-09-03T07:28:55.598Z</time>
      </trkpt>
      <trkpt lat="42.51175" lon="2.38968">
        <ele>1294.9</ele>
        <time>2020-09-03T07:28:57.011Z</time>
      </trkpt>
      <trkpt lat="42.51215" lon="2.3893">
        <ele>1287.5</ele>
        <time>2020-09-03T07:29:15.226Z</time>
      </trkpt>
      <trkpt lat="42.5123" lon="2.38913">
        <ele>1287.4</ele>
        <time>2020-09-03T07:29:58.747Z</time>
      </trkpt>
      <trkpt lat="42.51241" lon="2.38901">
        <ele>1285</ele>
        <time>2020-09-03T07:30:04.012Z</time>
      </trkpt>
      <trkpt lat="42.51247" lon="2.38894">
        <ele>1286.9</ele>
        <time>2020-09-03T07:31:17.306Z</time>
      </trkpt>
      <trkpt lat="42.51255" lon="2.38882">
        <ele>1260.2</ele>
        <time>2020-09-03T07:31:21.754Z</time>
      </trkpt>
      <trkpt lat="42.5126" lon="2.38866">
        <ele>1261.5</ele>
        <time>2020-09-03T07:32:42.917Z</time>
      </trkpt>
      <trkpt lat="42.51269" lon="2.38843">
        <ele>1264.9</ele>
        <time>2020-09-03T07:35:40.693Z</time>
      </trkpt>
      <trkpt lat="42.51275" lon="2.38833">
        <ele>1274.1</ele>
        <time>2020-09-03T07:37:08.722Z</time>
      </trkpt>
      <trkpt lat="42.51284" lon="2.38825">
        <ele>1271.6</ele>
        <time>2020-09-03T07:37:12.735Z</time>
      </trkpt>
      <trkpt lat="42.513" lon="2.38817">
        <ele>1266.6</ele>
        <time>2020-09-03T07:37:19.096Z</time>
      </trkpt>
      <trkpt lat="42.51312" lon="2.38812">
        <ele>1263.2</ele>
        <time>2020-09-03T07:37:23.778Z</time>
      </trkpt>
      <trkpt lat="42.51322" lon="2.38804">
        <ele>1263.3</ele>
        <time>2020-09-03T07:37:54.042Z</time>
      </trkpt>
      <trkpt lat="42.51337" lon="2.3879">
        <ele>1238.3</ele>
        <time>2020-09-03T07:38:00.834Z</time>
      </trkpt>
      <trkpt lat="42.51352" lon="2.38774">
        <ele>1240.2</ele>
        <time>2020-09-03T07:39:59.490Z</time>
      </trkpt>
      <trkpt lat="42.51369" lon="2.38753">
        <ele>1237.5</ele>
        <time>2020-09-03T07:40:08.066Z</time>
      </trkpt>
      <trkpt lat="42.51387" lon="2.38732">
        <ele>1251.7</ele>
        <time>2020-09-03T07:43:47.945Z</time>
      </trkpt>
      <trkpt lat="42.51408" lon="2.38713">
        <ele>1251.6</ele>
        <time>2020-09-03T07:44:45.087Z</time>
      </trkpt>
      <trkpt lat="42.51428" lon="2.38697">
        <ele>1232.4</ele>
        <time>2020-09-03T07:44:53.747Z</time>
      </trkpt>
      <trkpt lat="42.5144" lon="2.38693">
        <ele>1230.9</ele>
        <time>2020-09-03T07:44:58.357Z</time>
      </trkpt>
      <trkpt lat="42.51453" lon="2.38693">
        <ele>1228</ele>
        <time>2020-09-03T07:45:03.206Z</time>
      </trkpt>
      <trkpt lat="42.5146" lon="2.38692">
        <ele>1226.7</ele>
        <time>2020-09-03T07:45:05.831Z</time>
      </trkpt>
      <trkpt lat="42.51467" lon="2.38689">
        <ele>1225.7</ele>
        <time>2020-09-03T07:45:08.569Z</time>
      </trkpt>
      <trkpt lat="42.51479" lon="2.38682">
        <ele>1223.9</ele>
        <time>2020-09-03T07:45:13.442Z</time>
      </trkpt>
      <trkpt lat="42.51491" lon="2.38678">
        <ele>1222.1</ele>
        <time>2020-09-03T07:45:18.051Z</time>
      </trkpt>
      <trkpt lat="42.51497" lon="2.38678">
        <ele>1221.6</ele>
        <time>2020-09-03T07:45:20.289Z</time>
      </trkpt>
      <trkpt lat="42.51503" lon="2.38681">
        <ele>1209.7</ele>
        <time>2020-09-03T07:45:22.674Z</time>
      </trkpt>
      <trkpt lat="42.51515" lon="2.38687">
        <ele>1204.5</ele>
        <time>2020-09-03T07:45:27.445Z</time>
      </trkpt>
      <trkpt lat="42.51521" lon="2.38689">
        <ele>1202.7</ele>
        <time>2020-09-03T07:45:29.749Z</time>
      </trkpt>
      <trkpt lat="42.51524" lon="2.38689">
        <ele>1201.8</ele>
        <time>2020-09-03T07:45:30.868Z</time>
      </trkpt>
      <trkpt lat="42.51527" lon="2.38689">
        <ele>1201.2</ele>
        <time>2020-09-03T07:45:31.987Z</time>
      </trkpt>
      <trkpt lat="42.51533" lon="2.38683">
        <ele>1200.6</ele>
        <time>2020-09-03T07:45:34.768Z</time>
      </trkpt>
      <trkpt lat="42.51537" lon="2.38678">
        <ele>1200.1</ele>
        <time>2020-09-03T07:45:36.796Z</time>
      </trkpt>
      <trkpt lat="42.51539" lon="2.38672">
        <ele>1200</ele>
        <time>2020-09-03T07:45:39.345Z</time>
      </trkpt>
      <trkpt lat="42.51541" lon="2.38665">
        <ele>1204.5</ele>
        <time>2020-09-03T07:46:30.597Z</time>
      </trkpt>
      <trkpt lat="42.5154" lon="2.38659">
        <ele>1204.4</ele>
        <time>2020-09-03T07:46:32.938Z</time>
      </trkpt>
      <trkpt lat="42.51539" lon="2.38648">
        <ele>1204.3</ele>
        <time>2020-09-03T07:46:37.690Z</time>
      </trkpt>
      <trkpt lat="42.51537" lon="2.38644">
        <ele>1204.6</ele>
        <time>2020-09-03T07:46:56.969Z</time>
      </trkpt>
      <trkpt lat="42.51527" lon="2.38631">
        <ele>1205.7</ele>
        <time>2020-09-03T07:48:09.007Z</time>
      </trkpt>
      <trkpt lat="42.51516" lon="2.38614">
        <ele>1206.9</ele>
        <time>2020-09-03T07:49:30.786Z</time>
      </trkpt>
      <trkpt lat="42.51513" lon="2.38601">
        <ele>1208.4</ele>
        <time>2020-09-03T07:51:03.783Z</time>
      </trkpt>
      <trkpt lat="42.51512" lon="2.38586">
        <ele>1210.7</ele>
        <time>2020-09-03T07:52:46.603Z</time>
      </trkpt>
      <trkpt lat="42.51511" lon="2.38577">
        <ele>1205.4</ele>
        <time>2020-09-03T07:52:49.105Z</time>
      </trkpt>
      <trkpt lat="42.51508" lon="2.38549">
        <ele>1196.2</ele>
        <time>2020-09-03T07:52:56.885Z</time>
      </trkpt>
      <trkpt lat="42.51496" lon="2.38499">
        <ele>1196.9</ele>
        <time>2020-09-03T07:54:48.401Z</time>
      </trkpt>
      <trkpt lat="42.51492" lon="2.38474">
        <ele>1200.1</ele>
        <time>2020-09-03T07:57:43.047Z</time>
      </trkpt>
      <trkpt lat="42.51484" lon="2.38443">
        <ele>1195.5</ele>
        <time>2020-09-03T07:57:52.078Z</time>
      </trkpt>
      <trkpt lat="42.51468" lon="2.38405">
        <ele>1183.1</ele>
        <time>2020-09-03T07:58:04.110Z</time>
      </trkpt>
      <trkpt lat="42.51451" lon="2.38366">
        <ele>1184.7</ele>
        <time>2020-09-03T08:00:22.437Z</time>
      </trkpt>
      <trkpt lat="42.5145" lon="2.38336">
        <ele>1183.6</ele>
        <time>2020-09-03T08:00:31.118Z</time>
      </trkpt>
      <trkpt lat="42.51454" lon="2.38287">
        <ele>1170.5</ele>
        <time>2020-09-03T08:00:44.673Z</time>
      </trkpt>
      <trkpt lat="42.51461" lon="2.38231">
        <ele>1158.2</ele>
        <time>2020-09-03T08:01:00.290Z</time>
      </trkpt>
      <trkpt lat="42.51463" lon="2.38217">
        <ele>1156.6</ele>
        <time>2020-09-03T08:01:04.211Z</time>
        <extensions>
          <visugpx:TrkExtension xmlns:visugpx="https://www.visugpx.com/editgpx/">
            <visugpx:node>9</visugpx:node>
            </visugpx:TrkExtension>
        </extensions>
      </trkpt>
      <trkpt lat="42.51465" lon="2.38204">
        <ele>1155.1</ele>
        <time>2020-09-03T08:01:07.862Z</time>
      </trkpt>
      <trkpt lat="42.51468" lon="2.38184">
        <ele>1152</ele>
        <time>2020-09-03T08:01:13.474Z</time>
      </trkpt>
      <trkpt lat="42.51468" lon="2.38171">
        <ele>1150.7</ele>
        <time>2020-09-03T08:01:17.048Z</time>
      </trkpt>
      <trkpt lat="42.51469" lon="2.38164">
        <ele>1140</ele>
        <time>2020-09-03T08:01:19.008Z</time>
      </trkpt>
      <trkpt lat="42.51468" lon="2.38155">
        <ele>1139.8</ele>
        <time>2020-09-03T08:01:22.189Z</time>
      </trkpt>
      <trkpt lat="42.51468" lon="2.38147">
        <ele>1139.6</ele>
        <time>2020-09-03T08:01:24.870Z</time>
      </trkpt>
      <trkpt lat="42.51467" lon="2.38137">
        <ele>1139.1</ele>
        <time>2020-09-03T08:01:27.644Z</time>
      </trkpt>
      <trkpt lat="42.51469" lon="2.3813">
        <ele>1138.2</ele>
        <time>2020-09-03T08:01:29.709Z</time>
      </trkpt>
      <trkpt lat="42.51472" lon="2.38124">
        <ele>1137.2</ele>
        <time>2020-09-03T08:01:31.702Z</time>
      </trkpt>
      <trkpt lat="42.51475" lon="2.3812">
        <ele>1136.2</ele>
        <time>2020-09-03T08:01:33.271Z</time>
      </trkpt>
      <trkpt lat="42.51483" lon="2.38116">
        <ele>1134.7</ele>
        <time>2020-09-03T08:01:36.451Z</time>
      </trkpt>
      <trkpt lat="42.51497" lon="2.38111">
        <ele>1132.5</ele>
        <time>2020-09-03T08:01:41.851Z</time>
      </trkpt>
      <trkpt lat="42.51498" lon="2.38101">
        <ele>1130</ele>
        <time>2020-09-03T08:01:44.626Z</time>
      </trkpt>
      <trkpt lat="42.51494" lon="2.38102">
        <ele>1130.7</ele>
        <time>2020-09-03T08:02:22.297Z</time>
      </trkpt>
      <trkpt lat="42.51491" lon="2.38103">
        <ele>1131.4</ele>
        <time>2020-09-03T08:02:50.908Z</time>
      </trkpt>
      <trkpt lat="42.51483" lon="2.38103">
        <ele>1132.6</ele>
        <time>2020-09-03T08:04:05.002Z</time>
      </trkpt>
      <trkpt lat="42.51482" lon="2.38103">
        <ele>1132.9</ele>
        <time>2020-09-03T08:04:14.264Z</time>
      </trkpt>
      <trkpt lat="42.5147" lon="2.38104">
        <ele>1135.1</ele>
        <time>2020-09-03T08:06:05.615Z</time>
      </trkpt>
      <trkpt lat="42.51455" lon="2.38106">
        <ele>1137.7</ele>
        <time>2020-09-03T08:08:25.210Z</time>
      </trkpt>
      <trkpt lat="42.51449" lon="2.38105">
        <ele>1138.4</ele>
        <time>2020-09-03T08:09:09.825Z</time>
      </trkpt>
      <trkpt lat="42.51444" lon="2.38104">
        <ele>1138.6</ele>
        <time>2020-09-03T08:09:28.861Z</time>
      </trkpt>
      <trkpt lat="42.51435" lon="2.38097">
        <ele>1138.4</ele>
        <time>2020-09-03T08:09:34.393Z</time>
      </trkpt>
      <trkpt lat="42.51423" lon="2.38089">
        <ele>1137.3</ele>
        <time>2020-09-03T08:09:39.380Z</time>
      </trkpt>
      <trkpt lat="42.51405" lon="2.38077">
        <ele>1136.9</ele>
        <time>2020-09-03T08:09:49.991Z</time>
      </trkpt>
    </trkseg>
  </trk>
</gpx>